<?xml version="1.0" encoding="UTF-8" standalone="no" ?>
<gpx xmlns="http://www.topografix.com/GPX/1/1" xmlns:xsi="http://www.w3.org/2001/XMLSchema-instance" xsi:schemaLocation="http://www.topografix.com/GPX/1/1 http://www.topografix.com/GPX/1/1/gpx.xsd" version="1.1" creator="VisuGPX - https://www.visugpx.com">
  <metadata>
    <name>2017-05-05 Bike ride-Le Saule d'Oingt-Oingt</name>
    <desc><![CDATA[2017-05-05 Bike ride-Le Saule d'Oingt-Oingt]]></desc>
  </metadata>
  <wpt lat="45.92492" lon="4.73705">
    <ele>174</ele>
    <name><![CDATA[2017-05-05 10:14 (Start)]]></name>
  </wpt>
  <wpt lat="45.92458" lon="4.73712">
    <ele>174</ele>
    <name><![CDATA[2017-05-05 10:14 (End)]]></name>
    <desc><![CDATA[Created by Google My Tracks on Android  Name: 2017-05-05 10:14 Activity type: biking Description: - Total distance: 49.91 km (31.0 mi) Total time: 3:02:23 Moving time: 2:48:59 Average speed: 16.42 km/h (10.2 mi/h) Average moving speed: 17.72 km/h (11.0 mi/h) Max speed: 49.79 km/h (30.9 mi/h) Average pace: 3:39 min/km (5:53 min/mi) Average moving pace: 3:23 min/km (5:27 min/mi) Fastest pace: 1:12 min/km (1:56 min/mi) Max elevation: 554 m (1817 ft) Min elevation: 169 m (554 ft) Elevation gain: 799 m (2620 ft) Max grade: 16 % Min grade: -11 % Recorded: 05/05/2017 10:14]]></desc>
  </wpt>
  <trk>
    <name><![CDATA[2017-05-05 10:14]]></name>
    <trkseg>
      <trkpt lat="45.92492" lon="4.73705">
        <ele>174</ele>
        <time>2017-05-05T08:14:27.152Z</time>
      </trkpt>
      <trkpt lat="45.92497" lon="4.73703">
        <ele>174</ele>
        <time>2017-05-05T08:14:48Z</time>
      </trkpt>
      <trkpt lat="45.92501" lon="4.737">
        <ele>174</ele>
        <time>2017-05-05T08:14:49Z</time>
      </trkpt>
      <trkpt lat="45.92506" lon="4.73697">
        <ele>174</ele>
        <time>2017-05-05T08:14:50Z</time>
      </trkpt>
      <trkpt lat="45.9251" lon="4.73695">
        <ele>174</ele>
        <time>2017-05-05T08:14:51Z</time>
      </trkpt>
      <trkpt lat="45.92515" lon="4.73691">
        <ele>173</ele>
        <time>2017-05-05T08:14:52Z</time>
      </trkpt>
      <trkpt lat="45.92519" lon="4.73688">
        <ele>173</ele>
        <time>2017-05-05T08:14:53Z</time>
      </trkpt>
      <trkpt lat="45.92524" lon="4.73685">
        <ele>173</ele>
        <time>2017-05-05T08:14:54Z</time>
      </trkpt>
      <trkpt lat="45.92528" lon="4.73682">
        <ele>173</ele>
        <time>2017-05-05T08:14:55Z</time>
      </trkpt>
      <trkpt lat="45.92534" lon="4.73678">
        <ele>173</ele>
        <time>2017-05-05T08:14:57Z</time>
      </trkpt>
      <trkpt lat="45.92538" lon="4.73676">
        <ele>173</ele>
        <time>2017-05-05T08:14:58Z</time>
      </trkpt>
      <trkpt lat="45.92542" lon="4.73674">
        <ele>173</ele>
        <time>2017-05-05T08:14:59Z</time>
      </trkpt>
      <trkpt lat="45.92528" lon="4.7368">
        <ele>173</ele>
        <time>2017-05-05T08:15:00Z</time>
      </trkpt>
      <trkpt lat="45.92515" lon="4.73693">
        <ele>173</ele>
        <time>2017-05-05T08:15:01Z</time>
      </trkpt>
      <trkpt lat="45.92511" lon="4.73696">
        <ele>173</ele>
        <time>2017-05-05T08:15:02Z</time>
      </trkpt>
      <trkpt lat="45.92504" lon="4.73703">
        <ele>173</ele>
        <time>2017-05-05T08:15:03Z</time>
      </trkpt>
      <trkpt lat="45.92498" lon="4.73713">
        <ele>174</ele>
        <time>2017-05-05T08:15:07Z</time>
      </trkpt>
      <trkpt lat="45.92495" lon="4.73714">
        <ele>174</ele>
        <time>2017-05-05T08:15:08Z</time>
      </trkpt>
      <trkpt lat="45.92489" lon="4.7372">
        <ele>174</ele>
        <time>2017-05-05T08:15:13Z</time>
      </trkpt>
      <trkpt lat="45.92484" lon="4.73723">
        <ele>174</ele>
        <time>2017-05-05T08:15:14Z</time>
      </trkpt>
      <trkpt lat="45.92477" lon="4.73726">
        <ele>174</ele>
        <time>2017-05-05T08:15:16Z</time>
      </trkpt>
      <trkpt lat="45.92472" lon="4.73726">
        <ele>174</ele>
        <time>2017-05-05T08:15:17Z</time>
      </trkpt>
      <trkpt lat="45.92464" lon="4.7373">
        <ele>174</ele>
        <time>2017-05-05T08:15:23Z</time>
      </trkpt>
      <trkpt lat="45.92461" lon="4.73731">
        <ele>174</ele>
        <time>2017-05-05T08:15:24Z</time>
      </trkpt>
      <trkpt lat="45.9246" lon="4.73719">
        <ele>174</ele>
        <time>2017-05-05T08:16:38Z</time>
      </trkpt>
      <trkpt lat="45.92459" lon="4.73711">
        <ele>174</ele>
        <time>2017-05-05T08:16:39Z</time>
      </trkpt>
      <trkpt lat="45.9246" lon="4.73702">
        <ele>174</ele>
        <time>2017-05-05T08:16:41Z</time>
      </trkpt>
      <trkpt lat="45.92461" lon="4.73698">
        <ele>174</ele>
        <time>2017-05-05T08:16:42Z</time>
      </trkpt>
      <trkpt lat="45.92462" lon="4.73686">
        <ele>174</ele>
        <time>2017-05-05T08:16:45Z</time>
      </trkpt>
      <trkpt lat="45.92462" lon="4.73682">
        <ele>174</ele>
        <time>2017-05-05T08:16:46Z</time>
      </trkpt>
      <trkpt lat="45.92463" lon="4.73673">
        <ele>174</ele>
        <time>2017-05-05T08:16:48Z</time>
      </trkpt>
      <trkpt lat="45.92464" lon="4.73668">
        <ele>174</ele>
        <time>2017-05-05T08:16:49Z</time>
      </trkpt>
      <trkpt lat="45.92466" lon="4.73658">
        <ele>174</ele>
        <time>2017-05-05T08:16:51Z</time>
      </trkpt>
      <trkpt lat="45.92467" lon="4.73654">
        <ele>174</ele>
        <time>2017-05-05T08:16:52Z</time>
      </trkpt>
      <trkpt lat="45.92474" lon="4.73646">
        <ele>174</ele>
        <time>2017-05-05T08:16:54Z</time>
      </trkpt>
      <trkpt lat="45.92477" lon="4.73644">
        <ele>174</ele>
        <time>2017-05-05T08:16:55Z</time>
      </trkpt>
      <trkpt lat="45.92485" lon="4.73643">
        <ele>174</ele>
        <time>2017-05-05T08:16:57Z</time>
      </trkpt>
      <trkpt lat="45.92489" lon="4.73643">
        <ele>174</ele>
        <time>2017-05-05T08:16:58Z</time>
      </trkpt>
      <trkpt lat="45.92497" lon="4.73643">
        <ele>174</ele>
        <time>2017-05-05T08:17:00Z</time>
      </trkpt>
      <trkpt lat="45.92501" lon="4.73643">
        <ele>174</ele>
        <time>2017-05-05T08:17:01Z</time>
      </trkpt>
      <trkpt lat="45.9251" lon="4.73642">
        <ele>174</ele>
        <time>2017-05-05T08:17:03Z</time>
      </trkpt>
      <trkpt lat="45.92514" lon="4.73641">
        <ele>174</ele>
        <time>2017-05-05T08:17:04Z</time>
      </trkpt>
      <trkpt lat="45.92523" lon="4.7364">
        <ele>173</ele>
        <time>2017-05-05T08:17:06Z</time>
      </trkpt>
      <trkpt lat="45.92527" lon="4.7364">
        <ele>173</ele>
        <time>2017-05-05T08:17:07Z</time>
      </trkpt>
      <trkpt lat="45.92535" lon="4.73639">
        <ele>173</ele>
        <time>2017-05-05T08:17:09Z</time>
      </trkpt>
      <trkpt lat="45.92538" lon="4.73638">
        <ele>173</ele>
        <time>2017-05-05T08:17:10Z</time>
      </trkpt>
      <trkpt lat="45.92546" lon="4.73635">
        <ele>173</ele>
        <time>2017-05-05T08:17:12Z</time>
      </trkpt>
      <trkpt lat="45.9255" lon="4.73633">
        <ele>173</ele>
        <time>2017-05-05T08:17:13Z</time>
      </trkpt>
      <trkpt lat="45.92555" lon="4.73632">
        <ele>173</ele>
        <time>2017-05-05T08:17:14Z</time>
      </trkpt>
      <trkpt lat="45.92559" lon="4.7363">
        <ele>173</ele>
        <time>2017-05-05T08:17:15Z</time>
      </trkpt>
      <trkpt lat="45.92567" lon="4.73628">
        <ele>173</ele>
        <time>2017-05-05T08:17:17Z</time>
      </trkpt>
      <trkpt lat="45.92571" lon="4.73627">
        <ele>173</ele>
        <time>2017-05-05T08:17:18Z</time>
      </trkpt>
      <trkpt lat="45.92576" lon="4.73625">
        <ele>173</ele>
        <time>2017-05-05T08:17:19Z</time>
      </trkpt>
      <trkpt lat="45.92581" lon="4.73624">
        <ele>173</ele>
        <time>2017-05-05T08:17:20Z</time>
      </trkpt>
      <trkpt lat="45.92586" lon="4.73624">
        <ele>172</ele>
        <time>2017-05-05T08:17:21Z</time>
      </trkpt>
      <trkpt lat="45.92591" lon="4.73623">
        <ele>173</ele>
        <time>2017-05-05T08:17:22Z</time>
      </trkpt>
      <trkpt lat="45.92596" lon="4.73622">
        <ele>173</ele>
        <time>2017-05-05T08:17:23Z</time>
      </trkpt>
      <trkpt lat="45.926" lon="4.73622">
        <ele>173</ele>
        <time>2017-05-05T08:17:24Z</time>
      </trkpt>
      <trkpt lat="45.92605" lon="4.73624">
        <ele>173</ele>
        <time>2017-05-05T08:17:25Z</time>
      </trkpt>
      <trkpt lat="45.92611" lon="4.73629">
        <ele>173</ele>
        <time>2017-05-05T08:17:26Z</time>
      </trkpt>
      <trkpt lat="45.92615" lon="4.73633">
        <ele>173</ele>
        <time>2017-05-05T08:17:27Z</time>
      </trkpt>
      <trkpt lat="45.92619" lon="4.73639">
        <ele>173</ele>
        <time>2017-05-05T08:17:28Z</time>
      </trkpt>
      <trkpt lat="45.92622" lon="4.73646">
        <ele>173</ele>
        <time>2017-05-05T08:17:29Z</time>
      </trkpt>
      <trkpt lat="45.92624" lon="4.73652">
        <ele>173</ele>
        <time>2017-05-05T08:17:30Z</time>
      </trkpt>
      <trkpt lat="45.92627" lon="4.73659">
        <ele>173</ele>
        <time>2017-05-05T08:17:31Z</time>
      </trkpt>
      <trkpt lat="45.9263" lon="4.73665">
        <ele>173</ele>
        <time>2017-05-05T08:17:32Z</time>
      </trkpt>
      <trkpt lat="45.92633" lon="4.7367">
        <ele>173</ele>
        <time>2017-05-05T08:17:33Z</time>
      </trkpt>
      <trkpt lat="45.92637" lon="4.73676">
        <ele>173</ele>
        <time>2017-05-05T08:17:34Z</time>
      </trkpt>
      <trkpt lat="45.9264" lon="4.73681">
        <ele>173</ele>
        <time>2017-05-05T08:17:35Z</time>
      </trkpt>
      <trkpt lat="45.92644" lon="4.73685">
        <ele>173</ele>
        <time>2017-05-05T08:17:36Z</time>
      </trkpt>
      <trkpt lat="45.92648" lon="4.73689">
        <ele>173</ele>
        <time>2017-05-05T08:17:37Z</time>
      </trkpt>
      <trkpt lat="45.92652" lon="4.73693">
        <ele>173</ele>
        <time>2017-05-05T08:17:38Z</time>
      </trkpt>
      <trkpt lat="45.92657" lon="4.73697">
        <ele>173</ele>
        <time>2017-05-05T08:17:39Z</time>
      </trkpt>
      <trkpt lat="45.92662" lon="4.737">
        <ele>173</ele>
        <time>2017-05-05T08:17:40Z</time>
      </trkpt>
      <trkpt lat="45.92667" lon="4.73704">
        <ele>174</ele>
        <time>2017-05-05T08:17:41Z</time>
      </trkpt>
      <trkpt lat="45.92672" lon="4.73706">
        <ele>174</ele>
        <time>2017-05-05T08:17:42Z</time>
      </trkpt>
      <trkpt lat="45.92677" lon="4.73709">
        <ele>173</ele>
        <time>2017-05-05T08:17:43Z</time>
      </trkpt>
      <trkpt lat="45.92683" lon="4.73711">
        <ele>173</ele>
        <time>2017-05-05T08:17:44Z</time>
      </trkpt>
      <trkpt lat="45.92688" lon="4.73713">
        <ele>173</ele>
        <time>2017-05-05T08:17:45Z</time>
      </trkpt>
      <trkpt lat="45.92693" lon="4.73714">
        <ele>173</ele>
        <time>2017-05-05T08:17:46Z</time>
      </trkpt>
      <trkpt lat="45.92698" lon="4.73715">
        <ele>173</ele>
        <time>2017-05-05T08:17:47Z</time>
      </trkpt>
      <trkpt lat="45.92703" lon="4.73716">
        <ele>173</ele>
        <time>2017-05-05T08:17:48Z</time>
      </trkpt>
      <trkpt lat="45.92708" lon="4.73718">
        <ele>173</ele>
        <time>2017-05-05T08:17:49Z</time>
      </trkpt>
      <trkpt lat="45.92712" lon="4.73719">
        <ele>173</ele>
        <time>2017-05-05T08:17:50Z</time>
      </trkpt>
      <trkpt lat="45.92717" lon="4.7372">
        <ele>173</ele>
        <time>2017-05-05T08:17:51Z</time>
      </trkpt>
      <trkpt lat="45.92723" lon="4.73721">
        <ele>173</ele>
        <time>2017-05-05T08:17:52Z</time>
      </trkpt>
      <trkpt lat="45.92728" lon="4.73721">
        <ele>173</ele>
        <time>2017-05-05T08:17:53Z</time>
      </trkpt>
      <trkpt lat="45.92732" lon="4.73722">
        <ele>173</ele>
        <time>2017-05-05T08:17:54Z</time>
      </trkpt>
      <trkpt lat="45.92737" lon="4.73723">
        <ele>173</ele>
        <time>2017-05-05T08:17:55Z</time>
      </trkpt>
      <trkpt lat="45.92742" lon="4.73723">
        <ele>173</ele>
        <time>2017-05-05T08:17:56Z</time>
      </trkpt>
      <trkpt lat="45.92747" lon="4.73723">
        <ele>173</ele>
        <time>2017-05-05T08:17:57Z</time>
      </trkpt>
      <trkpt lat="45.92752" lon="4.73725">
        <ele>172</ele>
        <time>2017-05-05T08:17:58Z</time>
      </trkpt>
      <trkpt lat="45.9276" lon="4.73727">
        <ele>172</ele>
        <time>2017-05-05T08:18:00Z</time>
      </trkpt>
      <trkpt lat="45.92764" lon="4.73728">
        <ele>172</ele>
        <time>2017-05-05T08:18:01Z</time>
      </trkpt>
      <trkpt lat="45.92772" lon="4.73729">
        <ele>172</ele>
        <time>2017-05-05T08:18:03Z</time>
      </trkpt>
      <trkpt lat="45.92776" lon="4.73728">
        <ele>172</ele>
        <time>2017-05-05T08:18:04Z</time>
      </trkpt>
      <trkpt lat="45.92781" lon="4.73719">
        <ele>172</ele>
        <time>2017-05-05T08:18:06Z</time>
      </trkpt>
      <trkpt lat="45.92783" lon="4.73713">
        <ele>172</ele>
        <time>2017-05-05T08:18:07Z</time>
      </trkpt>
      <trkpt lat="45.92784" lon="4.73707">
        <ele>172</ele>
        <time>2017-05-05T08:18:08Z</time>
      </trkpt>
      <trkpt lat="45.92785" lon="4.73701">
        <ele>172</ele>
        <time>2017-05-05T08:18:09Z</time>
      </trkpt>
      <trkpt lat="45.92786" lon="4.73694">
        <ele>172</ele>
        <time>2017-05-05T08:18:10Z</time>
      </trkpt>
      <trkpt lat="45.92788" lon="4.73688">
        <ele>172</ele>
        <time>2017-05-05T08:18:11Z</time>
      </trkpt>
      <trkpt lat="45.92789" lon="4.73682">
        <ele>172</ele>
        <time>2017-05-05T08:18:12Z</time>
      </trkpt>
      <trkpt lat="45.92791" lon="4.73676">
        <ele>172</ele>
        <time>2017-05-05T08:18:13Z</time>
      </trkpt>
      <trkpt lat="45.92793" lon="4.73669">
        <ele>172</ele>
        <time>2017-05-05T08:18:14Z</time>
      </trkpt>
      <trkpt lat="45.92793" lon="4.73663">
        <ele>172</ele>
        <time>2017-05-05T08:18:15Z</time>
      </trkpt>
      <trkpt lat="45.92795" lon="4.73656">
        <ele>172</ele>
        <time>2017-05-05T08:18:16Z</time>
      </trkpt>
      <trkpt lat="45.92796" lon="4.7365">
        <ele>172</ele>
        <time>2017-05-05T08:18:17Z</time>
      </trkpt>
      <trkpt lat="45.92801" lon="4.73639">
        <ele>172</ele>
        <time>2017-05-05T08:18:19Z</time>
      </trkpt>
      <trkpt lat="45.92804" lon="4.73635">
        <ele>172</ele>
        <time>2017-05-05T08:18:20Z</time>
      </trkpt>
      <trkpt lat="45.92808" lon="4.73632">
        <ele>172</ele>
        <time>2017-05-05T08:18:21Z</time>
      </trkpt>
      <trkpt lat="45.92812" lon="4.73627">
        <ele>172</ele>
        <time>2017-05-05T08:18:22Z</time>
      </trkpt>
      <trkpt lat="45.92814" lon="4.73622">
        <ele>172</ele>
        <time>2017-05-05T08:18:23Z</time>
      </trkpt>
      <trkpt lat="45.92816" lon="4.73615">
        <ele>172</ele>
        <time>2017-05-05T08:18:24Z</time>
      </trkpt>
      <trkpt lat="45.92815" lon="4.73609">
        <ele>172</ele>
        <time>2017-05-05T08:18:25Z</time>
      </trkpt>
      <trkpt lat="45.92815" lon="4.73602">
        <ele>172</ele>
        <time>2017-05-05T08:18:26Z</time>
      </trkpt>
      <trkpt lat="45.92814" lon="4.73595">
        <ele>171</ele>
        <time>2017-05-05T08:18:27Z</time>
      </trkpt>
      <trkpt lat="45.92814" lon="4.73587">
        <ele>171</ele>
        <time>2017-05-05T08:18:28Z</time>
      </trkpt>
      <trkpt lat="45.92814" lon="4.7358">
        <ele>171</ele>
        <time>2017-05-05T08:18:29Z</time>
      </trkpt>
      <trkpt lat="45.92814" lon="4.73573">
        <ele>171</ele>
        <time>2017-05-05T08:18:30Z</time>
      </trkpt>
      <trkpt lat="45.92814" lon="4.73565">
        <ele>171</ele>
        <time>2017-05-05T08:18:31Z</time>
      </trkpt>
      <trkpt lat="45.92815" lon="4.73558">
        <ele>171</ele>
        <time>2017-05-05T08:18:32Z</time>
      </trkpt>
      <trkpt lat="45.92816" lon="4.7355">
        <ele>171</ele>
        <time>2017-05-05T08:18:33Z</time>
      </trkpt>
      <trkpt lat="45.92816" lon="4.73543">
        <ele>171</ele>
        <time>2017-05-05T08:18:34Z</time>
      </trkpt>
      <trkpt lat="45.92817" lon="4.73535">
        <ele>172</ele>
        <time>2017-05-05T08:18:35Z</time>
      </trkpt>
      <trkpt lat="45.92818" lon="4.73527">
        <ele>172</ele>
        <time>2017-05-05T08:18:36Z</time>
      </trkpt>
      <trkpt lat="45.92819" lon="4.73519">
        <ele>172</ele>
        <time>2017-05-05T08:18:37Z</time>
      </trkpt>
      <trkpt lat="45.9282" lon="4.73511">
        <ele>172</ele>
        <time>2017-05-05T08:18:38Z</time>
      </trkpt>
      <trkpt lat="45.9282" lon="4.73503">
        <ele>172</ele>
        <time>2017-05-05T08:18:39Z</time>
      </trkpt>
      <trkpt lat="45.92821" lon="4.73495">
        <ele>172</ele>
        <time>2017-05-05T08:18:40Z</time>
      </trkpt>
      <trkpt lat="45.92822" lon="4.73487">
        <ele>172</ele>
        <time>2017-05-05T08:18:41Z</time>
      </trkpt>
      <trkpt lat="45.92823" lon="4.73479">
        <ele>172</ele>
        <time>2017-05-05T08:18:42Z</time>
      </trkpt>
      <trkpt lat="45.92824" lon="4.73471">
        <ele>172</ele>
        <time>2017-05-05T08:18:43Z</time>
      </trkpt>
      <trkpt lat="45.92825" lon="4.73463">
        <ele>172</ele>
        <time>2017-05-05T08:18:44Z</time>
      </trkpt>
      <trkpt lat="45.92826" lon="4.73454">
        <ele>172</ele>
        <time>2017-05-05T08:18:45Z</time>
      </trkpt>
      <trkpt lat="45.92827" lon="4.73446">
        <ele>172</ele>
        <time>2017-05-05T08:18:46Z</time>
      </trkpt>
      <trkpt lat="45.92828" lon="4.73437">
        <ele>172</ele>
        <time>2017-05-05T08:18:47Z</time>
      </trkpt>
      <trkpt lat="45.92829" lon="4.73429">
        <ele>172</ele>
        <time>2017-05-05T08:18:48Z</time>
      </trkpt>
      <trkpt lat="45.9283" lon="4.7342">
        <ele>172</ele>
        <time>2017-05-05T08:18:49Z</time>
      </trkpt>
      <trkpt lat="45.92831" lon="4.73412">
        <ele>172</ele>
        <time>2017-05-05T08:18:50Z</time>
      </trkpt>
      <trkpt lat="45.92832" lon="4.73404">
        <ele>172</ele>
        <time>2017-05-05T08:18:51Z</time>
      </trkpt>
      <trkpt lat="45.92833" lon="4.73396">
        <ele>172</ele>
        <time>2017-05-05T08:18:52Z</time>
      </trkpt>
      <trkpt lat="45.92834" lon="4.73389">
        <ele>172</ele>
        <time>2017-05-05T08:18:53Z</time>
      </trkpt>
      <trkpt lat="45.92835" lon="4.73381">
        <ele>172</ele>
        <time>2017-05-05T08:18:54Z</time>
      </trkpt>
      <trkpt lat="45.92836" lon="4.73373">
        <ele>171</ele>
        <time>2017-05-05T08:18:55Z</time>
      </trkpt>
      <trkpt lat="45.92837" lon="4.73366">
        <ele>171</ele>
        <time>2017-05-05T08:18:56Z</time>
      </trkpt>
      <trkpt lat="45.92838" lon="4.73358">
        <ele>171</ele>
        <time>2017-05-05T08:18:57Z</time>
      </trkpt>
      <trkpt lat="45.92839" lon="4.7335">
        <ele>171</ele>
        <time>2017-05-05T08:18:58Z</time>
      </trkpt>
      <trkpt lat="45.9284" lon="4.73342">
        <ele>171</ele>
        <time>2017-05-05T08:18:59Z</time>
      </trkpt>
      <trkpt lat="45.92841" lon="4.73335">
        <ele>171</ele>
        <time>2017-05-05T08:19:00Z</time>
      </trkpt>
      <trkpt lat="45.92842" lon="4.73327">
        <ele>171</ele>
        <time>2017-05-05T08:19:01Z</time>
      </trkpt>
      <trkpt lat="45.92843" lon="4.73319">
        <ele>171</ele>
        <time>2017-05-05T08:19:02Z</time>
      </trkpt>
      <trkpt lat="45.92844" lon="4.73311">
        <ele>171</ele>
        <time>2017-05-05T08:19:03Z</time>
      </trkpt>
      <trkpt lat="45.92845" lon="4.73303">
        <ele>171</ele>
        <time>2017-05-05T08:19:04Z</time>
      </trkpt>
      <trkpt lat="45.92846" lon="4.73294">
        <ele>171</ele>
        <time>2017-05-05T08:19:05Z</time>
      </trkpt>
      <trkpt lat="45.92847" lon="4.73286">
        <ele>171</ele>
        <time>2017-05-05T08:19:06Z</time>
      </trkpt>
      <trkpt lat="45.92848" lon="4.73278">
        <ele>171</ele>
        <time>2017-05-05T08:19:07Z</time>
      </trkpt>
      <trkpt lat="45.92849" lon="4.7327">
        <ele>171</ele>
        <time>2017-05-05T08:19:08Z</time>
      </trkpt>
      <trkpt lat="45.92851" lon="4.73261">
        <ele>171</ele>
        <time>2017-05-05T08:19:09Z</time>
      </trkpt>
      <trkpt lat="45.92852" lon="4.73253">
        <ele>171</ele>
        <time>2017-05-05T08:19:10Z</time>
      </trkpt>
      <trkpt lat="45.92853" lon="4.73245">
        <ele>171</ele>
        <time>2017-05-05T08:19:11Z</time>
      </trkpt>
      <trkpt lat="45.92854" lon="4.73236">
        <ele>171</ele>
        <time>2017-05-05T08:19:12Z</time>
      </trkpt>
      <trkpt lat="45.92855" lon="4.73228">
        <ele>171</ele>
        <time>2017-05-05T08:19:13Z</time>
      </trkpt>
      <trkpt lat="45.92856" lon="4.73219">
        <ele>171</ele>
        <time>2017-05-05T08:19:14Z</time>
      </trkpt>
      <trkpt lat="45.92857" lon="4.7321">
        <ele>171</ele>
        <time>2017-05-05T08:19:15Z</time>
      </trkpt>
      <trkpt lat="45.92858" lon="4.73202">
        <ele>171</ele>
        <time>2017-05-05T08:19:16Z</time>
      </trkpt>
      <trkpt lat="45.92859" lon="4.73193">
        <ele>171</ele>
        <time>2017-05-05T08:19:17Z</time>
      </trkpt>
      <trkpt lat="45.9286" lon="4.73184">
        <ele>171</ele>
        <time>2017-05-05T08:19:18Z</time>
      </trkpt>
      <trkpt lat="45.92862" lon="4.73176">
        <ele>171</ele>
        <time>2017-05-05T08:19:19Z</time>
      </trkpt>
      <trkpt lat="45.92863" lon="4.73168">
        <ele>171</ele>
        <time>2017-05-05T08:19:20Z</time>
      </trkpt>
      <trkpt lat="45.92864" lon="4.73159">
        <ele>171</ele>
        <time>2017-05-05T08:19:21Z</time>
      </trkpt>
      <trkpt lat="45.92865" lon="4.7315">
        <ele>171</ele>
        <time>2017-05-05T08:19:22Z</time>
      </trkpt>
      <trkpt lat="45.92867" lon="4.73142">
        <ele>171</ele>
        <time>2017-05-05T08:19:23Z</time>
      </trkpt>
      <trkpt lat="45.92868" lon="4.73133">
        <ele>171</ele>
        <time>2017-05-05T08:19:24Z</time>
      </trkpt>
      <trkpt lat="45.9287" lon="4.73125">
        <ele>171</ele>
        <time>2017-05-05T08:19:25Z</time>
      </trkpt>
      <trkpt lat="45.92872" lon="4.73116">
        <ele>172</ele>
        <time>2017-05-05T08:19:26Z</time>
      </trkpt>
      <trkpt lat="45.92874" lon="4.73108">
        <ele>172</ele>
        <time>2017-05-05T08:19:27Z</time>
      </trkpt>
      <trkpt lat="45.92876" lon="4.731">
        <ele>172</ele>
        <time>2017-05-05T08:19:28Z</time>
      </trkpt>
      <trkpt lat="45.92878" lon="4.73092">
        <ele>172</ele>
        <time>2017-05-05T08:19:29Z</time>
      </trkpt>
      <trkpt lat="45.92881" lon="4.73084">
        <ele>172</ele>
        <time>2017-05-05T08:19:30Z</time>
      </trkpt>
      <trkpt lat="45.92884" lon="4.73077">
        <ele>172</ele>
        <time>2017-05-05T08:19:31Z</time>
      </trkpt>
      <trkpt lat="45.92887" lon="4.7307">
        <ele>172</ele>
        <time>2017-05-05T08:19:32Z</time>
      </trkpt>
      <trkpt lat="45.92891" lon="4.73063">
        <ele>172</ele>
        <time>2017-05-05T08:19:33Z</time>
      </trkpt>
      <trkpt lat="45.92895" lon="4.73057">
        <ele>172</ele>
        <time>2017-05-05T08:19:34Z</time>
      </trkpt>
      <trkpt lat="45.92899" lon="4.7305">
        <ele>172</ele>
        <time>2017-05-05T08:19:35Z</time>
      </trkpt>
      <trkpt lat="45.92903" lon="4.73044">
        <ele>172</ele>
        <time>2017-05-05T08:19:36Z</time>
      </trkpt>
      <trkpt lat="45.92907" lon="4.73038">
        <ele>172</ele>
        <time>2017-05-05T08:19:37Z</time>
      </trkpt>
      <trkpt lat="45.92911" lon="4.73032">
        <ele>172</ele>
        <time>2017-05-05T08:19:38Z</time>
      </trkpt>
      <trkpt lat="45.92915" lon="4.73026">
        <ele>172</ele>
        <time>2017-05-05T08:19:39Z</time>
      </trkpt>
      <trkpt lat="45.9292" lon="4.7302">
        <ele>172</ele>
        <time>2017-05-05T08:19:40Z</time>
      </trkpt>
      <trkpt lat="45.92925" lon="4.73015">
        <ele>172</ele>
        <time>2017-05-05T08:19:41Z</time>
      </trkpt>
      <trkpt lat="45.92929" lon="4.73009">
        <ele>172</ele>
        <time>2017-05-05T08:19:42Z</time>
      </trkpt>
      <trkpt lat="45.92934" lon="4.73004">
        <ele>171</ele>
        <time>2017-05-05T08:19:43Z</time>
      </trkpt>
      <trkpt lat="45.92938" lon="4.72998">
        <ele>171</ele>
        <time>2017-05-05T08:19:44Z</time>
      </trkpt>
      <trkpt lat="45.92943" lon="4.72993">
        <ele>171</ele>
        <time>2017-05-05T08:19:45Z</time>
      </trkpt>
      <trkpt lat="45.92948" lon="4.72988">
        <ele>171</ele>
        <time>2017-05-05T08:19:46Z</time>
      </trkpt>
      <trkpt lat="45.92953" lon="4.72982">
        <ele>171</ele>
        <time>2017-05-05T08:19:47Z</time>
      </trkpt>
      <trkpt lat="45.92957" lon="4.72977">
        <ele>171</ele>
        <time>2017-05-05T08:19:48Z</time>
      </trkpt>
      <trkpt lat="45.92962" lon="4.72972">
        <ele>171</ele>
        <time>2017-05-05T08:19:49Z</time>
      </trkpt>
      <trkpt lat="45.92967" lon="4.72966">
        <ele>171</ele>
        <time>2017-05-05T08:19:50Z</time>
      </trkpt>
      <trkpt lat="45.92972" lon="4.72961">
        <ele>171</ele>
        <time>2017-05-05T08:19:51Z</time>
      </trkpt>
      <trkpt lat="45.92976" lon="4.72955">
        <ele>171</ele>
        <time>2017-05-05T08:19:52Z</time>
      </trkpt>
      <trkpt lat="45.92981" lon="4.7295">
        <ele>171</ele>
        <time>2017-05-05T08:19:53Z</time>
      </trkpt>
      <trkpt lat="45.92985" lon="4.72944">
        <ele>171</ele>
        <time>2017-05-05T08:19:54Z</time>
      </trkpt>
      <trkpt lat="45.9299" lon="4.72938">
        <ele>171</ele>
        <time>2017-05-05T08:19:55Z</time>
      </trkpt>
      <trkpt lat="45.92995" lon="4.72932">
        <ele>171</ele>
        <time>2017-05-05T08:19:56Z</time>
      </trkpt>
      <trkpt lat="45.93" lon="4.72926">
        <ele>171</ele>
        <time>2017-05-05T08:19:57Z</time>
      </trkpt>
      <trkpt lat="45.93005" lon="4.72921">
        <ele>171</ele>
        <time>2017-05-05T08:19:58Z</time>
      </trkpt>
      <trkpt lat="45.93009" lon="4.72915">
        <ele>171</ele>
        <time>2017-05-05T08:19:59Z</time>
      </trkpt>
      <trkpt lat="45.93014" lon="4.72909">
        <ele>171</ele>
        <time>2017-05-05T08:20:00Z</time>
      </trkpt>
      <trkpt lat="45.93019" lon="4.72903">
        <ele>172</ele>
        <time>2017-05-05T08:20:01Z</time>
      </trkpt>
      <trkpt lat="45.93024" lon="4.72898">
        <ele>172</ele>
        <time>2017-05-05T08:20:02Z</time>
      </trkpt>
      <trkpt lat="45.93029" lon="4.72892">
        <ele>172</ele>
        <time>2017-05-05T08:20:03Z</time>
      </trkpt>
      <trkpt lat="45.93034" lon="4.72887">
        <ele>172</ele>
        <time>2017-05-05T08:20:04Z</time>
      </trkpt>
      <trkpt lat="45.93039" lon="4.72881">
        <ele>172</ele>
        <time>2017-05-05T08:20:05Z</time>
      </trkpt>
      <trkpt lat="45.93043" lon="4.72875">
        <ele>172</ele>
        <time>2017-05-05T08:20:06Z</time>
      </trkpt>
      <trkpt lat="45.93047" lon="4.7287">
        <ele>172</ele>
        <time>2017-05-05T08:20:07Z</time>
      </trkpt>
      <trkpt lat="45.93052" lon="4.72865">
        <ele>172</ele>
        <time>2017-05-05T08:20:08Z</time>
      </trkpt>
      <trkpt lat="45.93056" lon="4.7286">
        <ele>172</ele>
        <time>2017-05-05T08:20:09Z</time>
      </trkpt>
      <trkpt lat="45.9306" lon="4.72855">
        <ele>172</ele>
        <time>2017-05-05T08:20:10Z</time>
      </trkpt>
      <trkpt lat="45.93064" lon="4.7285">
        <ele>172</ele>
        <time>2017-05-05T08:20:11Z</time>
      </trkpt>
      <trkpt lat="45.93067" lon="4.72844">
        <ele>172</ele>
        <time>2017-05-05T08:20:12Z</time>
      </trkpt>
      <trkpt lat="45.93071" lon="4.72838">
        <ele>173</ele>
        <time>2017-05-05T08:20:13Z</time>
      </trkpt>
      <trkpt lat="45.93075" lon="4.72833">
        <ele>173</ele>
        <time>2017-05-05T08:20:14Z</time>
      </trkpt>
      <trkpt lat="45.93079" lon="4.72828">
        <ele>173</ele>
        <time>2017-05-05T08:20:15Z</time>
      </trkpt>
      <trkpt lat="45.93085" lon="4.72824">
        <ele>172</ele>
        <time>2017-05-05T08:20:16Z</time>
      </trkpt>
      <trkpt lat="45.93088" lon="4.72815">
        <ele>172</ele>
        <time>2017-05-05T08:20:17Z</time>
      </trkpt>
      <trkpt lat="45.93094" lon="4.7281">
        <ele>172</ele>
        <time>2017-05-05T08:20:18Z</time>
      </trkpt>
      <trkpt lat="45.931" lon="4.72805">
        <ele>171</ele>
        <time>2017-05-05T08:20:19Z</time>
      </trkpt>
      <trkpt lat="45.93105" lon="4.728">
        <ele>171</ele>
        <time>2017-05-05T08:20:20Z</time>
      </trkpt>
      <trkpt lat="45.93112" lon="4.72792">
        <ele>171</ele>
        <time>2017-05-05T08:20:22Z</time>
      </trkpt>
      <trkpt lat="45.93116" lon="4.72787">
        <ele>171</ele>
        <time>2017-05-05T08:20:23Z</time>
      </trkpt>
      <trkpt lat="45.93121" lon="4.72782">
        <ele>171</ele>
        <time>2017-05-05T08:20:24Z</time>
      </trkpt>
      <trkpt lat="45.93125" lon="4.72777">
        <ele>171</ele>
        <time>2017-05-05T08:20:25Z</time>
      </trkpt>
      <trkpt lat="45.9313" lon="4.72772">
        <ele>171</ele>
        <time>2017-05-05T08:20:26Z</time>
      </trkpt>
      <trkpt lat="45.93135" lon="4.72767">
        <ele>171</ele>
        <time>2017-05-05T08:20:27Z</time>
      </trkpt>
      <trkpt lat="45.9314" lon="4.72762">
        <ele>171</ele>
        <time>2017-05-05T08:20:28Z</time>
      </trkpt>
      <trkpt lat="45.93145" lon="4.72757">
        <ele>171</ele>
        <time>2017-05-05T08:20:29Z</time>
      </trkpt>
      <trkpt lat="45.9315" lon="4.72751">
        <ele>170</ele>
        <time>2017-05-05T08:20:30Z</time>
      </trkpt>
      <trkpt lat="45.93154" lon="4.72746">
        <ele>170</ele>
        <time>2017-05-05T08:20:31Z</time>
      </trkpt>
      <trkpt lat="45.93159" lon="4.7274">
        <ele>170</ele>
        <time>2017-05-05T08:20:32Z</time>
      </trkpt>
      <trkpt lat="45.93164" lon="4.72734">
        <ele>170</ele>
        <time>2017-05-05T08:20:33Z</time>
      </trkpt>
      <trkpt lat="45.93167" lon="4.72729">
        <ele>170</ele>
        <time>2017-05-05T08:20:34Z</time>
      </trkpt>
      <trkpt lat="45.93172" lon="4.72723">
        <ele>170</ele>
        <time>2017-05-05T08:20:35Z</time>
      </trkpt>
      <trkpt lat="45.93176" lon="4.72717">
        <ele>170</ele>
        <time>2017-05-05T08:20:36Z</time>
      </trkpt>
      <trkpt lat="45.93181" lon="4.72712">
        <ele>169</ele>
        <time>2017-05-05T08:20:37Z</time>
      </trkpt>
      <trkpt lat="45.93186" lon="4.72707">
        <ele>169</ele>
        <time>2017-05-05T08:20:38Z</time>
      </trkpt>
      <trkpt lat="45.93191" lon="4.72702">
        <ele>169</ele>
        <time>2017-05-05T08:20:39Z</time>
      </trkpt>
      <trkpt lat="45.93195" lon="4.72697">
        <ele>169</ele>
        <time>2017-05-05T08:20:40Z</time>
      </trkpt>
      <trkpt lat="45.93199" lon="4.72692">
        <ele>169</ele>
        <time>2017-05-05T08:20:41Z</time>
      </trkpt>
      <trkpt lat="45.93203" lon="4.72687">
        <ele>169</ele>
        <time>2017-05-05T08:20:42Z</time>
      </trkpt>
      <trkpt lat="45.93208" lon="4.72681">
        <ele>169</ele>
        <time>2017-05-05T08:20:43Z</time>
      </trkpt>
      <trkpt lat="45.93212" lon="4.72676">
        <ele>169</ele>
        <time>2017-05-05T08:20:44Z</time>
      </trkpt>
      <trkpt lat="45.93217" lon="4.7267">
        <ele>169</ele>
        <time>2017-05-05T08:20:45Z</time>
      </trkpt>
      <trkpt lat="45.93221" lon="4.72665">
        <ele>170</ele>
        <time>2017-05-05T08:20:46Z</time>
      </trkpt>
      <trkpt lat="45.93226" lon="4.7266">
        <ele>170</ele>
        <time>2017-05-05T08:20:47Z</time>
      </trkpt>
      <trkpt lat="45.9323" lon="4.72656">
        <ele>170</ele>
        <time>2017-05-05T08:20:48Z</time>
      </trkpt>
      <trkpt lat="45.93235" lon="4.72651">
        <ele>170</ele>
        <time>2017-05-05T08:20:49Z</time>
      </trkpt>
      <trkpt lat="45.9324" lon="4.72645">
        <ele>170</ele>
        <time>2017-05-05T08:20:50Z</time>
      </trkpt>
      <trkpt lat="45.93244" lon="4.72639">
        <ele>170</ele>
        <time>2017-05-05T08:20:51Z</time>
      </trkpt>
      <trkpt lat="45.93249" lon="4.72633">
        <ele>170</ele>
        <time>2017-05-05T08:20:52Z</time>
      </trkpt>
      <trkpt lat="45.93254" lon="4.72627">
        <ele>170</ele>
        <time>2017-05-05T08:20:53Z</time>
      </trkpt>
      <trkpt lat="45.93259" lon="4.72622">
        <ele>170</ele>
        <time>2017-05-05T08:20:54Z</time>
      </trkpt>
      <trkpt lat="45.93264" lon="4.72617">
        <ele>170</ele>
        <time>2017-05-05T08:20:55Z</time>
      </trkpt>
      <trkpt lat="45.93268" lon="4.72612">
        <ele>170</ele>
        <time>2017-05-05T08:20:56Z</time>
      </trkpt>
      <trkpt lat="45.93273" lon="4.72607">
        <ele>170</ele>
        <time>2017-05-05T08:20:57Z</time>
      </trkpt>
      <trkpt lat="45.93277" lon="4.72602">
        <ele>170</ele>
        <time>2017-05-05T08:20:58Z</time>
      </trkpt>
      <trkpt lat="45.93282" lon="4.72597">
        <ele>170</ele>
        <time>2017-05-05T08:20:59Z</time>
      </trkpt>
      <trkpt lat="45.93286" lon="4.72591">
        <ele>170</ele>
        <time>2017-05-05T08:21:00Z</time>
      </trkpt>
      <trkpt lat="45.93291" lon="4.72586">
        <ele>170</ele>
        <time>2017-05-05T08:21:01Z</time>
      </trkpt>
      <trkpt lat="45.93295" lon="4.72581">
        <ele>171</ele>
        <time>2017-05-05T08:21:02Z</time>
      </trkpt>
      <trkpt lat="45.933" lon="4.72576">
        <ele>171</ele>
        <time>2017-05-05T08:21:03Z</time>
      </trkpt>
      <trkpt lat="45.93304" lon="4.7257">
        <ele>171</ele>
        <time>2017-05-05T08:21:04Z</time>
      </trkpt>
      <trkpt lat="45.93308" lon="4.72564">
        <ele>171</ele>
        <time>2017-05-05T08:21:05Z</time>
      </trkpt>
      <trkpt lat="45.93313" lon="4.72559">
        <ele>171</ele>
        <time>2017-05-05T08:21:06Z</time>
      </trkpt>
      <trkpt lat="45.93318" lon="4.72554">
        <ele>172</ele>
        <time>2017-05-05T08:21:07Z</time>
      </trkpt>
      <trkpt lat="45.93322" lon="4.72548">
        <ele>172</ele>
        <time>2017-05-05T08:21:08Z</time>
      </trkpt>
      <trkpt lat="45.93327" lon="4.72543">
        <ele>172</ele>
        <time>2017-05-05T08:21:09Z</time>
      </trkpt>
      <trkpt lat="45.93331" lon="4.72538">
        <ele>172</ele>
        <time>2017-05-05T08:21:10Z</time>
      </trkpt>
      <trkpt lat="45.93336" lon="4.72532">
        <ele>172</ele>
        <time>2017-05-05T08:21:11Z</time>
      </trkpt>
      <trkpt lat="45.93341" lon="4.72527">
        <ele>172</ele>
        <time>2017-05-05T08:21:12Z</time>
      </trkpt>
      <trkpt lat="45.93345" lon="4.72522">
        <ele>172</ele>
        <time>2017-05-05T08:21:13Z</time>
      </trkpt>
      <trkpt lat="45.93349" lon="4.72517">
        <ele>172</ele>
        <time>2017-05-05T08:21:14Z</time>
      </trkpt>
      <trkpt lat="45.93354" lon="4.72511">
        <ele>172</ele>
        <time>2017-05-05T08:21:15Z</time>
      </trkpt>
      <trkpt lat="45.93358" lon="4.72506">
        <ele>172</ele>
        <time>2017-05-05T08:21:16Z</time>
      </trkpt>
      <trkpt lat="45.93363" lon="4.725">
        <ele>172</ele>
        <time>2017-05-05T08:21:17Z</time>
      </trkpt>
      <trkpt lat="45.93367" lon="4.72496">
        <ele>173</ele>
        <time>2017-05-05T08:21:18Z</time>
      </trkpt>
      <trkpt lat="45.93371" lon="4.7249">
        <ele>173</ele>
        <time>2017-05-05T08:21:19Z</time>
      </trkpt>
      <trkpt lat="45.93376" lon="4.72485">
        <ele>173</ele>
        <time>2017-05-05T08:21:20Z</time>
      </trkpt>
      <trkpt lat="45.93381" lon="4.7248">
        <ele>173</ele>
        <time>2017-05-05T08:21:21Z</time>
      </trkpt>
      <trkpt lat="45.93384" lon="4.72475">
        <ele>173</ele>
        <time>2017-05-05T08:21:22Z</time>
      </trkpt>
      <trkpt lat="45.93388" lon="4.7247">
        <ele>173</ele>
        <time>2017-05-05T08:21:23Z</time>
      </trkpt>
      <trkpt lat="45.93391" lon="4.72465">
        <ele>173</ele>
        <time>2017-05-05T08:21:24Z</time>
      </trkpt>
      <trkpt lat="45.93393" lon="4.72459">
        <ele>173</ele>
        <time>2017-05-05T08:21:25Z</time>
      </trkpt>
      <trkpt lat="45.93396" lon="4.72447">
        <ele>173</ele>
        <time>2017-05-05T08:21:27Z</time>
      </trkpt>
      <trkpt lat="45.93398" lon="4.72442">
        <ele>173</ele>
        <time>2017-05-05T08:21:28Z</time>
      </trkpt>
      <trkpt lat="45.93403" lon="4.72431">
        <ele>173</ele>
        <time>2017-05-05T08:21:30Z</time>
      </trkpt>
      <trkpt lat="45.93407" lon="4.72427">
        <ele>174</ele>
        <time>2017-05-05T08:21:31Z</time>
      </trkpt>
      <trkpt lat="45.9341" lon="4.72422">
        <ele>174</ele>
        <time>2017-05-05T08:21:32Z</time>
      </trkpt>
      <trkpt lat="45.93415" lon="4.72418">
        <ele>174</ele>
        <time>2017-05-05T08:21:33Z</time>
      </trkpt>
      <trkpt lat="45.93419" lon="4.72415">
        <ele>174</ele>
        <time>2017-05-05T08:21:34Z</time>
      </trkpt>
      <trkpt lat="45.93424" lon="4.72412">
        <ele>174</ele>
        <time>2017-05-05T08:21:35Z</time>
      </trkpt>
      <trkpt lat="45.93429" lon="4.72409">
        <ele>174</ele>
        <time>2017-05-05T08:21:36Z</time>
      </trkpt>
      <trkpt lat="45.93434" lon="4.72407">
        <ele>174</ele>
        <time>2017-05-05T08:21:37Z</time>
      </trkpt>
      <trkpt lat="45.93438" lon="4.72404">
        <ele>173</ele>
        <time>2017-05-05T08:21:38Z</time>
      </trkpt>
      <trkpt lat="45.93443" lon="4.72401">
        <ele>173</ele>
        <time>2017-05-05T08:21:39Z</time>
      </trkpt>
      <trkpt lat="45.93448" lon="4.72397">
        <ele>173</ele>
        <time>2017-05-05T08:21:40Z</time>
      </trkpt>
      <trkpt lat="45.93452" lon="4.72393">
        <ele>173</ele>
        <time>2017-05-05T08:21:41Z</time>
      </trkpt>
      <trkpt lat="45.93457" lon="4.72388">
        <ele>173</ele>
        <time>2017-05-05T08:21:42Z</time>
      </trkpt>
      <trkpt lat="45.93462" lon="4.72383">
        <ele>173</ele>
        <time>2017-05-05T08:21:43Z</time>
      </trkpt>
      <trkpt lat="45.93466" lon="4.72378">
        <ele>173</ele>
        <time>2017-05-05T08:21:44Z</time>
      </trkpt>
      <trkpt lat="45.9347" lon="4.72372">
        <ele>173</ele>
        <time>2017-05-05T08:21:45Z</time>
      </trkpt>
      <trkpt lat="45.93474" lon="4.72366">
        <ele>173</ele>
        <time>2017-05-05T08:21:46Z</time>
      </trkpt>
      <trkpt lat="45.93478" lon="4.7236">
        <ele>173</ele>
        <time>2017-05-05T08:21:47Z</time>
      </trkpt>
      <trkpt lat="45.93482" lon="4.72354">
        <ele>173</ele>
        <time>2017-05-05T08:21:48Z</time>
      </trkpt>
      <trkpt lat="45.93487" lon="4.72348">
        <ele>173</ele>
        <time>2017-05-05T08:21:49Z</time>
      </trkpt>
      <trkpt lat="45.93491" lon="4.72342">
        <ele>173</ele>
        <time>2017-05-05T08:21:50Z</time>
      </trkpt>
      <trkpt lat="45.93495" lon="4.72338">
        <ele>173</ele>
        <time>2017-05-05T08:21:51Z</time>
      </trkpt>
      <trkpt lat="45.93499" lon="4.72332">
        <ele>173</ele>
        <time>2017-05-05T08:21:52Z</time>
      </trkpt>
      <trkpt lat="45.93503" lon="4.72327">
        <ele>173</ele>
        <time>2017-05-05T08:21:53Z</time>
      </trkpt>
      <trkpt lat="45.93506" lon="4.72322">
        <ele>173</ele>
        <time>2017-05-05T08:21:54Z</time>
      </trkpt>
      <trkpt lat="45.93509" lon="4.72317">
        <ele>173</ele>
        <time>2017-05-05T08:21:55Z</time>
      </trkpt>
      <trkpt lat="45.93513" lon="4.72312">
        <ele>173</ele>
        <time>2017-05-05T08:21:56Z</time>
      </trkpt>
      <trkpt lat="45.93516" lon="4.72306">
        <ele>173</ele>
        <time>2017-05-05T08:21:57Z</time>
      </trkpt>
      <trkpt lat="45.93519" lon="4.723">
        <ele>172</ele>
        <time>2017-05-05T08:21:58Z</time>
      </trkpt>
      <trkpt lat="45.93521" lon="4.72294">
        <ele>172</ele>
        <time>2017-05-05T08:21:59Z</time>
      </trkpt>
      <trkpt lat="45.93524" lon="4.72288">
        <ele>172</ele>
        <time>2017-05-05T08:22:00Z</time>
      </trkpt>
      <trkpt lat="45.93526" lon="4.72282">
        <ele>172</ele>
        <time>2017-05-05T08:22:01Z</time>
      </trkpt>
      <trkpt lat="45.93528" lon="4.72276">
        <ele>172</ele>
        <time>2017-05-05T08:22:02Z</time>
      </trkpt>
      <trkpt lat="45.93531" lon="4.7227">
        <ele>172</ele>
        <time>2017-05-05T08:22:03Z</time>
      </trkpt>
      <trkpt lat="45.93533" lon="4.72264">
        <ele>172</ele>
        <time>2017-05-05T08:22:04Z</time>
      </trkpt>
      <trkpt lat="45.93536" lon="4.72258">
        <ele>172</ele>
        <time>2017-05-05T08:22:05Z</time>
      </trkpt>
      <trkpt lat="45.93538" lon="4.72252">
        <ele>172</ele>
        <time>2017-05-05T08:22:06Z</time>
      </trkpt>
      <trkpt lat="45.93541" lon="4.72245">
        <ele>172</ele>
        <time>2017-05-05T08:22:07Z</time>
      </trkpt>
      <trkpt lat="45.93543" lon="4.72239">
        <ele>172</ele>
        <time>2017-05-05T08:22:08Z</time>
      </trkpt>
      <trkpt lat="45.93546" lon="4.72233">
        <ele>172</ele>
        <time>2017-05-05T08:22:09Z</time>
      </trkpt>
      <trkpt lat="45.93549" lon="4.72228">
        <ele>172</ele>
        <time>2017-05-05T08:22:10Z</time>
      </trkpt>
      <trkpt lat="45.93553" lon="4.72222">
        <ele>173</ele>
        <time>2017-05-05T08:22:11Z</time>
      </trkpt>
      <trkpt lat="45.93557" lon="4.72217">
        <ele>173</ele>
        <time>2017-05-05T08:22:12Z</time>
      </trkpt>
      <trkpt lat="45.93562" lon="4.72212">
        <ele>173</ele>
        <time>2017-05-05T08:22:13Z</time>
      </trkpt>
      <trkpt lat="45.93567" lon="4.72207">
        <ele>173</ele>
        <time>2017-05-05T08:22:14Z</time>
      </trkpt>
      <trkpt lat="45.93571" lon="4.72203">
        <ele>173</ele>
        <time>2017-05-05T08:22:15Z</time>
      </trkpt>
      <trkpt lat="45.93576" lon="4.72199">
        <ele>173</ele>
        <time>2017-05-05T08:22:16Z</time>
      </trkpt>
      <trkpt lat="45.9358" lon="4.72194">
        <ele>173</ele>
        <time>2017-05-05T08:22:17Z</time>
      </trkpt>
      <trkpt lat="45.93585" lon="4.7219">
        <ele>173</ele>
        <time>2017-05-05T08:22:18Z</time>
      </trkpt>
      <trkpt lat="45.93589" lon="4.72186">
        <ele>173</ele>
        <time>2017-05-05T08:22:19Z</time>
      </trkpt>
      <trkpt lat="45.93594" lon="4.72182">
        <ele>173</ele>
        <time>2017-05-05T08:22:20Z</time>
      </trkpt>
      <trkpt lat="45.93598" lon="4.72177">
        <ele>173</ele>
        <time>2017-05-05T08:22:21Z</time>
      </trkpt>
      <trkpt lat="45.93603" lon="4.72173">
        <ele>173</ele>
        <time>2017-05-05T08:22:22Z</time>
      </trkpt>
      <trkpt lat="45.93607" lon="4.72169">
        <ele>173</ele>
        <time>2017-05-05T08:22:23Z</time>
      </trkpt>
      <trkpt lat="45.93612" lon="4.72164">
        <ele>173</ele>
        <time>2017-05-05T08:22:24Z</time>
      </trkpt>
      <trkpt lat="45.93617" lon="4.7216">
        <ele>173</ele>
        <time>2017-05-05T08:22:25Z</time>
      </trkpt>
      <trkpt lat="45.93621" lon="4.72155">
        <ele>173</ele>
        <time>2017-05-05T08:22:26Z</time>
      </trkpt>
      <trkpt lat="45.93625" lon="4.7215">
        <ele>173</ele>
        <time>2017-05-05T08:22:27Z</time>
      </trkpt>
      <trkpt lat="45.93629" lon="4.72144">
        <ele>173</ele>
        <time>2017-05-05T08:22:28Z</time>
      </trkpt>
      <trkpt lat="45.93633" lon="4.72137">
        <ele>173</ele>
        <time>2017-05-05T08:22:29Z</time>
      </trkpt>
      <trkpt lat="45.93637" lon="4.72131">
        <ele>173</ele>
        <time>2017-05-05T08:22:30Z</time>
      </trkpt>
      <trkpt lat="45.93641" lon="4.72125">
        <ele>173</ele>
        <time>2017-05-05T08:22:31Z</time>
      </trkpt>
      <trkpt lat="45.93644" lon="4.72119">
        <ele>173</ele>
        <time>2017-05-05T08:22:32Z</time>
      </trkpt>
      <trkpt lat="45.93647" lon="4.72112">
        <ele>173</ele>
        <time>2017-05-05T08:22:33Z</time>
      </trkpt>
      <trkpt lat="45.93651" lon="4.72106">
        <ele>173</ele>
        <time>2017-05-05T08:22:34Z</time>
      </trkpt>
      <trkpt lat="45.93654" lon="4.72101">
        <ele>173</ele>
        <time>2017-05-05T08:22:35Z</time>
      </trkpt>
      <trkpt lat="45.93658" lon="4.72095">
        <ele>173</ele>
        <time>2017-05-05T08:22:36Z</time>
      </trkpt>
      <trkpt lat="45.93661" lon="4.72089">
        <ele>172</ele>
        <time>2017-05-05T08:22:37Z</time>
      </trkpt>
      <trkpt lat="45.93665" lon="4.72083">
        <ele>172</ele>
        <time>2017-05-05T08:22:38Z</time>
      </trkpt>
      <trkpt lat="45.93668" lon="4.72077">
        <ele>172</ele>
        <time>2017-05-05T08:22:39Z</time>
      </trkpt>
      <trkpt lat="45.93671" lon="4.72071">
        <ele>172</ele>
        <time>2017-05-05T08:22:40Z</time>
      </trkpt>
      <trkpt lat="45.93675" lon="4.72065">
        <ele>172</ele>
        <time>2017-05-05T08:22:41Z</time>
      </trkpt>
      <trkpt lat="45.93678" lon="4.72058">
        <ele>172</ele>
        <time>2017-05-05T08:22:42Z</time>
      </trkpt>
      <trkpt lat="45.93681" lon="4.72051">
        <ele>172</ele>
        <time>2017-05-05T08:22:43Z</time>
      </trkpt>
      <trkpt lat="45.93684" lon="4.72044">
        <ele>172</ele>
        <time>2017-05-05T08:22:44Z</time>
      </trkpt>
      <trkpt lat="45.93688" lon="4.72038">
        <ele>173</ele>
        <time>2017-05-05T08:22:45Z</time>
      </trkpt>
      <trkpt lat="45.93692" lon="4.72031">
        <ele>173</ele>
        <time>2017-05-05T08:22:46Z</time>
      </trkpt>
      <trkpt lat="45.93695" lon="4.72024">
        <ele>172</ele>
        <time>2017-05-05T08:22:47Z</time>
      </trkpt>
      <trkpt lat="45.93698" lon="4.72018">
        <ele>172</ele>
        <time>2017-05-05T08:22:48Z</time>
      </trkpt>
      <trkpt lat="45.93702" lon="4.72012">
        <ele>172</ele>
        <time>2017-05-05T08:22:49Z</time>
      </trkpt>
      <trkpt lat="45.93705" lon="4.72006">
        <ele>172</ele>
        <time>2017-05-05T08:22:50Z</time>
      </trkpt>
      <trkpt lat="45.93709" lon="4.72">
        <ele>172</ele>
        <time>2017-05-05T08:22:51Z</time>
      </trkpt>
      <trkpt lat="45.93714" lon="4.71992">
        <ele>172</ele>
        <time>2017-05-05T08:22:53Z</time>
      </trkpt>
      <trkpt lat="45.93716" lon="4.71991">
        <ele>172</ele>
        <time>2017-05-05T08:22:54Z</time>
      </trkpt>
      <trkpt lat="45.93718" lon="4.71986">
        <ele>172</ele>
        <time>2017-05-05T08:22:57Z</time>
      </trkpt>
      <trkpt lat="45.93719" lon="4.71985">
        <ele>172</ele>
        <time>2017-05-05T08:22:58Z</time>
      </trkpt>
      <trkpt lat="45.93722" lon="4.71981">
        <ele>172</ele>
        <time>2017-05-05T08:23:03Z</time>
      </trkpt>
      <trkpt lat="45.93723" lon="4.71978">
        <ele>172</ele>
        <time>2017-05-05T08:23:04Z</time>
      </trkpt>
      <trkpt lat="45.93727" lon="4.71972">
        <ele>172</ele>
        <time>2017-05-05T08:23:06Z</time>
      </trkpt>
      <trkpt lat="45.93729" lon="4.71969">
        <ele>172</ele>
        <time>2017-05-05T08:23:07Z</time>
      </trkpt>
      <trkpt lat="45.93737" lon="4.71963">
        <ele>172</ele>
        <time>2017-05-05T08:23:09Z</time>
      </trkpt>
      <trkpt lat="45.93742" lon="4.7196">
        <ele>172</ele>
        <time>2017-05-05T08:23:10Z</time>
      </trkpt>
      <trkpt lat="45.93747" lon="4.71957">
        <ele>172</ele>
        <time>2017-05-05T08:23:11Z</time>
      </trkpt>
      <trkpt lat="45.93751" lon="4.71953">
        <ele>171</ele>
        <time>2017-05-05T08:23:12Z</time>
      </trkpt>
      <trkpt lat="45.93755" lon="4.71947">
        <ele>171</ele>
        <time>2017-05-05T08:23:13Z</time>
      </trkpt>
      <trkpt lat="45.93758" lon="4.7194">
        <ele>171</ele>
        <time>2017-05-05T08:23:14Z</time>
      </trkpt>
      <trkpt lat="45.93761" lon="4.71934">
        <ele>171</ele>
        <time>2017-05-05T08:23:15Z</time>
      </trkpt>
      <trkpt lat="45.93765" lon="4.71928">
        <ele>171</ele>
        <time>2017-05-05T08:23:16Z</time>
      </trkpt>
      <trkpt lat="45.93769" lon="4.71922">
        <ele>171</ele>
        <time>2017-05-05T08:23:17Z</time>
      </trkpt>
      <trkpt lat="45.93773" lon="4.71915">
        <ele>172</ele>
        <time>2017-05-05T08:23:18Z</time>
      </trkpt>
      <trkpt lat="45.93775" lon="4.71908">
        <ele>172</ele>
        <time>2017-05-05T08:23:19Z</time>
      </trkpt>
      <trkpt lat="45.93777" lon="4.71901">
        <ele>172</ele>
        <time>2017-05-05T08:23:20Z</time>
      </trkpt>
      <trkpt lat="45.93778" lon="4.71893">
        <ele>172</ele>
        <time>2017-05-05T08:23:21Z</time>
      </trkpt>
      <trkpt lat="45.93779" lon="4.71886">
        <ele>172</ele>
        <time>2017-05-05T08:23:22Z</time>
      </trkpt>
      <trkpt lat="45.93781" lon="4.71879">
        <ele>172</ele>
        <time>2017-05-05T08:23:23Z</time>
      </trkpt>
      <trkpt lat="45.93785" lon="4.71872">
        <ele>172</ele>
        <time>2017-05-05T08:23:24Z</time>
      </trkpt>
      <trkpt lat="45.93789" lon="4.71867">
        <ele>172</ele>
        <time>2017-05-05T08:23:25Z</time>
      </trkpt>
      <trkpt lat="45.93793" lon="4.71861">
        <ele>172</ele>
        <time>2017-05-05T08:23:26Z</time>
      </trkpt>
      <trkpt lat="45.93797" lon="4.71855">
        <ele>172</ele>
        <time>2017-05-05T08:23:27Z</time>
      </trkpt>
      <trkpt lat="45.938" lon="4.71848">
        <ele>172</ele>
        <time>2017-05-05T08:23:28Z</time>
      </trkpt>
      <trkpt lat="45.93804" lon="4.71842">
        <ele>172</ele>
        <time>2017-05-05T08:23:29Z</time>
      </trkpt>
      <trkpt lat="45.93808" lon="4.71836">
        <ele>172</ele>
        <time>2017-05-05T08:23:30Z</time>
      </trkpt>
      <trkpt lat="45.93812" lon="4.7183">
        <ele>173</ele>
        <time>2017-05-05T08:23:31Z</time>
      </trkpt>
      <trkpt lat="45.93815" lon="4.71824">
        <ele>173</ele>
        <time>2017-05-05T08:23:32Z</time>
      </trkpt>
      <trkpt lat="45.93819" lon="4.71817">
        <ele>173</ele>
        <time>2017-05-05T08:23:33Z</time>
      </trkpt>
      <trkpt lat="45.93822" lon="4.71811">
        <ele>173</ele>
        <time>2017-05-05T08:23:34Z</time>
      </trkpt>
      <trkpt lat="45.93826" lon="4.71804">
        <ele>173</ele>
        <time>2017-05-05T08:23:35Z</time>
      </trkpt>
      <trkpt lat="45.9383" lon="4.71798">
        <ele>174</ele>
        <time>2017-05-05T08:23:36Z</time>
      </trkpt>
      <trkpt lat="45.93834" lon="4.71792">
        <ele>173</ele>
        <time>2017-05-05T08:23:37Z</time>
      </trkpt>
      <trkpt lat="45.93838" lon="4.71786">
        <ele>173</ele>
        <time>2017-05-05T08:23:38Z</time>
      </trkpt>
      <trkpt lat="45.93841" lon="4.7178">
        <ele>173</ele>
        <time>2017-05-05T08:23:39Z</time>
      </trkpt>
      <trkpt lat="45.93845" lon="4.71774">
        <ele>173</ele>
        <time>2017-05-05T08:23:40Z</time>
      </trkpt>
      <trkpt lat="45.93849" lon="4.71769">
        <ele>173</ele>
        <time>2017-05-05T08:23:41Z</time>
      </trkpt>
      <trkpt lat="45.93853" lon="4.71764">
        <ele>173</ele>
        <time>2017-05-05T08:23:42Z</time>
      </trkpt>
      <trkpt lat="45.93857" lon="4.71758">
        <ele>173</ele>
        <time>2017-05-05T08:23:43Z</time>
      </trkpt>
      <trkpt lat="45.93861" lon="4.71753">
        <ele>173</ele>
        <time>2017-05-05T08:23:44Z</time>
      </trkpt>
      <trkpt lat="45.93865" lon="4.71748">
        <ele>174</ele>
        <time>2017-05-05T08:23:45Z</time>
      </trkpt>
      <trkpt lat="45.93869" lon="4.71744">
        <ele>174</ele>
        <time>2017-05-05T08:23:46Z</time>
      </trkpt>
      <trkpt lat="45.93874" lon="4.71739">
        <ele>174</ele>
        <time>2017-05-05T08:23:47Z</time>
      </trkpt>
      <trkpt lat="45.93878" lon="4.71734">
        <ele>174</ele>
        <time>2017-05-05T08:23:48Z</time>
      </trkpt>
      <trkpt lat="45.93883" lon="4.7173">
        <ele>174</ele>
        <time>2017-05-05T08:23:49Z</time>
      </trkpt>
      <trkpt lat="45.93888" lon="4.71725">
        <ele>174</ele>
        <time>2017-05-05T08:23:50Z</time>
      </trkpt>
      <trkpt lat="45.93893" lon="4.7172">
        <ele>174</ele>
        <time>2017-05-05T08:23:51Z</time>
      </trkpt>
      <trkpt lat="45.93897" lon="4.71715">
        <ele>174</ele>
        <time>2017-05-05T08:23:52Z</time>
      </trkpt>
      <trkpt lat="45.93902" lon="4.71711">
        <ele>174</ele>
        <time>2017-05-05T08:23:53Z</time>
      </trkpt>
      <trkpt lat="45.93907" lon="4.71707">
        <ele>174</ele>
        <time>2017-05-05T08:23:54Z</time>
      </trkpt>
      <trkpt lat="45.93912" lon="4.71704">
        <ele>174</ele>
        <time>2017-05-05T08:23:55Z</time>
      </trkpt>
      <trkpt lat="45.93918" lon="4.71701">
        <ele>174</ele>
        <time>2017-05-05T08:23:56Z</time>
      </trkpt>
      <trkpt lat="45.93924" lon="4.71699">
        <ele>174</ele>
        <time>2017-05-05T08:23:57Z</time>
      </trkpt>
      <trkpt lat="45.93929" lon="4.71696">
        <ele>174</ele>
        <time>2017-05-05T08:23:58Z</time>
      </trkpt>
      <trkpt lat="45.93935" lon="4.71693">
        <ele>175</ele>
        <time>2017-05-05T08:23:59Z</time>
      </trkpt>
      <trkpt lat="45.9394" lon="4.71691">
        <ele>175</ele>
        <time>2017-05-05T08:24:00Z</time>
      </trkpt>
      <trkpt lat="45.93946" lon="4.71689">
        <ele>175</ele>
        <time>2017-05-05T08:24:01Z</time>
      </trkpt>
      <trkpt lat="45.93951" lon="4.71687">
        <ele>175</ele>
        <time>2017-05-05T08:24:02Z</time>
      </trkpt>
      <trkpt lat="45.93956" lon="4.71684">
        <ele>175</ele>
        <time>2017-05-05T08:24:03Z</time>
      </trkpt>
      <trkpt lat="45.93961" lon="4.71682">
        <ele>175</ele>
        <time>2017-05-05T08:24:04Z</time>
      </trkpt>
      <trkpt lat="45.93966" lon="4.71679">
        <ele>175</ele>
        <time>2017-05-05T08:24:05Z</time>
      </trkpt>
      <trkpt lat="45.9397" lon="4.71676">
        <ele>175</ele>
        <time>2017-05-05T08:24:06Z</time>
      </trkpt>
      <trkpt lat="45.93975" lon="4.71673">
        <ele>175</ele>
        <time>2017-05-05T08:24:07Z</time>
      </trkpt>
      <trkpt lat="45.9398" lon="4.71672">
        <ele>176</ele>
        <time>2017-05-05T08:24:08Z</time>
      </trkpt>
      <trkpt lat="45.93985" lon="4.71672">
        <ele>176</ele>
        <time>2017-05-05T08:24:09Z</time>
      </trkpt>
      <trkpt lat="45.9399" lon="4.71673">
        <ele>176</ele>
        <time>2017-05-05T08:24:10Z</time>
      </trkpt>
      <trkpt lat="45.93995" lon="4.71674">
        <ele>176</ele>
        <time>2017-05-05T08:24:11Z</time>
      </trkpt>
      <trkpt lat="45.93999" lon="4.71678">
        <ele>176</ele>
        <time>2017-05-05T08:24:12Z</time>
      </trkpt>
      <trkpt lat="45.94004" lon="4.7168">
        <ele>176</ele>
        <time>2017-05-05T08:24:13Z</time>
      </trkpt>
      <trkpt lat="45.94009" lon="4.7168">
        <ele>176</ele>
        <time>2017-05-05T08:24:14Z</time>
      </trkpt>
      <trkpt lat="45.94013" lon="4.71677">
        <ele>176</ele>
        <time>2017-05-05T08:24:15Z</time>
      </trkpt>
      <trkpt lat="45.94017" lon="4.71673">
        <ele>176</ele>
        <time>2017-05-05T08:24:16Z</time>
      </trkpt>
      <trkpt lat="45.94019" lon="4.71667">
        <ele>175</ele>
        <time>2017-05-05T08:24:17Z</time>
      </trkpt>
      <trkpt lat="45.94021" lon="4.71661">
        <ele>176</ele>
        <time>2017-05-05T08:24:18Z</time>
      </trkpt>
      <trkpt lat="45.94024" lon="4.71656">
        <ele>175</ele>
        <time>2017-05-05T08:24:19Z</time>
      </trkpt>
      <trkpt lat="45.94027" lon="4.71652">
        <ele>175</ele>
        <time>2017-05-05T08:24:20Z</time>
      </trkpt>
      <trkpt lat="45.94032" lon="4.7165">
        <ele>175</ele>
        <time>2017-05-05T08:24:21Z</time>
      </trkpt>
      <trkpt lat="45.94037" lon="4.71648">
        <ele>175</ele>
        <time>2017-05-05T08:24:22Z</time>
      </trkpt>
      <trkpt lat="45.94042" lon="4.71646">
        <ele>175</ele>
        <time>2017-05-05T08:24:23Z</time>
      </trkpt>
      <trkpt lat="45.94047" lon="4.71645">
        <ele>175</ele>
        <time>2017-05-05T08:24:24Z</time>
      </trkpt>
      <trkpt lat="45.94052" lon="4.71643">
        <ele>175</ele>
        <time>2017-05-05T08:24:25Z</time>
      </trkpt>
      <trkpt lat="45.94057" lon="4.71641">
        <ele>174</ele>
        <time>2017-05-05T08:24:26Z</time>
      </trkpt>
      <trkpt lat="45.94062" lon="4.71638">
        <ele>174</ele>
        <time>2017-05-05T08:24:27Z</time>
      </trkpt>
      <trkpt lat="45.94068" lon="4.71636">
        <ele>174</ele>
        <time>2017-05-05T08:24:28Z</time>
      </trkpt>
      <trkpt lat="45.94073" lon="4.71634">
        <ele>174</ele>
        <time>2017-05-05T08:24:29Z</time>
      </trkpt>
      <trkpt lat="45.94079" lon="4.71631">
        <ele>174</ele>
        <time>2017-05-05T08:24:30Z</time>
      </trkpt>
      <trkpt lat="45.94084" lon="4.71629">
        <ele>173</ele>
        <time>2017-05-05T08:24:31Z</time>
      </trkpt>
      <trkpt lat="45.9409" lon="4.71626">
        <ele>173</ele>
        <time>2017-05-05T08:24:32Z</time>
      </trkpt>
      <trkpt lat="45.94096" lon="4.71624">
        <ele>173</ele>
        <time>2017-05-05T08:24:33Z</time>
      </trkpt>
      <trkpt lat="45.94102" lon="4.71622">
        <ele>173</ele>
        <time>2017-05-05T08:24:34Z</time>
      </trkpt>
      <trkpt lat="45.94108" lon="4.7162">
        <ele>173</ele>
        <time>2017-05-05T08:24:35Z</time>
      </trkpt>
      <trkpt lat="45.94114" lon="4.71618">
        <ele>173</ele>
        <time>2017-05-05T08:24:36Z</time>
      </trkpt>
      <trkpt lat="45.94119" lon="4.71617">
        <ele>173</ele>
        <time>2017-05-05T08:24:37Z</time>
      </trkpt>
      <trkpt lat="45.94125" lon="4.71615">
        <ele>173</ele>
        <time>2017-05-05T08:24:38Z</time>
      </trkpt>
      <trkpt lat="45.9413" lon="4.71613">
        <ele>173</ele>
        <time>2017-05-05T08:24:39Z</time>
      </trkpt>
      <trkpt lat="45.94135" lon="4.71611">
        <ele>173</ele>
        <time>2017-05-05T08:24:40Z</time>
      </trkpt>
      <trkpt lat="45.9414" lon="4.71609">
        <ele>173</ele>
        <time>2017-05-05T08:24:41Z</time>
      </trkpt>
      <trkpt lat="45.94145" lon="4.71608">
        <ele>173</ele>
        <time>2017-05-05T08:24:42Z</time>
      </trkpt>
      <trkpt lat="45.9415" lon="4.71606">
        <ele>173</ele>
        <time>2017-05-05T08:24:43Z</time>
      </trkpt>
      <trkpt lat="45.94155" lon="4.71604">
        <ele>173</ele>
        <time>2017-05-05T08:24:44Z</time>
      </trkpt>
      <trkpt lat="45.9416" lon="4.71602">
        <ele>173</ele>
        <time>2017-05-05T08:24:45Z</time>
      </trkpt>
      <trkpt lat="45.94165" lon="4.716">
        <ele>173</ele>
        <time>2017-05-05T08:24:46Z</time>
      </trkpt>
      <trkpt lat="45.9417" lon="4.71598">
        <ele>173</ele>
        <time>2017-05-05T08:24:47Z</time>
      </trkpt>
      <trkpt lat="45.94175" lon="4.71596">
        <ele>173</ele>
        <time>2017-05-05T08:24:48Z</time>
      </trkpt>
      <trkpt lat="45.94181" lon="4.71594">
        <ele>173</ele>
        <time>2017-05-05T08:24:49Z</time>
      </trkpt>
      <trkpt lat="45.94186" lon="4.71592">
        <ele>173</ele>
        <time>2017-05-05T08:24:50Z</time>
      </trkpt>
      <trkpt lat="45.94191" lon="4.7159">
        <ele>173</ele>
        <time>2017-05-05T08:24:51Z</time>
      </trkpt>
      <trkpt lat="45.94196" lon="4.71588">
        <ele>173</ele>
        <time>2017-05-05T08:24:52Z</time>
      </trkpt>
      <trkpt lat="45.94201" lon="4.71586">
        <ele>173</ele>
        <time>2017-05-05T08:24:53Z</time>
      </trkpt>
      <trkpt lat="45.94207" lon="4.71583">
        <ele>174</ele>
        <time>2017-05-05T08:24:54Z</time>
      </trkpt>
      <trkpt lat="45.94213" lon="4.71581">
        <ele>174</ele>
        <time>2017-05-05T08:24:55Z</time>
      </trkpt>
      <trkpt lat="45.94217" lon="4.7158">
        <ele>174</ele>
        <time>2017-05-05T08:24:56Z</time>
      </trkpt>
      <trkpt lat="45.94222" lon="4.71577">
        <ele>174</ele>
        <time>2017-05-05T08:24:57Z</time>
      </trkpt>
      <trkpt lat="45.94227" lon="4.71575">
        <ele>174</ele>
        <time>2017-05-05T08:24:58Z</time>
      </trkpt>
      <trkpt lat="45.94232" lon="4.71573">
        <ele>174</ele>
        <time>2017-05-05T08:24:59Z</time>
      </trkpt>
      <trkpt lat="45.94237" lon="4.71571">
        <ele>174</ele>
        <time>2017-05-05T08:25:00Z</time>
      </trkpt>
      <trkpt lat="45.94242" lon="4.7157">
        <ele>174</ele>
        <time>2017-05-05T08:25:01Z</time>
      </trkpt>
      <trkpt lat="45.94247" lon="4.71568">
        <ele>174</ele>
        <time>2017-05-05T08:25:02Z</time>
      </trkpt>
      <trkpt lat="45.94252" lon="4.71565">
        <ele>175</ele>
        <time>2017-05-05T08:25:03Z</time>
      </trkpt>
      <trkpt lat="45.94257" lon="4.71563">
        <ele>175</ele>
        <time>2017-05-05T08:25:04Z</time>
      </trkpt>
      <trkpt lat="45.94262" lon="4.71561">
        <ele>175</ele>
        <time>2017-05-05T08:25:05Z</time>
      </trkpt>
      <trkpt lat="45.94267" lon="4.71559">
        <ele>175</ele>
        <time>2017-05-05T08:25:06Z</time>
      </trkpt>
      <trkpt lat="45.94272" lon="4.71557">
        <ele>175</ele>
        <time>2017-05-05T08:25:07Z</time>
      </trkpt>
      <trkpt lat="45.94278" lon="4.71555">
        <ele>175</ele>
        <time>2017-05-05T08:25:08Z</time>
      </trkpt>
      <trkpt lat="45.94283" lon="4.71553">
        <ele>175</ele>
        <time>2017-05-05T08:25:09Z</time>
      </trkpt>
      <trkpt lat="45.94288" lon="4.71551">
        <ele>175</ele>
        <time>2017-05-05T08:25:10Z</time>
      </trkpt>
      <trkpt lat="45.94293" lon="4.71549">
        <ele>175</ele>
        <time>2017-05-05T08:25:11Z</time>
      </trkpt>
      <trkpt lat="45.94298" lon="4.71547">
        <ele>175</ele>
        <time>2017-05-05T08:25:12Z</time>
      </trkpt>
      <trkpt lat="45.94303" lon="4.71545">
        <ele>175</ele>
        <time>2017-05-05T08:25:13Z</time>
      </trkpt>
      <trkpt lat="45.94307" lon="4.71543">
        <ele>175</ele>
        <time>2017-05-05T08:25:14Z</time>
      </trkpt>
      <trkpt lat="45.94312" lon="4.71541">
        <ele>175</ele>
        <time>2017-05-05T08:25:15Z</time>
      </trkpt>
      <trkpt lat="45.94317" lon="4.71539">
        <ele>175</ele>
        <time>2017-05-05T08:25:16Z</time>
      </trkpt>
      <trkpt lat="45.94322" lon="4.71537">
        <ele>175</ele>
        <time>2017-05-05T08:25:17Z</time>
      </trkpt>
      <trkpt lat="45.94327" lon="4.71534">
        <ele>176</ele>
        <time>2017-05-05T08:25:18Z</time>
      </trkpt>
      <trkpt lat="45.94332" lon="4.71533">
        <ele>176</ele>
        <time>2017-05-05T08:25:19Z</time>
      </trkpt>
      <trkpt lat="45.94337" lon="4.71531">
        <ele>176</ele>
        <time>2017-05-05T08:25:20Z</time>
      </trkpt>
      <trkpt lat="45.94341" lon="4.7153">
        <ele>176</ele>
        <time>2017-05-05T08:25:21Z</time>
      </trkpt>
      <trkpt lat="45.94346" lon="4.71529">
        <ele>176</ele>
        <time>2017-05-05T08:25:22Z</time>
      </trkpt>
      <trkpt lat="45.94351" lon="4.71527">
        <ele>176</ele>
        <time>2017-05-05T08:25:23Z</time>
      </trkpt>
      <trkpt lat="45.94356" lon="4.71525">
        <ele>176</ele>
        <time>2017-05-05T08:25:24Z</time>
      </trkpt>
      <trkpt lat="45.94361" lon="4.71523">
        <ele>176</ele>
        <time>2017-05-05T08:25:25Z</time>
      </trkpt>
      <trkpt lat="45.94366" lon="4.7152">
        <ele>176</ele>
        <time>2017-05-05T08:25:26Z</time>
      </trkpt>
      <trkpt lat="45.94371" lon="4.71519">
        <ele>176</ele>
        <time>2017-05-05T08:25:27Z</time>
      </trkpt>
      <trkpt lat="45.94376" lon="4.71516">
        <ele>176</ele>
        <time>2017-05-05T08:25:28Z</time>
      </trkpt>
      <trkpt lat="45.94381" lon="4.71514">
        <ele>177</ele>
        <time>2017-05-05T08:25:29Z</time>
      </trkpt>
      <trkpt lat="45.94386" lon="4.71513">
        <ele>177</ele>
        <time>2017-05-05T08:25:30Z</time>
      </trkpt>
      <trkpt lat="45.94391" lon="4.71511">
        <ele>177</ele>
        <time>2017-05-05T08:25:31Z</time>
      </trkpt>
      <trkpt lat="45.94396" lon="4.7151">
        <ele>177</ele>
        <time>2017-05-05T08:25:32Z</time>
      </trkpt>
      <trkpt lat="45.94401" lon="4.71508">
        <ele>177</ele>
        <time>2017-05-05T08:25:33Z</time>
      </trkpt>
      <trkpt lat="45.94405" lon="4.71506">
        <ele>177</ele>
        <time>2017-05-05T08:25:34Z</time>
      </trkpt>
      <trkpt lat="45.9441" lon="4.71504">
        <ele>178</ele>
        <time>2017-05-05T08:25:35Z</time>
      </trkpt>
      <trkpt lat="45.94414" lon="4.71502">
        <ele>178</ele>
        <time>2017-05-05T08:25:36Z</time>
      </trkpt>
      <trkpt lat="45.94419" lon="4.715">
        <ele>178</ele>
        <time>2017-05-05T08:25:37Z</time>
      </trkpt>
      <trkpt lat="45.94424" lon="4.71498">
        <ele>178</ele>
        <time>2017-05-05T08:25:38Z</time>
      </trkpt>
      <trkpt lat="45.94428" lon="4.71496">
        <ele>178</ele>
        <time>2017-05-05T08:25:39Z</time>
      </trkpt>
      <trkpt lat="45.94433" lon="4.71494">
        <ele>178</ele>
        <time>2017-05-05T08:25:40Z</time>
      </trkpt>
      <trkpt lat="45.94438" lon="4.71492">
        <ele>178</ele>
        <time>2017-05-05T08:25:41Z</time>
      </trkpt>
      <trkpt lat="45.94443" lon="4.71491">
        <ele>178</ele>
        <time>2017-05-05T08:25:42Z</time>
      </trkpt>
      <trkpt lat="45.94447" lon="4.71489">
        <ele>179</ele>
        <time>2017-05-05T08:25:43Z</time>
      </trkpt>
      <trkpt lat="45.94452" lon="4.71487">
        <ele>179</ele>
        <time>2017-05-05T08:25:44Z</time>
      </trkpt>
      <trkpt lat="45.94456" lon="4.71485">
        <ele>179</ele>
        <time>2017-05-05T08:25:45Z</time>
      </trkpt>
      <trkpt lat="45.94461" lon="4.71483">
        <ele>179</ele>
        <time>2017-05-05T08:25:46Z</time>
      </trkpt>
      <trkpt lat="45.94465" lon="4.7148">
        <ele>179</ele>
        <time>2017-05-05T08:25:47Z</time>
      </trkpt>
      <trkpt lat="45.9447" lon="4.71478">
        <ele>179</ele>
        <time>2017-05-05T08:25:48Z</time>
      </trkpt>
      <trkpt lat="45.94475" lon="4.71476">
        <ele>179</ele>
        <time>2017-05-05T08:25:49Z</time>
      </trkpt>
      <trkpt lat="45.94479" lon="4.71474">
        <ele>179</ele>
        <time>2017-05-05T08:25:50Z</time>
      </trkpt>
      <trkpt lat="45.94484" lon="4.71472">
        <ele>179</ele>
        <time>2017-05-05T08:25:51Z</time>
      </trkpt>
      <trkpt lat="45.94489" lon="4.7147">
        <ele>179</ele>
        <time>2017-05-05T08:25:52Z</time>
      </trkpt>
      <trkpt lat="45.94494" lon="4.71469">
        <ele>179</ele>
        <time>2017-05-05T08:25:53Z</time>
      </trkpt>
      <trkpt lat="45.94499" lon="4.71467">
        <ele>179</ele>
        <time>2017-05-05T08:25:54Z</time>
      </trkpt>
      <trkpt lat="45.94504" lon="4.71465">
        <ele>179</ele>
        <time>2017-05-05T08:25:55Z</time>
      </trkpt>
      <trkpt lat="45.94509" lon="4.71464">
        <ele>180</ele>
        <time>2017-05-05T08:25:56Z</time>
      </trkpt>
      <trkpt lat="45.94514" lon="4.71462">
        <ele>180</ele>
        <time>2017-05-05T08:25:57Z</time>
      </trkpt>
      <trkpt lat="45.94519" lon="4.7146">
        <ele>180</ele>
        <time>2017-05-05T08:25:58Z</time>
      </trkpt>
      <trkpt lat="45.94524" lon="4.71458">
        <ele>180</ele>
        <time>2017-05-05T08:25:59Z</time>
      </trkpt>
      <trkpt lat="45.94529" lon="4.71455">
        <ele>180</ele>
        <time>2017-05-05T08:26:00Z</time>
      </trkpt>
      <trkpt lat="45.94534" lon="4.71453">
        <ele>180</ele>
        <time>2017-05-05T08:26:01Z</time>
      </trkpt>
      <trkpt lat="45.94539" lon="4.71451">
        <ele>180</ele>
        <time>2017-05-05T08:26:02Z</time>
      </trkpt>
      <trkpt lat="45.94543" lon="4.7145">
        <ele>180</ele>
        <time>2017-05-05T08:26:03Z</time>
      </trkpt>
      <trkpt lat="45.94548" lon="4.71449">
        <ele>180</ele>
        <time>2017-05-05T08:26:04Z</time>
      </trkpt>
      <trkpt lat="45.94557" lon="4.71447">
        <ele>181</ele>
        <time>2017-05-05T08:26:06Z</time>
      </trkpt>
      <trkpt lat="45.94561" lon="4.71446">
        <ele>181</ele>
        <time>2017-05-05T08:26:07Z</time>
      </trkpt>
      <trkpt lat="45.94566" lon="4.71446">
        <ele>181</ele>
        <time>2017-05-05T08:26:08Z</time>
      </trkpt>
      <trkpt lat="45.9457" lon="4.71445">
        <ele>181</ele>
        <time>2017-05-05T08:26:09Z</time>
      </trkpt>
      <trkpt lat="45.94575" lon="4.71445">
        <ele>181</ele>
        <time>2017-05-05T08:26:10Z</time>
      </trkpt>
      <trkpt lat="45.94579" lon="4.71445">
        <ele>181</ele>
        <time>2017-05-05T08:26:11Z</time>
      </trkpt>
      <trkpt lat="45.94584" lon="4.71445">
        <ele>182</ele>
        <time>2017-05-05T08:26:12Z</time>
      </trkpt>
      <trkpt lat="45.94589" lon="4.71446">
        <ele>182</ele>
        <time>2017-05-05T08:26:13Z</time>
      </trkpt>
      <trkpt lat="45.94594" lon="4.71446">
        <ele>181</ele>
        <time>2017-05-05T08:26:14Z</time>
      </trkpt>
      <trkpt lat="45.94599" lon="4.71447">
        <ele>181</ele>
        <time>2017-05-05T08:26:15Z</time>
      </trkpt>
      <trkpt lat="45.94604" lon="4.71447">
        <ele>181</ele>
        <time>2017-05-05T08:26:16Z</time>
      </trkpt>
      <trkpt lat="45.94608" lon="4.71448">
        <ele>181</ele>
        <time>2017-05-05T08:26:17Z</time>
      </trkpt>
      <trkpt lat="45.94613" lon="4.71448">
        <ele>181</ele>
        <time>2017-05-05T08:26:18Z</time>
      </trkpt>
      <trkpt lat="45.94618" lon="4.71449">
        <ele>181</ele>
        <time>2017-05-05T08:26:19Z</time>
      </trkpt>
      <trkpt lat="45.94622" lon="4.71449">
        <ele>181</ele>
        <time>2017-05-05T08:26:20Z</time>
      </trkpt>
      <trkpt lat="45.94627" lon="4.71449">
        <ele>181</ele>
        <time>2017-05-05T08:26:21Z</time>
      </trkpt>
      <trkpt lat="45.94632" lon="4.71449">
        <ele>181</ele>
        <time>2017-05-05T08:26:22Z</time>
      </trkpt>
      <trkpt lat="45.94636" lon="4.71449">
        <ele>181</ele>
        <time>2017-05-05T08:26:23Z</time>
      </trkpt>
      <trkpt lat="45.94641" lon="4.7145">
        <ele>181</ele>
        <time>2017-05-05T08:26:24Z</time>
      </trkpt>
      <trkpt lat="45.94645" lon="4.7145">
        <ele>181</ele>
        <time>2017-05-05T08:26:25Z</time>
      </trkpt>
      <trkpt lat="45.9465" lon="4.71451">
        <ele>181</ele>
        <time>2017-05-05T08:26:26Z</time>
      </trkpt>
      <trkpt lat="45.94655" lon="4.71451">
        <ele>181</ele>
        <time>2017-05-05T08:26:27Z</time>
      </trkpt>
      <trkpt lat="45.94663" lon="4.71452">
        <ele>181</ele>
        <time>2017-05-05T08:26:29Z</time>
      </trkpt>
      <trkpt lat="45.94668" lon="4.71453">
        <ele>181</ele>
        <time>2017-05-05T08:26:30Z</time>
      </trkpt>
      <trkpt lat="45.94673" lon="4.71453">
        <ele>181</ele>
        <time>2017-05-05T08:26:31Z</time>
      </trkpt>
      <trkpt lat="45.94678" lon="4.71454">
        <ele>181</ele>
        <time>2017-05-05T08:26:32Z</time>
      </trkpt>
      <trkpt lat="45.94683" lon="4.71454">
        <ele>181</ele>
        <time>2017-05-05T08:26:33Z</time>
      </trkpt>
      <trkpt lat="45.94688" lon="4.71454">
        <ele>181</ele>
        <time>2017-05-05T08:26:34Z</time>
      </trkpt>
      <trkpt lat="45.94693" lon="4.71454">
        <ele>182</ele>
        <time>2017-05-05T08:26:35Z</time>
      </trkpt>
      <trkpt lat="45.94697" lon="4.71454">
        <ele>182</ele>
        <time>2017-05-05T08:26:36Z</time>
      </trkpt>
      <trkpt lat="45.94702" lon="4.71454">
        <ele>182</ele>
        <time>2017-05-05T08:26:37Z</time>
      </trkpt>
      <trkpt lat="45.94707" lon="4.71455">
        <ele>182</ele>
        <time>2017-05-05T08:26:38Z</time>
      </trkpt>
      <trkpt lat="45.94715" lon="4.71456">
        <ele>182</ele>
        <time>2017-05-05T08:26:40Z</time>
      </trkpt>
      <trkpt lat="45.9472" lon="4.71457">
        <ele>182</ele>
        <time>2017-05-05T08:26:41Z</time>
      </trkpt>
      <trkpt lat="45.94728" lon="4.71458">
        <ele>182</ele>
        <time>2017-05-05T08:26:43Z</time>
      </trkpt>
      <trkpt lat="45.94733" lon="4.71458">
        <ele>182</ele>
        <time>2017-05-05T08:26:44Z</time>
      </trkpt>
      <trkpt lat="45.94742" lon="4.71459">
        <ele>182</ele>
        <time>2017-05-05T08:26:46Z</time>
      </trkpt>
      <trkpt lat="45.94746" lon="4.71459">
        <ele>182</ele>
        <time>2017-05-05T08:26:47Z</time>
      </trkpt>
      <trkpt lat="45.94751" lon="4.71459">
        <ele>183</ele>
        <time>2017-05-05T08:26:48Z</time>
      </trkpt>
      <trkpt lat="45.94756" lon="4.7146">
        <ele>183</ele>
        <time>2017-05-05T08:26:49Z</time>
      </trkpt>
      <trkpt lat="45.94761" lon="4.7146">
        <ele>183</ele>
        <time>2017-05-05T08:26:50Z</time>
      </trkpt>
      <trkpt lat="45.94766" lon="4.71461">
        <ele>183</ele>
        <time>2017-05-05T08:26:51Z</time>
      </trkpt>
      <trkpt lat="45.94772" lon="4.71461">
        <ele>183</ele>
        <time>2017-05-05T08:26:52Z</time>
      </trkpt>
      <trkpt lat="45.94777" lon="4.71462">
        <ele>183</ele>
        <time>2017-05-05T08:26:53Z</time>
      </trkpt>
      <trkpt lat="45.94783" lon="4.71462">
        <ele>183</ele>
        <time>2017-05-05T08:26:54Z</time>
      </trkpt>
      <trkpt lat="45.94789" lon="4.71463">
        <ele>183</ele>
        <time>2017-05-05T08:26:55Z</time>
      </trkpt>
      <trkpt lat="45.94794" lon="4.71463">
        <ele>183</ele>
        <time>2017-05-05T08:26:56Z</time>
      </trkpt>
      <trkpt lat="45.948" lon="4.71464">
        <ele>183</ele>
        <time>2017-05-05T08:26:57Z</time>
      </trkpt>
      <trkpt lat="45.94805" lon="4.71464">
        <ele>183</ele>
        <time>2017-05-05T08:26:58Z</time>
      </trkpt>
      <trkpt lat="45.94811" lon="4.71465">
        <ele>183</ele>
        <time>2017-05-05T08:26:59Z</time>
      </trkpt>
      <trkpt lat="45.94817" lon="4.71465">
        <ele>183</ele>
        <time>2017-05-05T08:27:00Z</time>
      </trkpt>
      <trkpt lat="45.94822" lon="4.71465">
        <ele>183</ele>
        <time>2017-05-05T08:27:01Z</time>
      </trkpt>
      <trkpt lat="45.94828" lon="4.71466">
        <ele>183</ele>
        <time>2017-05-05T08:27:02Z</time>
      </trkpt>
      <trkpt lat="45.94833" lon="4.71466">
        <ele>183</ele>
        <time>2017-05-05T08:27:03Z</time>
      </trkpt>
      <trkpt lat="45.94839" lon="4.71466">
        <ele>183</ele>
        <time>2017-05-05T08:27:04Z</time>
      </trkpt>
      <trkpt lat="45.94844" lon="4.71467">
        <ele>183</ele>
        <time>2017-05-05T08:27:05Z</time>
      </trkpt>
      <trkpt lat="45.94849" lon="4.71468">
        <ele>183</ele>
        <time>2017-05-05T08:27:06Z</time>
      </trkpt>
      <trkpt lat="45.94854" lon="4.71468">
        <ele>183</ele>
        <time>2017-05-05T08:27:07Z</time>
      </trkpt>
      <trkpt lat="45.94859" lon="4.71469">
        <ele>183</ele>
        <time>2017-05-05T08:27:08Z</time>
      </trkpt>
      <trkpt lat="45.94864" lon="4.7147">
        <ele>183</ele>
        <time>2017-05-05T08:27:09Z</time>
      </trkpt>
      <trkpt lat="45.9487" lon="4.71471">
        <ele>183</ele>
        <time>2017-05-05T08:27:10Z</time>
      </trkpt>
      <trkpt lat="45.94875" lon="4.71471">
        <ele>183</ele>
        <time>2017-05-05T08:27:11Z</time>
      </trkpt>
      <trkpt lat="45.94881" lon="4.71472">
        <ele>183</ele>
        <time>2017-05-05T08:27:12Z</time>
      </trkpt>
      <trkpt lat="45.94886" lon="4.71472">
        <ele>183</ele>
        <time>2017-05-05T08:27:13Z</time>
      </trkpt>
      <trkpt lat="45.94892" lon="4.71473">
        <ele>183</ele>
        <time>2017-05-05T08:27:14Z</time>
      </trkpt>
      <trkpt lat="45.94897" lon="4.71474">
        <ele>183</ele>
        <time>2017-05-05T08:27:15Z</time>
      </trkpt>
      <trkpt lat="45.94903" lon="4.71475">
        <ele>183</ele>
        <time>2017-05-05T08:27:16Z</time>
      </trkpt>
      <trkpt lat="45.94908" lon="4.71475">
        <ele>183</ele>
        <time>2017-05-05T08:27:17Z</time>
      </trkpt>
      <trkpt lat="45.94914" lon="4.71475">
        <ele>182</ele>
        <time>2017-05-05T08:27:18Z</time>
      </trkpt>
      <trkpt lat="45.9492" lon="4.71475">
        <ele>182</ele>
        <time>2017-05-05T08:27:19Z</time>
      </trkpt>
      <trkpt lat="45.94925" lon="4.71474">
        <ele>183</ele>
        <time>2017-05-05T08:27:20Z</time>
      </trkpt>
      <trkpt lat="45.94931" lon="4.71474">
        <ele>183</ele>
        <time>2017-05-05T08:27:21Z</time>
      </trkpt>
      <trkpt lat="45.94936" lon="4.71475">
        <ele>183</ele>
        <time>2017-05-05T08:27:22Z</time>
      </trkpt>
      <trkpt lat="45.94941" lon="4.71477">
        <ele>183</ele>
        <time>2017-05-05T08:27:23Z</time>
      </trkpt>
      <trkpt lat="45.94946" lon="4.7148">
        <ele>183</ele>
        <time>2017-05-05T08:27:24Z</time>
      </trkpt>
      <trkpt lat="45.9495" lon="4.71484">
        <ele>182</ele>
        <time>2017-05-05T08:27:25Z</time>
      </trkpt>
      <trkpt lat="45.94954" lon="4.71488">
        <ele>182</ele>
        <time>2017-05-05T08:27:26Z</time>
      </trkpt>
      <trkpt lat="45.94959" lon="4.71491">
        <ele>182</ele>
        <time>2017-05-05T08:27:27Z</time>
      </trkpt>
      <trkpt lat="45.94963" lon="4.71493">
        <ele>182</ele>
        <time>2017-05-05T08:27:28Z</time>
      </trkpt>
      <trkpt lat="45.94969" lon="4.71493">
        <ele>182</ele>
        <time>2017-05-05T08:27:29Z</time>
      </trkpt>
      <trkpt lat="45.94974" lon="4.71492">
        <ele>182</ele>
        <time>2017-05-05T08:27:30Z</time>
      </trkpt>
      <trkpt lat="45.94979" lon="4.71489">
        <ele>182</ele>
        <time>2017-05-05T08:27:31Z</time>
      </trkpt>
      <trkpt lat="45.94983" lon="4.71485">
        <ele>182</ele>
        <time>2017-05-05T08:27:32Z</time>
      </trkpt>
      <trkpt lat="45.94988" lon="4.71482">
        <ele>182</ele>
        <time>2017-05-05T08:27:33Z</time>
      </trkpt>
      <trkpt lat="45.94994" lon="4.71481">
        <ele>182</ele>
        <time>2017-05-05T08:27:34Z</time>
      </trkpt>
      <trkpt lat="45.95" lon="4.71482">
        <ele>182</ele>
        <time>2017-05-05T08:27:35Z</time>
      </trkpt>
      <trkpt lat="45.95006" lon="4.71483">
        <ele>181</ele>
        <time>2017-05-05T08:27:36Z</time>
      </trkpt>
      <trkpt lat="45.95013" lon="4.71483">
        <ele>181</ele>
        <time>2017-05-05T08:27:37Z</time>
      </trkpt>
      <trkpt lat="45.95019" lon="4.71483">
        <ele>181</ele>
        <time>2017-05-05T08:27:38Z</time>
      </trkpt>
      <trkpt lat="45.95026" lon="4.71483">
        <ele>181</ele>
        <time>2017-05-05T08:27:39Z</time>
      </trkpt>
      <trkpt lat="45.95033" lon="4.71484">
        <ele>181</ele>
        <time>2017-05-05T08:27:40Z</time>
      </trkpt>
      <trkpt lat="45.9504" lon="4.71484">
        <ele>181</ele>
        <time>2017-05-05T08:27:41Z</time>
      </trkpt>
      <trkpt lat="45.95048" lon="4.71484">
        <ele>181</ele>
        <time>2017-05-05T08:27:42Z</time>
      </trkpt>
      <trkpt lat="45.95055" lon="4.71485">
        <ele>181</ele>
        <time>2017-05-05T08:27:43Z</time>
      </trkpt>
      <trkpt lat="45.95063" lon="4.71485">
        <ele>181</ele>
        <time>2017-05-05T08:27:44Z</time>
      </trkpt>
      <trkpt lat="45.95071" lon="4.71485">
        <ele>180</ele>
        <time>2017-05-05T08:27:45Z</time>
      </trkpt>
      <trkpt lat="45.95079" lon="4.71485">
        <ele>180</ele>
        <time>2017-05-05T08:27:46Z</time>
      </trkpt>
      <trkpt lat="45.95087" lon="4.71484">
        <ele>179</ele>
        <time>2017-05-05T08:27:47Z</time>
      </trkpt>
      <trkpt lat="45.95095" lon="4.71483">
        <ele>179</ele>
        <time>2017-05-05T08:27:48Z</time>
      </trkpt>
      <trkpt lat="45.95103" lon="4.71483">
        <ele>179</ele>
        <time>2017-05-05T08:27:49Z</time>
      </trkpt>
      <trkpt lat="45.95111" lon="4.71483">
        <ele>179</ele>
        <time>2017-05-05T08:27:50Z</time>
      </trkpt>
      <trkpt lat="45.95119" lon="4.71484">
        <ele>178</ele>
        <time>2017-05-05T08:27:51Z</time>
      </trkpt>
      <trkpt lat="45.95128" lon="4.71484">
        <ele>178</ele>
        <time>2017-05-05T08:27:52Z</time>
      </trkpt>
      <trkpt lat="45.95136" lon="4.71485">
        <ele>178</ele>
        <time>2017-05-05T08:27:53Z</time>
      </trkpt>
      <trkpt lat="45.95145" lon="4.71485">
        <ele>178</ele>
        <time>2017-05-05T08:27:54Z</time>
      </trkpt>
      <trkpt lat="45.95153" lon="4.71486">
        <ele>178</ele>
        <time>2017-05-05T08:27:55Z</time>
      </trkpt>
      <trkpt lat="45.95161" lon="4.71487">
        <ele>178</ele>
        <time>2017-05-05T08:27:56Z</time>
      </trkpt>
      <trkpt lat="45.9517" lon="4.71488">
        <ele>177</ele>
        <time>2017-05-05T08:27:57Z</time>
      </trkpt>
      <trkpt lat="45.95178" lon="4.71489">
        <ele>177</ele>
        <time>2017-05-05T08:27:58Z</time>
      </trkpt>
      <trkpt lat="45.95186" lon="4.71489">
        <ele>177</ele>
        <time>2017-05-05T08:27:59Z</time>
      </trkpt>
      <trkpt lat="45.95194" lon="4.7149">
        <ele>177</ele>
        <time>2017-05-05T08:28:00Z</time>
      </trkpt>
      <trkpt lat="45.95202" lon="4.71492">
        <ele>177</ele>
        <time>2017-05-05T08:28:01Z</time>
      </trkpt>
      <trkpt lat="45.9521" lon="4.71493">
        <ele>177</ele>
        <time>2017-05-05T08:28:02Z</time>
      </trkpt>
      <trkpt lat="45.95217" lon="4.71493">
        <ele>177</ele>
        <time>2017-05-05T08:28:03Z</time>
      </trkpt>
      <trkpt lat="45.95225" lon="4.71493">
        <ele>177</ele>
        <time>2017-05-05T08:28:04Z</time>
      </trkpt>
      <trkpt lat="45.95233" lon="4.71494">
        <ele>177</ele>
        <time>2017-05-05T08:28:05Z</time>
      </trkpt>
      <trkpt lat="45.95241" lon="4.71494">
        <ele>177</ele>
        <time>2017-05-05T08:28:06Z</time>
      </trkpt>
      <trkpt lat="45.95248" lon="4.71495">
        <ele>177</ele>
        <time>2017-05-05T08:28:07Z</time>
      </trkpt>
      <trkpt lat="45.95256" lon="4.71495">
        <ele>177</ele>
        <time>2017-05-05T08:28:08Z</time>
      </trkpt>
      <trkpt lat="45.95264" lon="4.71495">
        <ele>176</ele>
        <time>2017-05-05T08:28:09Z</time>
      </trkpt>
      <trkpt lat="45.95271" lon="4.71496">
        <ele>176</ele>
        <time>2017-05-05T08:28:10Z</time>
      </trkpt>
      <trkpt lat="45.95278" lon="4.71496">
        <ele>176</ele>
        <time>2017-05-05T08:28:11Z</time>
      </trkpt>
      <trkpt lat="45.95286" lon="4.71496">
        <ele>176</ele>
        <time>2017-05-05T08:28:12Z</time>
      </trkpt>
      <trkpt lat="45.95292" lon="4.71496">
        <ele>176</ele>
        <time>2017-05-05T08:28:13Z</time>
      </trkpt>
      <trkpt lat="45.95299" lon="4.71497">
        <ele>175</ele>
        <time>2017-05-05T08:28:14Z</time>
      </trkpt>
      <trkpt lat="45.95305" lon="4.71498">
        <ele>175</ele>
        <time>2017-05-05T08:28:15Z</time>
      </trkpt>
      <trkpt lat="45.95312" lon="4.71499">
        <ele>175</ele>
        <time>2017-05-05T08:28:16Z</time>
      </trkpt>
      <trkpt lat="45.95318" lon="4.71499">
        <ele>175</ele>
        <time>2017-05-05T08:28:17Z</time>
      </trkpt>
      <trkpt lat="45.95324" lon="4.715">
        <ele>175</ele>
        <time>2017-05-05T08:28:18Z</time>
      </trkpt>
      <trkpt lat="45.9533" lon="4.715">
        <ele>174</ele>
        <time>2017-05-05T08:28:19Z</time>
      </trkpt>
      <trkpt lat="45.95337" lon="4.715">
        <ele>174</ele>
        <time>2017-05-05T08:28:20Z</time>
      </trkpt>
      <trkpt lat="45.95342" lon="4.715">
        <ele>174</ele>
        <time>2017-05-05T08:28:21Z</time>
      </trkpt>
      <trkpt lat="45.95348" lon="4.71501">
        <ele>174</ele>
        <time>2017-05-05T08:28:22Z</time>
      </trkpt>
      <trkpt lat="45.95354" lon="4.71501">
        <ele>174</ele>
        <time>2017-05-05T08:28:23Z</time>
      </trkpt>
      <trkpt lat="45.95359" lon="4.71501">
        <ele>174</ele>
        <time>2017-05-05T08:28:24Z</time>
      </trkpt>
      <trkpt lat="45.95364" lon="4.71501">
        <ele>174</ele>
        <time>2017-05-05T08:28:25Z</time>
      </trkpt>
      <trkpt lat="45.9537" lon="4.71502">
        <ele>174</ele>
        <time>2017-05-05T08:28:26Z</time>
      </trkpt>
      <trkpt lat="45.95375" lon="4.71502">
        <ele>174</ele>
        <time>2017-05-05T08:28:27Z</time>
      </trkpt>
      <trkpt lat="45.95381" lon="4.71502">
        <ele>174</ele>
        <time>2017-05-05T08:28:28Z</time>
      </trkpt>
      <trkpt lat="45.95387" lon="4.71503">
        <ele>174</ele>
        <time>2017-05-05T08:28:29Z</time>
      </trkpt>
      <trkpt lat="45.95393" lon="4.71503">
        <ele>174</ele>
        <time>2017-05-05T08:28:30Z</time>
      </trkpt>
      <trkpt lat="45.95398" lon="4.71503">
        <ele>174</ele>
        <time>2017-05-05T08:28:31Z</time>
      </trkpt>
      <trkpt lat="45.95404" lon="4.71504">
        <ele>174</ele>
        <time>2017-05-05T08:28:32Z</time>
      </trkpt>
      <trkpt lat="45.9541" lon="4.71504">
        <ele>174</ele>
        <time>2017-05-05T08:28:33Z</time>
      </trkpt>
      <trkpt lat="45.95415" lon="4.71504">
        <ele>174</ele>
        <time>2017-05-05T08:28:34Z</time>
      </trkpt>
      <trkpt lat="45.95421" lon="4.71504">
        <ele>174</ele>
        <time>2017-05-05T08:28:35Z</time>
      </trkpt>
      <trkpt lat="45.95427" lon="4.71504">
        <ele>174</ele>
        <time>2017-05-05T08:28:36Z</time>
      </trkpt>
      <trkpt lat="45.95433" lon="4.71504">
        <ele>175</ele>
        <time>2017-05-05T08:28:37Z</time>
      </trkpt>
      <trkpt lat="45.95439" lon="4.71505">
        <ele>175</ele>
        <time>2017-05-05T08:28:38Z</time>
      </trkpt>
      <trkpt lat="45.95444" lon="4.71505">
        <ele>175</ele>
        <time>2017-05-05T08:28:39Z</time>
      </trkpt>
      <trkpt lat="45.9545" lon="4.71506">
        <ele>175</ele>
        <time>2017-05-05T08:28:40Z</time>
      </trkpt>
      <trkpt lat="45.95456" lon="4.71507">
        <ele>175</ele>
        <time>2017-05-05T08:28:41Z</time>
      </trkpt>
      <trkpt lat="45.95461" lon="4.71507">
        <ele>175</ele>
        <time>2017-05-05T08:28:42Z</time>
      </trkpt>
      <trkpt lat="45.95466" lon="4.71508">
        <ele>175</ele>
        <time>2017-05-05T08:28:43Z</time>
      </trkpt>
      <trkpt lat="45.95472" lon="4.71508">
        <ele>176</ele>
        <time>2017-05-05T08:28:44Z</time>
      </trkpt>
      <trkpt lat="45.95477" lon="4.71509">
        <ele>176</ele>
        <time>2017-05-05T08:28:45Z</time>
      </trkpt>
      <trkpt lat="45.95482" lon="4.71509">
        <ele>176</ele>
        <time>2017-05-05T08:28:46Z</time>
      </trkpt>
      <trkpt lat="45.95487" lon="4.71509">
        <ele>176</ele>
        <time>2017-05-05T08:28:47Z</time>
      </trkpt>
      <trkpt lat="45.95492" lon="4.71509">
        <ele>176</ele>
        <time>2017-05-05T08:28:48Z</time>
      </trkpt>
      <trkpt lat="45.95498" lon="4.71509">
        <ele>176</ele>
        <time>2017-05-05T08:28:49Z</time>
      </trkpt>
      <trkpt lat="45.95503" lon="4.71509">
        <ele>177</ele>
        <time>2017-05-05T08:28:50Z</time>
      </trkpt>
      <trkpt lat="45.95508" lon="4.7151">
        <ele>177</ele>
        <time>2017-05-05T08:28:51Z</time>
      </trkpt>
      <trkpt lat="45.95513" lon="4.7151">
        <ele>177</ele>
        <time>2017-05-05T08:28:52Z</time>
      </trkpt>
      <trkpt lat="45.95519" lon="4.7151">
        <ele>177</ele>
        <time>2017-05-05T08:28:53Z</time>
      </trkpt>
      <trkpt lat="45.95524" lon="4.71511">
        <ele>177</ele>
        <time>2017-05-05T08:28:54Z</time>
      </trkpt>
      <trkpt lat="45.95529" lon="4.71511">
        <ele>177</ele>
        <time>2017-05-05T08:28:55Z</time>
      </trkpt>
      <trkpt lat="45.95534" lon="4.71511">
        <ele>177</ele>
        <time>2017-05-05T08:28:56Z</time>
      </trkpt>
      <trkpt lat="45.9554" lon="4.71512">
        <ele>177</ele>
        <time>2017-05-05T08:28:57Z</time>
      </trkpt>
      <trkpt lat="45.95545" lon="4.71512">
        <ele>178</ele>
        <time>2017-05-05T08:28:58Z</time>
      </trkpt>
      <trkpt lat="45.9555" lon="4.71513">
        <ele>178</ele>
        <time>2017-05-05T08:28:59Z</time>
      </trkpt>
      <trkpt lat="45.95556" lon="4.71514">
        <ele>178</ele>
        <time>2017-05-05T08:29:00Z</time>
      </trkpt>
      <trkpt lat="45.95561" lon="4.71515">
        <ele>178</ele>
        <time>2017-05-05T08:29:01Z</time>
      </trkpt>
      <trkpt lat="45.95567" lon="4.71515">
        <ele>178</ele>
        <time>2017-05-05T08:29:02Z</time>
      </trkpt>
      <trkpt lat="45.95572" lon="4.71516">
        <ele>178</ele>
        <time>2017-05-05T08:29:03Z</time>
      </trkpt>
      <trkpt lat="45.95577" lon="4.71516">
        <ele>178</ele>
        <time>2017-05-05T08:29:04Z</time>
      </trkpt>
      <trkpt lat="45.95583" lon="4.71516">
        <ele>179</ele>
        <time>2017-05-05T08:29:05Z</time>
      </trkpt>
      <trkpt lat="45.95588" lon="4.71517">
        <ele>179</ele>
        <time>2017-05-05T08:29:06Z</time>
      </trkpt>
      <trkpt lat="45.95594" lon="4.71518">
        <ele>179</ele>
        <time>2017-05-05T08:29:07Z</time>
      </trkpt>
      <trkpt lat="45.95599" lon="4.71518">
        <ele>179</ele>
        <time>2017-05-05T08:29:08Z</time>
      </trkpt>
      <trkpt lat="45.95604" lon="4.71518">
        <ele>179</ele>
        <time>2017-05-05T08:29:09Z</time>
      </trkpt>
      <trkpt lat="45.95609" lon="4.71518">
        <ele>179</ele>
        <time>2017-05-05T08:29:10Z</time>
      </trkpt>
      <trkpt lat="45.95614" lon="4.71518">
        <ele>179</ele>
        <time>2017-05-05T08:29:11Z</time>
      </trkpt>
      <trkpt lat="45.95619" lon="4.71518">
        <ele>179</ele>
        <time>2017-05-05T08:29:12Z</time>
      </trkpt>
      <trkpt lat="45.95623" lon="4.71518">
        <ele>179</ele>
        <time>2017-05-05T08:29:13Z</time>
      </trkpt>
      <trkpt lat="45.95628" lon="4.71518">
        <ele>179</ele>
        <time>2017-05-05T08:29:14Z</time>
      </trkpt>
      <trkpt lat="45.95633" lon="4.71519">
        <ele>179</ele>
        <time>2017-05-05T08:29:15Z</time>
      </trkpt>
      <trkpt lat="45.95638" lon="4.7152">
        <ele>180</ele>
        <time>2017-05-05T08:29:16Z</time>
      </trkpt>
      <trkpt lat="45.95642" lon="4.7152">
        <ele>180</ele>
        <time>2017-05-05T08:29:17Z</time>
      </trkpt>
      <trkpt lat="45.95647" lon="4.71521">
        <ele>180</ele>
        <time>2017-05-05T08:29:18Z</time>
      </trkpt>
      <trkpt lat="45.95652" lon="4.71521">
        <ele>180</ele>
        <time>2017-05-05T08:29:19Z</time>
      </trkpt>
      <trkpt lat="45.95657" lon="4.71521">
        <ele>180</ele>
        <time>2017-05-05T08:29:20Z</time>
      </trkpt>
      <trkpt lat="45.95662" lon="4.71521">
        <ele>180</ele>
        <time>2017-05-05T08:29:21Z</time>
      </trkpt>
      <trkpt lat="45.95666" lon="4.71521">
        <ele>180</ele>
        <time>2017-05-05T08:29:22Z</time>
      </trkpt>
      <trkpt lat="45.95671" lon="4.71522">
        <ele>180</ele>
        <time>2017-05-05T08:29:23Z</time>
      </trkpt>
      <trkpt lat="45.95676" lon="4.71522">
        <ele>180</ele>
        <time>2017-05-05T08:29:24Z</time>
      </trkpt>
      <trkpt lat="45.95681" lon="4.71523">
        <ele>180</ele>
        <time>2017-05-05T08:29:25Z</time>
      </trkpt>
      <trkpt lat="45.95686" lon="4.71523">
        <ele>180</ele>
        <time>2017-05-05T08:29:26Z</time>
      </trkpt>
      <trkpt lat="45.9569" lon="4.71524">
        <ele>180</ele>
        <time>2017-05-05T08:29:27Z</time>
      </trkpt>
      <trkpt lat="45.95695" lon="4.71524">
        <ele>180</ele>
        <time>2017-05-05T08:29:28Z</time>
      </trkpt>
      <trkpt lat="45.95699" lon="4.71524">
        <ele>180</ele>
        <time>2017-05-05T08:29:29Z</time>
      </trkpt>
      <trkpt lat="45.95704" lon="4.71524">
        <ele>180</ele>
        <time>2017-05-05T08:29:30Z</time>
      </trkpt>
      <trkpt lat="45.95709" lon="4.71524">
        <ele>180</ele>
        <time>2017-05-05T08:29:31Z</time>
      </trkpt>
      <trkpt lat="45.95713" lon="4.71525">
        <ele>180</ele>
        <time>2017-05-05T08:29:32Z</time>
      </trkpt>
      <trkpt lat="45.95718" lon="4.71525">
        <ele>180</ele>
        <time>2017-05-05T08:29:33Z</time>
      </trkpt>
      <trkpt lat="45.95723" lon="4.71525">
        <ele>180</ele>
        <time>2017-05-05T08:29:34Z</time>
      </trkpt>
      <trkpt lat="45.95728" lon="4.71526">
        <ele>180</ele>
        <time>2017-05-05T08:29:35Z</time>
      </trkpt>
      <trkpt lat="45.95733" lon="4.71526">
        <ele>180</ele>
        <time>2017-05-05T08:29:36Z</time>
      </trkpt>
      <trkpt lat="45.95738" lon="4.71527">
        <ele>180</ele>
        <time>2017-05-05T08:29:37Z</time>
      </trkpt>
      <trkpt lat="45.95743" lon="4.71528">
        <ele>180</ele>
        <time>2017-05-05T08:29:38Z</time>
      </trkpt>
      <trkpt lat="45.95747" lon="4.71528">
        <ele>180</ele>
        <time>2017-05-05T08:29:39Z</time>
      </trkpt>
      <trkpt lat="45.95752" lon="4.71528">
        <ele>181</ele>
        <time>2017-05-05T08:29:40Z</time>
      </trkpt>
      <trkpt lat="45.95757" lon="4.71529">
        <ele>181</ele>
        <time>2017-05-05T08:29:41Z</time>
      </trkpt>
      <trkpt lat="45.95762" lon="4.71529">
        <ele>181</ele>
        <time>2017-05-05T08:29:42Z</time>
      </trkpt>
      <trkpt lat="45.95767" lon="4.7153">
        <ele>181</ele>
        <time>2017-05-05T08:29:43Z</time>
      </trkpt>
      <trkpt lat="45.95771" lon="4.7153">
        <ele>180</ele>
        <time>2017-05-05T08:29:44Z</time>
      </trkpt>
      <trkpt lat="45.95776" lon="4.71531">
        <ele>180</ele>
        <time>2017-05-05T08:29:45Z</time>
      </trkpt>
      <trkpt lat="45.95781" lon="4.71531">
        <ele>181</ele>
        <time>2017-05-05T08:29:46Z</time>
      </trkpt>
      <trkpt lat="45.95786" lon="4.71531">
        <ele>181</ele>
        <time>2017-05-05T08:29:47Z</time>
      </trkpt>
      <trkpt lat="45.9579" lon="4.71531">
        <ele>181</ele>
        <time>2017-05-05T08:29:48Z</time>
      </trkpt>
      <trkpt lat="45.95795" lon="4.71531">
        <ele>181</ele>
        <time>2017-05-05T08:29:49Z</time>
      </trkpt>
      <trkpt lat="45.958" lon="4.71531">
        <ele>181</ele>
        <time>2017-05-05T08:29:50Z</time>
      </trkpt>
      <trkpt lat="45.95804" lon="4.71532">
        <ele>181</ele>
        <time>2017-05-05T08:29:51Z</time>
      </trkpt>
      <trkpt lat="45.95809" lon="4.71532">
        <ele>181</ele>
        <time>2017-05-05T08:29:52Z</time>
      </trkpt>
      <trkpt lat="45.95814" lon="4.71532">
        <ele>181</ele>
        <time>2017-05-05T08:29:53Z</time>
      </trkpt>
      <trkpt lat="45.95819" lon="4.71533">
        <ele>181</ele>
        <time>2017-05-05T08:29:54Z</time>
      </trkpt>
      <trkpt lat="45.95824" lon="4.71533">
        <ele>181</ele>
        <time>2017-05-05T08:29:55Z</time>
      </trkpt>
      <trkpt lat="45.95829" lon="4.71533">
        <ele>181</ele>
        <time>2017-05-05T08:29:56Z</time>
      </trkpt>
      <trkpt lat="45.95834" lon="4.71534">
        <ele>182</ele>
        <time>2017-05-05T08:29:57Z</time>
      </trkpt>
      <trkpt lat="45.95839" lon="4.71534">
        <ele>182</ele>
        <time>2017-05-05T08:29:58Z</time>
      </trkpt>
      <trkpt lat="45.95844" lon="4.71534">
        <ele>182</ele>
        <time>2017-05-05T08:29:59Z</time>
      </trkpt>
      <trkpt lat="45.95849" lon="4.71534">
        <ele>182</ele>
        <time>2017-05-05T08:30:00Z</time>
      </trkpt>
      <trkpt lat="45.95853" lon="4.71535">
        <ele>182</ele>
        <time>2017-05-05T08:30:01Z</time>
      </trkpt>
      <trkpt lat="45.95858" lon="4.71535">
        <ele>181</ele>
        <time>2017-05-05T08:30:02Z</time>
      </trkpt>
      <trkpt lat="45.95862" lon="4.71535">
        <ele>181</ele>
        <time>2017-05-05T08:30:03Z</time>
      </trkpt>
      <trkpt lat="45.95867" lon="4.71536">
        <ele>181</ele>
        <time>2017-05-05T08:30:04Z</time>
      </trkpt>
      <trkpt lat="45.95872" lon="4.71537">
        <ele>181</ele>
        <time>2017-05-05T08:30:05Z</time>
      </trkpt>
      <trkpt lat="45.95877" lon="4.71537">
        <ele>181</ele>
        <time>2017-05-05T08:30:06Z</time>
      </trkpt>
      <trkpt lat="45.95882" lon="4.71539">
        <ele>181</ele>
        <time>2017-05-05T08:30:07Z</time>
      </trkpt>
      <trkpt lat="45.95888" lon="4.71539">
        <ele>181</ele>
        <time>2017-05-05T08:30:08Z</time>
      </trkpt>
      <trkpt lat="45.95893" lon="4.7154">
        <ele>181</ele>
        <time>2017-05-05T08:30:09Z</time>
      </trkpt>
      <trkpt lat="45.95898" lon="4.7154">
        <ele>181</ele>
        <time>2017-05-05T08:30:10Z</time>
      </trkpt>
      <trkpt lat="45.95903" lon="4.71541">
        <ele>181</ele>
        <time>2017-05-05T08:30:11Z</time>
      </trkpt>
      <trkpt lat="45.95907" lon="4.71542">
        <ele>181</ele>
        <time>2017-05-05T08:30:12Z</time>
      </trkpt>
      <trkpt lat="45.95912" lon="4.71542">
        <ele>181</ele>
        <time>2017-05-05T08:30:13Z</time>
      </trkpt>
      <trkpt lat="45.95917" lon="4.71542">
        <ele>181</ele>
        <time>2017-05-05T08:30:14Z</time>
      </trkpt>
      <trkpt lat="45.95921" lon="4.71543">
        <ele>183</ele>
        <time>2017-05-05T08:30:15Z</time>
      </trkpt>
      <trkpt lat="45.95926" lon="4.71543">
        <ele>183</ele>
        <time>2017-05-05T08:30:16Z</time>
      </trkpt>
      <trkpt lat="45.9593" lon="4.71543">
        <ele>183</ele>
        <time>2017-05-05T08:30:17Z</time>
      </trkpt>
      <trkpt lat="45.95935" lon="4.71543">
        <ele>183</ele>
        <time>2017-05-05T08:30:18Z</time>
      </trkpt>
      <trkpt lat="45.9594" lon="4.71543">
        <ele>183</ele>
        <time>2017-05-05T08:30:19Z</time>
      </trkpt>
      <trkpt lat="45.95944" lon="4.71543">
        <ele>183</ele>
        <time>2017-05-05T08:30:20Z</time>
      </trkpt>
      <trkpt lat="45.95949" lon="4.71544">
        <ele>183</ele>
        <time>2017-05-05T08:30:21Z</time>
      </trkpt>
      <trkpt lat="45.95957" lon="4.71545">
        <ele>183</ele>
        <time>2017-05-05T08:30:23Z</time>
      </trkpt>
      <trkpt lat="45.95962" lon="4.71547">
        <ele>183</ele>
        <time>2017-05-05T08:30:24Z</time>
      </trkpt>
      <trkpt lat="45.95966" lon="4.7155">
        <ele>183</ele>
        <time>2017-05-05T08:30:25Z</time>
      </trkpt>
      <trkpt lat="45.9597" lon="4.71552">
        <ele>183</ele>
        <time>2017-05-05T08:30:26Z</time>
      </trkpt>
      <trkpt lat="45.95975" lon="4.71554">
        <ele>183</ele>
        <time>2017-05-05T08:30:27Z</time>
      </trkpt>
      <trkpt lat="45.95979" lon="4.71555">
        <ele>183</ele>
        <time>2017-05-05T08:30:28Z</time>
      </trkpt>
      <trkpt lat="45.95984" lon="4.71554">
        <ele>183</ele>
        <time>2017-05-05T08:30:29Z</time>
      </trkpt>
      <trkpt lat="45.95988" lon="4.71553">
        <ele>183</ele>
        <time>2017-05-05T08:30:30Z</time>
      </trkpt>
      <trkpt lat="45.95997" lon="4.71549">
        <ele>184</ele>
        <time>2017-05-05T08:30:32Z</time>
      </trkpt>
      <trkpt lat="45.96001" lon="4.71548">
        <ele>185</ele>
        <time>2017-05-05T08:30:33Z</time>
      </trkpt>
      <trkpt lat="45.96006" lon="4.71547">
        <ele>185</ele>
        <time>2017-05-05T08:30:34Z</time>
      </trkpt>
      <trkpt lat="45.96011" lon="4.71547">
        <ele>185</ele>
        <time>2017-05-05T08:30:35Z</time>
      </trkpt>
      <trkpt lat="45.96015" lon="4.71547">
        <ele>185</ele>
        <time>2017-05-05T08:30:36Z</time>
      </trkpt>
      <trkpt lat="45.9602" lon="4.71547">
        <ele>185</ele>
        <time>2017-05-05T08:30:37Z</time>
      </trkpt>
      <trkpt lat="45.96025" lon="4.71547">
        <ele>185</ele>
        <time>2017-05-05T08:30:38Z</time>
      </trkpt>
      <trkpt lat="45.9603" lon="4.71547">
        <ele>185</ele>
        <time>2017-05-05T08:30:39Z</time>
      </trkpt>
      <trkpt lat="45.96035" lon="4.71547">
        <ele>185</ele>
        <time>2017-05-05T08:30:40Z</time>
      </trkpt>
      <trkpt lat="45.9604" lon="4.71548">
        <ele>185</ele>
        <time>2017-05-05T08:30:41Z</time>
      </trkpt>
      <trkpt lat="45.96045" lon="4.71548">
        <ele>185</ele>
        <time>2017-05-05T08:30:42Z</time>
      </trkpt>
      <trkpt lat="45.9605" lon="4.71548">
        <ele>185</ele>
        <time>2017-05-05T08:30:43Z</time>
      </trkpt>
      <trkpt lat="45.96055" lon="4.71549">
        <ele>185</ele>
        <time>2017-05-05T08:30:44Z</time>
      </trkpt>
      <trkpt lat="45.9606" lon="4.7155">
        <ele>185</ele>
        <time>2017-05-05T08:30:45Z</time>
      </trkpt>
      <trkpt lat="45.96066" lon="4.71551">
        <ele>185</ele>
        <time>2017-05-05T08:30:46Z</time>
      </trkpt>
      <trkpt lat="45.96072" lon="4.71553">
        <ele>185</ele>
        <time>2017-05-05T08:30:47Z</time>
      </trkpt>
      <trkpt lat="45.96077" lon="4.71554">
        <ele>185</ele>
        <time>2017-05-05T08:30:48Z</time>
      </trkpt>
      <trkpt lat="45.96083" lon="4.71556">
        <ele>185</ele>
        <time>2017-05-05T08:30:49Z</time>
      </trkpt>
      <trkpt lat="45.96088" lon="4.71557">
        <ele>184</ele>
        <time>2017-05-05T08:30:50Z</time>
      </trkpt>
      <trkpt lat="45.96094" lon="4.71557">
        <ele>184</ele>
        <time>2017-05-05T08:30:51Z</time>
      </trkpt>
      <trkpt lat="45.96099" lon="4.71558">
        <ele>184</ele>
        <time>2017-05-05T08:30:52Z</time>
      </trkpt>
      <trkpt lat="45.96104" lon="4.71559">
        <ele>184</ele>
        <time>2017-05-05T08:30:53Z</time>
      </trkpt>
      <trkpt lat="45.9611" lon="4.7156">
        <ele>184</ele>
        <time>2017-05-05T08:30:54Z</time>
      </trkpt>
      <trkpt lat="45.96115" lon="4.71561">
        <ele>184</ele>
        <time>2017-05-05T08:30:55Z</time>
      </trkpt>
      <trkpt lat="45.9612" lon="4.71562">
        <ele>184</ele>
        <time>2017-05-05T08:30:56Z</time>
      </trkpt>
      <trkpt lat="45.96126" lon="4.71563">
        <ele>184</ele>
        <time>2017-05-05T08:30:57Z</time>
      </trkpt>
      <trkpt lat="45.96131" lon="4.71564">
        <ele>184</ele>
        <time>2017-05-05T08:30:58Z</time>
      </trkpt>
      <trkpt lat="45.96137" lon="4.71564">
        <ele>184</ele>
        <time>2017-05-05T08:30:59Z</time>
      </trkpt>
      <trkpt lat="45.96143" lon="4.71565">
        <ele>183</ele>
        <time>2017-05-05T08:31:00Z</time>
      </trkpt>
      <trkpt lat="45.96149" lon="4.71565">
        <ele>183</ele>
        <time>2017-05-05T08:31:01Z</time>
      </trkpt>
      <trkpt lat="45.96155" lon="4.71566">
        <ele>183</ele>
        <time>2017-05-05T08:31:02Z</time>
      </trkpt>
      <trkpt lat="45.96161" lon="4.71567">
        <ele>182</ele>
        <time>2017-05-05T08:31:03Z</time>
      </trkpt>
      <trkpt lat="45.96167" lon="4.71569">
        <ele>182</ele>
        <time>2017-05-05T08:31:04Z</time>
      </trkpt>
      <trkpt lat="45.96173" lon="4.7157">
        <ele>182</ele>
        <time>2017-05-05T08:31:05Z</time>
      </trkpt>
      <trkpt lat="45.9618" lon="4.71571">
        <ele>182</ele>
        <time>2017-05-05T08:31:06Z</time>
      </trkpt>
      <trkpt lat="45.96186" lon="4.71571">
        <ele>183</ele>
        <time>2017-05-05T08:31:07Z</time>
      </trkpt>
      <trkpt lat="45.96193" lon="4.71572">
        <ele>183</ele>
        <time>2017-05-05T08:31:08Z</time>
      </trkpt>
      <trkpt lat="45.962" lon="4.71573">
        <ele>183</ele>
        <time>2017-05-05T08:31:09Z</time>
      </trkpt>
      <trkpt lat="45.96206" lon="4.71574">
        <ele>183</ele>
        <time>2017-05-05T08:31:10Z</time>
      </trkpt>
      <trkpt lat="45.96212" lon="4.71575">
        <ele>183</ele>
        <time>2017-05-05T08:31:11Z</time>
      </trkpt>
      <trkpt lat="45.96218" lon="4.71576">
        <ele>183</ele>
        <time>2017-05-05T08:31:12Z</time>
      </trkpt>
      <trkpt lat="45.96225" lon="4.71577">
        <ele>183</ele>
        <time>2017-05-05T08:31:13Z</time>
      </trkpt>
      <trkpt lat="45.96231" lon="4.71577">
        <ele>183</ele>
        <time>2017-05-05T08:31:14Z</time>
      </trkpt>
      <trkpt lat="45.96237" lon="4.71578">
        <ele>182</ele>
        <time>2017-05-05T08:31:15Z</time>
      </trkpt>
      <trkpt lat="45.96243" lon="4.71578">
        <ele>182</ele>
        <time>2017-05-05T08:31:16Z</time>
      </trkpt>
      <trkpt lat="45.96249" lon="4.71579">
        <ele>182</ele>
        <time>2017-05-05T08:31:17Z</time>
      </trkpt>
      <trkpt lat="45.96255" lon="4.7158">
        <ele>182</ele>
        <time>2017-05-05T08:31:18Z</time>
      </trkpt>
      <trkpt lat="45.96261" lon="4.71581">
        <ele>182</ele>
        <time>2017-05-05T08:31:19Z</time>
      </trkpt>
      <trkpt lat="45.96266" lon="4.71582">
        <ele>183</ele>
        <time>2017-05-05T08:31:20Z</time>
      </trkpt>
      <trkpt lat="45.96272" lon="4.71582">
        <ele>183</ele>
        <time>2017-05-05T08:31:21Z</time>
      </trkpt>
      <trkpt lat="45.96278" lon="4.71583">
        <ele>184</ele>
        <time>2017-05-05T08:31:22Z</time>
      </trkpt>
      <trkpt lat="45.96283" lon="4.71584">
        <ele>180</ele>
        <time>2017-05-05T08:31:23Z</time>
      </trkpt>
      <trkpt lat="45.96288" lon="4.71585">
        <ele>181</ele>
        <time>2017-05-05T08:31:24Z</time>
      </trkpt>
      <trkpt lat="45.96294" lon="4.71586">
        <ele>181</ele>
        <time>2017-05-05T08:31:25Z</time>
      </trkpt>
      <trkpt lat="45.96299" lon="4.71586">
        <ele>181</ele>
        <time>2017-05-05T08:31:26Z</time>
      </trkpt>
      <trkpt lat="45.96304" lon="4.71587">
        <ele>181</ele>
        <time>2017-05-05T08:31:27Z</time>
      </trkpt>
      <trkpt lat="45.96309" lon="4.71589">
        <ele>181</ele>
        <time>2017-05-05T08:31:28Z</time>
      </trkpt>
      <trkpt lat="45.96315" lon="4.7159">
        <ele>181</ele>
        <time>2017-05-05T08:31:29Z</time>
      </trkpt>
      <trkpt lat="45.9632" lon="4.71591">
        <ele>181</ele>
        <time>2017-05-05T08:31:30Z</time>
      </trkpt>
      <trkpt lat="45.96325" lon="4.71592">
        <ele>182</ele>
        <time>2017-05-05T08:31:31Z</time>
      </trkpt>
      <trkpt lat="45.96331" lon="4.71593">
        <ele>182</ele>
        <time>2017-05-05T08:31:32Z</time>
      </trkpt>
      <trkpt lat="45.96336" lon="4.71593">
        <ele>182</ele>
        <time>2017-05-05T08:31:33Z</time>
      </trkpt>
      <trkpt lat="45.96342" lon="4.71594">
        <ele>182</ele>
        <time>2017-05-05T08:31:34Z</time>
      </trkpt>
      <trkpt lat="45.96348" lon="4.71595">
        <ele>182</ele>
        <time>2017-05-05T08:31:35Z</time>
      </trkpt>
      <trkpt lat="45.96354" lon="4.71596">
        <ele>182</ele>
        <time>2017-05-05T08:31:36Z</time>
      </trkpt>
      <trkpt lat="45.96359" lon="4.71598">
        <ele>182</ele>
        <time>2017-05-05T08:31:37Z</time>
      </trkpt>
      <trkpt lat="45.96365" lon="4.71599">
        <ele>182</ele>
        <time>2017-05-05T08:31:38Z</time>
      </trkpt>
      <trkpt lat="45.96371" lon="4.716">
        <ele>182</ele>
        <time>2017-05-05T08:31:39Z</time>
      </trkpt>
      <trkpt lat="45.96376" lon="4.71601">
        <ele>182</ele>
        <time>2017-05-05T08:31:40Z</time>
      </trkpt>
      <trkpt lat="45.96383" lon="4.71601">
        <ele>182</ele>
        <time>2017-05-05T08:31:41Z</time>
      </trkpt>
      <trkpt lat="45.96389" lon="4.71602">
        <ele>182</ele>
        <time>2017-05-05T08:31:42Z</time>
      </trkpt>
      <trkpt lat="45.96395" lon="4.71603">
        <ele>183</ele>
        <time>2017-05-05T08:31:43Z</time>
      </trkpt>
      <trkpt lat="45.964" lon="4.71604">
        <ele>183</ele>
        <time>2017-05-05T08:31:44Z</time>
      </trkpt>
      <trkpt lat="45.96406" lon="4.71605">
        <ele>183</ele>
        <time>2017-05-05T08:31:45Z</time>
      </trkpt>
      <trkpt lat="45.96411" lon="4.71606">
        <ele>183</ele>
        <time>2017-05-05T08:31:46Z</time>
      </trkpt>
      <trkpt lat="45.96416" lon="4.71607">
        <ele>183</ele>
        <time>2017-05-05T08:31:47Z</time>
      </trkpt>
      <trkpt lat="45.96421" lon="4.71608">
        <ele>183</ele>
        <time>2017-05-05T08:31:48Z</time>
      </trkpt>
      <trkpt lat="45.96426" lon="4.71609">
        <ele>183</ele>
        <time>2017-05-05T08:31:49Z</time>
      </trkpt>
      <trkpt lat="45.96431" lon="4.71609">
        <ele>183</ele>
        <time>2017-05-05T08:31:50Z</time>
      </trkpt>
      <trkpt lat="45.96437" lon="4.7161">
        <ele>183</ele>
        <time>2017-05-05T08:31:51Z</time>
      </trkpt>
      <trkpt lat="45.96442" lon="4.71611">
        <ele>183</ele>
        <time>2017-05-05T08:31:52Z</time>
      </trkpt>
      <trkpt lat="45.96447" lon="4.71612">
        <ele>183</ele>
        <time>2017-05-05T08:31:53Z</time>
      </trkpt>
      <trkpt lat="45.96453" lon="4.71612">
        <ele>183</ele>
        <time>2017-05-05T08:31:54Z</time>
      </trkpt>
      <trkpt lat="45.96458" lon="4.71613">
        <ele>183</ele>
        <time>2017-05-05T08:31:55Z</time>
      </trkpt>
      <trkpt lat="45.96463" lon="4.71614">
        <ele>183</ele>
        <time>2017-05-05T08:31:56Z</time>
      </trkpt>
      <trkpt lat="45.96468" lon="4.71614">
        <ele>183</ele>
        <time>2017-05-05T08:31:57Z</time>
      </trkpt>
      <trkpt lat="45.96473" lon="4.71615">
        <ele>183</ele>
        <time>2017-05-05T08:31:58Z</time>
      </trkpt>
      <trkpt lat="45.96478" lon="4.71616">
        <ele>183</ele>
        <time>2017-05-05T08:31:59Z</time>
      </trkpt>
      <trkpt lat="45.96483" lon="4.71617">
        <ele>183</ele>
        <time>2017-05-05T08:32:00Z</time>
      </trkpt>
      <trkpt lat="45.96489" lon="4.71618">
        <ele>183</ele>
        <time>2017-05-05T08:32:01Z</time>
      </trkpt>
      <trkpt lat="45.96494" lon="4.71619">
        <ele>183</ele>
        <time>2017-05-05T08:32:02Z</time>
      </trkpt>
      <trkpt lat="45.96499" lon="4.7162">
        <ele>183</ele>
        <time>2017-05-05T08:32:03Z</time>
      </trkpt>
      <trkpt lat="45.96505" lon="4.71621">
        <ele>184</ele>
        <time>2017-05-05T08:32:04Z</time>
      </trkpt>
      <trkpt lat="45.96509" lon="4.71624">
        <ele>184</ele>
        <time>2017-05-05T08:32:05Z</time>
      </trkpt>
      <trkpt lat="45.96513" lon="4.71628">
        <ele>184</ele>
        <time>2017-05-05T08:32:06Z</time>
      </trkpt>
      <trkpt lat="45.96516" lon="4.71632">
        <ele>183</ele>
        <time>2017-05-05T08:32:07Z</time>
      </trkpt>
      <trkpt lat="45.9652" lon="4.71638">
        <ele>183</ele>
        <time>2017-05-05T08:32:08Z</time>
      </trkpt>
      <trkpt lat="45.96524" lon="4.71642">
        <ele>183</ele>
        <time>2017-05-05T08:32:09Z</time>
      </trkpt>
      <trkpt lat="45.9653" lon="4.71643">
        <ele>183</ele>
        <time>2017-05-05T08:32:10Z</time>
      </trkpt>
      <trkpt lat="45.96535" lon="4.71642">
        <ele>184</ele>
        <time>2017-05-05T08:32:11Z</time>
      </trkpt>
      <trkpt lat="45.9654" lon="4.71639">
        <ele>184</ele>
        <time>2017-05-05T08:32:12Z</time>
      </trkpt>
      <trkpt lat="45.96544" lon="4.71635">
        <ele>184</ele>
        <time>2017-05-05T08:32:13Z</time>
      </trkpt>
      <trkpt lat="45.96549" lon="4.71631">
        <ele>184</ele>
        <time>2017-05-05T08:32:14Z</time>
      </trkpt>
      <trkpt lat="45.96554" lon="4.71628">
        <ele>184</ele>
        <time>2017-05-05T08:32:15Z</time>
      </trkpt>
      <trkpt lat="45.96559" lon="4.71627">
        <ele>185</ele>
        <time>2017-05-05T08:32:16Z</time>
      </trkpt>
      <trkpt lat="45.96564" lon="4.71628">
        <ele>185</ele>
        <time>2017-05-05T08:32:17Z</time>
      </trkpt>
      <trkpt lat="45.96569" lon="4.71629">
        <ele>185</ele>
        <time>2017-05-05T08:32:18Z</time>
      </trkpt>
      <trkpt lat="45.96574" lon="4.7163">
        <ele>185</ele>
        <time>2017-05-05T08:32:19Z</time>
      </trkpt>
      <trkpt lat="45.96579" lon="4.7163">
        <ele>185</ele>
        <time>2017-05-05T08:32:20Z</time>
      </trkpt>
      <trkpt lat="45.96584" lon="4.71631">
        <ele>187</ele>
        <time>2017-05-05T08:32:21Z</time>
      </trkpt>
      <trkpt lat="45.96589" lon="4.71632">
        <ele>187</ele>
        <time>2017-05-05T08:32:22Z</time>
      </trkpt>
      <trkpt lat="45.96594" lon="4.71633">
        <ele>187</ele>
        <time>2017-05-05T08:32:23Z</time>
      </trkpt>
      <trkpt lat="45.96599" lon="4.71634">
        <ele>187</ele>
        <time>2017-05-05T08:32:24Z</time>
      </trkpt>
      <trkpt lat="45.96604" lon="4.71634">
        <ele>187</ele>
        <time>2017-05-05T08:32:25Z</time>
      </trkpt>
      <trkpt lat="45.96608" lon="4.71635">
        <ele>187</ele>
        <time>2017-05-05T08:32:26Z</time>
      </trkpt>
      <trkpt lat="45.96613" lon="4.71636">
        <ele>187</ele>
        <time>2017-05-05T08:32:27Z</time>
      </trkpt>
      <trkpt lat="45.96618" lon="4.71637">
        <ele>187</ele>
        <time>2017-05-05T08:32:28Z</time>
      </trkpt>
      <trkpt lat="45.96623" lon="4.71638">
        <ele>187</ele>
        <time>2017-05-05T08:32:29Z</time>
      </trkpt>
      <trkpt lat="45.96628" lon="4.71639">
        <ele>187</ele>
        <time>2017-05-05T08:32:30Z</time>
      </trkpt>
      <trkpt lat="45.96633" lon="4.7164">
        <ele>187</ele>
        <time>2017-05-05T08:32:31Z</time>
      </trkpt>
      <trkpt lat="45.96638" lon="4.71641">
        <ele>188</ele>
        <time>2017-05-05T08:32:32Z</time>
      </trkpt>
      <trkpt lat="45.96642" lon="4.71642">
        <ele>188</ele>
        <time>2017-05-05T08:32:33Z</time>
      </trkpt>
      <trkpt lat="45.96651" lon="4.71643">
        <ele>188</ele>
        <time>2017-05-05T08:32:35Z</time>
      </trkpt>
      <trkpt lat="45.96655" lon="4.71644">
        <ele>188</ele>
        <time>2017-05-05T08:32:36Z</time>
      </trkpt>
      <trkpt lat="45.9666" lon="4.71645">
        <ele>188</ele>
        <time>2017-05-05T08:32:37Z</time>
      </trkpt>
      <trkpt lat="45.96666" lon="4.71645">
        <ele>188</ele>
        <time>2017-05-05T08:32:38Z</time>
      </trkpt>
      <trkpt lat="45.96671" lon="4.71646">
        <ele>189</ele>
        <time>2017-05-05T08:32:39Z</time>
      </trkpt>
      <trkpt lat="45.96676" lon="4.71648">
        <ele>189</ele>
        <time>2017-05-05T08:32:40Z</time>
      </trkpt>
      <trkpt lat="45.96681" lon="4.71649">
        <ele>189</ele>
        <time>2017-05-05T08:32:41Z</time>
      </trkpt>
      <trkpt lat="45.96686" lon="4.7165">
        <ele>189</ele>
        <time>2017-05-05T08:32:42Z</time>
      </trkpt>
      <trkpt lat="45.96691" lon="4.71651">
        <ele>189</ele>
        <time>2017-05-05T08:32:43Z</time>
      </trkpt>
      <trkpt lat="45.96696" lon="4.71653">
        <ele>189</ele>
        <time>2017-05-05T08:32:44Z</time>
      </trkpt>
      <trkpt lat="45.967" lon="4.71653">
        <ele>190</ele>
        <time>2017-05-05T08:32:45Z</time>
      </trkpt>
      <trkpt lat="45.96705" lon="4.71654">
        <ele>190</ele>
        <time>2017-05-05T08:32:46Z</time>
      </trkpt>
      <trkpt lat="45.9671" lon="4.71654">
        <ele>190</ele>
        <time>2017-05-05T08:32:47Z</time>
      </trkpt>
      <trkpt lat="45.96714" lon="4.71655">
        <ele>190</ele>
        <time>2017-05-05T08:32:48Z</time>
      </trkpt>
      <trkpt lat="45.96719" lon="4.71655">
        <ele>190</ele>
        <time>2017-05-05T08:32:49Z</time>
      </trkpt>
      <trkpt lat="45.96724" lon="4.71656">
        <ele>190</ele>
        <time>2017-05-05T08:32:50Z</time>
      </trkpt>
      <trkpt lat="45.96729" lon="4.71657">
        <ele>190</ele>
        <time>2017-05-05T08:32:51Z</time>
      </trkpt>
      <trkpt lat="45.96734" lon="4.71657">
        <ele>190</ele>
        <time>2017-05-05T08:32:52Z</time>
      </trkpt>
      <trkpt lat="45.96739" lon="4.71658">
        <ele>190</ele>
        <time>2017-05-05T08:32:53Z</time>
      </trkpt>
      <trkpt lat="45.96744" lon="4.71659">
        <ele>190</ele>
        <time>2017-05-05T08:32:54Z</time>
      </trkpt>
      <trkpt lat="45.96749" lon="4.71659">
        <ele>189</ele>
        <time>2017-05-05T08:32:55Z</time>
      </trkpt>
      <trkpt lat="45.96754" lon="4.7166">
        <ele>190</ele>
        <time>2017-05-05T08:32:56Z</time>
      </trkpt>
      <trkpt lat="45.96759" lon="4.71661">
        <ele>190</ele>
        <time>2017-05-05T08:32:57Z</time>
      </trkpt>
      <trkpt lat="45.96764" lon="4.71662">
        <ele>191</ele>
        <time>2017-05-05T08:32:58Z</time>
      </trkpt>
      <trkpt lat="45.96769" lon="4.71663">
        <ele>191</ele>
        <time>2017-05-05T08:32:59Z</time>
      </trkpt>
      <trkpt lat="45.96774" lon="4.71663">
        <ele>192</ele>
        <time>2017-05-05T08:33:00Z</time>
      </trkpt>
      <trkpt lat="45.9678" lon="4.71664">
        <ele>192</ele>
        <time>2017-05-05T08:33:01Z</time>
      </trkpt>
      <trkpt lat="45.96785" lon="4.71666">
        <ele>192</ele>
        <time>2017-05-05T08:33:02Z</time>
      </trkpt>
      <trkpt lat="45.96791" lon="4.71667">
        <ele>188</ele>
        <time>2017-05-05T08:33:03Z</time>
      </trkpt>
      <trkpt lat="45.96797" lon="4.71668">
        <ele>188</ele>
        <time>2017-05-05T08:33:04Z</time>
      </trkpt>
      <trkpt lat="45.96802" lon="4.71669">
        <ele>189</ele>
        <time>2017-05-05T08:33:05Z</time>
      </trkpt>
      <trkpt lat="45.96807" lon="4.7167">
        <ele>189</ele>
        <time>2017-05-05T08:33:06Z</time>
      </trkpt>
      <trkpt lat="45.96813" lon="4.71671">
        <ele>189</ele>
        <time>2017-05-05T08:33:07Z</time>
      </trkpt>
      <trkpt lat="45.96818" lon="4.71671">
        <ele>190</ele>
        <time>2017-05-05T08:33:08Z</time>
      </trkpt>
      <trkpt lat="45.96823" lon="4.71672">
        <ele>190</ele>
        <time>2017-05-05T08:33:09Z</time>
      </trkpt>
      <trkpt lat="45.96828" lon="4.71673">
        <ele>191</ele>
        <time>2017-05-05T08:33:10Z</time>
      </trkpt>
      <trkpt lat="45.96832" lon="4.71674">
        <ele>191</ele>
        <time>2017-05-05T08:33:11Z</time>
      </trkpt>
      <trkpt lat="45.96837" lon="4.71675">
        <ele>191</ele>
        <time>2017-05-05T08:33:12Z</time>
      </trkpt>
      <trkpt lat="45.96845" lon="4.71677">
        <ele>191</ele>
        <time>2017-05-05T08:33:14Z</time>
      </trkpt>
      <trkpt lat="45.9685" lon="4.71678">
        <ele>190</ele>
        <time>2017-05-05T08:33:15Z</time>
      </trkpt>
      <trkpt lat="45.96855" lon="4.71678">
        <ele>190</ele>
        <time>2017-05-05T08:33:16Z</time>
      </trkpt>
      <trkpt lat="45.96861" lon="4.71678">
        <ele>190</ele>
        <time>2017-05-05T08:33:17Z</time>
      </trkpt>
      <trkpt lat="45.96866" lon="4.71679">
        <ele>190</ele>
        <time>2017-05-05T08:33:18Z</time>
      </trkpt>
      <trkpt lat="45.96871" lon="4.7168">
        <ele>190</ele>
        <time>2017-05-05T08:33:19Z</time>
      </trkpt>
      <trkpt lat="45.96877" lon="4.71681">
        <ele>190</ele>
        <time>2017-05-05T08:33:20Z</time>
      </trkpt>
      <trkpt lat="45.96882" lon="4.71681">
        <ele>190</ele>
        <time>2017-05-05T08:33:21Z</time>
      </trkpt>
      <trkpt lat="45.96887" lon="4.71682">
        <ele>190</ele>
        <time>2017-05-05T08:33:22Z</time>
      </trkpt>
      <trkpt lat="45.96892" lon="4.71683">
        <ele>191</ele>
        <time>2017-05-05T08:33:23Z</time>
      </trkpt>
      <trkpt lat="45.96898" lon="4.71683">
        <ele>191</ele>
        <time>2017-05-05T08:33:24Z</time>
      </trkpt>
      <trkpt lat="45.96902" lon="4.71684">
        <ele>191</ele>
        <time>2017-05-05T08:33:25Z</time>
      </trkpt>
      <trkpt lat="45.96907" lon="4.71684">
        <ele>192</ele>
        <time>2017-05-05T08:33:26Z</time>
      </trkpt>
      <trkpt lat="45.96912" lon="4.71683">
        <ele>192</ele>
        <time>2017-05-05T08:33:27Z</time>
      </trkpt>
      <trkpt lat="45.96917" lon="4.71684">
        <ele>193</ele>
        <time>2017-05-05T08:33:28Z</time>
      </trkpt>
      <trkpt lat="45.96922" lon="4.71684">
        <ele>192</ele>
        <time>2017-05-05T08:33:29Z</time>
      </trkpt>
      <trkpt lat="45.96926" lon="4.71684">
        <ele>192</ele>
        <time>2017-05-05T08:33:30Z</time>
      </trkpt>
      <trkpt lat="45.96931" lon="4.71684">
        <ele>192</ele>
        <time>2017-05-05T08:33:31Z</time>
      </trkpt>
      <trkpt lat="45.96935" lon="4.71685">
        <ele>192</ele>
        <time>2017-05-05T08:33:32Z</time>
      </trkpt>
      <trkpt lat="45.9694" lon="4.71685">
        <ele>192</ele>
        <time>2017-05-05T08:33:33Z</time>
      </trkpt>
      <trkpt lat="45.96945" lon="4.71686">
        <ele>192</ele>
        <time>2017-05-05T08:33:34Z</time>
      </trkpt>
      <trkpt lat="45.9695" lon="4.71687">
        <ele>192</ele>
        <time>2017-05-05T08:33:35Z</time>
      </trkpt>
      <trkpt lat="45.96954" lon="4.71687">
        <ele>191</ele>
        <time>2017-05-05T08:33:36Z</time>
      </trkpt>
      <trkpt lat="45.96959" lon="4.71688">
        <ele>191</ele>
        <time>2017-05-05T08:33:37Z</time>
      </trkpt>
      <trkpt lat="45.96964" lon="4.71688">
        <ele>191</ele>
        <time>2017-05-05T08:33:38Z</time>
      </trkpt>
      <trkpt lat="45.96968" lon="4.71689">
        <ele>191</ele>
        <time>2017-05-05T08:33:39Z</time>
      </trkpt>
      <trkpt lat="45.96973" lon="4.71689">
        <ele>192</ele>
        <time>2017-05-05T08:33:40Z</time>
      </trkpt>
      <trkpt lat="45.96978" lon="4.71689">
        <ele>192</ele>
        <time>2017-05-05T08:33:41Z</time>
      </trkpt>
      <trkpt lat="45.96983" lon="4.71688">
        <ele>192</ele>
        <time>2017-05-05T08:33:42Z</time>
      </trkpt>
      <trkpt lat="45.96988" lon="4.71688">
        <ele>192</ele>
        <time>2017-05-05T08:33:43Z</time>
      </trkpt>
      <trkpt lat="45.96993" lon="4.71688">
        <ele>192</ele>
        <time>2017-05-05T08:33:44Z</time>
      </trkpt>
      <trkpt lat="45.96998" lon="4.71689">
        <ele>192</ele>
        <time>2017-05-05T08:33:45Z</time>
      </trkpt>
      <trkpt lat="45.97004" lon="4.71691">
        <ele>193</ele>
        <time>2017-05-05T08:33:46Z</time>
      </trkpt>
      <trkpt lat="45.97008" lon="4.71691">
        <ele>193</ele>
        <time>2017-05-05T08:33:47Z</time>
      </trkpt>
      <trkpt lat="45.97017" lon="4.71692">
        <ele>192</ele>
        <time>2017-05-05T08:33:49Z</time>
      </trkpt>
      <trkpt lat="45.97021" lon="4.71693">
        <ele>192</ele>
        <time>2017-05-05T08:33:50Z</time>
      </trkpt>
      <trkpt lat="45.9703" lon="4.71694">
        <ele>192</ele>
        <time>2017-05-05T08:33:52Z</time>
      </trkpt>
      <trkpt lat="45.97034" lon="4.71695">
        <ele>192</ele>
        <time>2017-05-05T08:33:53Z</time>
      </trkpt>
      <trkpt lat="45.97039" lon="4.71695">
        <ele>192</ele>
        <time>2017-05-05T08:33:54Z</time>
      </trkpt>
      <trkpt lat="45.97044" lon="4.71695">
        <ele>192</ele>
        <time>2017-05-05T08:33:55Z</time>
      </trkpt>
      <trkpt lat="45.9705" lon="4.71696">
        <ele>192</ele>
        <time>2017-05-05T08:33:56Z</time>
      </trkpt>
      <trkpt lat="45.97055" lon="4.71696">
        <ele>192</ele>
        <time>2017-05-05T08:33:57Z</time>
      </trkpt>
      <trkpt lat="45.97061" lon="4.71697">
        <ele>193</ele>
        <time>2017-05-05T08:33:58Z</time>
      </trkpt>
      <trkpt lat="45.97067" lon="4.71697">
        <ele>193</ele>
        <time>2017-05-05T08:33:59Z</time>
      </trkpt>
      <trkpt lat="45.97072" lon="4.71698">
        <ele>193</ele>
        <time>2017-05-05T08:34:00Z</time>
      </trkpt>
      <trkpt lat="45.97078" lon="4.71698">
        <ele>193</ele>
        <time>2017-05-05T08:34:01Z</time>
      </trkpt>
      <trkpt lat="45.97084" lon="4.71698">
        <ele>194</ele>
        <time>2017-05-05T08:34:02Z</time>
      </trkpt>
      <trkpt lat="45.97089" lon="4.71699">
        <ele>194</ele>
        <time>2017-05-05T08:34:03Z</time>
      </trkpt>
      <trkpt lat="45.97094" lon="4.71699">
        <ele>194</ele>
        <time>2017-05-05T08:34:04Z</time>
      </trkpt>
      <trkpt lat="45.97099" lon="4.717">
        <ele>194</ele>
        <time>2017-05-05T08:34:05Z</time>
      </trkpt>
      <trkpt lat="45.97104" lon="4.717">
        <ele>194</ele>
        <time>2017-05-05T08:34:06Z</time>
      </trkpt>
      <trkpt lat="45.97109" lon="4.71701">
        <ele>194</ele>
        <time>2017-05-05T08:34:07Z</time>
      </trkpt>
      <trkpt lat="45.97113" lon="4.71701">
        <ele>194</ele>
        <time>2017-05-05T08:34:08Z</time>
      </trkpt>
      <trkpt lat="45.97118" lon="4.717">
        <ele>194</ele>
        <time>2017-05-05T08:34:09Z</time>
      </trkpt>
      <trkpt lat="45.97123" lon="4.717">
        <ele>194</ele>
        <time>2017-05-05T08:34:10Z</time>
      </trkpt>
      <trkpt lat="45.97127" lon="4.71701">
        <ele>194</ele>
        <time>2017-05-05T08:34:11Z</time>
      </trkpt>
      <trkpt lat="45.97132" lon="4.71701">
        <ele>194</ele>
        <time>2017-05-05T08:34:12Z</time>
      </trkpt>
      <trkpt lat="45.97138" lon="4.71702">
        <ele>194</ele>
        <time>2017-05-05T08:34:13Z</time>
      </trkpt>
      <trkpt lat="45.97143" lon="4.71703">
        <ele>195</ele>
        <time>2017-05-05T08:34:14Z</time>
      </trkpt>
      <trkpt lat="45.97148" lon="4.71703">
        <ele>195</ele>
        <time>2017-05-05T08:34:15Z</time>
      </trkpt>
      <trkpt lat="45.97153" lon="4.71704">
        <ele>195</ele>
        <time>2017-05-05T08:34:16Z</time>
      </trkpt>
      <trkpt lat="45.97158" lon="4.71704">
        <ele>195</ele>
        <time>2017-05-05T08:34:17Z</time>
      </trkpt>
      <trkpt lat="45.97164" lon="4.71705">
        <ele>195</ele>
        <time>2017-05-05T08:34:18Z</time>
      </trkpt>
      <trkpt lat="45.97169" lon="4.71706">
        <ele>196</ele>
        <time>2017-05-05T08:34:19Z</time>
      </trkpt>
      <trkpt lat="45.97175" lon="4.71707">
        <ele>196</ele>
        <time>2017-05-05T08:34:20Z</time>
      </trkpt>
      <trkpt lat="45.9718" lon="4.71707">
        <ele>196</ele>
        <time>2017-05-05T08:34:21Z</time>
      </trkpt>
      <trkpt lat="45.97185" lon="4.71708">
        <ele>196</ele>
        <time>2017-05-05T08:34:22Z</time>
      </trkpt>
      <trkpt lat="45.9719" lon="4.71708">
        <ele>196</ele>
        <time>2017-05-05T08:34:23Z</time>
      </trkpt>
      <trkpt lat="45.97194" lon="4.71708">
        <ele>196</ele>
        <time>2017-05-05T08:34:24Z</time>
      </trkpt>
      <trkpt lat="45.97199" lon="4.71708">
        <ele>196</ele>
        <time>2017-05-05T08:34:25Z</time>
      </trkpt>
      <trkpt lat="45.97203" lon="4.71709">
        <ele>196</ele>
        <time>2017-05-05T08:34:26Z</time>
      </trkpt>
      <trkpt lat="45.97208" lon="4.71709">
        <ele>196</ele>
        <time>2017-05-05T08:34:27Z</time>
      </trkpt>
      <trkpt lat="45.97213" lon="4.71709">
        <ele>196</ele>
        <time>2017-05-05T08:34:28Z</time>
      </trkpt>
      <trkpt lat="45.97217" lon="4.71709">
        <ele>196</ele>
        <time>2017-05-05T08:34:29Z</time>
      </trkpt>
      <trkpt lat="45.97223" lon="4.7171">
        <ele>196</ele>
        <time>2017-05-05T08:34:30Z</time>
      </trkpt>
      <trkpt lat="45.97229" lon="4.7171">
        <ele>196</ele>
        <time>2017-05-05T08:34:31Z</time>
      </trkpt>
      <trkpt lat="45.97235" lon="4.71711">
        <ele>196</ele>
        <time>2017-05-05T08:34:32Z</time>
      </trkpt>
      <trkpt lat="45.97241" lon="4.71712">
        <ele>196</ele>
        <time>2017-05-05T08:34:33Z</time>
      </trkpt>
      <trkpt lat="45.97246" lon="4.71713">
        <ele>196</ele>
        <time>2017-05-05T08:34:34Z</time>
      </trkpt>
      <trkpt lat="45.97252" lon="4.71714">
        <ele>196</ele>
        <time>2017-05-05T08:34:35Z</time>
      </trkpt>
      <trkpt lat="45.97257" lon="4.71715">
        <ele>196</ele>
        <time>2017-05-05T08:34:36Z</time>
      </trkpt>
      <trkpt lat="45.97262" lon="4.71716">
        <ele>196</ele>
        <time>2017-05-05T08:34:37Z</time>
      </trkpt>
      <trkpt lat="45.97267" lon="4.71717">
        <ele>196</ele>
        <time>2017-05-05T08:34:38Z</time>
      </trkpt>
      <trkpt lat="45.97272" lon="4.71718">
        <ele>196</ele>
        <time>2017-05-05T08:34:39Z</time>
      </trkpt>
      <trkpt lat="45.97279" lon="4.7172">
        <ele>196</ele>
        <time>2017-05-05T08:34:41Z</time>
      </trkpt>
      <trkpt lat="45.97282" lon="4.71723">
        <ele>196</ele>
        <time>2017-05-05T08:34:42Z</time>
      </trkpt>
      <trkpt lat="45.97288" lon="4.71732">
        <ele>196</ele>
        <time>2017-05-05T08:34:44Z</time>
      </trkpt>
      <trkpt lat="45.97291" lon="4.71736">
        <ele>196</ele>
        <time>2017-05-05T08:34:45Z</time>
      </trkpt>
      <trkpt lat="45.97296" lon="4.71739">
        <ele>196</ele>
        <time>2017-05-05T08:34:46Z</time>
      </trkpt>
      <trkpt lat="45.97301" lon="4.7174">
        <ele>196</ele>
        <time>2017-05-05T08:34:47Z</time>
      </trkpt>
      <trkpt lat="45.97306" lon="4.71739">
        <ele>195</ele>
        <time>2017-05-05T08:34:48Z</time>
      </trkpt>
      <trkpt lat="45.97312" lon="4.71736">
        <ele>195</ele>
        <time>2017-05-05T08:34:49Z</time>
      </trkpt>
      <trkpt lat="45.97316" lon="4.71732">
        <ele>195</ele>
        <time>2017-05-05T08:34:50Z</time>
      </trkpt>
      <trkpt lat="45.9732" lon="4.71727">
        <ele>195</ele>
        <time>2017-05-05T08:34:51Z</time>
      </trkpt>
      <trkpt lat="45.97324" lon="4.71724">
        <ele>196</ele>
        <time>2017-05-05T08:34:52Z</time>
      </trkpt>
      <trkpt lat="45.97328" lon="4.71722">
        <ele>196</ele>
        <time>2017-05-05T08:34:53Z</time>
      </trkpt>
      <trkpt lat="45.97333" lon="4.71721">
        <ele>196</ele>
        <time>2017-05-05T08:34:54Z</time>
      </trkpt>
      <trkpt lat="45.97338" lon="4.71722">
        <ele>195</ele>
        <time>2017-05-05T08:34:55Z</time>
      </trkpt>
      <trkpt lat="45.97343" lon="4.71722">
        <ele>195</ele>
        <time>2017-05-05T08:34:56Z</time>
      </trkpt>
      <trkpt lat="45.97348" lon="4.71723">
        <ele>195</ele>
        <time>2017-05-05T08:34:57Z</time>
      </trkpt>
      <trkpt lat="45.97353" lon="4.71723">
        <ele>195</ele>
        <time>2017-05-05T08:34:58Z</time>
      </trkpt>
      <trkpt lat="45.97358" lon="4.71724">
        <ele>195</ele>
        <time>2017-05-05T08:34:59Z</time>
      </trkpt>
      <trkpt lat="45.97363" lon="4.71724">
        <ele>195</ele>
        <time>2017-05-05T08:35:00Z</time>
      </trkpt>
      <trkpt lat="45.97368" lon="4.71724">
        <ele>195</ele>
        <time>2017-05-05T08:35:01Z</time>
      </trkpt>
      <trkpt lat="45.97373" lon="4.71724">
        <ele>195</ele>
        <time>2017-05-05T08:35:02Z</time>
      </trkpt>
      <trkpt lat="45.97378" lon="4.71724">
        <ele>195</ele>
        <time>2017-05-05T08:35:03Z</time>
      </trkpt>
      <trkpt lat="45.97383" lon="4.71725">
        <ele>195</ele>
        <time>2017-05-05T08:35:04Z</time>
      </trkpt>
      <trkpt lat="45.97388" lon="4.71725">
        <ele>195</ele>
        <time>2017-05-05T08:35:05Z</time>
      </trkpt>
      <trkpt lat="45.97393" lon="4.71726">
        <ele>195</ele>
        <time>2017-05-05T08:35:06Z</time>
      </trkpt>
      <trkpt lat="45.97398" lon="4.71726">
        <ele>195</ele>
        <time>2017-05-05T08:35:07Z</time>
      </trkpt>
      <trkpt lat="45.97403" lon="4.71726">
        <ele>195</ele>
        <time>2017-05-05T08:35:08Z</time>
      </trkpt>
      <trkpt lat="45.97408" lon="4.71727">
        <ele>195</ele>
        <time>2017-05-05T08:35:09Z</time>
      </trkpt>
      <trkpt lat="45.97413" lon="4.71727">
        <ele>194</ele>
        <time>2017-05-05T08:35:10Z</time>
      </trkpt>
      <trkpt lat="45.97419" lon="4.71727">
        <ele>195</ele>
        <time>2017-05-05T08:35:11Z</time>
      </trkpt>
      <trkpt lat="45.97424" lon="4.71728">
        <ele>196</ele>
        <time>2017-05-05T08:35:12Z</time>
      </trkpt>
      <trkpt lat="45.97429" lon="4.71728">
        <ele>196</ele>
        <time>2017-05-05T08:35:13Z</time>
      </trkpt>
      <trkpt lat="45.97434" lon="4.71728">
        <ele>196</ele>
        <time>2017-05-05T08:35:14Z</time>
      </trkpt>
      <trkpt lat="45.97439" lon="4.71729">
        <ele>196</ele>
        <time>2017-05-05T08:35:15Z</time>
      </trkpt>
      <trkpt lat="45.97443" lon="4.71729">
        <ele>196</ele>
        <time>2017-05-05T08:35:16Z</time>
      </trkpt>
      <trkpt lat="45.97448" lon="4.7173">
        <ele>196</ele>
        <time>2017-05-05T08:35:17Z</time>
      </trkpt>
      <trkpt lat="45.97453" lon="4.7173">
        <ele>196</ele>
        <time>2017-05-05T08:35:18Z</time>
      </trkpt>
      <trkpt lat="45.97458" lon="4.7173">
        <ele>197</ele>
        <time>2017-05-05T08:35:19Z</time>
      </trkpt>
      <trkpt lat="45.97463" lon="4.7173">
        <ele>197</ele>
        <time>2017-05-05T08:35:20Z</time>
      </trkpt>
      <trkpt lat="45.97469" lon="4.71731">
        <ele>197</ele>
        <time>2017-05-05T08:35:21Z</time>
      </trkpt>
      <trkpt lat="45.97475" lon="4.71732">
        <ele>197</ele>
        <time>2017-05-05T08:35:22Z</time>
      </trkpt>
      <trkpt lat="45.97481" lon="4.71733">
        <ele>197</ele>
        <time>2017-05-05T08:35:23Z</time>
      </trkpt>
      <trkpt lat="45.97487" lon="4.71733">
        <ele>197</ele>
        <time>2017-05-05T08:35:24Z</time>
      </trkpt>
      <trkpt lat="45.97493" lon="4.71733">
        <ele>197</ele>
        <time>2017-05-05T08:35:25Z</time>
      </trkpt>
      <trkpt lat="45.97498" lon="4.71733">
        <ele>197</ele>
        <time>2017-05-05T08:35:26Z</time>
      </trkpt>
      <trkpt lat="45.97504" lon="4.71734">
        <ele>197</ele>
        <time>2017-05-05T08:35:27Z</time>
      </trkpt>
      <trkpt lat="45.9751" lon="4.71734">
        <ele>197</ele>
        <time>2017-05-05T08:35:28Z</time>
      </trkpt>
      <trkpt lat="45.97515" lon="4.71735">
        <ele>197</ele>
        <time>2017-05-05T08:35:29Z</time>
      </trkpt>
      <trkpt lat="45.97521" lon="4.71735">
        <ele>198</ele>
        <time>2017-05-05T08:35:30Z</time>
      </trkpt>
      <trkpt lat="45.97526" lon="4.71735">
        <ele>198</ele>
        <time>2017-05-05T08:35:31Z</time>
      </trkpt>
      <trkpt lat="45.97532" lon="4.71735">
        <ele>198</ele>
        <time>2017-05-05T08:35:32Z</time>
      </trkpt>
      <trkpt lat="45.97537" lon="4.71735">
        <ele>198</ele>
        <time>2017-05-05T08:35:33Z</time>
      </trkpt>
      <trkpt lat="45.97543" lon="4.71735">
        <ele>198</ele>
        <time>2017-05-05T08:35:34Z</time>
      </trkpt>
      <trkpt lat="45.97548" lon="4.71736">
        <ele>198</ele>
        <time>2017-05-05T08:35:35Z</time>
      </trkpt>
      <trkpt lat="45.97553" lon="4.71736">
        <ele>197</ele>
        <time>2017-05-05T08:35:36Z</time>
      </trkpt>
      <trkpt lat="45.97558" lon="4.71737">
        <ele>197</ele>
        <time>2017-05-05T08:35:37Z</time>
      </trkpt>
      <trkpt lat="45.97563" lon="4.71737">
        <ele>197</ele>
        <time>2017-05-05T08:35:38Z</time>
      </trkpt>
      <trkpt lat="45.97569" lon="4.71737">
        <ele>197</ele>
        <time>2017-05-05T08:35:39Z</time>
      </trkpt>
      <trkpt lat="45.97574" lon="4.71737">
        <ele>197</ele>
        <time>2017-05-05T08:35:40Z</time>
      </trkpt>
      <trkpt lat="45.9758" lon="4.71737">
        <ele>196</ele>
        <time>2017-05-05T08:35:41Z</time>
      </trkpt>
      <trkpt lat="45.97585" lon="4.71738">
        <ele>196</ele>
        <time>2017-05-05T08:35:42Z</time>
      </trkpt>
      <trkpt lat="45.9759" lon="4.71739">
        <ele>196</ele>
        <time>2017-05-05T08:35:43Z</time>
      </trkpt>
      <trkpt lat="45.97595" lon="4.71742">
        <ele>196</ele>
        <time>2017-05-05T08:35:44Z</time>
      </trkpt>
      <trkpt lat="45.97598" lon="4.71747">
        <ele>196</ele>
        <time>2017-05-05T08:35:45Z</time>
      </trkpt>
      <trkpt lat="45.97601" lon="4.71755">
        <ele>194</ele>
        <time>2017-05-05T08:35:46Z</time>
      </trkpt>
      <trkpt lat="45.97605" lon="4.7176">
        <ele>194</ele>
        <time>2017-05-05T08:35:47Z</time>
      </trkpt>
      <trkpt lat="45.9761" lon="4.71763">
        <ele>194</ele>
        <time>2017-05-05T08:35:48Z</time>
      </trkpt>
      <trkpt lat="45.97615" lon="4.71763">
        <ele>194</ele>
        <time>2017-05-05T08:35:49Z</time>
      </trkpt>
      <trkpt lat="45.9762" lon="4.71762">
        <ele>194</ele>
        <time>2017-05-05T08:35:50Z</time>
      </trkpt>
      <trkpt lat="45.97625" lon="4.71758">
        <ele>194</ele>
        <time>2017-05-05T08:35:51Z</time>
      </trkpt>
      <trkpt lat="45.97629" lon="4.71754">
        <ele>194</ele>
        <time>2017-05-05T08:35:52Z</time>
      </trkpt>
      <trkpt lat="45.97634" lon="4.71751">
        <ele>194</ele>
        <time>2017-05-05T08:35:53Z</time>
      </trkpt>
      <trkpt lat="45.97639" lon="4.71751">
        <ele>194</ele>
        <time>2017-05-05T08:35:54Z</time>
      </trkpt>
      <trkpt lat="45.97646" lon="4.71752">
        <ele>194</ele>
        <time>2017-05-05T08:35:55Z</time>
      </trkpt>
      <trkpt lat="45.97652" lon="4.71752">
        <ele>194</ele>
        <time>2017-05-05T08:35:56Z</time>
      </trkpt>
      <trkpt lat="45.97658" lon="4.71753">
        <ele>194</ele>
        <time>2017-05-05T08:35:57Z</time>
      </trkpt>
      <trkpt lat="45.97664" lon="4.71753">
        <ele>194</ele>
        <time>2017-05-05T08:35:58Z</time>
      </trkpt>
      <trkpt lat="45.9767" lon="4.71754">
        <ele>194</ele>
        <time>2017-05-05T08:35:59Z</time>
      </trkpt>
      <trkpt lat="45.97676" lon="4.71754">
        <ele>194</ele>
        <time>2017-05-05T08:36:00Z</time>
      </trkpt>
      <trkpt lat="45.97681" lon="4.71755">
        <ele>194</ele>
        <time>2017-05-05T08:36:01Z</time>
      </trkpt>
      <trkpt lat="45.97687" lon="4.71755">
        <ele>194</ele>
        <time>2017-05-05T08:36:02Z</time>
      </trkpt>
      <trkpt lat="45.97692" lon="4.71755">
        <ele>195</ele>
        <time>2017-05-05T08:36:03Z</time>
      </trkpt>
      <trkpt lat="45.97698" lon="4.71756">
        <ele>195</ele>
        <time>2017-05-05T08:36:04Z</time>
      </trkpt>
      <trkpt lat="45.97703" lon="4.71756">
        <ele>195</ele>
        <time>2017-05-05T08:36:05Z</time>
      </trkpt>
      <trkpt lat="45.97708" lon="4.71756">
        <ele>195</ele>
        <time>2017-05-05T08:36:06Z</time>
      </trkpt>
      <trkpt lat="45.97713" lon="4.71756">
        <ele>195</ele>
        <time>2017-05-05T08:36:07Z</time>
      </trkpt>
      <trkpt lat="45.97719" lon="4.71756">
        <ele>195</ele>
        <time>2017-05-05T08:36:08Z</time>
      </trkpt>
      <trkpt lat="45.97724" lon="4.71757">
        <ele>195</ele>
        <time>2017-05-05T08:36:09Z</time>
      </trkpt>
      <trkpt lat="45.97729" lon="4.71757">
        <ele>195</ele>
        <time>2017-05-05T08:36:10Z</time>
      </trkpt>
      <trkpt lat="45.97734" lon="4.71756">
        <ele>195</ele>
        <time>2017-05-05T08:36:11Z</time>
      </trkpt>
      <trkpt lat="45.97739" lon="4.71756">
        <ele>195</ele>
        <time>2017-05-05T08:36:12Z</time>
      </trkpt>
      <trkpt lat="45.97744" lon="4.71756">
        <ele>196</ele>
        <time>2017-05-05T08:36:13Z</time>
      </trkpt>
      <trkpt lat="45.97749" lon="4.71755">
        <ele>196</ele>
        <time>2017-05-05T08:36:14Z</time>
      </trkpt>
      <trkpt lat="45.97755" lon="4.71756">
        <ele>196</ele>
        <time>2017-05-05T08:36:15Z</time>
      </trkpt>
      <trkpt lat="45.97761" lon="4.71756">
        <ele>196</ele>
        <time>2017-05-05T08:36:16Z</time>
      </trkpt>
      <trkpt lat="45.97768" lon="4.71756">
        <ele>195</ele>
        <time>2017-05-05T08:36:17Z</time>
      </trkpt>
      <trkpt lat="45.97775" lon="4.71756">
        <ele>195</ele>
        <time>2017-05-05T08:36:18Z</time>
      </trkpt>
      <trkpt lat="45.97781" lon="4.71755">
        <ele>195</ele>
        <time>2017-05-05T08:36:19Z</time>
      </trkpt>
      <trkpt lat="45.97788" lon="4.71755">
        <ele>195</ele>
        <time>2017-05-05T08:36:20Z</time>
      </trkpt>
      <trkpt lat="45.97794" lon="4.71755">
        <ele>195</ele>
        <time>2017-05-05T08:36:21Z</time>
      </trkpt>
      <trkpt lat="45.97801" lon="4.71756">
        <ele>195</ele>
        <time>2017-05-05T08:36:22Z</time>
      </trkpt>
      <trkpt lat="45.97806" lon="4.71756">
        <ele>195</ele>
        <time>2017-05-05T08:36:23Z</time>
      </trkpt>
      <trkpt lat="45.97812" lon="4.71756">
        <ele>195</ele>
        <time>2017-05-05T08:36:24Z</time>
      </trkpt>
      <trkpt lat="45.97817" lon="4.71756">
        <ele>195</ele>
        <time>2017-05-05T08:36:25Z</time>
      </trkpt>
      <trkpt lat="45.97823" lon="4.71757">
        <ele>195</ele>
        <time>2017-05-05T08:36:26Z</time>
      </trkpt>
      <trkpt lat="45.97829" lon="4.71756">
        <ele>195</ele>
        <time>2017-05-05T08:36:27Z</time>
      </trkpt>
      <trkpt lat="45.97834" lon="4.71756">
        <ele>195</ele>
        <time>2017-05-05T08:36:28Z</time>
      </trkpt>
      <trkpt lat="45.97838" lon="4.71756">
        <ele>195</ele>
        <time>2017-05-05T08:36:29Z</time>
      </trkpt>
      <trkpt lat="45.97845" lon="4.71758">
        <ele>195</ele>
        <time>2017-05-05T08:36:31Z</time>
      </trkpt>
      <trkpt lat="45.97848" lon="4.71761">
        <ele>195</ele>
        <time>2017-05-05T08:36:32Z</time>
      </trkpt>
      <trkpt lat="45.97854" lon="4.71769">
        <ele>195</ele>
        <time>2017-05-05T08:36:34Z</time>
      </trkpt>
      <trkpt lat="45.97858" lon="4.71773">
        <ele>194</ele>
        <time>2017-05-05T08:36:35Z</time>
      </trkpt>
      <trkpt lat="45.97862" lon="4.71777">
        <ele>194</ele>
        <time>2017-05-05T08:36:36Z</time>
      </trkpt>
      <trkpt lat="45.97867" lon="4.7178">
        <ele>194</ele>
        <time>2017-05-05T08:36:37Z</time>
      </trkpt>
      <trkpt lat="45.97872" lon="4.71782">
        <ele>194</ele>
        <time>2017-05-05T08:36:38Z</time>
      </trkpt>
      <trkpt lat="45.97876" lon="4.71782">
        <ele>194</ele>
        <time>2017-05-05T08:36:39Z</time>
      </trkpt>
      <trkpt lat="45.97881" lon="4.7178">
        <ele>194</ele>
        <time>2017-05-05T08:36:40Z</time>
      </trkpt>
      <trkpt lat="45.97885" lon="4.71777">
        <ele>194</ele>
        <time>2017-05-05T08:36:41Z</time>
      </trkpt>
      <trkpt lat="45.97889" lon="4.71773">
        <ele>194</ele>
        <time>2017-05-05T08:36:42Z</time>
      </trkpt>
      <trkpt lat="45.97892" lon="4.71767">
        <ele>194</ele>
        <time>2017-05-05T08:36:43Z</time>
      </trkpt>
      <trkpt lat="45.97895" lon="4.7176">
        <ele>195</ele>
        <time>2017-05-05T08:36:44Z</time>
      </trkpt>
      <trkpt lat="45.97896" lon="4.71753">
        <ele>195</ele>
        <time>2017-05-05T08:36:45Z</time>
      </trkpt>
      <trkpt lat="45.97896" lon="4.71745">
        <ele>196</ele>
        <time>2017-05-05T08:36:46Z</time>
      </trkpt>
      <trkpt lat="45.97896" lon="4.71737">
        <ele>196</ele>
        <time>2017-05-05T08:36:47Z</time>
      </trkpt>
      <trkpt lat="45.97893" lon="4.71731">
        <ele>196</ele>
        <time>2017-05-05T08:36:48Z</time>
      </trkpt>
      <trkpt lat="45.9789" lon="4.71724">
        <ele>196</ele>
        <time>2017-05-05T08:36:49Z</time>
      </trkpt>
      <trkpt lat="45.97887" lon="4.71719">
        <ele>196</ele>
        <time>2017-05-05T08:36:50Z</time>
      </trkpt>
      <trkpt lat="45.97883" lon="4.71713">
        <ele>196</ele>
        <time>2017-05-05T08:36:51Z</time>
      </trkpt>
      <trkpt lat="45.97879" lon="4.71709">
        <ele>196</ele>
        <time>2017-05-05T08:36:52Z</time>
      </trkpt>
      <trkpt lat="45.97875" lon="4.71703">
        <ele>196</ele>
        <time>2017-05-05T08:36:53Z</time>
      </trkpt>
      <trkpt lat="45.97873" lon="4.71697">
        <ele>196</ele>
        <time>2017-05-05T08:36:54Z</time>
      </trkpt>
      <trkpt lat="45.97871" lon="4.7169">
        <ele>196</ele>
        <time>2017-05-05T08:36:55Z</time>
      </trkpt>
      <trkpt lat="45.97872" lon="4.71683">
        <ele>196</ele>
        <time>2017-05-05T08:36:56Z</time>
      </trkpt>
      <trkpt lat="45.97872" lon="4.71676">
        <ele>196</ele>
        <time>2017-05-05T08:36:57Z</time>
      </trkpt>
      <trkpt lat="45.97875" lon="4.71665">
        <ele>197</ele>
        <time>2017-05-05T08:36:59Z</time>
      </trkpt>
      <trkpt lat="45.97876" lon="4.71659">
        <ele>197</ele>
        <time>2017-05-05T08:37:00Z</time>
      </trkpt>
      <trkpt lat="45.97879" lon="4.71647">
        <ele>197</ele>
        <time>2017-05-05T08:37:02Z</time>
      </trkpt>
      <trkpt lat="45.97879" lon="4.71641">
        <ele>197</ele>
        <time>2017-05-05T08:37:03Z</time>
      </trkpt>
      <trkpt lat="45.97879" lon="4.71634">
        <ele>197</ele>
        <time>2017-05-05T08:37:04Z</time>
      </trkpt>
      <trkpt lat="45.97879" lon="4.71627">
        <ele>197</ele>
        <time>2017-05-05T08:37:05Z</time>
      </trkpt>
      <trkpt lat="45.97879" lon="4.7162">
        <ele>197</ele>
        <time>2017-05-05T08:37:06Z</time>
      </trkpt>
      <trkpt lat="45.97879" lon="4.71613">
        <ele>197</ele>
        <time>2017-05-05T08:37:07Z</time>
      </trkpt>
      <trkpt lat="45.97879" lon="4.71606">
        <ele>197</ele>
        <time>2017-05-05T08:37:08Z</time>
      </trkpt>
      <trkpt lat="45.97879" lon="4.71599">
        <ele>197</ele>
        <time>2017-05-05T08:37:09Z</time>
      </trkpt>
      <trkpt lat="45.97879" lon="4.71587">
        <ele>197</ele>
        <time>2017-05-05T08:37:11Z</time>
      </trkpt>
      <trkpt lat="45.97879" lon="4.71581">
        <ele>198</ele>
        <time>2017-05-05T08:37:12Z</time>
      </trkpt>
      <trkpt lat="45.9788" lon="4.71574">
        <ele>198</ele>
        <time>2017-05-05T08:37:13Z</time>
      </trkpt>
      <trkpt lat="45.97881" lon="4.71567">
        <ele>198</ele>
        <time>2017-05-05T08:37:14Z</time>
      </trkpt>
      <trkpt lat="45.97881" lon="4.71561">
        <ele>198</ele>
        <time>2017-05-05T08:37:15Z</time>
      </trkpt>
      <trkpt lat="45.97881" lon="4.71554">
        <ele>198</ele>
        <time>2017-05-05T08:37:16Z</time>
      </trkpt>
      <trkpt lat="45.9788" lon="4.71547">
        <ele>199</ele>
        <time>2017-05-05T08:37:17Z</time>
      </trkpt>
      <trkpt lat="45.97879" lon="4.71541">
        <ele>199</ele>
        <time>2017-05-05T08:37:18Z</time>
      </trkpt>
      <trkpt lat="45.97878" lon="4.71534">
        <ele>199</ele>
        <time>2017-05-05T08:37:19Z</time>
      </trkpt>
      <trkpt lat="45.97878" lon="4.71528">
        <ele>199</ele>
        <time>2017-05-05T08:37:20Z</time>
      </trkpt>
      <trkpt lat="45.97877" lon="4.71521">
        <ele>199</ele>
        <time>2017-05-05T08:37:21Z</time>
      </trkpt>
      <trkpt lat="45.97877" lon="4.71515">
        <ele>199</ele>
        <time>2017-05-05T08:37:22Z</time>
      </trkpt>
      <trkpt lat="45.97875" lon="4.71502">
        <ele>199</ele>
        <time>2017-05-05T08:37:24Z</time>
      </trkpt>
      <trkpt lat="45.97873" lon="4.71497">
        <ele>201</ele>
        <time>2017-05-05T08:37:25Z</time>
      </trkpt>
      <trkpt lat="45.9787" lon="4.71487">
        <ele>201</ele>
        <time>2017-05-05T08:37:27Z</time>
      </trkpt>
      <trkpt lat="45.9787" lon="4.71483">
        <ele>201</ele>
        <time>2017-05-05T08:37:28Z</time>
      </trkpt>
      <trkpt lat="45.97868" lon="4.71475">
        <ele>201</ele>
        <time>2017-05-05T08:37:30Z</time>
      </trkpt>
      <trkpt lat="45.97867" lon="4.7147">
        <ele>201</ele>
        <time>2017-05-05T08:37:31Z</time>
      </trkpt>
      <trkpt lat="45.97867" lon="4.7146">
        <ele>201</ele>
        <time>2017-05-05T08:37:33Z</time>
      </trkpt>
      <trkpt lat="45.97866" lon="4.71454">
        <ele>201</ele>
        <time>2017-05-05T08:37:34Z</time>
      </trkpt>
      <trkpt lat="45.97864" lon="4.71445">
        <ele>201</ele>
        <time>2017-05-05T08:37:36Z</time>
      </trkpt>
      <trkpt lat="45.97863" lon="4.71441">
        <ele>201</ele>
        <time>2017-05-05T08:37:37Z</time>
      </trkpt>
      <trkpt lat="45.97861" lon="4.71429">
        <ele>201</ele>
        <time>2017-05-05T08:37:40Z</time>
      </trkpt>
      <trkpt lat="45.9786" lon="4.71425">
        <ele>201</ele>
        <time>2017-05-05T08:37:41Z</time>
      </trkpt>
      <trkpt lat="45.97859" lon="4.71417">
        <ele>203</ele>
        <time>2017-05-05T08:37:43Z</time>
      </trkpt>
      <trkpt lat="45.97859" lon="4.71411">
        <ele>203</ele>
        <time>2017-05-05T08:37:44Z</time>
      </trkpt>
      <trkpt lat="45.97856" lon="4.71401">
        <ele>203</ele>
        <time>2017-05-05T08:37:46Z</time>
      </trkpt>
      <trkpt lat="45.97855" lon="4.71396">
        <ele>203</ele>
        <time>2017-05-05T08:37:47Z</time>
      </trkpt>
      <trkpt lat="45.97854" lon="4.71385">
        <ele>203</ele>
        <time>2017-05-05T08:37:49Z</time>
      </trkpt>
      <trkpt lat="45.97853" lon="4.71379">
        <ele>203</ele>
        <time>2017-05-05T08:37:50Z</time>
      </trkpt>
      <trkpt lat="45.97852" lon="4.71368">
        <ele>203</ele>
        <time>2017-05-05T08:37:52Z</time>
      </trkpt>
      <trkpt lat="45.97853" lon="4.71362">
        <ele>204</ele>
        <time>2017-05-05T08:37:53Z</time>
      </trkpt>
      <trkpt lat="45.97853" lon="4.71351">
        <ele>204</ele>
        <time>2017-05-05T08:37:55Z</time>
      </trkpt>
      <trkpt lat="45.97853" lon="4.71346">
        <ele>204</ele>
        <time>2017-05-05T08:37:56Z</time>
      </trkpt>
      <trkpt lat="45.97853" lon="4.71334">
        <ele>204</ele>
        <time>2017-05-05T08:37:58Z</time>
      </trkpt>
      <trkpt lat="45.97854" lon="4.71328">
        <ele>205</ele>
        <time>2017-05-05T08:37:59Z</time>
      </trkpt>
      <trkpt lat="45.97853" lon="4.71317">
        <ele>205</ele>
        <time>2017-05-05T08:38:01Z</time>
      </trkpt>
      <trkpt lat="45.97853" lon="4.71312">
        <ele>205</ele>
        <time>2017-05-05T08:38:02Z</time>
      </trkpt>
      <trkpt lat="45.97852" lon="4.71301">
        <ele>206</ele>
        <time>2017-05-05T08:38:04Z</time>
      </trkpt>
      <trkpt lat="45.97852" lon="4.71295">
        <ele>206</ele>
        <time>2017-05-05T08:38:05Z</time>
      </trkpt>
      <trkpt lat="45.97852" lon="4.71285">
        <ele>206</ele>
        <time>2017-05-05T08:38:07Z</time>
      </trkpt>
      <trkpt lat="45.97852" lon="4.71281">
        <ele>206</ele>
        <time>2017-05-05T08:38:08Z</time>
      </trkpt>
      <trkpt lat="45.97853" lon="4.71271">
        <ele>206</ele>
        <time>2017-05-05T08:38:10Z</time>
      </trkpt>
      <trkpt lat="45.97853" lon="4.71266">
        <ele>206</ele>
        <time>2017-05-05T08:38:11Z</time>
      </trkpt>
      <trkpt lat="45.97853" lon="4.71257">
        <ele>207</ele>
        <time>2017-05-05T08:38:13Z</time>
      </trkpt>
      <trkpt lat="45.97854" lon="4.71253">
        <ele>207</ele>
        <time>2017-05-05T08:38:14Z</time>
      </trkpt>
      <trkpt lat="45.97854" lon="4.71241">
        <ele>208</ele>
        <time>2017-05-05T08:38:17Z</time>
      </trkpt>
      <trkpt lat="45.97854" lon="4.71238">
        <ele>208</ele>
        <time>2017-05-05T08:38:18Z</time>
      </trkpt>
      <trkpt lat="45.97854" lon="4.71226">
        <ele>208</ele>
        <time>2017-05-05T08:38:42Z</time>
      </trkpt>
      <trkpt lat="45.97853" lon="4.71225">
        <ele>208</ele>
        <time>2017-05-05T08:38:43Z</time>
      </trkpt>
      <trkpt lat="45.97854" lon="4.71214">
        <ele>208</ele>
        <time>2017-05-05T08:38:47Z</time>
      </trkpt>
      <trkpt lat="45.97854" lon="4.7121">
        <ele>209</ele>
        <time>2017-05-05T08:38:48Z</time>
      </trkpt>
      <trkpt lat="45.97854" lon="4.71197">
        <ele>209</ele>
        <time>2017-05-05T08:38:51Z</time>
      </trkpt>
      <trkpt lat="45.97854" lon="4.71193">
        <ele>209</ele>
        <time>2017-05-05T08:38:52Z</time>
      </trkpt>
      <trkpt lat="45.97854" lon="4.71181">
        <ele>209</ele>
        <time>2017-05-05T08:38:55Z</time>
      </trkpt>
      <trkpt lat="45.97855" lon="4.71177">
        <ele>209</ele>
        <time>2017-05-05T08:38:56Z</time>
      </trkpt>
      <trkpt lat="45.97855" lon="4.71168">
        <ele>209</ele>
        <time>2017-05-05T08:38:58Z</time>
      </trkpt>
      <trkpt lat="45.97855" lon="4.71163">
        <ele>212</ele>
        <time>2017-05-05T08:38:59Z</time>
      </trkpt>
      <trkpt lat="45.97854" lon="4.71152">
        <ele>212</ele>
        <time>2017-05-05T08:39:01Z</time>
      </trkpt>
      <trkpt lat="45.97853" lon="4.71146">
        <ele>212</ele>
        <time>2017-05-05T08:39:02Z</time>
      </trkpt>
      <trkpt lat="45.97851" lon="4.71134">
        <ele>212</ele>
        <time>2017-05-05T08:39:04Z</time>
      </trkpt>
      <trkpt lat="45.97851" lon="4.71129">
        <ele>212</ele>
        <time>2017-05-05T08:39:05Z</time>
      </trkpt>
      <trkpt lat="45.97849" lon="4.71117">
        <ele>213</ele>
        <time>2017-05-05T08:39:07Z</time>
      </trkpt>
      <trkpt lat="45.97848" lon="4.71112">
        <ele>213</ele>
        <time>2017-05-05T08:39:08Z</time>
      </trkpt>
      <trkpt lat="45.97847" lon="4.71101">
        <ele>213</ele>
        <time>2017-05-05T08:39:10Z</time>
      </trkpt>
      <trkpt lat="45.97847" lon="4.71096">
        <ele>213</ele>
        <time>2017-05-05T08:39:11Z</time>
      </trkpt>
      <trkpt lat="45.97846" lon="4.71085">
        <ele>214</ele>
        <time>2017-05-05T08:39:13Z</time>
      </trkpt>
      <trkpt lat="45.97845" lon="4.7108">
        <ele>215</ele>
        <time>2017-05-05T08:39:14Z</time>
      </trkpt>
      <trkpt lat="45.97844" lon="4.7107">
        <ele>215</ele>
        <time>2017-05-05T08:39:16Z</time>
      </trkpt>
      <trkpt lat="45.97844" lon="4.71065">
        <ele>215</ele>
        <time>2017-05-05T08:39:17Z</time>
      </trkpt>
      <trkpt lat="45.97843" lon="4.71055">
        <ele>215</ele>
        <time>2017-05-05T08:39:19Z</time>
      </trkpt>
      <trkpt lat="45.97842" lon="4.7105">
        <ele>215</ele>
        <time>2017-05-05T08:39:20Z</time>
      </trkpt>
      <trkpt lat="45.97841" lon="4.71039">
        <ele>216</ele>
        <time>2017-05-05T08:39:22Z</time>
      </trkpt>
      <trkpt lat="45.9784" lon="4.71034">
        <ele>216</ele>
        <time>2017-05-05T08:39:23Z</time>
      </trkpt>
      <trkpt lat="45.97839" lon="4.71022">
        <ele>216</ele>
        <time>2017-05-05T08:39:25Z</time>
      </trkpt>
      <trkpt lat="45.97838" lon="4.71016">
        <ele>216</ele>
        <time>2017-05-05T08:39:26Z</time>
      </trkpt>
      <trkpt lat="45.97837" lon="4.71005">
        <ele>216</ele>
        <time>2017-05-05T08:39:28Z</time>
      </trkpt>
      <trkpt lat="45.97836" lon="4.71">
        <ele>216</ele>
        <time>2017-05-05T08:39:29Z</time>
      </trkpt>
      <trkpt lat="45.97834" lon="4.7099">
        <ele>217</ele>
        <time>2017-05-05T08:39:31Z</time>
      </trkpt>
      <trkpt lat="45.97834" lon="4.70985">
        <ele>217</ele>
        <time>2017-05-05T08:39:32Z</time>
      </trkpt>
      <trkpt lat="45.97833" lon="4.70973">
        <ele>218</ele>
        <time>2017-05-05T08:39:34Z</time>
      </trkpt>
      <trkpt lat="45.97832" lon="4.70967">
        <ele>218</ele>
        <time>2017-05-05T08:39:35Z</time>
      </trkpt>
      <trkpt lat="45.97831" lon="4.70957">
        <ele>218</ele>
        <time>2017-05-05T08:39:37Z</time>
      </trkpt>
      <trkpt lat="45.9783" lon="4.70952">
        <ele>218</ele>
        <time>2017-05-05T08:39:38Z</time>
      </trkpt>
      <trkpt lat="45.97831" lon="4.70943">
        <ele>218</ele>
        <time>2017-05-05T08:39:40Z</time>
      </trkpt>
      <trkpt lat="45.97832" lon="4.70937">
        <ele>218</ele>
        <time>2017-05-05T08:39:41Z</time>
      </trkpt>
      <trkpt lat="45.97834" lon="4.70927">
        <ele>219</ele>
        <time>2017-05-05T08:39:43Z</time>
      </trkpt>
      <trkpt lat="45.97833" lon="4.70921">
        <ele>219</ele>
        <time>2017-05-05T08:39:44Z</time>
      </trkpt>
      <trkpt lat="45.9783" lon="4.70912">
        <ele>219</ele>
        <time>2017-05-05T08:39:46Z</time>
      </trkpt>
      <trkpt lat="45.97829" lon="4.70907">
        <ele>219</ele>
        <time>2017-05-05T08:39:47Z</time>
      </trkpt>
      <trkpt lat="45.97826" lon="4.70897">
        <ele>220</ele>
        <time>2017-05-05T08:39:49Z</time>
      </trkpt>
      <trkpt lat="45.97826" lon="4.70892">
        <ele>220</ele>
        <time>2017-05-05T08:39:50Z</time>
      </trkpt>
      <trkpt lat="45.97826" lon="4.70882">
        <ele>220</ele>
        <time>2017-05-05T08:39:52Z</time>
      </trkpt>
      <trkpt lat="45.97825" lon="4.70877">
        <ele>220</ele>
        <time>2017-05-05T08:39:53Z</time>
      </trkpt>
      <trkpt lat="45.97823" lon="4.70866">
        <ele>220</ele>
        <time>2017-05-05T08:39:55Z</time>
      </trkpt>
      <trkpt lat="45.97822" lon="4.70861">
        <ele>220</ele>
        <time>2017-05-05T08:39:56Z</time>
      </trkpt>
      <trkpt lat="45.97821" lon="4.70852">
        <ele>220</ele>
        <time>2017-05-05T08:39:58Z</time>
      </trkpt>
      <trkpt lat="45.9782" lon="4.70847">
        <ele>220</ele>
        <time>2017-05-05T08:39:59Z</time>
      </trkpt>
      <trkpt lat="45.97819" lon="4.70837">
        <ele>221</ele>
        <time>2017-05-05T08:40:01Z</time>
      </trkpt>
      <trkpt lat="45.97818" lon="4.70832">
        <ele>221</ele>
        <time>2017-05-05T08:40:02Z</time>
      </trkpt>
      <trkpt lat="45.97815" lon="4.70823">
        <ele>221</ele>
        <time>2017-05-05T08:40:04Z</time>
      </trkpt>
      <trkpt lat="45.97813" lon="4.70819">
        <ele>221</ele>
        <time>2017-05-05T08:40:05Z</time>
      </trkpt>
      <trkpt lat="45.97809" lon="4.70811">
        <ele>221</ele>
        <time>2017-05-05T08:40:07Z</time>
      </trkpt>
      <trkpt lat="45.97808" lon="4.70806">
        <ele>221</ele>
        <time>2017-05-05T08:40:08Z</time>
      </trkpt>
      <trkpt lat="45.97809" lon="4.70796">
        <ele>221</ele>
        <time>2017-05-05T08:40:10Z</time>
      </trkpt>
      <trkpt lat="45.97809" lon="4.70791">
        <ele>221</ele>
        <time>2017-05-05T08:40:11Z</time>
      </trkpt>
      <trkpt lat="45.9781" lon="4.70782">
        <ele>221</ele>
        <time>2017-05-05T08:40:13Z</time>
      </trkpt>
      <trkpt lat="45.97809" lon="4.70777">
        <ele>221</ele>
        <time>2017-05-05T08:40:14Z</time>
      </trkpt>
      <trkpt lat="45.97807" lon="4.70766">
        <ele>221</ele>
        <time>2017-05-05T08:40:16Z</time>
      </trkpt>
      <trkpt lat="45.97804" lon="4.70761">
        <ele>221</ele>
        <time>2017-05-05T08:40:17Z</time>
      </trkpt>
      <trkpt lat="45.97799" lon="4.70751">
        <ele>221</ele>
        <time>2017-05-05T08:40:19Z</time>
      </trkpt>
      <trkpt lat="45.97797" lon="4.70746">
        <ele>222</ele>
        <time>2017-05-05T08:40:20Z</time>
      </trkpt>
      <trkpt lat="45.97795" lon="4.70736">
        <ele>222</ele>
        <time>2017-05-05T08:40:22Z</time>
      </trkpt>
      <trkpt lat="45.97795" lon="4.70731">
        <ele>222</ele>
        <time>2017-05-05T08:40:23Z</time>
      </trkpt>
      <trkpt lat="45.97794" lon="4.7072">
        <ele>222</ele>
        <time>2017-05-05T08:40:25Z</time>
      </trkpt>
      <trkpt lat="45.97793" lon="4.70715">
        <ele>222</ele>
        <time>2017-05-05T08:40:26Z</time>
      </trkpt>
      <trkpt lat="45.97792" lon="4.70706">
        <ele>222</ele>
        <time>2017-05-05T08:40:28Z</time>
      </trkpt>
      <trkpt lat="45.97792" lon="4.707">
        <ele>222</ele>
        <time>2017-05-05T08:40:29Z</time>
      </trkpt>
      <trkpt lat="45.97793" lon="4.70689">
        <ele>222</ele>
        <time>2017-05-05T08:40:31Z</time>
      </trkpt>
      <trkpt lat="45.97793" lon="4.70684">
        <ele>222</ele>
        <time>2017-05-05T08:40:32Z</time>
      </trkpt>
      <trkpt lat="45.97794" lon="4.70674">
        <ele>222</ele>
        <time>2017-05-05T08:40:34Z</time>
      </trkpt>
      <trkpt lat="45.97795" lon="4.70669">
        <ele>222</ele>
        <time>2017-05-05T08:40:35Z</time>
      </trkpt>
      <trkpt lat="45.97796" lon="4.70659">
        <ele>222</ele>
        <time>2017-05-05T08:40:37Z</time>
      </trkpt>
      <trkpt lat="45.97797" lon="4.70654">
        <ele>222</ele>
        <time>2017-05-05T08:40:38Z</time>
      </trkpt>
      <trkpt lat="45.97797" lon="4.70643">
        <ele>222</ele>
        <time>2017-05-05T08:40:40Z</time>
      </trkpt>
      <trkpt lat="45.97798" lon="4.70637">
        <ele>222</ele>
        <time>2017-05-05T08:40:41Z</time>
      </trkpt>
      <trkpt lat="45.97798" lon="4.70625">
        <ele>222</ele>
        <time>2017-05-05T08:40:43Z</time>
      </trkpt>
      <trkpt lat="45.97798" lon="4.70619">
        <ele>222</ele>
        <time>2017-05-05T08:40:44Z</time>
      </trkpt>
      <trkpt lat="45.97799" lon="4.70608">
        <ele>223</ele>
        <time>2017-05-05T08:40:46Z</time>
      </trkpt>
      <trkpt lat="45.97799" lon="4.70602">
        <ele>223</ele>
        <time>2017-05-05T08:40:47Z</time>
      </trkpt>
      <trkpt lat="45.978" lon="4.70592">
        <ele>223</ele>
        <time>2017-05-05T08:40:49Z</time>
      </trkpt>
      <trkpt lat="45.978" lon="4.70587">
        <ele>223</ele>
        <time>2017-05-05T08:40:50Z</time>
      </trkpt>
      <trkpt lat="45.978" lon="4.70577">
        <ele>222</ele>
        <time>2017-05-05T08:40:52Z</time>
      </trkpt>
      <trkpt lat="45.978" lon="4.70571">
        <ele>222</ele>
        <time>2017-05-05T08:40:53Z</time>
      </trkpt>
      <trkpt lat="45.97801" lon="4.70561">
        <ele>222</ele>
        <time>2017-05-05T08:40:55Z</time>
      </trkpt>
      <trkpt lat="45.978" lon="4.70556">
        <ele>222</ele>
        <time>2017-05-05T08:40:56Z</time>
      </trkpt>
      <trkpt lat="45.978" lon="4.70549">
        <ele>222</ele>
        <time>2017-05-05T08:40:57Z</time>
      </trkpt>
      <trkpt lat="45.978" lon="4.70542">
        <ele>222</ele>
        <time>2017-05-05T08:40:58Z</time>
      </trkpt>
      <trkpt lat="45.978" lon="4.70536">
        <ele>222</ele>
        <time>2017-05-05T08:40:59Z</time>
      </trkpt>
      <trkpt lat="45.978" lon="4.70528">
        <ele>222</ele>
        <time>2017-05-05T08:41:00Z</time>
      </trkpt>
      <trkpt lat="45.97801" lon="4.70521">
        <ele>222</ele>
        <time>2017-05-05T08:41:01Z</time>
      </trkpt>
      <trkpt lat="45.97801" lon="4.70514">
        <ele>222</ele>
        <time>2017-05-05T08:41:02Z</time>
      </trkpt>
      <trkpt lat="45.97801" lon="4.70507">
        <ele>222</ele>
        <time>2017-05-05T08:41:03Z</time>
      </trkpt>
      <trkpt lat="45.97801" lon="4.705">
        <ele>222</ele>
        <time>2017-05-05T08:41:04Z</time>
      </trkpt>
      <trkpt lat="45.97801" lon="4.70493">
        <ele>221</ele>
        <time>2017-05-05T08:41:05Z</time>
      </trkpt>
      <trkpt lat="45.97801" lon="4.70486">
        <ele>221</ele>
        <time>2017-05-05T08:41:06Z</time>
      </trkpt>
      <trkpt lat="45.97801" lon="4.70479">
        <ele>221</ele>
        <time>2017-05-05T08:41:07Z</time>
      </trkpt>
      <trkpt lat="45.97802" lon="4.70472">
        <ele>221</ele>
        <time>2017-05-05T08:41:08Z</time>
      </trkpt>
      <trkpt lat="45.97803" lon="4.70465">
        <ele>221</ele>
        <time>2017-05-05T08:41:09Z</time>
      </trkpt>
      <trkpt lat="45.97804" lon="4.70458">
        <ele>221</ele>
        <time>2017-05-05T08:41:10Z</time>
      </trkpt>
      <trkpt lat="45.97805" lon="4.70451">
        <ele>221</ele>
        <time>2017-05-05T08:41:11Z</time>
      </trkpt>
      <trkpt lat="45.97806" lon="4.70444">
        <ele>221</ele>
        <time>2017-05-05T08:41:12Z</time>
      </trkpt>
      <trkpt lat="45.97807" lon="4.70438">
        <ele>221</ele>
        <time>2017-05-05T08:41:13Z</time>
      </trkpt>
      <trkpt lat="45.97808" lon="4.70431">
        <ele>221</ele>
        <time>2017-05-05T08:41:14Z</time>
      </trkpt>
      <trkpt lat="45.97809" lon="4.70424">
        <ele>221</ele>
        <time>2017-05-05T08:41:15Z</time>
      </trkpt>
      <trkpt lat="45.9781" lon="4.70417">
        <ele>221</ele>
        <time>2017-05-05T08:41:16Z</time>
      </trkpt>
      <trkpt lat="45.97811" lon="4.70405">
        <ele>221</ele>
        <time>2017-05-05T08:41:18Z</time>
      </trkpt>
      <trkpt lat="45.97812" lon="4.70399">
        <ele>222</ele>
        <time>2017-05-05T08:41:19Z</time>
      </trkpt>
      <trkpt lat="45.97814" lon="4.70387">
        <ele>222</ele>
        <time>2017-05-05T08:41:21Z</time>
      </trkpt>
      <trkpt lat="45.97815" lon="4.70381">
        <ele>222</ele>
        <time>2017-05-05T08:41:22Z</time>
      </trkpt>
      <trkpt lat="45.97817" lon="4.70369">
        <ele>222</ele>
        <time>2017-05-05T08:41:24Z</time>
      </trkpt>
      <trkpt lat="45.97817" lon="4.70362">
        <ele>222</ele>
        <time>2017-05-05T08:41:25Z</time>
      </trkpt>
      <trkpt lat="45.97818" lon="4.70356">
        <ele>222</ele>
        <time>2017-05-05T08:41:26Z</time>
      </trkpt>
      <trkpt lat="45.97818" lon="4.70349">
        <ele>222</ele>
        <time>2017-05-05T08:41:27Z</time>
      </trkpt>
      <trkpt lat="45.9782" lon="4.70337">
        <ele>222</ele>
        <time>2017-05-05T08:41:29Z</time>
      </trkpt>
      <trkpt lat="45.97821" lon="4.70331">
        <ele>222</ele>
        <time>2017-05-05T08:41:30Z</time>
      </trkpt>
      <trkpt lat="45.97822" lon="4.70318">
        <ele>222</ele>
        <time>2017-05-05T08:41:32Z</time>
      </trkpt>
      <trkpt lat="45.97821" lon="4.70312">
        <ele>223</ele>
        <time>2017-05-05T08:41:33Z</time>
      </trkpt>
      <trkpt lat="45.97821" lon="4.703">
        <ele>223</ele>
        <time>2017-05-05T08:41:35Z</time>
      </trkpt>
      <trkpt lat="45.97822" lon="4.70295">
        <ele>223</ele>
        <time>2017-05-05T08:41:36Z</time>
      </trkpt>
      <trkpt lat="45.97822" lon="4.70284">
        <ele>223</ele>
        <time>2017-05-05T08:41:38Z</time>
      </trkpt>
      <trkpt lat="45.97822" lon="4.70278">
        <ele>223</ele>
        <time>2017-05-05T08:41:39Z</time>
      </trkpt>
      <trkpt lat="45.97821" lon="4.70265">
        <ele>223</ele>
        <time>2017-05-05T08:41:41Z</time>
      </trkpt>
      <trkpt lat="45.97821" lon="4.70259">
        <ele>223</ele>
        <time>2017-05-05T08:41:42Z</time>
      </trkpt>
      <trkpt lat="45.97822" lon="4.70248">
        <ele>223</ele>
        <time>2017-05-05T08:41:44Z</time>
      </trkpt>
      <trkpt lat="45.97822" lon="4.70242">
        <ele>223</ele>
        <time>2017-05-05T08:41:45Z</time>
      </trkpt>
      <trkpt lat="45.97823" lon="4.7023">
        <ele>223</ele>
        <time>2017-05-05T08:41:47Z</time>
      </trkpt>
      <trkpt lat="45.97824" lon="4.70224">
        <ele>223</ele>
        <time>2017-05-05T08:41:48Z</time>
      </trkpt>
      <trkpt lat="45.97825" lon="4.70218">
        <ele>223</ele>
        <time>2017-05-05T08:41:49Z</time>
      </trkpt>
      <trkpt lat="45.97826" lon="4.70211">
        <ele>223</ele>
        <time>2017-05-05T08:41:50Z</time>
      </trkpt>
      <trkpt lat="45.97826" lon="4.70204">
        <ele>223</ele>
        <time>2017-05-05T08:41:51Z</time>
      </trkpt>
      <trkpt lat="45.97827" lon="4.70198">
        <ele>222</ele>
        <time>2017-05-05T08:41:52Z</time>
      </trkpt>
      <trkpt lat="45.97827" lon="4.7019">
        <ele>222</ele>
        <time>2017-05-05T08:41:53Z</time>
      </trkpt>
      <trkpt lat="45.97827" lon="4.70183">
        <ele>222</ele>
        <time>2017-05-05T08:41:54Z</time>
      </trkpt>
      <trkpt lat="45.97827" lon="4.70176">
        <ele>222</ele>
        <time>2017-05-05T08:41:55Z</time>
      </trkpt>
      <trkpt lat="45.97827" lon="4.70169">
        <ele>222</ele>
        <time>2017-05-05T08:41:56Z</time>
      </trkpt>
      <trkpt lat="45.97827" lon="4.70162">
        <ele>221</ele>
        <time>2017-05-05T08:41:57Z</time>
      </trkpt>
      <trkpt lat="45.97827" lon="4.70154">
        <ele>221</ele>
        <time>2017-05-05T08:41:58Z</time>
      </trkpt>
      <trkpt lat="45.97828" lon="4.70146">
        <ele>221</ele>
        <time>2017-05-05T08:41:59Z</time>
      </trkpt>
      <trkpt lat="45.97828" lon="4.70139">
        <ele>221</ele>
        <time>2017-05-05T08:42:00Z</time>
      </trkpt>
      <trkpt lat="45.97826" lon="4.70132">
        <ele>221</ele>
        <time>2017-05-05T08:42:01Z</time>
      </trkpt>
      <trkpt lat="45.97825" lon="4.70124">
        <ele>221</ele>
        <time>2017-05-05T08:42:02Z</time>
      </trkpt>
      <trkpt lat="45.97824" lon="4.70116">
        <ele>221</ele>
        <time>2017-05-05T08:42:03Z</time>
      </trkpt>
      <trkpt lat="45.97824" lon="4.70109">
        <ele>221</ele>
        <time>2017-05-05T08:42:04Z</time>
      </trkpt>
      <trkpt lat="45.97825" lon="4.701">
        <ele>220</ele>
        <time>2017-05-05T08:42:05Z</time>
      </trkpt>
      <trkpt lat="45.97825" lon="4.70092">
        <ele>220</ele>
        <time>2017-05-05T08:42:06Z</time>
      </trkpt>
      <trkpt lat="45.97825" lon="4.70084">
        <ele>220</ele>
        <time>2017-05-05T08:42:07Z</time>
      </trkpt>
      <trkpt lat="45.97825" lon="4.70075">
        <ele>219</ele>
        <time>2017-05-05T08:42:08Z</time>
      </trkpt>
      <trkpt lat="45.97826" lon="4.70066">
        <ele>219</ele>
        <time>2017-05-05T08:42:09Z</time>
      </trkpt>
      <trkpt lat="45.97827" lon="4.70057">
        <ele>219</ele>
        <time>2017-05-05T08:42:10Z</time>
      </trkpt>
      <trkpt lat="45.97829" lon="4.70048">
        <ele>219</ele>
        <time>2017-05-05T08:42:11Z</time>
      </trkpt>
      <trkpt lat="45.97832" lon="4.70039">
        <ele>219</ele>
        <time>2017-05-05T08:42:12Z</time>
      </trkpt>
      <trkpt lat="45.97836" lon="4.7003">
        <ele>218</ele>
        <time>2017-05-05T08:42:13Z</time>
      </trkpt>
      <trkpt lat="45.97841" lon="4.70022">
        <ele>218</ele>
        <time>2017-05-05T08:42:14Z</time>
      </trkpt>
      <trkpt lat="45.97847" lon="4.70014">
        <ele>218</ele>
        <time>2017-05-05T08:42:15Z</time>
      </trkpt>
      <trkpt lat="45.97853" lon="4.70008">
        <ele>218</ele>
        <time>2017-05-05T08:42:16Z</time>
      </trkpt>
      <trkpt lat="45.9786" lon="4.70001">
        <ele>218</ele>
        <time>2017-05-05T08:42:17Z</time>
      </trkpt>
      <trkpt lat="45.97866" lon="4.69994">
        <ele>215</ele>
        <time>2017-05-05T08:42:18Z</time>
      </trkpt>
      <trkpt lat="45.97873" lon="4.69986">
        <ele>215</ele>
        <time>2017-05-05T08:42:19Z</time>
      </trkpt>
      <trkpt lat="45.9788" lon="4.69978">
        <ele>215</ele>
        <time>2017-05-05T08:42:20Z</time>
      </trkpt>
      <trkpt lat="45.97887" lon="4.6997">
        <ele>215</ele>
        <time>2017-05-05T08:42:21Z</time>
      </trkpt>
      <trkpt lat="45.97894" lon="4.69962">
        <ele>214</ele>
        <time>2017-05-05T08:42:22Z</time>
      </trkpt>
      <trkpt lat="45.97901" lon="4.69953">
        <ele>214</ele>
        <time>2017-05-05T08:42:23Z</time>
      </trkpt>
      <trkpt lat="45.97909" lon="4.69945">
        <ele>213</ele>
        <time>2017-05-05T08:42:24Z</time>
      </trkpt>
      <trkpt lat="45.97916" lon="4.69936">
        <ele>213</ele>
        <time>2017-05-05T08:42:25Z</time>
      </trkpt>
      <trkpt lat="45.97923" lon="4.69928">
        <ele>212</ele>
        <time>2017-05-05T08:42:26Z</time>
      </trkpt>
      <trkpt lat="45.97931" lon="4.69919">
        <ele>212</ele>
        <time>2017-05-05T08:42:27Z</time>
      </trkpt>
      <trkpt lat="45.97938" lon="4.6991">
        <ele>210</ele>
        <time>2017-05-05T08:42:28Z</time>
      </trkpt>
      <trkpt lat="45.97944" lon="4.69901">
        <ele>210</ele>
        <time>2017-05-05T08:42:29Z</time>
      </trkpt>
      <trkpt lat="45.9795" lon="4.6989">
        <ele>210</ele>
        <time>2017-05-05T08:42:30Z</time>
      </trkpt>
      <trkpt lat="45.97957" lon="4.6988">
        <ele>209</ele>
        <time>2017-05-05T08:42:31Z</time>
      </trkpt>
      <trkpt lat="45.97964" lon="4.6987">
        <ele>209</ele>
        <time>2017-05-05T08:42:32Z</time>
      </trkpt>
      <trkpt lat="45.97971" lon="4.69861">
        <ele>209</ele>
        <time>2017-05-05T08:42:33Z</time>
      </trkpt>
      <trkpt lat="45.97977" lon="4.69853">
        <ele>209</ele>
        <time>2017-05-05T08:42:34Z</time>
      </trkpt>
      <trkpt lat="45.97982" lon="4.69845">
        <ele>209</ele>
        <time>2017-05-05T08:42:35Z</time>
      </trkpt>
      <trkpt lat="45.97987" lon="4.69839">
        <ele>208</ele>
        <time>2017-05-05T08:42:36Z</time>
      </trkpt>
      <trkpt lat="45.97993" lon="4.69835">
        <ele>208</ele>
        <time>2017-05-05T08:42:37Z</time>
      </trkpt>
      <trkpt lat="45.97999" lon="4.69833">
        <ele>208</ele>
        <time>2017-05-05T08:42:38Z</time>
      </trkpt>
      <trkpt lat="45.98004" lon="4.69832">
        <ele>208</ele>
        <time>2017-05-05T08:42:39Z</time>
      </trkpt>
      <trkpt lat="45.9801" lon="4.69833">
        <ele>207</ele>
        <time>2017-05-05T08:42:40Z</time>
      </trkpt>
      <trkpt lat="45.98015" lon="4.69833">
        <ele>207</ele>
        <time>2017-05-05T08:42:41Z</time>
      </trkpt>
      <trkpt lat="45.98021" lon="4.69832">
        <ele>207</ele>
        <time>2017-05-05T08:42:42Z</time>
      </trkpt>
      <trkpt lat="45.98025" lon="4.6983">
        <ele>207</ele>
        <time>2017-05-05T08:42:43Z</time>
      </trkpt>
      <trkpt lat="45.9803" lon="4.69825">
        <ele>207</ele>
        <time>2017-05-05T08:42:44Z</time>
      </trkpt>
      <trkpt lat="45.98033" lon="4.69818">
        <ele>207</ele>
        <time>2017-05-05T08:42:45Z</time>
      </trkpt>
      <trkpt lat="45.98036" lon="4.69809">
        <ele>206</ele>
        <time>2017-05-05T08:42:46Z</time>
      </trkpt>
      <trkpt lat="45.98038" lon="4.698">
        <ele>206</ele>
        <time>2017-05-05T08:42:47Z</time>
      </trkpt>
      <trkpt lat="45.98041" lon="4.69792">
        <ele>206</ele>
        <time>2017-05-05T08:42:48Z</time>
      </trkpt>
      <trkpt lat="45.98044" lon="4.69784">
        <ele>206</ele>
        <time>2017-05-05T08:42:49Z</time>
      </trkpt>
      <trkpt lat="45.98047" lon="4.69775">
        <ele>206</ele>
        <time>2017-05-05T08:42:50Z</time>
      </trkpt>
      <trkpt lat="45.98052" lon="4.69768">
        <ele>205</ele>
        <time>2017-05-05T08:42:51Z</time>
      </trkpt>
      <trkpt lat="45.98057" lon="4.6976">
        <ele>205</ele>
        <time>2017-05-05T08:42:52Z</time>
      </trkpt>
      <trkpt lat="45.98062" lon="4.69752">
        <ele>205</ele>
        <time>2017-05-05T08:42:53Z</time>
      </trkpt>
      <trkpt lat="45.98067" lon="4.69744">
        <ele>203</ele>
        <time>2017-05-05T08:42:54Z</time>
      </trkpt>
      <trkpt lat="45.98072" lon="4.69735">
        <ele>202</ele>
        <time>2017-05-05T08:42:55Z</time>
      </trkpt>
      <trkpt lat="45.98077" lon="4.69726">
        <ele>202</ele>
        <time>2017-05-05T08:42:56Z</time>
      </trkpt>
      <trkpt lat="45.98083" lon="4.69717">
        <ele>202</ele>
        <time>2017-05-05T08:42:57Z</time>
      </trkpt>
      <trkpt lat="45.98088" lon="4.69707">
        <ele>201</ele>
        <time>2017-05-05T08:42:58Z</time>
      </trkpt>
      <trkpt lat="45.98094" lon="4.69697">
        <ele>200</ele>
        <time>2017-05-05T08:42:59Z</time>
      </trkpt>
      <trkpt lat="45.981" lon="4.69687">
        <ele>200</ele>
        <time>2017-05-05T08:43:00Z</time>
      </trkpt>
      <trkpt lat="45.98105" lon="4.69676">
        <ele>200</ele>
        <time>2017-05-05T08:43:01Z</time>
      </trkpt>
      <trkpt lat="45.9811" lon="4.69664">
        <ele>199</ele>
        <time>2017-05-05T08:43:02Z</time>
      </trkpt>
      <trkpt lat="45.98114" lon="4.69651">
        <ele>199</ele>
        <time>2017-05-05T08:43:03Z</time>
      </trkpt>
      <trkpt lat="45.98118" lon="4.69638">
        <ele>199</ele>
        <time>2017-05-05T08:43:04Z</time>
      </trkpt>
      <trkpt lat="45.98122" lon="4.69625">
        <ele>199</ele>
        <time>2017-05-05T08:43:05Z</time>
      </trkpt>
      <trkpt lat="45.98125" lon="4.69611">
        <ele>198</ele>
        <time>2017-05-05T08:43:06Z</time>
      </trkpt>
      <trkpt lat="45.98129" lon="4.69598">
        <ele>198</ele>
        <time>2017-05-05T08:43:07Z</time>
      </trkpt>
      <trkpt lat="45.98133" lon="4.69585">
        <ele>198</ele>
        <time>2017-05-05T08:43:08Z</time>
      </trkpt>
      <trkpt lat="45.98137" lon="4.69572">
        <ele>197</ele>
        <time>2017-05-05T08:43:09Z</time>
      </trkpt>
      <trkpt lat="45.98141" lon="4.69561">
        <ele>197</ele>
        <time>2017-05-05T08:43:10Z</time>
      </trkpt>
      <trkpt lat="45.98144" lon="4.6955">
        <ele>197</ele>
        <time>2017-05-05T08:43:11Z</time>
      </trkpt>
      <trkpt lat="45.98147" lon="4.69542">
        <ele>197</ele>
        <time>2017-05-05T08:43:12Z</time>
      </trkpt>
      <trkpt lat="45.98152" lon="4.69534">
        <ele>196</ele>
        <time>2017-05-05T08:43:13Z</time>
      </trkpt>
      <trkpt lat="45.98157" lon="4.69528">
        <ele>196</ele>
        <time>2017-05-05T08:43:14Z</time>
      </trkpt>
      <trkpt lat="45.98162" lon="4.69522">
        <ele>196</ele>
        <time>2017-05-05T08:43:15Z</time>
      </trkpt>
      <trkpt lat="45.98168" lon="4.69516">
        <ele>195</ele>
        <time>2017-05-05T08:43:16Z</time>
      </trkpt>
      <trkpt lat="45.98173" lon="4.6951">
        <ele>195</ele>
        <time>2017-05-05T08:43:17Z</time>
      </trkpt>
      <trkpt lat="45.98177" lon="4.69502">
        <ele>195</ele>
        <time>2017-05-05T08:43:18Z</time>
      </trkpt>
      <trkpt lat="45.98179" lon="4.69493">
        <ele>194</ele>
        <time>2017-05-05T08:43:19Z</time>
      </trkpt>
      <trkpt lat="45.98179" lon="4.69484">
        <ele>194</ele>
        <time>2017-05-05T08:43:20Z</time>
      </trkpt>
      <trkpt lat="45.98178" lon="4.69475">
        <ele>194</ele>
        <time>2017-05-05T08:43:21Z</time>
      </trkpt>
      <trkpt lat="45.98177" lon="4.69467">
        <ele>194</ele>
        <time>2017-05-05T08:43:22Z</time>
      </trkpt>
      <trkpt lat="45.98177" lon="4.69459">
        <ele>194</ele>
        <time>2017-05-05T08:43:23Z</time>
      </trkpt>
      <trkpt lat="45.98178" lon="4.69452">
        <ele>194</ele>
        <time>2017-05-05T08:43:24Z</time>
      </trkpt>
      <trkpt lat="45.9818" lon="4.69445">
        <ele>194</ele>
        <time>2017-05-05T08:43:25Z</time>
      </trkpt>
      <trkpt lat="45.98181" lon="4.69439">
        <ele>194</ele>
        <time>2017-05-05T08:43:26Z</time>
      </trkpt>
      <trkpt lat="45.98183" lon="4.69432">
        <ele>194</ele>
        <time>2017-05-05T08:43:27Z</time>
      </trkpt>
      <trkpt lat="45.98184" lon="4.69425">
        <ele>194</ele>
        <time>2017-05-05T08:43:28Z</time>
      </trkpt>
      <trkpt lat="45.98186" lon="4.69419">
        <ele>194</ele>
        <time>2017-05-05T08:43:29Z</time>
      </trkpt>
      <trkpt lat="45.98188" lon="4.69412">
        <ele>194</ele>
        <time>2017-05-05T08:43:30Z</time>
      </trkpt>
      <trkpt lat="45.98189" lon="4.69404">
        <ele>194</ele>
        <time>2017-05-05T08:43:31Z</time>
      </trkpt>
      <trkpt lat="45.98191" lon="4.69396">
        <ele>194</ele>
        <time>2017-05-05T08:43:32Z</time>
      </trkpt>
      <trkpt lat="45.98193" lon="4.69389">
        <ele>194</ele>
        <time>2017-05-05T08:43:33Z</time>
      </trkpt>
      <trkpt lat="45.98195" lon="4.69381">
        <ele>194</ele>
        <time>2017-05-05T08:43:34Z</time>
      </trkpt>
      <trkpt lat="45.98196" lon="4.69374">
        <ele>193</ele>
        <time>2017-05-05T08:43:35Z</time>
      </trkpt>
      <trkpt lat="45.98198" lon="4.69367">
        <ele>193</ele>
        <time>2017-05-05T08:43:36Z</time>
      </trkpt>
      <trkpt lat="45.982" lon="4.69361">
        <ele>193</ele>
        <time>2017-05-05T08:43:37Z</time>
      </trkpt>
      <trkpt lat="45.98202" lon="4.69355">
        <ele>193</ele>
        <time>2017-05-05T08:43:38Z</time>
      </trkpt>
      <trkpt lat="45.98204" lon="4.6935">
        <ele>193</ele>
        <time>2017-05-05T08:43:39Z</time>
      </trkpt>
      <trkpt lat="45.98209" lon="4.69339">
        <ele>194</ele>
        <time>2017-05-05T08:43:41Z</time>
      </trkpt>
      <trkpt lat="45.9821" lon="4.69334">
        <ele>194</ele>
        <time>2017-05-05T08:43:42Z</time>
      </trkpt>
      <trkpt lat="45.98211" lon="4.69328">
        <ele>194</ele>
        <time>2017-05-05T08:43:43Z</time>
      </trkpt>
      <trkpt lat="45.98211" lon="4.69321">
        <ele>194</ele>
        <time>2017-05-05T08:43:44Z</time>
      </trkpt>
      <trkpt lat="45.98213" lon="4.69314">
        <ele>194</ele>
        <time>2017-05-05T08:43:45Z</time>
      </trkpt>
      <trkpt lat="45.98214" lon="4.69307">
        <ele>194</ele>
        <time>2017-05-05T08:43:46Z</time>
      </trkpt>
      <trkpt lat="45.98215" lon="4.69299">
        <ele>194</ele>
        <time>2017-05-05T08:43:47Z</time>
      </trkpt>
      <trkpt lat="45.98216" lon="4.69292">
        <ele>194</ele>
        <time>2017-05-05T08:43:48Z</time>
      </trkpt>
      <trkpt lat="45.98217" lon="4.69285">
        <ele>194</ele>
        <time>2017-05-05T08:43:49Z</time>
      </trkpt>
      <trkpt lat="45.98218" lon="4.69278">
        <ele>194</ele>
        <time>2017-05-05T08:43:50Z</time>
      </trkpt>
      <trkpt lat="45.9822" lon="4.69271">
        <ele>194</ele>
        <time>2017-05-05T08:43:51Z</time>
      </trkpt>
      <trkpt lat="45.98221" lon="4.69264">
        <ele>194</ele>
        <time>2017-05-05T08:43:52Z</time>
      </trkpt>
      <trkpt lat="45.98222" lon="4.69257">
        <ele>194</ele>
        <time>2017-05-05T08:43:53Z</time>
      </trkpt>
      <trkpt lat="45.98223" lon="4.69251">
        <ele>194</ele>
        <time>2017-05-05T08:43:54Z</time>
      </trkpt>
      <trkpt lat="45.98225" lon="4.69239">
        <ele>195</ele>
        <time>2017-05-05T08:43:56Z</time>
      </trkpt>
      <trkpt lat="45.98226" lon="4.69232">
        <ele>196</ele>
        <time>2017-05-05T08:43:57Z</time>
      </trkpt>
      <trkpt lat="45.98228" lon="4.6922">
        <ele>196</ele>
        <time>2017-05-05T08:43:59Z</time>
      </trkpt>
      <trkpt lat="45.98229" lon="4.69214">
        <ele>196</ele>
        <time>2017-05-05T08:44:00Z</time>
      </trkpt>
      <trkpt lat="45.9823" lon="4.69202">
        <ele>196</ele>
        <time>2017-05-05T08:44:02Z</time>
      </trkpt>
      <trkpt lat="45.98231" lon="4.69195">
        <ele>196</ele>
        <time>2017-05-05T08:44:03Z</time>
      </trkpt>
      <trkpt lat="45.98231" lon="4.69184">
        <ele>197</ele>
        <time>2017-05-05T08:44:05Z</time>
      </trkpt>
      <trkpt lat="45.98232" lon="4.69179">
        <ele>197</ele>
        <time>2017-05-05T08:44:06Z</time>
      </trkpt>
      <trkpt lat="45.98232" lon="4.69169">
        <ele>197</ele>
        <time>2017-05-05T08:44:08Z</time>
      </trkpt>
      <trkpt lat="45.98232" lon="4.69164">
        <ele>199</ele>
        <time>2017-05-05T08:44:09Z</time>
      </trkpt>
      <trkpt lat="45.98232" lon="4.69153">
        <ele>199</ele>
        <time>2017-05-05T08:44:11Z</time>
      </trkpt>
      <trkpt lat="45.98231" lon="4.69147">
        <ele>199</ele>
        <time>2017-05-05T08:44:12Z</time>
      </trkpt>
      <trkpt lat="45.9823" lon="4.69136">
        <ele>199</ele>
        <time>2017-05-05T08:44:14Z</time>
      </trkpt>
      <trkpt lat="45.98229" lon="4.69131">
        <ele>199</ele>
        <time>2017-05-05T08:44:15Z</time>
      </trkpt>
      <trkpt lat="45.98227" lon="4.69121">
        <ele>199</ele>
        <time>2017-05-05T08:44:17Z</time>
      </trkpt>
      <trkpt lat="45.98226" lon="4.69116">
        <ele>199</ele>
        <time>2017-05-05T08:44:18Z</time>
      </trkpt>
      <trkpt lat="45.98223" lon="4.69106">
        <ele>200</ele>
        <time>2017-05-05T08:44:20Z</time>
      </trkpt>
      <trkpt lat="45.98222" lon="4.69101">
        <ele>200</ele>
        <time>2017-05-05T08:44:21Z</time>
      </trkpt>
      <trkpt lat="45.98219" lon="4.69092">
        <ele>200</ele>
        <time>2017-05-05T08:44:23Z</time>
      </trkpt>
      <trkpt lat="45.98218" lon="4.69088">
        <ele>200</ele>
        <time>2017-05-05T08:44:24Z</time>
      </trkpt>
      <trkpt lat="45.98213" lon="4.69078">
        <ele>201</ele>
        <time>2017-05-05T08:44:26Z</time>
      </trkpt>
      <trkpt lat="45.98211" lon="4.69074">
        <ele>201</ele>
        <time>2017-05-05T08:44:27Z</time>
      </trkpt>
      <trkpt lat="45.98206" lon="4.69065">
        <ele>201</ele>
        <time>2017-05-05T08:44:29Z</time>
      </trkpt>
      <trkpt lat="45.98205" lon="4.6906">
        <ele>201</ele>
        <time>2017-05-05T08:44:30Z</time>
      </trkpt>
      <trkpt lat="45.98201" lon="4.69051">
        <ele>201</ele>
        <time>2017-05-05T08:44:32Z</time>
      </trkpt>
      <trkpt lat="45.98199" lon="4.69047">
        <ele>201</ele>
        <time>2017-05-05T08:44:33Z</time>
      </trkpt>
      <trkpt lat="45.98196" lon="4.6904">
        <ele>201</ele>
        <time>2017-05-05T08:44:35Z</time>
      </trkpt>
      <trkpt lat="45.98195" lon="4.69035">
        <ele>201</ele>
        <time>2017-05-05T08:44:36Z</time>
      </trkpt>
      <trkpt lat="45.98193" lon="4.69024">
        <ele>201</ele>
        <time>2017-05-05T08:44:38Z</time>
      </trkpt>
      <trkpt lat="45.98192" lon="4.69019">
        <ele>201</ele>
        <time>2017-05-05T08:44:39Z</time>
      </trkpt>
      <trkpt lat="45.98191" lon="4.69009">
        <ele>201</ele>
        <time>2017-05-05T08:44:41Z</time>
      </trkpt>
      <trkpt lat="45.9819" lon="4.69003">
        <ele>201</ele>
        <time>2017-05-05T08:44:42Z</time>
      </trkpt>
      <trkpt lat="45.9819" lon="4.68993">
        <ele>201</ele>
        <time>2017-05-05T08:44:44Z</time>
      </trkpt>
      <trkpt lat="45.98191" lon="4.68987">
        <ele>202</ele>
        <time>2017-05-05T08:44:45Z</time>
      </trkpt>
      <trkpt lat="45.98192" lon="4.68976">
        <ele>202</ele>
        <time>2017-05-05T08:44:47Z</time>
      </trkpt>
      <trkpt lat="45.98192" lon="4.68971">
        <ele>202</ele>
        <time>2017-05-05T08:44:48Z</time>
      </trkpt>
      <trkpt lat="45.98193" lon="4.68959">
        <ele>202</ele>
        <time>2017-05-05T08:44:50Z</time>
      </trkpt>
      <trkpt lat="45.98194" lon="4.68954">
        <ele>202</ele>
        <time>2017-05-05T08:44:51Z</time>
      </trkpt>
      <trkpt lat="45.98195" lon="4.68942">
        <ele>202</ele>
        <time>2017-05-05T08:44:53Z</time>
      </trkpt>
      <trkpt lat="45.98196" lon="4.68937">
        <ele>202</ele>
        <time>2017-05-05T08:44:54Z</time>
      </trkpt>
      <trkpt lat="45.98197" lon="4.68925">
        <ele>202</ele>
        <time>2017-05-05T08:44:56Z</time>
      </trkpt>
      <trkpt lat="45.98198" lon="4.68918">
        <ele>202</ele>
        <time>2017-05-05T08:44:57Z</time>
      </trkpt>
      <trkpt lat="45.98199" lon="4.68912">
        <ele>202</ele>
        <time>2017-05-05T08:44:58Z</time>
      </trkpt>
      <trkpt lat="45.98199" lon="4.68905">
        <ele>202</ele>
        <time>2017-05-05T08:44:59Z</time>
      </trkpt>
      <trkpt lat="45.98201" lon="4.68894">
        <ele>202</ele>
        <time>2017-05-05T08:45:01Z</time>
      </trkpt>
      <trkpt lat="45.98201" lon="4.68888">
        <ele>202</ele>
        <time>2017-05-05T08:45:02Z</time>
      </trkpt>
      <trkpt lat="45.98202" lon="4.68877">
        <ele>203</ele>
        <time>2017-05-05T08:45:04Z</time>
      </trkpt>
      <trkpt lat="45.98202" lon="4.68871">
        <ele>203</ele>
        <time>2017-05-05T08:45:05Z</time>
      </trkpt>
      <trkpt lat="45.98203" lon="4.68861">
        <ele>203</ele>
        <time>2017-05-05T08:45:07Z</time>
      </trkpt>
      <trkpt lat="45.98203" lon="4.68856">
        <ele>203</ele>
        <time>2017-05-05T08:45:08Z</time>
      </trkpt>
      <trkpt lat="45.98204" lon="4.68845">
        <ele>203</ele>
        <time>2017-05-05T08:45:10Z</time>
      </trkpt>
      <trkpt lat="45.98205" lon="4.6884">
        <ele>203</ele>
        <time>2017-05-05T08:45:11Z</time>
      </trkpt>
      <trkpt lat="45.98205" lon="4.68829">
        <ele>204</ele>
        <time>2017-05-05T08:45:13Z</time>
      </trkpt>
      <trkpt lat="45.98206" lon="4.68823">
        <ele>204</ele>
        <time>2017-05-05T08:45:14Z</time>
      </trkpt>
      <trkpt lat="45.98206" lon="4.68812">
        <ele>204</ele>
        <time>2017-05-05T08:45:16Z</time>
      </trkpt>
      <trkpt lat="45.98207" lon="4.68807">
        <ele>204</ele>
        <time>2017-05-05T08:45:17Z</time>
      </trkpt>
      <trkpt lat="45.98208" lon="4.68796">
        <ele>204</ele>
        <time>2017-05-05T08:45:19Z</time>
      </trkpt>
      <trkpt lat="45.98208" lon="4.6879">
        <ele>204</ele>
        <time>2017-05-05T08:45:20Z</time>
      </trkpt>
      <trkpt lat="45.98209" lon="4.6878">
        <ele>204</ele>
        <time>2017-05-05T08:45:22Z</time>
      </trkpt>
      <trkpt lat="45.9821" lon="4.68775">
        <ele>204</ele>
        <time>2017-05-05T08:45:23Z</time>
      </trkpt>
      <trkpt lat="45.98211" lon="4.68764">
        <ele>204</ele>
        <time>2017-05-05T08:45:25Z</time>
      </trkpt>
      <trkpt lat="45.98212" lon="4.68759">
        <ele>205</ele>
        <time>2017-05-05T08:45:26Z</time>
      </trkpt>
      <trkpt lat="45.98214" lon="4.68749">
        <ele>206</ele>
        <time>2017-05-05T08:45:28Z</time>
      </trkpt>
      <trkpt lat="45.98215" lon="4.68744">
        <ele>206</ele>
        <time>2017-05-05T08:45:29Z</time>
      </trkpt>
      <trkpt lat="45.98217" lon="4.68734">
        <ele>206</ele>
        <time>2017-05-05T08:45:31Z</time>
      </trkpt>
      <trkpt lat="45.98218" lon="4.68729">
        <ele>206</ele>
        <time>2017-05-05T08:45:32Z</time>
      </trkpt>
      <trkpt lat="45.98219" lon="4.6872">
        <ele>206</ele>
        <time>2017-05-05T08:45:34Z</time>
      </trkpt>
      <trkpt lat="45.9822" lon="4.68715">
        <ele>206</ele>
        <time>2017-05-05T08:45:35Z</time>
      </trkpt>
      <trkpt lat="45.98221" lon="4.68704">
        <ele>207</ele>
        <time>2017-05-05T08:45:37Z</time>
      </trkpt>
      <trkpt lat="45.98222" lon="4.68699">
        <ele>207</ele>
        <time>2017-05-05T08:45:38Z</time>
      </trkpt>
      <trkpt lat="45.98223" lon="4.68688">
        <ele>207</ele>
        <time>2017-05-05T08:45:40Z</time>
      </trkpt>
      <trkpt lat="45.98224" lon="4.68683">
        <ele>207</ele>
        <time>2017-05-05T08:45:41Z</time>
      </trkpt>
      <trkpt lat="45.98226" lon="4.68672">
        <ele>207</ele>
        <time>2017-05-05T08:45:43Z</time>
      </trkpt>
      <trkpt lat="45.98227" lon="4.68668">
        <ele>208</ele>
        <time>2017-05-05T08:45:44Z</time>
      </trkpt>
      <trkpt lat="45.9823" lon="4.68655">
        <ele>208</ele>
        <time>2017-05-05T08:45:47Z</time>
      </trkpt>
      <trkpt lat="45.9823" lon="4.68652">
        <ele>208</ele>
        <time>2017-05-05T08:45:48Z</time>
      </trkpt>
      <trkpt lat="45.98233" lon="4.68644">
        <ele>208</ele>
        <time>2017-05-05T08:45:50Z</time>
      </trkpt>
      <trkpt lat="45.98234" lon="4.6864">
        <ele>208</ele>
        <time>2017-05-05T08:45:51Z</time>
      </trkpt>
      <trkpt lat="45.98236" lon="4.68631">
        <ele>208</ele>
        <time>2017-05-05T08:45:53Z</time>
      </trkpt>
      <trkpt lat="45.98236" lon="4.68627">
        <ele>208</ele>
        <time>2017-05-05T08:45:54Z</time>
      </trkpt>
      <trkpt lat="45.98235" lon="4.68614">
        <ele>208</ele>
        <time>2017-05-05T08:45:57Z</time>
      </trkpt>
      <trkpt lat="45.98235" lon="4.6861">
        <ele>209</ele>
        <time>2017-05-05T08:45:58Z</time>
      </trkpt>
      <trkpt lat="45.98234" lon="4.68599">
        <ele>209</ele>
        <time>2017-05-05T08:46:01Z</time>
      </trkpt>
      <trkpt lat="45.98233" lon="4.68595">
        <ele>209</ele>
        <time>2017-05-05T08:46:02Z</time>
      </trkpt>
      <trkpt lat="45.98232" lon="4.68582">
        <ele>210</ele>
        <time>2017-05-05T08:46:05Z</time>
      </trkpt>
      <trkpt lat="45.98232" lon="4.68578">
        <ele>210</ele>
        <time>2017-05-05T08:46:06Z</time>
      </trkpt>
      <trkpt lat="45.98231" lon="4.68567">
        <ele>210</ele>
        <time>2017-05-05T08:46:09Z</time>
      </trkpt>
      <trkpt lat="45.98231" lon="4.68563">
        <ele>210</ele>
        <time>2017-05-05T08:46:10Z</time>
      </trkpt>
      <trkpt lat="45.98231" lon="4.68552">
        <ele>210</ele>
        <time>2017-05-05T08:46:13Z</time>
      </trkpt>
      <trkpt lat="45.9823" lon="4.68548">
        <ele>210</ele>
        <time>2017-05-05T08:46:14Z</time>
      </trkpt>
      <trkpt lat="45.9823" lon="4.68537">
        <ele>210</ele>
        <time>2017-05-05T08:46:17Z</time>
      </trkpt>
      <trkpt lat="45.9823" lon="4.68533">
        <ele>210</ele>
        <time>2017-05-05T08:46:18Z</time>
      </trkpt>
      <trkpt lat="45.98229" lon="4.6852">
        <ele>211</ele>
        <time>2017-05-05T08:46:21Z</time>
      </trkpt>
      <trkpt lat="45.98229" lon="4.68516">
        <ele>211</ele>
        <time>2017-05-05T08:46:22Z</time>
      </trkpt>
      <trkpt lat="45.98229" lon="4.68505">
        <ele>211</ele>
        <time>2017-05-05T08:46:25Z</time>
      </trkpt>
      <trkpt lat="45.98229" lon="4.68502">
        <ele>211</ele>
        <time>2017-05-05T08:46:26Z</time>
      </trkpt>
      <trkpt lat="45.9823" lon="4.6849">
        <ele>213</ele>
        <time>2017-05-05T08:46:30Z</time>
      </trkpt>
      <trkpt lat="45.9823" lon="4.68486">
        <ele>213</ele>
        <time>2017-05-05T08:46:31Z</time>
      </trkpt>
      <trkpt lat="45.9823" lon="4.68476">
        <ele>213</ele>
        <time>2017-05-05T08:46:34Z</time>
      </trkpt>
      <trkpt lat="45.9823" lon="4.68472">
        <ele>213</ele>
        <time>2017-05-05T08:46:35Z</time>
      </trkpt>
      <trkpt lat="45.98231" lon="4.68461">
        <ele>213</ele>
        <time>2017-05-05T08:46:38Z</time>
      </trkpt>
      <trkpt lat="45.98231" lon="4.68458">
        <ele>213</ele>
        <time>2017-05-05T08:46:39Z</time>
      </trkpt>
      <trkpt lat="45.98232" lon="4.68447">
        <ele>214</ele>
        <time>2017-05-05T08:46:42Z</time>
      </trkpt>
      <trkpt lat="45.98232" lon="4.68444">
        <ele>214</ele>
        <time>2017-05-05T08:46:43Z</time>
      </trkpt>
      <trkpt lat="45.98231" lon="4.68432">
        <ele>214</ele>
        <time>2017-05-05T08:46:46Z</time>
      </trkpt>
      <trkpt lat="45.98231" lon="4.68429">
        <ele>214</ele>
        <time>2017-05-05T08:46:47Z</time>
      </trkpt>
      <trkpt lat="45.9823" lon="4.68419">
        <ele>215</ele>
        <time>2017-05-05T08:46:50Z</time>
      </trkpt>
      <trkpt lat="45.9823" lon="4.68415">
        <ele>217</ele>
        <time>2017-05-05T08:46:51Z</time>
      </trkpt>
      <trkpt lat="45.98232" lon="4.68404">
        <ele>217</ele>
        <time>2017-05-05T08:46:54Z</time>
      </trkpt>
      <trkpt lat="45.98233" lon="4.68401">
        <ele>217</ele>
        <time>2017-05-05T08:46:55Z</time>
      </trkpt>
      <trkpt lat="45.98234" lon="4.68391">
        <ele>217</ele>
        <time>2017-05-05T08:46:58Z</time>
      </trkpt>
      <trkpt lat="45.98235" lon="4.68387">
        <ele>217</ele>
        <time>2017-05-05T08:46:59Z</time>
      </trkpt>
      <trkpt lat="45.98235" lon="4.68376">
        <ele>217</ele>
        <time>2017-05-05T08:47:02Z</time>
      </trkpt>
      <trkpt lat="45.98235" lon="4.68373">
        <ele>218</ele>
        <time>2017-05-05T08:47:03Z</time>
      </trkpt>
      <trkpt lat="45.98235" lon="4.68362">
        <ele>218</ele>
        <time>2017-05-05T08:47:06Z</time>
      </trkpt>
      <trkpt lat="45.98235" lon="4.68359">
        <ele>218</ele>
        <time>2017-05-05T08:47:07Z</time>
      </trkpt>
      <trkpt lat="45.98235" lon="4.68346">
        <ele>218</ele>
        <time>2017-05-05T08:47:11Z</time>
      </trkpt>
      <trkpt lat="45.98235" lon="4.68342">
        <ele>219</ele>
        <time>2017-05-05T08:47:12Z</time>
      </trkpt>
      <trkpt lat="45.98235" lon="4.68331">
        <ele>221</ele>
        <time>2017-05-05T08:47:15Z</time>
      </trkpt>
      <trkpt lat="45.98234" lon="4.68327">
        <ele>221</ele>
        <time>2017-05-05T08:47:16Z</time>
      </trkpt>
      <trkpt lat="45.98234" lon="4.68316">
        <ele>221</ele>
        <time>2017-05-05T08:47:19Z</time>
      </trkpt>
      <trkpt lat="45.98233" lon="4.68312">
        <ele>221</ele>
        <time>2017-05-05T08:47:20Z</time>
      </trkpt>
      <trkpt lat="45.98231" lon="4.683">
        <ele>221</ele>
        <time>2017-05-05T08:47:23Z</time>
      </trkpt>
      <trkpt lat="45.98231" lon="4.68297">
        <ele>222</ele>
        <time>2017-05-05T08:47:24Z</time>
      </trkpt>
      <trkpt lat="45.98231" lon="4.68288">
        <ele>222</ele>
        <time>2017-05-05T08:47:27Z</time>
      </trkpt>
      <trkpt lat="45.9823" lon="4.68284">
        <ele>222</ele>
        <time>2017-05-05T08:47:28Z</time>
      </trkpt>
      <trkpt lat="45.98228" lon="4.68272">
        <ele>222</ele>
        <time>2017-05-05T08:47:31Z</time>
      </trkpt>
      <trkpt lat="45.98228" lon="4.68268">
        <ele>223</ele>
        <time>2017-05-05T08:47:32Z</time>
      </trkpt>
      <trkpt lat="45.98226" lon="4.68257">
        <ele>223</ele>
        <time>2017-05-05T08:47:35Z</time>
      </trkpt>
      <trkpt lat="45.98225" lon="4.68254">
        <ele>223</ele>
        <time>2017-05-05T08:47:36Z</time>
      </trkpt>
      <trkpt lat="45.98225" lon="4.68245">
        <ele>225</ele>
        <time>2017-05-05T08:47:39Z</time>
      </trkpt>
      <trkpt lat="45.98225" lon="4.68241">
        <ele>225</ele>
        <time>2017-05-05T08:47:40Z</time>
      </trkpt>
      <trkpt lat="45.98223" lon="4.68229">
        <ele>226</ele>
        <time>2017-05-05T08:47:43Z</time>
      </trkpt>
      <trkpt lat="45.98222" lon="4.68225">
        <ele>226</ele>
        <time>2017-05-05T08:47:44Z</time>
      </trkpt>
      <trkpt lat="45.98222" lon="4.68213">
        <ele>226</ele>
        <time>2017-05-05T08:47:47Z</time>
      </trkpt>
      <trkpt lat="45.98222" lon="4.68209">
        <ele>226</ele>
        <time>2017-05-05T08:47:48Z</time>
      </trkpt>
      <trkpt lat="45.98221" lon="4.68199">
        <ele>226</ele>
        <time>2017-05-05T08:47:52Z</time>
      </trkpt>
      <trkpt lat="45.98221" lon="4.68196">
        <ele>226</ele>
        <time>2017-05-05T08:47:53Z</time>
      </trkpt>
      <trkpt lat="45.98223" lon="4.68184">
        <ele>227</ele>
        <time>2017-05-05T08:47:57Z</time>
      </trkpt>
      <trkpt lat="45.98224" lon="4.68181">
        <ele>227</ele>
        <time>2017-05-05T08:47:58Z</time>
      </trkpt>
      <trkpt lat="45.98226" lon="4.68171">
        <ele>227</ele>
        <time>2017-05-05T08:48:01Z</time>
      </trkpt>
      <trkpt lat="45.98226" lon="4.68168">
        <ele>227</ele>
        <time>2017-05-05T08:48:02Z</time>
      </trkpt>
      <trkpt lat="45.98226" lon="4.68157">
        <ele>228</ele>
        <time>2017-05-05T08:48:05Z</time>
      </trkpt>
      <trkpt lat="45.98226" lon="4.68153">
        <ele>228</ele>
        <time>2017-05-05T08:48:06Z</time>
      </trkpt>
      <trkpt lat="45.98225" lon="4.68141">
        <ele>228</ele>
        <time>2017-05-05T08:48:09Z</time>
      </trkpt>
      <trkpt lat="45.98225" lon="4.68138">
        <ele>228</ele>
        <time>2017-05-05T08:48:10Z</time>
      </trkpt>
      <trkpt lat="45.98225" lon="4.68127">
        <ele>228</ele>
        <time>2017-05-05T08:48:13Z</time>
      </trkpt>
      <trkpt lat="45.98224" lon="4.68123">
        <ele>228</ele>
        <time>2017-05-05T08:48:14Z</time>
      </trkpt>
      <trkpt lat="45.98223" lon="4.68111">
        <ele>228</ele>
        <time>2017-05-05T08:48:17Z</time>
      </trkpt>
      <trkpt lat="45.98223" lon="4.68107">
        <ele>228</ele>
        <time>2017-05-05T08:48:18Z</time>
      </trkpt>
      <trkpt lat="45.98222" lon="4.68094">
        <ele>228</ele>
        <time>2017-05-05T08:48:21Z</time>
      </trkpt>
      <trkpt lat="45.98223" lon="4.6809">
        <ele>228</ele>
        <time>2017-05-05T08:48:22Z</time>
      </trkpt>
      <trkpt lat="45.98225" lon="4.68078">
        <ele>228</ele>
        <time>2017-05-05T08:48:25Z</time>
      </trkpt>
      <trkpt lat="45.98225" lon="4.68074">
        <ele>228</ele>
        <time>2017-05-05T08:48:26Z</time>
      </trkpt>
      <trkpt lat="45.98224" lon="4.68062">
        <ele>228</ele>
        <time>2017-05-05T08:48:29Z</time>
      </trkpt>
      <trkpt lat="45.98225" lon="4.68058">
        <ele>228</ele>
        <time>2017-05-05T08:48:30Z</time>
      </trkpt>
      <trkpt lat="45.98225" lon="4.68047">
        <ele>228</ele>
        <time>2017-05-05T08:48:33Z</time>
      </trkpt>
      <trkpt lat="45.98225" lon="4.68043">
        <ele>228</ele>
        <time>2017-05-05T08:48:34Z</time>
      </trkpt>
      <trkpt lat="45.98225" lon="4.68031">
        <ele>228</ele>
        <time>2017-05-05T08:48:37Z</time>
      </trkpt>
      <trkpt lat="45.98225" lon="4.68027">
        <ele>228</ele>
        <time>2017-05-05T08:48:38Z</time>
      </trkpt>
      <trkpt lat="45.98225" lon="4.68016">
        <ele>228</ele>
        <time>2017-05-05T08:48:41Z</time>
      </trkpt>
      <trkpt lat="45.98224" lon="4.68012">
        <ele>228</ele>
        <time>2017-05-05T08:48:42Z</time>
      </trkpt>
      <trkpt lat="45.98224" lon="4.68001">
        <ele>228</ele>
        <time>2017-05-05T08:48:45Z</time>
      </trkpt>
      <trkpt lat="45.98224" lon="4.67997">
        <ele>229</ele>
        <time>2017-05-05T08:48:46Z</time>
      </trkpt>
      <trkpt lat="45.98224" lon="4.67986">
        <ele>229</ele>
        <time>2017-05-05T08:48:49Z</time>
      </trkpt>
      <trkpt lat="45.98224" lon="4.67982">
        <ele>229</ele>
        <time>2017-05-05T08:48:50Z</time>
      </trkpt>
      <trkpt lat="45.98223" lon="4.67972">
        <ele>229</ele>
        <time>2017-05-05T08:48:53Z</time>
      </trkpt>
      <trkpt lat="45.98223" lon="4.67968">
        <ele>229</ele>
        <time>2017-05-05T08:48:54Z</time>
      </trkpt>
      <trkpt lat="45.98221" lon="4.67956">
        <ele>229</ele>
        <time>2017-05-05T08:48:57Z</time>
      </trkpt>
      <trkpt lat="45.98221" lon="4.67953">
        <ele>229</ele>
        <time>2017-05-05T08:48:58Z</time>
      </trkpt>
      <trkpt lat="45.9822" lon="4.67941">
        <ele>229</ele>
        <time>2017-05-05T08:49:01Z</time>
      </trkpt>
      <trkpt lat="45.98219" lon="4.67938">
        <ele>230</ele>
        <time>2017-05-05T08:49:02Z</time>
      </trkpt>
      <trkpt lat="45.98218" lon="4.67926">
        <ele>230</ele>
        <time>2017-05-05T08:49:05Z</time>
      </trkpt>
      <trkpt lat="45.98218" lon="4.67922">
        <ele>230</ele>
        <time>2017-05-05T08:49:06Z</time>
      </trkpt>
      <trkpt lat="45.98216" lon="4.67912">
        <ele>232</ele>
        <time>2017-05-05T08:49:09Z</time>
      </trkpt>
      <trkpt lat="45.98216" lon="4.67909">
        <ele>232</ele>
        <time>2017-05-05T08:49:10Z</time>
      </trkpt>
      <trkpt lat="45.98215" lon="4.67897">
        <ele>232</ele>
        <time>2017-05-05T08:49:13Z</time>
      </trkpt>
      <trkpt lat="45.98215" lon="4.67893">
        <ele>232</ele>
        <time>2017-05-05T08:49:14Z</time>
      </trkpt>
      <trkpt lat="45.98214" lon="4.67881">
        <ele>233</ele>
        <time>2017-05-05T08:49:17Z</time>
      </trkpt>
      <trkpt lat="45.98214" lon="4.67877">
        <ele>233</ele>
        <time>2017-05-05T08:49:18Z</time>
      </trkpt>
      <trkpt lat="45.98213" lon="4.67865">
        <ele>233</ele>
        <time>2017-05-05T08:49:21Z</time>
      </trkpt>
      <trkpt lat="45.98212" lon="4.67861">
        <ele>233</ele>
        <time>2017-05-05T08:49:22Z</time>
      </trkpt>
      <trkpt lat="45.98212" lon="4.67849">
        <ele>233</ele>
        <time>2017-05-05T08:49:25Z</time>
      </trkpt>
      <trkpt lat="45.98213" lon="4.67845">
        <ele>233</ele>
        <time>2017-05-05T08:49:26Z</time>
      </trkpt>
      <trkpt lat="45.98214" lon="4.67834">
        <ele>234</ele>
        <time>2017-05-05T08:49:29Z</time>
      </trkpt>
      <trkpt lat="45.98214" lon="4.6783">
        <ele>237</ele>
        <time>2017-05-05T08:49:30Z</time>
      </trkpt>
      <trkpt lat="45.98216" lon="4.67819">
        <ele>237</ele>
        <time>2017-05-05T08:49:33Z</time>
      </trkpt>
      <trkpt lat="45.98216" lon="4.67816">
        <ele>237</ele>
        <time>2017-05-05T08:49:34Z</time>
      </trkpt>
      <trkpt lat="45.98218" lon="4.67807">
        <ele>237</ele>
        <time>2017-05-05T08:49:37Z</time>
      </trkpt>
      <trkpt lat="45.98219" lon="4.67803">
        <ele>238</ele>
        <time>2017-05-05T08:49:38Z</time>
      </trkpt>
      <trkpt lat="45.98222" lon="4.67793">
        <ele>238</ele>
        <time>2017-05-05T08:49:41Z</time>
      </trkpt>
      <trkpt lat="45.98222" lon="4.67789">
        <ele>238</ele>
        <time>2017-05-05T08:49:42Z</time>
      </trkpt>
      <trkpt lat="45.98225" lon="4.6778">
        <ele>239</ele>
        <time>2017-05-05T08:49:45Z</time>
      </trkpt>
      <trkpt lat="45.98226" lon="4.67776">
        <ele>239</ele>
        <time>2017-05-05T08:49:46Z</time>
      </trkpt>
      <trkpt lat="45.98229" lon="4.67765">
        <ele>239</ele>
        <time>2017-05-05T08:49:49Z</time>
      </trkpt>
      <trkpt lat="45.98229" lon="4.67761">
        <ele>239</ele>
        <time>2017-05-05T08:49:50Z</time>
      </trkpt>
      <trkpt lat="45.98231" lon="4.67751">
        <ele>240</ele>
        <time>2017-05-05T08:49:53Z</time>
      </trkpt>
      <trkpt lat="45.98232" lon="4.67748">
        <ele>242</ele>
        <time>2017-05-05T08:49:54Z</time>
      </trkpt>
      <trkpt lat="45.98232" lon="4.67735">
        <ele>242</ele>
        <time>2017-05-05T08:49:57Z</time>
      </trkpt>
      <trkpt lat="45.98232" lon="4.67731">
        <ele>242</ele>
        <time>2017-05-05T08:49:58Z</time>
      </trkpt>
      <trkpt lat="45.98233" lon="4.67721">
        <ele>243</ele>
        <time>2017-05-05T08:50:01Z</time>
      </trkpt>
      <trkpt lat="45.98233" lon="4.67717">
        <ele>243</ele>
        <time>2017-05-05T08:50:02Z</time>
      </trkpt>
      <trkpt lat="45.98232" lon="4.67707">
        <ele>243</ele>
        <time>2017-05-05T08:50:05Z</time>
      </trkpt>
      <trkpt lat="45.98231" lon="4.67702">
        <ele>243</ele>
        <time>2017-05-05T08:50:06Z</time>
      </trkpt>
      <trkpt lat="45.9823" lon="4.6769">
        <ele>244</ele>
        <time>2017-05-05T08:50:09Z</time>
      </trkpt>
      <trkpt lat="45.98229" lon="4.67687">
        <ele>244</ele>
        <time>2017-05-05T08:50:10Z</time>
      </trkpt>
      <trkpt lat="45.98228" lon="4.67677">
        <ele>244</ele>
        <time>2017-05-05T08:50:13Z</time>
      </trkpt>
      <trkpt lat="45.98228" lon="4.67673">
        <ele>244</ele>
        <time>2017-05-05T08:50:14Z</time>
      </trkpt>
      <trkpt lat="45.98226" lon="4.67662">
        <ele>246</ele>
        <time>2017-05-05T08:50:17Z</time>
      </trkpt>
      <trkpt lat="45.98225" lon="4.67659">
        <ele>246</ele>
        <time>2017-05-05T08:50:18Z</time>
      </trkpt>
      <trkpt lat="45.98223" lon="4.6765">
        <ele>246</ele>
        <time>2017-05-05T08:50:21Z</time>
      </trkpt>
      <trkpt lat="45.98223" lon="4.67646">
        <ele>246</ele>
        <time>2017-05-05T08:50:22Z</time>
      </trkpt>
      <trkpt lat="45.9822" lon="4.67634">
        <ele>246</ele>
        <time>2017-05-05T08:50:26Z</time>
      </trkpt>
      <trkpt lat="45.9822" lon="4.67631">
        <ele>246</ele>
        <time>2017-05-05T08:50:27Z</time>
      </trkpt>
      <trkpt lat="45.98218" lon="4.67621">
        <ele>246</ele>
        <time>2017-05-05T08:50:30Z</time>
      </trkpt>
      <trkpt lat="45.98218" lon="4.67618">
        <ele>246</ele>
        <time>2017-05-05T08:50:31Z</time>
      </trkpt>
      <trkpt lat="45.98217" lon="4.67608">
        <ele>246</ele>
        <time>2017-05-05T08:50:34Z</time>
      </trkpt>
      <trkpt lat="45.98217" lon="4.67604">
        <ele>246</ele>
        <time>2017-05-05T08:50:35Z</time>
      </trkpt>
      <trkpt lat="45.98215" lon="4.67594">
        <ele>246</ele>
        <time>2017-05-05T08:50:38Z</time>
      </trkpt>
      <trkpt lat="45.98215" lon="4.67591">
        <ele>246</ele>
        <time>2017-05-05T08:50:39Z</time>
      </trkpt>
      <trkpt lat="45.98214" lon="4.67581">
        <ele>247</ele>
        <time>2017-05-05T08:50:42Z</time>
      </trkpt>
      <trkpt lat="45.98214" lon="4.67578">
        <ele>247</ele>
        <time>2017-05-05T08:50:43Z</time>
      </trkpt>
      <trkpt lat="45.98211" lon="4.67567">
        <ele>247</ele>
        <time>2017-05-05T08:50:46Z</time>
      </trkpt>
      <trkpt lat="45.9821" lon="4.67563">
        <ele>247</ele>
        <time>2017-05-05T08:50:47Z</time>
      </trkpt>
      <trkpt lat="45.98209" lon="4.67554">
        <ele>247</ele>
        <time>2017-05-05T08:50:49Z</time>
      </trkpt>
      <trkpt lat="45.98209" lon="4.6755">
        <ele>247</ele>
        <time>2017-05-05T08:50:50Z</time>
      </trkpt>
      <trkpt lat="45.98208" lon="4.67539">
        <ele>247</ele>
        <time>2017-05-05T08:50:53Z</time>
      </trkpt>
      <trkpt lat="45.98208" lon="4.67536">
        <ele>247</ele>
        <time>2017-05-05T08:50:54Z</time>
      </trkpt>
      <trkpt lat="45.98207" lon="4.67527">
        <ele>247</ele>
        <time>2017-05-05T08:50:56Z</time>
      </trkpt>
      <trkpt lat="45.98207" lon="4.67522">
        <ele>247</ele>
        <time>2017-05-05T08:50:57Z</time>
      </trkpt>
      <trkpt lat="45.98206" lon="4.67512">
        <ele>247</ele>
        <time>2017-05-05T08:50:59Z</time>
      </trkpt>
      <trkpt lat="45.98205" lon="4.67507">
        <ele>247</ele>
        <time>2017-05-05T08:51:00Z</time>
      </trkpt>
      <trkpt lat="45.98205" lon="4.67496">
        <ele>247</ele>
        <time>2017-05-05T08:51:02Z</time>
      </trkpt>
      <trkpt lat="45.98204" lon="4.67491">
        <ele>247</ele>
        <time>2017-05-05T08:51:03Z</time>
      </trkpt>
      <trkpt lat="45.98204" lon="4.67479">
        <ele>247</ele>
        <time>2017-05-05T08:51:06Z</time>
      </trkpt>
      <trkpt lat="45.98204" lon="4.67475">
        <ele>247</ele>
        <time>2017-05-05T08:51:07Z</time>
      </trkpt>
      <trkpt lat="45.98203" lon="4.67463">
        <ele>247</ele>
        <time>2017-05-05T08:51:10Z</time>
      </trkpt>
      <trkpt lat="45.98203" lon="4.67459">
        <ele>247</ele>
        <time>2017-05-05T08:51:11Z</time>
      </trkpt>
      <trkpt lat="45.98203" lon="4.67447">
        <ele>247</ele>
        <time>2017-05-05T08:51:14Z</time>
      </trkpt>
      <trkpt lat="45.98203" lon="4.67443">
        <ele>247</ele>
        <time>2017-05-05T08:51:15Z</time>
      </trkpt>
      <trkpt lat="45.98203" lon="4.67431">
        <ele>247</ele>
        <time>2017-05-05T08:51:18Z</time>
      </trkpt>
      <trkpt lat="45.98203" lon="4.67427">
        <ele>247</ele>
        <time>2017-05-05T08:51:19Z</time>
      </trkpt>
      <trkpt lat="45.98202" lon="4.67415">
        <ele>248</ele>
        <time>2017-05-05T08:51:22Z</time>
      </trkpt>
      <trkpt lat="45.98202" lon="4.67411">
        <ele>248</ele>
        <time>2017-05-05T08:51:23Z</time>
      </trkpt>
      <trkpt lat="45.98201" lon="4.67398">
        <ele>248</ele>
        <time>2017-05-05T08:51:26Z</time>
      </trkpt>
      <trkpt lat="45.98202" lon="4.67393">
        <ele>248</ele>
        <time>2017-05-05T08:51:27Z</time>
      </trkpt>
      <trkpt lat="45.98202" lon="4.67382">
        <ele>248</ele>
        <time>2017-05-05T08:51:29Z</time>
      </trkpt>
      <trkpt lat="45.98202" lon="4.67377">
        <ele>248</ele>
        <time>2017-05-05T08:51:30Z</time>
      </trkpt>
      <trkpt lat="45.98202" lon="4.67366">
        <ele>248</ele>
        <time>2017-05-05T08:51:32Z</time>
      </trkpt>
      <trkpt lat="45.98202" lon="4.67361">
        <ele>248</ele>
        <time>2017-05-05T08:51:33Z</time>
      </trkpt>
      <trkpt lat="45.98202" lon="4.67351">
        <ele>248</ele>
        <time>2017-05-05T08:51:35Z</time>
      </trkpt>
      <trkpt lat="45.98201" lon="4.67347">
        <ele>248</ele>
        <time>2017-05-05T08:51:36Z</time>
      </trkpt>
      <trkpt lat="45.98201" lon="4.67334">
        <ele>248</ele>
        <time>2017-05-05T08:51:39Z</time>
      </trkpt>
      <trkpt lat="45.98201" lon="4.6733">
        <ele>249</ele>
        <time>2017-05-05T08:51:40Z</time>
      </trkpt>
      <trkpt lat="45.982" lon="4.67318">
        <ele>249</ele>
        <time>2017-05-05T08:51:43Z</time>
      </trkpt>
      <trkpt lat="45.982" lon="4.67313">
        <ele>249</ele>
        <time>2017-05-05T08:51:44Z</time>
      </trkpt>
      <trkpt lat="45.982" lon="4.67301">
        <ele>249</ele>
        <time>2017-05-05T08:51:46Z</time>
      </trkpt>
      <trkpt lat="45.982" lon="4.67295">
        <ele>249</ele>
        <time>2017-05-05T08:51:47Z</time>
      </trkpt>
      <trkpt lat="45.98199" lon="4.67285">
        <ele>249</ele>
        <time>2017-05-05T08:51:49Z</time>
      </trkpt>
      <trkpt lat="45.98199" lon="4.6728">
        <ele>249</ele>
        <time>2017-05-05T08:51:50Z</time>
      </trkpt>
      <trkpt lat="45.98198" lon="4.6727">
        <ele>249</ele>
        <time>2017-05-05T08:51:52Z</time>
      </trkpt>
      <trkpt lat="45.98197" lon="4.67265">
        <ele>250</ele>
        <time>2017-05-05T08:51:53Z</time>
      </trkpt>
      <trkpt lat="45.98196" lon="4.67256">
        <ele>250</ele>
        <time>2017-05-05T08:51:55Z</time>
      </trkpt>
      <trkpt lat="45.98196" lon="4.67251">
        <ele>250</ele>
        <time>2017-05-05T08:51:56Z</time>
      </trkpt>
      <trkpt lat="45.98195" lon="4.67241">
        <ele>250</ele>
        <time>2017-05-05T08:51:58Z</time>
      </trkpt>
      <trkpt lat="45.98194" lon="4.67236">
        <ele>250</ele>
        <time>2017-05-05T08:51:59Z</time>
      </trkpt>
      <trkpt lat="45.98192" lon="4.67226">
        <ele>250</ele>
        <time>2017-05-05T08:52:01Z</time>
      </trkpt>
      <trkpt lat="45.98191" lon="4.6722">
        <ele>250</ele>
        <time>2017-05-05T08:52:02Z</time>
      </trkpt>
      <trkpt lat="45.98189" lon="4.67209">
        <ele>250</ele>
        <time>2017-05-05T08:52:04Z</time>
      </trkpt>
      <trkpt lat="45.98188" lon="4.67204">
        <ele>250</ele>
        <time>2017-05-05T08:52:05Z</time>
      </trkpt>
      <trkpt lat="45.98186" lon="4.67195">
        <ele>250</ele>
        <time>2017-05-05T08:52:07Z</time>
      </trkpt>
      <trkpt lat="45.98185" lon="4.6719">
        <ele>250</ele>
        <time>2017-05-05T08:52:08Z</time>
      </trkpt>
      <trkpt lat="45.98183" lon="4.67181">
        <ele>250</ele>
        <time>2017-05-05T08:52:10Z</time>
      </trkpt>
      <trkpt lat="45.98181" lon="4.67175">
        <ele>250</ele>
        <time>2017-05-05T08:52:11Z</time>
      </trkpt>
      <trkpt lat="45.98177" lon="4.67164">
        <ele>250</ele>
        <time>2017-05-05T08:52:13Z</time>
      </trkpt>
      <trkpt lat="45.98176" lon="4.67158">
        <ele>250</ele>
        <time>2017-05-05T08:52:14Z</time>
      </trkpt>
      <trkpt lat="45.98172" lon="4.67146">
        <ele>249</ele>
        <time>2017-05-05T08:52:16Z</time>
      </trkpt>
      <trkpt lat="45.98171" lon="4.6714">
        <ele>249</ele>
        <time>2017-05-05T08:52:17Z</time>
      </trkpt>
      <trkpt lat="45.98168" lon="4.67129">
        <ele>249</ele>
        <time>2017-05-05T08:52:19Z</time>
      </trkpt>
      <trkpt lat="45.98166" lon="4.67124">
        <ele>251</ele>
        <time>2017-05-05T08:52:20Z</time>
      </trkpt>
      <trkpt lat="45.98163" lon="4.67114">
        <ele>251</ele>
        <time>2017-05-05T08:52:22Z</time>
      </trkpt>
      <trkpt lat="45.98161" lon="4.67109">
        <ele>251</ele>
        <time>2017-05-05T08:52:23Z</time>
      </trkpt>
      <trkpt lat="45.98158" lon="4.67098">
        <ele>251</ele>
        <time>2017-05-05T08:52:25Z</time>
      </trkpt>
      <trkpt lat="45.98156" lon="4.67092">
        <ele>251</ele>
        <time>2017-05-05T08:52:26Z</time>
      </trkpt>
      <trkpt lat="45.98152" lon="4.67081">
        <ele>251</ele>
        <time>2017-05-05T08:52:28Z</time>
      </trkpt>
      <trkpt lat="45.98151" lon="4.67074">
        <ele>251</ele>
        <time>2017-05-05T08:52:29Z</time>
      </trkpt>
      <trkpt lat="45.98149" lon="4.67068">
        <ele>251</ele>
        <time>2017-05-05T08:52:30Z</time>
      </trkpt>
      <trkpt lat="45.98147" lon="4.67062">
        <ele>251</ele>
        <time>2017-05-05T08:52:31Z</time>
      </trkpt>
      <trkpt lat="45.98145" lon="4.6705">
        <ele>251</ele>
        <time>2017-05-05T08:52:33Z</time>
      </trkpt>
      <trkpt lat="45.98144" lon="4.67044">
        <ele>251</ele>
        <time>2017-05-05T08:52:34Z</time>
      </trkpt>
      <trkpt lat="45.98142" lon="4.67032">
        <ele>251</ele>
        <time>2017-05-05T08:52:36Z</time>
      </trkpt>
      <trkpt lat="45.98141" lon="4.67027">
        <ele>251</ele>
        <time>2017-05-05T08:52:37Z</time>
      </trkpt>
      <trkpt lat="45.98141" lon="4.67014">
        <ele>251</ele>
        <time>2017-05-05T08:52:39Z</time>
      </trkpt>
      <trkpt lat="45.9814" lon="4.67007">
        <ele>251</ele>
        <time>2017-05-05T08:52:40Z</time>
      </trkpt>
      <trkpt lat="45.9814" lon="4.67">
        <ele>253</ele>
        <time>2017-05-05T08:52:41Z</time>
      </trkpt>
      <trkpt lat="45.9814" lon="4.66993">
        <ele>253</ele>
        <time>2017-05-05T08:52:42Z</time>
      </trkpt>
      <trkpt lat="45.9814" lon="4.66985">
        <ele>253</ele>
        <time>2017-05-05T08:52:43Z</time>
      </trkpt>
      <trkpt lat="45.9814" lon="4.66978">
        <ele>253</ele>
        <time>2017-05-05T08:52:44Z</time>
      </trkpt>
      <trkpt lat="45.9814" lon="4.66971">
        <ele>253</ele>
        <time>2017-05-05T08:52:45Z</time>
      </trkpt>
      <trkpt lat="45.9814" lon="4.66964">
        <ele>253</ele>
        <time>2017-05-05T08:52:46Z</time>
      </trkpt>
      <trkpt lat="45.9814" lon="4.66953">
        <ele>253</ele>
        <time>2017-05-05T08:52:48Z</time>
      </trkpt>
      <trkpt lat="45.9814" lon="4.66947">
        <ele>253</ele>
        <time>2017-05-05T08:52:49Z</time>
      </trkpt>
      <trkpt lat="45.98139" lon="4.66937">
        <ele>253</ele>
        <time>2017-05-05T08:52:51Z</time>
      </trkpt>
      <trkpt lat="45.98139" lon="4.66932">
        <ele>253</ele>
        <time>2017-05-05T08:52:52Z</time>
      </trkpt>
      <trkpt lat="45.98139" lon="4.6692">
        <ele>253</ele>
        <time>2017-05-05T08:52:54Z</time>
      </trkpt>
      <trkpt lat="45.98139" lon="4.66913">
        <ele>254</ele>
        <time>2017-05-05T08:52:55Z</time>
      </trkpt>
      <trkpt lat="45.98138" lon="4.66907">
        <ele>254</ele>
        <time>2017-05-05T08:52:56Z</time>
      </trkpt>
      <trkpt lat="45.98138" lon="4.669">
        <ele>254</ele>
        <time>2017-05-05T08:52:57Z</time>
      </trkpt>
      <trkpt lat="45.98137" lon="4.66893">
        <ele>254</ele>
        <time>2017-05-05T08:52:58Z</time>
      </trkpt>
      <trkpt lat="45.98136" lon="4.66886">
        <ele>254</ele>
        <time>2017-05-05T08:52:59Z</time>
      </trkpt>
      <trkpt lat="45.98135" lon="4.66873">
        <ele>254</ele>
        <time>2017-05-05T08:53:01Z</time>
      </trkpt>
      <trkpt lat="45.98134" lon="4.66868">
        <ele>254</ele>
        <time>2017-05-05T08:53:02Z</time>
      </trkpt>
      <trkpt lat="45.98132" lon="4.66858">
        <ele>254</ele>
        <time>2017-05-05T08:53:04Z</time>
      </trkpt>
      <trkpt lat="45.98132" lon="4.66853">
        <ele>254</ele>
        <time>2017-05-05T08:53:05Z</time>
      </trkpt>
      <trkpt lat="45.9813" lon="4.66845">
        <ele>254</ele>
        <time>2017-05-05T08:53:07Z</time>
      </trkpt>
      <trkpt lat="45.9813" lon="4.6684">
        <ele>254</ele>
        <time>2017-05-05T08:53:08Z</time>
      </trkpt>
      <trkpt lat="45.98128" lon="4.66829">
        <ele>254</ele>
        <time>2017-05-05T08:53:10Z</time>
      </trkpt>
      <trkpt lat="45.98127" lon="4.66823">
        <ele>254</ele>
        <time>2017-05-05T08:53:11Z</time>
      </trkpt>
      <trkpt lat="45.98125" lon="4.66811">
        <ele>254</ele>
        <time>2017-05-05T08:53:13Z</time>
      </trkpt>
      <trkpt lat="45.98124" lon="4.66804">
        <ele>254</ele>
        <time>2017-05-05T08:53:14Z</time>
      </trkpt>
      <trkpt lat="45.98123" lon="4.66798">
        <ele>255</ele>
        <time>2017-05-05T08:53:15Z</time>
      </trkpt>
      <trkpt lat="45.98122" lon="4.66791">
        <ele>255</ele>
        <time>2017-05-05T08:53:16Z</time>
      </trkpt>
      <trkpt lat="45.98119" lon="4.6678">
        <ele>255</ele>
        <time>2017-05-05T08:53:18Z</time>
      </trkpt>
      <trkpt lat="45.98118" lon="4.66775">
        <ele>255</ele>
        <time>2017-05-05T08:53:19Z</time>
      </trkpt>
      <trkpt lat="45.98117" lon="4.66766">
        <ele>255</ele>
        <time>2017-05-05T08:53:21Z</time>
      </trkpt>
      <trkpt lat="45.98116" lon="4.66762">
        <ele>255</ele>
        <time>2017-05-05T08:53:22Z</time>
      </trkpt>
      <trkpt lat="45.98114" lon="4.66752">
        <ele>255</ele>
        <time>2017-05-05T08:53:25Z</time>
      </trkpt>
      <trkpt lat="45.98114" lon="4.66748">
        <ele>256</ele>
        <time>2017-05-05T08:53:26Z</time>
      </trkpt>
      <trkpt lat="45.98112" lon="4.6674">
        <ele>256</ele>
        <time>2017-05-05T08:53:28Z</time>
      </trkpt>
      <trkpt lat="45.98111" lon="4.66735">
        <ele>257</ele>
        <time>2017-05-05T08:53:29Z</time>
      </trkpt>
      <trkpt lat="45.98109" lon="4.66725">
        <ele>257</ele>
        <time>2017-05-05T08:53:31Z</time>
      </trkpt>
      <trkpt lat="45.98108" lon="4.66721">
        <ele>257</ele>
        <time>2017-05-05T08:53:32Z</time>
      </trkpt>
      <trkpt lat="45.98106" lon="4.66712">
        <ele>257</ele>
        <time>2017-05-05T08:53:34Z</time>
      </trkpt>
      <trkpt lat="45.98105" lon="4.66708">
        <ele>257</ele>
        <time>2017-05-05T08:53:35Z</time>
      </trkpt>
      <trkpt lat="45.98103" lon="4.66699">
        <ele>257</ele>
        <time>2017-05-05T08:53:37Z</time>
      </trkpt>
      <trkpt lat="45.98102" lon="4.66695">
        <ele>257</ele>
        <time>2017-05-05T08:53:38Z</time>
      </trkpt>
      <trkpt lat="45.98101" lon="4.66686">
        <ele>258</ele>
        <time>2017-05-05T08:53:40Z</time>
      </trkpt>
      <trkpt lat="45.981" lon="4.66681">
        <ele>258</ele>
        <time>2017-05-05T08:53:41Z</time>
      </trkpt>
      <trkpt lat="45.98098" lon="4.66672">
        <ele>258</ele>
        <time>2017-05-05T08:53:43Z</time>
      </trkpt>
      <trkpt lat="45.98097" lon="4.66668">
        <ele>258</ele>
        <time>2017-05-05T08:53:44Z</time>
      </trkpt>
      <trkpt lat="45.98095" lon="4.66659">
        <ele>259</ele>
        <time>2017-05-05T08:53:46Z</time>
      </trkpt>
      <trkpt lat="45.98094" lon="4.66654">
        <ele>259</ele>
        <time>2017-05-05T08:53:47Z</time>
      </trkpt>
      <trkpt lat="45.98092" lon="4.66643">
        <ele>259</ele>
        <time>2017-05-05T08:53:49Z</time>
      </trkpt>
      <trkpt lat="45.98091" lon="4.66638">
        <ele>259</ele>
        <time>2017-05-05T08:53:50Z</time>
      </trkpt>
      <trkpt lat="45.98089" lon="4.66628">
        <ele>259</ele>
        <time>2017-05-05T08:53:52Z</time>
      </trkpt>
      <trkpt lat="45.98088" lon="4.66623">
        <ele>259</ele>
        <time>2017-05-05T08:53:53Z</time>
      </trkpt>
      <trkpt lat="45.98087" lon="4.66614">
        <ele>260</ele>
        <time>2017-05-05T08:53:55Z</time>
      </trkpt>
      <trkpt lat="45.98086" lon="4.6661">
        <ele>260</ele>
        <time>2017-05-05T08:53:56Z</time>
      </trkpt>
      <trkpt lat="45.98083" lon="4.66598">
        <ele>262</ele>
        <time>2017-05-05T08:53:59Z</time>
      </trkpt>
      <trkpt lat="45.98082" lon="4.66594">
        <ele>262</ele>
        <time>2017-05-05T08:54:00Z</time>
      </trkpt>
      <trkpt lat="45.98081" lon="4.66584">
        <ele>262</ele>
        <time>2017-05-05T08:54:02Z</time>
      </trkpt>
      <trkpt lat="45.9808" lon="4.66579">
        <ele>262</ele>
        <time>2017-05-05T08:54:03Z</time>
      </trkpt>
      <trkpt lat="45.98079" lon="4.66568">
        <ele>263</ele>
        <time>2017-05-05T08:54:05Z</time>
      </trkpt>
      <trkpt lat="45.98079" lon="4.66562">
        <ele>263</ele>
        <time>2017-05-05T08:54:06Z</time>
      </trkpt>
      <trkpt lat="45.98077" lon="4.66552">
        <ele>264</ele>
        <time>2017-05-05T08:54:08Z</time>
      </trkpt>
      <trkpt lat="45.98077" lon="4.66547">
        <ele>264</ele>
        <time>2017-05-05T08:54:09Z</time>
      </trkpt>
      <trkpt lat="45.98076" lon="4.66534">
        <ele>264</ele>
        <time>2017-05-05T08:54:12Z</time>
      </trkpt>
      <trkpt lat="45.98076" lon="4.66531">
        <ele>264</ele>
        <time>2017-05-05T08:54:13Z</time>
      </trkpt>
      <trkpt lat="45.98075" lon="4.66518">
        <ele>265</ele>
        <time>2017-05-05T08:54:16Z</time>
      </trkpt>
      <trkpt lat="45.98075" lon="4.66513">
        <ele>265</ele>
        <time>2017-05-05T08:54:17Z</time>
      </trkpt>
      <trkpt lat="45.98074" lon="4.66503">
        <ele>265</ele>
        <time>2017-05-05T08:54:19Z</time>
      </trkpt>
      <trkpt lat="45.98074" lon="4.66498">
        <ele>265</ele>
        <time>2017-05-05T08:54:20Z</time>
      </trkpt>
      <trkpt lat="45.98073" lon="4.66489">
        <ele>265</ele>
        <time>2017-05-05T08:54:22Z</time>
      </trkpt>
      <trkpt lat="45.98073" lon="4.66485">
        <ele>265</ele>
        <time>2017-05-05T08:54:23Z</time>
      </trkpt>
      <trkpt lat="45.98073" lon="4.66473">
        <ele>266</ele>
        <time>2017-05-05T08:54:26Z</time>
      </trkpt>
      <trkpt lat="45.98072" lon="4.66469">
        <ele>266</ele>
        <time>2017-05-05T08:54:27Z</time>
      </trkpt>
      <trkpt lat="45.98071" lon="4.66456">
        <ele>266</ele>
        <time>2017-05-05T08:54:30Z</time>
      </trkpt>
      <trkpt lat="45.98071" lon="4.66452">
        <ele>266</ele>
        <time>2017-05-05T08:54:31Z</time>
      </trkpt>
      <trkpt lat="45.98069" lon="4.6644">
        <ele>266</ele>
        <time>2017-05-05T08:54:34Z</time>
      </trkpt>
      <trkpt lat="45.98068" lon="4.66436">
        <ele>266</ele>
        <time>2017-05-05T08:54:35Z</time>
      </trkpt>
      <trkpt lat="45.98065" lon="4.66425">
        <ele>266</ele>
        <time>2017-05-05T08:54:38Z</time>
      </trkpt>
      <trkpt lat="45.98064" lon="4.66421">
        <ele>266</ele>
        <time>2017-05-05T08:54:39Z</time>
      </trkpt>
      <trkpt lat="45.98061" lon="4.6641">
        <ele>266</ele>
        <time>2017-05-05T08:54:41Z</time>
      </trkpt>
      <trkpt lat="45.9806" lon="4.66405">
        <ele>266</ele>
        <time>2017-05-05T08:54:42Z</time>
      </trkpt>
      <trkpt lat="45.98058" lon="4.66398">
        <ele>266</ele>
        <time>2017-05-05T08:54:43Z</time>
      </trkpt>
      <trkpt lat="45.98056" lon="4.66392">
        <ele>267</ele>
        <time>2017-05-05T08:54:44Z</time>
      </trkpt>
      <trkpt lat="45.98052" lon="4.66381">
        <ele>267</ele>
        <time>2017-05-05T08:54:46Z</time>
      </trkpt>
      <trkpt lat="45.98051" lon="4.66376">
        <ele>267</ele>
        <time>2017-05-05T08:54:47Z</time>
      </trkpt>
      <trkpt lat="45.98047" lon="4.66365">
        <ele>267</ele>
        <time>2017-05-05T08:54:49Z</time>
      </trkpt>
      <trkpt lat="45.98046" lon="4.66361">
        <ele>267</ele>
        <time>2017-05-05T08:54:50Z</time>
      </trkpt>
      <trkpt lat="45.98043" lon="4.66352">
        <ele>267</ele>
        <time>2017-05-05T08:54:52Z</time>
      </trkpt>
      <trkpt lat="45.98042" lon="4.66347">
        <ele>267</ele>
        <time>2017-05-05T08:54:53Z</time>
      </trkpt>
      <trkpt lat="45.98038" lon="4.66337">
        <ele>267</ele>
        <time>2017-05-05T08:54:55Z</time>
      </trkpt>
      <trkpt lat="45.98036" lon="4.66331">
        <ele>268</ele>
        <time>2017-05-05T08:54:56Z</time>
      </trkpt>
      <trkpt lat="45.9803" lon="4.66322">
        <ele>268</ele>
        <time>2017-05-05T08:54:58Z</time>
      </trkpt>
      <trkpt lat="45.98027" lon="4.66317">
        <ele>268</ele>
        <time>2017-05-05T08:54:59Z</time>
      </trkpt>
      <trkpt lat="45.98021" lon="4.66308">
        <ele>268</ele>
        <time>2017-05-05T08:55:01Z</time>
      </trkpt>
      <trkpt lat="45.98017" lon="4.66304">
        <ele>268</ele>
        <time>2017-05-05T08:55:02Z</time>
      </trkpt>
      <trkpt lat="45.98011" lon="4.66295">
        <ele>268</ele>
        <time>2017-05-05T08:55:04Z</time>
      </trkpt>
      <trkpt lat="45.98007" lon="4.66292">
        <ele>268</ele>
        <time>2017-05-05T08:55:05Z</time>
      </trkpt>
      <trkpt lat="45.98" lon="4.66285">
        <ele>268</ele>
        <time>2017-05-05T08:55:07Z</time>
      </trkpt>
      <trkpt lat="45.97997" lon="4.66282">
        <ele>270</ele>
        <time>2017-05-05T08:55:08Z</time>
      </trkpt>
      <trkpt lat="45.97992" lon="4.66276">
        <ele>270</ele>
        <time>2017-05-05T08:55:10Z</time>
      </trkpt>
      <trkpt lat="45.97989" lon="4.66273">
        <ele>270</ele>
        <time>2017-05-05T08:55:11Z</time>
      </trkpt>
      <trkpt lat="45.97982" lon="4.66265">
        <ele>270</ele>
        <time>2017-05-05T08:55:14Z</time>
      </trkpt>
      <trkpt lat="45.9798" lon="4.66262">
        <ele>270</ele>
        <time>2017-05-05T08:55:15Z</time>
      </trkpt>
      <trkpt lat="45.97974" lon="4.66257">
        <ele>270</ele>
        <time>2017-05-05T08:55:17Z</time>
      </trkpt>
      <trkpt lat="45.97971" lon="4.66253">
        <ele>270</ele>
        <time>2017-05-05T08:55:18Z</time>
      </trkpt>
      <trkpt lat="45.97966" lon="4.66246">
        <ele>270</ele>
        <time>2017-05-05T08:55:20Z</time>
      </trkpt>
      <trkpt lat="45.97964" lon="4.66242">
        <ele>270</ele>
        <time>2017-05-05T08:55:21Z</time>
      </trkpt>
      <trkpt lat="45.9796" lon="4.66231">
        <ele>270</ele>
        <time>2017-05-05T08:55:24Z</time>
      </trkpt>
      <trkpt lat="45.97958" lon="4.66227">
        <ele>270</ele>
        <time>2017-05-05T08:55:25Z</time>
      </trkpt>
      <trkpt lat="45.97955" lon="4.66216">
        <ele>270</ele>
        <time>2017-05-05T08:55:28Z</time>
      </trkpt>
      <trkpt lat="45.97954" lon="4.66211">
        <ele>270</ele>
        <time>2017-05-05T08:55:29Z</time>
      </trkpt>
      <trkpt lat="45.97951" lon="4.662">
        <ele>270</ele>
        <time>2017-05-05T08:55:31Z</time>
      </trkpt>
      <trkpt lat="45.97949" lon="4.66195">
        <ele>270</ele>
        <time>2017-05-05T08:55:32Z</time>
      </trkpt>
      <trkpt lat="45.97947" lon="4.66185">
        <ele>270</ele>
        <time>2017-05-05T08:55:34Z</time>
      </trkpt>
      <trkpt lat="45.97946" lon="4.66181">
        <ele>270</ele>
        <time>2017-05-05T08:55:35Z</time>
      </trkpt>
      <trkpt lat="45.97945" lon="4.66172">
        <ele>270</ele>
        <time>2017-05-05T08:55:37Z</time>
      </trkpt>
      <trkpt lat="45.97945" lon="4.66167">
        <ele>270</ele>
        <time>2017-05-05T08:55:38Z</time>
      </trkpt>
      <trkpt lat="45.97943" lon="4.66158">
        <ele>269</ele>
        <time>2017-05-05T08:55:40Z</time>
      </trkpt>
      <trkpt lat="45.97942" lon="4.66153">
        <ele>269</ele>
        <time>2017-05-05T08:55:41Z</time>
      </trkpt>
      <trkpt lat="45.9794" lon="4.66144">
        <ele>269</ele>
        <time>2017-05-05T08:55:43Z</time>
      </trkpt>
      <trkpt lat="45.97939" lon="4.6614">
        <ele>269</ele>
        <time>2017-05-05T08:55:44Z</time>
      </trkpt>
      <trkpt lat="45.97937" lon="4.66131">
        <ele>269</ele>
        <time>2017-05-05T08:55:46Z</time>
      </trkpt>
      <trkpt lat="45.97936" lon="4.66127">
        <ele>269</ele>
        <time>2017-05-05T08:55:47Z</time>
      </trkpt>
      <trkpt lat="45.97934" lon="4.66115">
        <ele>269</ele>
        <time>2017-05-05T08:55:50Z</time>
      </trkpt>
      <trkpt lat="45.97933" lon="4.66112">
        <ele>269</ele>
        <time>2017-05-05T08:55:51Z</time>
      </trkpt>
      <trkpt lat="45.97933" lon="4.66104">
        <ele>270</ele>
        <time>2017-05-05T08:55:53Z</time>
      </trkpt>
      <trkpt lat="45.97932" lon="4.66099">
        <ele>270</ele>
        <time>2017-05-05T08:55:54Z</time>
      </trkpt>
      <trkpt lat="45.97931" lon="4.66087">
        <ele>270</ele>
        <time>2017-05-05T08:55:56Z</time>
      </trkpt>
      <trkpt lat="45.9793" lon="4.66081">
        <ele>270</ele>
        <time>2017-05-05T08:55:57Z</time>
      </trkpt>
      <trkpt lat="45.9793" lon="4.6607">
        <ele>270</ele>
        <time>2017-05-05T08:55:59Z</time>
      </trkpt>
      <trkpt lat="45.9793" lon="4.66065">
        <ele>270</ele>
        <time>2017-05-05T08:56:00Z</time>
      </trkpt>
      <trkpt lat="45.97929" lon="4.66056">
        <ele>270</ele>
        <time>2017-05-05T08:56:02Z</time>
      </trkpt>
      <trkpt lat="45.97929" lon="4.66052">
        <ele>270</ele>
        <time>2017-05-05T08:56:03Z</time>
      </trkpt>
      <trkpt lat="45.97928" lon="4.66043">
        <ele>270</ele>
        <time>2017-05-05T08:56:05Z</time>
      </trkpt>
      <trkpt lat="45.97928" lon="4.66039">
        <ele>270</ele>
        <time>2017-05-05T08:56:06Z</time>
      </trkpt>
      <trkpt lat="45.97929" lon="4.66029">
        <ele>270</ele>
        <time>2017-05-05T08:56:08Z</time>
      </trkpt>
      <trkpt lat="45.97929" lon="4.66024">
        <ele>270</ele>
        <time>2017-05-05T08:56:09Z</time>
      </trkpt>
      <trkpt lat="45.97929" lon="4.66015">
        <ele>271</ele>
        <time>2017-05-05T08:56:11Z</time>
      </trkpt>
      <trkpt lat="45.9793" lon="4.66011">
        <ele>271</ele>
        <time>2017-05-05T08:56:12Z</time>
      </trkpt>
      <trkpt lat="45.9793" lon="4.65998">
        <ele>272</ele>
        <time>2017-05-05T08:56:15Z</time>
      </trkpt>
      <trkpt lat="45.9793" lon="4.65994">
        <ele>272</ele>
        <time>2017-05-05T08:56:16Z</time>
      </trkpt>
      <trkpt lat="45.9793" lon="4.65985">
        <ele>272</ele>
        <time>2017-05-05T08:56:18Z</time>
      </trkpt>
      <trkpt lat="45.9793" lon="4.6598">
        <ele>272</ele>
        <time>2017-05-05T08:56:19Z</time>
      </trkpt>
      <trkpt lat="45.9793" lon="4.65971">
        <ele>272</ele>
        <time>2017-05-05T08:56:21Z</time>
      </trkpt>
      <trkpt lat="45.9793" lon="4.65966">
        <ele>272</ele>
        <time>2017-05-05T08:56:22Z</time>
      </trkpt>
      <trkpt lat="45.97929" lon="4.65954">
        <ele>273</ele>
        <time>2017-05-05T08:56:24Z</time>
      </trkpt>
      <trkpt lat="45.97929" lon="4.65949">
        <ele>273</ele>
        <time>2017-05-05T08:56:25Z</time>
      </trkpt>
      <trkpt lat="45.97928" lon="4.65938">
        <ele>274</ele>
        <time>2017-05-05T08:56:27Z</time>
      </trkpt>
      <trkpt lat="45.97928" lon="4.65933">
        <ele>274</ele>
        <time>2017-05-05T08:56:28Z</time>
      </trkpt>
      <trkpt lat="45.97928" lon="4.65921">
        <ele>275</ele>
        <time>2017-05-05T08:56:30Z</time>
      </trkpt>
      <trkpt lat="45.97928" lon="4.65916">
        <ele>276</ele>
        <time>2017-05-05T08:56:31Z</time>
      </trkpt>
      <trkpt lat="45.97928" lon="4.65906">
        <ele>276</ele>
        <time>2017-05-05T08:56:33Z</time>
      </trkpt>
      <trkpt lat="45.97927" lon="4.65902">
        <ele>276</ele>
        <time>2017-05-05T08:56:34Z</time>
      </trkpt>
      <trkpt lat="45.97925" lon="4.65889">
        <ele>276</ele>
        <time>2017-05-05T08:56:37Z</time>
      </trkpt>
      <trkpt lat="45.97924" lon="4.65885">
        <ele>275</ele>
        <time>2017-05-05T08:56:38Z</time>
      </trkpt>
      <trkpt lat="45.9792" lon="4.65873">
        <ele>276</ele>
        <time>2017-05-05T08:56:41Z</time>
      </trkpt>
      <trkpt lat="45.9792" lon="4.6587">
        <ele>276</ele>
        <time>2017-05-05T08:56:42Z</time>
      </trkpt>
      <trkpt lat="45.97918" lon="4.65861">
        <ele>276</ele>
        <time>2017-05-05T08:56:44Z</time>
      </trkpt>
      <trkpt lat="45.97917" lon="4.65855">
        <ele>276</ele>
        <time>2017-05-05T08:56:45Z</time>
      </trkpt>
      <trkpt lat="45.97914" lon="4.65845">
        <ele>277</ele>
        <time>2017-05-05T08:56:47Z</time>
      </trkpt>
      <trkpt lat="45.97912" lon="4.65841">
        <ele>277</ele>
        <time>2017-05-05T08:56:48Z</time>
      </trkpt>
      <trkpt lat="45.97908" lon="4.65833">
        <ele>278</ele>
        <time>2017-05-05T08:56:50Z</time>
      </trkpt>
      <trkpt lat="45.97907" lon="4.65829">
        <ele>278</ele>
        <time>2017-05-05T08:56:51Z</time>
      </trkpt>
      <trkpt lat="45.97904" lon="4.65821">
        <ele>277</ele>
        <time>2017-05-05T08:56:53Z</time>
      </trkpt>
      <trkpt lat="45.97902" lon="4.65817">
        <ele>277</ele>
        <time>2017-05-05T08:56:54Z</time>
      </trkpt>
      <trkpt lat="45.97899" lon="4.65809">
        <ele>277</ele>
        <time>2017-05-05T08:56:56Z</time>
      </trkpt>
      <trkpt lat="45.97898" lon="4.65804">
        <ele>277</ele>
        <time>2017-05-05T08:56:57Z</time>
      </trkpt>
      <trkpt lat="45.97895" lon="4.65795">
        <ele>277</ele>
        <time>2017-05-05T08:56:59Z</time>
      </trkpt>
      <trkpt lat="45.97893" lon="4.6579">
        <ele>277</ele>
        <time>2017-05-05T08:57:00Z</time>
      </trkpt>
      <trkpt lat="45.9789" lon="4.65782">
        <ele>277</ele>
        <time>2017-05-05T08:57:02Z</time>
      </trkpt>
      <trkpt lat="45.97889" lon="4.65778">
        <ele>277</ele>
        <time>2017-05-05T08:57:03Z</time>
      </trkpt>
      <trkpt lat="45.97886" lon="4.65766">
        <ele>277</ele>
        <time>2017-05-05T08:57:06Z</time>
      </trkpt>
      <trkpt lat="45.97885" lon="4.65763">
        <ele>277</ele>
        <time>2017-05-05T08:57:07Z</time>
      </trkpt>
      <trkpt lat="45.97882" lon="4.65751">
        <ele>277</ele>
        <time>2017-05-05T08:57:10Z</time>
      </trkpt>
      <trkpt lat="45.9788" lon="4.65746">
        <ele>278</ele>
        <time>2017-05-05T08:57:11Z</time>
      </trkpt>
      <trkpt lat="45.97877" lon="4.65736">
        <ele>278</ele>
        <time>2017-05-05T08:57:13Z</time>
      </trkpt>
      <trkpt lat="45.97875" lon="4.6573">
        <ele>278</ele>
        <time>2017-05-05T08:57:14Z</time>
      </trkpt>
      <trkpt lat="45.97872" lon="4.6572">
        <ele>278</ele>
        <time>2017-05-05T08:57:16Z</time>
      </trkpt>
      <trkpt lat="45.9787" lon="4.65715">
        <ele>278</ele>
        <time>2017-05-05T08:57:17Z</time>
      </trkpt>
      <trkpt lat="45.97868" lon="4.65707">
        <ele>278</ele>
        <time>2017-05-05T08:57:19Z</time>
      </trkpt>
      <trkpt lat="45.97866" lon="4.65702">
        <ele>278</ele>
        <time>2017-05-05T08:57:20Z</time>
      </trkpt>
      <trkpt lat="45.97864" lon="4.65694">
        <ele>278</ele>
        <time>2017-05-05T08:57:22Z</time>
      </trkpt>
      <trkpt lat="45.97862" lon="4.6569">
        <ele>278</ele>
        <time>2017-05-05T08:57:23Z</time>
      </trkpt>
      <trkpt lat="45.9786" lon="4.65682">
        <ele>278</ele>
        <time>2017-05-05T08:57:25Z</time>
      </trkpt>
      <trkpt lat="45.97858" lon="4.65678">
        <ele>278</ele>
        <time>2017-05-05T08:57:26Z</time>
      </trkpt>
      <trkpt lat="45.97855" lon="4.6567">
        <ele>278</ele>
        <time>2017-05-05T08:57:28Z</time>
      </trkpt>
      <trkpt lat="45.97855" lon="4.65665">
        <ele>279</ele>
        <time>2017-05-05T08:57:29Z</time>
      </trkpt>
      <trkpt lat="45.97853" lon="4.65656">
        <ele>279</ele>
        <time>2017-05-05T08:57:31Z</time>
      </trkpt>
      <trkpt lat="45.97851" lon="4.6565">
        <ele>279</ele>
        <time>2017-05-05T08:57:32Z</time>
      </trkpt>
      <trkpt lat="45.97848" lon="4.65638">
        <ele>279</ele>
        <time>2017-05-05T08:57:34Z</time>
      </trkpt>
      <trkpt lat="45.97846" lon="4.65633">
        <ele>279</ele>
        <time>2017-05-05T08:57:35Z</time>
      </trkpt>
      <trkpt lat="45.97842" lon="4.65622">
        <ele>279</ele>
        <time>2017-05-05T08:57:37Z</time>
      </trkpt>
      <trkpt lat="45.97841" lon="4.65617">
        <ele>279</ele>
        <time>2017-05-05T08:57:38Z</time>
      </trkpt>
      <trkpt lat="45.97838" lon="4.65608">
        <ele>280</ele>
        <time>2017-05-05T08:57:40Z</time>
      </trkpt>
      <trkpt lat="45.97837" lon="4.65603">
        <ele>280</ele>
        <time>2017-05-05T08:57:41Z</time>
      </trkpt>
      <trkpt lat="45.97834" lon="4.65595">
        <ele>280</ele>
        <time>2017-05-05T08:57:43Z</time>
      </trkpt>
      <trkpt lat="45.97833" lon="4.65592">
        <ele>280</ele>
        <time>2017-05-05T08:57:44Z</time>
      </trkpt>
      <trkpt lat="45.9783" lon="4.65584">
        <ele>280</ele>
        <time>2017-05-05T08:57:46Z</time>
      </trkpt>
      <trkpt lat="45.97829" lon="4.6558">
        <ele>280</ele>
        <time>2017-05-05T08:57:47Z</time>
      </trkpt>
      <trkpt lat="45.97828" lon="4.65571">
        <ele>280</ele>
        <time>2017-05-05T08:57:49Z</time>
      </trkpt>
      <trkpt lat="45.97827" lon="4.65566">
        <ele>280</ele>
        <time>2017-05-05T08:57:50Z</time>
      </trkpt>
      <trkpt lat="45.97826" lon="4.65556">
        <ele>280</ele>
        <time>2017-05-05T08:57:52Z</time>
      </trkpt>
      <trkpt lat="45.97824" lon="4.65552">
        <ele>280</ele>
        <time>2017-05-05T08:57:53Z</time>
      </trkpt>
      <trkpt lat="45.97822" lon="4.65542">
        <ele>280</ele>
        <time>2017-05-05T08:57:55Z</time>
      </trkpt>
      <trkpt lat="45.97822" lon="4.65537">
        <ele>280</ele>
        <time>2017-05-05T08:57:56Z</time>
      </trkpt>
      <trkpt lat="45.97819" lon="4.65528">
        <ele>280</ele>
        <time>2017-05-05T08:57:58Z</time>
      </trkpt>
      <trkpt lat="45.97818" lon="4.65524">
        <ele>280</ele>
        <time>2017-05-05T08:57:59Z</time>
      </trkpt>
      <trkpt lat="45.97816" lon="4.65513">
        <ele>280</ele>
        <time>2017-05-05T08:58:01Z</time>
      </trkpt>
      <trkpt lat="45.97814" lon="4.65507">
        <ele>280</ele>
        <time>2017-05-05T08:58:02Z</time>
      </trkpt>
      <trkpt lat="45.97813" lon="4.65501">
        <ele>280</ele>
        <time>2017-05-05T08:58:03Z</time>
      </trkpt>
      <trkpt lat="45.97811" lon="4.65495">
        <ele>280</ele>
        <time>2017-05-05T08:58:04Z</time>
      </trkpt>
      <trkpt lat="45.97808" lon="4.65483">
        <ele>281</ele>
        <time>2017-05-05T08:58:06Z</time>
      </trkpt>
      <trkpt lat="45.97806" lon="4.65478">
        <ele>281</ele>
        <time>2017-05-05T08:58:07Z</time>
      </trkpt>
      <trkpt lat="45.97802" lon="4.65467">
        <ele>281</ele>
        <time>2017-05-05T08:58:09Z</time>
      </trkpt>
      <trkpt lat="45.97801" lon="4.65463">
        <ele>281</ele>
        <time>2017-05-05T08:58:10Z</time>
      </trkpt>
      <trkpt lat="45.97797" lon="4.65454">
        <ele>281</ele>
        <time>2017-05-05T08:58:12Z</time>
      </trkpt>
      <trkpt lat="45.97795" lon="4.6545">
        <ele>281</ele>
        <time>2017-05-05T08:58:13Z</time>
      </trkpt>
      <trkpt lat="45.97791" lon="4.65439">
        <ele>281</ele>
        <time>2017-05-05T08:58:15Z</time>
      </trkpt>
      <trkpt lat="45.97789" lon="4.65434">
        <ele>281</ele>
        <time>2017-05-05T08:58:16Z</time>
      </trkpt>
      <trkpt lat="45.97787" lon="4.65427">
        <ele>281</ele>
        <time>2017-05-05T08:58:17Z</time>
      </trkpt>
      <trkpt lat="45.97786" lon="4.6542">
        <ele>281</ele>
        <time>2017-05-05T08:58:18Z</time>
      </trkpt>
      <trkpt lat="45.97784" lon="4.65414">
        <ele>282</ele>
        <time>2017-05-05T08:58:19Z</time>
      </trkpt>
      <trkpt lat="45.97782" lon="4.65407">
        <ele>282</ele>
        <time>2017-05-05T08:58:20Z</time>
      </trkpt>
      <trkpt lat="45.97779" lon="4.65401">
        <ele>282</ele>
        <time>2017-05-05T08:58:21Z</time>
      </trkpt>
      <trkpt lat="45.97777" lon="4.65395">
        <ele>282</ele>
        <time>2017-05-05T08:58:22Z</time>
      </trkpt>
      <trkpt lat="45.97773" lon="4.65384">
        <ele>282</ele>
        <time>2017-05-05T08:58:24Z</time>
      </trkpt>
      <trkpt lat="45.97771" lon="4.65379">
        <ele>282</ele>
        <time>2017-05-05T08:58:25Z</time>
      </trkpt>
      <trkpt lat="45.97767" lon="4.6537">
        <ele>282</ele>
        <time>2017-05-05T08:58:27Z</time>
      </trkpt>
      <trkpt lat="45.97766" lon="4.65366">
        <ele>282</ele>
        <time>2017-05-05T08:58:28Z</time>
      </trkpt>
      <trkpt lat="45.97761" lon="4.65355">
        <ele>282</ele>
        <time>2017-05-05T08:58:31Z</time>
      </trkpt>
      <trkpt lat="45.9776" lon="4.65351">
        <ele>282</ele>
        <time>2017-05-05T08:58:32Z</time>
      </trkpt>
      <trkpt lat="45.97757" lon="4.6534">
        <ele>282</ele>
        <time>2017-05-05T08:58:34Z</time>
      </trkpt>
      <trkpt lat="45.97755" lon="4.65335">
        <ele>282</ele>
        <time>2017-05-05T08:58:35Z</time>
      </trkpt>
      <trkpt lat="45.97753" lon="4.65329">
        <ele>282</ele>
        <time>2017-05-05T08:58:36Z</time>
      </trkpt>
      <trkpt lat="45.97751" lon="4.65323">
        <ele>282</ele>
        <time>2017-05-05T08:58:37Z</time>
      </trkpt>
      <trkpt lat="45.97748" lon="4.65311">
        <ele>282</ele>
        <time>2017-05-05T08:58:39Z</time>
      </trkpt>
      <trkpt lat="45.97746" lon="4.65306">
        <ele>282</ele>
        <time>2017-05-05T08:58:40Z</time>
      </trkpt>
      <trkpt lat="45.97744" lon="4.65296">
        <ele>282</ele>
        <time>2017-05-05T08:58:42Z</time>
      </trkpt>
      <trkpt lat="45.97743" lon="4.65291">
        <ele>283</ele>
        <time>2017-05-05T08:58:43Z</time>
      </trkpt>
      <trkpt lat="45.97741" lon="4.65282">
        <ele>283</ele>
        <time>2017-05-05T08:58:45Z</time>
      </trkpt>
      <trkpt lat="45.9774" lon="4.65277">
        <ele>283</ele>
        <time>2017-05-05T08:58:46Z</time>
      </trkpt>
      <trkpt lat="45.97739" lon="4.65268">
        <ele>283</ele>
        <time>2017-05-05T08:58:48Z</time>
      </trkpt>
      <trkpt lat="45.97739" lon="4.65263">
        <ele>283</ele>
        <time>2017-05-05T08:58:49Z</time>
      </trkpt>
      <trkpt lat="45.97738" lon="4.65254">
        <ele>283</ele>
        <time>2017-05-05T08:58:51Z</time>
      </trkpt>
      <trkpt lat="45.97737" lon="4.65249">
        <ele>284</ele>
        <time>2017-05-05T08:58:52Z</time>
      </trkpt>
      <trkpt lat="45.97736" lon="4.6524">
        <ele>284</ele>
        <time>2017-05-05T08:58:54Z</time>
      </trkpt>
      <trkpt lat="45.97736" lon="4.65235">
        <ele>284</ele>
        <time>2017-05-05T08:58:55Z</time>
      </trkpt>
      <trkpt lat="45.97734" lon="4.65225">
        <ele>284</ele>
        <time>2017-05-05T08:58:57Z</time>
      </trkpt>
      <trkpt lat="45.97734" lon="4.65219">
        <ele>284</ele>
        <time>2017-05-05T08:58:58Z</time>
      </trkpt>
      <trkpt lat="45.97733" lon="4.65208">
        <ele>284</ele>
        <time>2017-05-05T08:59:00Z</time>
      </trkpt>
      <trkpt lat="45.97732" lon="4.65203">
        <ele>284</ele>
        <time>2017-05-05T08:59:01Z</time>
      </trkpt>
      <trkpt lat="45.97731" lon="4.65192">
        <ele>284</ele>
        <time>2017-05-05T08:59:03Z</time>
      </trkpt>
      <trkpt lat="45.97731" lon="4.65187">
        <ele>284</ele>
        <time>2017-05-05T08:59:04Z</time>
      </trkpt>
      <trkpt lat="45.9773" lon="4.65178">
        <ele>284</ele>
        <time>2017-05-05T08:59:06Z</time>
      </trkpt>
      <trkpt lat="45.97729" lon="4.65173">
        <ele>284</ele>
        <time>2017-05-05T08:59:07Z</time>
      </trkpt>
      <trkpt lat="45.97728" lon="4.65161">
        <ele>285</ele>
        <time>2017-05-05T08:59:09Z</time>
      </trkpt>
      <trkpt lat="45.97728" lon="4.65154">
        <ele>285</ele>
        <time>2017-05-05T08:59:10Z</time>
      </trkpt>
      <trkpt lat="45.97727" lon="4.65148">
        <ele>285</ele>
        <time>2017-05-05T08:59:11Z</time>
      </trkpt>
      <trkpt lat="45.97727" lon="4.65141">
        <ele>285</ele>
        <time>2017-05-05T08:59:12Z</time>
      </trkpt>
      <trkpt lat="45.97726" lon="4.65129">
        <ele>285</ele>
        <time>2017-05-05T08:59:14Z</time>
      </trkpt>
      <trkpt lat="45.97725" lon="4.65123">
        <ele>285</ele>
        <time>2017-05-05T08:59:15Z</time>
      </trkpt>
      <trkpt lat="45.97724" lon="4.65111">
        <ele>285</ele>
        <time>2017-05-05T08:59:17Z</time>
      </trkpt>
      <trkpt lat="45.97723" lon="4.65105">
        <ele>285</ele>
        <time>2017-05-05T08:59:18Z</time>
      </trkpt>
      <trkpt lat="45.97721" lon="4.65094">
        <ele>285</ele>
        <time>2017-05-05T08:59:20Z</time>
      </trkpt>
      <trkpt lat="45.97721" lon="4.65088">
        <ele>285</ele>
        <time>2017-05-05T08:59:21Z</time>
      </trkpt>
      <trkpt lat="45.97719" lon="4.65076">
        <ele>285</ele>
        <time>2017-05-05T08:59:23Z</time>
      </trkpt>
      <trkpt lat="45.97719" lon="4.65071">
        <ele>285</ele>
        <time>2017-05-05T08:59:24Z</time>
      </trkpt>
      <trkpt lat="45.97718" lon="4.65059">
        <ele>285</ele>
        <time>2017-05-05T08:59:26Z</time>
      </trkpt>
      <trkpt lat="45.97718" lon="4.65053">
        <ele>285</ele>
        <time>2017-05-05T08:59:27Z</time>
      </trkpt>
      <trkpt lat="45.97718" lon="4.65043">
        <ele>286</ele>
        <time>2017-05-05T08:59:29Z</time>
      </trkpt>
      <trkpt lat="45.97718" lon="4.65039">
        <ele>286</ele>
        <time>2017-05-05T08:59:30Z</time>
      </trkpt>
      <trkpt lat="45.97715" lon="4.65029">
        <ele>286</ele>
        <time>2017-05-05T08:59:32Z</time>
      </trkpt>
      <trkpt lat="45.97713" lon="4.65024">
        <ele>286</ele>
        <time>2017-05-05T08:59:33Z</time>
      </trkpt>
      <trkpt lat="45.97711" lon="4.65013">
        <ele>286</ele>
        <time>2017-05-05T08:59:35Z</time>
      </trkpt>
      <trkpt lat="45.97711" lon="4.65008">
        <ele>286</ele>
        <time>2017-05-05T08:59:36Z</time>
      </trkpt>
      <trkpt lat="45.97709" lon="4.64998">
        <ele>287</ele>
        <time>2017-05-05T08:59:38Z</time>
      </trkpt>
      <trkpt lat="45.97709" lon="4.64993">
        <ele>287</ele>
        <time>2017-05-05T08:59:39Z</time>
      </trkpt>
      <trkpt lat="45.97708" lon="4.64983">
        <ele>287</ele>
        <time>2017-05-05T08:59:41Z</time>
      </trkpt>
      <trkpt lat="45.97707" lon="4.64978">
        <ele>287</ele>
        <time>2017-05-05T08:59:42Z</time>
      </trkpt>
      <trkpt lat="45.97706" lon="4.64969">
        <ele>287</ele>
        <time>2017-05-05T08:59:44Z</time>
      </trkpt>
      <trkpt lat="45.97705" lon="4.64964">
        <ele>287</ele>
        <time>2017-05-05T08:59:45Z</time>
      </trkpt>
      <trkpt lat="45.97704" lon="4.64953">
        <ele>287</ele>
        <time>2017-05-05T08:59:47Z</time>
      </trkpt>
      <trkpt lat="45.97704" lon="4.64948">
        <ele>287</ele>
        <time>2017-05-05T08:59:48Z</time>
      </trkpt>
      <trkpt lat="45.97703" lon="4.64938">
        <ele>287</ele>
        <time>2017-05-05T08:59:50Z</time>
      </trkpt>
      <trkpt lat="45.97702" lon="4.64933">
        <ele>287</ele>
        <time>2017-05-05T08:59:51Z</time>
      </trkpt>
      <trkpt lat="45.97701" lon="4.64924">
        <ele>288</ele>
        <time>2017-05-05T08:59:53Z</time>
      </trkpt>
      <trkpt lat="45.977" lon="4.6492">
        <ele>288</ele>
        <time>2017-05-05T08:59:54Z</time>
      </trkpt>
      <trkpt lat="45.97699" lon="4.6491">
        <ele>288</ele>
        <time>2017-05-05T08:59:56Z</time>
      </trkpt>
      <trkpt lat="45.97699" lon="4.64905">
        <ele>288</ele>
        <time>2017-05-05T08:59:57Z</time>
      </trkpt>
      <trkpt lat="45.97697" lon="4.64895">
        <ele>288</ele>
        <time>2017-05-05T08:59:59Z</time>
      </trkpt>
      <trkpt lat="45.97697" lon="4.64889">
        <ele>288</ele>
        <time>2017-05-05T09:00:00Z</time>
      </trkpt>
      <trkpt lat="45.97696" lon="4.64879">
        <ele>288</ele>
        <time>2017-05-05T09:00:02Z</time>
      </trkpt>
      <trkpt lat="45.97696" lon="4.64874">
        <ele>289</ele>
        <time>2017-05-05T09:00:03Z</time>
      </trkpt>
      <trkpt lat="45.97695" lon="4.64863">
        <ele>289</ele>
        <time>2017-05-05T09:00:05Z</time>
      </trkpt>
      <trkpt lat="45.97694" lon="4.64858">
        <ele>289</ele>
        <time>2017-05-05T09:00:06Z</time>
      </trkpt>
      <trkpt lat="45.97693" lon="4.64849">
        <ele>289</ele>
        <time>2017-05-05T09:00:08Z</time>
      </trkpt>
      <trkpt lat="45.97693" lon="4.64845">
        <ele>289</ele>
        <time>2017-05-05T09:00:09Z</time>
      </trkpt>
      <trkpt lat="45.97692" lon="4.64832">
        <ele>289</ele>
        <time>2017-05-05T09:00:12Z</time>
      </trkpt>
      <trkpt lat="45.97691" lon="4.64828">
        <ele>289</ele>
        <time>2017-05-05T09:00:13Z</time>
      </trkpt>
      <trkpt lat="45.9769" lon="4.64816">
        <ele>290</ele>
        <time>2017-05-05T09:00:16Z</time>
      </trkpt>
      <trkpt lat="45.9769" lon="4.64812">
        <ele>290</ele>
        <time>2017-05-05T09:00:17Z</time>
      </trkpt>
      <trkpt lat="45.97688" lon="4.648">
        <ele>290</ele>
        <time>2017-05-05T09:00:20Z</time>
      </trkpt>
      <trkpt lat="45.97688" lon="4.64795">
        <ele>290</ele>
        <time>2017-05-05T09:00:21Z</time>
      </trkpt>
      <trkpt lat="45.97687" lon="4.64786">
        <ele>290</ele>
        <time>2017-05-05T09:00:23Z</time>
      </trkpt>
      <trkpt lat="45.97686" lon="4.64781">
        <ele>290</ele>
        <time>2017-05-05T09:00:24Z</time>
      </trkpt>
      <trkpt lat="45.97686" lon="4.64771">
        <ele>290</ele>
        <time>2017-05-05T09:00:26Z</time>
      </trkpt>
      <trkpt lat="45.97685" lon="4.64766">
        <ele>290</ele>
        <time>2017-05-05T09:00:27Z</time>
      </trkpt>
      <trkpt lat="45.97683" lon="4.64758">
        <ele>290</ele>
        <time>2017-05-05T09:00:29Z</time>
      </trkpt>
      <trkpt lat="45.97683" lon="4.64754">
        <ele>290</ele>
        <time>2017-05-05T09:00:30Z</time>
      </trkpt>
      <trkpt lat="45.97682" lon="4.64744">
        <ele>291</ele>
        <time>2017-05-05T09:00:44Z</time>
      </trkpt>
      <trkpt lat="45.97682" lon="4.64745">
        <ele>291</ele>
        <time>2017-05-05T09:00:45Z</time>
      </trkpt>
      <trkpt lat="45.97683" lon="4.64746">
        <ele>291</ele>
        <time>2017-05-05T09:03:03Z</time>
      </trkpt>
      <trkpt lat="45.97682" lon="4.64746">
        <ele>291</ele>
        <time>2017-05-05T09:03:04Z</time>
      </trkpt>
      <trkpt lat="45.9768" lon="4.64734">
        <ele>291</ele>
        <time>2017-05-05T09:03:23Z</time>
      </trkpt>
      <trkpt lat="45.97679" lon="4.64732">
        <ele>291</ele>
        <time>2017-05-05T09:03:24Z</time>
      </trkpt>
      <trkpt lat="45.97678" lon="4.64721">
        <ele>291</ele>
        <time>2017-05-05T09:03:29Z</time>
      </trkpt>
      <trkpt lat="45.97678" lon="4.64719">
        <ele>291</ele>
        <time>2017-05-05T09:03:30Z</time>
      </trkpt>
      <trkpt lat="45.97676" lon="4.64708">
        <ele>291</ele>
        <time>2017-05-05T09:03:34Z</time>
      </trkpt>
      <trkpt lat="45.97676" lon="4.64705">
        <ele>291</ele>
        <time>2017-05-05T09:03:35Z</time>
      </trkpt>
      <trkpt lat="45.97675" lon="4.64695">
        <ele>291</ele>
        <time>2017-05-05T09:03:38Z</time>
      </trkpt>
      <trkpt lat="45.97674" lon="4.64692">
        <ele>291</ele>
        <time>2017-05-05T09:03:39Z</time>
      </trkpt>
      <trkpt lat="45.97674" lon="4.6468">
        <ele>292</ele>
        <time>2017-05-05T09:03:44Z</time>
      </trkpt>
      <trkpt lat="45.97673" lon="4.64678">
        <ele>292</ele>
        <time>2017-05-05T09:03:45Z</time>
      </trkpt>
      <trkpt lat="45.97672" lon="4.64668">
        <ele>292</ele>
        <time>2017-05-05T09:03:49Z</time>
      </trkpt>
      <trkpt lat="45.97671" lon="4.64664">
        <ele>292</ele>
        <time>2017-05-05T09:03:50Z</time>
      </trkpt>
      <trkpt lat="45.97669" lon="4.64652">
        <ele>293</ele>
        <time>2017-05-05T09:03:53Z</time>
      </trkpt>
      <trkpt lat="45.97668" lon="4.64648">
        <ele>293</ele>
        <time>2017-05-05T09:03:54Z</time>
      </trkpt>
      <trkpt lat="45.97668" lon="4.64635">
        <ele>293</ele>
        <time>2017-05-05T09:03:57Z</time>
      </trkpt>
      <trkpt lat="45.97668" lon="4.64631">
        <ele>294</ele>
        <time>2017-05-05T09:03:58Z</time>
      </trkpt>
      <trkpt lat="45.97667" lon="4.64622">
        <ele>294</ele>
        <time>2017-05-05T09:04:00Z</time>
      </trkpt>
      <trkpt lat="45.97667" lon="4.64618">
        <ele>295</ele>
        <time>2017-05-05T09:04:01Z</time>
      </trkpt>
      <trkpt lat="45.97666" lon="4.64609">
        <ele>296</ele>
        <time>2017-05-05T09:04:03Z</time>
      </trkpt>
      <trkpt lat="45.97665" lon="4.64605">
        <ele>296</ele>
        <time>2017-05-05T09:04:04Z</time>
      </trkpt>
      <trkpt lat="45.97663" lon="4.64593">
        <ele>296</ele>
        <time>2017-05-05T09:04:07Z</time>
      </trkpt>
      <trkpt lat="45.97662" lon="4.64588">
        <ele>297</ele>
        <time>2017-05-05T09:04:08Z</time>
      </trkpt>
      <trkpt lat="45.97662" lon="4.64579">
        <ele>297</ele>
        <time>2017-05-05T09:04:10Z</time>
      </trkpt>
      <trkpt lat="45.97661" lon="4.64575">
        <ele>298</ele>
        <time>2017-05-05T09:04:11Z</time>
      </trkpt>
      <trkpt lat="45.97661" lon="4.64566">
        <ele>298</ele>
        <time>2017-05-05T09:04:13Z</time>
      </trkpt>
      <trkpt lat="45.9766" lon="4.64561">
        <ele>298</ele>
        <time>2017-05-05T09:04:14Z</time>
      </trkpt>
      <trkpt lat="45.97659" lon="4.64552">
        <ele>299</ele>
        <time>2017-05-05T09:04:16Z</time>
      </trkpt>
      <trkpt lat="45.97658" lon="4.64548">
        <ele>299</ele>
        <time>2017-05-05T09:04:17Z</time>
      </trkpt>
      <trkpt lat="45.97657" lon="4.64539">
        <ele>299</ele>
        <time>2017-05-05T09:04:19Z</time>
      </trkpt>
      <trkpt lat="45.97657" lon="4.64535">
        <ele>299</ele>
        <time>2017-05-05T09:04:20Z</time>
      </trkpt>
      <trkpt lat="45.97656" lon="4.64525">
        <ele>300</ele>
        <time>2017-05-05T09:04:22Z</time>
      </trkpt>
      <trkpt lat="45.97655" lon="4.64521">
        <ele>300</ele>
        <time>2017-05-05T09:04:23Z</time>
      </trkpt>
      <trkpt lat="45.97654" lon="4.64511">
        <ele>301</ele>
        <time>2017-05-05T09:04:25Z</time>
      </trkpt>
      <trkpt lat="45.97654" lon="4.64507">
        <ele>301</ele>
        <time>2017-05-05T09:04:26Z</time>
      </trkpt>
      <trkpt lat="45.97653" lon="4.64498">
        <ele>302</ele>
        <time>2017-05-05T09:04:28Z</time>
      </trkpt>
      <trkpt lat="45.97653" lon="4.64493">
        <ele>302</ele>
        <time>2017-05-05T09:04:29Z</time>
      </trkpt>
      <trkpt lat="45.97652" lon="4.64484">
        <ele>302</ele>
        <time>2017-05-05T09:04:31Z</time>
      </trkpt>
      <trkpt lat="45.97652" lon="4.64479">
        <ele>302</ele>
        <time>2017-05-05T09:04:32Z</time>
      </trkpt>
      <trkpt lat="45.97651" lon="4.64467">
        <ele>302</ele>
        <time>2017-05-05T09:04:35Z</time>
      </trkpt>
      <trkpt lat="45.9765" lon="4.64462">
        <ele>302</ele>
        <time>2017-05-05T09:04:36Z</time>
      </trkpt>
      <trkpt lat="45.97649" lon="4.64454">
        <ele>302</ele>
        <time>2017-05-05T09:04:38Z</time>
      </trkpt>
      <trkpt lat="45.97649" lon="4.64449">
        <ele>302</ele>
        <time>2017-05-05T09:04:39Z</time>
      </trkpt>
      <trkpt lat="45.97648" lon="4.6444">
        <ele>302</ele>
        <time>2017-05-05T09:04:41Z</time>
      </trkpt>
      <trkpt lat="45.97647" lon="4.64435">
        <ele>302</ele>
        <time>2017-05-05T09:04:42Z</time>
      </trkpt>
      <trkpt lat="45.97647" lon="4.64426">
        <ele>302</ele>
        <time>2017-05-05T09:04:44Z</time>
      </trkpt>
      <trkpt lat="45.97646" lon="4.64422">
        <ele>302</ele>
        <time>2017-05-05T09:04:45Z</time>
      </trkpt>
      <trkpt lat="45.97644" lon="4.6441">
        <ele>302</ele>
        <time>2017-05-05T09:04:48Z</time>
      </trkpt>
      <trkpt lat="45.97643" lon="4.64406">
        <ele>302</ele>
        <time>2017-05-05T09:04:49Z</time>
      </trkpt>
      <trkpt lat="45.97642" lon="4.64397">
        <ele>302</ele>
        <time>2017-05-05T09:04:51Z</time>
      </trkpt>
      <trkpt lat="45.97642" lon="4.64392">
        <ele>303</ele>
        <time>2017-05-05T09:04:52Z</time>
      </trkpt>
      <trkpt lat="45.97641" lon="4.64383">
        <ele>303</ele>
        <time>2017-05-05T09:04:54Z</time>
      </trkpt>
      <trkpt lat="45.9764" lon="4.64379">
        <ele>303</ele>
        <time>2017-05-05T09:04:55Z</time>
      </trkpt>
      <trkpt lat="45.97638" lon="4.64368">
        <ele>303</ele>
        <time>2017-05-05T09:04:58Z</time>
      </trkpt>
      <trkpt lat="45.97638" lon="4.64364">
        <ele>303</ele>
        <time>2017-05-05T09:04:59Z</time>
      </trkpt>
      <trkpt lat="45.97637" lon="4.64352">
        <ele>303</ele>
        <time>2017-05-05T09:05:02Z</time>
      </trkpt>
      <trkpt lat="45.97636" lon="4.64348">
        <ele>303</ele>
        <time>2017-05-05T09:05:03Z</time>
      </trkpt>
      <trkpt lat="45.97635" lon="4.64337">
        <ele>303</ele>
        <time>2017-05-05T09:05:06Z</time>
      </trkpt>
      <trkpt lat="45.97634" lon="4.64333">
        <ele>304</ele>
        <time>2017-05-05T09:05:07Z</time>
      </trkpt>
      <trkpt lat="45.97633" lon="4.6432">
        <ele>304</ele>
        <time>2017-05-05T09:05:10Z</time>
      </trkpt>
      <trkpt lat="45.97633" lon="4.64316">
        <ele>304</ele>
        <time>2017-05-05T09:05:11Z</time>
      </trkpt>
      <trkpt lat="45.97632" lon="4.64307">
        <ele>304</ele>
        <time>2017-05-05T09:05:13Z</time>
      </trkpt>
      <trkpt lat="45.97631" lon="4.64303">
        <ele>304</ele>
        <time>2017-05-05T09:05:14Z</time>
      </trkpt>
      <trkpt lat="45.9763" lon="4.64294">
        <ele>304</ele>
        <time>2017-05-05T09:05:16Z</time>
      </trkpt>
      <trkpt lat="45.9763" lon="4.64289">
        <ele>304</ele>
        <time>2017-05-05T09:05:17Z</time>
      </trkpt>
      <trkpt lat="45.97628" lon="4.64277">
        <ele>305</ele>
        <time>2017-05-05T09:05:20Z</time>
      </trkpt>
      <trkpt lat="45.97628" lon="4.64273">
        <ele>305</ele>
        <time>2017-05-05T09:05:21Z</time>
      </trkpt>
      <trkpt lat="45.97627" lon="4.64262">
        <ele>305</ele>
        <time>2017-05-05T09:05:24Z</time>
      </trkpt>
      <trkpt lat="45.97626" lon="4.64259">
        <ele>305</ele>
        <time>2017-05-05T09:05:25Z</time>
      </trkpt>
      <trkpt lat="45.97625" lon="4.64248">
        <ele>305</ele>
        <time>2017-05-05T09:05:28Z</time>
      </trkpt>
      <trkpt lat="45.97625" lon="4.64245">
        <ele>305</ele>
        <time>2017-05-05T09:05:29Z</time>
      </trkpt>
      <trkpt lat="45.97624" lon="4.64235">
        <ele>306</ele>
        <time>2017-05-05T09:05:32Z</time>
      </trkpt>
      <trkpt lat="45.97624" lon="4.64232">
        <ele>306</ele>
        <time>2017-05-05T09:05:33Z</time>
      </trkpt>
      <trkpt lat="45.97621" lon="4.64219">
        <ele>306</ele>
        <time>2017-05-05T09:05:37Z</time>
      </trkpt>
      <trkpt lat="45.97621" lon="4.64216">
        <ele>306</ele>
        <time>2017-05-05T09:05:38Z</time>
      </trkpt>
      <trkpt lat="45.9762" lon="4.64207">
        <ele>306</ele>
        <time>2017-05-05T09:05:40Z</time>
      </trkpt>
      <trkpt lat="45.9762" lon="4.64203">
        <ele>306</ele>
        <time>2017-05-05T09:05:41Z</time>
      </trkpt>
      <trkpt lat="45.97619" lon="4.6419">
        <ele>306</ele>
        <time>2017-05-05T09:05:44Z</time>
      </trkpt>
      <trkpt lat="45.97618" lon="4.64186">
        <ele>306</ele>
        <time>2017-05-05T09:05:45Z</time>
      </trkpt>
      <trkpt lat="45.97617" lon="4.64176">
        <ele>306</ele>
        <time>2017-05-05T09:05:48Z</time>
      </trkpt>
      <trkpt lat="45.97617" lon="4.64172">
        <ele>306</ele>
        <time>2017-05-05T09:05:49Z</time>
      </trkpt>
      <trkpt lat="45.97615" lon="4.64161">
        <ele>307</ele>
        <time>2017-05-05T09:05:52Z</time>
      </trkpt>
      <trkpt lat="45.97615" lon="4.64158">
        <ele>307</ele>
        <time>2017-05-05T09:05:53Z</time>
      </trkpt>
      <trkpt lat="45.97613" lon="4.64148">
        <ele>307</ele>
        <time>2017-05-05T09:05:56Z</time>
      </trkpt>
      <trkpt lat="45.97612" lon="4.64143">
        <ele>307</ele>
        <time>2017-05-05T09:05:57Z</time>
      </trkpt>
      <trkpt lat="45.97612" lon="4.64134">
        <ele>307</ele>
        <time>2017-05-05T09:05:59Z</time>
      </trkpt>
      <trkpt lat="45.97612" lon="4.64129">
        <ele>307</ele>
        <time>2017-05-05T09:06:00Z</time>
      </trkpt>
      <trkpt lat="45.97611" lon="4.6412">
        <ele>307</ele>
        <time>2017-05-05T09:06:02Z</time>
      </trkpt>
      <trkpt lat="45.9761" lon="4.64115">
        <ele>307</ele>
        <time>2017-05-05T09:06:03Z</time>
      </trkpt>
      <trkpt lat="45.97609" lon="4.64103">
        <ele>308</ele>
        <time>2017-05-05T09:06:06Z</time>
      </trkpt>
      <trkpt lat="45.97608" lon="4.64099">
        <ele>308</ele>
        <time>2017-05-05T09:06:07Z</time>
      </trkpt>
      <trkpt lat="45.97607" lon="4.64088">
        <ele>308</ele>
        <time>2017-05-05T09:06:10Z</time>
      </trkpt>
      <trkpt lat="45.97607" lon="4.64084">
        <ele>308</ele>
        <time>2017-05-05T09:06:11Z</time>
      </trkpt>
      <trkpt lat="45.97605" lon="4.64073">
        <ele>310</ele>
        <time>2017-05-05T09:06:14Z</time>
      </trkpt>
      <trkpt lat="45.97605" lon="4.64069">
        <ele>310</ele>
        <time>2017-05-05T09:06:15Z</time>
      </trkpt>
      <trkpt lat="45.97604" lon="4.6406">
        <ele>310</ele>
        <time>2017-05-05T09:06:17Z</time>
      </trkpt>
      <trkpt lat="45.97603" lon="4.64056">
        <ele>310</ele>
        <time>2017-05-05T09:06:18Z</time>
      </trkpt>
      <trkpt lat="45.97602" lon="4.64044">
        <ele>310</ele>
        <time>2017-05-05T09:06:21Z</time>
      </trkpt>
      <trkpt lat="45.97602" lon="4.6404">
        <ele>310</ele>
        <time>2017-05-05T09:06:22Z</time>
      </trkpt>
      <trkpt lat="45.976" lon="4.64029">
        <ele>310</ele>
        <time>2017-05-05T09:06:25Z</time>
      </trkpt>
      <trkpt lat="45.976" lon="4.64025">
        <ele>310</ele>
        <time>2017-05-05T09:06:26Z</time>
      </trkpt>
      <trkpt lat="45.97599" lon="4.64016">
        <ele>311</ele>
        <time>2017-05-05T09:06:28Z</time>
      </trkpt>
      <trkpt lat="45.97598" lon="4.64011">
        <ele>311</ele>
        <time>2017-05-05T09:06:29Z</time>
      </trkpt>
      <trkpt lat="45.97597" lon="4.64002">
        <ele>311</ele>
        <time>2017-05-05T09:06:31Z</time>
      </trkpt>
      <trkpt lat="45.97597" lon="4.63998">
        <ele>312</ele>
        <time>2017-05-05T09:06:32Z</time>
      </trkpt>
      <trkpt lat="45.97596" lon="4.63987">
        <ele>312</ele>
        <time>2017-05-05T09:06:35Z</time>
      </trkpt>
      <trkpt lat="45.97595" lon="4.63984">
        <ele>312</ele>
        <time>2017-05-05T09:06:36Z</time>
      </trkpt>
      <trkpt lat="45.97594" lon="4.63973">
        <ele>312</ele>
        <time>2017-05-05T09:06:39Z</time>
      </trkpt>
      <trkpt lat="45.97593" lon="4.63969">
        <ele>312</ele>
        <time>2017-05-05T09:06:40Z</time>
      </trkpt>
      <trkpt lat="45.97592" lon="4.63958">
        <ele>312</ele>
        <time>2017-05-05T09:06:43Z</time>
      </trkpt>
      <trkpt lat="45.97592" lon="4.63954">
        <ele>312</ele>
        <time>2017-05-05T09:06:44Z</time>
      </trkpt>
      <trkpt lat="45.9759" lon="4.63943">
        <ele>313</ele>
        <time>2017-05-05T09:06:47Z</time>
      </trkpt>
      <trkpt lat="45.9759" lon="4.63939">
        <ele>313</ele>
        <time>2017-05-05T09:06:48Z</time>
      </trkpt>
      <trkpt lat="45.97588" lon="4.63928">
        <ele>314</ele>
        <time>2017-05-05T09:06:51Z</time>
      </trkpt>
      <trkpt lat="45.97588" lon="4.63924">
        <ele>315</ele>
        <time>2017-05-05T09:06:52Z</time>
      </trkpt>
      <trkpt lat="45.97587" lon="4.63913">
        <ele>315</ele>
        <time>2017-05-05T09:06:55Z</time>
      </trkpt>
      <trkpt lat="45.97587" lon="4.63909">
        <ele>315</ele>
        <time>2017-05-05T09:06:56Z</time>
      </trkpt>
      <trkpt lat="45.97586" lon="4.63898">
        <ele>315</ele>
        <time>2017-05-05T09:06:59Z</time>
      </trkpt>
      <trkpt lat="45.97586" lon="4.63895">
        <ele>315</ele>
        <time>2017-05-05T09:07:00Z</time>
      </trkpt>
      <trkpt lat="45.97584" lon="4.63883">
        <ele>314</ele>
        <time>2017-05-05T09:07:03Z</time>
      </trkpt>
      <trkpt lat="45.97583" lon="4.63879">
        <ele>318</ele>
        <time>2017-05-05T09:07:04Z</time>
      </trkpt>
      <trkpt lat="45.97582" lon="4.63867">
        <ele>318</ele>
        <time>2017-05-05T09:07:07Z</time>
      </trkpt>
      <trkpt lat="45.97582" lon="4.63863">
        <ele>318</ele>
        <time>2017-05-05T09:07:08Z</time>
      </trkpt>
      <trkpt lat="45.97581" lon="4.63852">
        <ele>318</ele>
        <time>2017-05-05T09:07:11Z</time>
      </trkpt>
      <trkpt lat="45.9758" lon="4.63848">
        <ele>318</ele>
        <time>2017-05-05T09:07:12Z</time>
      </trkpt>
      <trkpt lat="45.97579" lon="4.63838">
        <ele>318</ele>
        <time>2017-05-05T09:07:15Z</time>
      </trkpt>
      <trkpt lat="45.97578" lon="4.63834">
        <ele>318</ele>
        <time>2017-05-05T09:07:16Z</time>
      </trkpt>
      <trkpt lat="45.97577" lon="4.63824">
        <ele>320</ele>
        <time>2017-05-05T09:07:19Z</time>
      </trkpt>
      <trkpt lat="45.97576" lon="4.6382">
        <ele>320</ele>
        <time>2017-05-05T09:07:20Z</time>
      </trkpt>
      <trkpt lat="45.97575" lon="4.63808">
        <ele>321</ele>
        <time>2017-05-05T09:07:23Z</time>
      </trkpt>
      <trkpt lat="45.97575" lon="4.63804">
        <ele>321</ele>
        <time>2017-05-05T09:07:24Z</time>
      </trkpt>
      <trkpt lat="45.97574" lon="4.63793">
        <ele>321</ele>
        <time>2017-05-05T09:07:27Z</time>
      </trkpt>
      <trkpt lat="45.97574" lon="4.6379">
        <ele>322</ele>
        <time>2017-05-05T09:07:28Z</time>
      </trkpt>
      <trkpt lat="45.97573" lon="4.63779">
        <ele>322</ele>
        <time>2017-05-05T09:07:31Z</time>
      </trkpt>
      <trkpt lat="45.97573" lon="4.63775">
        <ele>322</ele>
        <time>2017-05-05T09:07:32Z</time>
      </trkpt>
      <trkpt lat="45.97572" lon="4.63763">
        <ele>322</ele>
        <time>2017-05-05T09:07:35Z</time>
      </trkpt>
      <trkpt lat="45.97571" lon="4.63759">
        <ele>322</ele>
        <time>2017-05-05T09:07:36Z</time>
      </trkpt>
      <trkpt lat="45.9757" lon="4.63747">
        <ele>323</ele>
        <time>2017-05-05T09:07:40Z</time>
      </trkpt>
      <trkpt lat="45.97569" lon="4.63744">
        <ele>323</ele>
        <time>2017-05-05T09:07:41Z</time>
      </trkpt>
      <trkpt lat="45.97568" lon="4.63734">
        <ele>324</ele>
        <time>2017-05-05T09:07:44Z</time>
      </trkpt>
      <trkpt lat="45.97568" lon="4.63731">
        <ele>324</ele>
        <time>2017-05-05T09:07:45Z</time>
      </trkpt>
      <trkpt lat="45.97566" lon="4.63721">
        <ele>324</ele>
        <time>2017-05-05T09:07:48Z</time>
      </trkpt>
      <trkpt lat="45.97566" lon="4.63717">
        <ele>324</ele>
        <time>2017-05-05T09:07:49Z</time>
      </trkpt>
      <trkpt lat="45.97564" lon="4.63707">
        <ele>325</ele>
        <time>2017-05-05T09:07:52Z</time>
      </trkpt>
      <trkpt lat="45.97564" lon="4.63703">
        <ele>325</ele>
        <time>2017-05-05T09:07:53Z</time>
      </trkpt>
      <trkpt lat="45.97563" lon="4.63694">
        <ele>325</ele>
        <time>2017-05-05T09:07:55Z</time>
      </trkpt>
      <trkpt lat="45.97562" lon="4.6369">
        <ele>325</ele>
        <time>2017-05-05T09:07:56Z</time>
      </trkpt>
      <trkpt lat="45.97562" lon="4.63679">
        <ele>325</ele>
        <time>2017-05-05T09:07:59Z</time>
      </trkpt>
      <trkpt lat="45.97562" lon="4.63675">
        <ele>325</ele>
        <time>2017-05-05T09:08:00Z</time>
      </trkpt>
      <trkpt lat="45.97561" lon="4.63665">
        <ele>326</ele>
        <time>2017-05-05T09:08:03Z</time>
      </trkpt>
      <trkpt lat="45.97561" lon="4.63662">
        <ele>326</ele>
        <time>2017-05-05T09:08:04Z</time>
      </trkpt>
      <trkpt lat="45.97561" lon="4.63651">
        <ele>326</ele>
        <time>2017-05-05T09:08:07Z</time>
      </trkpt>
      <trkpt lat="45.9756" lon="4.63647">
        <ele>326</ele>
        <time>2017-05-05T09:08:08Z</time>
      </trkpt>
      <trkpt lat="45.97558" lon="4.63636">
        <ele>327</ele>
        <time>2017-05-05T09:08:11Z</time>
      </trkpt>
      <trkpt lat="45.97558" lon="4.63632">
        <ele>327</ele>
        <time>2017-05-05T09:08:12Z</time>
      </trkpt>
      <trkpt lat="45.97557" lon="4.63621">
        <ele>327</ele>
        <time>2017-05-05T09:08:15Z</time>
      </trkpt>
      <trkpt lat="45.97557" lon="4.63616">
        <ele>327</ele>
        <time>2017-05-05T09:08:16Z</time>
      </trkpt>
      <trkpt lat="45.97556" lon="4.63604">
        <ele>327</ele>
        <time>2017-05-05T09:08:19Z</time>
      </trkpt>
      <trkpt lat="45.97555" lon="4.63601">
        <ele>327</ele>
        <time>2017-05-05T09:08:20Z</time>
      </trkpt>
      <trkpt lat="45.97553" lon="4.6359">
        <ele>327</ele>
        <time>2017-05-05T09:08:23Z</time>
      </trkpt>
      <trkpt lat="45.97553" lon="4.63587">
        <ele>327</ele>
        <time>2017-05-05T09:08:24Z</time>
      </trkpt>
      <trkpt lat="45.97551" lon="4.63575">
        <ele>328</ele>
        <time>2017-05-05T09:08:27Z</time>
      </trkpt>
      <trkpt lat="45.97551" lon="4.63572">
        <ele>328</ele>
        <time>2017-05-05T09:08:28Z</time>
      </trkpt>
      <trkpt lat="45.9755" lon="4.63561">
        <ele>329</ele>
        <time>2017-05-05T09:08:31Z</time>
      </trkpt>
      <trkpt lat="45.97549" lon="4.63557">
        <ele>329</ele>
        <time>2017-05-05T09:08:32Z</time>
      </trkpt>
      <trkpt lat="45.97548" lon="4.63545">
        <ele>329</ele>
        <time>2017-05-05T09:08:35Z</time>
      </trkpt>
      <trkpt lat="45.97547" lon="4.6354">
        <ele>329</ele>
        <time>2017-05-05T09:08:36Z</time>
      </trkpt>
      <trkpt lat="45.97546" lon="4.63529">
        <ele>329</ele>
        <time>2017-05-05T09:08:39Z</time>
      </trkpt>
      <trkpt lat="45.97545" lon="4.63525">
        <ele>329</ele>
        <time>2017-05-05T09:08:40Z</time>
      </trkpt>
      <trkpt lat="45.97544" lon="4.63515">
        <ele>329</ele>
        <time>2017-05-05T09:08:43Z</time>
      </trkpt>
      <trkpt lat="45.97544" lon="4.63512">
        <ele>329</ele>
        <time>2017-05-05T09:08:44Z</time>
      </trkpt>
      <trkpt lat="45.97543" lon="4.635">
        <ele>330</ele>
        <time>2017-05-05T09:08:48Z</time>
      </trkpt>
      <trkpt lat="45.97542" lon="4.63497">
        <ele>330</ele>
        <time>2017-05-05T09:08:49Z</time>
      </trkpt>
      <trkpt lat="45.97541" lon="4.63487">
        <ele>331</ele>
        <time>2017-05-05T09:08:53Z</time>
      </trkpt>
      <trkpt lat="45.97541" lon="4.63484">
        <ele>331</ele>
        <time>2017-05-05T09:08:54Z</time>
      </trkpt>
      <trkpt lat="45.97539" lon="4.63473">
        <ele>331</ele>
        <time>2017-05-05T09:08:58Z</time>
      </trkpt>
      <trkpt lat="45.97539" lon="4.6347">
        <ele>331</ele>
        <time>2017-05-05T09:08:59Z</time>
      </trkpt>
      <trkpt lat="45.97536" lon="4.6346">
        <ele>331</ele>
        <time>2017-05-05T09:09:03Z</time>
      </trkpt>
      <trkpt lat="45.97536" lon="4.63457">
        <ele>331</ele>
        <time>2017-05-05T09:09:04Z</time>
      </trkpt>
      <trkpt lat="45.97535" lon="4.63448">
        <ele>331</ele>
        <time>2017-05-05T09:09:07Z</time>
      </trkpt>
      <trkpt lat="45.97535" lon="4.63444">
        <ele>331</ele>
        <time>2017-05-05T09:09:08Z</time>
      </trkpt>
      <trkpt lat="45.97534" lon="4.63432">
        <ele>331</ele>
        <time>2017-05-05T09:09:12Z</time>
      </trkpt>
      <trkpt lat="45.97534" lon="4.63429">
        <ele>332</ele>
        <time>2017-05-05T09:09:13Z</time>
      </trkpt>
      <trkpt lat="45.97532" lon="4.63416">
        <ele>333</ele>
        <time>2017-05-05T09:09:17Z</time>
      </trkpt>
      <trkpt lat="45.97532" lon="4.63413">
        <ele>333</ele>
        <time>2017-05-05T09:09:18Z</time>
      </trkpt>
      <trkpt lat="45.9753" lon="4.63402">
        <ele>333</ele>
        <time>2017-05-05T09:09:21Z</time>
      </trkpt>
      <trkpt lat="45.9753" lon="4.63399">
        <ele>333</ele>
        <time>2017-05-05T09:09:22Z</time>
      </trkpt>
      <trkpt lat="45.97528" lon="4.63387">
        <ele>333</ele>
        <time>2017-05-05T09:09:26Z</time>
      </trkpt>
      <trkpt lat="45.97528" lon="4.63384">
        <ele>333</ele>
        <time>2017-05-05T09:09:27Z</time>
      </trkpt>
      <trkpt lat="45.97526" lon="4.63372">
        <ele>333</ele>
        <time>2017-05-05T09:09:31Z</time>
      </trkpt>
      <trkpt lat="45.97526" lon="4.6337">
        <ele>333</ele>
        <time>2017-05-05T09:09:32Z</time>
      </trkpt>
      <trkpt lat="45.97526" lon="4.63358">
        <ele>334</ele>
        <time>2017-05-05T09:09:36Z</time>
      </trkpt>
      <trkpt lat="45.97525" lon="4.63355">
        <ele>334</ele>
        <time>2017-05-05T09:09:37Z</time>
      </trkpt>
      <trkpt lat="45.97524" lon="4.63342">
        <ele>334</ele>
        <time>2017-05-05T09:09:41Z</time>
      </trkpt>
      <trkpt lat="45.97523" lon="4.63339">
        <ele>334</ele>
        <time>2017-05-05T09:09:42Z</time>
      </trkpt>
      <trkpt lat="45.97522" lon="4.63329">
        <ele>335</ele>
        <time>2017-05-05T09:09:45Z</time>
      </trkpt>
      <trkpt lat="45.97522" lon="4.63326">
        <ele>335</ele>
        <time>2017-05-05T09:09:46Z</time>
      </trkpt>
      <trkpt lat="45.97521" lon="4.63316">
        <ele>335</ele>
        <time>2017-05-05T09:09:49Z</time>
      </trkpt>
      <trkpt lat="45.9752" lon="4.63313">
        <ele>335</ele>
        <time>2017-05-05T09:09:50Z</time>
      </trkpt>
      <trkpt lat="45.9752" lon="4.63303">
        <ele>335</ele>
        <time>2017-05-05T09:09:53Z</time>
      </trkpt>
      <trkpt lat="45.97519" lon="4.633">
        <ele>335</ele>
        <time>2017-05-05T09:09:54Z</time>
      </trkpt>
      <trkpt lat="45.97518" lon="4.63289">
        <ele>335</ele>
        <time>2017-05-05T09:09:57Z</time>
      </trkpt>
      <trkpt lat="45.97518" lon="4.63285">
        <ele>335</ele>
        <time>2017-05-05T09:09:58Z</time>
      </trkpt>
      <trkpt lat="45.97517" lon="4.63275">
        <ele>335</ele>
        <time>2017-05-05T09:10:00Z</time>
      </trkpt>
      <trkpt lat="45.97516" lon="4.6327">
        <ele>336</ele>
        <time>2017-05-05T09:10:01Z</time>
      </trkpt>
      <trkpt lat="45.97515" lon="4.6326">
        <ele>336</ele>
        <time>2017-05-05T09:10:03Z</time>
      </trkpt>
      <trkpt lat="45.97515" lon="4.63257">
        <ele>337</ele>
        <time>2017-05-05T09:10:04Z</time>
      </trkpt>
      <trkpt lat="45.97514" lon="4.63247">
        <ele>337</ele>
        <time>2017-05-05T09:10:07Z</time>
      </trkpt>
      <trkpt lat="45.97513" lon="4.63244">
        <ele>337</ele>
        <time>2017-05-05T09:10:08Z</time>
      </trkpt>
      <trkpt lat="45.97511" lon="4.63234">
        <ele>337</ele>
        <time>2017-05-05T09:10:11Z</time>
      </trkpt>
      <trkpt lat="45.97511" lon="4.63231">
        <ele>337</ele>
        <time>2017-05-05T09:10:12Z</time>
      </trkpt>
      <trkpt lat="45.9751" lon="4.63221">
        <ele>336</ele>
        <time>2017-05-05T09:10:15Z</time>
      </trkpt>
      <trkpt lat="45.9751" lon="4.63218">
        <ele>336</ele>
        <time>2017-05-05T09:10:16Z</time>
      </trkpt>
      <trkpt lat="45.97509" lon="4.63208">
        <ele>336</ele>
        <time>2017-05-05T09:10:19Z</time>
      </trkpt>
      <trkpt lat="45.97509" lon="4.63205">
        <ele>336</ele>
        <time>2017-05-05T09:10:20Z</time>
      </trkpt>
      <trkpt lat="45.97507" lon="4.63194">
        <ele>336</ele>
        <time>2017-05-05T09:10:23Z</time>
      </trkpt>
      <trkpt lat="45.97507" lon="4.6319">
        <ele>337</ele>
        <time>2017-05-05T09:10:24Z</time>
      </trkpt>
      <trkpt lat="45.97506" lon="4.63181">
        <ele>337</ele>
        <time>2017-05-05T09:10:26Z</time>
      </trkpt>
      <trkpt lat="45.97506" lon="4.63176">
        <ele>338</ele>
        <time>2017-05-05T09:10:27Z</time>
      </trkpt>
      <trkpt lat="45.97504" lon="4.63165">
        <ele>338</ele>
        <time>2017-05-05T09:10:30Z</time>
      </trkpt>
      <trkpt lat="45.97504" lon="4.63161">
        <ele>338</ele>
        <time>2017-05-05T09:10:31Z</time>
      </trkpt>
      <trkpt lat="45.97503" lon="4.6315">
        <ele>338</ele>
        <time>2017-05-05T09:10:34Z</time>
      </trkpt>
      <trkpt lat="45.97502" lon="4.63146">
        <ele>337</ele>
        <time>2017-05-05T09:10:35Z</time>
      </trkpt>
      <trkpt lat="45.97501" lon="4.63136">
        <ele>337</ele>
        <time>2017-05-05T09:10:38Z</time>
      </trkpt>
      <trkpt lat="45.97501" lon="4.63132">
        <ele>337</ele>
        <time>2017-05-05T09:10:39Z</time>
      </trkpt>
      <trkpt lat="45.97499" lon="4.63122">
        <ele>342</ele>
        <time>2017-05-05T09:10:42Z</time>
      </trkpt>
      <trkpt lat="45.97499" lon="4.63118">
        <ele>342</ele>
        <time>2017-05-05T09:10:43Z</time>
      </trkpt>
      <trkpt lat="45.97498" lon="4.63108">
        <ele>342</ele>
        <time>2017-05-05T09:10:46Z</time>
      </trkpt>
      <trkpt lat="45.97498" lon="4.63104">
        <ele>342</ele>
        <time>2017-05-05T09:10:47Z</time>
      </trkpt>
      <trkpt lat="45.97497" lon="4.63094">
        <ele>341</ele>
        <time>2017-05-05T09:10:50Z</time>
      </trkpt>
      <trkpt lat="45.97496" lon="4.6309">
        <ele>341</ele>
        <time>2017-05-05T09:10:51Z</time>
      </trkpt>
      <trkpt lat="45.97495" lon="4.63078">
        <ele>341</ele>
        <time>2017-05-05T09:10:54Z</time>
      </trkpt>
      <trkpt lat="45.97494" lon="4.63074">
        <ele>342</ele>
        <time>2017-05-05T09:10:55Z</time>
      </trkpt>
      <trkpt lat="45.97493" lon="4.63063">
        <ele>343</ele>
        <time>2017-05-05T09:10:58Z</time>
      </trkpt>
      <trkpt lat="45.97492" lon="4.63059">
        <ele>343</ele>
        <time>2017-05-05T09:10:59Z</time>
      </trkpt>
      <trkpt lat="45.97491" lon="4.63048">
        <ele>344</ele>
        <time>2017-05-05T09:11:02Z</time>
      </trkpt>
      <trkpt lat="45.9749" lon="4.63045">
        <ele>344</ele>
        <time>2017-05-05T09:11:03Z</time>
      </trkpt>
      <trkpt lat="45.97488" lon="4.63034">
        <ele>344</ele>
        <time>2017-05-05T09:11:06Z</time>
      </trkpt>
      <trkpt lat="45.97487" lon="4.6303">
        <ele>344</ele>
        <time>2017-05-05T09:11:07Z</time>
      </trkpt>
      <trkpt lat="45.97485" lon="4.63019">
        <ele>344</ele>
        <time>2017-05-05T09:11:10Z</time>
      </trkpt>
      <trkpt lat="45.97484" lon="4.63015">
        <ele>344</ele>
        <time>2017-05-05T09:11:11Z</time>
      </trkpt>
      <trkpt lat="45.97482" lon="4.63004">
        <ele>344</ele>
        <time>2017-05-05T09:11:14Z</time>
      </trkpt>
      <trkpt lat="45.97481" lon="4.63">
        <ele>344</ele>
        <time>2017-05-05T09:11:15Z</time>
      </trkpt>
      <trkpt lat="45.97478" lon="4.62988">
        <ele>345</ele>
        <time>2017-05-05T09:11:18Z</time>
      </trkpt>
      <trkpt lat="45.97477" lon="4.62984">
        <ele>345</ele>
        <time>2017-05-05T09:11:19Z</time>
      </trkpt>
      <trkpt lat="45.97474" lon="4.62973">
        <ele>345</ele>
        <time>2017-05-05T09:11:22Z</time>
      </trkpt>
      <trkpt lat="45.97473" lon="4.6297">
        <ele>345</ele>
        <time>2017-05-05T09:11:23Z</time>
      </trkpt>
      <trkpt lat="45.97471" lon="4.62962">
        <ele>345</ele>
        <time>2017-05-05T09:11:25Z</time>
      </trkpt>
      <trkpt lat="45.9747" lon="4.62957">
        <ele>345</ele>
        <time>2017-05-05T09:11:26Z</time>
      </trkpt>
      <trkpt lat="45.97469" lon="4.62947">
        <ele>345</ele>
        <time>2017-05-05T09:11:28Z</time>
      </trkpt>
      <trkpt lat="45.97469" lon="4.62943">
        <ele>345</ele>
        <time>2017-05-05T09:11:29Z</time>
      </trkpt>
      <trkpt lat="45.97466" lon="4.62931">
        <ele>345</ele>
        <time>2017-05-05T09:11:32Z</time>
      </trkpt>
      <trkpt lat="45.97465" lon="4.62927">
        <ele>345</ele>
        <time>2017-05-05T09:11:33Z</time>
      </trkpt>
      <trkpt lat="45.97463" lon="4.62916">
        <ele>345</ele>
        <time>2017-05-05T09:11:36Z</time>
      </trkpt>
      <trkpt lat="45.97463" lon="4.62912">
        <ele>345</ele>
        <time>2017-05-05T09:11:37Z</time>
      </trkpt>
      <trkpt lat="45.9746" lon="4.62901">
        <ele>345</ele>
        <time>2017-05-05T09:11:40Z</time>
      </trkpt>
      <trkpt lat="45.97459" lon="4.62897">
        <ele>345</ele>
        <time>2017-05-05T09:11:41Z</time>
      </trkpt>
      <trkpt lat="45.97457" lon="4.62887">
        <ele>345</ele>
        <time>2017-05-05T09:11:44Z</time>
      </trkpt>
      <trkpt lat="45.97457" lon="4.62883">
        <ele>346</ele>
        <time>2017-05-05T09:11:45Z</time>
      </trkpt>
      <trkpt lat="45.97454" lon="4.62873">
        <ele>346</ele>
        <time>2017-05-05T09:11:48Z</time>
      </trkpt>
      <trkpt lat="45.97454" lon="4.62869">
        <ele>346</ele>
        <time>2017-05-05T09:11:49Z</time>
      </trkpt>
      <trkpt lat="45.97452" lon="4.62857">
        <ele>346</ele>
        <time>2017-05-05T09:11:52Z</time>
      </trkpt>
      <trkpt lat="45.97451" lon="4.62853">
        <ele>346</ele>
        <time>2017-05-05T09:11:53Z</time>
      </trkpt>
      <trkpt lat="45.97449" lon="4.62842">
        <ele>346</ele>
        <time>2017-05-05T09:11:56Z</time>
      </trkpt>
      <trkpt lat="45.97448" lon="4.62838">
        <ele>346</ele>
        <time>2017-05-05T09:11:57Z</time>
      </trkpt>
      <trkpt lat="45.97446" lon="4.62827">
        <ele>347</ele>
        <time>2017-05-05T09:12:00Z</time>
      </trkpt>
      <trkpt lat="45.97445" lon="4.62823">
        <ele>347</ele>
        <time>2017-05-05T09:12:01Z</time>
      </trkpt>
      <trkpt lat="45.97442" lon="4.62811">
        <ele>347</ele>
        <time>2017-05-05T09:12:04Z</time>
      </trkpt>
      <trkpt lat="45.97441" lon="4.62807">
        <ele>347</ele>
        <time>2017-05-05T09:12:05Z</time>
      </trkpt>
      <trkpt lat="45.97439" lon="4.62795">
        <ele>348</ele>
        <time>2017-05-05T09:12:08Z</time>
      </trkpt>
      <trkpt lat="45.97438" lon="4.62792">
        <ele>348</ele>
        <time>2017-05-05T09:12:09Z</time>
      </trkpt>
      <trkpt lat="45.97436" lon="4.62781">
        <ele>348</ele>
        <time>2017-05-05T09:12:12Z</time>
      </trkpt>
      <trkpt lat="45.97435" lon="4.62777">
        <ele>348</ele>
        <time>2017-05-05T09:12:13Z</time>
      </trkpt>
      <trkpt lat="45.97433" lon="4.62766">
        <ele>349</ele>
        <time>2017-05-05T09:12:16Z</time>
      </trkpt>
      <trkpt lat="45.97432" lon="4.62762">
        <ele>349</ele>
        <time>2017-05-05T09:12:17Z</time>
      </trkpt>
      <trkpt lat="45.9743" lon="4.62754">
        <ele>350</ele>
        <time>2017-05-05T09:12:19Z</time>
      </trkpt>
      <trkpt lat="45.97429" lon="4.6275">
        <ele>350</ele>
        <time>2017-05-05T09:12:20Z</time>
      </trkpt>
      <trkpt lat="45.97427" lon="4.62738">
        <ele>350</ele>
        <time>2017-05-05T09:12:23Z</time>
      </trkpt>
      <trkpt lat="45.97426" lon="4.62734">
        <ele>350</ele>
        <time>2017-05-05T09:12:24Z</time>
      </trkpt>
      <trkpt lat="45.97423" lon="4.62723">
        <ele>350</ele>
        <time>2017-05-05T09:12:27Z</time>
      </trkpt>
      <trkpt lat="45.97422" lon="4.6272">
        <ele>350</ele>
        <time>2017-05-05T09:12:28Z</time>
      </trkpt>
      <trkpt lat="45.9742" lon="4.6271">
        <ele>349</ele>
        <time>2017-05-05T09:12:31Z</time>
      </trkpt>
      <trkpt lat="45.97419" lon="4.62706">
        <ele>350</ele>
        <time>2017-05-05T09:12:32Z</time>
      </trkpt>
      <trkpt lat="45.97417" lon="4.62696">
        <ele>350</ele>
        <time>2017-05-05T09:12:35Z</time>
      </trkpt>
      <trkpt lat="45.97416" lon="4.62693">
        <ele>354</ele>
        <time>2017-05-05T09:12:36Z</time>
      </trkpt>
      <trkpt lat="45.97414" lon="4.62682">
        <ele>354</ele>
        <time>2017-05-05T09:12:39Z</time>
      </trkpt>
      <trkpt lat="45.97413" lon="4.62678">
        <ele>354</ele>
        <time>2017-05-05T09:12:40Z</time>
      </trkpt>
      <trkpt lat="45.9741" lon="4.62667">
        <ele>353</ele>
        <time>2017-05-05T09:12:43Z</time>
      </trkpt>
      <trkpt lat="45.97409" lon="4.62664">
        <ele>354</ele>
        <time>2017-05-05T09:12:44Z</time>
      </trkpt>
      <trkpt lat="45.97408" lon="4.62654">
        <ele>355</ele>
        <time>2017-05-05T09:12:47Z</time>
      </trkpt>
      <trkpt lat="45.97407" lon="4.6265">
        <ele>355</ele>
        <time>2017-05-05T09:12:48Z</time>
      </trkpt>
      <trkpt lat="45.97405" lon="4.6264">
        <ele>356</ele>
        <time>2017-05-05T09:12:51Z</time>
      </trkpt>
      <trkpt lat="45.97405" lon="4.62637">
        <ele>356</ele>
        <time>2017-05-05T09:12:52Z</time>
      </trkpt>
      <trkpt lat="45.97403" lon="4.62627">
        <ele>356</ele>
        <time>2017-05-05T09:12:55Z</time>
      </trkpt>
      <trkpt lat="45.97402" lon="4.62623">
        <ele>356</ele>
        <time>2017-05-05T09:12:56Z</time>
      </trkpt>
      <trkpt lat="45.974" lon="4.62611">
        <ele>357</ele>
        <time>2017-05-05T09:13:00Z</time>
      </trkpt>
      <trkpt lat="45.97399" lon="4.62608">
        <ele>357</ele>
        <time>2017-05-05T09:13:01Z</time>
      </trkpt>
      <trkpt lat="45.97398" lon="4.62595">
        <ele>357</ele>
        <time>2017-05-05T09:13:05Z</time>
      </trkpt>
      <trkpt lat="45.97398" lon="4.62592">
        <ele>357</ele>
        <time>2017-05-05T09:13:06Z</time>
      </trkpt>
      <trkpt lat="45.97396" lon="4.62581">
        <ele>359</ele>
        <time>2017-05-05T09:13:09Z</time>
      </trkpt>
      <trkpt lat="45.97396" lon="4.62577">
        <ele>359</ele>
        <time>2017-05-05T09:13:10Z</time>
      </trkpt>
      <trkpt lat="45.97396" lon="4.62564">
        <ele>360</ele>
        <time>2017-05-05T09:13:14Z</time>
      </trkpt>
      <trkpt lat="45.97396" lon="4.62561">
        <ele>360</ele>
        <time>2017-05-05T09:13:15Z</time>
      </trkpt>
      <trkpt lat="45.97396" lon="4.62549">
        <ele>360</ele>
        <time>2017-05-05T09:13:19Z</time>
      </trkpt>
      <trkpt lat="45.97396" lon="4.62546">
        <ele>360</ele>
        <time>2017-05-05T09:13:20Z</time>
      </trkpt>
      <trkpt lat="45.97396" lon="4.62534">
        <ele>361</ele>
        <time>2017-05-05T09:13:24Z</time>
      </trkpt>
      <trkpt lat="45.97396" lon="4.62531">
        <ele>361</ele>
        <time>2017-05-05T09:13:25Z</time>
      </trkpt>
      <trkpt lat="45.97397" lon="4.62519">
        <ele>361</ele>
        <time>2017-05-05T09:13:28Z</time>
      </trkpt>
      <trkpt lat="45.97397" lon="4.62516">
        <ele>361</ele>
        <time>2017-05-05T09:13:29Z</time>
      </trkpt>
      <trkpt lat="45.97399" lon="4.62503">
        <ele>360</ele>
        <time>2017-05-05T09:13:33Z</time>
      </trkpt>
      <trkpt lat="45.97399" lon="4.625">
        <ele>360</ele>
        <time>2017-05-05T09:13:34Z</time>
      </trkpt>
      <trkpt lat="45.97401" lon="4.62489">
        <ele>363</ele>
        <time>2017-05-05T09:13:38Z</time>
      </trkpt>
      <trkpt lat="45.97402" lon="4.62486">
        <ele>363</ele>
        <time>2017-05-05T09:13:39Z</time>
      </trkpt>
      <trkpt lat="45.97404" lon="4.62475">
        <ele>363</ele>
        <time>2017-05-05T09:13:43Z</time>
      </trkpt>
      <trkpt lat="45.97405" lon="4.62472">
        <ele>364</ele>
        <time>2017-05-05T09:13:44Z</time>
      </trkpt>
      <trkpt lat="45.97407" lon="4.6246">
        <ele>364</ele>
        <time>2017-05-05T09:13:48Z</time>
      </trkpt>
      <trkpt lat="45.97407" lon="4.62457">
        <ele>364</ele>
        <time>2017-05-05T09:13:49Z</time>
      </trkpt>
      <trkpt lat="45.97409" lon="4.62447">
        <ele>364</ele>
        <time>2017-05-05T09:13:52Z</time>
      </trkpt>
      <trkpt lat="45.9741" lon="4.62445">
        <ele>364</ele>
        <time>2017-05-05T09:13:53Z</time>
      </trkpt>
      <trkpt lat="45.97412" lon="4.62433">
        <ele>364</ele>
        <time>2017-05-05T09:13:57Z</time>
      </trkpt>
      <trkpt lat="45.97413" lon="4.6243">
        <ele>364</ele>
        <time>2017-05-05T09:13:58Z</time>
      </trkpt>
      <trkpt lat="45.97415" lon="4.6242">
        <ele>363</ele>
        <time>2017-05-05T09:14:02Z</time>
      </trkpt>
      <trkpt lat="45.97416" lon="4.62417">
        <ele>363</ele>
        <time>2017-05-05T09:14:03Z</time>
      </trkpt>
      <trkpt lat="45.97417" lon="4.62406">
        <ele>362</ele>
        <time>2017-05-05T09:14:07Z</time>
      </trkpt>
      <trkpt lat="45.97417" lon="4.62403">
        <ele>362</ele>
        <time>2017-05-05T09:14:08Z</time>
      </trkpt>
      <trkpt lat="45.97419" lon="4.62393">
        <ele>362</ele>
        <time>2017-05-05T09:14:11Z</time>
      </trkpt>
      <trkpt lat="45.9742" lon="4.6239">
        <ele>362</ele>
        <time>2017-05-05T09:14:12Z</time>
      </trkpt>
      <trkpt lat="45.97423" lon="4.62379">
        <ele>362</ele>
        <time>2017-05-05T09:14:16Z</time>
      </trkpt>
      <trkpt lat="45.97423" lon="4.62376">
        <ele>363</ele>
        <time>2017-05-05T09:14:17Z</time>
      </trkpt>
      <trkpt lat="45.97423" lon="4.62364">
        <ele>363</ele>
        <time>2017-05-05T09:14:21Z</time>
      </trkpt>
      <trkpt lat="45.97424" lon="4.62361">
        <ele>363</ele>
        <time>2017-05-05T09:14:22Z</time>
      </trkpt>
      <trkpt lat="45.97425" lon="4.62348">
        <ele>365</ele>
        <time>2017-05-05T09:14:26Z</time>
      </trkpt>
      <trkpt lat="45.97425" lon="4.62346">
        <ele>365</ele>
        <time>2017-05-05T09:14:27Z</time>
      </trkpt>
      <trkpt lat="45.97426" lon="4.62335">
        <ele>366</ele>
        <time>2017-05-05T09:14:31Z</time>
      </trkpt>
      <trkpt lat="45.97426" lon="4.62332">
        <ele>367</ele>
        <time>2017-05-05T09:14:32Z</time>
      </trkpt>
      <trkpt lat="45.97427" lon="4.6232">
        <ele>367</ele>
        <time>2017-05-05T09:14:36Z</time>
      </trkpt>
      <trkpt lat="45.97427" lon="4.62317">
        <ele>367</ele>
        <time>2017-05-05T09:14:37Z</time>
      </trkpt>
      <trkpt lat="45.97428" lon="4.62306">
        <ele>367</ele>
        <time>2017-05-05T09:14:41Z</time>
      </trkpt>
      <trkpt lat="45.97428" lon="4.62303">
        <ele>367</ele>
        <time>2017-05-05T09:14:42Z</time>
      </trkpt>
      <trkpt lat="45.9743" lon="4.62291">
        <ele>367</ele>
        <time>2017-05-05T09:14:46Z</time>
      </trkpt>
      <trkpt lat="45.9743" lon="4.62288">
        <ele>367</ele>
        <time>2017-05-05T09:14:47Z</time>
      </trkpt>
      <trkpt lat="45.97431" lon="4.62277">
        <ele>367</ele>
        <time>2017-05-05T09:14:51Z</time>
      </trkpt>
      <trkpt lat="45.97431" lon="4.62274">
        <ele>367</ele>
        <time>2017-05-05T09:14:52Z</time>
      </trkpt>
      <trkpt lat="45.97432" lon="4.62262">
        <ele>368</ele>
        <time>2017-05-05T09:14:56Z</time>
      </trkpt>
      <trkpt lat="45.97432" lon="4.62259">
        <ele>368</ele>
        <time>2017-05-05T09:14:57Z</time>
      </trkpt>
      <trkpt lat="45.97433" lon="4.62248">
        <ele>370</ele>
        <time>2017-05-05T09:15:01Z</time>
      </trkpt>
      <trkpt lat="45.97433" lon="4.62245">
        <ele>370</ele>
        <time>2017-05-05T09:15:02Z</time>
      </trkpt>
      <trkpt lat="45.97433" lon="4.62233">
        <ele>370</ele>
        <time>2017-05-05T09:15:06Z</time>
      </trkpt>
      <trkpt lat="45.97433" lon="4.62229">
        <ele>370</ele>
        <time>2017-05-05T09:15:07Z</time>
      </trkpt>
      <trkpt lat="45.97434" lon="4.62217">
        <ele>370</ele>
        <time>2017-05-05T09:15:11Z</time>
      </trkpt>
      <trkpt lat="45.97435" lon="4.62214">
        <ele>370</ele>
        <time>2017-05-05T09:15:12Z</time>
      </trkpt>
      <trkpt lat="45.97435" lon="4.62204">
        <ele>371</ele>
        <time>2017-05-05T09:15:15Z</time>
      </trkpt>
      <trkpt lat="45.97435" lon="4.62201">
        <ele>371</ele>
        <time>2017-05-05T09:15:16Z</time>
      </trkpt>
      <trkpt lat="45.97436" lon="4.6219">
        <ele>371</ele>
        <time>2017-05-05T09:15:19Z</time>
      </trkpt>
      <trkpt lat="45.97436" lon="4.62187">
        <ele>371</ele>
        <time>2017-05-05T09:15:20Z</time>
      </trkpt>
      <trkpt lat="45.97437" lon="4.62177">
        <ele>372</ele>
        <time>2017-05-05T09:15:23Z</time>
      </trkpt>
      <trkpt lat="45.97437" lon="4.62173">
        <ele>372</ele>
        <time>2017-05-05T09:15:24Z</time>
      </trkpt>
      <trkpt lat="45.97438" lon="4.62163">
        <ele>375</ele>
        <time>2017-05-05T09:15:27Z</time>
      </trkpt>
      <trkpt lat="45.97439" lon="4.62159">
        <ele>375</ele>
        <time>2017-05-05T09:15:28Z</time>
      </trkpt>
      <trkpt lat="45.97439" lon="4.62149">
        <ele>375</ele>
        <time>2017-05-05T09:15:31Z</time>
      </trkpt>
      <trkpt lat="45.9744" lon="4.62146">
        <ele>375</ele>
        <time>2017-05-05T09:15:32Z</time>
      </trkpt>
      <trkpt lat="45.9744" lon="4.62136">
        <ele>376</ele>
        <time>2017-05-05T09:15:35Z</time>
      </trkpt>
      <trkpt lat="45.9744" lon="4.62132">
        <ele>376</ele>
        <time>2017-05-05T09:15:36Z</time>
      </trkpt>
      <trkpt lat="45.9744" lon="4.62122">
        <ele>376</ele>
        <time>2017-05-05T09:15:39Z</time>
      </trkpt>
      <trkpt lat="45.9744" lon="4.62118">
        <ele>376</ele>
        <time>2017-05-05T09:15:40Z</time>
      </trkpt>
      <trkpt lat="45.97441" lon="4.62109">
        <ele>377</ele>
        <time>2017-05-05T09:15:43Z</time>
      </trkpt>
      <trkpt lat="45.97442" lon="4.62105">
        <ele>377</ele>
        <time>2017-05-05T09:15:44Z</time>
      </trkpt>
      <trkpt lat="45.97442" lon="4.62093">
        <ele>377</ele>
        <time>2017-05-05T09:15:48Z</time>
      </trkpt>
      <trkpt lat="45.97442" lon="4.6209">
        <ele>377</ele>
        <time>2017-05-05T09:15:49Z</time>
      </trkpt>
      <trkpt lat="45.97443" lon="4.62078">
        <ele>379</ele>
        <time>2017-05-05T09:15:53Z</time>
      </trkpt>
      <trkpt lat="45.97443" lon="4.62075">
        <ele>379</ele>
        <time>2017-05-05T09:15:54Z</time>
      </trkpt>
      <trkpt lat="45.97443" lon="4.62063">
        <ele>379</ele>
        <time>2017-05-05T09:15:58Z</time>
      </trkpt>
      <trkpt lat="45.97444" lon="4.6206">
        <ele>379</ele>
        <time>2017-05-05T09:15:59Z</time>
      </trkpt>
      <trkpt lat="45.97443" lon="4.62048">
        <ele>379</ele>
        <time>2017-05-05T09:16:03Z</time>
      </trkpt>
      <trkpt lat="45.97443" lon="4.62045">
        <ele>379</ele>
        <time>2017-05-05T09:16:04Z</time>
      </trkpt>
      <trkpt lat="45.97442" lon="4.62032">
        <ele>379</ele>
        <time>2017-05-05T09:16:08Z</time>
      </trkpt>
      <trkpt lat="45.97442" lon="4.62029">
        <ele>379</ele>
        <time>2017-05-05T09:16:09Z</time>
      </trkpt>
      <trkpt lat="45.97441" lon="4.62017">
        <ele>379</ele>
        <time>2017-05-05T09:16:13Z</time>
      </trkpt>
      <trkpt lat="45.9744" lon="4.62014">
        <ele>379</ele>
        <time>2017-05-05T09:16:14Z</time>
      </trkpt>
      <trkpt lat="45.97439" lon="4.62004">
        <ele>379</ele>
        <time>2017-05-05T09:16:17Z</time>
      </trkpt>
      <trkpt lat="45.97439" lon="4.62001">
        <ele>379</ele>
        <time>2017-05-05T09:16:18Z</time>
      </trkpt>
      <trkpt lat="45.97439" lon="4.6199">
        <ele>380</ele>
        <time>2017-05-05T09:16:22Z</time>
      </trkpt>
      <trkpt lat="45.97438" lon="4.61987">
        <ele>380</ele>
        <time>2017-05-05T09:16:23Z</time>
      </trkpt>
      <trkpt lat="45.97439" lon="4.61974">
        <ele>380</ele>
        <time>2017-05-05T09:16:27Z</time>
      </trkpt>
      <trkpt lat="45.97439" lon="4.61971">
        <ele>380</ele>
        <time>2017-05-05T09:16:28Z</time>
      </trkpt>
      <trkpt lat="45.97439" lon="4.6196">
        <ele>380</ele>
        <time>2017-05-05T09:16:31Z</time>
      </trkpt>
      <trkpt lat="45.97439" lon="4.61957">
        <ele>380</ele>
        <time>2017-05-05T09:16:32Z</time>
      </trkpt>
      <trkpt lat="45.97439" lon="4.61944">
        <ele>381</ele>
        <time>2017-05-05T09:16:36Z</time>
      </trkpt>
      <trkpt lat="45.97439" lon="4.61941">
        <ele>381</ele>
        <time>2017-05-05T09:16:37Z</time>
      </trkpt>
      <trkpt lat="45.97439" lon="4.6193">
        <ele>381</ele>
        <time>2017-05-05T09:16:40Z</time>
      </trkpt>
      <trkpt lat="45.97438" lon="4.61927">
        <ele>381</ele>
        <time>2017-05-05T09:16:41Z</time>
      </trkpt>
      <trkpt lat="45.97437" lon="4.61916">
        <ele>383</ele>
        <time>2017-05-05T09:16:44Z</time>
      </trkpt>
      <trkpt lat="45.97437" lon="4.61913">
        <ele>383</ele>
        <time>2017-05-05T09:16:45Z</time>
      </trkpt>
      <trkpt lat="45.97436" lon="4.61903">
        <ele>383</ele>
        <time>2017-05-05T09:16:48Z</time>
      </trkpt>
      <trkpt lat="45.97436" lon="4.619">
        <ele>383</ele>
        <time>2017-05-05T09:16:49Z</time>
      </trkpt>
      <trkpt lat="45.97435" lon="4.61887">
        <ele>383</ele>
        <time>2017-05-05T09:16:53Z</time>
      </trkpt>
      <trkpt lat="45.97434" lon="4.61884">
        <ele>383</ele>
        <time>2017-05-05T09:16:54Z</time>
      </trkpt>
      <trkpt lat="45.97434" lon="4.61874">
        <ele>383</ele>
        <time>2017-05-05T09:16:57Z</time>
      </trkpt>
      <trkpt lat="45.97434" lon="4.61871">
        <ele>384</ele>
        <time>2017-05-05T09:16:58Z</time>
      </trkpt>
      <trkpt lat="45.97433" lon="4.61859">
        <ele>384</ele>
        <time>2017-05-05T09:17:01Z</time>
      </trkpt>
      <trkpt lat="45.97433" lon="4.61856">
        <ele>384</ele>
        <time>2017-05-05T09:17:02Z</time>
      </trkpt>
      <trkpt lat="45.97432" lon="4.61844">
        <ele>385</ele>
        <time>2017-05-05T09:17:06Z</time>
      </trkpt>
      <trkpt lat="45.97433" lon="4.61841">
        <ele>385</ele>
        <time>2017-05-05T09:17:07Z</time>
      </trkpt>
      <trkpt lat="45.97434" lon="4.61829">
        <ele>386</ele>
        <time>2017-05-05T09:17:11Z</time>
      </trkpt>
      <trkpt lat="45.97434" lon="4.61826">
        <ele>386</ele>
        <time>2017-05-05T09:17:12Z</time>
      </trkpt>
      <trkpt lat="45.97435" lon="4.61814">
        <ele>386</ele>
        <time>2017-05-05T09:17:16Z</time>
      </trkpt>
      <trkpt lat="45.97436" lon="4.61811">
        <ele>386</ele>
        <time>2017-05-05T09:17:17Z</time>
      </trkpt>
      <trkpt lat="45.97439" lon="4.618">
        <ele>387</ele>
        <time>2017-05-05T09:17:20Z</time>
      </trkpt>
      <trkpt lat="45.9744" lon="4.61797">
        <ele>387</ele>
        <time>2017-05-05T09:17:21Z</time>
      </trkpt>
      <trkpt lat="45.97444" lon="4.61786">
        <ele>387</ele>
        <time>2017-05-05T09:17:25Z</time>
      </trkpt>
      <trkpt lat="45.97444" lon="4.61783">
        <ele>387</ele>
        <time>2017-05-05T09:17:26Z</time>
      </trkpt>
      <trkpt lat="45.97448" lon="4.61772">
        <ele>387</ele>
        <time>2017-05-05T09:17:30Z</time>
      </trkpt>
      <trkpt lat="45.97449" lon="4.6177">
        <ele>387</ele>
        <time>2017-05-05T09:17:31Z</time>
      </trkpt>
      <trkpt lat="45.97452" lon="4.61759">
        <ele>387</ele>
        <time>2017-05-05T09:17:35Z</time>
      </trkpt>
      <trkpt lat="45.97453" lon="4.61756">
        <ele>387</ele>
        <time>2017-05-05T09:17:36Z</time>
      </trkpt>
      <trkpt lat="45.97455" lon="4.61746">
        <ele>390</ele>
        <time>2017-05-05T09:17:40Z</time>
      </trkpt>
      <trkpt lat="45.97456" lon="4.61742">
        <ele>390</ele>
        <time>2017-05-05T09:17:41Z</time>
      </trkpt>
      <trkpt lat="45.97458" lon="4.6173">
        <ele>390</ele>
        <time>2017-05-05T09:17:45Z</time>
      </trkpt>
      <trkpt lat="45.97459" lon="4.61727">
        <ele>390</ele>
        <time>2017-05-05T09:17:46Z</time>
      </trkpt>
      <trkpt lat="45.9746" lon="4.61717">
        <ele>390</ele>
        <time>2017-05-05T09:17:49Z</time>
      </trkpt>
      <trkpt lat="45.97461" lon="4.61714">
        <ele>390</ele>
        <time>2017-05-05T09:17:50Z</time>
      </trkpt>
      <trkpt lat="45.97463" lon="4.61702">
        <ele>390</ele>
        <time>2017-05-05T09:17:54Z</time>
      </trkpt>
      <trkpt lat="45.97463" lon="4.61698">
        <ele>390</ele>
        <time>2017-05-05T09:17:55Z</time>
      </trkpt>
      <trkpt lat="45.97465" lon="4.61686">
        <ele>390</ele>
        <time>2017-05-05T09:17:59Z</time>
      </trkpt>
      <trkpt lat="45.97465" lon="4.61683">
        <ele>390</ele>
        <time>2017-05-05T09:18:00Z</time>
      </trkpt>
      <trkpt lat="45.97466" lon="4.61671">
        <ele>390</ele>
        <time>2017-05-05T09:18:05Z</time>
      </trkpt>
      <trkpt lat="45.97466" lon="4.61668">
        <ele>390</ele>
        <time>2017-05-05T09:18:06Z</time>
      </trkpt>
      <trkpt lat="45.97467" lon="4.61657">
        <ele>392</ele>
        <time>2017-05-05T09:18:09Z</time>
      </trkpt>
      <trkpt lat="45.97467" lon="4.61654">
        <ele>392</ele>
        <time>2017-05-05T09:18:10Z</time>
      </trkpt>
      <trkpt lat="45.97468" lon="4.61641">
        <ele>393</ele>
        <time>2017-05-05T09:21:46Z</time>
      </trkpt>
      <trkpt lat="45.97468" lon="4.61641">
        <ele>393</ele>
        <time>2017-05-05T09:21:47Z</time>
      </trkpt>
      <trkpt lat="45.97465" lon="4.61631">
        <ele>393</ele>
        <time>2017-05-05T09:22:02Z</time>
      </trkpt>
      <trkpt lat="45.97464" lon="4.61628">
        <ele>393</ele>
        <time>2017-05-05T09:22:03Z</time>
      </trkpt>
      <trkpt lat="45.97465" lon="4.61618">
        <ele>394</ele>
        <time>2017-05-05T09:22:06Z</time>
      </trkpt>
      <trkpt lat="45.97465" lon="4.61614">
        <ele>394</ele>
        <time>2017-05-05T09:22:07Z</time>
      </trkpt>
      <trkpt lat="45.97466" lon="4.61603">
        <ele>394</ele>
        <time>2017-05-05T09:22:10Z</time>
      </trkpt>
      <trkpt lat="45.97466" lon="4.616">
        <ele>394</ele>
        <time>2017-05-05T09:22:11Z</time>
      </trkpt>
      <trkpt lat="45.97464" lon="4.61588">
        <ele>394</ele>
        <time>2017-05-05T09:22:14Z</time>
      </trkpt>
      <trkpt lat="45.97464" lon="4.61584">
        <ele>394</ele>
        <time>2017-05-05T09:22:15Z</time>
      </trkpt>
      <trkpt lat="45.97464" lon="4.61575">
        <ele>395</ele>
        <time>2017-05-05T09:22:17Z</time>
      </trkpt>
      <trkpt lat="45.97463" lon="4.61571">
        <ele>395</ele>
        <time>2017-05-05T09:22:18Z</time>
      </trkpt>
      <trkpt lat="45.97462" lon="4.61561">
        <ele>395</ele>
        <time>2017-05-05T09:22:20Z</time>
      </trkpt>
      <trkpt lat="45.97462" lon="4.61557">
        <ele>395</ele>
        <time>2017-05-05T09:22:21Z</time>
      </trkpt>
      <trkpt lat="45.97461" lon="4.61548">
        <ele>395</ele>
        <time>2017-05-05T09:22:23Z</time>
      </trkpt>
      <trkpt lat="45.97461" lon="4.61544">
        <ele>395</ele>
        <time>2017-05-05T09:22:24Z</time>
      </trkpt>
      <trkpt lat="45.9746" lon="4.61535">
        <ele>395</ele>
        <time>2017-05-05T09:22:26Z</time>
      </trkpt>
      <trkpt lat="45.97459" lon="4.6153">
        <ele>395</ele>
        <time>2017-05-05T09:22:27Z</time>
      </trkpt>
      <trkpt lat="45.97457" lon="4.6152">
        <ele>396</ele>
        <time>2017-05-05T09:22:29Z</time>
      </trkpt>
      <trkpt lat="45.97457" lon="4.61516">
        <ele>396</ele>
        <time>2017-05-05T09:22:30Z</time>
      </trkpt>
      <trkpt lat="45.97455" lon="4.61504">
        <ele>396</ele>
        <time>2017-05-05T09:22:33Z</time>
      </trkpt>
      <trkpt lat="45.97454" lon="4.61501">
        <ele>396</ele>
        <time>2017-05-05T09:22:34Z</time>
      </trkpt>
      <trkpt lat="45.97453" lon="4.61492">
        <ele>395</ele>
        <time>2017-05-05T09:22:37Z</time>
      </trkpt>
      <trkpt lat="45.97452" lon="4.61488">
        <ele>395</ele>
        <time>2017-05-05T09:22:38Z</time>
      </trkpt>
      <trkpt lat="45.97451" lon="4.61478">
        <ele>395</ele>
        <time>2017-05-05T09:22:40Z</time>
      </trkpt>
      <trkpt lat="45.9745" lon="4.61473">
        <ele>395</ele>
        <time>2017-05-05T09:22:41Z</time>
      </trkpt>
      <trkpt lat="45.97448" lon="4.61461">
        <ele>395</ele>
        <time>2017-05-05T09:22:43Z</time>
      </trkpt>
      <trkpt lat="45.97447" lon="4.61456">
        <ele>395</ele>
        <time>2017-05-05T09:22:44Z</time>
      </trkpt>
      <trkpt lat="45.97445" lon="4.61446">
        <ele>395</ele>
        <time>2017-05-05T09:22:46Z</time>
      </trkpt>
      <trkpt lat="45.97444" lon="4.61441">
        <ele>395</ele>
        <time>2017-05-05T09:22:47Z</time>
      </trkpt>
      <trkpt lat="45.97443" lon="4.61432">
        <ele>396</ele>
        <time>2017-05-05T09:22:49Z</time>
      </trkpt>
      <trkpt lat="45.97442" lon="4.61427">
        <ele>396</ele>
        <time>2017-05-05T09:22:50Z</time>
      </trkpt>
      <trkpt lat="45.97439" lon="4.61416">
        <ele>395</ele>
        <time>2017-05-05T09:22:52Z</time>
      </trkpt>
      <trkpt lat="45.97438" lon="4.61411">
        <ele>395</ele>
        <time>2017-05-05T09:22:53Z</time>
      </trkpt>
      <trkpt lat="45.97436" lon="4.61399">
        <ele>394</ele>
        <time>2017-05-05T09:22:55Z</time>
      </trkpt>
      <trkpt lat="45.97435" lon="4.61394">
        <ele>394</ele>
        <time>2017-05-05T09:22:56Z</time>
      </trkpt>
      <trkpt lat="45.97432" lon="4.61382">
        <ele>394</ele>
        <time>2017-05-05T09:22:58Z</time>
      </trkpt>
      <trkpt lat="45.97431" lon="4.61376">
        <ele>394</ele>
        <time>2017-05-05T09:22:59Z</time>
      </trkpt>
      <trkpt lat="45.97428" lon="4.61364">
        <ele>394</ele>
        <time>2017-05-05T09:23:01Z</time>
      </trkpt>
      <trkpt lat="45.97426" lon="4.61358">
        <ele>394</ele>
        <time>2017-05-05T09:23:02Z</time>
      </trkpt>
      <trkpt lat="45.97425" lon="4.61351">
        <ele>394</ele>
        <time>2017-05-05T09:23:03Z</time>
      </trkpt>
      <trkpt lat="45.97423" lon="4.61344">
        <ele>395</ele>
        <time>2017-05-05T09:23:04Z</time>
      </trkpt>
      <trkpt lat="45.97422" lon="4.61337">
        <ele>395</ele>
        <time>2017-05-05T09:23:05Z</time>
      </trkpt>
      <trkpt lat="45.9742" lon="4.61329">
        <ele>394</ele>
        <time>2017-05-05T09:23:06Z</time>
      </trkpt>
      <trkpt lat="45.97418" lon="4.61322">
        <ele>393</ele>
        <time>2017-05-05T09:23:07Z</time>
      </trkpt>
      <trkpt lat="45.97416" lon="4.61314">
        <ele>397</ele>
        <time>2017-05-05T09:23:08Z</time>
      </trkpt>
      <trkpt lat="45.97415" lon="4.61307">
        <ele>397</ele>
        <time>2017-05-05T09:23:09Z</time>
      </trkpt>
      <trkpt lat="45.97412" lon="4.613">
        <ele>397</ele>
        <time>2017-05-05T09:23:10Z</time>
      </trkpt>
      <trkpt lat="45.9741" lon="4.61292">
        <ele>397</ele>
        <time>2017-05-05T09:23:11Z</time>
      </trkpt>
      <trkpt lat="45.97409" lon="4.61285">
        <ele>397</ele>
        <time>2017-05-05T09:23:12Z</time>
      </trkpt>
      <trkpt lat="45.97407" lon="4.61277">
        <ele>396</ele>
        <time>2017-05-05T09:23:13Z</time>
      </trkpt>
      <trkpt lat="45.97405" lon="4.61269">
        <ele>396</ele>
        <time>2017-05-05T09:23:14Z</time>
      </trkpt>
      <trkpt lat="45.97403" lon="4.61262">
        <ele>395</ele>
        <time>2017-05-05T09:23:15Z</time>
      </trkpt>
      <trkpt lat="45.97402" lon="4.61254">
        <ele>395</ele>
        <time>2017-05-05T09:23:16Z</time>
      </trkpt>
      <trkpt lat="45.974" lon="4.61247">
        <ele>394</ele>
        <time>2017-05-05T09:23:17Z</time>
      </trkpt>
      <trkpt lat="45.97399" lon="4.61239">
        <ele>394</ele>
        <time>2017-05-05T09:23:18Z</time>
      </trkpt>
      <trkpt lat="45.97398" lon="4.61232">
        <ele>395</ele>
        <time>2017-05-05T09:23:19Z</time>
      </trkpt>
      <trkpt lat="45.97397" lon="4.61225">
        <ele>395</ele>
        <time>2017-05-05T09:23:20Z</time>
      </trkpt>
      <trkpt lat="45.97396" lon="4.61218">
        <ele>395</ele>
        <time>2017-05-05T09:23:21Z</time>
      </trkpt>
      <trkpt lat="45.97396" lon="4.61211">
        <ele>395</ele>
        <time>2017-05-05T09:23:22Z</time>
      </trkpt>
      <trkpt lat="45.97396" lon="4.61204">
        <ele>395</ele>
        <time>2017-05-05T09:23:23Z</time>
      </trkpt>
      <trkpt lat="45.97396" lon="4.61197">
        <ele>394</ele>
        <time>2017-05-05T09:23:24Z</time>
      </trkpt>
      <trkpt lat="45.97396" lon="4.61191">
        <ele>394</ele>
        <time>2017-05-05T09:23:25Z</time>
      </trkpt>
      <trkpt lat="45.97396" lon="4.61184">
        <ele>394</ele>
        <time>2017-05-05T09:23:26Z</time>
      </trkpt>
      <trkpt lat="45.97397" lon="4.61171">
        <ele>393</ele>
        <time>2017-05-05T09:23:28Z</time>
      </trkpt>
      <trkpt lat="45.97397" lon="4.61165">
        <ele>394</ele>
        <time>2017-05-05T09:23:29Z</time>
      </trkpt>
      <trkpt lat="45.97398" lon="4.61154">
        <ele>395</ele>
        <time>2017-05-05T09:23:31Z</time>
      </trkpt>
      <trkpt lat="45.97399" lon="4.61149">
        <ele>395</ele>
        <time>2017-05-05T09:23:32Z</time>
      </trkpt>
      <trkpt lat="45.97401" lon="4.61139">
        <ele>396</ele>
        <time>2017-05-05T09:23:34Z</time>
      </trkpt>
      <trkpt lat="45.97402" lon="4.61134">
        <ele>396</ele>
        <time>2017-05-05T09:23:35Z</time>
      </trkpt>
      <trkpt lat="45.97404" lon="4.61123">
        <ele>397</ele>
        <time>2017-05-05T09:23:37Z</time>
      </trkpt>
      <trkpt lat="45.97406" lon="4.61118">
        <ele>397</ele>
        <time>2017-05-05T09:23:38Z</time>
      </trkpt>
      <trkpt lat="45.97409" lon="4.61108">
        <ele>397</ele>
        <time>2017-05-05T09:23:40Z</time>
      </trkpt>
      <trkpt lat="45.97411" lon="4.61103">
        <ele>396</ele>
        <time>2017-05-05T09:23:41Z</time>
      </trkpt>
      <trkpt lat="45.97414" lon="4.61092">
        <ele>395</ele>
        <time>2017-05-05T09:23:43Z</time>
      </trkpt>
      <trkpt lat="45.97415" lon="4.61086">
        <ele>394</ele>
        <time>2017-05-05T09:23:44Z</time>
      </trkpt>
      <trkpt lat="45.97418" lon="4.61074">
        <ele>392</ele>
        <time>2017-05-05T09:23:46Z</time>
      </trkpt>
      <trkpt lat="45.9742" lon="4.61069">
        <ele>392</ele>
        <time>2017-05-05T09:23:47Z</time>
      </trkpt>
      <trkpt lat="45.97422" lon="4.61058">
        <ele>392</ele>
        <time>2017-05-05T09:23:49Z</time>
      </trkpt>
      <trkpt lat="45.97423" lon="4.61053">
        <ele>392</ele>
        <time>2017-05-05T09:23:50Z</time>
      </trkpt>
      <trkpt lat="45.97426" lon="4.61044">
        <ele>393</ele>
        <time>2017-05-05T09:23:52Z</time>
      </trkpt>
      <trkpt lat="45.97428" lon="4.6104">
        <ele>393</ele>
        <time>2017-05-05T09:23:53Z</time>
      </trkpt>
      <trkpt lat="45.97431" lon="4.6103">
        <ele>394</ele>
        <time>2017-05-05T09:23:55Z</time>
      </trkpt>
      <trkpt lat="45.97432" lon="4.61026">
        <ele>395</ele>
        <time>2017-05-05T09:23:56Z</time>
      </trkpt>
      <trkpt lat="45.97434" lon="4.61018">
        <ele>396</ele>
        <time>2017-05-05T09:23:58Z</time>
      </trkpt>
      <trkpt lat="45.97435" lon="4.61013">
        <ele>396</ele>
        <time>2017-05-05T09:23:59Z</time>
      </trkpt>
      <trkpt lat="45.97438" lon="4.61004">
        <ele>396</ele>
        <time>2017-05-05T09:24:01Z</time>
      </trkpt>
      <trkpt lat="45.9744" lon="4.60999">
        <ele>400</ele>
        <time>2017-05-05T09:24:02Z</time>
      </trkpt>
      <trkpt lat="45.97444" lon="4.60988">
        <ele>399</ele>
        <time>2017-05-05T09:24:04Z</time>
      </trkpt>
      <trkpt lat="45.97445" lon="4.60983">
        <ele>399</ele>
        <time>2017-05-05T09:24:05Z</time>
      </trkpt>
      <trkpt lat="45.97447" lon="4.60975">
        <ele>398</ele>
        <time>2017-05-05T09:24:07Z</time>
      </trkpt>
      <trkpt lat="45.97448" lon="4.60971">
        <ele>398</ele>
        <time>2017-05-05T09:24:08Z</time>
      </trkpt>
      <trkpt lat="45.9745" lon="4.60962">
        <ele>398</ele>
        <time>2017-05-05T09:24:10Z</time>
      </trkpt>
      <trkpt lat="45.97451" lon="4.60957">
        <ele>398</ele>
        <time>2017-05-05T09:24:11Z</time>
      </trkpt>
      <trkpt lat="45.97454" lon="4.60946">
        <ele>398</ele>
        <time>2017-05-05T09:24:13Z</time>
      </trkpt>
      <trkpt lat="45.97455" lon="4.6094">
        <ele>398</ele>
        <time>2017-05-05T09:24:14Z</time>
      </trkpt>
      <trkpt lat="45.97457" lon="4.60929">
        <ele>398</ele>
        <time>2017-05-05T09:24:16Z</time>
      </trkpt>
      <trkpt lat="45.97458" lon="4.60924">
        <ele>398</ele>
        <time>2017-05-05T09:24:17Z</time>
      </trkpt>
      <trkpt lat="45.9746" lon="4.60911">
        <ele>401</ele>
        <time>2017-05-05T09:24:19Z</time>
      </trkpt>
      <trkpt lat="45.97461" lon="4.60906">
        <ele>401</ele>
        <time>2017-05-05T09:24:20Z</time>
      </trkpt>
      <trkpt lat="45.97463" lon="4.60894">
        <ele>401</ele>
        <time>2017-05-05T09:24:22Z</time>
      </trkpt>
      <trkpt lat="45.97464" lon="4.60888">
        <ele>401</ele>
        <time>2017-05-05T09:24:23Z</time>
      </trkpt>
      <trkpt lat="45.97465" lon="4.60879">
        <ele>401</ele>
        <time>2017-05-05T09:24:25Z</time>
      </trkpt>
      <trkpt lat="45.97466" lon="4.60874">
        <ele>401</ele>
        <time>2017-05-05T09:24:26Z</time>
      </trkpt>
      <trkpt lat="45.97467" lon="4.60864">
        <ele>401</ele>
        <time>2017-05-05T09:24:28Z</time>
      </trkpt>
      <trkpt lat="45.97468" lon="4.60858">
        <ele>401</ele>
        <time>2017-05-05T09:24:29Z</time>
      </trkpt>
      <trkpt lat="45.97469" lon="4.60847">
        <ele>401</ele>
        <time>2017-05-05T09:24:31Z</time>
      </trkpt>
      <trkpt lat="45.9747" lon="4.60841">
        <ele>401</ele>
        <time>2017-05-05T09:24:32Z</time>
      </trkpt>
      <trkpt lat="45.97472" lon="4.60829">
        <ele>402</ele>
        <time>2017-05-05T09:24:34Z</time>
      </trkpt>
      <trkpt lat="45.97473" lon="4.60822">
        <ele>402</ele>
        <time>2017-05-05T09:24:35Z</time>
      </trkpt>
      <trkpt lat="45.97475" lon="4.60816">
        <ele>402</ele>
        <time>2017-05-05T09:24:36Z</time>
      </trkpt>
      <trkpt lat="45.97475" lon="4.60809">
        <ele>403</ele>
        <time>2017-05-05T09:24:37Z</time>
      </trkpt>
      <trkpt lat="45.97476" lon="4.60803">
        <ele>403</ele>
        <time>2017-05-05T09:24:38Z</time>
      </trkpt>
      <trkpt lat="45.97477" lon="4.60796">
        <ele>403</ele>
        <time>2017-05-05T09:24:39Z</time>
      </trkpt>
      <trkpt lat="45.97478" lon="4.60784">
        <ele>403</ele>
        <time>2017-05-05T09:24:41Z</time>
      </trkpt>
      <trkpt lat="45.97479" lon="4.60779">
        <ele>403</ele>
        <time>2017-05-05T09:24:42Z</time>
      </trkpt>
      <trkpt lat="45.97481" lon="4.60768">
        <ele>403</ele>
        <time>2017-05-05T09:24:44Z</time>
      </trkpt>
      <trkpt lat="45.97482" lon="4.60763">
        <ele>402</ele>
        <time>2017-05-05T09:24:45Z</time>
      </trkpt>
      <trkpt lat="45.97485" lon="4.60754">
        <ele>401</ele>
        <time>2017-05-05T09:24:47Z</time>
      </trkpt>
      <trkpt lat="45.97486" lon="4.6075">
        <ele>401</ele>
        <time>2017-05-05T09:24:48Z</time>
      </trkpt>
      <trkpt lat="45.9749" lon="4.60741">
        <ele>401</ele>
        <time>2017-05-05T09:24:50Z</time>
      </trkpt>
      <trkpt lat="45.97492" lon="4.60736">
        <ele>402</ele>
        <time>2017-05-05T09:24:51Z</time>
      </trkpt>
      <trkpt lat="45.97495" lon="4.60724">
        <ele>402</ele>
        <time>2017-05-05T09:24:53Z</time>
      </trkpt>
      <trkpt lat="45.97497" lon="4.60719">
        <ele>403</ele>
        <time>2017-05-05T09:24:54Z</time>
      </trkpt>
      <trkpt lat="45.97501" lon="4.60708">
        <ele>398</ele>
        <time>2017-05-05T09:24:56Z</time>
      </trkpt>
      <trkpt lat="45.97503" lon="4.60703">
        <ele>398</ele>
        <time>2017-05-05T09:24:57Z</time>
      </trkpt>
      <trkpt lat="45.97506" lon="4.60698">
        <ele>398</ele>
        <time>2017-05-05T09:24:58Z</time>
      </trkpt>
      <trkpt lat="45.97509" lon="4.60692">
        <ele>398</ele>
        <time>2017-05-05T09:24:59Z</time>
      </trkpt>
      <trkpt lat="45.97514" lon="4.60682">
        <ele>399</ele>
        <time>2017-05-05T09:25:01Z</time>
      </trkpt>
      <trkpt lat="45.97517" lon="4.60677">
        <ele>399</ele>
        <time>2017-05-05T09:25:02Z</time>
      </trkpt>
      <trkpt lat="45.97522" lon="4.60669">
        <ele>399</ele>
        <time>2017-05-05T09:25:04Z</time>
      </trkpt>
      <trkpt lat="45.97525" lon="4.60664">
        <ele>402</ele>
        <time>2017-05-05T09:25:05Z</time>
      </trkpt>
      <trkpt lat="45.97527" lon="4.60659">
        <ele>402</ele>
        <time>2017-05-05T09:25:06Z</time>
      </trkpt>
      <trkpt lat="45.9753" lon="4.60653">
        <ele>402</ele>
        <time>2017-05-05T09:25:07Z</time>
      </trkpt>
      <trkpt lat="45.97534" lon="4.60642">
        <ele>402</ele>
        <time>2017-05-05T09:25:09Z</time>
      </trkpt>
      <trkpt lat="45.97536" lon="4.60637">
        <ele>402</ele>
        <time>2017-05-05T09:25:10Z</time>
      </trkpt>
      <trkpt lat="45.9754" lon="4.60628">
        <ele>402</ele>
        <time>2017-05-05T09:25:12Z</time>
      </trkpt>
      <trkpt lat="45.97542" lon="4.60624">
        <ele>402</ele>
        <time>2017-05-05T09:25:13Z</time>
      </trkpt>
      <trkpt lat="45.97546" lon="4.60615">
        <ele>402</ele>
        <time>2017-05-05T09:25:15Z</time>
      </trkpt>
      <trkpt lat="45.97548" lon="4.60611">
        <ele>402</ele>
        <time>2017-05-05T09:25:16Z</time>
      </trkpt>
      <trkpt lat="45.97552" lon="4.60604">
        <ele>402</ele>
        <time>2017-05-05T09:25:18Z</time>
      </trkpt>
      <trkpt lat="45.97553" lon="4.606">
        <ele>402</ele>
        <time>2017-05-05T09:25:19Z</time>
      </trkpt>
      <trkpt lat="45.97557" lon="4.60592">
        <ele>402</ele>
        <time>2017-05-05T09:25:21Z</time>
      </trkpt>
      <trkpt lat="45.97559" lon="4.60589">
        <ele>402</ele>
        <time>2017-05-05T09:25:22Z</time>
      </trkpt>
      <trkpt lat="45.97563" lon="4.60582">
        <ele>404</ele>
        <time>2017-05-05T09:25:24Z</time>
      </trkpt>
      <trkpt lat="45.97566" lon="4.60578">
        <ele>404</ele>
        <time>2017-05-05T09:25:25Z</time>
      </trkpt>
      <trkpt lat="45.9757" lon="4.6057">
        <ele>404</ele>
        <time>2017-05-05T09:25:27Z</time>
      </trkpt>
      <trkpt lat="45.97572" lon="4.60566">
        <ele>405</ele>
        <time>2017-05-05T09:25:28Z</time>
      </trkpt>
      <trkpt lat="45.97576" lon="4.60558">
        <ele>405</ele>
        <time>2017-05-05T09:25:30Z</time>
      </trkpt>
      <trkpt lat="45.97578" lon="4.60555">
        <ele>405</ele>
        <time>2017-05-05T09:25:31Z</time>
      </trkpt>
      <trkpt lat="45.97582" lon="4.60547">
        <ele>406</ele>
        <time>2017-05-05T09:25:33Z</time>
      </trkpt>
      <trkpt lat="45.97583" lon="4.60543">
        <ele>406</ele>
        <time>2017-05-05T09:25:34Z</time>
      </trkpt>
      <trkpt lat="45.97586" lon="4.60536">
        <ele>405</ele>
        <time>2017-05-05T09:25:36Z</time>
      </trkpt>
      <trkpt lat="45.97588" lon="4.60532">
        <ele>405</ele>
        <time>2017-05-05T09:25:37Z</time>
      </trkpt>
      <trkpt lat="45.97593" lon="4.60525">
        <ele>406</ele>
        <time>2017-05-05T09:25:39Z</time>
      </trkpt>
      <trkpt lat="45.97594" lon="4.60522">
        <ele>406</ele>
        <time>2017-05-05T09:25:40Z</time>
      </trkpt>
      <trkpt lat="45.97598" lon="4.60514">
        <ele>407</ele>
        <time>2017-05-05T09:25:42Z</time>
      </trkpt>
      <trkpt lat="45.976" lon="4.60511">
        <ele>407</ele>
        <time>2017-05-05T09:25:43Z</time>
      </trkpt>
      <trkpt lat="45.97605" lon="4.605">
        <ele>407</ele>
        <time>2017-05-05T09:25:46Z</time>
      </trkpt>
      <trkpt lat="45.97606" lon="4.60497">
        <ele>409</ele>
        <time>2017-05-05T09:25:47Z</time>
      </trkpt>
      <trkpt lat="45.9761" lon="4.6049">
        <ele>409</ele>
        <time>2017-05-05T09:25:49Z</time>
      </trkpt>
      <trkpt lat="45.97612" lon="4.60486">
        <ele>409</ele>
        <time>2017-05-05T09:25:50Z</time>
      </trkpt>
      <trkpt lat="45.97616" lon="4.60479">
        <ele>409</ele>
        <time>2017-05-05T09:25:52Z</time>
      </trkpt>
      <trkpt lat="45.97618" lon="4.60476">
        <ele>409</ele>
        <time>2017-05-05T09:25:53Z</time>
      </trkpt>
      <trkpt lat="45.97623" lon="4.60465">
        <ele>409</ele>
        <time>2017-05-05T09:25:56Z</time>
      </trkpt>
      <trkpt lat="45.97624" lon="4.60462">
        <ele>409</ele>
        <time>2017-05-05T09:25:57Z</time>
      </trkpt>
      <trkpt lat="45.97629" lon="4.60451">
        <ele>410</ele>
        <time>2017-05-05T09:26:00Z</time>
      </trkpt>
      <trkpt lat="45.9763" lon="4.60447">
        <ele>410</ele>
        <time>2017-05-05T09:26:01Z</time>
      </trkpt>
      <trkpt lat="45.97633" lon="4.60439">
        <ele>410</ele>
        <time>2017-05-05T09:26:03Z</time>
      </trkpt>
      <trkpt lat="45.97635" lon="4.60435">
        <ele>410</ele>
        <time>2017-05-05T09:26:04Z</time>
      </trkpt>
      <trkpt lat="45.97638" lon="4.60424">
        <ele>409</ele>
        <time>2017-05-05T09:26:07Z</time>
      </trkpt>
      <trkpt lat="45.9764" lon="4.6042">
        <ele>409</ele>
        <time>2017-05-05T09:26:08Z</time>
      </trkpt>
      <trkpt lat="45.97644" lon="4.60409">
        <ele>412</ele>
        <time>2017-05-05T09:26:11Z</time>
      </trkpt>
      <trkpt lat="45.97645" lon="4.60405">
        <ele>412</ele>
        <time>2017-05-05T09:26:12Z</time>
      </trkpt>
      <trkpt lat="45.97649" lon="4.60395">
        <ele>413</ele>
        <time>2017-05-05T09:26:15Z</time>
      </trkpt>
      <trkpt lat="45.9765" lon="4.60391">
        <ele>413</ele>
        <time>2017-05-05T09:26:16Z</time>
      </trkpt>
      <trkpt lat="45.97653" lon="4.6038">
        <ele>413</ele>
        <time>2017-05-05T09:26:19Z</time>
      </trkpt>
      <trkpt lat="45.97654" lon="4.60376">
        <ele>413</ele>
        <time>2017-05-05T09:26:20Z</time>
      </trkpt>
      <trkpt lat="45.97656" lon="4.60368">
        <ele>414</ele>
        <time>2017-05-05T09:26:22Z</time>
      </trkpt>
      <trkpt lat="45.97658" lon="4.60364">
        <ele>414</ele>
        <time>2017-05-05T09:26:23Z</time>
      </trkpt>
      <trkpt lat="45.97661" lon="4.60352">
        <ele>414</ele>
        <time>2017-05-05T09:26:26Z</time>
      </trkpt>
      <trkpt lat="45.97662" lon="4.60348">
        <ele>414</ele>
        <time>2017-05-05T09:26:27Z</time>
      </trkpt>
      <trkpt lat="45.97664" lon="4.6034">
        <ele>413</ele>
        <time>2017-05-05T09:26:29Z</time>
      </trkpt>
      <trkpt lat="45.97666" lon="4.60335">
        <ele>413</ele>
        <time>2017-05-05T09:26:30Z</time>
      </trkpt>
      <trkpt lat="45.97669" lon="4.60325">
        <ele>413</ele>
        <time>2017-05-05T09:26:32Z</time>
      </trkpt>
      <trkpt lat="45.97671" lon="4.6032">
        <ele>413</ele>
        <time>2017-05-05T09:26:33Z</time>
      </trkpt>
      <trkpt lat="45.97674" lon="4.60311">
        <ele>413</ele>
        <time>2017-05-05T09:26:35Z</time>
      </trkpt>
      <trkpt lat="45.97675" lon="4.60307">
        <ele>413</ele>
        <time>2017-05-05T09:26:36Z</time>
      </trkpt>
      <trkpt lat="45.97679" lon="4.60296">
        <ele>414</ele>
        <time>2017-05-05T09:26:39Z</time>
      </trkpt>
      <trkpt lat="45.9768" lon="4.60293">
        <ele>414</ele>
        <time>2017-05-05T09:26:40Z</time>
      </trkpt>
      <trkpt lat="45.97683" lon="4.60282">
        <ele>414</ele>
        <time>2017-05-05T09:26:43Z</time>
      </trkpt>
      <trkpt lat="45.97685" lon="4.60278">
        <ele>414</ele>
        <time>2017-05-05T09:26:44Z</time>
      </trkpt>
      <trkpt lat="45.97687" lon="4.60269">
        <ele>415</ele>
        <time>2017-05-05T09:26:46Z</time>
      </trkpt>
      <trkpt lat="45.97689" lon="4.60264">
        <ele>415</ele>
        <time>2017-05-05T09:26:47Z</time>
      </trkpt>
      <trkpt lat="45.97692" lon="4.60253">
        <ele>415</ele>
        <time>2017-05-05T09:26:49Z</time>
      </trkpt>
      <trkpt lat="45.97694" lon="4.60247">
        <ele>417</ele>
        <time>2017-05-05T09:26:50Z</time>
      </trkpt>
      <trkpt lat="45.97697" lon="4.60238">
        <ele>417</ele>
        <time>2017-05-05T09:26:52Z</time>
      </trkpt>
      <trkpt lat="45.97699" lon="4.60233">
        <ele>417</ele>
        <time>2017-05-05T09:26:53Z</time>
      </trkpt>
      <trkpt lat="45.97702" lon="4.60222">
        <ele>417</ele>
        <time>2017-05-05T09:26:56Z</time>
      </trkpt>
      <trkpt lat="45.97703" lon="4.60218">
        <ele>417</ele>
        <time>2017-05-05T09:26:57Z</time>
      </trkpt>
      <trkpt lat="45.97707" lon="4.60208">
        <ele>417</ele>
        <time>2017-05-05T09:27:00Z</time>
      </trkpt>
      <trkpt lat="45.97708" lon="4.60204">
        <ele>417</ele>
        <time>2017-05-05T09:27:01Z</time>
      </trkpt>
      <trkpt lat="45.9771" lon="4.60194">
        <ele>417</ele>
        <time>2017-05-05T09:27:04Z</time>
      </trkpt>
      <trkpt lat="45.97711" lon="4.6019">
        <ele>417</ele>
        <time>2017-05-05T09:27:05Z</time>
      </trkpt>
      <trkpt lat="45.97715" lon="4.60179">
        <ele>417</ele>
        <time>2017-05-05T09:27:08Z</time>
      </trkpt>
      <trkpt lat="45.97716" lon="4.60175">
        <ele>417</ele>
        <time>2017-05-05T09:27:09Z</time>
      </trkpt>
      <trkpt lat="45.9772" lon="4.60165">
        <ele>419</ele>
        <time>2017-05-05T09:27:12Z</time>
      </trkpt>
      <trkpt lat="45.97721" lon="4.60161">
        <ele>419</ele>
        <time>2017-05-05T09:27:13Z</time>
      </trkpt>
      <trkpt lat="45.97725" lon="4.6015">
        <ele>419</ele>
        <time>2017-05-05T09:27:16Z</time>
      </trkpt>
      <trkpt lat="45.97726" lon="4.60146">
        <ele>419</ele>
        <time>2017-05-05T09:27:17Z</time>
      </trkpt>
      <trkpt lat="45.97729" lon="4.60137">
        <ele>419</ele>
        <time>2017-05-05T09:27:19Z</time>
      </trkpt>
      <trkpt lat="45.9773" lon="4.60133">
        <ele>419</ele>
        <time>2017-05-05T09:27:20Z</time>
      </trkpt>
      <trkpt lat="45.97733" lon="4.60121">
        <ele>420</ele>
        <time>2017-05-05T09:27:23Z</time>
      </trkpt>
      <trkpt lat="45.97733" lon="4.60117">
        <ele>420</ele>
        <time>2017-05-05T09:27:24Z</time>
      </trkpt>
      <trkpt lat="45.97735" lon="4.60108">
        <ele>420</ele>
        <time>2017-05-05T09:27:27Z</time>
      </trkpt>
      <trkpt lat="45.97736" lon="4.60104">
        <ele>420</ele>
        <time>2017-05-05T09:27:28Z</time>
      </trkpt>
      <trkpt lat="45.97739" lon="4.60094">
        <ele>420</ele>
        <time>2017-05-05T09:27:31Z</time>
      </trkpt>
      <trkpt lat="45.9774" lon="4.6009">
        <ele>420</ele>
        <time>2017-05-05T09:27:32Z</time>
      </trkpt>
      <trkpt lat="45.97742" lon="4.60082">
        <ele>421</ele>
        <time>2017-05-05T09:27:34Z</time>
      </trkpt>
      <trkpt lat="45.97743" lon="4.60078">
        <ele>421</ele>
        <time>2017-05-05T09:27:35Z</time>
      </trkpt>
      <trkpt lat="45.97745" lon="4.60066">
        <ele>423</ele>
        <time>2017-05-05T09:27:38Z</time>
      </trkpt>
      <trkpt lat="45.97746" lon="4.60062">
        <ele>423</ele>
        <time>2017-05-05T09:27:39Z</time>
      </trkpt>
      <trkpt lat="45.97748" lon="4.60051">
        <ele>424</ele>
        <time>2017-05-05T09:27:42Z</time>
      </trkpt>
      <trkpt lat="45.97749" lon="4.60048">
        <ele>424</ele>
        <time>2017-05-05T09:27:43Z</time>
      </trkpt>
      <trkpt lat="45.9775" lon="4.60038">
        <ele>425</ele>
        <time>2017-05-05T09:27:46Z</time>
      </trkpt>
      <trkpt lat="45.97751" lon="4.60034">
        <ele>419</ele>
        <time>2017-05-05T09:27:47Z</time>
      </trkpt>
      <trkpt lat="45.97752" lon="4.60025">
        <ele>420</ele>
        <time>2017-05-05T09:27:50Z</time>
      </trkpt>
      <trkpt lat="45.97753" lon="4.60021">
        <ele>421</ele>
        <time>2017-05-05T09:27:51Z</time>
      </trkpt>
      <trkpt lat="45.97754" lon="4.60011">
        <ele>422</ele>
        <time>2017-05-05T09:27:54Z</time>
      </trkpt>
      <trkpt lat="45.97754" lon="4.60008">
        <ele>423</ele>
        <time>2017-05-05T09:27:55Z</time>
      </trkpt>
      <trkpt lat="45.97756" lon="4.59996">
        <ele>425</ele>
        <time>2017-05-05T09:27:59Z</time>
      </trkpt>
      <trkpt lat="45.97756" lon="4.59993">
        <ele>425</ele>
        <time>2017-05-05T09:28:00Z</time>
      </trkpt>
      <trkpt lat="45.97757" lon="4.59983">
        <ele>424</ele>
        <time>2017-05-05T09:28:03Z</time>
      </trkpt>
      <trkpt lat="45.97758" lon="4.59979">
        <ele>424</ele>
        <time>2017-05-05T09:28:04Z</time>
      </trkpt>
      <trkpt lat="45.97759" lon="4.59968">
        <ele>425</ele>
        <time>2017-05-05T09:28:07Z</time>
      </trkpt>
      <trkpt lat="45.97759" lon="4.59965">
        <ele>425</ele>
        <time>2017-05-05T09:28:08Z</time>
      </trkpt>
      <trkpt lat="45.9776" lon="4.59953">
        <ele>425</ele>
        <time>2017-05-05T09:28:12Z</time>
      </trkpt>
      <trkpt lat="45.97761" lon="4.59951">
        <ele>425</ele>
        <time>2017-05-05T09:28:13Z</time>
      </trkpt>
      <trkpt lat="45.97763" lon="4.59938">
        <ele>426</ele>
        <time>2017-05-05T09:28:18Z</time>
      </trkpt>
      <trkpt lat="45.97763" lon="4.59935">
        <ele>426</ele>
        <time>2017-05-05T09:28:19Z</time>
      </trkpt>
      <trkpt lat="45.97764" lon="4.59923">
        <ele>427</ele>
        <time>2017-05-05T09:28:24Z</time>
      </trkpt>
      <trkpt lat="45.97765" lon="4.59921">
        <ele>427</ele>
        <time>2017-05-05T09:28:25Z</time>
      </trkpt>
      <trkpt lat="45.97767" lon="4.59911">
        <ele>430</ele>
        <time>2017-05-05T09:28:29Z</time>
      </trkpt>
      <trkpt lat="45.97767" lon="4.59908">
        <ele>430</ele>
        <time>2017-05-05T09:28:30Z</time>
      </trkpt>
      <trkpt lat="45.97768" lon="4.59896">
        <ele>430</ele>
        <time>2017-05-05T09:28:35Z</time>
      </trkpt>
      <trkpt lat="45.97769" lon="4.59893">
        <ele>430</ele>
        <time>2017-05-05T09:28:36Z</time>
      </trkpt>
      <trkpt lat="45.9777" lon="4.59881">
        <ele>430</ele>
        <time>2017-05-05T09:28:40Z</time>
      </trkpt>
      <trkpt lat="45.97771" lon="4.59879">
        <ele>430</ele>
        <time>2017-05-05T09:28:41Z</time>
      </trkpt>
      <trkpt lat="45.97774" lon="4.59868">
        <ele>430</ele>
        <time>2017-05-05T09:28:45Z</time>
      </trkpt>
      <trkpt lat="45.97775" lon="4.59865">
        <ele>431</ele>
        <time>2017-05-05T09:28:46Z</time>
      </trkpt>
      <trkpt lat="45.97778" lon="4.59854">
        <ele>431</ele>
        <time>2017-05-05T09:28:51Z</time>
      </trkpt>
      <trkpt lat="45.97778" lon="4.59852">
        <ele>431</ele>
        <time>2017-05-05T09:28:52Z</time>
      </trkpt>
      <trkpt lat="45.97779" lon="4.59841">
        <ele>431</ele>
        <time>2017-05-05T09:28:55Z</time>
      </trkpt>
      <trkpt lat="45.9778" lon="4.59838">
        <ele>431</ele>
        <time>2017-05-05T09:28:56Z</time>
      </trkpt>
      <trkpt lat="45.97781" lon="4.59826">
        <ele>434</ele>
        <time>2017-05-05T09:29:01Z</time>
      </trkpt>
      <trkpt lat="45.97781" lon="4.59824">
        <ele>434</ele>
        <time>2017-05-05T09:29:02Z</time>
      </trkpt>
      <trkpt lat="45.97782" lon="4.59812">
        <ele>434</ele>
        <time>2017-05-05T09:29:07Z</time>
      </trkpt>
      <trkpt lat="45.97782" lon="4.59809">
        <ele>434</ele>
        <time>2017-05-05T09:29:08Z</time>
      </trkpt>
      <trkpt lat="45.97783" lon="4.59797">
        <ele>434</ele>
        <time>2017-05-05T09:29:12Z</time>
      </trkpt>
      <trkpt lat="45.97783" lon="4.59795">
        <ele>435</ele>
        <time>2017-05-05T09:29:13Z</time>
      </trkpt>
      <trkpt lat="45.97785" lon="4.59782">
        <ele>435</ele>
        <time>2017-05-05T09:29:17Z</time>
      </trkpt>
      <trkpt lat="45.97785" lon="4.5978">
        <ele>435</ele>
        <time>2017-05-05T09:29:18Z</time>
      </trkpt>
      <trkpt lat="45.97786" lon="4.59768">
        <ele>435</ele>
        <time>2017-05-05T09:29:23Z</time>
      </trkpt>
      <trkpt lat="45.97786" lon="4.59765">
        <ele>435</ele>
        <time>2017-05-05T09:29:24Z</time>
      </trkpt>
      <trkpt lat="45.97787" lon="4.59754">
        <ele>435</ele>
        <time>2017-05-05T09:29:28Z</time>
      </trkpt>
      <trkpt lat="45.97788" lon="4.59752">
        <ele>435</ele>
        <time>2017-05-05T09:29:29Z</time>
      </trkpt>
      <trkpt lat="45.9779" lon="4.59741">
        <ele>439</ele>
        <time>2017-05-05T09:29:33Z</time>
      </trkpt>
      <trkpt lat="45.9779" lon="4.59738">
        <ele>439</ele>
        <time>2017-05-05T09:29:34Z</time>
      </trkpt>
      <trkpt lat="45.97792" lon="4.59727">
        <ele>440</ele>
        <time>2017-05-05T09:29:38Z</time>
      </trkpt>
      <trkpt lat="45.97793" lon="4.59725">
        <ele>440</ele>
        <time>2017-05-05T09:29:39Z</time>
      </trkpt>
      <trkpt lat="45.97795" lon="4.59714">
        <ele>440</ele>
        <time>2017-05-05T09:29:43Z</time>
      </trkpt>
      <trkpt lat="45.97796" lon="4.59712">
        <ele>440</ele>
        <time>2017-05-05T09:29:44Z</time>
      </trkpt>
      <trkpt lat="45.97799" lon="4.59702">
        <ele>440</ele>
        <time>2017-05-05T09:29:48Z</time>
      </trkpt>
      <trkpt lat="45.978" lon="4.59699">
        <ele>440</ele>
        <time>2017-05-05T09:29:49Z</time>
      </trkpt>
      <trkpt lat="45.97805" lon="4.5969">
        <ele>440</ele>
        <time>2017-05-05T09:29:53Z</time>
      </trkpt>
      <trkpt lat="45.97806" lon="4.59687">
        <ele>440</ele>
        <time>2017-05-05T09:29:54Z</time>
      </trkpt>
      <trkpt lat="45.9781" lon="4.59679">
        <ele>440</ele>
        <time>2017-05-05T09:29:58Z</time>
      </trkpt>
      <trkpt lat="45.97811" lon="4.59677">
        <ele>440</ele>
        <time>2017-05-05T09:29:59Z</time>
      </trkpt>
      <trkpt lat="45.97817" lon="4.59668">
        <ele>440</ele>
        <time>2017-05-05T09:30:03Z</time>
      </trkpt>
      <trkpt lat="45.97818" lon="4.59666">
        <ele>445</ele>
        <time>2017-05-05T09:30:04Z</time>
      </trkpt>
      <trkpt lat="45.97824" lon="4.59659">
        <ele>445</ele>
        <time>2017-05-05T09:30:08Z</time>
      </trkpt>
      <trkpt lat="45.97825" lon="4.59657">
        <ele>445</ele>
        <time>2017-05-05T09:30:09Z</time>
      </trkpt>
      <trkpt lat="45.97832" lon="4.59649">
        <ele>447</ele>
        <time>2017-05-05T09:30:14Z</time>
      </trkpt>
      <trkpt lat="45.97833" lon="4.59648">
        <ele>447</ele>
        <time>2017-05-05T09:30:15Z</time>
      </trkpt>
      <trkpt lat="45.97842" lon="4.59646">
        <ele>444</ele>
        <time>2017-05-05T09:30:20Z</time>
      </trkpt>
      <trkpt lat="45.97843" lon="4.59645">
        <ele>444</ele>
        <time>2017-05-05T09:30:21Z</time>
      </trkpt>
      <trkpt lat="45.9785" lon="4.59639">
        <ele>445</ele>
        <time>2017-05-05T09:30:27Z</time>
      </trkpt>
      <trkpt lat="45.97851" lon="4.59638">
        <ele>445</ele>
        <time>2017-05-05T09:30:28Z</time>
      </trkpt>
      <trkpt lat="45.97859" lon="4.59633">
        <ele>445</ele>
        <time>2017-05-05T09:30:33Z</time>
      </trkpt>
      <trkpt lat="45.9786" lon="4.59632">
        <ele>446</ele>
        <time>2017-05-05T09:30:34Z</time>
      </trkpt>
      <trkpt lat="45.97868" lon="4.59627">
        <ele>446</ele>
        <time>2017-05-05T09:30:39Z</time>
      </trkpt>
      <trkpt lat="45.9787" lon="4.59626">
        <ele>446</ele>
        <time>2017-05-05T09:30:40Z</time>
      </trkpt>
      <trkpt lat="45.97878" lon="4.59621">
        <ele>446</ele>
        <time>2017-05-05T09:30:44Z</time>
      </trkpt>
      <trkpt lat="45.9788" lon="4.5962">
        <ele>446</ele>
        <time>2017-05-05T09:30:45Z</time>
      </trkpt>
      <trkpt lat="45.97888" lon="4.59618">
        <ele>446</ele>
        <time>2017-05-05T09:30:49Z</time>
      </trkpt>
      <trkpt lat="45.97891" lon="4.59618">
        <ele>446</ele>
        <time>2017-05-05T09:30:50Z</time>
      </trkpt>
      <trkpt lat="45.97899" lon="4.59616">
        <ele>446</ele>
        <time>2017-05-05T09:30:54Z</time>
      </trkpt>
      <trkpt lat="45.97901" lon="4.59615">
        <ele>446</ele>
        <time>2017-05-05T09:30:55Z</time>
      </trkpt>
      <trkpt lat="45.97908" lon="4.59611">
        <ele>446</ele>
        <time>2017-05-05T09:30:59Z</time>
      </trkpt>
      <trkpt lat="45.9791" lon="4.59611">
        <ele>446</ele>
        <time>2017-05-05T09:31:00Z</time>
      </trkpt>
      <trkpt lat="45.97917" lon="4.59606">
        <ele>440</ele>
        <time>2017-05-05T09:31:04Z</time>
      </trkpt>
      <trkpt lat="45.97919" lon="4.59605">
        <ele>441</ele>
        <time>2017-05-05T09:31:05Z</time>
      </trkpt>
      <trkpt lat="45.97925" lon="4.59599">
        <ele>441</ele>
        <time>2017-05-05T09:31:08Z</time>
      </trkpt>
      <trkpt lat="45.97926" lon="4.59597">
        <ele>442</ele>
        <time>2017-05-05T09:31:09Z</time>
      </trkpt>
      <trkpt lat="45.97933" lon="4.5959">
        <ele>441</ele>
        <time>2017-05-05T09:31:13Z</time>
      </trkpt>
      <trkpt lat="45.97934" lon="4.59588">
        <ele>441</ele>
        <time>2017-05-05T09:31:14Z</time>
      </trkpt>
      <trkpt lat="45.97938" lon="4.59578">
        <ele>447</ele>
        <time>2017-05-05T09:31:18Z</time>
      </trkpt>
      <trkpt lat="45.97939" lon="4.59575">
        <ele>447</ele>
        <time>2017-05-05T09:31:19Z</time>
      </trkpt>
      <trkpt lat="45.97942" lon="4.59564">
        <ele>447</ele>
        <time>2017-05-05T09:31:23Z</time>
      </trkpt>
      <trkpt lat="45.97942" lon="4.59562">
        <ele>447</ele>
        <time>2017-05-05T09:31:24Z</time>
      </trkpt>
      <trkpt lat="45.97945" lon="4.59551">
        <ele>448</ele>
        <time>2017-05-05T09:31:28Z</time>
      </trkpt>
      <trkpt lat="45.97945" lon="4.59549">
        <ele>448</ele>
        <time>2017-05-05T09:31:29Z</time>
      </trkpt>
      <trkpt lat="45.97946" lon="4.59546">
        <ele>448</ele>
        <time>2017-05-05T09:31:30Z</time>
      </trkpt>
      <trkpt lat="45.97945" lon="4.59545">
        <ele>448</ele>
        <time>2017-05-05T09:31:31Z</time>
      </trkpt>
      <trkpt lat="45.97945" lon="4.59544">
        <ele>448</ele>
        <time>2017-05-05T09:31:44Z</time>
      </trkpt>
      <trkpt lat="45.97945" lon="4.59544">
        <ele>448</ele>
        <time>2017-05-05T09:31:45Z</time>
      </trkpt>
      <trkpt lat="45.97945" lon="4.59531">
        <ele>449</ele>
        <time>2017-05-05T09:36:14Z</time>
      </trkpt>
      <trkpt lat="45.97945" lon="4.5953">
        <ele>449</ele>
        <time>2017-05-05T09:36:15Z</time>
      </trkpt>
      <trkpt lat="45.97947" lon="4.5952">
        <ele>450</ele>
        <time>2017-05-05T09:36:20Z</time>
      </trkpt>
      <trkpt lat="45.97947" lon="4.59517">
        <ele>450</ele>
        <time>2017-05-05T09:36:21Z</time>
      </trkpt>
      <trkpt lat="45.97949" lon="4.59504">
        <ele>451</ele>
        <time>2017-05-05T09:36:25Z</time>
      </trkpt>
      <trkpt lat="45.9795" lon="4.59502">
        <ele>451</ele>
        <time>2017-05-05T09:36:26Z</time>
      </trkpt>
      <trkpt lat="45.97952" lon="4.5949">
        <ele>458</ele>
        <time>2017-05-05T09:36:30Z</time>
      </trkpt>
      <trkpt lat="45.97953" lon="4.59487">
        <ele>458</ele>
        <time>2017-05-05T09:36:31Z</time>
      </trkpt>
      <trkpt lat="45.97957" lon="4.59475">
        <ele>458</ele>
        <time>2017-05-05T09:36:35Z</time>
      </trkpt>
      <trkpt lat="45.97958" lon="4.59472">
        <ele>458</ele>
        <time>2017-05-05T09:36:36Z</time>
      </trkpt>
      <trkpt lat="45.97961" lon="4.59464">
        <ele>458</ele>
        <time>2017-05-05T09:36:39Z</time>
      </trkpt>
      <trkpt lat="45.97962" lon="4.59461">
        <ele>458</ele>
        <time>2017-05-05T09:36:40Z</time>
      </trkpt>
      <trkpt lat="45.97968" lon="4.59451">
        <ele>458</ele>
        <time>2017-05-05T09:36:44Z</time>
      </trkpt>
      <trkpt lat="45.97969" lon="4.59449">
        <ele>458</ele>
        <time>2017-05-05T09:36:45Z</time>
      </trkpt>
      <trkpt lat="45.97974" lon="4.59439">
        <ele>458</ele>
        <time>2017-05-05T09:36:49Z</time>
      </trkpt>
      <trkpt lat="45.97976" lon="4.59437">
        <ele>458</ele>
        <time>2017-05-05T09:36:50Z</time>
      </trkpt>
      <trkpt lat="45.97981" lon="4.59426">
        <ele>458</ele>
        <time>2017-05-05T09:36:54Z</time>
      </trkpt>
      <trkpt lat="45.97982" lon="4.59424">
        <ele>458</ele>
        <time>2017-05-05T09:36:55Z</time>
      </trkpt>
      <trkpt lat="45.97986" lon="4.59413">
        <ele>460</ele>
        <time>2017-05-05T09:36:59Z</time>
      </trkpt>
      <trkpt lat="45.97986" lon="4.5941">
        <ele>460</ele>
        <time>2017-05-05T09:37:00Z</time>
      </trkpt>
      <trkpt lat="45.97988" lon="4.59398">
        <ele>461</ele>
        <time>2017-05-05T09:37:04Z</time>
      </trkpt>
      <trkpt lat="45.97988" lon="4.59395">
        <ele>462</ele>
        <time>2017-05-05T09:37:05Z</time>
      </trkpt>
      <trkpt lat="45.97988" lon="4.59383">
        <ele>463</ele>
        <time>2017-05-05T09:37:09Z</time>
      </trkpt>
      <trkpt lat="45.97988" lon="4.5938">
        <ele>463</ele>
        <time>2017-05-05T09:37:10Z</time>
      </trkpt>
      <trkpt lat="45.97986" lon="4.59368">
        <ele>463</ele>
        <time>2017-05-05T09:37:14Z</time>
      </trkpt>
      <trkpt lat="45.97985" lon="4.59366">
        <ele>463</ele>
        <time>2017-05-05T09:37:15Z</time>
      </trkpt>
      <trkpt lat="45.97982" lon="4.59354">
        <ele>463</ele>
        <time>2017-05-05T09:37:19Z</time>
      </trkpt>
      <trkpt lat="45.97982" lon="4.59351">
        <ele>463</ele>
        <time>2017-05-05T09:37:20Z</time>
      </trkpt>
      <trkpt lat="45.9798" lon="4.59339">
        <ele>462</ele>
        <time>2017-05-05T09:37:24Z</time>
      </trkpt>
      <trkpt lat="45.97979" lon="4.59336">
        <ele>462</ele>
        <time>2017-05-05T09:37:25Z</time>
      </trkpt>
      <trkpt lat="45.97977" lon="4.59327">
        <ele>465</ele>
        <time>2017-05-05T09:37:28Z</time>
      </trkpt>
      <trkpt lat="45.97976" lon="4.59324">
        <ele>465</ele>
        <time>2017-05-05T09:37:29Z</time>
      </trkpt>
      <trkpt lat="45.97973" lon="4.59313">
        <ele>466</ele>
        <time>2017-05-05T09:37:33Z</time>
      </trkpt>
      <trkpt lat="45.97973" lon="4.5931">
        <ele>466</ele>
        <time>2017-05-05T09:37:34Z</time>
      </trkpt>
      <trkpt lat="45.9797" lon="4.59298">
        <ele>467</ele>
        <time>2017-05-05T09:37:38Z</time>
      </trkpt>
      <trkpt lat="45.97969" lon="4.59295">
        <ele>468</ele>
        <time>2017-05-05T09:37:39Z</time>
      </trkpt>
      <trkpt lat="45.97967" lon="4.59284">
        <ele>468</ele>
        <time>2017-05-05T09:37:43Z</time>
      </trkpt>
      <trkpt lat="45.97966" lon="4.59282">
        <ele>468</ele>
        <time>2017-05-05T09:37:44Z</time>
      </trkpt>
      <trkpt lat="45.97965" lon="4.5927">
        <ele>468</ele>
        <time>2017-05-05T09:37:48Z</time>
      </trkpt>
      <trkpt lat="45.97965" lon="4.59267">
        <ele>468</ele>
        <time>2017-05-05T09:37:49Z</time>
      </trkpt>
      <trkpt lat="45.97963" lon="4.59255">
        <ele>468</ele>
        <time>2017-05-05T09:37:53Z</time>
      </trkpt>
      <trkpt lat="45.97963" lon="4.59252">
        <ele>469</ele>
        <time>2017-05-05T09:37:54Z</time>
      </trkpt>
      <trkpt lat="45.97963" lon="4.5924">
        <ele>471</ele>
        <time>2017-05-05T09:37:58Z</time>
      </trkpt>
      <trkpt lat="45.97963" lon="4.59237">
        <ele>471</ele>
        <time>2017-05-05T09:37:59Z</time>
      </trkpt>
      <trkpt lat="45.97963" lon="4.59226">
        <ele>472</ele>
        <time>2017-05-05T09:38:03Z</time>
      </trkpt>
      <trkpt lat="45.97964" lon="4.59223">
        <ele>472</ele>
        <time>2017-05-05T09:38:04Z</time>
      </trkpt>
      <trkpt lat="45.97967" lon="4.59212">
        <ele>472</ele>
        <time>2017-05-05T09:38:08Z</time>
      </trkpt>
      <trkpt lat="45.97968" lon="4.5921">
        <ele>472</ele>
        <time>2017-05-05T09:38:09Z</time>
      </trkpt>
      <trkpt lat="45.97973" lon="4.59201">
        <ele>472</ele>
        <time>2017-05-05T09:38:13Z</time>
      </trkpt>
      <trkpt lat="45.97974" lon="4.59199">
        <ele>472</ele>
        <time>2017-05-05T09:38:14Z</time>
      </trkpt>
      <trkpt lat="45.97979" lon="4.5919">
        <ele>472</ele>
        <time>2017-05-05T09:38:18Z</time>
      </trkpt>
      <trkpt lat="45.9798" lon="4.59188">
        <ele>472</ele>
        <time>2017-05-05T09:38:19Z</time>
      </trkpt>
      <trkpt lat="45.97987" lon="4.59183">
        <ele>471</ele>
        <time>2017-05-05T09:38:23Z</time>
      </trkpt>
      <trkpt lat="45.97989" lon="4.59182">
        <ele>471</ele>
        <time>2017-05-05T09:38:24Z</time>
      </trkpt>
      <trkpt lat="45.97996" lon="4.59177">
        <ele>470</ele>
        <time>2017-05-05T09:38:28Z</time>
      </trkpt>
      <trkpt lat="45.97998" lon="4.59176">
        <ele>470</ele>
        <time>2017-05-05T09:38:29Z</time>
      </trkpt>
      <trkpt lat="45.98005" lon="4.59171">
        <ele>467</ele>
        <time>2017-05-05T09:38:33Z</time>
      </trkpt>
      <trkpt lat="45.98006" lon="4.5917">
        <ele>467</ele>
        <time>2017-05-05T09:38:34Z</time>
      </trkpt>
      <trkpt lat="45.98013" lon="4.59165">
        <ele>470</ele>
        <time>2017-05-05T09:38:38Z</time>
      </trkpt>
      <trkpt lat="45.98015" lon="4.59163">
        <ele>470</ele>
        <time>2017-05-05T09:38:39Z</time>
      </trkpt>
      <trkpt lat="45.98021" lon="4.59156">
        <ele>470</ele>
        <time>2017-05-05T09:38:43Z</time>
      </trkpt>
      <trkpt lat="45.98023" lon="4.59155">
        <ele>470</ele>
        <time>2017-05-05T09:38:44Z</time>
      </trkpt>
      <trkpt lat="45.9803" lon="4.59148">
        <ele>471</ele>
        <time>2017-05-05T09:38:48Z</time>
      </trkpt>
      <trkpt lat="45.98031" lon="4.59147">
        <ele>471</ele>
        <time>2017-05-05T09:38:49Z</time>
      </trkpt>
      <trkpt lat="45.98038" lon="4.5914">
        <ele>471</ele>
        <time>2017-05-05T09:38:53Z</time>
      </trkpt>
      <trkpt lat="45.98039" lon="4.59138">
        <ele>471</ele>
        <time>2017-05-05T09:38:54Z</time>
      </trkpt>
      <trkpt lat="45.98045" lon="4.59129">
        <ele>471</ele>
        <time>2017-05-05T09:38:58Z</time>
      </trkpt>
      <trkpt lat="45.98046" lon="4.59127">
        <ele>471</ele>
        <time>2017-05-05T09:38:59Z</time>
      </trkpt>
      <trkpt lat="45.98051" lon="4.59118">
        <ele>472</ele>
        <time>2017-05-05T09:39:03Z</time>
      </trkpt>
      <trkpt lat="45.98053" lon="4.59116">
        <ele>472</ele>
        <time>2017-05-05T09:39:04Z</time>
      </trkpt>
      <trkpt lat="45.98058" lon="4.59107">
        <ele>472</ele>
        <time>2017-05-05T09:39:08Z</time>
      </trkpt>
      <trkpt lat="45.98059" lon="4.59105">
        <ele>473</ele>
        <time>2017-05-05T09:39:09Z</time>
      </trkpt>
      <trkpt lat="45.98064" lon="4.59095">
        <ele>473</ele>
        <time>2017-05-05T09:39:13Z</time>
      </trkpt>
      <trkpt lat="45.98064" lon="4.59092">
        <ele>473</ele>
        <time>2017-05-05T09:39:14Z</time>
      </trkpt>
      <trkpt lat="45.98068" lon="4.59082">
        <ele>477</ele>
        <time>2017-05-05T09:39:18Z</time>
      </trkpt>
      <trkpt lat="45.9807" lon="4.5908">
        <ele>477</ele>
        <time>2017-05-05T09:39:19Z</time>
      </trkpt>
      <trkpt lat="45.98075" lon="4.59071">
        <ele>477</ele>
        <time>2017-05-05T09:39:23Z</time>
      </trkpt>
      <trkpt lat="45.98076" lon="4.59068">
        <ele>478</ele>
        <time>2017-05-05T09:39:24Z</time>
      </trkpt>
      <trkpt lat="45.9808" lon="4.59058">
        <ele>479</ele>
        <time>2017-05-05T09:39:28Z</time>
      </trkpt>
      <trkpt lat="45.98081" lon="4.59055">
        <ele>479</ele>
        <time>2017-05-05T09:39:29Z</time>
      </trkpt>
      <trkpt lat="45.98084" lon="4.59046">
        <ele>470</ele>
        <time>2017-05-05T09:39:33Z</time>
      </trkpt>
      <trkpt lat="45.98085" lon="4.59043">
        <ele>470</ele>
        <time>2017-05-05T09:39:34Z</time>
      </trkpt>
      <trkpt lat="45.98089" lon="4.59033">
        <ele>471</ele>
        <time>2017-05-05T09:39:39Z</time>
      </trkpt>
      <trkpt lat="45.9809" lon="4.5903">
        <ele>471</ele>
        <time>2017-05-05T09:39:40Z</time>
      </trkpt>
      <trkpt lat="45.98094" lon="4.5902">
        <ele>472</ele>
        <time>2017-05-05T09:39:44Z</time>
      </trkpt>
      <trkpt lat="45.98095" lon="4.59017">
        <ele>472</ele>
        <time>2017-05-05T09:39:45Z</time>
      </trkpt>
      <trkpt lat="45.98098" lon="4.59006">
        <ele>473</ele>
        <time>2017-05-05T09:39:50Z</time>
      </trkpt>
      <trkpt lat="45.98098" lon="4.59003">
        <ele>473</ele>
        <time>2017-05-05T09:39:51Z</time>
      </trkpt>
      <trkpt lat="45.98101" lon="4.58993">
        <ele>476</ele>
        <time>2017-05-05T09:39:55Z</time>
      </trkpt>
      <trkpt lat="45.98102" lon="4.58989">
        <ele>476</ele>
        <time>2017-05-05T09:39:56Z</time>
      </trkpt>
      <trkpt lat="45.98103" lon="4.58977">
        <ele>476</ele>
        <time>2017-05-05T09:40:00Z</time>
      </trkpt>
      <trkpt lat="45.98103" lon="4.58975">
        <ele>476</ele>
        <time>2017-05-05T09:40:01Z</time>
      </trkpt>
      <trkpt lat="45.98104" lon="4.58964">
        <ele>476</ele>
        <time>2017-05-05T09:40:05Z</time>
      </trkpt>
      <trkpt lat="45.98104" lon="4.58962">
        <ele>476</ele>
        <time>2017-05-05T09:40:06Z</time>
      </trkpt>
      <trkpt lat="45.98103" lon="4.58951">
        <ele>477</ele>
        <time>2017-05-05T09:40:10Z</time>
      </trkpt>
      <trkpt lat="45.98103" lon="4.58949">
        <ele>477</ele>
        <time>2017-05-05T09:40:11Z</time>
      </trkpt>
      <trkpt lat="45.98101" lon="4.58937">
        <ele>478</ele>
        <time>2017-05-05T09:40:16Z</time>
      </trkpt>
      <trkpt lat="45.98101" lon="4.58934">
        <ele>479</ele>
        <time>2017-05-05T09:40:17Z</time>
      </trkpt>
      <trkpt lat="45.981" lon="4.58923">
        <ele>480</ele>
        <time>2017-05-05T09:40:20Z</time>
      </trkpt>
      <trkpt lat="45.98099" lon="4.5892">
        <ele>480</ele>
        <time>2017-05-05T09:40:21Z</time>
      </trkpt>
      <trkpt lat="45.98099" lon="4.5891">
        <ele>484</ele>
        <time>2017-05-05T09:40:25Z</time>
      </trkpt>
      <trkpt lat="45.98099" lon="4.58907">
        <ele>484</ele>
        <time>2017-05-05T09:40:26Z</time>
      </trkpt>
      <trkpt lat="45.98099" lon="4.58896">
        <ele>484</ele>
        <time>2017-05-05T09:40:30Z</time>
      </trkpt>
      <trkpt lat="45.981" lon="4.58893">
        <ele>484</ele>
        <time>2017-05-05T09:40:31Z</time>
      </trkpt>
      <trkpt lat="45.98102" lon="4.58881">
        <ele>485</ele>
        <time>2017-05-05T09:40:35Z</time>
      </trkpt>
      <trkpt lat="45.98103" lon="4.58879">
        <ele>485</ele>
        <time>2017-05-05T09:40:36Z</time>
      </trkpt>
      <trkpt lat="45.98107" lon="4.58869">
        <ele>485</ele>
        <time>2017-05-05T09:40:40Z</time>
      </trkpt>
      <trkpt lat="45.98108" lon="4.58866">
        <ele>485</ele>
        <time>2017-05-05T09:40:41Z</time>
      </trkpt>
      <trkpt lat="45.98114" lon="4.5886">
        <ele>486</ele>
        <time>2017-05-05T09:40:45Z</time>
      </trkpt>
      <trkpt lat="45.98115" lon="4.58858">
        <ele>486</ele>
        <time>2017-05-05T09:40:46Z</time>
      </trkpt>
      <trkpt lat="45.98121" lon="4.58849">
        <ele>486</ele>
        <time>2017-05-05T09:40:50Z</time>
      </trkpt>
      <trkpt lat="45.98123" lon="4.58847">
        <ele>486</ele>
        <time>2017-05-05T09:40:51Z</time>
      </trkpt>
      <trkpt lat="45.9813" lon="4.58841">
        <ele>486</ele>
        <time>2017-05-05T09:40:55Z</time>
      </trkpt>
      <trkpt lat="45.98131" lon="4.5884">
        <ele>486</ele>
        <time>2017-05-05T09:40:56Z</time>
      </trkpt>
      <trkpt lat="45.98138" lon="4.58832">
        <ele>493</ele>
        <time>2017-05-05T09:41:00Z</time>
      </trkpt>
      <trkpt lat="45.98139" lon="4.58831">
        <ele>493</ele>
        <time>2017-05-05T09:41:01Z</time>
      </trkpt>
      <trkpt lat="45.98147" lon="4.58826">
        <ele>492</ele>
        <time>2017-05-05T09:41:05Z</time>
      </trkpt>
      <trkpt lat="45.98149" lon="4.58824">
        <ele>492</ele>
        <time>2017-05-05T09:41:06Z</time>
      </trkpt>
      <trkpt lat="45.98157" lon="4.58819">
        <ele>492</ele>
        <time>2017-05-05T09:41:10Z</time>
      </trkpt>
      <trkpt lat="45.98159" lon="4.58818">
        <ele>492</ele>
        <time>2017-05-05T09:41:11Z</time>
      </trkpt>
      <trkpt lat="45.98165" lon="4.58809">
        <ele>493</ele>
        <time>2017-05-05T09:41:15Z</time>
      </trkpt>
      <trkpt lat="45.98167" lon="4.58808">
        <ele>491</ele>
        <time>2017-05-05T09:41:16Z</time>
      </trkpt>
      <trkpt lat="45.98175" lon="4.58803">
        <ele>492</ele>
        <time>2017-05-05T09:41:20Z</time>
      </trkpt>
      <trkpt lat="45.98176" lon="4.58801">
        <ele>492</ele>
        <time>2017-05-05T09:41:21Z</time>
      </trkpt>
      <trkpt lat="45.98182" lon="4.58793">
        <ele>492</ele>
        <time>2017-05-05T09:41:25Z</time>
      </trkpt>
      <trkpt lat="45.98184" lon="4.58792">
        <ele>492</ele>
        <time>2017-05-05T09:41:26Z</time>
      </trkpt>
      <trkpt lat="45.98191" lon="4.58786">
        <ele>493</ele>
        <time>2017-05-05T09:41:30Z</time>
      </trkpt>
      <trkpt lat="45.98192" lon="4.58785">
        <ele>493</ele>
        <time>2017-05-05T09:41:31Z</time>
      </trkpt>
      <trkpt lat="45.98199" lon="4.58777">
        <ele>493</ele>
        <time>2017-05-05T09:41:36Z</time>
      </trkpt>
      <trkpt lat="45.982" lon="4.58775">
        <ele>493</ele>
        <time>2017-05-05T09:41:37Z</time>
      </trkpt>
      <trkpt lat="45.98207" lon="4.58768">
        <ele>493</ele>
        <time>2017-05-05T09:41:42Z</time>
      </trkpt>
      <trkpt lat="45.98209" lon="4.58767">
        <ele>493</ele>
        <time>2017-05-05T09:41:43Z</time>
      </trkpt>
      <trkpt lat="45.98215" lon="4.58762">
        <ele>493</ele>
        <time>2017-05-05T09:41:47Z</time>
      </trkpt>
      <trkpt lat="45.98217" lon="4.58761">
        <ele>493</ele>
        <time>2017-05-05T09:41:48Z</time>
      </trkpt>
      <trkpt lat="45.98224" lon="4.58754">
        <ele>493</ele>
        <time>2017-05-05T09:41:52Z</time>
      </trkpt>
      <trkpt lat="45.98226" lon="4.58752">
        <ele>493</ele>
        <time>2017-05-05T09:41:53Z</time>
      </trkpt>
      <trkpt lat="45.98233" lon="4.58747">
        <ele>498</ele>
        <time>2017-05-05T09:41:57Z</time>
      </trkpt>
      <trkpt lat="45.98235" lon="4.58745">
        <ele>498</ele>
        <time>2017-05-05T09:41:58Z</time>
      </trkpt>
      <trkpt lat="45.98241" lon="4.5874">
        <ele>497</ele>
        <time>2017-05-05T09:42:02Z</time>
      </trkpt>
      <trkpt lat="45.98243" lon="4.58739">
        <ele>497</ele>
        <time>2017-05-05T09:42:03Z</time>
      </trkpt>
      <trkpt lat="45.9825" lon="4.58733">
        <ele>498</ele>
        <time>2017-05-05T09:42:07Z</time>
      </trkpt>
      <trkpt lat="45.98251" lon="4.58731">
        <ele>497</ele>
        <time>2017-05-05T09:42:08Z</time>
      </trkpt>
      <trkpt lat="45.98258" lon="4.58726">
        <ele>497</ele>
        <time>2017-05-05T09:42:12Z</time>
      </trkpt>
      <trkpt lat="45.98259" lon="4.58724">
        <ele>497</ele>
        <time>2017-05-05T09:42:13Z</time>
      </trkpt>
      <trkpt lat="45.98265" lon="4.58718">
        <ele>498</ele>
        <time>2017-05-05T09:42:17Z</time>
      </trkpt>
      <trkpt lat="45.98267" lon="4.58717">
        <ele>498</ele>
        <time>2017-05-05T09:42:18Z</time>
      </trkpt>
      <trkpt lat="45.98275" lon="4.58713">
        <ele>498</ele>
        <time>2017-05-05T09:42:23Z</time>
      </trkpt>
      <trkpt lat="45.98276" lon="4.58712">
        <ele>498</ele>
        <time>2017-05-05T09:42:24Z</time>
      </trkpt>
      <trkpt lat="45.98282" lon="4.58705">
        <ele>499</ele>
        <time>2017-05-05T09:42:28Z</time>
      </trkpt>
      <trkpt lat="45.98284" lon="4.58703">
        <ele>499</ele>
        <time>2017-05-05T09:42:29Z</time>
      </trkpt>
      <trkpt lat="45.9829" lon="4.58698">
        <ele>499</ele>
        <time>2017-05-05T09:42:33Z</time>
      </trkpt>
      <trkpt lat="45.98292" lon="4.58696">
        <ele>499</ele>
        <time>2017-05-05T09:42:34Z</time>
      </trkpt>
      <trkpt lat="45.98299" lon="4.5869">
        <ele>499</ele>
        <time>2017-05-05T09:42:38Z</time>
      </trkpt>
      <trkpt lat="45.98301" lon="4.58689">
        <ele>499</ele>
        <time>2017-05-05T09:42:39Z</time>
      </trkpt>
      <trkpt lat="45.98308" lon="4.58684">
        <ele>500</ele>
        <time>2017-05-05T09:42:43Z</time>
      </trkpt>
      <trkpt lat="45.98309" lon="4.58682">
        <ele>500</ele>
        <time>2017-05-05T09:42:44Z</time>
      </trkpt>
      <trkpt lat="45.98316" lon="4.58677">
        <ele>500</ele>
        <time>2017-05-05T09:42:48Z</time>
      </trkpt>
      <trkpt lat="45.98318" lon="4.58675">
        <ele>500</ele>
        <time>2017-05-05T09:42:49Z</time>
      </trkpt>
      <trkpt lat="45.98325" lon="4.58669">
        <ele>501</ele>
        <time>2017-05-05T09:42:53Z</time>
      </trkpt>
      <trkpt lat="45.98326" lon="4.58668">
        <ele>501</ele>
        <time>2017-05-05T09:42:54Z</time>
      </trkpt>
      <trkpt lat="45.98333" lon="4.58662">
        <ele>503</ele>
        <time>2017-05-05T09:42:58Z</time>
      </trkpt>
      <trkpt lat="45.98334" lon="4.58661">
        <ele>502</ele>
        <time>2017-05-05T09:42:59Z</time>
      </trkpt>
      <trkpt lat="45.98341" lon="4.58655">
        <ele>502</ele>
        <time>2017-05-05T09:43:03Z</time>
      </trkpt>
      <trkpt lat="45.98342" lon="4.58654">
        <ele>502</ele>
        <time>2017-05-05T09:43:04Z</time>
      </trkpt>
      <trkpt lat="45.98349" lon="4.58647">
        <ele>503</ele>
        <time>2017-05-05T09:43:08Z</time>
      </trkpt>
      <trkpt lat="45.9835" lon="4.58645">
        <ele>503</ele>
        <time>2017-05-05T09:43:09Z</time>
      </trkpt>
      <trkpt lat="45.98357" lon="4.5864">
        <ele>503</ele>
        <time>2017-05-05T09:43:13Z</time>
      </trkpt>
      <trkpt lat="45.98358" lon="4.58639">
        <ele>503</ele>
        <time>2017-05-05T09:43:14Z</time>
      </trkpt>
      <trkpt lat="45.98365" lon="4.58634">
        <ele>503</ele>
        <time>2017-05-05T09:43:18Z</time>
      </trkpt>
      <trkpt lat="45.98367" lon="4.58632">
        <ele>503</ele>
        <time>2017-05-05T09:43:19Z</time>
      </trkpt>
      <trkpt lat="45.98373" lon="4.58626">
        <ele>503</ele>
        <time>2017-05-05T09:43:23Z</time>
      </trkpt>
      <trkpt lat="45.98374" lon="4.58624">
        <ele>503</ele>
        <time>2017-05-05T09:43:24Z</time>
      </trkpt>
      <trkpt lat="45.98379" lon="4.58614">
        <ele>503</ele>
        <time>2017-05-05T09:43:28Z</time>
      </trkpt>
      <trkpt lat="45.98381" lon="4.58612">
        <ele>503</ele>
        <time>2017-05-05T09:43:29Z</time>
      </trkpt>
      <trkpt lat="45.98383" lon="4.58602">
        <ele>503</ele>
        <time>2017-05-05T09:43:33Z</time>
      </trkpt>
      <trkpt lat="45.98383" lon="4.58599">
        <ele>503</ele>
        <time>2017-05-05T09:43:34Z</time>
      </trkpt>
      <trkpt lat="45.9838" lon="4.58589">
        <ele>504</ele>
        <time>2017-05-05T09:43:38Z</time>
      </trkpt>
      <trkpt lat="45.98379" lon="4.58586">
        <ele>504</ele>
        <time>2017-05-05T09:43:39Z</time>
      </trkpt>
      <trkpt lat="45.98374" lon="4.58578">
        <ele>509</ele>
        <time>2017-05-05T09:43:43Z</time>
      </trkpt>
      <trkpt lat="45.98372" lon="4.58577">
        <ele>510</ele>
        <time>2017-05-05T09:43:44Z</time>
      </trkpt>
      <trkpt lat="45.98365" lon="4.58575">
        <ele>510</ele>
        <time>2017-05-05T09:43:48Z</time>
      </trkpt>
      <trkpt lat="45.98363" lon="4.58575">
        <ele>510</ele>
        <time>2017-05-05T09:43:49Z</time>
      </trkpt>
      <trkpt lat="45.98355" lon="4.58576">
        <ele>510</ele>
        <time>2017-05-05T09:43:53Z</time>
      </trkpt>
      <trkpt lat="45.98353" lon="4.58576">
        <ele>510</ele>
        <time>2017-05-05T09:43:54Z</time>
      </trkpt>
      <trkpt lat="45.98345" lon="4.58578">
        <ele>510</ele>
        <time>2017-05-05T09:43:58Z</time>
      </trkpt>
      <trkpt lat="45.98343" lon="4.58578">
        <ele>510</ele>
        <time>2017-05-05T09:43:59Z</time>
      </trkpt>
      <trkpt lat="45.98335" lon="4.5858">
        <ele>510</ele>
        <time>2017-05-05T09:44:03Z</time>
      </trkpt>
      <trkpt lat="45.98334" lon="4.5858">
        <ele>510</ele>
        <time>2017-05-05T09:44:04Z</time>
      </trkpt>
      <trkpt lat="45.98326" lon="4.5858">
        <ele>512</ele>
        <time>2017-05-05T09:44:08Z</time>
      </trkpt>
      <trkpt lat="45.98324" lon="4.5858">
        <ele>513</ele>
        <time>2017-05-05T09:44:09Z</time>
      </trkpt>
      <trkpt lat="45.98316" lon="4.58581">
        <ele>515</ele>
        <time>2017-05-05T09:44:13Z</time>
      </trkpt>
      <trkpt lat="45.98314" lon="4.58581">
        <ele>515</ele>
        <time>2017-05-05T09:44:14Z</time>
      </trkpt>
      <trkpt lat="45.98306" lon="4.58582">
        <ele>516</ele>
        <time>2017-05-05T09:44:18Z</time>
      </trkpt>
      <trkpt lat="45.98305" lon="4.58583">
        <ele>516</ele>
        <time>2017-05-05T09:44:19Z</time>
      </trkpt>
      <trkpt lat="45.98297" lon="4.58582">
        <ele>517</ele>
        <time>2017-05-05T09:44:23Z</time>
      </trkpt>
      <trkpt lat="45.98295" lon="4.58582">
        <ele>517</ele>
        <time>2017-05-05T09:44:24Z</time>
      </trkpt>
      <trkpt lat="45.98287" lon="4.58583">
        <ele>518</ele>
        <time>2017-05-05T09:44:28Z</time>
      </trkpt>
      <trkpt lat="45.98285" lon="4.58583">
        <ele>518</ele>
        <time>2017-05-05T09:44:29Z</time>
      </trkpt>
      <trkpt lat="45.98277" lon="4.58584">
        <ele>512</ele>
        <time>2017-05-05T09:44:34Z</time>
      </trkpt>
      <trkpt lat="45.98275" lon="4.58584">
        <ele>512</ele>
        <time>2017-05-05T09:44:35Z</time>
      </trkpt>
      <trkpt lat="45.98266" lon="4.58584">
        <ele>514</ele>
        <time>2017-05-05T09:44:40Z</time>
      </trkpt>
      <trkpt lat="45.98265" lon="4.58584">
        <ele>514</ele>
        <time>2017-05-05T09:44:41Z</time>
      </trkpt>
      <trkpt lat="45.98257" lon="4.58583">
        <ele>518</ele>
        <time>2017-05-05T09:44:45Z</time>
      </trkpt>
      <trkpt lat="45.98256" lon="4.58583">
        <ele>518</ele>
        <time>2017-05-05T09:44:46Z</time>
      </trkpt>
      <trkpt lat="45.98247" lon="4.58581">
        <ele>519</ele>
        <time>2017-05-05T09:44:51Z</time>
      </trkpt>
      <trkpt lat="45.98245" lon="4.5858">
        <ele>519</ele>
        <time>2017-05-05T09:44:52Z</time>
      </trkpt>
      <trkpt lat="45.98236" lon="4.5858">
        <ele>520</ele>
        <time>2017-05-05T09:44:56Z</time>
      </trkpt>
      <trkpt lat="45.98234" lon="4.5858">
        <ele>521</ele>
        <time>2017-05-05T09:44:57Z</time>
      </trkpt>
      <trkpt lat="45.98226" lon="4.58579">
        <ele>521</ele>
        <time>2017-05-05T09:45:01Z</time>
      </trkpt>
      <trkpt lat="45.98224" lon="4.58578">
        <ele>521</ele>
        <time>2017-05-05T09:45:02Z</time>
      </trkpt>
      <trkpt lat="45.98217" lon="4.58575">
        <ele>522</ele>
        <time>2017-05-05T09:45:06Z</time>
      </trkpt>
      <trkpt lat="45.98214" lon="4.58574">
        <ele>522</ele>
        <time>2017-05-05T09:45:07Z</time>
      </trkpt>
      <trkpt lat="45.98207" lon="4.58574">
        <ele>522</ele>
        <time>2017-05-05T09:45:11Z</time>
      </trkpt>
      <trkpt lat="45.98205" lon="4.58573">
        <ele>522</ele>
        <time>2017-05-05T09:45:12Z</time>
      </trkpt>
      <trkpt lat="45.98196" lon="4.58572">
        <ele>522</ele>
        <time>2017-05-05T09:45:17Z</time>
      </trkpt>
      <trkpt lat="45.98194" lon="4.58572">
        <ele>522</ele>
        <time>2017-05-05T09:45:18Z</time>
      </trkpt>
      <trkpt lat="45.98185" lon="4.5857">
        <ele>522</ele>
        <time>2017-05-05T09:45:22Z</time>
      </trkpt>
      <trkpt lat="45.98183" lon="4.5857">
        <ele>521</ele>
        <time>2017-05-05T09:45:23Z</time>
      </trkpt>
      <trkpt lat="45.98176" lon="4.58568">
        <ele>521</ele>
        <time>2017-05-05T09:45:27Z</time>
      </trkpt>
      <trkpt lat="45.98174" lon="4.58569">
        <ele>521</ele>
        <time>2017-05-05T09:45:28Z</time>
      </trkpt>
      <trkpt lat="45.98167" lon="4.58569">
        <ele>522</ele>
        <time>2017-05-05T09:45:32Z</time>
      </trkpt>
      <trkpt lat="45.98165" lon="4.58568">
        <ele>522</ele>
        <time>2017-05-05T09:45:33Z</time>
      </trkpt>
      <trkpt lat="45.98156" lon="4.58567">
        <ele>522</ele>
        <time>2017-05-05T09:45:38Z</time>
      </trkpt>
      <trkpt lat="45.98154" lon="4.58566">
        <ele>523</ele>
        <time>2017-05-05T09:45:39Z</time>
      </trkpt>
      <trkpt lat="45.98147" lon="4.58564">
        <ele>523</ele>
        <time>2017-05-05T09:45:43Z</time>
      </trkpt>
      <trkpt lat="45.98145" lon="4.58563">
        <ele>524</ele>
        <time>2017-05-05T09:45:44Z</time>
      </trkpt>
      <trkpt lat="45.98137" lon="4.58562">
        <ele>524</ele>
        <time>2017-05-05T09:45:48Z</time>
      </trkpt>
      <trkpt lat="45.98135" lon="4.58562">
        <ele>524</ele>
        <time>2017-05-05T09:45:49Z</time>
      </trkpt>
      <trkpt lat="45.98128" lon="4.58561">
        <ele>524</ele>
        <time>2017-05-05T09:45:53Z</time>
      </trkpt>
      <trkpt lat="45.98126" lon="4.58561">
        <ele>524</ele>
        <time>2017-05-05T09:45:54Z</time>
      </trkpt>
      <trkpt lat="45.98119" lon="4.58559">
        <ele>525</ele>
        <time>2017-05-05T09:45:58Z</time>
      </trkpt>
      <trkpt lat="45.98117" lon="4.58559">
        <ele>525</ele>
        <time>2017-05-05T09:45:59Z</time>
      </trkpt>
      <trkpt lat="45.98109" lon="4.58557">
        <ele>525</ele>
        <time>2017-05-05T09:46:03Z</time>
      </trkpt>
      <trkpt lat="45.98107" lon="4.58556">
        <ele>525</ele>
        <time>2017-05-05T09:46:04Z</time>
      </trkpt>
      <trkpt lat="45.98098" lon="4.58556">
        <ele>525</ele>
        <time>2017-05-05T09:46:09Z</time>
      </trkpt>
      <trkpt lat="45.98096" lon="4.58555">
        <ele>525</ele>
        <time>2017-05-05T09:46:10Z</time>
      </trkpt>
      <trkpt lat="45.98087" lon="4.58553">
        <ele>525</ele>
        <time>2017-05-05T09:46:14Z</time>
      </trkpt>
      <trkpt lat="45.98086" lon="4.58552">
        <ele>525</ele>
        <time>2017-05-05T09:46:15Z</time>
      </trkpt>
      <trkpt lat="45.98077" lon="4.58551">
        <ele>528</ele>
        <time>2017-05-05T09:46:20Z</time>
      </trkpt>
      <trkpt lat="45.98075" lon="4.58551">
        <ele>528</ele>
        <time>2017-05-05T09:46:21Z</time>
      </trkpt>
      <trkpt lat="45.98067" lon="4.58551">
        <ele>528</ele>
        <time>2017-05-05T09:46:26Z</time>
      </trkpt>
      <trkpt lat="45.98065" lon="4.58551">
        <ele>528</ele>
        <time>2017-05-05T09:46:27Z</time>
      </trkpt>
      <trkpt lat="45.98059" lon="4.58548">
        <ele>529</ele>
        <time>2017-05-05T09:46:30Z</time>
      </trkpt>
      <trkpt lat="45.98056" lon="4.58547">
        <ele>529</ele>
        <time>2017-05-05T09:46:31Z</time>
      </trkpt>
      <trkpt lat="45.98048" lon="4.58546">
        <ele>529</ele>
        <time>2017-05-05T09:46:34Z</time>
      </trkpt>
      <trkpt lat="45.98046" lon="4.58546">
        <ele>529</ele>
        <time>2017-05-05T09:46:35Z</time>
      </trkpt>
      <trkpt lat="45.98039" lon="4.58545">
        <ele>530</ele>
        <time>2017-05-05T09:46:39Z</time>
      </trkpt>
      <trkpt lat="45.98037" lon="4.58545">
        <ele>530</ele>
        <time>2017-05-05T09:46:40Z</time>
      </trkpt>
      <trkpt lat="45.9803" lon="4.58545">
        <ele>530</ele>
        <time>2017-05-05T09:46:44Z</time>
      </trkpt>
      <trkpt lat="45.98028" lon="4.58545">
        <ele>530</ele>
        <time>2017-05-05T09:46:45Z</time>
      </trkpt>
      <trkpt lat="45.98019" lon="4.58546">
        <ele>530</ele>
        <time>2017-05-05T09:46:49Z</time>
      </trkpt>
      <trkpt lat="45.98017" lon="4.58546">
        <ele>530</ele>
        <time>2017-05-05T09:46:50Z</time>
      </trkpt>
      <trkpt lat="45.98008" lon="4.58546">
        <ele>530</ele>
        <time>2017-05-05T09:46:55Z</time>
      </trkpt>
      <trkpt lat="45.98007" lon="4.58546">
        <ele>530</ele>
        <time>2017-05-05T09:46:56Z</time>
      </trkpt>
      <trkpt lat="45.97999" lon="4.58546">
        <ele>534</ele>
        <time>2017-05-05T09:47:00Z</time>
      </trkpt>
      <trkpt lat="45.97997" lon="4.58546">
        <ele>534</ele>
        <time>2017-05-05T09:47:01Z</time>
      </trkpt>
      <trkpt lat="45.9799" lon="4.58547">
        <ele>534</ele>
        <time>2017-05-05T09:47:05Z</time>
      </trkpt>
      <trkpt lat="45.97988" lon="4.58546">
        <ele>534</ele>
        <time>2017-05-05T09:47:06Z</time>
      </trkpt>
      <trkpt lat="45.97981" lon="4.58547">
        <ele>534</ele>
        <time>2017-05-05T09:47:10Z</time>
      </trkpt>
      <trkpt lat="45.97979" lon="4.58547">
        <ele>534</ele>
        <time>2017-05-05T09:47:11Z</time>
      </trkpt>
      <trkpt lat="45.9797" lon="4.58548">
        <ele>535</ele>
        <time>2017-05-05T09:47:15Z</time>
      </trkpt>
      <trkpt lat="45.97968" lon="4.58548">
        <ele>535</ele>
        <time>2017-05-05T09:47:16Z</time>
      </trkpt>
      <trkpt lat="45.9796" lon="4.58547">
        <ele>535</ele>
        <time>2017-05-05T09:47:20Z</time>
      </trkpt>
      <trkpt lat="45.97958" lon="4.58547">
        <ele>535</ele>
        <time>2017-05-05T09:47:21Z</time>
      </trkpt>
      <trkpt lat="45.97951" lon="4.58549">
        <ele>535</ele>
        <time>2017-05-05T09:47:25Z</time>
      </trkpt>
      <trkpt lat="45.97949" lon="4.5855">
        <ele>535</ele>
        <time>2017-05-05T09:47:26Z</time>
      </trkpt>
      <trkpt lat="45.97942" lon="4.58548">
        <ele>536</ele>
        <time>2017-05-05T09:47:30Z</time>
      </trkpt>
      <trkpt lat="45.9794" lon="4.58547">
        <ele>536</ele>
        <time>2017-05-05T09:47:31Z</time>
      </trkpt>
      <trkpt lat="45.97932" lon="4.58548">
        <ele>536</ele>
        <time>2017-05-05T09:47:35Z</time>
      </trkpt>
      <trkpt lat="45.9793" lon="4.58549">
        <ele>536</ele>
        <time>2017-05-05T09:47:36Z</time>
      </trkpt>
      <trkpt lat="45.97922" lon="4.58551">
        <ele>536</ele>
        <time>2017-05-05T09:47:40Z</time>
      </trkpt>
      <trkpt lat="45.9792" lon="4.58551">
        <ele>536</ele>
        <time>2017-05-05T09:47:41Z</time>
      </trkpt>
      <trkpt lat="45.97912" lon="4.5855">
        <ele>539</ele>
        <time>2017-05-05T09:47:44Z</time>
      </trkpt>
      <trkpt lat="45.9791" lon="4.5855">
        <ele>539</ele>
        <time>2017-05-05T09:47:45Z</time>
      </trkpt>
      <trkpt lat="45.97902" lon="4.5855">
        <ele>539</ele>
        <time>2017-05-05T09:47:49Z</time>
      </trkpt>
      <trkpt lat="45.979" lon="4.58549">
        <ele>539</ele>
        <time>2017-05-05T09:47:50Z</time>
      </trkpt>
      <trkpt lat="45.97893" lon="4.5855">
        <ele>540</ele>
        <time>2017-05-05T09:47:54Z</time>
      </trkpt>
      <trkpt lat="45.97891" lon="4.5855">
        <ele>540</ele>
        <time>2017-05-05T09:47:55Z</time>
      </trkpt>
      <trkpt lat="45.97883" lon="4.58549">
        <ele>540</ele>
        <time>2017-05-05T09:47:59Z</time>
      </trkpt>
      <trkpt lat="45.9788" lon="4.58549">
        <ele>540</ele>
        <time>2017-05-05T09:48:00Z</time>
      </trkpt>
      <trkpt lat="45.97872" lon="4.5855">
        <ele>540</ele>
        <time>2017-05-05T09:48:04Z</time>
      </trkpt>
      <trkpt lat="45.97869" lon="4.58551">
        <ele>540</ele>
        <time>2017-05-05T09:48:05Z</time>
      </trkpt>
      <trkpt lat="45.97862" lon="4.58552">
        <ele>540</ele>
        <time>2017-05-05T09:48:09Z</time>
      </trkpt>
      <trkpt lat="45.9786" lon="4.58552">
        <ele>540</ele>
        <time>2017-05-05T09:48:10Z</time>
      </trkpt>
      <trkpt lat="45.97853" lon="4.58552">
        <ele>540</ele>
        <time>2017-05-05T09:48:14Z</time>
      </trkpt>
      <trkpt lat="45.97851" lon="4.58551">
        <ele>540</ele>
        <time>2017-05-05T09:48:15Z</time>
      </trkpt>
      <trkpt lat="45.97842" lon="4.58548">
        <ele>541</ele>
        <time>2017-05-05T09:48:20Z</time>
      </trkpt>
      <trkpt lat="45.9784" lon="4.58547">
        <ele>541</ele>
        <time>2017-05-05T09:48:21Z</time>
      </trkpt>
      <trkpt lat="45.97833" lon="4.5854">
        <ele>543</ele>
        <time>2017-05-05T09:48:25Z</time>
      </trkpt>
      <trkpt lat="45.97832" lon="4.58538">
        <ele>544</ele>
        <time>2017-05-05T09:48:26Z</time>
      </trkpt>
      <trkpt lat="45.97828" lon="4.58528">
        <ele>544</ele>
        <time>2017-05-05T09:48:30Z</time>
      </trkpt>
      <trkpt lat="45.97827" lon="4.58525">
        <ele>544</ele>
        <time>2017-05-05T09:48:31Z</time>
      </trkpt>
      <trkpt lat="45.97825" lon="4.58515">
        <ele>545</ele>
        <time>2017-05-05T09:48:35Z</time>
      </trkpt>
      <trkpt lat="45.97825" lon="4.58512">
        <ele>545</ele>
        <time>2017-05-05T09:48:36Z</time>
      </trkpt>
      <trkpt lat="45.97824" lon="4.58501">
        <ele>545</ele>
        <time>2017-05-05T09:48:40Z</time>
      </trkpt>
      <trkpt lat="45.97824" lon="4.58498">
        <ele>546</ele>
        <time>2017-05-05T09:48:41Z</time>
      </trkpt>
      <trkpt lat="45.97823" lon="4.58488">
        <ele>547</ele>
        <time>2017-05-05T09:48:45Z</time>
      </trkpt>
      <trkpt lat="45.97823" lon="4.58485">
        <ele>547</ele>
        <time>2017-05-05T09:48:46Z</time>
      </trkpt>
      <trkpt lat="45.97822" lon="4.58472">
        <ele>548</ele>
        <time>2017-05-05T09:48:50Z</time>
      </trkpt>
      <trkpt lat="45.97822" lon="4.58468">
        <ele>548</ele>
        <time>2017-05-05T09:48:51Z</time>
      </trkpt>
      <trkpt lat="45.97822" lon="4.58457">
        <ele>549</ele>
        <time>2017-05-05T09:48:55Z</time>
      </trkpt>
      <trkpt lat="45.97822" lon="4.58454">
        <ele>549</ele>
        <time>2017-05-05T09:48:56Z</time>
      </trkpt>
      <trkpt lat="45.97822" lon="4.58441">
        <ele>549</ele>
        <time>2017-05-05T09:49:01Z</time>
      </trkpt>
      <trkpt lat="45.97821" lon="4.58439">
        <ele>549</ele>
        <time>2017-05-05T09:49:02Z</time>
      </trkpt>
      <trkpt lat="45.97821" lon="4.58428">
        <ele>550</ele>
        <time>2017-05-05T09:49:06Z</time>
      </trkpt>
      <trkpt lat="45.97821" lon="4.58426">
        <ele>550</ele>
        <time>2017-05-05T09:49:07Z</time>
      </trkpt>
      <trkpt lat="45.97822" lon="4.58415">
        <ele>551</ele>
        <time>2017-05-05T09:49:11Z</time>
      </trkpt>
      <trkpt lat="45.97823" lon="4.58412">
        <ele>551</ele>
        <time>2017-05-05T09:49:12Z</time>
      </trkpt>
      <trkpt lat="45.97822" lon="4.58401">
        <ele>551</ele>
        <time>2017-05-05T09:49:16Z</time>
      </trkpt>
      <trkpt lat="45.97823" lon="4.58398">
        <ele>551</ele>
        <time>2017-05-05T09:49:17Z</time>
      </trkpt>
      <trkpt lat="45.97822" lon="4.58388">
        <ele>551</ele>
        <time>2017-05-05T09:49:20Z</time>
      </trkpt>
      <trkpt lat="45.97822" lon="4.58385">
        <ele>551</ele>
        <time>2017-05-05T09:49:21Z</time>
      </trkpt>
      <trkpt lat="45.97822" lon="4.58375">
        <ele>551</ele>
        <time>2017-05-05T09:49:24Z</time>
      </trkpt>
      <trkpt lat="45.97822" lon="4.58372">
        <ele>551</ele>
        <time>2017-05-05T09:49:25Z</time>
      </trkpt>
      <trkpt lat="45.97821" lon="4.58361">
        <ele>551</ele>
        <time>2017-05-05T09:49:28Z</time>
      </trkpt>
      <trkpt lat="45.97822" lon="4.58358">
        <ele>551</ele>
        <time>2017-05-05T09:49:29Z</time>
      </trkpt>
      <trkpt lat="45.97823" lon="4.58346">
        <ele>551</ele>
        <time>2017-05-05T09:49:33Z</time>
      </trkpt>
      <trkpt lat="45.97823" lon="4.58343">
        <ele>551</ele>
        <time>2017-05-05T09:49:34Z</time>
      </trkpt>
      <trkpt lat="45.97824" lon="4.58333">
        <ele>551</ele>
        <time>2017-05-05T09:49:37Z</time>
      </trkpt>
      <trkpt lat="45.97824" lon="4.58329">
        <ele>551</ele>
        <time>2017-05-05T09:49:38Z</time>
      </trkpt>
      <trkpt lat="45.9782" lon="4.58319">
        <ele>551</ele>
        <time>2017-05-05T09:49:41Z</time>
      </trkpt>
      <trkpt lat="45.97818" lon="4.58316">
        <ele>551</ele>
        <time>2017-05-05T09:49:42Z</time>
      </trkpt>
      <trkpt lat="45.97812" lon="4.58307">
        <ele>551</ele>
        <time>2017-05-05T09:49:45Z</time>
      </trkpt>
      <trkpt lat="45.9781" lon="4.58304">
        <ele>551</ele>
        <time>2017-05-05T09:49:46Z</time>
      </trkpt>
      <trkpt lat="45.97805" lon="4.58293">
        <ele>551</ele>
        <time>2017-05-05T09:49:49Z</time>
      </trkpt>
      <trkpt lat="45.97804" lon="4.5829">
        <ele>551</ele>
        <time>2017-05-05T09:49:50Z</time>
      </trkpt>
      <trkpt lat="45.97799" lon="4.58281">
        <ele>551</ele>
        <time>2017-05-05T09:49:53Z</time>
      </trkpt>
      <trkpt lat="45.97797" lon="4.58278">
        <ele>551</ele>
        <time>2017-05-05T09:49:54Z</time>
      </trkpt>
      <trkpt lat="45.97792" lon="4.5827">
        <ele>551</ele>
        <time>2017-05-05T09:49:57Z</time>
      </trkpt>
      <trkpt lat="45.9779" lon="4.58267">
        <ele>551</ele>
        <time>2017-05-05T09:49:58Z</time>
      </trkpt>
      <trkpt lat="45.97785" lon="4.58261">
        <ele>551</ele>
        <time>2017-05-05T09:50:00Z</time>
      </trkpt>
      <trkpt lat="45.97783" lon="4.58258">
        <ele>551</ele>
        <time>2017-05-05T09:50:01Z</time>
      </trkpt>
      <trkpt lat="45.97777" lon="4.58251">
        <ele>551</ele>
        <time>2017-05-05T09:50:03Z</time>
      </trkpt>
      <trkpt lat="45.97775" lon="4.58248">
        <ele>550</ele>
        <time>2017-05-05T09:50:04Z</time>
      </trkpt>
      <trkpt lat="45.97769" lon="4.58241">
        <ele>550</ele>
        <time>2017-05-05T09:50:06Z</time>
      </trkpt>
      <trkpt lat="45.97766" lon="4.58238">
        <ele>550</ele>
        <time>2017-05-05T09:50:07Z</time>
      </trkpt>
      <trkpt lat="45.97759" lon="4.58231">
        <ele>550</ele>
        <time>2017-05-05T09:50:09Z</time>
      </trkpt>
      <trkpt lat="45.97756" lon="4.58229">
        <ele>549</ele>
        <time>2017-05-05T09:50:10Z</time>
      </trkpt>
      <trkpt lat="45.97749" lon="4.58222">
        <ele>549</ele>
        <time>2017-05-05T09:50:12Z</time>
      </trkpt>
      <trkpt lat="45.97745" lon="4.58219">
        <ele>548</ele>
        <time>2017-05-05T09:50:13Z</time>
      </trkpt>
      <trkpt lat="45.97737" lon="4.58214">
        <ele>548</ele>
        <time>2017-05-05T09:50:15Z</time>
      </trkpt>
      <trkpt lat="45.97732" lon="4.58212">
        <ele>548</ele>
        <time>2017-05-05T09:50:16Z</time>
      </trkpt>
      <trkpt lat="45.97728" lon="4.58209">
        <ele>548</ele>
        <time>2017-05-05T09:50:17Z</time>
      </trkpt>
      <trkpt lat="45.97723" lon="4.58207">
        <ele>547</ele>
        <time>2017-05-05T09:50:18Z</time>
      </trkpt>
      <trkpt lat="45.97718" lon="4.58204">
        <ele>547</ele>
        <time>2017-05-05T09:50:19Z</time>
      </trkpt>
      <trkpt lat="45.97713" lon="4.582">
        <ele>547</ele>
        <time>2017-05-05T09:50:20Z</time>
      </trkpt>
      <trkpt lat="45.97708" lon="4.58198">
        <ele>547</ele>
        <time>2017-05-05T09:50:21Z</time>
      </trkpt>
      <trkpt lat="45.97703" lon="4.58195">
        <ele>547</ele>
        <time>2017-05-05T09:50:22Z</time>
      </trkpt>
      <trkpt lat="45.97698" lon="4.58193">
        <ele>546</ele>
        <time>2017-05-05T09:50:23Z</time>
      </trkpt>
      <trkpt lat="45.97692" lon="4.5819">
        <ele>546</ele>
        <time>2017-05-05T09:50:24Z</time>
      </trkpt>
      <trkpt lat="45.97687" lon="4.58188">
        <ele>546</ele>
        <time>2017-05-05T09:50:25Z</time>
      </trkpt>
      <trkpt lat="45.97681" lon="4.58186">
        <ele>545</ele>
        <time>2017-05-05T09:50:26Z</time>
      </trkpt>
      <trkpt lat="45.97676" lon="4.58183">
        <ele>545</ele>
        <time>2017-05-05T09:50:27Z</time>
      </trkpt>
      <trkpt lat="45.9767" lon="4.58181">
        <ele>545</ele>
        <time>2017-05-05T09:50:28Z</time>
      </trkpt>
      <trkpt lat="45.97664" lon="4.58179">
        <ele>544</ele>
        <time>2017-05-05T09:50:29Z</time>
      </trkpt>
      <trkpt lat="45.97659" lon="4.58178">
        <ele>544</ele>
        <time>2017-05-05T09:50:30Z</time>
      </trkpt>
      <trkpt lat="45.97653" lon="4.58176">
        <ele>545</ele>
        <time>2017-05-05T09:50:31Z</time>
      </trkpt>
      <trkpt lat="45.97647" lon="4.58175">
        <ele>545</ele>
        <time>2017-05-05T09:50:32Z</time>
      </trkpt>
      <trkpt lat="45.97642" lon="4.58174">
        <ele>545</ele>
        <time>2017-05-05T09:50:33Z</time>
      </trkpt>
      <trkpt lat="45.97636" lon="4.58173">
        <ele>546</ele>
        <time>2017-05-05T09:50:34Z</time>
      </trkpt>
      <trkpt lat="45.9763" lon="4.58172">
        <ele>546</ele>
        <time>2017-05-05T09:50:35Z</time>
      </trkpt>
      <trkpt lat="45.97624" lon="4.5817">
        <ele>546</ele>
        <time>2017-05-05T09:50:36Z</time>
      </trkpt>
      <trkpt lat="45.97618" lon="4.58169">
        <ele>545</ele>
        <time>2017-05-05T09:50:37Z</time>
      </trkpt>
      <trkpt lat="45.97612" lon="4.58168">
        <ele>545</ele>
        <time>2017-05-05T09:50:38Z</time>
      </trkpt>
      <trkpt lat="45.97606" lon="4.58167">
        <ele>545</ele>
        <time>2017-05-05T09:50:39Z</time>
      </trkpt>
      <trkpt lat="45.976" lon="4.58166">
        <ele>538</ele>
        <time>2017-05-05T09:50:40Z</time>
      </trkpt>
      <trkpt lat="45.97594" lon="4.58166">
        <ele>538</ele>
        <time>2017-05-05T09:50:41Z</time>
      </trkpt>
      <trkpt lat="45.97588" lon="4.58165">
        <ele>540</ele>
        <time>2017-05-05T09:50:42Z</time>
      </trkpt>
      <trkpt lat="45.97581" lon="4.58164">
        <ele>541</ele>
        <time>2017-05-05T09:50:43Z</time>
      </trkpt>
      <trkpt lat="45.97575" lon="4.58163">
        <ele>540</ele>
        <time>2017-05-05T09:50:44Z</time>
      </trkpt>
      <trkpt lat="45.97569" lon="4.58163">
        <ele>540</ele>
        <time>2017-05-05T09:50:45Z</time>
      </trkpt>
      <trkpt lat="45.97563" lon="4.58162">
        <ele>539</ele>
        <time>2017-05-05T09:50:46Z</time>
      </trkpt>
      <trkpt lat="45.97557" lon="4.58161">
        <ele>539</ele>
        <time>2017-05-05T09:50:47Z</time>
      </trkpt>
      <trkpt lat="45.97551" lon="4.5816">
        <ele>540</ele>
        <time>2017-05-05T09:50:48Z</time>
      </trkpt>
      <trkpt lat="45.97545" lon="4.58159">
        <ele>540</ele>
        <time>2017-05-05T09:50:49Z</time>
      </trkpt>
      <trkpt lat="45.97538" lon="4.58157">
        <ele>540</ele>
        <time>2017-05-05T09:50:50Z</time>
      </trkpt>
      <trkpt lat="45.97532" lon="4.58155">
        <ele>541</ele>
        <time>2017-05-05T09:50:51Z</time>
      </trkpt>
      <trkpt lat="45.97526" lon="4.58153">
        <ele>541</ele>
        <time>2017-05-05T09:50:52Z</time>
      </trkpt>
      <trkpt lat="45.9752" lon="4.5815">
        <ele>542</ele>
        <time>2017-05-05T09:50:53Z</time>
      </trkpt>
      <trkpt lat="45.97514" lon="4.58148">
        <ele>542</ele>
        <time>2017-05-05T09:50:54Z</time>
      </trkpt>
      <trkpt lat="45.97508" lon="4.58145">
        <ele>542</ele>
        <time>2017-05-05T09:50:55Z</time>
      </trkpt>
      <trkpt lat="45.97502" lon="4.58142">
        <ele>542</ele>
        <time>2017-05-05T09:50:56Z</time>
      </trkpt>
      <trkpt lat="45.97496" lon="4.58139">
        <ele>546</ele>
        <time>2017-05-05T09:50:57Z</time>
      </trkpt>
      <trkpt lat="45.97489" lon="4.58136">
        <ele>546</ele>
        <time>2017-05-05T09:50:58Z</time>
      </trkpt>
      <trkpt lat="45.97483" lon="4.58132">
        <ele>546</ele>
        <time>2017-05-05T09:50:59Z</time>
      </trkpt>
      <trkpt lat="45.97478" lon="4.58129">
        <ele>546</ele>
        <time>2017-05-05T09:51:00Z</time>
      </trkpt>
      <trkpt lat="45.97472" lon="4.58125">
        <ele>546</ele>
        <time>2017-05-05T09:51:01Z</time>
      </trkpt>
      <trkpt lat="45.97466" lon="4.58122">
        <ele>545</ele>
        <time>2017-05-05T09:51:02Z</time>
      </trkpt>
      <trkpt lat="45.97461" lon="4.58118">
        <ele>545</ele>
        <time>2017-05-05T09:51:03Z</time>
      </trkpt>
      <trkpt lat="45.97455" lon="4.58114">
        <ele>545</ele>
        <time>2017-05-05T09:51:04Z</time>
      </trkpt>
      <trkpt lat="45.9745" lon="4.58109">
        <ele>545</ele>
        <time>2017-05-05T09:51:05Z</time>
      </trkpt>
      <trkpt lat="45.97445" lon="4.58104">
        <ele>545</ele>
        <time>2017-05-05T09:51:06Z</time>
      </trkpt>
      <trkpt lat="45.9744" lon="4.58099">
        <ele>545</ele>
        <time>2017-05-05T09:51:07Z</time>
      </trkpt>
      <trkpt lat="45.97435" lon="4.58094">
        <ele>545</ele>
        <time>2017-05-05T09:51:08Z</time>
      </trkpt>
      <trkpt lat="45.9743" lon="4.58088">
        <ele>545</ele>
        <time>2017-05-05T09:51:09Z</time>
      </trkpt>
      <trkpt lat="45.97425" lon="4.58083">
        <ele>540</ele>
        <time>2017-05-05T09:51:10Z</time>
      </trkpt>
      <trkpt lat="45.9742" lon="4.58079">
        <ele>541</ele>
        <time>2017-05-05T09:51:11Z</time>
      </trkpt>
      <trkpt lat="45.97415" lon="4.58073">
        <ele>541</ele>
        <time>2017-05-05T09:51:12Z</time>
      </trkpt>
      <trkpt lat="45.97411" lon="4.58068">
        <ele>540</ele>
        <time>2017-05-05T09:51:13Z</time>
      </trkpt>
      <trkpt lat="45.97405" lon="4.58063">
        <ele>539</ele>
        <time>2017-05-05T09:51:14Z</time>
      </trkpt>
      <trkpt lat="45.974" lon="4.58058">
        <ele>538</ele>
        <time>2017-05-05T09:51:15Z</time>
      </trkpt>
      <trkpt lat="45.97394" lon="4.58054">
        <ele>537</ele>
        <time>2017-05-05T09:51:16Z</time>
      </trkpt>
      <trkpt lat="45.97389" lon="4.58051">
        <ele>537</ele>
        <time>2017-05-05T09:51:17Z</time>
      </trkpt>
      <trkpt lat="45.97382" lon="4.58049">
        <ele>536</ele>
        <time>2017-05-05T09:51:18Z</time>
      </trkpt>
      <trkpt lat="45.97375" lon="4.58048">
        <ele>536</ele>
        <time>2017-05-05T09:51:19Z</time>
      </trkpt>
      <trkpt lat="45.97369" lon="4.58047">
        <ele>536</ele>
        <time>2017-05-05T09:51:20Z</time>
      </trkpt>
      <trkpt lat="45.97362" lon="4.58048">
        <ele>536</ele>
        <time>2017-05-05T09:51:21Z</time>
      </trkpt>
      <trkpt lat="45.97355" lon="4.58049">
        <ele>536</ele>
        <time>2017-05-05T09:51:22Z</time>
      </trkpt>
      <trkpt lat="45.97349" lon="4.58051">
        <ele>536</ele>
        <time>2017-05-05T09:51:23Z</time>
      </trkpt>
      <trkpt lat="45.97342" lon="4.58055">
        <ele>537</ele>
        <time>2017-05-05T09:51:24Z</time>
      </trkpt>
      <trkpt lat="45.97336" lon="4.58059">
        <ele>538</ele>
        <time>2017-05-05T09:51:25Z</time>
      </trkpt>
      <trkpt lat="45.9733" lon="4.58063">
        <ele>538</ele>
        <time>2017-05-05T09:51:26Z</time>
      </trkpt>
      <trkpt lat="45.97324" lon="4.58068">
        <ele>538</ele>
        <time>2017-05-05T09:51:27Z</time>
      </trkpt>
      <trkpt lat="45.97318" lon="4.58073">
        <ele>539</ele>
        <time>2017-05-05T09:51:28Z</time>
      </trkpt>
      <trkpt lat="45.97312" lon="4.58079">
        <ele>538</ele>
        <time>2017-05-05T09:51:29Z</time>
      </trkpt>
      <trkpt lat="45.97307" lon="4.58084">
        <ele>549</ele>
        <time>2017-05-05T09:51:30Z</time>
      </trkpt>
      <trkpt lat="45.97301" lon="4.58089">
        <ele>550</ele>
        <time>2017-05-05T09:51:31Z</time>
      </trkpt>
      <trkpt lat="45.97295" lon="4.58093">
        <ele>550</ele>
        <time>2017-05-05T09:51:32Z</time>
      </trkpt>
      <trkpt lat="45.97289" lon="4.58098">
        <ele>551</ele>
        <time>2017-05-05T09:51:33Z</time>
      </trkpt>
      <trkpt lat="45.97282" lon="4.58101">
        <ele>551</ele>
        <time>2017-05-05T09:51:34Z</time>
      </trkpt>
      <trkpt lat="45.97276" lon="4.58104">
        <ele>551</ele>
        <time>2017-05-05T09:51:35Z</time>
      </trkpt>
      <trkpt lat="45.9727" lon="4.58105">
        <ele>551</ele>
        <time>2017-05-05T09:51:36Z</time>
      </trkpt>
      <trkpt lat="45.97263" lon="4.58105">
        <ele>550</ele>
        <time>2017-05-05T09:51:37Z</time>
      </trkpt>
      <trkpt lat="45.97256" lon="4.58104">
        <ele>550</ele>
        <time>2017-05-05T09:51:38Z</time>
      </trkpt>
      <trkpt lat="45.9725" lon="4.58101">
        <ele>550</ele>
        <time>2017-05-05T09:51:39Z</time>
      </trkpt>
      <trkpt lat="45.97244" lon="4.58098">
        <ele>549</ele>
        <time>2017-05-05T09:51:40Z</time>
      </trkpt>
      <trkpt lat="45.97238" lon="4.58093">
        <ele>549</ele>
        <time>2017-05-05T09:51:41Z</time>
      </trkpt>
      <trkpt lat="45.97233" lon="4.58087">
        <ele>549</ele>
        <time>2017-05-05T09:51:42Z</time>
      </trkpt>
      <trkpt lat="45.97229" lon="4.58081">
        <ele>541</ele>
        <time>2017-05-05T09:51:43Z</time>
      </trkpt>
      <trkpt lat="45.97224" lon="4.58074">
        <ele>540</ele>
        <time>2017-05-05T09:51:44Z</time>
      </trkpt>
      <trkpt lat="45.97219" lon="4.58068">
        <ele>539</ele>
        <time>2017-05-05T09:51:45Z</time>
      </trkpt>
      <trkpt lat="45.97215" lon="4.58061">
        <ele>539</ele>
        <time>2017-05-05T09:51:46Z</time>
      </trkpt>
      <trkpt lat="45.9721" lon="4.58055">
        <ele>538</ele>
        <time>2017-05-05T09:51:47Z</time>
      </trkpt>
      <trkpt lat="45.97205" lon="4.58049">
        <ele>538</ele>
        <time>2017-05-05T09:51:48Z</time>
      </trkpt>
      <trkpt lat="45.97201" lon="4.58044">
        <ele>538</ele>
        <time>2017-05-05T09:51:49Z</time>
      </trkpt>
      <trkpt lat="45.97196" lon="4.5804">
        <ele>537</ele>
        <time>2017-05-05T09:51:50Z</time>
      </trkpt>
      <trkpt lat="45.97191" lon="4.58036">
        <ele>537</ele>
        <time>2017-05-05T09:51:51Z</time>
      </trkpt>
      <trkpt lat="45.97187" lon="4.58032">
        <ele>537</ele>
        <time>2017-05-05T09:51:52Z</time>
      </trkpt>
      <trkpt lat="45.97182" lon="4.58027">
        <ele>536</ele>
        <time>2017-05-05T09:51:53Z</time>
      </trkpt>
      <trkpt lat="45.97177" lon="4.58022">
        <ele>536</ele>
        <time>2017-05-05T09:51:54Z</time>
      </trkpt>
      <trkpt lat="45.97172" lon="4.58018">
        <ele>535</ele>
        <time>2017-05-05T09:51:55Z</time>
      </trkpt>
      <trkpt lat="45.97167" lon="4.58015">
        <ele>535</ele>
        <time>2017-05-05T09:51:56Z</time>
      </trkpt>
      <trkpt lat="45.97161" lon="4.58012">
        <ele>535</ele>
        <time>2017-05-05T09:51:57Z</time>
      </trkpt>
      <trkpt lat="45.97156" lon="4.58009">
        <ele>535</ele>
        <time>2017-05-05T09:51:58Z</time>
      </trkpt>
      <trkpt lat="45.9715" lon="4.58006">
        <ele>535</ele>
        <time>2017-05-05T09:51:59Z</time>
      </trkpt>
      <trkpt lat="45.97144" lon="4.58004">
        <ele>536</ele>
        <time>2017-05-05T09:52:00Z</time>
      </trkpt>
      <trkpt lat="45.97139" lon="4.58001">
        <ele>536</ele>
        <time>2017-05-05T09:52:01Z</time>
      </trkpt>
      <trkpt lat="45.97133" lon="4.58">
        <ele>527</ele>
        <time>2017-05-05T09:52:02Z</time>
      </trkpt>
      <trkpt lat="45.97127" lon="4.57999">
        <ele>527</ele>
        <time>2017-05-05T09:52:03Z</time>
      </trkpt>
      <trkpt lat="45.97121" lon="4.57998">
        <ele>526</ele>
        <time>2017-05-05T09:52:04Z</time>
      </trkpt>
      <trkpt lat="45.97115" lon="4.57998">
        <ele>526</ele>
        <time>2017-05-05T09:52:05Z</time>
      </trkpt>
      <trkpt lat="45.97109" lon="4.57999">
        <ele>527</ele>
        <time>2017-05-05T09:52:06Z</time>
      </trkpt>
      <trkpt lat="45.97104" lon="4.58001">
        <ele>535</ele>
        <time>2017-05-05T09:52:07Z</time>
      </trkpt>
      <trkpt lat="45.97098" lon="4.58003">
        <ele>534</ele>
        <time>2017-05-05T09:52:08Z</time>
      </trkpt>
      <trkpt lat="45.97093" lon="4.58005">
        <ele>533</ele>
        <time>2017-05-05T09:52:09Z</time>
      </trkpt>
      <trkpt lat="45.97088" lon="4.58009">
        <ele>533</ele>
        <time>2017-05-05T09:52:10Z</time>
      </trkpt>
      <trkpt lat="45.97084" lon="4.58014">
        <ele>534</ele>
        <time>2017-05-05T09:52:11Z</time>
      </trkpt>
      <trkpt lat="45.97079" lon="4.58019">
        <ele>531</ele>
        <time>2017-05-05T09:52:12Z</time>
      </trkpt>
      <trkpt lat="45.97075" lon="4.58024">
        <ele>531</ele>
        <time>2017-05-05T09:52:13Z</time>
      </trkpt>
      <trkpt lat="45.9707" lon="4.5803">
        <ele>531</ele>
        <time>2017-05-05T09:52:14Z</time>
      </trkpt>
      <trkpt lat="45.97066" lon="4.58036">
        <ele>532</ele>
        <time>2017-05-05T09:52:15Z</time>
      </trkpt>
      <trkpt lat="45.97062" lon="4.58042">
        <ele>532</ele>
        <time>2017-05-05T09:52:16Z</time>
      </trkpt>
      <trkpt lat="45.97058" lon="4.58048">
        <ele>533</ele>
        <time>2017-05-05T09:52:17Z</time>
      </trkpt>
      <trkpt lat="45.97054" lon="4.58054">
        <ele>533</ele>
        <time>2017-05-05T09:52:18Z</time>
      </trkpt>
      <trkpt lat="45.9705" lon="4.5806">
        <ele>533</ele>
        <time>2017-05-05T09:52:19Z</time>
      </trkpt>
      <trkpt lat="45.97046" lon="4.58065">
        <ele>533</ele>
        <time>2017-05-05T09:52:20Z</time>
      </trkpt>
      <trkpt lat="45.97042" lon="4.58071">
        <ele>533</ele>
        <time>2017-05-05T09:52:21Z</time>
      </trkpt>
      <trkpt lat="45.97038" lon="4.58076">
        <ele>533</ele>
        <time>2017-05-05T09:52:22Z</time>
      </trkpt>
      <trkpt lat="45.97034" lon="4.58082">
        <ele>533</ele>
        <time>2017-05-05T09:52:23Z</time>
      </trkpt>
      <trkpt lat="45.97029" lon="4.58088">
        <ele>544</ele>
        <time>2017-05-05T09:52:24Z</time>
      </trkpt>
      <trkpt lat="45.97025" lon="4.58094">
        <ele>544</ele>
        <time>2017-05-05T09:52:25Z</time>
      </trkpt>
      <trkpt lat="45.97021" lon="4.581">
        <ele>544</ele>
        <time>2017-05-05T09:52:26Z</time>
      </trkpt>
      <trkpt lat="45.97016" lon="4.58105">
        <ele>544</ele>
        <time>2017-05-05T09:52:27Z</time>
      </trkpt>
      <trkpt lat="45.97011" lon="4.58111">
        <ele>544</ele>
        <time>2017-05-05T09:52:28Z</time>
      </trkpt>
      <trkpt lat="45.97005" lon="4.58115">
        <ele>545</ele>
        <time>2017-05-05T09:52:29Z</time>
      </trkpt>
      <trkpt lat="45.96999" lon="4.58118">
        <ele>544</ele>
        <time>2017-05-05T09:52:30Z</time>
      </trkpt>
      <trkpt lat="45.96993" lon="4.5812">
        <ele>544</ele>
        <time>2017-05-05T09:52:31Z</time>
      </trkpt>
      <trkpt lat="45.96987" lon="4.5812">
        <ele>544</ele>
        <time>2017-05-05T09:52:32Z</time>
      </trkpt>
      <trkpt lat="45.9698" lon="4.58117">
        <ele>544</ele>
        <time>2017-05-05T09:52:33Z</time>
      </trkpt>
      <trkpt lat="45.96974" lon="4.58114">
        <ele>544</ele>
        <time>2017-05-05T09:52:34Z</time>
      </trkpt>
      <trkpt lat="45.96967" lon="4.58109">
        <ele>544</ele>
        <time>2017-05-05T09:52:35Z</time>
      </trkpt>
      <trkpt lat="45.9696" lon="4.58102">
        <ele>543</ele>
        <time>2017-05-05T09:52:36Z</time>
      </trkpt>
      <trkpt lat="45.96954" lon="4.58095">
        <ele>543</ele>
        <time>2017-05-05T09:52:37Z</time>
      </trkpt>
      <trkpt lat="45.96948" lon="4.58089">
        <ele>542</ele>
        <time>2017-05-05T09:52:38Z</time>
      </trkpt>
      <trkpt lat="45.96943" lon="4.58083">
        <ele>532</ele>
        <time>2017-05-05T09:52:39Z</time>
      </trkpt>
      <trkpt lat="45.96937" lon="4.58077">
        <ele>532</ele>
        <time>2017-05-05T09:52:40Z</time>
      </trkpt>
      <trkpt lat="45.96933" lon="4.58071">
        <ele>532</ele>
        <time>2017-05-05T09:52:41Z</time>
      </trkpt>
      <trkpt lat="45.96928" lon="4.58063">
        <ele>531</ele>
        <time>2017-05-05T09:52:42Z</time>
      </trkpt>
      <trkpt lat="45.96923" lon="4.58055">
        <ele>530</ele>
        <time>2017-05-05T09:52:43Z</time>
      </trkpt>
      <trkpt lat="45.96918" lon="4.58048">
        <ele>529</ele>
        <time>2017-05-05T09:52:44Z</time>
      </trkpt>
      <trkpt lat="45.96913" lon="4.58043">
        <ele>531</ele>
        <time>2017-05-05T09:52:45Z</time>
      </trkpt>
      <trkpt lat="45.96908" lon="4.58039">
        <ele>530</ele>
        <time>2017-05-05T09:52:46Z</time>
      </trkpt>
      <trkpt lat="45.96903" lon="4.58035">
        <ele>529</ele>
        <time>2017-05-05T09:52:47Z</time>
      </trkpt>
      <trkpt lat="45.96897" lon="4.58031">
        <ele>529</ele>
        <time>2017-05-05T09:52:48Z</time>
      </trkpt>
      <trkpt lat="45.96892" lon="4.58027">
        <ele>529</ele>
        <time>2017-05-05T09:52:49Z</time>
      </trkpt>
      <trkpt lat="45.96888" lon="4.58024">
        <ele>529</ele>
        <time>2017-05-05T09:52:50Z</time>
      </trkpt>
      <trkpt lat="45.96882" lon="4.5802">
        <ele>528</ele>
        <time>2017-05-05T09:52:51Z</time>
      </trkpt>
      <trkpt lat="45.96876" lon="4.58017">
        <ele>528</ele>
        <time>2017-05-05T09:52:52Z</time>
      </trkpt>
      <trkpt lat="45.9687" lon="4.58014">
        <ele>528</ele>
        <time>2017-05-05T09:52:53Z</time>
      </trkpt>
      <trkpt lat="45.96863" lon="4.58012">
        <ele>528</ele>
        <time>2017-05-05T09:52:54Z</time>
      </trkpt>
      <trkpt lat="45.96857" lon="4.58011">
        <ele>527</ele>
        <time>2017-05-05T09:52:55Z</time>
      </trkpt>
      <trkpt lat="45.96851" lon="4.58011">
        <ele>527</ele>
        <time>2017-05-05T09:52:56Z</time>
      </trkpt>
      <trkpt lat="45.96844" lon="4.58011">
        <ele>526</ele>
        <time>2017-05-05T09:52:57Z</time>
      </trkpt>
      <trkpt lat="45.96838" lon="4.58012">
        <ele>526</ele>
        <time>2017-05-05T09:52:58Z</time>
      </trkpt>
      <trkpt lat="45.96831" lon="4.58014">
        <ele>523</ele>
        <time>2017-05-05T09:52:59Z</time>
      </trkpt>
      <trkpt lat="45.96825" lon="4.58017">
        <ele>523</ele>
        <time>2017-05-05T09:53:00Z</time>
      </trkpt>
      <trkpt lat="45.96819" lon="4.5802">
        <ele>522</ele>
        <time>2017-05-05T09:53:01Z</time>
      </trkpt>
      <trkpt lat="45.96813" lon="4.58025">
        <ele>522</ele>
        <time>2017-05-05T09:53:02Z</time>
      </trkpt>
      <trkpt lat="45.96808" lon="4.5803">
        <ele>522</ele>
        <time>2017-05-05T09:53:03Z</time>
      </trkpt>
      <trkpt lat="45.96803" lon="4.58036">
        <ele>522</ele>
        <time>2017-05-05T09:53:04Z</time>
      </trkpt>
      <trkpt lat="45.96798" lon="4.58042">
        <ele>522</ele>
        <time>2017-05-05T09:53:05Z</time>
      </trkpt>
      <trkpt lat="45.96794" lon="4.58049">
        <ele>522</ele>
        <time>2017-05-05T09:53:06Z</time>
      </trkpt>
      <trkpt lat="45.9679" lon="4.58056">
        <ele>522</ele>
        <time>2017-05-05T09:53:07Z</time>
      </trkpt>
      <trkpt lat="45.96786" lon="4.58064">
        <ele>522</ele>
        <time>2017-05-05T09:53:08Z</time>
      </trkpt>
      <trkpt lat="45.96781" lon="4.58071">
        <ele>522</ele>
        <time>2017-05-05T09:53:09Z</time>
      </trkpt>
      <trkpt lat="45.96777" lon="4.58078">
        <ele>521</ele>
        <time>2017-05-05T09:53:10Z</time>
      </trkpt>
      <trkpt lat="45.96773" lon="4.58085">
        <ele>528</ele>
        <time>2017-05-05T09:53:11Z</time>
      </trkpt>
      <trkpt lat="45.9677" lon="4.58092">
        <ele>527</ele>
        <time>2017-05-05T09:53:12Z</time>
      </trkpt>
      <trkpt lat="45.96766" lon="4.581">
        <ele>528</ele>
        <time>2017-05-05T09:53:13Z</time>
      </trkpt>
      <trkpt lat="45.96762" lon="4.58107">
        <ele>528</ele>
        <time>2017-05-05T09:53:14Z</time>
      </trkpt>
      <trkpt lat="45.96758" lon="4.58114">
        <ele>529</ele>
        <time>2017-05-05T09:53:15Z</time>
      </trkpt>
      <trkpt lat="45.96754" lon="4.58121">
        <ele>530</ele>
        <time>2017-05-05T09:53:16Z</time>
      </trkpt>
      <trkpt lat="45.9675" lon="4.58129">
        <ele>531</ele>
        <time>2017-05-05T09:53:17Z</time>
      </trkpt>
      <trkpt lat="45.96746" lon="4.58137">
        <ele>516</ele>
        <time>2017-05-05T09:53:18Z</time>
      </trkpt>
      <trkpt lat="45.96742" lon="4.58144">
        <ele>517</ele>
        <time>2017-05-05T09:53:19Z</time>
      </trkpt>
      <trkpt lat="45.96738" lon="4.58151">
        <ele>518</ele>
        <time>2017-05-05T09:53:20Z</time>
      </trkpt>
      <trkpt lat="45.96734" lon="4.58158">
        <ele>519</ele>
        <time>2017-05-05T09:53:21Z</time>
      </trkpt>
      <trkpt lat="45.96731" lon="4.58166">
        <ele>518</ele>
        <time>2017-05-05T09:53:22Z</time>
      </trkpt>
      <trkpt lat="45.96727" lon="4.58173">
        <ele>521</ele>
        <time>2017-05-05T09:53:23Z</time>
      </trkpt>
      <trkpt lat="45.96724" lon="4.5818">
        <ele>520</ele>
        <time>2017-05-05T09:53:24Z</time>
      </trkpt>
      <trkpt lat="45.96722" lon="4.58188">
        <ele>519</ele>
        <time>2017-05-05T09:53:25Z</time>
      </trkpt>
      <trkpt lat="45.9672" lon="4.58197">
        <ele>519</ele>
        <time>2017-05-05T09:53:26Z</time>
      </trkpt>
      <trkpt lat="45.96719" lon="4.58205">
        <ele>519</ele>
        <time>2017-05-05T09:53:27Z</time>
      </trkpt>
      <trkpt lat="45.96717" lon="4.58213">
        <ele>519</ele>
        <time>2017-05-05T09:53:28Z</time>
      </trkpt>
      <trkpt lat="45.96716" lon="4.58221">
        <ele>519</ele>
        <time>2017-05-05T09:53:29Z</time>
      </trkpt>
      <trkpt lat="45.96715" lon="4.58229">
        <ele>520</ele>
        <time>2017-05-05T09:53:30Z</time>
      </trkpt>
      <trkpt lat="45.96715" lon="4.58237">
        <ele>520</ele>
        <time>2017-05-05T09:53:31Z</time>
      </trkpt>
      <trkpt lat="45.96716" lon="4.58244">
        <ele>521</ele>
        <time>2017-05-05T09:53:32Z</time>
      </trkpt>
      <trkpt lat="45.96717" lon="4.58252">
        <ele>522</ele>
        <time>2017-05-05T09:53:33Z</time>
      </trkpt>
      <trkpt lat="45.96718" lon="4.58259">
        <ele>522</ele>
        <time>2017-05-05T09:53:34Z</time>
      </trkpt>
      <trkpt lat="45.96719" lon="4.58266">
        <ele>522</ele>
        <time>2017-05-05T09:53:35Z</time>
      </trkpt>
      <trkpt lat="45.96721" lon="4.58274">
        <ele>522</ele>
        <time>2017-05-05T09:53:36Z</time>
      </trkpt>
      <trkpt lat="45.96723" lon="4.58281">
        <ele>522</ele>
        <time>2017-05-05T09:53:37Z</time>
      </trkpt>
      <trkpt lat="45.96725" lon="4.58289">
        <ele>522</ele>
        <time>2017-05-05T09:53:38Z</time>
      </trkpt>
      <trkpt lat="45.96728" lon="4.58298">
        <ele>522</ele>
        <time>2017-05-05T09:53:39Z</time>
      </trkpt>
      <trkpt lat="45.96731" lon="4.58306">
        <ele>523</ele>
        <time>2017-05-05T09:53:40Z</time>
      </trkpt>
      <trkpt lat="45.96734" lon="4.58315">
        <ele>524</ele>
        <time>2017-05-05T09:53:41Z</time>
      </trkpt>
      <trkpt lat="45.96737" lon="4.58324">
        <ele>527</ele>
        <time>2017-05-05T09:53:42Z</time>
      </trkpt>
      <trkpt lat="45.96739" lon="4.58333">
        <ele>529</ele>
        <time>2017-05-05T09:53:43Z</time>
      </trkpt>
      <trkpt lat="45.96741" lon="4.58342">
        <ele>527</ele>
        <time>2017-05-05T09:53:44Z</time>
      </trkpt>
      <trkpt lat="45.96743" lon="4.58352">
        <ele>525</ele>
        <time>2017-05-05T09:53:45Z</time>
      </trkpt>
      <trkpt lat="45.96744" lon="4.58362">
        <ele>523</ele>
        <time>2017-05-05T09:53:46Z</time>
      </trkpt>
      <trkpt lat="45.96746" lon="4.58372">
        <ele>522</ele>
        <time>2017-05-05T09:53:47Z</time>
      </trkpt>
      <trkpt lat="45.96747" lon="4.58381">
        <ele>522</ele>
        <time>2017-05-05T09:53:48Z</time>
      </trkpt>
      <trkpt lat="45.96749" lon="4.5839">
        <ele>522</ele>
        <time>2017-05-05T09:53:49Z</time>
      </trkpt>
      <trkpt lat="45.96749" lon="4.58399">
        <ele>523</ele>
        <time>2017-05-05T09:53:50Z</time>
      </trkpt>
      <trkpt lat="45.96749" lon="4.58408">
        <ele>525</ele>
        <time>2017-05-05T09:53:51Z</time>
      </trkpt>
      <trkpt lat="45.9675" lon="4.58417">
        <ele>529</ele>
        <time>2017-05-05T09:53:52Z</time>
      </trkpt>
      <trkpt lat="45.96749" lon="4.58426">
        <ele>527</ele>
        <time>2017-05-05T09:53:53Z</time>
      </trkpt>
      <trkpt lat="45.96749" lon="4.58434">
        <ele>526</ele>
        <time>2017-05-05T09:53:54Z</time>
      </trkpt>
      <trkpt lat="45.96749" lon="4.58442">
        <ele>525</ele>
        <time>2017-05-05T09:53:55Z</time>
      </trkpt>
      <trkpt lat="45.96748" lon="4.5845">
        <ele>525</ele>
        <time>2017-05-05T09:53:56Z</time>
      </trkpt>
      <trkpt lat="45.96747" lon="4.58458">
        <ele>525</ele>
        <time>2017-05-05T09:53:57Z</time>
      </trkpt>
      <trkpt lat="45.96746" lon="4.58465">
        <ele>526</ele>
        <time>2017-05-05T09:53:58Z</time>
      </trkpt>
      <trkpt lat="45.96744" lon="4.58472">
        <ele>526</ele>
        <time>2017-05-05T09:53:59Z</time>
      </trkpt>
      <trkpt lat="45.96742" lon="4.58479">
        <ele>527</ele>
        <time>2017-05-05T09:54:00Z</time>
      </trkpt>
      <trkpt lat="45.9674" lon="4.58486">
        <ele>528</ele>
        <time>2017-05-05T09:54:01Z</time>
      </trkpt>
      <trkpt lat="45.96738" lon="4.58493">
        <ele>529</ele>
        <time>2017-05-05T09:54:02Z</time>
      </trkpt>
      <trkpt lat="45.96736" lon="4.585">
        <ele>529</ele>
        <time>2017-05-05T09:54:03Z</time>
      </trkpt>
      <trkpt lat="45.96733" lon="4.58507">
        <ele>534</ele>
        <time>2017-05-05T09:54:04Z</time>
      </trkpt>
      <trkpt lat="45.9673" lon="4.58514">
        <ele>534</ele>
        <time>2017-05-05T09:54:05Z</time>
      </trkpt>
      <trkpt lat="45.96727" lon="4.58521">
        <ele>535</ele>
        <time>2017-05-05T09:54:06Z</time>
      </trkpt>
      <trkpt lat="45.96722" lon="4.58527">
        <ele>535</ele>
        <time>2017-05-05T09:54:07Z</time>
      </trkpt>
      <trkpt lat="45.96716" lon="4.58533">
        <ele>535</ele>
        <time>2017-05-05T09:54:08Z</time>
      </trkpt>
      <trkpt lat="45.9671" lon="4.58536">
        <ele>535</ele>
        <time>2017-05-05T09:54:09Z</time>
      </trkpt>
      <trkpt lat="45.96704" lon="4.58539">
        <ele>534</ele>
        <time>2017-05-05T09:54:10Z</time>
      </trkpt>
      <trkpt lat="45.96697" lon="4.58539">
        <ele>534</ele>
        <time>2017-05-05T09:54:11Z</time>
      </trkpt>
      <trkpt lat="45.96691" lon="4.5854">
        <ele>534</ele>
        <time>2017-05-05T09:54:12Z</time>
      </trkpt>
      <trkpt lat="45.96684" lon="4.58539">
        <ele>533</ele>
        <time>2017-05-05T09:54:13Z</time>
      </trkpt>
      <trkpt lat="45.96678" lon="4.58538">
        <ele>532</ele>
        <time>2017-05-05T09:54:14Z</time>
      </trkpt>
      <trkpt lat="45.96672" lon="4.58537">
        <ele>532</ele>
        <time>2017-05-05T09:54:15Z</time>
      </trkpt>
      <trkpt lat="45.96666" lon="4.58532">
        <ele>532</ele>
        <time>2017-05-05T09:54:16Z</time>
      </trkpt>
      <trkpt lat="45.96661" lon="4.58528">
        <ele>532</ele>
        <time>2017-05-05T09:54:17Z</time>
      </trkpt>
      <trkpt lat="45.96657" lon="4.58524">
        <ele>531</ele>
        <time>2017-05-05T09:54:18Z</time>
      </trkpt>
      <trkpt lat="45.96652" lon="4.5852">
        <ele>531</ele>
        <time>2017-05-05T09:54:19Z</time>
      </trkpt>
      <trkpt lat="45.96648" lon="4.58515">
        <ele>530</ele>
        <time>2017-05-05T09:54:20Z</time>
      </trkpt>
      <trkpt lat="45.96645" lon="4.58511">
        <ele>531</ele>
        <time>2017-05-05T09:54:21Z</time>
      </trkpt>
      <trkpt lat="45.96641" lon="4.58506">
        <ele>531</ele>
        <time>2017-05-05T09:54:22Z</time>
      </trkpt>
      <trkpt lat="45.96636" lon="4.58496">
        <ele>520</ele>
        <time>2017-05-05T09:54:24Z</time>
      </trkpt>
      <trkpt lat="45.96633" lon="4.58492">
        <ele>520</ele>
        <time>2017-05-05T09:54:25Z</time>
      </trkpt>
      <trkpt lat="45.96629" lon="4.58488">
        <ele>520</ele>
        <time>2017-05-05T09:54:26Z</time>
      </trkpt>
      <trkpt lat="45.96625" lon="4.58484">
        <ele>520</ele>
        <time>2017-05-05T09:54:27Z</time>
      </trkpt>
      <trkpt lat="45.96621" lon="4.5848">
        <ele>520</ele>
        <time>2017-05-05T09:54:28Z</time>
      </trkpt>
      <trkpt lat="45.96616" lon="4.58476">
        <ele>521</ele>
        <time>2017-05-05T09:54:29Z</time>
      </trkpt>
      <trkpt lat="45.96611" lon="4.58471">
        <ele>520</ele>
        <time>2017-05-05T09:54:30Z</time>
      </trkpt>
      <trkpt lat="45.96606" lon="4.58467">
        <ele>520</ele>
        <time>2017-05-05T09:54:31Z</time>
      </trkpt>
      <trkpt lat="45.96601" lon="4.58463">
        <ele>520</ele>
        <time>2017-05-05T09:54:32Z</time>
      </trkpt>
      <trkpt lat="45.96596" lon="4.58459">
        <ele>520</ele>
        <time>2017-05-05T09:54:33Z</time>
      </trkpt>
      <trkpt lat="45.9659" lon="4.58455">
        <ele>519</ele>
        <time>2017-05-05T09:54:34Z</time>
      </trkpt>
      <trkpt lat="45.96585" lon="4.58451">
        <ele>519</ele>
        <time>2017-05-05T09:54:35Z</time>
      </trkpt>
      <trkpt lat="45.9658" lon="4.58448">
        <ele>527</ele>
        <time>2017-05-05T09:54:36Z</time>
      </trkpt>
      <trkpt lat="45.96575" lon="4.58444">
        <ele>526</ele>
        <time>2017-05-05T09:54:37Z</time>
      </trkpt>
      <trkpt lat="45.9657" lon="4.58441">
        <ele>526</ele>
        <time>2017-05-05T09:54:38Z</time>
      </trkpt>
      <trkpt lat="45.96565" lon="4.58437">
        <ele>526</ele>
        <time>2017-05-05T09:54:39Z</time>
      </trkpt>
      <trkpt lat="45.96561" lon="4.58434">
        <ele>526</ele>
        <time>2017-05-05T09:54:40Z</time>
      </trkpt>
      <trkpt lat="45.96556" lon="4.58431">
        <ele>526</ele>
        <time>2017-05-05T09:54:41Z</time>
      </trkpt>
      <trkpt lat="45.96548" lon="4.58426">
        <ele>527</ele>
        <time>2017-05-05T09:54:43Z</time>
      </trkpt>
      <trkpt lat="45.96544" lon="4.58423">
        <ele>528</ele>
        <time>2017-05-05T09:54:44Z</time>
      </trkpt>
      <trkpt lat="45.9654" lon="4.5842">
        <ele>528</ele>
        <time>2017-05-05T09:54:45Z</time>
      </trkpt>
      <trkpt lat="45.96536" lon="4.58418">
        <ele>528</ele>
        <time>2017-05-05T09:54:46Z</time>
      </trkpt>
      <trkpt lat="45.96531" lon="4.58415">
        <ele>516</ele>
        <time>2017-05-05T09:54:47Z</time>
      </trkpt>
      <trkpt lat="45.96526" lon="4.58411">
        <ele>516</ele>
        <time>2017-05-05T09:54:48Z</time>
      </trkpt>
      <trkpt lat="45.96522" lon="4.58408">
        <ele>517</ele>
        <time>2017-05-05T09:54:49Z</time>
      </trkpt>
      <trkpt lat="45.96516" lon="4.58406">
        <ele>518</ele>
        <time>2017-05-05T09:54:50Z</time>
      </trkpt>
      <trkpt lat="45.96511" lon="4.58404">
        <ele>519</ele>
        <time>2017-05-05T09:54:51Z</time>
      </trkpt>
      <trkpt lat="45.96505" lon="4.58402">
        <ele>519</ele>
        <time>2017-05-05T09:54:52Z</time>
      </trkpt>
      <trkpt lat="45.965" lon="4.58401">
        <ele>519</ele>
        <time>2017-05-05T09:54:53Z</time>
      </trkpt>
      <trkpt lat="45.96495" lon="4.58401">
        <ele>519</ele>
        <time>2017-05-05T09:54:54Z</time>
      </trkpt>
      <trkpt lat="45.9649" lon="4.58402">
        <ele>518</ele>
        <time>2017-05-05T09:54:55Z</time>
      </trkpt>
      <trkpt lat="45.96485" lon="4.58403">
        <ele>518</ele>
        <time>2017-05-05T09:54:56Z</time>
      </trkpt>
      <trkpt lat="45.9648" lon="4.58405">
        <ele>517</ele>
        <time>2017-05-05T09:54:57Z</time>
      </trkpt>
      <trkpt lat="45.96475" lon="4.58407">
        <ele>516</ele>
        <time>2017-05-05T09:54:58Z</time>
      </trkpt>
      <trkpt lat="45.9647" lon="4.58409">
        <ele>515</ele>
        <time>2017-05-05T09:54:59Z</time>
      </trkpt>
      <trkpt lat="45.96466" lon="4.58413">
        <ele>515</ele>
        <time>2017-05-05T09:55:00Z</time>
      </trkpt>
      <trkpt lat="45.96462" lon="4.58417">
        <ele>527</ele>
        <time>2017-05-05T09:55:01Z</time>
      </trkpt>
      <trkpt lat="45.96459" lon="4.58421">
        <ele>527</ele>
        <time>2017-05-05T09:55:02Z</time>
      </trkpt>
      <trkpt lat="45.96455" lon="4.58424">
        <ele>526</ele>
        <time>2017-05-05T09:55:03Z</time>
      </trkpt>
      <trkpt lat="45.96451" lon="4.58429">
        <ele>526</ele>
        <time>2017-05-05T09:55:04Z</time>
      </trkpt>
      <trkpt lat="45.96447" lon="4.58433">
        <ele>526</ele>
        <time>2017-05-05T09:55:05Z</time>
      </trkpt>
      <trkpt lat="45.96444" lon="4.58437">
        <ele>526</ele>
        <time>2017-05-05T09:55:06Z</time>
      </trkpt>
      <trkpt lat="45.9644" lon="4.58442">
        <ele>526</ele>
        <time>2017-05-05T09:55:07Z</time>
      </trkpt>
      <trkpt lat="45.96437" lon="4.58446">
        <ele>526</ele>
        <time>2017-05-05T09:55:08Z</time>
      </trkpt>
      <trkpt lat="45.96433" lon="4.5845">
        <ele>527</ele>
        <time>2017-05-05T09:55:09Z</time>
      </trkpt>
      <trkpt lat="45.9643" lon="4.58454">
        <ele>527</ele>
        <time>2017-05-05T09:55:10Z</time>
      </trkpt>
      <trkpt lat="45.96426" lon="4.58458">
        <ele>528</ele>
        <time>2017-05-05T09:55:11Z</time>
      </trkpt>
      <trkpt lat="45.96422" lon="4.58463">
        <ele>529</ele>
        <time>2017-05-05T09:55:12Z</time>
      </trkpt>
      <trkpt lat="45.96419" lon="4.58467">
        <ele>529</ele>
        <time>2017-05-05T09:55:13Z</time>
      </trkpt>
      <trkpt lat="45.96415" lon="4.58472">
        <ele>519</ele>
        <time>2017-05-05T09:55:14Z</time>
      </trkpt>
      <trkpt lat="45.96411" lon="4.58476">
        <ele>520</ele>
        <time>2017-05-05T09:55:15Z</time>
      </trkpt>
      <trkpt lat="45.96407" lon="4.58481">
        <ele>521</ele>
        <time>2017-05-05T09:55:16Z</time>
      </trkpt>
      <trkpt lat="45.96402" lon="4.58487">
        <ele>522</ele>
        <time>2017-05-05T09:55:17Z</time>
      </trkpt>
      <trkpt lat="45.96398" lon="4.58492">
        <ele>522</ele>
        <time>2017-05-05T09:55:18Z</time>
      </trkpt>
      <trkpt lat="45.96393" lon="4.58497">
        <ele>521</ele>
        <time>2017-05-05T09:55:19Z</time>
      </trkpt>
      <trkpt lat="45.96389" lon="4.58502">
        <ele>532</ele>
        <time>2017-05-05T09:55:20Z</time>
      </trkpt>
      <trkpt lat="45.96384" lon="4.58507">
        <ele>531</ele>
        <time>2017-05-05T09:55:21Z</time>
      </trkpt>
      <trkpt lat="45.9638" lon="4.58512">
        <ele>531</ele>
        <time>2017-05-05T09:55:22Z</time>
      </trkpt>
      <trkpt lat="45.96375" lon="4.58517">
        <ele>531</ele>
        <time>2017-05-05T09:55:23Z</time>
      </trkpt>
      <trkpt lat="45.96371" lon="4.58522">
        <ele>530</ele>
        <time>2017-05-05T09:55:24Z</time>
      </trkpt>
      <trkpt lat="45.96366" lon="4.58526">
        <ele>530</ele>
        <time>2017-05-05T09:55:25Z</time>
      </trkpt>
      <trkpt lat="45.96361" lon="4.58531">
        <ele>530</ele>
        <time>2017-05-05T09:55:26Z</time>
      </trkpt>
      <trkpt lat="45.96356" lon="4.58534">
        <ele>530</ele>
        <time>2017-05-05T09:55:27Z</time>
      </trkpt>
      <trkpt lat="45.96351" lon="4.58537">
        <ele>530</ele>
        <time>2017-05-05T09:55:28Z</time>
      </trkpt>
      <trkpt lat="45.96346" lon="4.58539">
        <ele>530</ele>
        <time>2017-05-05T09:55:29Z</time>
      </trkpt>
      <trkpt lat="45.9634" lon="4.58541">
        <ele>530</ele>
        <time>2017-05-05T09:55:30Z</time>
      </trkpt>
      <trkpt lat="45.96335" lon="4.58543">
        <ele>530</ele>
        <time>2017-05-05T09:55:31Z</time>
      </trkpt>
      <trkpt lat="45.96329" lon="4.58543">
        <ele>527</ele>
        <time>2017-05-05T09:55:32Z</time>
      </trkpt>
      <trkpt lat="45.96324" lon="4.58543">
        <ele>527</ele>
        <time>2017-05-05T09:55:33Z</time>
      </trkpt>
      <trkpt lat="45.96319" lon="4.58542">
        <ele>527</ele>
        <time>2017-05-05T09:55:34Z</time>
      </trkpt>
      <trkpt lat="45.96314" lon="4.58541">
        <ele>527</ele>
        <time>2017-05-05T09:55:35Z</time>
      </trkpt>
      <trkpt lat="45.96309" lon="4.58538">
        <ele>526</ele>
        <time>2017-05-05T09:55:36Z</time>
      </trkpt>
      <trkpt lat="45.96304" lon="4.58536">
        <ele>526</ele>
        <time>2017-05-05T09:55:37Z</time>
      </trkpt>
      <trkpt lat="45.96299" lon="4.58533">
        <ele>526</ele>
        <time>2017-05-05T09:55:38Z</time>
      </trkpt>
      <trkpt lat="45.96293" lon="4.5853">
        <ele>526</ele>
        <time>2017-05-05T09:55:39Z</time>
      </trkpt>
      <trkpt lat="45.96288" lon="4.58527">
        <ele>526</ele>
        <time>2017-05-05T09:55:40Z</time>
      </trkpt>
      <trkpt lat="45.96282" lon="4.58524">
        <ele>525</ele>
        <time>2017-05-05T09:55:41Z</time>
      </trkpt>
      <trkpt lat="45.96276" lon="4.58521">
        <ele>525</ele>
        <time>2017-05-05T09:55:42Z</time>
      </trkpt>
      <trkpt lat="45.96271" lon="4.58518">
        <ele>524</ele>
        <time>2017-05-05T09:55:43Z</time>
      </trkpt>
      <trkpt lat="45.96266" lon="4.58515">
        <ele>524</ele>
        <time>2017-05-05T09:55:44Z</time>
      </trkpt>
      <trkpt lat="45.96261" lon="4.58513">
        <ele>523</ele>
        <time>2017-05-05T09:55:45Z</time>
      </trkpt>
      <trkpt lat="45.96256" lon="4.5851">
        <ele>522</ele>
        <time>2017-05-05T09:55:46Z</time>
      </trkpt>
      <trkpt lat="45.96251" lon="4.58508">
        <ele>521</ele>
        <time>2017-05-05T09:55:47Z</time>
      </trkpt>
      <trkpt lat="45.96246" lon="4.58507">
        <ele>520</ele>
        <time>2017-05-05T09:55:48Z</time>
      </trkpt>
      <trkpt lat="45.96241" lon="4.58505">
        <ele>521</ele>
        <time>2017-05-05T09:55:49Z</time>
      </trkpt>
      <trkpt lat="45.96235" lon="4.58505">
        <ele>521</ele>
        <time>2017-05-05T09:55:50Z</time>
      </trkpt>
      <trkpt lat="45.96229" lon="4.58505">
        <ele>522</ele>
        <time>2017-05-05T09:55:51Z</time>
      </trkpt>
      <trkpt lat="45.96223" lon="4.58506">
        <ele>522</ele>
        <time>2017-05-05T09:55:52Z</time>
      </trkpt>
      <trkpt lat="45.96217" lon="4.58508">
        <ele>522</ele>
        <time>2017-05-05T09:55:53Z</time>
      </trkpt>
      <trkpt lat="45.96211" lon="4.5851">
        <ele>522</ele>
        <time>2017-05-05T09:55:54Z</time>
      </trkpt>
      <trkpt lat="45.96205" lon="4.58513">
        <ele>522</ele>
        <time>2017-05-05T09:55:55Z</time>
      </trkpt>
      <trkpt lat="45.96199" lon="4.58518">
        <ele>522</ele>
        <time>2017-05-05T09:55:56Z</time>
      </trkpt>
      <trkpt lat="45.96193" lon="4.58523">
        <ele>522</ele>
        <time>2017-05-05T09:55:57Z</time>
      </trkpt>
      <trkpt lat="45.96187" lon="4.58528">
        <ele>522</ele>
        <time>2017-05-05T09:55:58Z</time>
      </trkpt>
      <trkpt lat="45.96182" lon="4.58534">
        <ele>523</ele>
        <time>2017-05-05T09:55:59Z</time>
      </trkpt>
      <trkpt lat="45.96176" lon="4.58541">
        <ele>524</ele>
        <time>2017-05-05T09:56:00Z</time>
      </trkpt>
      <trkpt lat="45.96171" lon="4.58547">
        <ele>525</ele>
        <time>2017-05-05T09:56:01Z</time>
      </trkpt>
      <trkpt lat="45.96166" lon="4.58554">
        <ele>517</ele>
        <time>2017-05-05T09:56:02Z</time>
      </trkpt>
      <trkpt lat="45.96161" lon="4.58561">
        <ele>519</ele>
        <time>2017-05-05T09:56:03Z</time>
      </trkpt>
      <trkpt lat="45.96156" lon="4.58568">
        <ele>521</ele>
        <time>2017-05-05T09:56:04Z</time>
      </trkpt>
      <trkpt lat="45.96152" lon="4.58575">
        <ele>521</ele>
        <time>2017-05-05T09:56:05Z</time>
      </trkpt>
      <trkpt lat="45.96147" lon="4.58582">
        <ele>520</ele>
        <time>2017-05-05T09:56:06Z</time>
      </trkpt>
      <trkpt lat="45.96142" lon="4.58589">
        <ele>531</ele>
        <time>2017-05-05T09:56:07Z</time>
      </trkpt>
      <trkpt lat="45.96137" lon="4.58595">
        <ele>531</ele>
        <time>2017-05-05T09:56:08Z</time>
      </trkpt>
      <trkpt lat="45.96132" lon="4.58601">
        <ele>531</ele>
        <time>2017-05-05T09:56:09Z</time>
      </trkpt>
      <trkpt lat="45.96127" lon="4.58607">
        <ele>531</ele>
        <time>2017-05-05T09:56:10Z</time>
      </trkpt>
      <trkpt lat="45.96122" lon="4.58612">
        <ele>531</ele>
        <time>2017-05-05T09:56:11Z</time>
      </trkpt>
      <trkpt lat="45.96117" lon="4.58617">
        <ele>531</ele>
        <time>2017-05-05T09:56:12Z</time>
      </trkpt>
      <trkpt lat="45.96112" lon="4.58621">
        <ele>531</ele>
        <time>2017-05-05T09:56:13Z</time>
      </trkpt>
      <trkpt lat="45.96106" lon="4.58625">
        <ele>531</ele>
        <time>2017-05-05T09:56:14Z</time>
      </trkpt>
      <trkpt lat="45.96101" lon="4.58627">
        <ele>531</ele>
        <time>2017-05-05T09:56:15Z</time>
      </trkpt>
      <trkpt lat="45.96095" lon="4.58629">
        <ele>531</ele>
        <time>2017-05-05T09:56:16Z</time>
      </trkpt>
      <trkpt lat="45.9609" lon="4.5863">
        <ele>531</ele>
        <time>2017-05-05T09:56:17Z</time>
      </trkpt>
      <trkpt lat="45.96084" lon="4.58631">
        <ele>531</ele>
        <time>2017-05-05T09:56:18Z</time>
      </trkpt>
      <trkpt lat="45.96079" lon="4.58631">
        <ele>527</ele>
        <time>2017-05-05T09:56:19Z</time>
      </trkpt>
      <trkpt lat="45.96074" lon="4.5863">
        <ele>527</ele>
        <time>2017-05-05T09:56:20Z</time>
      </trkpt>
      <trkpt lat="45.96069" lon="4.58629">
        <ele>527</ele>
        <time>2017-05-05T09:56:21Z</time>
      </trkpt>
      <trkpt lat="45.96064" lon="4.58627">
        <ele>527</ele>
        <time>2017-05-05T09:56:22Z</time>
      </trkpt>
      <trkpt lat="45.96059" lon="4.58626">
        <ele>527</ele>
        <time>2017-05-05T09:56:23Z</time>
      </trkpt>
      <trkpt lat="45.96053" lon="4.58623">
        <ele>527</ele>
        <time>2017-05-05T09:56:24Z</time>
      </trkpt>
      <trkpt lat="45.96047" lon="4.5862">
        <ele>526</ele>
        <time>2017-05-05T09:56:25Z</time>
      </trkpt>
      <trkpt lat="45.96042" lon="4.58618">
        <ele>526</ele>
        <time>2017-05-05T09:56:26Z</time>
      </trkpt>
      <trkpt lat="45.96036" lon="4.58615">
        <ele>526</ele>
        <time>2017-05-05T09:56:27Z</time>
      </trkpt>
      <trkpt lat="45.96031" lon="4.58611">
        <ele>526</ele>
        <time>2017-05-05T09:56:28Z</time>
      </trkpt>
      <trkpt lat="45.96026" lon="4.58608">
        <ele>525</ele>
        <time>2017-05-05T09:56:29Z</time>
      </trkpt>
      <trkpt lat="45.96021" lon="4.58605">
        <ele>525</ele>
        <time>2017-05-05T09:56:30Z</time>
      </trkpt>
      <trkpt lat="45.96017" lon="4.58601">
        <ele>525</ele>
        <time>2017-05-05T09:56:31Z</time>
      </trkpt>
      <trkpt lat="45.96012" lon="4.58598">
        <ele>524</ele>
        <time>2017-05-05T09:56:32Z</time>
      </trkpt>
      <trkpt lat="45.96007" lon="4.58596">
        <ele>523</ele>
        <time>2017-05-05T09:56:33Z</time>
      </trkpt>
      <trkpt lat="45.96003" lon="4.58593">
        <ele>522</ele>
        <time>2017-05-05T09:56:34Z</time>
      </trkpt>
      <trkpt lat="45.95998" lon="4.5859">
        <ele>522</ele>
        <time>2017-05-05T09:56:35Z</time>
      </trkpt>
      <trkpt lat="45.95994" lon="4.58588">
        <ele>522</ele>
        <time>2017-05-05T09:56:36Z</time>
      </trkpt>
      <trkpt lat="45.95989" lon="4.58584">
        <ele>522</ele>
        <time>2017-05-05T09:56:37Z</time>
      </trkpt>
      <trkpt lat="45.95984" lon="4.58582">
        <ele>516</ele>
        <time>2017-05-05T09:56:38Z</time>
      </trkpt>
      <trkpt lat="45.95979" lon="4.58581">
        <ele>515</ele>
        <time>2017-05-05T09:56:39Z</time>
      </trkpt>
      <trkpt lat="45.95974" lon="4.58579">
        <ele>515</ele>
        <time>2017-05-05T09:56:40Z</time>
      </trkpt>
      <trkpt lat="45.95969" lon="4.58578">
        <ele>514</ele>
        <time>2017-05-05T09:56:41Z</time>
      </trkpt>
      <trkpt lat="45.95964" lon="4.58578">
        <ele>514</ele>
        <time>2017-05-05T09:56:42Z</time>
      </trkpt>
      <trkpt lat="45.95959" lon="4.58579">
        <ele>514</ele>
        <time>2017-05-05T09:56:43Z</time>
      </trkpt>
      <trkpt lat="45.95953" lon="4.58581">
        <ele>514</ele>
        <time>2017-05-05T09:56:44Z</time>
      </trkpt>
      <trkpt lat="45.95948" lon="4.58583">
        <ele>514</ele>
        <time>2017-05-05T09:56:45Z</time>
      </trkpt>
      <trkpt lat="45.95943" lon="4.58586">
        <ele>523</ele>
        <time>2017-05-05T09:56:46Z</time>
      </trkpt>
      <trkpt lat="45.95939" lon="4.5859">
        <ele>522</ele>
        <time>2017-05-05T09:56:47Z</time>
      </trkpt>
      <trkpt lat="45.95935" lon="4.58594">
        <ele>522</ele>
        <time>2017-05-05T09:56:48Z</time>
      </trkpt>
      <trkpt lat="45.95929" lon="4.58601">
        <ele>522</ele>
        <time>2017-05-05T09:56:50Z</time>
      </trkpt>
      <trkpt lat="45.95926" lon="4.58604">
        <ele>523</ele>
        <time>2017-05-05T09:56:51Z</time>
      </trkpt>
      <trkpt lat="45.9592" lon="4.58611">
        <ele>524</ele>
        <time>2017-05-05T09:56:53Z</time>
      </trkpt>
      <trkpt lat="45.95917" lon="4.58616">
        <ele>524</ele>
        <time>2017-05-05T09:56:54Z</time>
      </trkpt>
      <trkpt lat="45.95912" lon="4.58624">
        <ele>515</ele>
        <time>2017-05-05T09:56:56Z</time>
      </trkpt>
      <trkpt lat="45.9591" lon="4.58628">
        <ele>516</ele>
        <time>2017-05-05T09:56:57Z</time>
      </trkpt>
      <trkpt lat="45.95905" lon="4.58636">
        <ele>516</ele>
        <time>2017-05-05T09:56:59Z</time>
      </trkpt>
      <trkpt lat="45.95902" lon="4.5864">
        <ele>517</ele>
        <time>2017-05-05T09:57:00Z</time>
      </trkpt>
      <trkpt lat="45.95898" lon="4.58649">
        <ele>518</ele>
        <time>2017-05-05T09:57:02Z</time>
      </trkpt>
      <trkpt lat="45.95896" lon="4.58653">
        <ele>518</ele>
        <time>2017-05-05T09:57:03Z</time>
      </trkpt>
      <trkpt lat="45.9589" lon="4.58662">
        <ele>517</ele>
        <time>2017-05-05T09:57:05Z</time>
      </trkpt>
      <trkpt lat="45.95887" lon="4.58666">
        <ele>517</ele>
        <time>2017-05-05T09:57:06Z</time>
      </trkpt>
      <trkpt lat="45.95885" lon="4.58672">
        <ele>526</ele>
        <time>2017-05-05T09:57:07Z</time>
      </trkpt>
      <trkpt lat="45.95882" lon="4.58678">
        <ele>526</ele>
        <time>2017-05-05T09:57:08Z</time>
      </trkpt>
      <trkpt lat="45.95879" lon="4.58683">
        <ele>526</ele>
        <time>2017-05-05T09:57:09Z</time>
      </trkpt>
      <trkpt lat="45.95876" lon="4.58689">
        <ele>525</ele>
        <time>2017-05-05T09:57:10Z</time>
      </trkpt>
      <trkpt lat="45.95873" lon="4.58695">
        <ele>526</ele>
        <time>2017-05-05T09:57:11Z</time>
      </trkpt>
      <trkpt lat="45.9587" lon="4.587">
        <ele>526</ele>
        <time>2017-05-05T09:57:12Z</time>
      </trkpt>
      <trkpt lat="45.95865" lon="4.58709">
        <ele>526</ele>
        <time>2017-05-05T09:57:14Z</time>
      </trkpt>
      <trkpt lat="45.95862" lon="4.58713">
        <ele>526</ele>
        <time>2017-05-05T09:57:15Z</time>
      </trkpt>
      <trkpt lat="45.95857" lon="4.58721">
        <ele>526</ele>
        <time>2017-05-05T09:57:17Z</time>
      </trkpt>
      <trkpt lat="45.95854" lon="4.58724">
        <ele>526</ele>
        <time>2017-05-05T09:57:18Z</time>
      </trkpt>
      <trkpt lat="45.95848" lon="4.5873">
        <ele>526</ele>
        <time>2017-05-05T09:57:20Z</time>
      </trkpt>
      <trkpt lat="45.95845" lon="4.58733">
        <ele>526</ele>
        <time>2017-05-05T09:57:21Z</time>
      </trkpt>
      <trkpt lat="45.95838" lon="4.5874">
        <ele>525</ele>
        <time>2017-05-05T09:57:24Z</time>
      </trkpt>
      <trkpt lat="45.95835" lon="4.58742">
        <ele>525</ele>
        <time>2017-05-05T09:57:25Z</time>
      </trkpt>
      <trkpt lat="45.9583" lon="4.58747">
        <ele>521</ele>
        <time>2017-05-05T09:57:27Z</time>
      </trkpt>
      <trkpt lat="45.95827" lon="4.58749">
        <ele>521</ele>
        <time>2017-05-05T09:57:28Z</time>
      </trkpt>
      <trkpt lat="45.9582" lon="4.58754">
        <ele>525</ele>
        <time>2017-05-05T09:57:30Z</time>
      </trkpt>
      <trkpt lat="45.95817" lon="4.58757">
        <ele>525</ele>
        <time>2017-05-05T09:57:31Z</time>
      </trkpt>
      <trkpt lat="45.9581" lon="4.58762">
        <ele>525</ele>
        <time>2017-05-05T09:57:33Z</time>
      </trkpt>
      <trkpt lat="45.95806" lon="4.58765">
        <ele>525</ele>
        <time>2017-05-05T09:57:34Z</time>
      </trkpt>
      <trkpt lat="45.95799" lon="4.58771">
        <ele>525</ele>
        <time>2017-05-05T09:57:36Z</time>
      </trkpt>
      <trkpt lat="45.95795" lon="4.58773">
        <ele>525</ele>
        <time>2017-05-05T09:57:37Z</time>
      </trkpt>
      <trkpt lat="45.95786" lon="4.58778">
        <ele>524</ele>
        <time>2017-05-05T09:57:39Z</time>
      </trkpt>
      <trkpt lat="45.95782" lon="4.5878">
        <ele>524</ele>
        <time>2017-05-05T09:57:40Z</time>
      </trkpt>
      <trkpt lat="45.95778" lon="4.58782">
        <ele>524</ele>
        <time>2017-05-05T09:57:41Z</time>
      </trkpt>
      <trkpt lat="45.95774" lon="4.58784">
        <ele>524</ele>
        <time>2017-05-05T09:57:42Z</time>
      </trkpt>
      <trkpt lat="45.95765" lon="4.58789">
        <ele>524</ele>
        <time>2017-05-05T09:57:44Z</time>
      </trkpt>
      <trkpt lat="45.95761" lon="4.58791">
        <ele>524</ele>
        <time>2017-05-05T09:57:45Z</time>
      </trkpt>
      <trkpt lat="45.95757" lon="4.58794">
        <ele>524</ele>
        <time>2017-05-05T09:57:46Z</time>
      </trkpt>
      <trkpt lat="45.95752" lon="4.58796">
        <ele>525</ele>
        <time>2017-05-05T09:57:47Z</time>
      </trkpt>
      <trkpt lat="45.95748" lon="4.58799">
        <ele>518</ele>
        <time>2017-05-05T09:57:48Z</time>
      </trkpt>
      <trkpt lat="45.95744" lon="4.58802">
        <ele>518</ele>
        <time>2017-05-05T09:57:49Z</time>
      </trkpt>
      <trkpt lat="45.9574" lon="4.58805">
        <ele>518</ele>
        <time>2017-05-05T09:57:50Z</time>
      </trkpt>
      <trkpt lat="45.95736" lon="4.58808">
        <ele>518</ele>
        <time>2017-05-05T09:57:51Z</time>
      </trkpt>
      <trkpt lat="45.95732" lon="4.58812">
        <ele>519</ele>
        <time>2017-05-05T09:57:52Z</time>
      </trkpt>
      <trkpt lat="45.95728" lon="4.58816">
        <ele>519</ele>
        <time>2017-05-05T09:57:53Z</time>
      </trkpt>
      <trkpt lat="45.95724" lon="4.58821">
        <ele>519</ele>
        <time>2017-05-05T09:57:54Z</time>
      </trkpt>
      <trkpt lat="45.95719" lon="4.58825">
        <ele>518</ele>
        <time>2017-05-05T09:57:55Z</time>
      </trkpt>
      <trkpt lat="45.95715" lon="4.5883">
        <ele>518</ele>
        <time>2017-05-05T09:57:56Z</time>
      </trkpt>
      <trkpt lat="45.9571" lon="4.58834">
        <ele>530</ele>
        <time>2017-05-05T09:57:57Z</time>
      </trkpt>
      <trkpt lat="45.95705" lon="4.58838">
        <ele>529</ele>
        <time>2017-05-05T09:57:58Z</time>
      </trkpt>
      <trkpt lat="45.957" lon="4.58842">
        <ele>529</ele>
        <time>2017-05-05T09:57:59Z</time>
      </trkpt>
      <trkpt lat="45.95695" lon="4.58845">
        <ele>528</ele>
        <time>2017-05-05T09:58:00Z</time>
      </trkpt>
      <trkpt lat="45.95689" lon="4.58848">
        <ele>528</ele>
        <time>2017-05-05T09:58:01Z</time>
      </trkpt>
      <trkpt lat="45.95683" lon="4.58849">
        <ele>527</ele>
        <time>2017-05-05T09:58:02Z</time>
      </trkpt>
      <trkpt lat="45.95678" lon="4.58851">
        <ele>526</ele>
        <time>2017-05-05T09:58:03Z</time>
      </trkpt>
      <trkpt lat="45.95673" lon="4.58852">
        <ele>526</ele>
        <time>2017-05-05T09:58:04Z</time>
      </trkpt>
      <trkpt lat="45.95667" lon="4.58853">
        <ele>526</ele>
        <time>2017-05-05T09:58:05Z</time>
      </trkpt>
      <trkpt lat="45.95662" lon="4.58854">
        <ele>523</ele>
        <time>2017-05-05T09:58:06Z</time>
      </trkpt>
      <trkpt lat="45.95658" lon="4.58855">
        <ele>523</ele>
        <time>2017-05-05T09:58:07Z</time>
      </trkpt>
      <trkpt lat="45.95653" lon="4.58856">
        <ele>524</ele>
        <time>2017-05-05T09:58:08Z</time>
      </trkpt>
      <trkpt lat="45.95649" lon="4.58857">
        <ele>524</ele>
        <time>2017-05-05T09:58:09Z</time>
      </trkpt>
      <trkpt lat="45.9564" lon="4.58859">
        <ele>525</ele>
        <time>2017-05-05T09:58:11Z</time>
      </trkpt>
      <trkpt lat="45.95636" lon="4.5886">
        <ele>525</ele>
        <time>2017-05-05T09:58:12Z</time>
      </trkpt>
      <trkpt lat="45.95627" lon="4.58862">
        <ele>525</ele>
        <time>2017-05-05T09:58:14Z</time>
      </trkpt>
      <trkpt lat="45.95623" lon="4.58862">
        <ele>525</ele>
        <time>2017-05-05T09:58:15Z</time>
      </trkpt>
      <trkpt lat="45.95618" lon="4.58863">
        <ele>525</ele>
        <time>2017-05-05T09:58:16Z</time>
      </trkpt>
      <trkpt lat="45.95614" lon="4.58864">
        <ele>525</ele>
        <time>2017-05-05T09:58:17Z</time>
      </trkpt>
      <trkpt lat="45.95605" lon="4.58865">
        <ele>525</ele>
        <time>2017-05-05T09:58:19Z</time>
      </trkpt>
      <trkpt lat="45.95601" lon="4.58865">
        <ele>525</ele>
        <time>2017-05-05T09:58:20Z</time>
      </trkpt>
      <trkpt lat="45.95592" lon="4.58865">
        <ele>525</ele>
        <time>2017-05-05T09:58:22Z</time>
      </trkpt>
      <trkpt lat="45.95588" lon="4.58865">
        <ele>525</ele>
        <time>2017-05-05T09:58:23Z</time>
      </trkpt>
      <trkpt lat="45.9558" lon="4.58865">
        <ele>526</ele>
        <time>2017-05-05T09:58:25Z</time>
      </trkpt>
      <trkpt lat="45.95576" lon="4.58865">
        <ele>526</ele>
        <time>2017-05-05T09:58:26Z</time>
      </trkpt>
      <trkpt lat="45.95567" lon="4.58864">
        <ele>526</ele>
        <time>2017-05-05T09:58:28Z</time>
      </trkpt>
      <trkpt lat="45.95563" lon="4.58864">
        <ele>526</ele>
        <time>2017-05-05T09:58:29Z</time>
      </trkpt>
      <trkpt lat="45.95558" lon="4.58863">
        <ele>527</ele>
        <time>2017-05-05T09:58:30Z</time>
      </trkpt>
      <trkpt lat="45.95553" lon="4.58862">
        <ele>527</ele>
        <time>2017-05-05T09:58:31Z</time>
      </trkpt>
      <trkpt lat="45.95548" lon="4.5886">
        <ele>527</ele>
        <time>2017-05-05T09:58:32Z</time>
      </trkpt>
      <trkpt lat="45.95543" lon="4.58858">
        <ele>527</ele>
        <time>2017-05-05T09:58:33Z</time>
      </trkpt>
      <trkpt lat="45.95538" lon="4.58857">
        <ele>527</ele>
        <time>2017-05-05T09:58:34Z</time>
      </trkpt>
      <trkpt lat="45.95534" lon="4.58854">
        <ele>527</ele>
        <time>2017-05-05T09:58:35Z</time>
      </trkpt>
      <trkpt lat="45.95527" lon="4.58847">
        <ele>527</ele>
        <time>2017-05-05T09:58:37Z</time>
      </trkpt>
      <trkpt lat="45.95524" lon="4.58843">
        <ele>527</ele>
        <time>2017-05-05T09:58:38Z</time>
      </trkpt>
      <trkpt lat="45.9552" lon="4.58838">
        <ele>527</ele>
        <time>2017-05-05T09:58:39Z</time>
      </trkpt>
      <trkpt lat="45.95516" lon="4.58832">
        <ele>522</ele>
        <time>2017-05-05T09:58:40Z</time>
      </trkpt>
      <trkpt lat="45.95513" lon="4.58827">
        <ele>522</ele>
        <time>2017-05-05T09:58:41Z</time>
      </trkpt>
      <trkpt lat="45.95509" lon="4.58821">
        <ele>522</ele>
        <time>2017-05-05T09:58:42Z</time>
      </trkpt>
      <trkpt lat="45.95507" lon="4.58815">
        <ele>521</ele>
        <time>2017-05-05T09:58:43Z</time>
      </trkpt>
      <trkpt lat="45.95504" lon="4.58808">
        <ele>521</ele>
        <time>2017-05-05T09:58:44Z</time>
      </trkpt>
      <trkpt lat="45.95501" lon="4.58801">
        <ele>520</ele>
        <time>2017-05-05T09:58:45Z</time>
      </trkpt>
      <trkpt lat="45.95498" lon="4.58794">
        <ele>528</ele>
        <time>2017-05-05T09:58:46Z</time>
      </trkpt>
      <trkpt lat="45.95496" lon="4.58787">
        <ele>528</ele>
        <time>2017-05-05T09:58:47Z</time>
      </trkpt>
      <trkpt lat="45.95494" lon="4.5878">
        <ele>527</ele>
        <time>2017-05-05T09:58:48Z</time>
      </trkpt>
      <trkpt lat="45.95493" lon="4.58773">
        <ele>526</ele>
        <time>2017-05-05T09:58:49Z</time>
      </trkpt>
      <trkpt lat="45.95492" lon="4.58766">
        <ele>525</ele>
        <time>2017-05-05T09:58:50Z</time>
      </trkpt>
      <trkpt lat="45.95492" lon="4.58759">
        <ele>524</ele>
        <time>2017-05-05T09:58:51Z</time>
      </trkpt>
      <trkpt lat="45.95492" lon="4.58752">
        <ele>523</ele>
        <time>2017-05-05T09:58:52Z</time>
      </trkpt>
      <trkpt lat="45.95493" lon="4.5874">
        <ele>522</ele>
        <time>2017-05-05T09:58:54Z</time>
      </trkpt>
      <trkpt lat="45.95494" lon="4.58734">
        <ele>523</ele>
        <time>2017-05-05T09:58:55Z</time>
      </trkpt>
      <trkpt lat="45.95494" lon="4.58727">
        <ele>523</ele>
        <time>2017-05-05T09:58:56Z</time>
      </trkpt>
      <trkpt lat="45.95495" lon="4.5872">
        <ele>523</ele>
        <time>2017-05-05T09:58:57Z</time>
      </trkpt>
      <trkpt lat="45.95494" lon="4.58713">
        <ele>523</ele>
        <time>2017-05-05T09:58:58Z</time>
      </trkpt>
      <trkpt lat="45.95494" lon="4.58705">
        <ele>523</ele>
        <time>2017-05-05T09:58:59Z</time>
      </trkpt>
      <trkpt lat="45.95494" lon="4.58698">
        <ele>523</ele>
        <time>2017-05-05T09:59:00Z</time>
      </trkpt>
      <trkpt lat="45.95493" lon="4.5869">
        <ele>522</ele>
        <time>2017-05-05T09:59:01Z</time>
      </trkpt>
      <trkpt lat="45.95493" lon="4.58683">
        <ele>521</ele>
        <time>2017-05-05T09:59:02Z</time>
      </trkpt>
      <trkpt lat="45.95492" lon="4.58675">
        <ele>519</ele>
        <time>2017-05-05T09:59:03Z</time>
      </trkpt>
      <trkpt lat="45.95491" lon="4.58667">
        <ele>519</ele>
        <time>2017-05-05T09:59:04Z</time>
      </trkpt>
      <trkpt lat="45.9549" lon="4.58659">
        <ele>518</ele>
        <time>2017-05-05T09:59:05Z</time>
      </trkpt>
      <trkpt lat="45.95489" lon="4.58652">
        <ele>519</ele>
        <time>2017-05-05T09:59:06Z</time>
      </trkpt>
      <trkpt lat="45.95488" lon="4.58644">
        <ele>520</ele>
        <time>2017-05-05T09:59:07Z</time>
      </trkpt>
      <trkpt lat="45.95486" lon="4.58637">
        <ele>521</ele>
        <time>2017-05-05T09:59:08Z</time>
      </trkpt>
      <trkpt lat="45.95485" lon="4.58631">
        <ele>521</ele>
        <time>2017-05-05T09:59:09Z</time>
      </trkpt>
      <trkpt lat="45.95484" lon="4.58624">
        <ele>521</ele>
        <time>2017-05-05T09:59:10Z</time>
      </trkpt>
      <trkpt lat="45.95483" lon="4.58618">
        <ele>521</ele>
        <time>2017-05-05T09:59:11Z</time>
      </trkpt>
      <trkpt lat="45.95482" lon="4.58612">
        <ele>520</ele>
        <time>2017-05-05T09:59:12Z</time>
      </trkpt>
      <trkpt lat="45.9548" lon="4.58606">
        <ele>520</ele>
        <time>2017-05-05T09:59:13Z</time>
      </trkpt>
      <trkpt lat="45.95477" lon="4.58594">
        <ele>520</ele>
        <time>2017-05-05T09:59:15Z</time>
      </trkpt>
      <trkpt lat="45.95475" lon="4.58588">
        <ele>520</ele>
        <time>2017-05-05T09:59:16Z</time>
      </trkpt>
      <trkpt lat="45.95471" lon="4.58576">
        <ele>518</ele>
        <time>2017-05-05T09:59:18Z</time>
      </trkpt>
      <trkpt lat="45.9547" lon="4.5857">
        <ele>518</ele>
        <time>2017-05-05T09:59:19Z</time>
      </trkpt>
      <trkpt lat="45.95468" lon="4.58564">
        <ele>518</ele>
        <time>2017-05-05T09:59:20Z</time>
      </trkpt>
      <trkpt lat="45.95465" lon="4.58558">
        <ele>519</ele>
        <time>2017-05-05T09:59:21Z</time>
      </trkpt>
      <trkpt lat="45.95463" lon="4.58551">
        <ele>519</ele>
        <time>2017-05-05T09:59:22Z</time>
      </trkpt>
      <trkpt lat="45.9546" lon="4.58544">
        <ele>519</ele>
        <time>2017-05-05T09:59:23Z</time>
      </trkpt>
      <trkpt lat="45.95456" lon="4.58537">
        <ele>519</ele>
        <time>2017-05-05T09:59:24Z</time>
      </trkpt>
      <trkpt lat="45.95452" lon="4.58531">
        <ele>519</ele>
        <time>2017-05-05T09:59:25Z</time>
      </trkpt>
      <trkpt lat="45.95448" lon="4.58523">
        <ele>520</ele>
        <time>2017-05-05T09:59:26Z</time>
      </trkpt>
      <trkpt lat="45.95443" lon="4.58516">
        <ele>521</ele>
        <time>2017-05-05T09:59:27Z</time>
      </trkpt>
      <trkpt lat="45.95438" lon="4.58509">
        <ele>522</ele>
        <time>2017-05-05T09:59:28Z</time>
      </trkpt>
      <trkpt lat="45.95434" lon="4.58503">
        <ele>523</ele>
        <time>2017-05-05T09:59:29Z</time>
      </trkpt>
      <trkpt lat="45.95429" lon="4.58498">
        <ele>519</ele>
        <time>2017-05-05T09:59:30Z</time>
      </trkpt>
      <trkpt lat="45.95424" lon="4.58492">
        <ele>520</ele>
        <time>2017-05-05T09:59:31Z</time>
      </trkpt>
      <trkpt lat="45.9542" lon="4.58487">
        <ele>519</ele>
        <time>2017-05-05T09:59:32Z</time>
      </trkpt>
      <trkpt lat="45.95415" lon="4.58483">
        <ele>526</ele>
        <time>2017-05-05T09:59:33Z</time>
      </trkpt>
      <trkpt lat="45.95412" lon="4.58478">
        <ele>525</ele>
        <time>2017-05-05T09:59:34Z</time>
      </trkpt>
      <trkpt lat="45.95408" lon="4.58473">
        <ele>525</ele>
        <time>2017-05-05T09:59:35Z</time>
      </trkpt>
      <trkpt lat="45.95404" lon="4.58469">
        <ele>524</ele>
        <time>2017-05-05T09:59:36Z</time>
      </trkpt>
      <trkpt lat="45.95401" lon="4.58465">
        <ele>524</ele>
        <time>2017-05-05T09:59:37Z</time>
      </trkpt>
      <trkpt lat="45.95394" lon="4.58457">
        <ele>524</ele>
        <time>2017-05-05T09:59:39Z</time>
      </trkpt>
      <trkpt lat="45.95391" lon="4.58454">
        <ele>523</ele>
        <time>2017-05-05T09:59:40Z</time>
      </trkpt>
      <trkpt lat="45.95384" lon="4.58447">
        <ele>523</ele>
        <time>2017-05-05T09:59:42Z</time>
      </trkpt>
      <trkpt lat="45.9538" lon="4.58443">
        <ele>523</ele>
        <time>2017-05-05T09:59:43Z</time>
      </trkpt>
      <trkpt lat="45.95374" lon="4.58436">
        <ele>523</ele>
        <time>2017-05-05T09:59:45Z</time>
      </trkpt>
      <trkpt lat="45.95371" lon="4.58432">
        <ele>523</ele>
        <time>2017-05-05T09:59:46Z</time>
      </trkpt>
      <trkpt lat="45.95367" lon="4.58428">
        <ele>524</ele>
        <time>2017-05-05T09:59:47Z</time>
      </trkpt>
      <trkpt lat="45.95363" lon="4.58425">
        <ele>524</ele>
        <time>2017-05-05T09:59:48Z</time>
      </trkpt>
      <trkpt lat="45.95359" lon="4.58421">
        <ele>524</ele>
        <time>2017-05-05T09:59:49Z</time>
      </trkpt>
      <trkpt lat="45.95355" lon="4.58417">
        <ele>524</ele>
        <time>2017-05-05T09:59:50Z</time>
      </trkpt>
      <trkpt lat="45.95351" lon="4.58413">
        <ele>519</ele>
        <time>2017-05-05T09:59:51Z</time>
      </trkpt>
      <trkpt lat="45.95346" lon="4.58409">
        <ele>519</ele>
        <time>2017-05-05T09:59:52Z</time>
      </trkpt>
      <trkpt lat="45.95342" lon="4.58404">
        <ele>519</ele>
        <time>2017-05-05T09:59:53Z</time>
      </trkpt>
      <trkpt lat="45.95338" lon="4.584">
        <ele>519</ele>
        <time>2017-05-05T09:59:54Z</time>
      </trkpt>
      <trkpt lat="45.95334" lon="4.58396">
        <ele>518</ele>
        <time>2017-05-05T09:59:55Z</time>
      </trkpt>
      <trkpt lat="45.9533" lon="4.58392">
        <ele>523</ele>
        <time>2017-05-05T09:59:56Z</time>
      </trkpt>
      <trkpt lat="45.95326" lon="4.58388">
        <ele>523</ele>
        <time>2017-05-05T09:59:57Z</time>
      </trkpt>
      <trkpt lat="45.95322" lon="4.58385">
        <ele>523</ele>
        <time>2017-05-05T09:59:58Z</time>
      </trkpt>
      <trkpt lat="45.95315" lon="4.58379">
        <ele>522</ele>
        <time>2017-05-05T10:00:00Z</time>
      </trkpt>
      <trkpt lat="45.95311" lon="4.58377">
        <ele>522</ele>
        <time>2017-05-05T10:00:01Z</time>
      </trkpt>
      <trkpt lat="45.95304" lon="4.58371">
        <ele>522</ele>
        <time>2017-05-05T10:00:03Z</time>
      </trkpt>
      <trkpt lat="45.95301" lon="4.58368">
        <ele>522</ele>
        <time>2017-05-05T10:00:04Z</time>
      </trkpt>
      <trkpt lat="45.95293" lon="4.58363">
        <ele>522</ele>
        <time>2017-05-05T10:00:06Z</time>
      </trkpt>
      <trkpt lat="45.95289" lon="4.58361">
        <ele>522</ele>
        <time>2017-05-05T10:00:07Z</time>
      </trkpt>
      <trkpt lat="45.95281" lon="4.58356">
        <ele>522</ele>
        <time>2017-05-05T10:00:09Z</time>
      </trkpt>
      <trkpt lat="45.95277" lon="4.58354">
        <ele>522</ele>
        <time>2017-05-05T10:00:10Z</time>
      </trkpt>
      <trkpt lat="45.95272" lon="4.58351">
        <ele>522</ele>
        <time>2017-05-05T10:00:11Z</time>
      </trkpt>
      <trkpt lat="45.95268" lon="4.58349">
        <ele>522</ele>
        <time>2017-05-05T10:00:12Z</time>
      </trkpt>
      <trkpt lat="45.95263" lon="4.58347">
        <ele>522</ele>
        <time>2017-05-05T10:00:13Z</time>
      </trkpt>
      <trkpt lat="45.95258" lon="4.58345">
        <ele>522</ele>
        <time>2017-05-05T10:00:14Z</time>
      </trkpt>
      <trkpt lat="45.95253" lon="4.58342">
        <ele>522</ele>
        <time>2017-05-05T10:00:15Z</time>
      </trkpt>
      <trkpt lat="45.95248" lon="4.5834">
        <ele>523</ele>
        <time>2017-05-05T10:00:16Z</time>
      </trkpt>
      <trkpt lat="45.95243" lon="4.58338">
        <ele>524</ele>
        <time>2017-05-05T10:00:17Z</time>
      </trkpt>
      <trkpt lat="45.95237" lon="4.58336">
        <ele>525</ele>
        <time>2017-05-05T10:00:18Z</time>
      </trkpt>
      <trkpt lat="45.95232" lon="4.58335">
        <ele>526</ele>
        <time>2017-05-05T10:00:19Z</time>
      </trkpt>
      <trkpt lat="45.95227" lon="4.58333">
        <ele>519</ele>
        <time>2017-05-05T10:00:20Z</time>
      </trkpt>
      <trkpt lat="45.95222" lon="4.58332">
        <ele>519</ele>
        <time>2017-05-05T10:00:21Z</time>
      </trkpt>
      <trkpt lat="45.95217" lon="4.5833">
        <ele>519</ele>
        <time>2017-05-05T10:00:22Z</time>
      </trkpt>
      <trkpt lat="45.95213" lon="4.58329">
        <ele>519</ele>
        <time>2017-05-05T10:00:23Z</time>
      </trkpt>
      <trkpt lat="45.95208" lon="4.58327">
        <ele>519</ele>
        <time>2017-05-05T10:00:24Z</time>
      </trkpt>
      <trkpt lat="45.95203" lon="4.58327">
        <ele>519</ele>
        <time>2017-05-05T10:00:25Z</time>
      </trkpt>
      <trkpt lat="45.95199" lon="4.58326">
        <ele>520</ele>
        <time>2017-05-05T10:00:26Z</time>
      </trkpt>
      <trkpt lat="45.95194" lon="4.58324">
        <ele>520</ele>
        <time>2017-05-05T10:00:27Z</time>
      </trkpt>
      <trkpt lat="45.9519" lon="4.58324">
        <ele>520</ele>
        <time>2017-05-05T10:00:28Z</time>
      </trkpt>
      <trkpt lat="45.95181" lon="4.58321">
        <ele>521</ele>
        <time>2017-05-05T10:00:30Z</time>
      </trkpt>
      <trkpt lat="45.95176" lon="4.5832">
        <ele>522</ele>
        <time>2017-05-05T10:00:31Z</time>
      </trkpt>
      <trkpt lat="45.95171" lon="4.58319">
        <ele>522</ele>
        <time>2017-05-05T10:00:32Z</time>
      </trkpt>
      <trkpt lat="45.95165" lon="4.58319">
        <ele>523</ele>
        <time>2017-05-05T10:00:33Z</time>
      </trkpt>
      <trkpt lat="45.95159" lon="4.58318">
        <ele>523</ele>
        <time>2017-05-05T10:00:34Z</time>
      </trkpt>
      <trkpt lat="45.95154" lon="4.58317">
        <ele>523</ele>
        <time>2017-05-05T10:00:35Z</time>
      </trkpt>
      <trkpt lat="45.95148" lon="4.58317">
        <ele>522</ele>
        <time>2017-05-05T10:00:36Z</time>
      </trkpt>
      <trkpt lat="45.95143" lon="4.58316">
        <ele>522</ele>
        <time>2017-05-05T10:00:37Z</time>
      </trkpt>
      <trkpt lat="45.95137" lon="4.58315">
        <ele>522</ele>
        <time>2017-05-05T10:00:38Z</time>
      </trkpt>
      <trkpt lat="45.95132" lon="4.58315">
        <ele>522</ele>
        <time>2017-05-05T10:00:39Z</time>
      </trkpt>
      <trkpt lat="45.95127" lon="4.58314">
        <ele>521</ele>
        <time>2017-05-05T10:00:40Z</time>
      </trkpt>
      <trkpt lat="45.95122" lon="4.58314">
        <ele>521</ele>
        <time>2017-05-05T10:00:41Z</time>
      </trkpt>
      <trkpt lat="45.95118" lon="4.58313">
        <ele>521</ele>
        <time>2017-05-05T10:00:42Z</time>
      </trkpt>
      <trkpt lat="45.95113" lon="4.58313">
        <ele>522</ele>
        <time>2017-05-05T10:00:43Z</time>
      </trkpt>
      <trkpt lat="45.95108" lon="4.58312">
        <ele>522</ele>
        <time>2017-05-05T10:00:44Z</time>
      </trkpt>
      <trkpt lat="45.95104" lon="4.58312">
        <ele>522</ele>
        <time>2017-05-05T10:00:45Z</time>
      </trkpt>
      <trkpt lat="45.95095" lon="4.58311">
        <ele>522</ele>
        <time>2017-05-05T10:00:47Z</time>
      </trkpt>
      <trkpt lat="45.95091" lon="4.5831">
        <ele>522</ele>
        <time>2017-05-05T10:00:48Z</time>
      </trkpt>
      <trkpt lat="45.95086" lon="4.5831">
        <ele>522</ele>
        <time>2017-05-05T10:00:49Z</time>
      </trkpt>
      <trkpt lat="45.95081" lon="4.58309">
        <ele>523</ele>
        <time>2017-05-05T10:00:50Z</time>
      </trkpt>
      <trkpt lat="45.95076" lon="4.58308">
        <ele>523</ele>
        <time>2017-05-05T10:00:51Z</time>
      </trkpt>
      <trkpt lat="45.95071" lon="4.58308">
        <ele>523</ele>
        <time>2017-05-05T10:00:52Z</time>
      </trkpt>
      <trkpt lat="45.95066" lon="4.58307">
        <ele>523</ele>
        <time>2017-05-05T10:00:53Z</time>
      </trkpt>
      <trkpt lat="45.95061" lon="4.58307">
        <ele>523</ele>
        <time>2017-05-05T10:00:54Z</time>
      </trkpt>
      <trkpt lat="45.95055" lon="4.58307">
        <ele>523</ele>
        <time>2017-05-05T10:00:55Z</time>
      </trkpt>
      <trkpt lat="45.9505" lon="4.58307">
        <ele>523</ele>
        <time>2017-05-05T10:00:56Z</time>
      </trkpt>
      <trkpt lat="45.95045" lon="4.58306">
        <ele>523</ele>
        <time>2017-05-05T10:00:57Z</time>
      </trkpt>
      <trkpt lat="45.95041" lon="4.58305">
        <ele>523</ele>
        <time>2017-05-05T10:00:58Z</time>
      </trkpt>
      <trkpt lat="45.95036" lon="4.58305">
        <ele>523</ele>
        <time>2017-05-05T10:00:59Z</time>
      </trkpt>
      <trkpt lat="45.95031" lon="4.58304">
        <ele>523</ele>
        <time>2017-05-05T10:01:00Z</time>
      </trkpt>
      <trkpt lat="45.95023" lon="4.58302">
        <ele>523</ele>
        <time>2017-05-05T10:01:02Z</time>
      </trkpt>
      <trkpt lat="45.95018" lon="4.58302">
        <ele>523</ele>
        <time>2017-05-05T10:01:03Z</time>
      </trkpt>
      <trkpt lat="45.95013" lon="4.58301">
        <ele>523</ele>
        <time>2017-05-05T10:01:04Z</time>
      </trkpt>
      <trkpt lat="45.95009" lon="4.58301">
        <ele>523</ele>
        <time>2017-05-05T10:01:05Z</time>
      </trkpt>
      <trkpt lat="45.95" lon="4.58299">
        <ele>523</ele>
        <time>2017-05-05T10:01:07Z</time>
      </trkpt>
      <trkpt lat="45.94996" lon="4.58299">
        <ele>524</ele>
        <time>2017-05-05T10:01:08Z</time>
      </trkpt>
      <trkpt lat="45.94991" lon="4.58298">
        <ele>523</ele>
        <time>2017-05-05T10:01:09Z</time>
      </trkpt>
      <trkpt lat="45.94986" lon="4.58298">
        <ele>523</ele>
        <time>2017-05-05T10:01:10Z</time>
      </trkpt>
      <trkpt lat="45.94982" lon="4.58297">
        <ele>523</ele>
        <time>2017-05-05T10:01:11Z</time>
      </trkpt>
      <trkpt lat="45.94977" lon="4.58297">
        <ele>523</ele>
        <time>2017-05-05T10:01:12Z</time>
      </trkpt>
      <trkpt lat="45.94968" lon="4.58298">
        <ele>523</ele>
        <time>2017-05-05T10:01:14Z</time>
      </trkpt>
      <trkpt lat="45.94964" lon="4.58299">
        <ele>524</ele>
        <time>2017-05-05T10:01:15Z</time>
      </trkpt>
      <trkpt lat="45.94956" lon="4.58301">
        <ele>524</ele>
        <time>2017-05-05T10:01:17Z</time>
      </trkpt>
      <trkpt lat="45.94951" lon="4.58301">
        <ele>524</ele>
        <time>2017-05-05T10:01:18Z</time>
      </trkpt>
      <trkpt lat="45.94946" lon="4.58303">
        <ele>524</ele>
        <time>2017-05-05T10:01:19Z</time>
      </trkpt>
      <trkpt lat="45.94942" lon="4.58305">
        <ele>524</ele>
        <time>2017-05-05T10:01:20Z</time>
      </trkpt>
      <trkpt lat="45.94938" lon="4.58307">
        <ele>524</ele>
        <time>2017-05-05T10:01:21Z</time>
      </trkpt>
      <trkpt lat="45.94933" lon="4.58309">
        <ele>524</ele>
        <time>2017-05-05T10:01:22Z</time>
      </trkpt>
      <trkpt lat="45.94926" lon="4.58315">
        <ele>525</ele>
        <time>2017-05-05T10:01:24Z</time>
      </trkpt>
      <trkpt lat="45.94922" lon="4.58318">
        <ele>525</ele>
        <time>2017-05-05T10:01:25Z</time>
      </trkpt>
      <trkpt lat="45.94916" lon="4.58322">
        <ele>527</ele>
        <time>2017-05-05T10:01:27Z</time>
      </trkpt>
      <trkpt lat="45.94912" lon="4.58323">
        <ele>527</ele>
        <time>2017-05-05T10:01:28Z</time>
      </trkpt>
      <trkpt lat="45.94904" lon="4.58326">
        <ele>528</ele>
        <time>2017-05-05T10:01:31Z</time>
      </trkpt>
      <trkpt lat="45.949" lon="4.58324">
        <ele>528</ele>
        <time>2017-05-05T10:01:32Z</time>
      </trkpt>
      <trkpt lat="45.94895" lon="4.58316">
        <ele>528</ele>
        <time>2017-05-05T10:01:34Z</time>
      </trkpt>
      <trkpt lat="45.94893" lon="4.58311">
        <ele>528</ele>
        <time>2017-05-05T10:01:35Z</time>
      </trkpt>
      <trkpt lat="45.94892" lon="4.583">
        <ele>528</ele>
        <time>2017-05-05T10:01:37Z</time>
      </trkpt>
      <trkpt lat="45.94892" lon="4.58295">
        <ele>528</ele>
        <time>2017-05-05T10:01:38Z</time>
      </trkpt>
      <trkpt lat="45.9489" lon="4.58283">
        <ele>528</ele>
        <time>2017-05-05T10:01:40Z</time>
      </trkpt>
      <trkpt lat="45.94889" lon="4.58277">
        <ele>528</ele>
        <time>2017-05-05T10:01:41Z</time>
      </trkpt>
      <trkpt lat="45.94887" lon="4.58264">
        <ele>527</ele>
        <time>2017-05-05T10:01:43Z</time>
      </trkpt>
      <trkpt lat="45.94887" lon="4.58259">
        <ele>527</ele>
        <time>2017-05-05T10:01:44Z</time>
      </trkpt>
      <trkpt lat="45.94888" lon="4.58247">
        <ele>524</ele>
        <time>2017-05-05T10:01:47Z</time>
      </trkpt>
      <trkpt lat="45.94887" lon="4.58243">
        <ele>524</ele>
        <time>2017-05-05T10:01:48Z</time>
      </trkpt>
      <trkpt lat="45.94885" lon="4.58233">
        <ele>523</ele>
        <time>2017-05-05T10:01:50Z</time>
      </trkpt>
      <trkpt lat="45.94884" lon="4.58229">
        <ele>523</ele>
        <time>2017-05-05T10:01:51Z</time>
      </trkpt>
      <trkpt lat="45.94882" lon="4.58218">
        <ele>523</ele>
        <time>2017-05-05T10:01:53Z</time>
      </trkpt>
      <trkpt lat="45.9488" lon="4.58213">
        <ele>523</ele>
        <time>2017-05-05T10:01:54Z</time>
      </trkpt>
      <trkpt lat="45.94878" lon="4.58202">
        <ele>522</ele>
        <time>2017-05-05T10:01:56Z</time>
      </trkpt>
      <trkpt lat="45.94877" lon="4.58197">
        <ele>522</ele>
        <time>2017-05-05T10:01:57Z</time>
      </trkpt>
      <trkpt lat="45.94874" lon="4.58185">
        <ele>522</ele>
        <time>2017-05-05T10:01:59Z</time>
      </trkpt>
      <trkpt lat="45.94873" lon="4.58178">
        <ele>522</ele>
        <time>2017-05-05T10:02:00Z</time>
      </trkpt>
      <trkpt lat="45.9487" lon="4.58171">
        <ele>522</ele>
        <time>2017-05-05T10:02:01Z</time>
      </trkpt>
      <trkpt lat="45.94868" lon="4.58165">
        <ele>513</ele>
        <time>2017-05-05T10:02:02Z</time>
      </trkpt>
      <trkpt lat="45.94866" lon="4.58159">
        <ele>513</ele>
        <time>2017-05-05T10:02:03Z</time>
      </trkpt>
      <trkpt lat="45.94863" lon="4.58154">
        <ele>514</ele>
        <time>2017-05-05T10:02:04Z</time>
      </trkpt>
      <trkpt lat="45.94857" lon="4.58146">
        <ele>514</ele>
        <time>2017-05-05T10:02:06Z</time>
      </trkpt>
      <trkpt lat="45.94855" lon="4.58144">
        <ele>514</ele>
        <time>2017-05-05T10:02:07Z</time>
      </trkpt>
      <trkpt lat="45.94854" lon="4.58142">
        <ele>513</ele>
        <time>2017-05-05T10:02:08Z</time>
      </trkpt>
      <trkpt lat="45.94853" lon="4.58142">
        <ele>514</ele>
        <time>2017-05-05T10:02:09Z</time>
      </trkpt>
      <trkpt lat="45.94853" lon="4.58142">
        <ele>514</ele>
        <time>2017-05-05T10:02:47Z</time>
      </trkpt>
      <trkpt lat="45.94852" lon="4.58141">
        <ele>513</ele>
        <time>2017-05-05T10:02:48Z</time>
      </trkpt>
      <trkpt lat="45.94846" lon="4.58133">
        <ele>513</ele>
        <time>2017-05-05T10:07:56Z</time>
      </trkpt>
      <trkpt lat="45.94845" lon="4.58131">
        <ele>513</ele>
        <time>2017-05-05T10:07:57Z</time>
      </trkpt>
      <trkpt lat="45.94838" lon="4.58129">
        <ele>513</ele>
        <time>2017-05-05T10:08:01Z</time>
      </trkpt>
      <trkpt lat="45.94835" lon="4.58129">
        <ele>513</ele>
        <time>2017-05-05T10:08:02Z</time>
      </trkpt>
      <trkpt lat="45.94828" lon="4.58124">
        <ele>518</ele>
        <time>2017-05-05T10:08:05Z</time>
      </trkpt>
      <trkpt lat="45.94825" lon="4.58122">
        <ele>517</ele>
        <time>2017-05-05T10:08:06Z</time>
      </trkpt>
      <trkpt lat="45.9482" lon="4.58119">
        <ele>517</ele>
        <time>2017-05-05T10:08:07Z</time>
      </trkpt>
      <trkpt lat="45.94815" lon="4.58117">
        <ele>517</ele>
        <time>2017-05-05T10:08:08Z</time>
      </trkpt>
      <trkpt lat="45.94808" lon="4.58115">
        <ele>517</ele>
        <time>2017-05-05T10:08:09Z</time>
      </trkpt>
      <trkpt lat="45.94802" lon="4.58114">
        <ele>517</ele>
        <time>2017-05-05T10:08:10Z</time>
      </trkpt>
      <trkpt lat="45.94794" lon="4.58112">
        <ele>517</ele>
        <time>2017-05-05T10:08:11Z</time>
      </trkpt>
      <trkpt lat="45.94787" lon="4.58109">
        <ele>516</ele>
        <time>2017-05-05T10:08:12Z</time>
      </trkpt>
      <trkpt lat="45.94779" lon="4.58107">
        <ele>516</ele>
        <time>2017-05-05T10:08:13Z</time>
      </trkpt>
      <trkpt lat="45.94771" lon="4.58105">
        <ele>516</ele>
        <time>2017-05-05T10:08:14Z</time>
      </trkpt>
      <trkpt lat="45.94763" lon="4.58103">
        <ele>515</ele>
        <time>2017-05-05T10:08:15Z</time>
      </trkpt>
      <trkpt lat="45.94755" lon="4.58101">
        <ele>514</ele>
        <time>2017-05-05T10:08:16Z</time>
      </trkpt>
      <trkpt lat="45.94748" lon="4.581">
        <ele>512</ele>
        <time>2017-05-05T10:08:17Z</time>
      </trkpt>
      <trkpt lat="45.94739" lon="4.581">
        <ele>512</ele>
        <time>2017-05-05T10:08:18Z</time>
      </trkpt>
      <trkpt lat="45.94731" lon="4.581">
        <ele>512</ele>
        <time>2017-05-05T10:08:19Z</time>
      </trkpt>
      <trkpt lat="45.94722" lon="4.58101">
        <ele>512</ele>
        <time>2017-05-05T10:08:20Z</time>
      </trkpt>
      <trkpt lat="45.94713" lon="4.58102">
        <ele>512</ele>
        <time>2017-05-05T10:08:21Z</time>
      </trkpt>
      <trkpt lat="45.94704" lon="4.58104">
        <ele>511</ele>
        <time>2017-05-05T10:08:22Z</time>
      </trkpt>
      <trkpt lat="45.94695" lon="4.58105">
        <ele>510</ele>
        <time>2017-05-05T10:08:23Z</time>
      </trkpt>
      <trkpt lat="45.94685" lon="4.58107">
        <ele>510</ele>
        <time>2017-05-05T10:08:24Z</time>
      </trkpt>
      <trkpt lat="45.94676" lon="4.5811">
        <ele>509</ele>
        <time>2017-05-05T10:08:25Z</time>
      </trkpt>
      <trkpt lat="45.94666" lon="4.58114">
        <ele>504</ele>
        <time>2017-05-05T10:08:26Z</time>
      </trkpt>
      <trkpt lat="45.94656" lon="4.58118">
        <ele>504</ele>
        <time>2017-05-05T10:08:27Z</time>
      </trkpt>
      <trkpt lat="45.94646" lon="4.58123">
        <ele>504</ele>
        <time>2017-05-05T10:08:28Z</time>
      </trkpt>
      <trkpt lat="45.94636" lon="4.58127">
        <ele>504</ele>
        <time>2017-05-05T10:08:29Z</time>
      </trkpt>
      <trkpt lat="45.94625" lon="4.58131">
        <ele>504</ele>
        <time>2017-05-05T10:08:30Z</time>
      </trkpt>
      <trkpt lat="45.94615" lon="4.58135">
        <ele>503</ele>
        <time>2017-05-05T10:08:31Z</time>
      </trkpt>
      <trkpt lat="45.94605" lon="4.58139">
        <ele>503</ele>
        <time>2017-05-05T10:08:32Z</time>
      </trkpt>
      <trkpt lat="45.94594" lon="4.58143">
        <ele>503</ele>
        <time>2017-05-05T10:08:33Z</time>
      </trkpt>
      <trkpt lat="45.94584" lon="4.58147">
        <ele>503</ele>
        <time>2017-05-05T10:08:34Z</time>
      </trkpt>
      <trkpt lat="45.94573" lon="4.5815">
        <ele>499</ele>
        <time>2017-05-05T10:08:35Z</time>
      </trkpt>
      <trkpt lat="45.94563" lon="4.58154">
        <ele>499</ele>
        <time>2017-05-05T10:08:36Z</time>
      </trkpt>
      <trkpt lat="45.94552" lon="4.58157">
        <ele>498</ele>
        <time>2017-05-05T10:08:37Z</time>
      </trkpt>
      <trkpt lat="45.94542" lon="4.5816">
        <ele>497</ele>
        <time>2017-05-05T10:08:38Z</time>
      </trkpt>
      <trkpt lat="45.94531" lon="4.58161">
        <ele>496</ele>
        <time>2017-05-05T10:08:39Z</time>
      </trkpt>
      <trkpt lat="45.9452" lon="4.58162">
        <ele>496</ele>
        <time>2017-05-05T10:08:40Z</time>
      </trkpt>
      <trkpt lat="45.9451" lon="4.58162">
        <ele>496</ele>
        <time>2017-05-05T10:08:41Z</time>
      </trkpt>
      <trkpt lat="45.94499" lon="4.58161">
        <ele>495</ele>
        <time>2017-05-05T10:08:42Z</time>
      </trkpt>
      <trkpt lat="45.94488" lon="4.58159">
        <ele>494</ele>
        <time>2017-05-05T10:08:43Z</time>
      </trkpt>
      <trkpt lat="45.94477" lon="4.58157">
        <ele>493</ele>
        <time>2017-05-05T10:08:44Z</time>
      </trkpt>
      <trkpt lat="45.94467" lon="4.58155">
        <ele>492</ele>
        <time>2017-05-05T10:08:45Z</time>
      </trkpt>
      <trkpt lat="45.94456" lon="4.58152">
        <ele>492</ele>
        <time>2017-05-05T10:08:46Z</time>
      </trkpt>
      <trkpt lat="45.94446" lon="4.58149">
        <ele>492</ele>
        <time>2017-05-05T10:08:47Z</time>
      </trkpt>
      <trkpt lat="45.94435" lon="4.58145">
        <ele>491</ele>
        <time>2017-05-05T10:08:48Z</time>
      </trkpt>
      <trkpt lat="45.94424" lon="4.5814">
        <ele>491</ele>
        <time>2017-05-05T10:08:49Z</time>
      </trkpt>
      <trkpt lat="45.94413" lon="4.58135">
        <ele>489</ele>
        <time>2017-05-05T10:08:50Z</time>
      </trkpt>
      <trkpt lat="45.94402" lon="4.5813">
        <ele>489</ele>
        <time>2017-05-05T10:08:51Z</time>
      </trkpt>
      <trkpt lat="45.94391" lon="4.58124">
        <ele>488</ele>
        <time>2017-05-05T10:08:52Z</time>
      </trkpt>
      <trkpt lat="45.94379" lon="4.58119">
        <ele>488</ele>
        <time>2017-05-05T10:08:53Z</time>
      </trkpt>
      <trkpt lat="45.94367" lon="4.58113">
        <ele>487</ele>
        <time>2017-05-05T10:08:54Z</time>
      </trkpt>
      <trkpt lat="45.94355" lon="4.58108">
        <ele>487</ele>
        <time>2017-05-05T10:08:55Z</time>
      </trkpt>
      <trkpt lat="45.94343" lon="4.58102">
        <ele>486</ele>
        <time>2017-05-05T10:08:56Z</time>
      </trkpt>
      <trkpt lat="45.94331" lon="4.58097">
        <ele>483</ele>
        <time>2017-05-05T10:08:57Z</time>
      </trkpt>
      <trkpt lat="45.94318" lon="4.58093">
        <ele>483</ele>
        <time>2017-05-05T10:08:58Z</time>
      </trkpt>
      <trkpt lat="45.94306" lon="4.58089">
        <ele>483</ele>
        <time>2017-05-05T10:08:59Z</time>
      </trkpt>
      <trkpt lat="45.94293" lon="4.58085">
        <ele>483</ele>
        <time>2017-05-05T10:09:00Z</time>
      </trkpt>
      <trkpt lat="45.94281" lon="4.58082">
        <ele>477</ele>
        <time>2017-05-05T10:09:01Z</time>
      </trkpt>
      <trkpt lat="45.94268" lon="4.58078">
        <ele>477</ele>
        <time>2017-05-05T10:09:02Z</time>
      </trkpt>
      <trkpt lat="45.94256" lon="4.58075">
        <ele>477</ele>
        <time>2017-05-05T10:09:03Z</time>
      </trkpt>
      <trkpt lat="45.94244" lon="4.58071">
        <ele>475</ele>
        <time>2017-05-05T10:09:04Z</time>
      </trkpt>
      <trkpt lat="45.94232" lon="4.58066">
        <ele>474</ele>
        <time>2017-05-05T10:09:05Z</time>
      </trkpt>
      <trkpt lat="45.9422" lon="4.58061">
        <ele>473</ele>
        <time>2017-05-05T10:09:06Z</time>
      </trkpt>
      <trkpt lat="45.94209" lon="4.58055">
        <ele>473</ele>
        <time>2017-05-05T10:09:07Z</time>
      </trkpt>
      <trkpt lat="45.94197" lon="4.58049">
        <ele>472</ele>
        <time>2017-05-05T10:09:08Z</time>
      </trkpt>
      <trkpt lat="45.94187" lon="4.58042">
        <ele>471</ele>
        <time>2017-05-05T10:09:09Z</time>
      </trkpt>
      <trkpt lat="45.94176" lon="4.58034">
        <ele>471</ele>
        <time>2017-05-05T10:09:10Z</time>
      </trkpt>
      <trkpt lat="45.94165" lon="4.58026">
        <ele>468</ele>
        <time>2017-05-05T10:09:11Z</time>
      </trkpt>
      <trkpt lat="45.94155" lon="4.58018">
        <ele>468</ele>
        <time>2017-05-05T10:09:12Z</time>
      </trkpt>
      <trkpt lat="45.94144" lon="4.5801">
        <ele>468</ele>
        <time>2017-05-05T10:09:13Z</time>
      </trkpt>
      <trkpt lat="45.94133" lon="4.58001">
        <ele>467</ele>
        <time>2017-05-05T10:09:14Z</time>
      </trkpt>
      <trkpt lat="45.94122" lon="4.57992">
        <ele>463</ele>
        <time>2017-05-05T10:09:15Z</time>
      </trkpt>
      <trkpt lat="45.94111" lon="4.57983">
        <ele>462</ele>
        <time>2017-05-05T10:09:16Z</time>
      </trkpt>
      <trkpt lat="45.941" lon="4.57974">
        <ele>462</ele>
        <time>2017-05-05T10:09:17Z</time>
      </trkpt>
      <trkpt lat="45.94089" lon="4.57965">
        <ele>462</ele>
        <time>2017-05-05T10:09:18Z</time>
      </trkpt>
      <trkpt lat="45.94078" lon="4.57956">
        <ele>461</ele>
        <time>2017-05-05T10:09:19Z</time>
      </trkpt>
      <trkpt lat="45.94067" lon="4.57947">
        <ele>460</ele>
        <time>2017-05-05T10:09:20Z</time>
      </trkpt>
      <trkpt lat="45.94057" lon="4.57939">
        <ele>460</ele>
        <time>2017-05-05T10:09:21Z</time>
      </trkpt>
      <trkpt lat="45.94046" lon="4.5793">
        <ele>460</ele>
        <time>2017-05-05T10:09:22Z</time>
      </trkpt>
      <trkpt lat="45.94035" lon="4.57922">
        <ele>460</ele>
        <time>2017-05-05T10:09:23Z</time>
      </trkpt>
      <trkpt lat="45.94024" lon="4.57915">
        <ele>456</ele>
        <time>2017-05-05T10:09:24Z</time>
      </trkpt>
      <trkpt lat="45.94013" lon="4.57909">
        <ele>457</ele>
        <time>2017-05-05T10:09:25Z</time>
      </trkpt>
      <trkpt lat="45.94002" lon="4.57903">
        <ele>457</ele>
        <time>2017-05-05T10:09:26Z</time>
      </trkpt>
      <trkpt lat="45.9399" lon="4.57898">
        <ele>455</ele>
        <time>2017-05-05T10:09:27Z</time>
      </trkpt>
      <trkpt lat="45.93979" lon="4.57893">
        <ele>454</ele>
        <time>2017-05-05T10:09:28Z</time>
      </trkpt>
      <trkpt lat="45.93968" lon="4.57889">
        <ele>453</ele>
        <time>2017-05-05T10:09:29Z</time>
      </trkpt>
      <trkpt lat="45.93956" lon="4.57885">
        <ele>453</ele>
        <time>2017-05-05T10:09:30Z</time>
      </trkpt>
      <trkpt lat="45.93945" lon="4.57881">
        <ele>452</ele>
        <time>2017-05-05T10:09:31Z</time>
      </trkpt>
      <trkpt lat="45.93934" lon="4.57879">
        <ele>452</ele>
        <time>2017-05-05T10:09:32Z</time>
      </trkpt>
      <trkpt lat="45.93922" lon="4.57877">
        <ele>451</ele>
        <time>2017-05-05T10:09:33Z</time>
      </trkpt>
      <trkpt lat="45.93911" lon="4.57876">
        <ele>448</ele>
        <time>2017-05-05T10:09:34Z</time>
      </trkpt>
      <trkpt lat="45.939" lon="4.57875">
        <ele>448</ele>
        <time>2017-05-05T10:09:35Z</time>
      </trkpt>
      <trkpt lat="45.93888" lon="4.57876">
        <ele>447</ele>
        <time>2017-05-05T10:09:36Z</time>
      </trkpt>
      <trkpt lat="45.93877" lon="4.57877">
        <ele>447</ele>
        <time>2017-05-05T10:09:37Z</time>
      </trkpt>
      <trkpt lat="45.93865" lon="4.57878">
        <ele>447</ele>
        <time>2017-05-05T10:09:38Z</time>
      </trkpt>
      <trkpt lat="45.93854" lon="4.57879">
        <ele>447</ele>
        <time>2017-05-05T10:09:39Z</time>
      </trkpt>
      <trkpt lat="45.93843" lon="4.5788">
        <ele>446</ele>
        <time>2017-05-05T10:09:40Z</time>
      </trkpt>
      <trkpt lat="45.93831" lon="4.57882">
        <ele>443</ele>
        <time>2017-05-05T10:09:41Z</time>
      </trkpt>
      <trkpt lat="45.9382" lon="4.57883">
        <ele>443</ele>
        <time>2017-05-05T10:09:42Z</time>
      </trkpt>
      <trkpt lat="45.93808" lon="4.57885">
        <ele>442</ele>
        <time>2017-05-05T10:09:43Z</time>
      </trkpt>
      <trkpt lat="45.93797" lon="4.57886">
        <ele>442</ele>
        <time>2017-05-05T10:09:44Z</time>
      </trkpt>
      <trkpt lat="45.93786" lon="4.57887">
        <ele>442</ele>
        <time>2017-05-05T10:09:45Z</time>
      </trkpt>
      <trkpt lat="45.93775" lon="4.57889">
        <ele>441</ele>
        <time>2017-05-05T10:09:46Z</time>
      </trkpt>
      <trkpt lat="45.93763" lon="4.5789">
        <ele>441</ele>
        <time>2017-05-05T10:09:47Z</time>
      </trkpt>
      <trkpt lat="45.93752" lon="4.57892">
        <ele>441</ele>
        <time>2017-05-05T10:09:48Z</time>
      </trkpt>
      <trkpt lat="45.93741" lon="4.57894">
        <ele>437</ele>
        <time>2017-05-05T10:09:49Z</time>
      </trkpt>
      <trkpt lat="45.93729" lon="4.57895">
        <ele>436</ele>
        <time>2017-05-05T10:09:50Z</time>
      </trkpt>
      <trkpt lat="45.93718" lon="4.57897">
        <ele>436</ele>
        <time>2017-05-05T10:09:51Z</time>
      </trkpt>
      <trkpt lat="45.93706" lon="4.57899">
        <ele>435</ele>
        <time>2017-05-05T10:09:52Z</time>
      </trkpt>
      <trkpt lat="45.93695" lon="4.57901">
        <ele>434</ele>
        <time>2017-05-05T10:09:53Z</time>
      </trkpt>
      <trkpt lat="45.93683" lon="4.57903">
        <ele>434</ele>
        <time>2017-05-05T10:09:54Z</time>
      </trkpt>
      <trkpt lat="45.93672" lon="4.57905">
        <ele>434</ele>
        <time>2017-05-05T10:09:55Z</time>
      </trkpt>
      <trkpt lat="45.93661" lon="4.57907">
        <ele>431</ele>
        <time>2017-05-05T10:09:56Z</time>
      </trkpt>
      <trkpt lat="45.93649" lon="4.5791">
        <ele>430</ele>
        <time>2017-05-05T10:09:57Z</time>
      </trkpt>
      <trkpt lat="45.93638" lon="4.57912">
        <ele>428</ele>
        <time>2017-05-05T10:09:58Z</time>
      </trkpt>
      <trkpt lat="45.93627" lon="4.57915">
        <ele>427</ele>
        <time>2017-05-05T10:09:59Z</time>
      </trkpt>
      <trkpt lat="45.93615" lon="4.57917">
        <ele>432</ele>
        <time>2017-05-05T10:10:00Z</time>
      </trkpt>
      <trkpt lat="45.93604" lon="4.5792">
        <ele>431</ele>
        <time>2017-05-05T10:10:01Z</time>
      </trkpt>
      <trkpt lat="45.93593" lon="4.57923">
        <ele>429</ele>
        <time>2017-05-05T10:10:02Z</time>
      </trkpt>
      <trkpt lat="45.93582" lon="4.57925">
        <ele>426</ele>
        <time>2017-05-05T10:10:03Z</time>
      </trkpt>
      <trkpt lat="45.9357" lon="4.57928">
        <ele>427</ele>
        <time>2017-05-05T10:10:04Z</time>
      </trkpt>
      <trkpt lat="45.93559" lon="4.5793">
        <ele>427</ele>
        <time>2017-05-05T10:10:05Z</time>
      </trkpt>
      <trkpt lat="45.93548" lon="4.57934">
        <ele>426</ele>
        <time>2017-05-05T10:10:06Z</time>
      </trkpt>
      <trkpt lat="45.93538" lon="4.57938">
        <ele>426</ele>
        <time>2017-05-05T10:10:07Z</time>
      </trkpt>
      <trkpt lat="45.93527" lon="4.57943">
        <ele>426</ele>
        <time>2017-05-05T10:10:08Z</time>
      </trkpt>
      <trkpt lat="45.93517" lon="4.57949">
        <ele>426</ele>
        <time>2017-05-05T10:10:09Z</time>
      </trkpt>
      <trkpt lat="45.93507" lon="4.57954">
        <ele>426</ele>
        <time>2017-05-05T10:10:10Z</time>
      </trkpt>
      <trkpt lat="45.93498" lon="4.5796">
        <ele>422</ele>
        <time>2017-05-05T10:10:11Z</time>
      </trkpt>
      <trkpt lat="45.93488" lon="4.57965">
        <ele>422</ele>
        <time>2017-05-05T10:10:12Z</time>
      </trkpt>
      <trkpt lat="45.93479" lon="4.5797">
        <ele>422</ele>
        <time>2017-05-05T10:10:13Z</time>
      </trkpt>
      <trkpt lat="45.9347" lon="4.57975">
        <ele>422</ele>
        <time>2017-05-05T10:10:14Z</time>
      </trkpt>
      <trkpt lat="45.9346" lon="4.57981">
        <ele>421</ele>
        <time>2017-05-05T10:10:15Z</time>
      </trkpt>
      <trkpt lat="45.93451" lon="4.57985">
        <ele>421</ele>
        <time>2017-05-05T10:10:16Z</time>
      </trkpt>
      <trkpt lat="45.93442" lon="4.5799">
        <ele>421</ele>
        <time>2017-05-05T10:10:17Z</time>
      </trkpt>
      <trkpt lat="45.93433" lon="4.57995">
        <ele>421</ele>
        <time>2017-05-05T10:10:18Z</time>
      </trkpt>
      <trkpt lat="45.93424" lon="4.57999">
        <ele>421</ele>
        <time>2017-05-05T10:10:19Z</time>
      </trkpt>
      <trkpt lat="45.93416" lon="4.58003">
        <ele>421</ele>
        <time>2017-05-05T10:10:20Z</time>
      </trkpt>
      <trkpt lat="45.93407" lon="4.58007">
        <ele>421</ele>
        <time>2017-05-05T10:10:21Z</time>
      </trkpt>
      <trkpt lat="45.93398" lon="4.5801">
        <ele>421</ele>
        <time>2017-05-05T10:10:22Z</time>
      </trkpt>
      <trkpt lat="45.9339" lon="4.58013">
        <ele>421</ele>
        <time>2017-05-05T10:10:23Z</time>
      </trkpt>
      <trkpt lat="45.93381" lon="4.58015">
        <ele>421</ele>
        <time>2017-05-05T10:10:24Z</time>
      </trkpt>
      <trkpt lat="45.93373" lon="4.58018">
        <ele>421</ele>
        <time>2017-05-05T10:10:25Z</time>
      </trkpt>
      <trkpt lat="45.93364" lon="4.5802">
        <ele>421</ele>
        <time>2017-05-05T10:10:26Z</time>
      </trkpt>
      <trkpt lat="45.93355" lon="4.58023">
        <ele>420</ele>
        <time>2017-05-05T10:10:27Z</time>
      </trkpt>
      <trkpt lat="45.93347" lon="4.58025">
        <ele>420</ele>
        <time>2017-05-05T10:10:28Z</time>
      </trkpt>
      <trkpt lat="45.93338" lon="4.58028">
        <ele>420</ele>
        <time>2017-05-05T10:10:29Z</time>
      </trkpt>
      <trkpt lat="45.93329" lon="4.58031">
        <ele>418</ele>
        <time>2017-05-05T10:10:30Z</time>
      </trkpt>
      <trkpt lat="45.93321" lon="4.58033">
        <ele>418</ele>
        <time>2017-05-05T10:10:31Z</time>
      </trkpt>
      <trkpt lat="45.93312" lon="4.58036">
        <ele>418</ele>
        <time>2017-05-05T10:10:32Z</time>
      </trkpt>
      <trkpt lat="45.93303" lon="4.58039">
        <ele>418</ele>
        <time>2017-05-05T10:10:33Z</time>
      </trkpt>
      <trkpt lat="45.93294" lon="4.58042">
        <ele>418</ele>
        <time>2017-05-05T10:10:34Z</time>
      </trkpt>
      <trkpt lat="45.93286" lon="4.58045">
        <ele>417</ele>
        <time>2017-05-05T10:10:35Z</time>
      </trkpt>
      <trkpt lat="45.93277" lon="4.58048">
        <ele>417</ele>
        <time>2017-05-05T10:10:36Z</time>
      </trkpt>
      <trkpt lat="45.93268" lon="4.58052">
        <ele>417</ele>
        <time>2017-05-05T10:10:37Z</time>
      </trkpt>
      <trkpt lat="45.9326" lon="4.58055">
        <ele>417</ele>
        <time>2017-05-05T10:10:38Z</time>
      </trkpt>
      <trkpt lat="45.93251" lon="4.58059">
        <ele>417</ele>
        <time>2017-05-05T10:10:39Z</time>
      </trkpt>
      <trkpt lat="45.93243" lon="4.58063">
        <ele>414</ele>
        <time>2017-05-05T10:10:40Z</time>
      </trkpt>
      <trkpt lat="45.93234" lon="4.58066">
        <ele>414</ele>
        <time>2017-05-05T10:10:41Z</time>
      </trkpt>
      <trkpt lat="45.93225" lon="4.58069">
        <ele>414</ele>
        <time>2017-05-05T10:10:42Z</time>
      </trkpt>
      <trkpt lat="45.93216" lon="4.58072">
        <ele>413</ele>
        <time>2017-05-05T10:10:43Z</time>
      </trkpt>
      <trkpt lat="45.93207" lon="4.58075">
        <ele>413</ele>
        <time>2017-05-05T10:10:44Z</time>
      </trkpt>
      <trkpt lat="45.93198" lon="4.58076">
        <ele>413</ele>
        <time>2017-05-05T10:10:45Z</time>
      </trkpt>
      <trkpt lat="45.93189" lon="4.58076">
        <ele>412</ele>
        <time>2017-05-05T10:10:46Z</time>
      </trkpt>
      <trkpt lat="45.93179" lon="4.58074">
        <ele>412</ele>
        <time>2017-05-05T10:10:47Z</time>
      </trkpt>
      <trkpt lat="45.9317" lon="4.58073">
        <ele>412</ele>
        <time>2017-05-05T10:10:48Z</time>
      </trkpt>
      <trkpt lat="45.9316" lon="4.58071">
        <ele>410</ele>
        <time>2017-05-05T10:10:49Z</time>
      </trkpt>
      <trkpt lat="45.93151" lon="4.58068">
        <ele>409</ele>
        <time>2017-05-05T10:10:50Z</time>
      </trkpt>
      <trkpt lat="45.93141" lon="4.58064">
        <ele>408</ele>
        <time>2017-05-05T10:10:51Z</time>
      </trkpt>
      <trkpt lat="45.93131" lon="4.58059">
        <ele>407</ele>
        <time>2017-05-05T10:10:52Z</time>
      </trkpt>
      <trkpt lat="45.93121" lon="4.58054">
        <ele>407</ele>
        <time>2017-05-05T10:10:53Z</time>
      </trkpt>
      <trkpt lat="45.93111" lon="4.58051">
        <ele>406</ele>
        <time>2017-05-05T10:10:54Z</time>
      </trkpt>
      <trkpt lat="45.93101" lon="4.58048">
        <ele>406</ele>
        <time>2017-05-05T10:10:55Z</time>
      </trkpt>
      <trkpt lat="45.9309" lon="4.58044">
        <ele>405</ele>
        <time>2017-05-05T10:10:56Z</time>
      </trkpt>
      <trkpt lat="45.93079" lon="4.58042">
        <ele>400</ele>
        <time>2017-05-05T10:10:57Z</time>
      </trkpt>
      <trkpt lat="45.93068" lon="4.58041">
        <ele>400</ele>
        <time>2017-05-05T10:10:58Z</time>
      </trkpt>
      <trkpt lat="45.93056" lon="4.58042">
        <ele>399</ele>
        <time>2017-05-05T10:10:59Z</time>
      </trkpt>
      <trkpt lat="45.93044" lon="4.58045">
        <ele>399</ele>
        <time>2017-05-05T10:11:00Z</time>
      </trkpt>
      <trkpt lat="45.93032" lon="4.58047">
        <ele>399</ele>
        <time>2017-05-05T10:11:01Z</time>
      </trkpt>
      <trkpt lat="45.93019" lon="4.5805">
        <ele>398</ele>
        <time>2017-05-05T10:11:02Z</time>
      </trkpt>
      <trkpt lat="45.93007" lon="4.58053">
        <ele>398</ele>
        <time>2017-05-05T10:11:03Z</time>
      </trkpt>
      <trkpt lat="45.92995" lon="4.58057">
        <ele>393</ele>
        <time>2017-05-05T10:11:04Z</time>
      </trkpt>
      <trkpt lat="45.92983" lon="4.58061">
        <ele>393</ele>
        <time>2017-05-05T10:11:05Z</time>
      </trkpt>
      <trkpt lat="45.92971" lon="4.58064">
        <ele>392</ele>
        <time>2017-05-05T10:11:06Z</time>
      </trkpt>
      <trkpt lat="45.92958" lon="4.58068">
        <ele>391</ele>
        <time>2017-05-05T10:11:07Z</time>
      </trkpt>
      <trkpt lat="45.92946" lon="4.58072">
        <ele>391</ele>
        <time>2017-05-05T10:11:08Z</time>
      </trkpt>
      <trkpt lat="45.92934" lon="4.58076">
        <ele>390</ele>
        <time>2017-05-05T10:11:09Z</time>
      </trkpt>
      <trkpt lat="45.92922" lon="4.5808">
        <ele>391</ele>
        <time>2017-05-05T10:11:10Z</time>
      </trkpt>
      <trkpt lat="45.9291" lon="4.58084">
        <ele>391</ele>
        <time>2017-05-05T10:11:11Z</time>
      </trkpt>
      <trkpt lat="45.92898" lon="4.58088">
        <ele>390</ele>
        <time>2017-05-05T10:11:12Z</time>
      </trkpt>
      <trkpt lat="45.92886" lon="4.58092">
        <ele>390</ele>
        <time>2017-05-05T10:11:13Z</time>
      </trkpt>
      <trkpt lat="45.92875" lon="4.58096">
        <ele>389</ele>
        <time>2017-05-05T10:11:14Z</time>
      </trkpt>
      <trkpt lat="45.92863" lon="4.581">
        <ele>388</ele>
        <time>2017-05-05T10:11:15Z</time>
      </trkpt>
      <trkpt lat="45.92852" lon="4.58105">
        <ele>388</ele>
        <time>2017-05-05T10:11:16Z</time>
      </trkpt>
      <trkpt lat="45.92841" lon="4.58109">
        <ele>387</ele>
        <time>2017-05-05T10:11:17Z</time>
      </trkpt>
      <trkpt lat="45.9283" lon="4.58114">
        <ele>383</ele>
        <time>2017-05-05T10:11:18Z</time>
      </trkpt>
      <trkpt lat="45.92819" lon="4.58118">
        <ele>383</ele>
        <time>2017-05-05T10:11:19Z</time>
      </trkpt>
      <trkpt lat="45.92808" lon="4.58123">
        <ele>383</ele>
        <time>2017-05-05T10:11:20Z</time>
      </trkpt>
      <trkpt lat="45.92797" lon="4.58127">
        <ele>382</ele>
        <time>2017-05-05T10:11:21Z</time>
      </trkpt>
      <trkpt lat="45.92786" lon="4.58131">
        <ele>382</ele>
        <time>2017-05-05T10:11:22Z</time>
      </trkpt>
      <trkpt lat="45.92775" lon="4.58136">
        <ele>382</ele>
        <time>2017-05-05T10:11:23Z</time>
      </trkpt>
      <trkpt lat="45.92765" lon="4.5814">
        <ele>382</ele>
        <time>2017-05-05T10:11:24Z</time>
      </trkpt>
      <trkpt lat="45.92754" lon="4.58144">
        <ele>382</ele>
        <time>2017-05-05T10:11:25Z</time>
      </trkpt>
      <trkpt lat="45.92743" lon="4.58148">
        <ele>377</ele>
        <time>2017-05-05T10:11:26Z</time>
      </trkpt>
      <trkpt lat="45.92732" lon="4.58152">
        <ele>377</ele>
        <time>2017-05-05T10:11:27Z</time>
      </trkpt>
      <trkpt lat="45.92722" lon="4.58156">
        <ele>376</ele>
        <time>2017-05-05T10:11:28Z</time>
      </trkpt>
      <trkpt lat="45.92711" lon="4.5816">
        <ele>376</ele>
        <time>2017-05-05T10:11:29Z</time>
      </trkpt>
      <trkpt lat="45.927" lon="4.58164">
        <ele>375</ele>
        <time>2017-05-05T10:11:30Z</time>
      </trkpt>
      <trkpt lat="45.92689" lon="4.58168">
        <ele>379</ele>
        <time>2017-05-05T10:11:31Z</time>
      </trkpt>
      <trkpt lat="45.92678" lon="4.58171">
        <ele>378</ele>
        <time>2017-05-05T10:11:32Z</time>
      </trkpt>
      <trkpt lat="45.92668" lon="4.58175">
        <ele>377</ele>
        <time>2017-05-05T10:11:33Z</time>
      </trkpt>
      <trkpt lat="45.92657" lon="4.58178">
        <ele>375</ele>
        <time>2017-05-05T10:11:34Z</time>
      </trkpt>
      <trkpt lat="45.92647" lon="4.58182">
        <ele>374</ele>
        <time>2017-05-05T10:11:35Z</time>
      </trkpt>
      <trkpt lat="45.92637" lon="4.58185">
        <ele>374</ele>
        <time>2017-05-05T10:11:36Z</time>
      </trkpt>
      <trkpt lat="45.92627" lon="4.58188">
        <ele>374</ele>
        <time>2017-05-05T10:11:37Z</time>
      </trkpt>
      <trkpt lat="45.92618" lon="4.58191">
        <ele>373</ele>
        <time>2017-05-05T10:11:38Z</time>
      </trkpt>
      <trkpt lat="45.92611" lon="4.58193">
        <ele>373</ele>
        <time>2017-05-05T10:11:39Z</time>
      </trkpt>
      <trkpt lat="45.92604" lon="4.58194">
        <ele>373</ele>
        <time>2017-05-05T10:11:40Z</time>
      </trkpt>
      <trkpt lat="45.92598" lon="4.58193">
        <ele>372</ele>
        <time>2017-05-05T10:11:41Z</time>
      </trkpt>
      <trkpt lat="45.92591" lon="4.58191">
        <ele>372</ele>
        <time>2017-05-05T10:11:42Z</time>
      </trkpt>
      <trkpt lat="45.92585" lon="4.58191">
        <ele>372</ele>
        <time>2017-05-05T10:11:43Z</time>
      </trkpt>
      <trkpt lat="45.92579" lon="4.58194">
        <ele>368</ele>
        <time>2017-05-05T10:11:44Z</time>
      </trkpt>
      <trkpt lat="45.92573" lon="4.58199">
        <ele>368</ele>
        <time>2017-05-05T10:11:45Z</time>
      </trkpt>
      <trkpt lat="45.92567" lon="4.58204">
        <ele>368</ele>
        <time>2017-05-05T10:11:46Z</time>
      </trkpt>
      <trkpt lat="45.9256" lon="4.58208">
        <ele>368</ele>
        <time>2017-05-05T10:11:47Z</time>
      </trkpt>
      <trkpt lat="45.92553" lon="4.58211">
        <ele>368</ele>
        <time>2017-05-05T10:11:48Z</time>
      </trkpt>
      <trkpt lat="45.92546" lon="4.58214">
        <ele>367</ele>
        <time>2017-05-05T10:11:49Z</time>
      </trkpt>
      <trkpt lat="45.92538" lon="4.58218">
        <ele>367</ele>
        <time>2017-05-05T10:11:50Z</time>
      </trkpt>
      <trkpt lat="45.92531" lon="4.58221">
        <ele>367</ele>
        <time>2017-05-05T10:11:51Z</time>
      </trkpt>
      <trkpt lat="45.92523" lon="4.58225">
        <ele>367</ele>
        <time>2017-05-05T10:11:52Z</time>
      </trkpt>
      <trkpt lat="45.92516" lon="4.58229">
        <ele>367</ele>
        <time>2017-05-05T10:11:53Z</time>
      </trkpt>
      <trkpt lat="45.92508" lon="4.58233">
        <ele>367</ele>
        <time>2017-05-05T10:11:54Z</time>
      </trkpt>
      <trkpt lat="45.92501" lon="4.58237">
        <ele>367</ele>
        <time>2017-05-05T10:11:55Z</time>
      </trkpt>
      <trkpt lat="45.92493" lon="4.58241">
        <ele>365</ele>
        <time>2017-05-05T10:11:56Z</time>
      </trkpt>
      <trkpt lat="45.92486" lon="4.58245">
        <ele>364</ele>
        <time>2017-05-05T10:11:57Z</time>
      </trkpt>
      <trkpt lat="45.92479" lon="4.58249">
        <ele>363</ele>
        <time>2017-05-05T10:11:58Z</time>
      </trkpt>
      <trkpt lat="45.92472" lon="4.58254">
        <ele>366</ele>
        <time>2017-05-05T10:11:59Z</time>
      </trkpt>
      <trkpt lat="45.92465" lon="4.58259">
        <ele>366</ele>
        <time>2017-05-05T10:12:00Z</time>
      </trkpt>
      <trkpt lat="45.92458" lon="4.58264">
        <ele>365</ele>
        <time>2017-05-05T10:12:01Z</time>
      </trkpt>
      <trkpt lat="45.92451" lon="4.58269">
        <ele>365</ele>
        <time>2017-05-05T10:12:02Z</time>
      </trkpt>
      <trkpt lat="45.92445" lon="4.58274">
        <ele>365</ele>
        <time>2017-05-05T10:12:03Z</time>
      </trkpt>
      <trkpt lat="45.92438" lon="4.5828">
        <ele>365</ele>
        <time>2017-05-05T10:12:04Z</time>
      </trkpt>
      <trkpt lat="45.92432" lon="4.58286">
        <ele>365</ele>
        <time>2017-05-05T10:12:05Z</time>
      </trkpt>
      <trkpt lat="45.92426" lon="4.58292">
        <ele>365</ele>
        <time>2017-05-05T10:12:06Z</time>
      </trkpt>
      <trkpt lat="45.92419" lon="4.58298">
        <ele>365</ele>
        <time>2017-05-05T10:12:07Z</time>
      </trkpt>
      <trkpt lat="45.92413" lon="4.58304">
        <ele>362</ele>
        <time>2017-05-05T10:12:08Z</time>
      </trkpt>
      <trkpt lat="45.92407" lon="4.5831">
        <ele>362</ele>
        <time>2017-05-05T10:12:09Z</time>
      </trkpt>
      <trkpt lat="45.92401" lon="4.58315">
        <ele>362</ele>
        <time>2017-05-05T10:12:10Z</time>
      </trkpt>
      <trkpt lat="45.92395" lon="4.58321">
        <ele>362</ele>
        <time>2017-05-05T10:12:11Z</time>
      </trkpt>
      <trkpt lat="45.92388" lon="4.58326">
        <ele>362</ele>
        <time>2017-05-05T10:12:12Z</time>
      </trkpt>
      <trkpt lat="45.92383" lon="4.58332">
        <ele>362</ele>
        <time>2017-05-05T10:12:13Z</time>
      </trkpt>
      <trkpt lat="45.92377" lon="4.58337">
        <ele>364</ele>
        <time>2017-05-05T10:12:14Z</time>
      </trkpt>
      <trkpt lat="45.92372" lon="4.58342">
        <ele>364</ele>
        <time>2017-05-05T10:12:15Z</time>
      </trkpt>
      <trkpt lat="45.92367" lon="4.58346">
        <ele>364</ele>
        <time>2017-05-05T10:12:16Z</time>
      </trkpt>
      <trkpt lat="45.92362" lon="4.5835">
        <ele>364</ele>
        <time>2017-05-05T10:12:17Z</time>
      </trkpt>
      <trkpt lat="45.92356" lon="4.58354">
        <ele>363</ele>
        <time>2017-05-05T10:12:18Z</time>
      </trkpt>
      <trkpt lat="45.92351" lon="4.58359">
        <ele>363</ele>
        <time>2017-05-05T10:12:19Z</time>
      </trkpt>
      <trkpt lat="45.92347" lon="4.58363">
        <ele>363</ele>
        <time>2017-05-05T10:12:20Z</time>
      </trkpt>
      <trkpt lat="45.92342" lon="4.58368">
        <ele>363</ele>
        <time>2017-05-05T10:12:21Z</time>
      </trkpt>
      <trkpt lat="45.92336" lon="4.58372">
        <ele>363</ele>
        <time>2017-05-05T10:12:22Z</time>
      </trkpt>
      <trkpt lat="45.92331" lon="4.58377">
        <ele>360</ele>
        <time>2017-05-05T10:12:23Z</time>
      </trkpt>
      <trkpt lat="45.92326" lon="4.58382">
        <ele>360</ele>
        <time>2017-05-05T10:12:24Z</time>
      </trkpt>
      <trkpt lat="45.92321" lon="4.58387">
        <ele>360</ele>
        <time>2017-05-05T10:12:25Z</time>
      </trkpt>
      <trkpt lat="45.92316" lon="4.58392">
        <ele>360</ele>
        <time>2017-05-05T10:12:26Z</time>
      </trkpt>
      <trkpt lat="45.92311" lon="4.58398">
        <ele>360</ele>
        <time>2017-05-05T10:12:27Z</time>
      </trkpt>
      <trkpt lat="45.92307" lon="4.58403">
        <ele>360</ele>
        <time>2017-05-05T10:12:28Z</time>
      </trkpt>
      <trkpt lat="45.92302" lon="4.58409">
        <ele>360</ele>
        <time>2017-05-05T10:12:29Z</time>
      </trkpt>
      <trkpt lat="45.92298" lon="4.58416">
        <ele>360</ele>
        <time>2017-05-05T10:12:30Z</time>
      </trkpt>
      <trkpt lat="45.92294" lon="4.58423">
        <ele>360</ele>
        <time>2017-05-05T10:12:31Z</time>
      </trkpt>
      <trkpt lat="45.92289" lon="4.58429">
        <ele>360</ele>
        <time>2017-05-05T10:12:32Z</time>
      </trkpt>
      <trkpt lat="45.92284" lon="4.58435">
        <ele>360</ele>
        <time>2017-05-05T10:12:33Z</time>
      </trkpt>
      <trkpt lat="45.92279" lon="4.58442">
        <ele>360</ele>
        <time>2017-05-05T10:12:34Z</time>
      </trkpt>
      <trkpt lat="45.92274" lon="4.58448">
        <ele>360</ele>
        <time>2017-05-05T10:12:35Z</time>
      </trkpt>
      <trkpt lat="45.92269" lon="4.58454">
        <ele>360</ele>
        <time>2017-05-05T10:12:36Z</time>
      </trkpt>
      <trkpt lat="45.92263" lon="4.58459">
        <ele>360</ele>
        <time>2017-05-05T10:12:37Z</time>
      </trkpt>
      <trkpt lat="45.92258" lon="4.58466">
        <ele>360</ele>
        <time>2017-05-05T10:12:38Z</time>
      </trkpt>
      <trkpt lat="45.92252" lon="4.58471">
        <ele>360</ele>
        <time>2017-05-05T10:12:39Z</time>
      </trkpt>
      <trkpt lat="45.92246" lon="4.58477">
        <ele>359</ele>
        <time>2017-05-05T10:12:40Z</time>
      </trkpt>
      <trkpt lat="45.9224" lon="4.58483">
        <ele>359</ele>
        <time>2017-05-05T10:12:41Z</time>
      </trkpt>
      <trkpt lat="45.92234" lon="4.58489">
        <ele>359</ele>
        <time>2017-05-05T10:12:42Z</time>
      </trkpt>
      <trkpt lat="45.92227" lon="4.58495">
        <ele>358</ele>
        <time>2017-05-05T10:12:43Z</time>
      </trkpt>
      <trkpt lat="45.92221" lon="4.58502">
        <ele>359</ele>
        <time>2017-05-05T10:12:44Z</time>
      </trkpt>
      <trkpt lat="45.92215" lon="4.58508">
        <ele>359</ele>
        <time>2017-05-05T10:12:45Z</time>
      </trkpt>
      <trkpt lat="45.92209" lon="4.58515">
        <ele>359</ele>
        <time>2017-05-05T10:12:46Z</time>
      </trkpt>
      <trkpt lat="45.92203" lon="4.5852">
        <ele>358</ele>
        <time>2017-05-05T10:12:47Z</time>
      </trkpt>
      <trkpt lat="45.92197" lon="4.58525">
        <ele>358</ele>
        <time>2017-05-05T10:12:48Z</time>
      </trkpt>
      <trkpt lat="45.92192" lon="4.58529">
        <ele>358</ele>
        <time>2017-05-05T10:12:49Z</time>
      </trkpt>
      <trkpt lat="45.92187" lon="4.58534">
        <ele>358</ele>
        <time>2017-05-05T10:12:50Z</time>
      </trkpt>
      <trkpt lat="45.92183" lon="4.58537">
        <ele>358</ele>
        <time>2017-05-05T10:12:51Z</time>
      </trkpt>
      <trkpt lat="45.92176" lon="4.58529">
        <ele>358</ele>
        <time>2017-05-05T10:12:54Z</time>
      </trkpt>
      <trkpt lat="45.92175" lon="4.58523">
        <ele>358</ele>
        <time>2017-05-05T10:12:55Z</time>
      </trkpt>
      <trkpt lat="45.92173" lon="4.58513">
        <ele>358</ele>
        <time>2017-05-05T10:12:57Z</time>
      </trkpt>
      <trkpt lat="45.92171" lon="4.58507">
        <ele>357</ele>
        <time>2017-05-05T10:12:58Z</time>
      </trkpt>
      <trkpt lat="45.92167" lon="4.58497">
        <ele>357</ele>
        <time>2017-05-05T10:13:00Z</time>
      </trkpt>
      <trkpt lat="45.92164" lon="4.58493">
        <ele>356</ele>
        <time>2017-05-05T10:13:01Z</time>
      </trkpt>
      <trkpt lat="45.92155" lon="4.58491">
        <ele>356</ele>
        <time>2017-05-05T10:13:03Z</time>
      </trkpt>
      <trkpt lat="45.92151" lon="4.58493">
        <ele>356</ele>
        <time>2017-05-05T10:13:04Z</time>
      </trkpt>
      <trkpt lat="45.92143" lon="4.58501">
        <ele>356</ele>
        <time>2017-05-05T10:13:06Z</time>
      </trkpt>
      <trkpt lat="45.9214" lon="4.58505">
        <ele>356</ele>
        <time>2017-05-05T10:13:07Z</time>
      </trkpt>
      <trkpt lat="45.92133" lon="4.58513">
        <ele>356</ele>
        <time>2017-05-05T10:13:09Z</time>
      </trkpt>
      <trkpt lat="45.92129" lon="4.58516">
        <ele>356</ele>
        <time>2017-05-05T10:13:10Z</time>
      </trkpt>
      <trkpt lat="45.92122" lon="4.58522">
        <ele>356</ele>
        <time>2017-05-05T10:13:12Z</time>
      </trkpt>
      <trkpt lat="45.92118" lon="4.58525">
        <ele>356</ele>
        <time>2017-05-05T10:13:13Z</time>
      </trkpt>
      <trkpt lat="45.92111" lon="4.58532">
        <ele>355</ele>
        <time>2017-05-05T10:13:15Z</time>
      </trkpt>
      <trkpt lat="45.92107" lon="4.58536">
        <ele>355</ele>
        <time>2017-05-05T10:13:16Z</time>
      </trkpt>
      <trkpt lat="45.92103" lon="4.5854">
        <ele>355</ele>
        <time>2017-05-05T10:13:17Z</time>
      </trkpt>
      <trkpt lat="45.92098" lon="4.58543">
        <ele>355</ele>
        <time>2017-05-05T10:13:18Z</time>
      </trkpt>
      <trkpt lat="45.92093" lon="4.58546">
        <ele>355</ele>
        <time>2017-05-05T10:13:19Z</time>
      </trkpt>
      <trkpt lat="45.92087" lon="4.58548">
        <ele>355</ele>
        <time>2017-05-05T10:13:20Z</time>
      </trkpt>
      <trkpt lat="45.92082" lon="4.58551">
        <ele>353</ele>
        <time>2017-05-05T10:13:21Z</time>
      </trkpt>
      <trkpt lat="45.92077" lon="4.58555">
        <ele>353</ele>
        <time>2017-05-05T10:13:22Z</time>
      </trkpt>
      <trkpt lat="45.92072" lon="4.5856">
        <ele>353</ele>
        <time>2017-05-05T10:13:23Z</time>
      </trkpt>
      <trkpt lat="45.92069" lon="4.58565">
        <ele>353</ele>
        <time>2017-05-05T10:13:24Z</time>
      </trkpt>
      <trkpt lat="45.92065" lon="4.58572">
        <ele>354</ele>
        <time>2017-05-05T10:13:25Z</time>
      </trkpt>
      <trkpt lat="45.92061" lon="4.58578">
        <ele>353</ele>
        <time>2017-05-05T10:13:26Z</time>
      </trkpt>
      <trkpt lat="45.92057" lon="4.58585">
        <ele>353</ele>
        <time>2017-05-05T10:13:27Z</time>
      </trkpt>
      <trkpt lat="45.92054" lon="4.5859">
        <ele>352</ele>
        <time>2017-05-05T10:13:28Z</time>
      </trkpt>
      <trkpt lat="45.9205" lon="4.58596">
        <ele>352</ele>
        <time>2017-05-05T10:13:29Z</time>
      </trkpt>
      <trkpt lat="45.92047" lon="4.58601">
        <ele>352</ele>
        <time>2017-05-05T10:13:30Z</time>
      </trkpt>
      <trkpt lat="45.92041" lon="4.5861">
        <ele>352</ele>
        <time>2017-05-05T10:13:32Z</time>
      </trkpt>
      <trkpt lat="45.92038" lon="4.58615">
        <ele>351</ele>
        <time>2017-05-05T10:13:33Z</time>
      </trkpt>
      <trkpt lat="45.92034" lon="4.58624">
        <ele>351</ele>
        <time>2017-05-05T10:13:35Z</time>
      </trkpt>
      <trkpt lat="45.92032" lon="4.58627">
        <ele>351</ele>
        <time>2017-05-05T10:13:36Z</time>
      </trkpt>
      <trkpt lat="45.92027" lon="4.58632">
        <ele>351</ele>
        <time>2017-05-05T10:13:38Z</time>
      </trkpt>
      <trkpt lat="45.92024" lon="4.58634">
        <ele>351</ele>
        <time>2017-05-05T10:13:39Z</time>
      </trkpt>
      <trkpt lat="45.92016" lon="4.5864">
        <ele>350</ele>
        <time>2017-05-05T10:13:41Z</time>
      </trkpt>
      <trkpt lat="45.92012" lon="4.58645">
        <ele>350</ele>
        <time>2017-05-05T10:13:42Z</time>
      </trkpt>
      <trkpt lat="45.92007" lon="4.58651">
        <ele>350</ele>
        <time>2017-05-05T10:13:43Z</time>
      </trkpt>
      <trkpt lat="45.92002" lon="4.58659">
        <ele>349</ele>
        <time>2017-05-05T10:13:44Z</time>
      </trkpt>
      <trkpt lat="45.91998" lon="4.58667">
        <ele>348</ele>
        <time>2017-05-05T10:13:45Z</time>
      </trkpt>
      <trkpt lat="45.91993" lon="4.58675">
        <ele>346</ele>
        <time>2017-05-05T10:13:46Z</time>
      </trkpt>
      <trkpt lat="45.91988" lon="4.58684">
        <ele>345</ele>
        <time>2017-05-05T10:13:47Z</time>
      </trkpt>
      <trkpt lat="45.91983" lon="4.58693">
        <ele>344</ele>
        <time>2017-05-05T10:13:48Z</time>
      </trkpt>
      <trkpt lat="45.91977" lon="4.58703">
        <ele>344</ele>
        <time>2017-05-05T10:13:49Z</time>
      </trkpt>
      <trkpt lat="45.91971" lon="4.58712">
        <ele>343</ele>
        <time>2017-05-05T10:13:50Z</time>
      </trkpt>
      <trkpt lat="45.91966" lon="4.58722">
        <ele>343</ele>
        <time>2017-05-05T10:13:51Z</time>
      </trkpt>
      <trkpt lat="45.9196" lon="4.58732">
        <ele>342</ele>
        <time>2017-05-05T10:13:52Z</time>
      </trkpt>
      <trkpt lat="45.91955" lon="4.58744">
        <ele>342</ele>
        <time>2017-05-05T10:13:53Z</time>
      </trkpt>
      <trkpt lat="45.91949" lon="4.58756">
        <ele>336</ele>
        <time>2017-05-05T10:13:54Z</time>
      </trkpt>
      <trkpt lat="45.91944" lon="4.58767">
        <ele>336</ele>
        <time>2017-05-05T10:13:55Z</time>
      </trkpt>
      <trkpt lat="45.91938" lon="4.5878">
        <ele>335</ele>
        <time>2017-05-05T10:13:56Z</time>
      </trkpt>
      <trkpt lat="45.91932" lon="4.58793">
        <ele>335</ele>
        <time>2017-05-05T10:13:57Z</time>
      </trkpt>
      <trkpt lat="45.91926" lon="4.58806">
        <ele>334</ele>
        <time>2017-05-05T10:13:58Z</time>
      </trkpt>
      <trkpt lat="45.9192" lon="4.58819">
        <ele>333</ele>
        <time>2017-05-05T10:13:59Z</time>
      </trkpt>
      <trkpt lat="45.91914" lon="4.58832">
        <ele>333</ele>
        <time>2017-05-05T10:14:00Z</time>
      </trkpt>
      <trkpt lat="45.91908" lon="4.58845">
        <ele>331</ele>
        <time>2017-05-05T10:14:01Z</time>
      </trkpt>
      <trkpt lat="45.91902" lon="4.58858">
        <ele>330</ele>
        <time>2017-05-05T10:14:02Z</time>
      </trkpt>
      <trkpt lat="45.91895" lon="4.58871">
        <ele>330</ele>
        <time>2017-05-05T10:14:03Z</time>
      </trkpt>
      <trkpt lat="45.91889" lon="4.58884">
        <ele>329</ele>
        <time>2017-05-05T10:14:04Z</time>
      </trkpt>
      <trkpt lat="45.91883" lon="4.58897">
        <ele>329</ele>
        <time>2017-05-05T10:14:05Z</time>
      </trkpt>
      <trkpt lat="45.91877" lon="4.5891">
        <ele>329</ele>
        <time>2017-05-05T10:14:06Z</time>
      </trkpt>
      <trkpt lat="45.91871" lon="4.58922">
        <ele>325</ele>
        <time>2017-05-05T10:14:07Z</time>
      </trkpt>
      <trkpt lat="45.91864" lon="4.58935">
        <ele>325</ele>
        <time>2017-05-05T10:14:08Z</time>
      </trkpt>
      <trkpt lat="45.91857" lon="4.58947">
        <ele>325</ele>
        <time>2017-05-05T10:14:09Z</time>
      </trkpt>
      <trkpt lat="45.9185" lon="4.58959">
        <ele>324</ele>
        <time>2017-05-05T10:14:10Z</time>
      </trkpt>
      <trkpt lat="45.91842" lon="4.5897">
        <ele>324</ele>
        <time>2017-05-05T10:14:11Z</time>
      </trkpt>
      <trkpt lat="45.91834" lon="4.5898">
        <ele>323</ele>
        <time>2017-05-05T10:14:12Z</time>
      </trkpt>
      <trkpt lat="45.91825" lon="4.5899">
        <ele>323</ele>
        <time>2017-05-05T10:14:13Z</time>
      </trkpt>
      <trkpt lat="45.91816" lon="4.58999">
        <ele>323</ele>
        <time>2017-05-05T10:14:14Z</time>
      </trkpt>
      <trkpt lat="45.91807" lon="4.59009">
        <ele>319</ele>
        <time>2017-05-05T10:14:15Z</time>
      </trkpt>
      <trkpt lat="45.91798" lon="4.59019">
        <ele>319</ele>
        <time>2017-05-05T10:14:16Z</time>
      </trkpt>
      <trkpt lat="45.91789" lon="4.59029">
        <ele>318</ele>
        <time>2017-05-05T10:14:17Z</time>
      </trkpt>
      <trkpt lat="45.9178" lon="4.5904">
        <ele>318</ele>
        <time>2017-05-05T10:14:18Z</time>
      </trkpt>
      <trkpt lat="45.91772" lon="4.59052">
        <ele>318</ele>
        <time>2017-05-05T10:14:19Z</time>
      </trkpt>
      <trkpt lat="45.91763" lon="4.59064">
        <ele>317</ele>
        <time>2017-05-05T10:14:20Z</time>
      </trkpt>
      <trkpt lat="45.91755" lon="4.59077">
        <ele>316</ele>
        <time>2017-05-05T10:14:21Z</time>
      </trkpt>
      <trkpt lat="45.91747" lon="4.59089">
        <ele>315</ele>
        <time>2017-05-05T10:14:22Z</time>
      </trkpt>
      <trkpt lat="45.91739" lon="4.59102">
        <ele>314</ele>
        <time>2017-05-05T10:14:23Z</time>
      </trkpt>
      <trkpt lat="45.91731" lon="4.59114">
        <ele>313</ele>
        <time>2017-05-05T10:14:24Z</time>
      </trkpt>
      <trkpt lat="45.91723" lon="4.59126">
        <ele>312</ele>
        <time>2017-05-05T10:14:25Z</time>
      </trkpt>
      <trkpt lat="45.91714" lon="4.59138">
        <ele>312</ele>
        <time>2017-05-05T10:14:26Z</time>
      </trkpt>
      <trkpt lat="45.91706" lon="4.5915">
        <ele>312</ele>
        <time>2017-05-05T10:14:27Z</time>
      </trkpt>
      <trkpt lat="45.91697" lon="4.59161">
        <ele>312</ele>
        <time>2017-05-05T10:14:28Z</time>
      </trkpt>
      <trkpt lat="45.91689" lon="4.59173">
        <ele>308</ele>
        <time>2017-05-05T10:14:29Z</time>
      </trkpt>
      <trkpt lat="45.9168" lon="4.59184">
        <ele>308</ele>
        <time>2017-05-05T10:14:30Z</time>
      </trkpt>
      <trkpt lat="45.91672" lon="4.59197">
        <ele>308</ele>
        <time>2017-05-05T10:14:31Z</time>
      </trkpt>
      <trkpt lat="45.91664" lon="4.59209">
        <ele>308</ele>
        <time>2017-05-05T10:14:32Z</time>
      </trkpt>
      <trkpt lat="45.91655" lon="4.59221">
        <ele>308</ele>
        <time>2017-05-05T10:14:33Z</time>
      </trkpt>
      <trkpt lat="45.91647" lon="4.59233">
        <ele>307</ele>
        <time>2017-05-05T10:14:34Z</time>
      </trkpt>
      <trkpt lat="45.9164" lon="4.59245">
        <ele>307</ele>
        <time>2017-05-05T10:14:35Z</time>
      </trkpt>
      <trkpt lat="45.91632" lon="4.59256">
        <ele>303</ele>
        <time>2017-05-05T10:14:36Z</time>
      </trkpt>
      <trkpt lat="45.91625" lon="4.59266">
        <ele>303</ele>
        <time>2017-05-05T10:14:37Z</time>
      </trkpt>
      <trkpt lat="45.91617" lon="4.59276">
        <ele>303</ele>
        <time>2017-05-05T10:14:38Z</time>
      </trkpt>
      <trkpt lat="45.9161" lon="4.59285">
        <ele>302</ele>
        <time>2017-05-05T10:14:39Z</time>
      </trkpt>
      <trkpt lat="45.91602" lon="4.59294">
        <ele>302</ele>
        <time>2017-05-05T10:14:40Z</time>
      </trkpt>
      <trkpt lat="45.91594" lon="4.59302">
        <ele>301</ele>
        <time>2017-05-05T10:14:41Z</time>
      </trkpt>
      <trkpt lat="45.91586" lon="4.5931">
        <ele>300</ele>
        <time>2017-05-05T10:14:42Z</time>
      </trkpt>
      <trkpt lat="45.91579" lon="4.5932">
        <ele>297</ele>
        <time>2017-05-05T10:14:43Z</time>
      </trkpt>
      <trkpt lat="45.91572" lon="4.59331">
        <ele>297</ele>
        <time>2017-05-05T10:14:44Z</time>
      </trkpt>
      <trkpt lat="45.91566" lon="4.59345">
        <ele>294</ele>
        <time>2017-05-05T10:14:45Z</time>
      </trkpt>
      <trkpt lat="45.91562" lon="4.59359">
        <ele>293</ele>
        <time>2017-05-05T10:14:46Z</time>
      </trkpt>
      <trkpt lat="45.91559" lon="4.59375">
        <ele>292</ele>
        <time>2017-05-05T10:14:47Z</time>
      </trkpt>
      <trkpt lat="45.91558" lon="4.5939">
        <ele>292</ele>
        <time>2017-05-05T10:14:48Z</time>
      </trkpt>
      <trkpt lat="45.91557" lon="4.59405">
        <ele>292</ele>
        <time>2017-05-05T10:14:49Z</time>
      </trkpt>
      <trkpt lat="45.91556" lon="4.5942">
        <ele>292</ele>
        <time>2017-05-05T10:14:50Z</time>
      </trkpt>
      <trkpt lat="45.91555" lon="4.59434">
        <ele>293</ele>
        <time>2017-05-05T10:14:51Z</time>
      </trkpt>
      <trkpt lat="45.91553" lon="4.59447">
        <ele>293</ele>
        <time>2017-05-05T10:14:52Z</time>
      </trkpt>
      <trkpt lat="45.91552" lon="4.5946">
        <ele>294</ele>
        <time>2017-05-05T10:14:53Z</time>
      </trkpt>
      <trkpt lat="45.9155" lon="4.59472">
        <ele>294</ele>
        <time>2017-05-05T10:14:54Z</time>
      </trkpt>
      <trkpt lat="45.91549" lon="4.59483">
        <ele>294</ele>
        <time>2017-05-05T10:14:55Z</time>
      </trkpt>
      <trkpt lat="45.91547" lon="4.59494">
        <ele>295</ele>
        <time>2017-05-05T10:14:56Z</time>
      </trkpt>
      <trkpt lat="45.91545" lon="4.59503">
        <ele>299</ele>
        <time>2017-05-05T10:14:57Z</time>
      </trkpt>
      <trkpt lat="45.91543" lon="4.59512">
        <ele>299</ele>
        <time>2017-05-05T10:14:58Z</time>
      </trkpt>
      <trkpt lat="45.9154" lon="4.5952">
        <ele>299</ele>
        <time>2017-05-05T10:14:59Z</time>
      </trkpt>
      <trkpt lat="45.91537" lon="4.59526">
        <ele>300</ele>
        <time>2017-05-05T10:15:00Z</time>
      </trkpt>
      <trkpt lat="45.91534" lon="4.59531">
        <ele>300</ele>
        <time>2017-05-05T10:15:01Z</time>
      </trkpt>
      <trkpt lat="45.91528" lon="4.5954">
        <ele>300</ele>
        <time>2017-05-05T10:15:03Z</time>
      </trkpt>
      <trkpt lat="45.91525" lon="4.59544">
        <ele>300</ele>
        <time>2017-05-05T10:15:04Z</time>
      </trkpt>
      <trkpt lat="45.91519" lon="4.5955">
        <ele>300</ele>
        <time>2017-05-05T10:15:06Z</time>
      </trkpt>
      <trkpt lat="45.91516" lon="4.59552">
        <ele>301</ele>
        <time>2017-05-05T10:15:07Z</time>
      </trkpt>
      <trkpt lat="45.91509" lon="4.59556">
        <ele>301</ele>
        <time>2017-05-05T10:15:09Z</time>
      </trkpt>
      <trkpt lat="45.91506" lon="4.59558">
        <ele>301</ele>
        <time>2017-05-05T10:15:10Z</time>
      </trkpt>
      <trkpt lat="45.91499" lon="4.59562">
        <ele>302</ele>
        <time>2017-05-05T10:15:12Z</time>
      </trkpt>
      <trkpt lat="45.91495" lon="4.59564">
        <ele>302</ele>
        <time>2017-05-05T10:15:13Z</time>
      </trkpt>
      <trkpt lat="45.91488" lon="4.59568">
        <ele>302</ele>
        <time>2017-05-05T10:15:15Z</time>
      </trkpt>
      <trkpt lat="45.91485" lon="4.5957">
        <ele>302</ele>
        <time>2017-05-05T10:15:16Z</time>
      </trkpt>
      <trkpt lat="45.91478" lon="4.59574">
        <ele>302</ele>
        <time>2017-05-05T10:15:18Z</time>
      </trkpt>
      <trkpt lat="45.91475" lon="4.59575">
        <ele>302</ele>
        <time>2017-05-05T10:15:19Z</time>
      </trkpt>
      <trkpt lat="45.91467" lon="4.59578">
        <ele>302</ele>
        <time>2017-05-05T10:15:22Z</time>
      </trkpt>
      <trkpt lat="45.91464" lon="4.59578">
        <ele>302</ele>
        <time>2017-05-05T10:15:23Z</time>
      </trkpt>
      <trkpt lat="45.91457" lon="4.59578">
        <ele>302</ele>
        <time>2017-05-05T10:15:25Z</time>
      </trkpt>
      <trkpt lat="45.91454" lon="4.59578">
        <ele>303</ele>
        <time>2017-05-05T10:15:26Z</time>
      </trkpt>
      <trkpt lat="45.91447" lon="4.5958">
        <ele>303</ele>
        <time>2017-05-05T10:15:28Z</time>
      </trkpt>
      <trkpt lat="45.91444" lon="4.5958">
        <ele>303</ele>
        <time>2017-05-05T10:15:29Z</time>
      </trkpt>
      <trkpt lat="45.91437" lon="4.59581">
        <ele>304</ele>
        <time>2017-05-05T10:15:31Z</time>
      </trkpt>
      <trkpt lat="45.91434" lon="4.59582">
        <ele>304</ele>
        <time>2017-05-05T10:15:32Z</time>
      </trkpt>
      <trkpt lat="45.91428" lon="4.59582">
        <ele>304</ele>
        <time>2017-05-05T10:15:34Z</time>
      </trkpt>
      <trkpt lat="45.91425" lon="4.59583">
        <ele>305</ele>
        <time>2017-05-05T10:15:35Z</time>
      </trkpt>
      <trkpt lat="45.91418" lon="4.59583">
        <ele>306</ele>
        <time>2017-05-05T10:15:37Z</time>
      </trkpt>
      <trkpt lat="45.91416" lon="4.59583">
        <ele>306</ele>
        <time>2017-05-05T10:15:38Z</time>
      </trkpt>
      <trkpt lat="45.91409" lon="4.5958">
        <ele>306</ele>
        <time>2017-05-05T10:15:40Z</time>
      </trkpt>
      <trkpt lat="45.91406" lon="4.59579">
        <ele>306</ele>
        <time>2017-05-05T10:15:41Z</time>
      </trkpt>
      <trkpt lat="45.914" lon="4.59571">
        <ele>306</ele>
        <time>2017-05-05T10:15:44Z</time>
      </trkpt>
      <trkpt lat="45.91399" lon="4.59567">
        <ele>306</ele>
        <time>2017-05-05T10:15:45Z</time>
      </trkpt>
      <trkpt lat="45.91396" lon="4.59557">
        <ele>306</ele>
        <time>2017-05-05T10:15:48Z</time>
      </trkpt>
      <trkpt lat="45.91396" lon="4.59554">
        <ele>306</ele>
        <time>2017-05-05T10:15:49Z</time>
      </trkpt>
      <trkpt lat="45.91394" lon="4.59542">
        <ele>306</ele>
        <time>2017-05-05T10:15:53Z</time>
      </trkpt>
      <trkpt lat="45.91394" lon="4.59539">
        <ele>306</ele>
        <time>2017-05-05T10:15:54Z</time>
      </trkpt>
      <trkpt lat="45.91389" lon="4.59528">
        <ele>306</ele>
        <time>2017-05-05T10:15:58Z</time>
      </trkpt>
      <trkpt lat="45.91389" lon="4.59526">
        <ele>306</ele>
        <time>2017-05-05T10:15:59Z</time>
      </trkpt>
      <trkpt lat="45.91384" lon="4.59518">
        <ele>306</ele>
        <time>2017-05-05T10:16:02Z</time>
      </trkpt>
      <trkpt lat="45.91382" lon="4.59516">
        <ele>306</ele>
        <time>2017-05-05T10:16:03Z</time>
      </trkpt>
      <trkpt lat="45.91377" lon="4.59507">
        <ele>306</ele>
        <time>2017-05-05T10:16:06Z</time>
      </trkpt>
      <trkpt lat="45.91375" lon="4.59505">
        <ele>306</ele>
        <time>2017-05-05T10:16:07Z</time>
      </trkpt>
      <trkpt lat="45.91367" lon="4.59504">
        <ele>307</ele>
        <time>2017-05-05T10:16:10Z</time>
      </trkpt>
      <trkpt lat="45.91364" lon="4.59505">
        <ele>307</ele>
        <time>2017-05-05T10:16:11Z</time>
      </trkpt>
      <trkpt lat="45.91357" lon="4.59507">
        <ele>307</ele>
        <time>2017-05-05T10:16:14Z</time>
      </trkpt>
      <trkpt lat="45.91355" lon="4.59509">
        <ele>307</ele>
        <time>2017-05-05T10:16:15Z</time>
      </trkpt>
      <trkpt lat="45.9135" lon="4.59517">
        <ele>308</ele>
        <time>2017-05-05T10:16:18Z</time>
      </trkpt>
      <trkpt lat="45.91349" lon="4.59519">
        <ele>308</ele>
        <time>2017-05-05T10:16:19Z</time>
      </trkpt>
      <trkpt lat="45.91343" lon="4.59526">
        <ele>308</ele>
        <time>2017-05-05T10:16:22Z</time>
      </trkpt>
      <trkpt lat="45.91342" lon="4.59528">
        <ele>308</ele>
        <time>2017-05-05T10:16:23Z</time>
      </trkpt>
      <trkpt lat="45.91336" lon="4.59535">
        <ele>308</ele>
        <time>2017-05-05T10:16:26Z</time>
      </trkpt>
      <trkpt lat="45.91334" lon="4.59537">
        <ele>308</ele>
        <time>2017-05-05T10:16:27Z</time>
      </trkpt>
      <trkpt lat="45.91328" lon="4.59542">
        <ele>311</ele>
        <time>2017-05-05T10:16:30Z</time>
      </trkpt>
      <trkpt lat="45.91327" lon="4.59544">
        <ele>311</ele>
        <time>2017-05-05T10:16:31Z</time>
      </trkpt>
      <trkpt lat="45.91322" lon="4.59552">
        <ele>311</ele>
        <time>2017-05-05T10:16:34Z</time>
      </trkpt>
      <trkpt lat="45.9132" lon="4.59554">
        <ele>311</ele>
        <time>2017-05-05T10:16:35Z</time>
      </trkpt>
      <trkpt lat="45.91314" lon="4.59561">
        <ele>311</ele>
        <time>2017-05-05T10:16:38Z</time>
      </trkpt>
      <trkpt lat="45.91312" lon="4.59563">
        <ele>311</ele>
        <time>2017-05-05T10:16:39Z</time>
      </trkpt>
      <trkpt lat="45.91306" lon="4.5957">
        <ele>311</ele>
        <time>2017-05-05T10:16:42Z</time>
      </trkpt>
      <trkpt lat="45.91304" lon="4.59572">
        <ele>312</ele>
        <time>2017-05-05T10:16:43Z</time>
      </trkpt>
      <trkpt lat="45.91299" lon="4.5958">
        <ele>312</ele>
        <time>2017-05-05T10:16:46Z</time>
      </trkpt>
      <trkpt lat="45.91297" lon="4.59583">
        <ele>312</ele>
        <time>2017-05-05T10:16:47Z</time>
      </trkpt>
      <trkpt lat="45.91292" lon="4.59591">
        <ele>313</ele>
        <time>2017-05-05T10:16:50Z</time>
      </trkpt>
      <trkpt lat="45.9129" lon="4.59594">
        <ele>313</ele>
        <time>2017-05-05T10:16:51Z</time>
      </trkpt>
      <trkpt lat="45.91285" lon="4.59603">
        <ele>313</ele>
        <time>2017-05-05T10:16:54Z</time>
      </trkpt>
      <trkpt lat="45.91284" lon="4.59606">
        <ele>313</ele>
        <time>2017-05-05T10:16:55Z</time>
      </trkpt>
      <trkpt lat="45.91278" lon="4.59613">
        <ele>314</ele>
        <time>2017-05-05T10:16:58Z</time>
      </trkpt>
      <trkpt lat="45.91275" lon="4.59614">
        <ele>314</ele>
        <time>2017-05-05T10:16:59Z</time>
      </trkpt>
      <trkpt lat="45.91268" lon="4.59619">
        <ele>314</ele>
        <time>2017-05-05T10:17:02Z</time>
      </trkpt>
      <trkpt lat="45.91265" lon="4.59621">
        <ele>314</ele>
        <time>2017-05-05T10:17:03Z</time>
      </trkpt>
      <trkpt lat="45.91257" lon="4.59624">
        <ele>314</ele>
        <time>2017-05-05T10:17:06Z</time>
      </trkpt>
      <trkpt lat="45.91254" lon="4.59625">
        <ele>314</ele>
        <time>2017-05-05T10:17:07Z</time>
      </trkpt>
      <trkpt lat="45.91246" lon="4.59626">
        <ele>315</ele>
        <time>2017-05-05T10:17:10Z</time>
      </trkpt>
      <trkpt lat="45.91244" lon="4.59626">
        <ele>315</ele>
        <time>2017-05-05T10:17:11Z</time>
      </trkpt>
      <trkpt lat="45.91236" lon="4.59627">
        <ele>315</ele>
        <time>2017-05-05T10:17:14Z</time>
      </trkpt>
      <trkpt lat="45.91234" lon="4.59628">
        <ele>315</ele>
        <time>2017-05-05T10:17:15Z</time>
      </trkpt>
      <trkpt lat="45.91226" lon="4.59631">
        <ele>315</ele>
        <time>2017-05-05T10:17:18Z</time>
      </trkpt>
      <trkpt lat="45.91224" lon="4.59632">
        <ele>316</ele>
        <time>2017-05-05T10:17:19Z</time>
      </trkpt>
      <trkpt lat="45.91216" lon="4.59635">
        <ele>316</ele>
        <time>2017-05-05T10:17:22Z</time>
      </trkpt>
      <trkpt lat="45.91214" lon="4.59636">
        <ele>316</ele>
        <time>2017-05-05T10:17:23Z</time>
      </trkpt>
      <trkpt lat="45.91206" lon="4.59639">
        <ele>316</ele>
        <time>2017-05-05T10:17:26Z</time>
      </trkpt>
      <trkpt lat="45.91204" lon="4.59639">
        <ele>316</ele>
        <time>2017-05-05T10:17:27Z</time>
      </trkpt>
      <trkpt lat="45.91196" lon="4.59643">
        <ele>316</ele>
        <time>2017-05-05T10:17:30Z</time>
      </trkpt>
      <trkpt lat="45.91194" lon="4.59644">
        <ele>316</ele>
        <time>2017-05-05T10:17:31Z</time>
      </trkpt>
      <trkpt lat="45.91186" lon="4.59646">
        <ele>316</ele>
        <time>2017-05-05T10:17:34Z</time>
      </trkpt>
      <trkpt lat="45.91184" lon="4.59646">
        <ele>316</ele>
        <time>2017-05-05T10:17:35Z</time>
      </trkpt>
      <trkpt lat="45.91177" lon="4.59647">
        <ele>316</ele>
        <time>2017-05-05T10:17:38Z</time>
      </trkpt>
      <trkpt lat="45.91174" lon="4.59647">
        <ele>316</ele>
        <time>2017-05-05T10:17:39Z</time>
      </trkpt>
      <trkpt lat="45.91167" lon="4.5965">
        <ele>317</ele>
        <time>2017-05-05T10:17:42Z</time>
      </trkpt>
      <trkpt lat="45.91164" lon="4.59651">
        <ele>317</ele>
        <time>2017-05-05T10:17:43Z</time>
      </trkpt>
      <trkpt lat="45.91156" lon="4.59654">
        <ele>317</ele>
        <time>2017-05-05T10:17:46Z</time>
      </trkpt>
      <trkpt lat="45.91154" lon="4.59655">
        <ele>317</ele>
        <time>2017-05-05T10:17:47Z</time>
      </trkpt>
      <trkpt lat="45.91146" lon="4.59657">
        <ele>317</ele>
        <time>2017-05-05T10:17:50Z</time>
      </trkpt>
      <trkpt lat="45.91144" lon="4.59658">
        <ele>317</ele>
        <time>2017-05-05T10:17:51Z</time>
      </trkpt>
      <trkpt lat="45.91136" lon="4.59661">
        <ele>318</ele>
        <time>2017-05-05T10:17:54Z</time>
      </trkpt>
      <trkpt lat="45.91133" lon="4.59662">
        <ele>318</ele>
        <time>2017-05-05T10:17:55Z</time>
      </trkpt>
      <trkpt lat="45.91125" lon="4.59664">
        <ele>318</ele>
        <time>2017-05-05T10:17:58Z</time>
      </trkpt>
      <trkpt lat="45.91122" lon="4.59665">
        <ele>318</ele>
        <time>2017-05-05T10:17:59Z</time>
      </trkpt>
      <trkpt lat="45.91114" lon="4.59667">
        <ele>317</ele>
        <time>2017-05-05T10:18:02Z</time>
      </trkpt>
      <trkpt lat="45.91111" lon="4.59668">
        <ele>317</ele>
        <time>2017-05-05T10:18:03Z</time>
      </trkpt>
      <trkpt lat="45.91103" lon="4.59669">
        <ele>318</ele>
        <time>2017-05-05T10:18:06Z</time>
      </trkpt>
      <trkpt lat="45.91101" lon="4.5967">
        <ele>318</ele>
        <time>2017-05-05T10:18:07Z</time>
      </trkpt>
      <trkpt lat="45.91092" lon="4.59672">
        <ele>318</ele>
        <time>2017-05-05T10:18:10Z</time>
      </trkpt>
      <trkpt lat="45.91089" lon="4.59673">
        <ele>318</ele>
        <time>2017-05-05T10:18:11Z</time>
      </trkpt>
      <trkpt lat="45.91083" lon="4.59674">
        <ele>319</ele>
        <time>2017-05-05T10:18:13Z</time>
      </trkpt>
      <trkpt lat="45.9108" lon="4.59674">
        <ele>319</ele>
        <time>2017-05-05T10:18:14Z</time>
      </trkpt>
      <trkpt lat="45.91074" lon="4.59674">
        <ele>319</ele>
        <time>2017-05-05T10:18:16Z</time>
      </trkpt>
      <trkpt lat="45.91071" lon="4.59675">
        <ele>319</ele>
        <time>2017-05-05T10:18:17Z</time>
      </trkpt>
      <trkpt lat="45.91062" lon="4.59677">
        <ele>320</ele>
        <time>2017-05-05T10:18:20Z</time>
      </trkpt>
      <trkpt lat="45.91059" lon="4.59679">
        <ele>320</ele>
        <time>2017-05-05T10:18:21Z</time>
      </trkpt>
      <trkpt lat="45.91053" lon="4.59683">
        <ele>320</ele>
        <time>2017-05-05T10:18:23Z</time>
      </trkpt>
      <trkpt lat="45.9105" lon="4.59685">
        <ele>320</ele>
        <time>2017-05-05T10:18:24Z</time>
      </trkpt>
      <trkpt lat="45.91044" lon="4.5969">
        <ele>320</ele>
        <time>2017-05-05T10:18:26Z</time>
      </trkpt>
      <trkpt lat="45.91041" lon="4.59692">
        <ele>320</ele>
        <time>2017-05-05T10:18:27Z</time>
      </trkpt>
      <trkpt lat="45.91036" lon="4.59696">
        <ele>320</ele>
        <time>2017-05-05T10:18:29Z</time>
      </trkpt>
      <trkpt lat="45.91033" lon="4.59698">
        <ele>320</ele>
        <time>2017-05-05T10:18:30Z</time>
      </trkpt>
      <trkpt lat="45.91028" lon="4.59703">
        <ele>320</ele>
        <time>2017-05-05T10:18:32Z</time>
      </trkpt>
      <trkpt lat="45.91025" lon="4.59705">
        <ele>320</ele>
        <time>2017-05-05T10:18:33Z</time>
      </trkpt>
      <trkpt lat="45.91019" lon="4.5971">
        <ele>320</ele>
        <time>2017-05-05T10:18:35Z</time>
      </trkpt>
      <trkpt lat="45.91017" lon="4.59713">
        <ele>321</ele>
        <time>2017-05-05T10:18:36Z</time>
      </trkpt>
      <trkpt lat="45.91011" lon="4.59717">
        <ele>321</ele>
        <time>2017-05-05T10:18:38Z</time>
      </trkpt>
      <trkpt lat="45.91008" lon="4.5972">
        <ele>321</ele>
        <time>2017-05-05T10:18:39Z</time>
      </trkpt>
      <trkpt lat="45.91002" lon="4.59725">
        <ele>321</ele>
        <time>2017-05-05T10:18:41Z</time>
      </trkpt>
      <trkpt lat="45.91" lon="4.59727">
        <ele>323</ele>
        <time>2017-05-05T10:18:42Z</time>
      </trkpt>
      <trkpt lat="45.90994" lon="4.59731">
        <ele>323</ele>
        <time>2017-05-05T10:18:44Z</time>
      </trkpt>
      <trkpt lat="45.9099" lon="4.59733">
        <ele>323</ele>
        <time>2017-05-05T10:18:45Z</time>
      </trkpt>
      <trkpt lat="45.90983" lon="4.59738">
        <ele>323</ele>
        <time>2017-05-05T10:18:47Z</time>
      </trkpt>
      <trkpt lat="45.90979" lon="4.5974">
        <ele>323</ele>
        <time>2017-05-05T10:18:48Z</time>
      </trkpt>
      <trkpt lat="45.90974" lon="4.59742">
        <ele>323</ele>
        <time>2017-05-05T10:18:49Z</time>
      </trkpt>
      <trkpt lat="45.90969" lon="4.59743">
        <ele>323</ele>
        <time>2017-05-05T10:18:50Z</time>
      </trkpt>
      <trkpt lat="45.90961" lon="4.59747">
        <ele>323</ele>
        <time>2017-05-05T10:18:52Z</time>
      </trkpt>
      <trkpt lat="45.90957" lon="4.59749">
        <ele>323</ele>
        <time>2017-05-05T10:18:53Z</time>
      </trkpt>
      <trkpt lat="45.9095" lon="4.59752">
        <ele>323</ele>
        <time>2017-05-05T10:18:55Z</time>
      </trkpt>
      <trkpt lat="45.90947" lon="4.59753">
        <ele>323</ele>
        <time>2017-05-05T10:18:56Z</time>
      </trkpt>
      <trkpt lat="45.9094" lon="4.59755">
        <ele>323</ele>
        <time>2017-05-05T10:18:58Z</time>
      </trkpt>
      <trkpt lat="45.90937" lon="4.59757">
        <ele>323</ele>
        <time>2017-05-05T10:18:59Z</time>
      </trkpt>
      <trkpt lat="45.90929" lon="4.59759">
        <ele>323</ele>
        <time>2017-05-05T10:19:01Z</time>
      </trkpt>
      <trkpt lat="45.90925" lon="4.5976">
        <ele>323</ele>
        <time>2017-05-05T10:19:02Z</time>
      </trkpt>
      <trkpt lat="45.90918" lon="4.59762">
        <ele>323</ele>
        <time>2017-05-05T10:19:04Z</time>
      </trkpt>
      <trkpt lat="45.90915" lon="4.59764">
        <ele>324</ele>
        <time>2017-05-05T10:19:05Z</time>
      </trkpt>
      <trkpt lat="45.90908" lon="4.59765">
        <ele>324</ele>
        <time>2017-05-05T10:19:07Z</time>
      </trkpt>
      <trkpt lat="45.90905" lon="4.59766">
        <ele>324</ele>
        <time>2017-05-05T10:19:08Z</time>
      </trkpt>
      <trkpt lat="45.90897" lon="4.59767">
        <ele>324</ele>
        <time>2017-05-05T10:19:10Z</time>
      </trkpt>
      <trkpt lat="45.90893" lon="4.59768">
        <ele>324</ele>
        <time>2017-05-05T10:19:11Z</time>
      </trkpt>
      <trkpt lat="45.90888" lon="4.59769">
        <ele>324</ele>
        <time>2017-05-05T10:19:12Z</time>
      </trkpt>
      <trkpt lat="45.90884" lon="4.5977">
        <ele>324</ele>
        <time>2017-05-05T10:19:13Z</time>
      </trkpt>
      <trkpt lat="45.90875" lon="4.59771">
        <ele>324</ele>
        <time>2017-05-05T10:19:15Z</time>
      </trkpt>
      <trkpt lat="45.90871" lon="4.59772">
        <ele>324</ele>
        <time>2017-05-05T10:19:16Z</time>
      </trkpt>
      <trkpt lat="45.90865" lon="4.59774">
        <ele>324</ele>
        <time>2017-05-05T10:19:18Z</time>
      </trkpt>
      <trkpt lat="45.90862" lon="4.59775">
        <ele>324</ele>
        <time>2017-05-05T10:19:19Z</time>
      </trkpt>
      <trkpt lat="45.90855" lon="4.59777">
        <ele>324</ele>
        <time>2017-05-05T10:19:21Z</time>
      </trkpt>
      <trkpt lat="45.90851" lon="4.59778">
        <ele>324</ele>
        <time>2017-05-05T10:19:22Z</time>
      </trkpt>
      <trkpt lat="45.90845" lon="4.5978">
        <ele>324</ele>
        <time>2017-05-05T10:19:24Z</time>
      </trkpt>
      <trkpt lat="45.90842" lon="4.59782">
        <ele>324</ele>
        <time>2017-05-05T10:19:25Z</time>
      </trkpt>
      <trkpt lat="45.90834" lon="4.59784">
        <ele>324</ele>
        <time>2017-05-05T10:19:27Z</time>
      </trkpt>
      <trkpt lat="45.90831" lon="4.59786">
        <ele>325</ele>
        <time>2017-05-05T10:19:28Z</time>
      </trkpt>
      <trkpt lat="45.90825" lon="4.59791">
        <ele>325</ele>
        <time>2017-05-05T10:19:30Z</time>
      </trkpt>
      <trkpt lat="45.90821" lon="4.59793">
        <ele>325</ele>
        <time>2017-05-05T10:19:31Z</time>
      </trkpt>
      <trkpt lat="45.90815" lon="4.59798">
        <ele>325</ele>
        <time>2017-05-05T10:19:33Z</time>
      </trkpt>
      <trkpt lat="45.90811" lon="4.598">
        <ele>325</ele>
        <time>2017-05-05T10:19:34Z</time>
      </trkpt>
      <trkpt lat="45.90803" lon="4.59804">
        <ele>325</ele>
        <time>2017-05-05T10:19:36Z</time>
      </trkpt>
      <trkpt lat="45.908" lon="4.59807">
        <ele>325</ele>
        <time>2017-05-05T10:19:37Z</time>
      </trkpt>
      <trkpt lat="45.90793" lon="4.59811">
        <ele>325</ele>
        <time>2017-05-05T10:19:39Z</time>
      </trkpt>
      <trkpt lat="45.9079" lon="4.59814">
        <ele>325</ele>
        <time>2017-05-05T10:19:40Z</time>
      </trkpt>
      <trkpt lat="45.90784" lon="4.5982">
        <ele>325</ele>
        <time>2017-05-05T10:19:42Z</time>
      </trkpt>
      <trkpt lat="45.9078" lon="4.59822">
        <ele>325</ele>
        <time>2017-05-05T10:19:43Z</time>
      </trkpt>
      <trkpt lat="45.90773" lon="4.59828">
        <ele>325</ele>
        <time>2017-05-05T10:19:45Z</time>
      </trkpt>
      <trkpt lat="45.9077" lon="4.59831">
        <ele>325</ele>
        <time>2017-05-05T10:19:46Z</time>
      </trkpt>
      <trkpt lat="45.90762" lon="4.59838">
        <ele>323</ele>
        <time>2017-05-05T10:19:48Z</time>
      </trkpt>
      <trkpt lat="45.90758" lon="4.59842">
        <ele>323</ele>
        <time>2017-05-05T10:19:49Z</time>
      </trkpt>
      <trkpt lat="45.90754" lon="4.59847">
        <ele>323</ele>
        <time>2017-05-05T10:19:50Z</time>
      </trkpt>
      <trkpt lat="45.9075" lon="4.59852">
        <ele>323</ele>
        <time>2017-05-05T10:19:51Z</time>
      </trkpt>
      <trkpt lat="45.90746" lon="4.59856">
        <ele>322</ele>
        <time>2017-05-05T10:19:52Z</time>
      </trkpt>
      <trkpt lat="45.90743" lon="4.5986">
        <ele>322</ele>
        <time>2017-05-05T10:19:53Z</time>
      </trkpt>
      <trkpt lat="45.90739" lon="4.59865">
        <ele>321</ele>
        <time>2017-05-05T10:19:54Z</time>
      </trkpt>
      <trkpt lat="45.90735" lon="4.59869">
        <ele>321</ele>
        <time>2017-05-05T10:19:55Z</time>
      </trkpt>
      <trkpt lat="45.90731" lon="4.59874">
        <ele>321</ele>
        <time>2017-05-05T10:19:56Z</time>
      </trkpt>
      <trkpt lat="45.90727" lon="4.5988">
        <ele>321</ele>
        <time>2017-05-05T10:19:57Z</time>
      </trkpt>
      <trkpt lat="45.90723" lon="4.59886">
        <ele>321</ele>
        <time>2017-05-05T10:19:58Z</time>
      </trkpt>
      <trkpt lat="45.90719" lon="4.59893">
        <ele>321</ele>
        <time>2017-05-05T10:19:59Z</time>
      </trkpt>
      <trkpt lat="45.90716" lon="4.59901">
        <ele>320</ele>
        <time>2017-05-05T10:20:00Z</time>
      </trkpt>
      <trkpt lat="45.90712" lon="4.59909">
        <ele>320</ele>
        <time>2017-05-05T10:20:01Z</time>
      </trkpt>
      <trkpt lat="45.90709" lon="4.59916">
        <ele>320</ele>
        <time>2017-05-05T10:20:02Z</time>
      </trkpt>
      <trkpt lat="45.90705" lon="4.59924">
        <ele>319</ele>
        <time>2017-05-05T10:20:03Z</time>
      </trkpt>
      <trkpt lat="45.90699" lon="4.59931">
        <ele>319</ele>
        <time>2017-05-05T10:20:04Z</time>
      </trkpt>
      <trkpt lat="45.90693" lon="4.59936">
        <ele>318</ele>
        <time>2017-05-05T10:20:05Z</time>
      </trkpt>
      <trkpt lat="45.90687" lon="4.59939">
        <ele>318</ele>
        <time>2017-05-05T10:20:06Z</time>
      </trkpt>
      <trkpt lat="45.90679" lon="4.59942">
        <ele>318</ele>
        <time>2017-05-05T10:20:07Z</time>
      </trkpt>
      <trkpt lat="45.90672" lon="4.59944">
        <ele>318</ele>
        <time>2017-05-05T10:20:08Z</time>
      </trkpt>
      <trkpt lat="45.90664" lon="4.59946">
        <ele>316</ele>
        <time>2017-05-05T10:20:09Z</time>
      </trkpt>
      <trkpt lat="45.90656" lon="4.59949">
        <ele>316</ele>
        <time>2017-05-05T10:20:10Z</time>
      </trkpt>
      <trkpt lat="45.90648" lon="4.59952">
        <ele>316</ele>
        <time>2017-05-05T10:20:11Z</time>
      </trkpt>
      <trkpt lat="45.90641" lon="4.59955">
        <ele>316</ele>
        <time>2017-05-05T10:20:12Z</time>
      </trkpt>
      <trkpt lat="45.90633" lon="4.59958">
        <ele>316</ele>
        <time>2017-05-05T10:20:13Z</time>
      </trkpt>
      <trkpt lat="45.90624" lon="4.5996">
        <ele>316</ele>
        <time>2017-05-05T10:20:14Z</time>
      </trkpt>
      <trkpt lat="45.90616" lon="4.59963">
        <ele>316</ele>
        <time>2017-05-05T10:20:15Z</time>
      </trkpt>
      <trkpt lat="45.90608" lon="4.59966">
        <ele>315</ele>
        <time>2017-05-05T10:20:16Z</time>
      </trkpt>
      <trkpt lat="45.906" lon="4.59969">
        <ele>315</ele>
        <time>2017-05-05T10:20:17Z</time>
      </trkpt>
      <trkpt lat="45.90591" lon="4.59972">
        <ele>315</ele>
        <time>2017-05-05T10:20:18Z</time>
      </trkpt>
      <trkpt lat="45.90583" lon="4.59975">
        <ele>314</ele>
        <time>2017-05-05T10:20:19Z</time>
      </trkpt>
      <trkpt lat="45.90574" lon="4.59977">
        <ele>314</ele>
        <time>2017-05-05T10:20:20Z</time>
      </trkpt>
      <trkpt lat="45.90566" lon="4.5998">
        <ele>314</ele>
        <time>2017-05-05T10:20:21Z</time>
      </trkpt>
      <trkpt lat="45.90558" lon="4.59982">
        <ele>314</ele>
        <time>2017-05-05T10:20:22Z</time>
      </trkpt>
      <trkpt lat="45.9055" lon="4.59985">
        <ele>314</ele>
        <time>2017-05-05T10:20:23Z</time>
      </trkpt>
      <trkpt lat="45.90542" lon="4.59987">
        <ele>314</ele>
        <time>2017-05-05T10:20:24Z</time>
      </trkpt>
      <trkpt lat="45.90534" lon="4.5999">
        <ele>314</ele>
        <time>2017-05-05T10:20:25Z</time>
      </trkpt>
      <trkpt lat="45.90527" lon="4.59992">
        <ele>314</ele>
        <time>2017-05-05T10:20:26Z</time>
      </trkpt>
      <trkpt lat="45.9052" lon="4.59994">
        <ele>313</ele>
        <time>2017-05-05T10:20:27Z</time>
      </trkpt>
      <trkpt lat="45.90513" lon="4.59997">
        <ele>313</ele>
        <time>2017-05-05T10:20:28Z</time>
      </trkpt>
      <trkpt lat="45.90506" lon="4.59999">
        <ele>313</ele>
        <time>2017-05-05T10:20:29Z</time>
      </trkpt>
      <trkpt lat="45.90499" lon="4.60001">
        <ele>312</ele>
        <time>2017-05-05T10:20:30Z</time>
      </trkpt>
      <trkpt lat="45.90492" lon="4.60003">
        <ele>312</ele>
        <time>2017-05-05T10:20:31Z</time>
      </trkpt>
      <trkpt lat="45.90486" lon="4.60005">
        <ele>311</ele>
        <time>2017-05-05T10:20:32Z</time>
      </trkpt>
      <trkpt lat="45.90479" lon="4.60007">
        <ele>311</ele>
        <time>2017-05-05T10:20:33Z</time>
      </trkpt>
      <trkpt lat="45.90473" lon="4.60009">
        <ele>311</ele>
        <time>2017-05-05T10:20:34Z</time>
      </trkpt>
      <trkpt lat="45.90466" lon="4.60011">
        <ele>311</ele>
        <time>2017-05-05T10:20:35Z</time>
      </trkpt>
      <trkpt lat="45.9046" lon="4.60014">
        <ele>311</ele>
        <time>2017-05-05T10:20:36Z</time>
      </trkpt>
      <trkpt lat="45.90453" lon="4.60016">
        <ele>311</ele>
        <time>2017-05-05T10:20:37Z</time>
      </trkpt>
      <trkpt lat="45.90447" lon="4.60019">
        <ele>311</ele>
        <time>2017-05-05T10:20:38Z</time>
      </trkpt>
      <trkpt lat="45.90441" lon="4.60021">
        <ele>311</ele>
        <time>2017-05-05T10:20:39Z</time>
      </trkpt>
      <trkpt lat="45.90434" lon="4.60024">
        <ele>311</ele>
        <time>2017-05-05T10:20:40Z</time>
      </trkpt>
      <trkpt lat="45.90428" lon="4.60026">
        <ele>311</ele>
        <time>2017-05-05T10:20:41Z</time>
      </trkpt>
      <trkpt lat="45.90422" lon="4.60028">
        <ele>311</ele>
        <time>2017-05-05T10:20:42Z</time>
      </trkpt>
      <trkpt lat="45.90416" lon="4.6003">
        <ele>313</ele>
        <time>2017-05-05T10:20:43Z</time>
      </trkpt>
      <trkpt lat="45.90409" lon="4.60032">
        <ele>313</ele>
        <time>2017-05-05T10:20:44Z</time>
      </trkpt>
      <trkpt lat="45.90403" lon="4.60033">
        <ele>313</ele>
        <time>2017-05-05T10:20:45Z</time>
      </trkpt>
      <trkpt lat="45.90397" lon="4.60035">
        <ele>313</ele>
        <time>2017-05-05T10:20:46Z</time>
      </trkpt>
      <trkpt lat="45.90391" lon="4.60037">
        <ele>313</ele>
        <time>2017-05-05T10:20:47Z</time>
      </trkpt>
      <trkpt lat="45.90385" lon="4.60039">
        <ele>313</ele>
        <time>2017-05-05T10:20:48Z</time>
      </trkpt>
      <trkpt lat="45.90379" lon="4.60041">
        <ele>313</ele>
        <time>2017-05-05T10:20:49Z</time>
      </trkpt>
      <trkpt lat="45.90373" lon="4.60043">
        <ele>313</ele>
        <time>2017-05-05T10:20:50Z</time>
      </trkpt>
      <trkpt lat="45.90368" lon="4.60045">
        <ele>313</ele>
        <time>2017-05-05T10:20:51Z</time>
      </trkpt>
      <trkpt lat="45.90363" lon="4.60047">
        <ele>313</ele>
        <time>2017-05-05T10:20:52Z</time>
      </trkpt>
      <trkpt lat="45.90358" lon="4.60049">
        <ele>313</ele>
        <time>2017-05-05T10:20:53Z</time>
      </trkpt>
      <trkpt lat="45.90353" lon="4.60051">
        <ele>313</ele>
        <time>2017-05-05T10:20:54Z</time>
      </trkpt>
      <trkpt lat="45.90348" lon="4.60053">
        <ele>313</ele>
        <time>2017-05-05T10:20:55Z</time>
      </trkpt>
      <trkpt lat="45.90343" lon="4.60055">
        <ele>313</ele>
        <time>2017-05-05T10:20:56Z</time>
      </trkpt>
      <trkpt lat="45.90338" lon="4.60057">
        <ele>313</ele>
        <time>2017-05-05T10:20:57Z</time>
      </trkpt>
      <trkpt lat="45.90332" lon="4.60059">
        <ele>316</ele>
        <time>2017-05-05T10:20:58Z</time>
      </trkpt>
      <trkpt lat="45.90327" lon="4.60061">
        <ele>315</ele>
        <time>2017-05-05T10:20:59Z</time>
      </trkpt>
      <trkpt lat="45.90322" lon="4.60063">
        <ele>315</ele>
        <time>2017-05-05T10:21:00Z</time>
      </trkpt>
      <trkpt lat="45.90316" lon="4.60064">
        <ele>316</ele>
        <time>2017-05-05T10:21:01Z</time>
      </trkpt>
      <trkpt lat="45.9031" lon="4.60066">
        <ele>316</ele>
        <time>2017-05-05T10:21:02Z</time>
      </trkpt>
      <trkpt lat="45.90304" lon="4.60067">
        <ele>316</ele>
        <time>2017-05-05T10:21:03Z</time>
      </trkpt>
      <trkpt lat="45.90299" lon="4.60069">
        <ele>316</ele>
        <time>2017-05-05T10:21:04Z</time>
      </trkpt>
      <trkpt lat="45.90293" lon="4.60071">
        <ele>316</ele>
        <time>2017-05-05T10:21:05Z</time>
      </trkpt>
      <trkpt lat="45.90288" lon="4.60073">
        <ele>316</ele>
        <time>2017-05-05T10:21:06Z</time>
      </trkpt>
      <trkpt lat="45.90282" lon="4.60075">
        <ele>316</ele>
        <time>2017-05-05T10:21:07Z</time>
      </trkpt>
      <trkpt lat="45.90277" lon="4.60075">
        <ele>316</ele>
        <time>2017-05-05T10:21:08Z</time>
      </trkpt>
      <trkpt lat="45.90273" lon="4.60076">
        <ele>316</ele>
        <time>2017-05-05T10:21:09Z</time>
      </trkpt>
      <trkpt lat="45.90267" lon="4.60077">
        <ele>316</ele>
        <time>2017-05-05T10:21:10Z</time>
      </trkpt>
      <trkpt lat="45.90262" lon="4.60079">
        <ele>316</ele>
        <time>2017-05-05T10:21:11Z</time>
      </trkpt>
      <trkpt lat="45.90256" lon="4.6008">
        <ele>316</ele>
        <time>2017-05-05T10:21:12Z</time>
      </trkpt>
      <trkpt lat="45.90249" lon="4.6008">
        <ele>315</ele>
        <time>2017-05-05T10:21:13Z</time>
      </trkpt>
      <trkpt lat="45.90243" lon="4.60082">
        <ele>315</ele>
        <time>2017-05-05T10:21:14Z</time>
      </trkpt>
      <trkpt lat="45.90236" lon="4.60083">
        <ele>315</ele>
        <time>2017-05-05T10:21:15Z</time>
      </trkpt>
      <trkpt lat="45.90229" lon="4.60084">
        <ele>310</ele>
        <time>2017-05-05T10:21:16Z</time>
      </trkpt>
      <trkpt lat="45.90222" lon="4.60086">
        <ele>309</ele>
        <time>2017-05-05T10:21:17Z</time>
      </trkpt>
      <trkpt lat="45.90215" lon="4.60088">
        <ele>309</ele>
        <time>2017-05-05T10:21:18Z</time>
      </trkpt>
      <trkpt lat="45.90209" lon="4.6009">
        <ele>308</ele>
        <time>2017-05-05T10:21:19Z</time>
      </trkpt>
      <trkpt lat="45.90202" lon="4.6009">
        <ele>308</ele>
        <time>2017-05-05T10:21:20Z</time>
      </trkpt>
      <trkpt lat="45.90197" lon="4.60092">
        <ele>308</ele>
        <time>2017-05-05T10:21:21Z</time>
      </trkpt>
      <trkpt lat="45.90191" lon="4.60094">
        <ele>308</ele>
        <time>2017-05-05T10:21:22Z</time>
      </trkpt>
      <trkpt lat="45.90185" lon="4.60097">
        <ele>308</ele>
        <time>2017-05-05T10:21:23Z</time>
      </trkpt>
      <trkpt lat="45.90179" lon="4.60098">
        <ele>308</ele>
        <time>2017-05-05T10:21:24Z</time>
      </trkpt>
      <trkpt lat="45.90172" lon="4.60101">
        <ele>308</ele>
        <time>2017-05-05T10:21:25Z</time>
      </trkpt>
      <trkpt lat="45.90166" lon="4.60103">
        <ele>307</ele>
        <time>2017-05-05T10:21:26Z</time>
      </trkpt>
      <trkpt lat="45.9016" lon="4.60105">
        <ele>307</ele>
        <time>2017-05-05T10:21:27Z</time>
      </trkpt>
      <trkpt lat="45.90153" lon="4.60108">
        <ele>306</ele>
        <time>2017-05-05T10:21:28Z</time>
      </trkpt>
      <trkpt lat="45.90146" lon="4.6011">
        <ele>306</ele>
        <time>2017-05-05T10:21:29Z</time>
      </trkpt>
      <trkpt lat="45.9014" lon="4.60112">
        <ele>306</ele>
        <time>2017-05-05T10:21:30Z</time>
      </trkpt>
      <trkpt lat="45.90134" lon="4.60114">
        <ele>306</ele>
        <time>2017-05-05T10:21:31Z</time>
      </trkpt>
      <trkpt lat="45.90127" lon="4.60116">
        <ele>306</ele>
        <time>2017-05-05T10:21:32Z</time>
      </trkpt>
      <trkpt lat="45.90121" lon="4.60118">
        <ele>306</ele>
        <time>2017-05-05T10:21:33Z</time>
      </trkpt>
      <trkpt lat="45.90115" lon="4.6012">
        <ele>305</ele>
        <time>2017-05-05T10:21:34Z</time>
      </trkpt>
      <trkpt lat="45.90109" lon="4.60122">
        <ele>305</ele>
        <time>2017-05-05T10:21:35Z</time>
      </trkpt>
      <trkpt lat="45.90103" lon="4.60123">
        <ele>305</ele>
        <time>2017-05-05T10:21:36Z</time>
      </trkpt>
      <trkpt lat="45.90097" lon="4.60125">
        <ele>305</ele>
        <time>2017-05-05T10:21:37Z</time>
      </trkpt>
      <trkpt lat="45.90092" lon="4.60127">
        <ele>305</ele>
        <time>2017-05-05T10:21:38Z</time>
      </trkpt>
      <trkpt lat="45.90086" lon="4.60129">
        <ele>305</ele>
        <time>2017-05-05T10:21:39Z</time>
      </trkpt>
      <trkpt lat="45.90079" lon="4.60131">
        <ele>306</ele>
        <time>2017-05-05T10:21:40Z</time>
      </trkpt>
      <trkpt lat="45.90074" lon="4.60132">
        <ele>306</ele>
        <time>2017-05-05T10:21:41Z</time>
      </trkpt>
      <trkpt lat="45.90068" lon="4.60134">
        <ele>305</ele>
        <time>2017-05-05T10:21:42Z</time>
      </trkpt>
      <trkpt lat="45.90062" lon="4.60136">
        <ele>305</ele>
        <time>2017-05-05T10:21:43Z</time>
      </trkpt>
      <trkpt lat="45.90057" lon="4.60137">
        <ele>305</ele>
        <time>2017-05-05T10:21:44Z</time>
      </trkpt>
      <trkpt lat="45.9005" lon="4.60139">
        <ele>306</ele>
        <time>2017-05-05T10:21:45Z</time>
      </trkpt>
      <trkpt lat="45.90044" lon="4.60141">
        <ele>306</ele>
        <time>2017-05-05T10:21:46Z</time>
      </trkpt>
      <trkpt lat="45.90038" lon="4.60143">
        <ele>306</ele>
        <time>2017-05-05T10:21:47Z</time>
      </trkpt>
      <trkpt lat="45.90031" lon="4.60145">
        <ele>305</ele>
        <time>2017-05-05T10:21:48Z</time>
      </trkpt>
      <trkpt lat="45.90024" lon="4.60148">
        <ele>305</ele>
        <time>2017-05-05T10:21:49Z</time>
      </trkpt>
      <trkpt lat="45.90018" lon="4.6015">
        <ele>305</ele>
        <time>2017-05-05T10:21:50Z</time>
      </trkpt>
      <trkpt lat="45.90012" lon="4.60152">
        <ele>305</ele>
        <time>2017-05-05T10:21:51Z</time>
      </trkpt>
      <trkpt lat="45.90006" lon="4.60154">
        <ele>305</ele>
        <time>2017-05-05T10:21:52Z</time>
      </trkpt>
      <trkpt lat="45.89999" lon="4.60156">
        <ele>304</ele>
        <time>2017-05-05T10:21:53Z</time>
      </trkpt>
      <trkpt lat="45.89993" lon="4.60158">
        <ele>304</ele>
        <time>2017-05-05T10:21:54Z</time>
      </trkpt>
      <trkpt lat="45.89986" lon="4.6016">
        <ele>304</ele>
        <time>2017-05-05T10:21:55Z</time>
      </trkpt>
      <trkpt lat="45.8998" lon="4.60162">
        <ele>304</ele>
        <time>2017-05-05T10:21:56Z</time>
      </trkpt>
      <trkpt lat="45.89973" lon="4.60164">
        <ele>304</ele>
        <time>2017-05-05T10:21:57Z</time>
      </trkpt>
      <trkpt lat="45.89967" lon="4.60166">
        <ele>304</ele>
        <time>2017-05-05T10:21:58Z</time>
      </trkpt>
      <trkpt lat="45.8996" lon="4.60168">
        <ele>302</ele>
        <time>2017-05-05T10:21:59Z</time>
      </trkpt>
      <trkpt lat="45.89953" lon="4.6017">
        <ele>302</ele>
        <time>2017-05-05T10:22:00Z</time>
      </trkpt>
      <trkpt lat="45.89947" lon="4.60172">
        <ele>302</ele>
        <time>2017-05-05T10:22:01Z</time>
      </trkpt>
      <trkpt lat="45.8994" lon="4.60174">
        <ele>302</ele>
        <time>2017-05-05T10:22:02Z</time>
      </trkpt>
      <trkpt lat="45.89933" lon="4.60176">
        <ele>302</ele>
        <time>2017-05-05T10:22:03Z</time>
      </trkpt>
      <trkpt lat="45.89927" lon="4.60178">
        <ele>302</ele>
        <time>2017-05-05T10:22:04Z</time>
      </trkpt>
      <trkpt lat="45.8992" lon="4.6018">
        <ele>302</ele>
        <time>2017-05-05T10:22:05Z</time>
      </trkpt>
      <trkpt lat="45.89913" lon="4.60182">
        <ele>302</ele>
        <time>2017-05-05T10:22:06Z</time>
      </trkpt>
      <trkpt lat="45.89906" lon="4.60184">
        <ele>302</ele>
        <time>2017-05-05T10:22:07Z</time>
      </trkpt>
      <trkpt lat="45.89899" lon="4.60186">
        <ele>302</ele>
        <time>2017-05-05T10:22:08Z</time>
      </trkpt>
      <trkpt lat="45.89892" lon="4.60188">
        <ele>302</ele>
        <time>2017-05-05T10:22:09Z</time>
      </trkpt>
      <trkpt lat="45.89885" lon="4.6019">
        <ele>301</ele>
        <time>2017-05-05T10:22:10Z</time>
      </trkpt>
      <trkpt lat="45.89878" lon="4.60192">
        <ele>301</ele>
        <time>2017-05-05T10:22:11Z</time>
      </trkpt>
      <trkpt lat="45.89872" lon="4.60194">
        <ele>301</ele>
        <time>2017-05-05T10:22:12Z</time>
      </trkpt>
      <trkpt lat="45.89865" lon="4.60196">
        <ele>301</ele>
        <time>2017-05-05T10:22:13Z</time>
      </trkpt>
      <trkpt lat="45.89858" lon="4.60198">
        <ele>301</ele>
        <time>2017-05-05T10:22:14Z</time>
      </trkpt>
      <trkpt lat="45.8985" lon="4.602">
        <ele>301</ele>
        <time>2017-05-05T10:22:15Z</time>
      </trkpt>
      <trkpt lat="45.89844" lon="4.60203">
        <ele>301</ele>
        <time>2017-05-05T10:22:16Z</time>
      </trkpt>
      <trkpt lat="45.89837" lon="4.60205">
        <ele>301</ele>
        <time>2017-05-05T10:22:17Z</time>
      </trkpt>
      <trkpt lat="45.8983" lon="4.60206">
        <ele>301</ele>
        <time>2017-05-05T10:22:18Z</time>
      </trkpt>
      <trkpt lat="45.89823" lon="4.60208">
        <ele>301</ele>
        <time>2017-05-05T10:22:19Z</time>
      </trkpt>
      <trkpt lat="45.89816" lon="4.6021">
        <ele>301</ele>
        <time>2017-05-05T10:22:20Z</time>
      </trkpt>
      <trkpt lat="45.89809" lon="4.60212">
        <ele>301</ele>
        <time>2017-05-05T10:22:21Z</time>
      </trkpt>
      <trkpt lat="45.89802" lon="4.60214">
        <ele>301</ele>
        <time>2017-05-05T10:22:22Z</time>
      </trkpt>
      <trkpt lat="45.89796" lon="4.60216">
        <ele>301</ele>
        <time>2017-05-05T10:22:23Z</time>
      </trkpt>
      <trkpt lat="45.89789" lon="4.60218">
        <ele>301</ele>
        <time>2017-05-05T10:22:24Z</time>
      </trkpt>
      <trkpt lat="45.89782" lon="4.60219">
        <ele>301</ele>
        <time>2017-05-05T10:22:25Z</time>
      </trkpt>
      <trkpt lat="45.89775" lon="4.60222">
        <ele>301</ele>
        <time>2017-05-05T10:22:26Z</time>
      </trkpt>
      <trkpt lat="45.89769" lon="4.60224">
        <ele>301</ele>
        <time>2017-05-05T10:22:27Z</time>
      </trkpt>
      <trkpt lat="45.89762" lon="4.60226">
        <ele>301</ele>
        <time>2017-05-05T10:22:28Z</time>
      </trkpt>
      <trkpt lat="45.89756" lon="4.60228">
        <ele>301</ele>
        <time>2017-05-05T10:22:29Z</time>
      </trkpt>
      <trkpt lat="45.89749" lon="4.6023">
        <ele>300</ele>
        <time>2017-05-05T10:22:30Z</time>
      </trkpt>
      <trkpt lat="45.89743" lon="4.60233">
        <ele>300</ele>
        <time>2017-05-05T10:22:31Z</time>
      </trkpt>
      <trkpt lat="45.89736" lon="4.60236">
        <ele>300</ele>
        <time>2017-05-05T10:22:32Z</time>
      </trkpt>
      <trkpt lat="45.8973" lon="4.60239">
        <ele>299</ele>
        <time>2017-05-05T10:22:33Z</time>
      </trkpt>
      <trkpt lat="45.89723" lon="4.60243">
        <ele>299</ele>
        <time>2017-05-05T10:22:34Z</time>
      </trkpt>
      <trkpt lat="45.89717" lon="4.60247">
        <ele>299</ele>
        <time>2017-05-05T10:22:35Z</time>
      </trkpt>
      <trkpt lat="45.89711" lon="4.6025">
        <ele>297</ele>
        <time>2017-05-05T10:22:36Z</time>
      </trkpt>
      <trkpt lat="45.89704" lon="4.60254">
        <ele>297</ele>
        <time>2017-05-05T10:22:37Z</time>
      </trkpt>
      <trkpt lat="45.89697" lon="4.60257">
        <ele>296</ele>
        <time>2017-05-05T10:22:38Z</time>
      </trkpt>
      <trkpt lat="45.89691" lon="4.60261">
        <ele>296</ele>
        <time>2017-05-05T10:22:39Z</time>
      </trkpt>
      <trkpt lat="45.89684" lon="4.60265">
        <ele>296</ele>
        <time>2017-05-05T10:22:40Z</time>
      </trkpt>
      <trkpt lat="45.89677" lon="4.60267">
        <ele>295</ele>
        <time>2017-05-05T10:22:41Z</time>
      </trkpt>
      <trkpt lat="45.8967" lon="4.6027">
        <ele>295</ele>
        <time>2017-05-05T10:22:42Z</time>
      </trkpt>
      <trkpt lat="45.89662" lon="4.60272">
        <ele>292</ele>
        <time>2017-05-05T10:22:43Z</time>
      </trkpt>
      <trkpt lat="45.89655" lon="4.60275">
        <ele>292</ele>
        <time>2017-05-05T10:22:44Z</time>
      </trkpt>
      <trkpt lat="45.89647" lon="4.60277">
        <ele>291</ele>
        <time>2017-05-05T10:22:45Z</time>
      </trkpt>
      <trkpt lat="45.89639" lon="4.60279">
        <ele>291</ele>
        <time>2017-05-05T10:22:46Z</time>
      </trkpt>
      <trkpt lat="45.8963" lon="4.60281">
        <ele>291</ele>
        <time>2017-05-05T10:22:47Z</time>
      </trkpt>
      <trkpt lat="45.89622" lon="4.60283">
        <ele>291</ele>
        <time>2017-05-05T10:22:48Z</time>
      </trkpt>
      <trkpt lat="45.89614" lon="4.60284">
        <ele>290</ele>
        <time>2017-05-05T10:22:49Z</time>
      </trkpt>
      <trkpt lat="45.89605" lon="4.60286">
        <ele>290</ele>
        <time>2017-05-05T10:22:50Z</time>
      </trkpt>
      <trkpt lat="45.89596" lon="4.60288">
        <ele>290</ele>
        <time>2017-05-05T10:22:51Z</time>
      </trkpt>
      <trkpt lat="45.89588" lon="4.6029">
        <ele>290</ele>
        <time>2017-05-05T10:22:52Z</time>
      </trkpt>
      <trkpt lat="45.89579" lon="4.60292">
        <ele>286</ele>
        <time>2017-05-05T10:22:53Z</time>
      </trkpt>
      <trkpt lat="45.8957" lon="4.60295">
        <ele>286</ele>
        <time>2017-05-05T10:22:54Z</time>
      </trkpt>
      <trkpt lat="45.89561" lon="4.60298">
        <ele>286</ele>
        <time>2017-05-05T10:22:55Z</time>
      </trkpt>
      <trkpt lat="45.89552" lon="4.603">
        <ele>285</ele>
        <time>2017-05-05T10:22:56Z</time>
      </trkpt>
      <trkpt lat="45.89543" lon="4.60302">
        <ele>285</ele>
        <time>2017-05-05T10:22:57Z</time>
      </trkpt>
      <trkpt lat="45.89533" lon="4.60302">
        <ele>284</ele>
        <time>2017-05-05T10:22:58Z</time>
      </trkpt>
      <trkpt lat="45.89523" lon="4.60303">
        <ele>284</ele>
        <time>2017-05-05T10:22:59Z</time>
      </trkpt>
      <trkpt lat="45.89514" lon="4.60303">
        <ele>284</ele>
        <time>2017-05-05T10:23:00Z</time>
      </trkpt>
      <trkpt lat="45.89504" lon="4.60302">
        <ele>284</ele>
        <time>2017-05-05T10:23:01Z</time>
      </trkpt>
      <trkpt lat="45.89494" lon="4.60301">
        <ele>281</ele>
        <time>2017-05-05T10:23:02Z</time>
      </trkpt>
      <trkpt lat="45.89484" lon="4.60299">
        <ele>280</ele>
        <time>2017-05-05T10:23:03Z</time>
      </trkpt>
      <trkpt lat="45.89475" lon="4.60298">
        <ele>280</ele>
        <time>2017-05-05T10:23:04Z</time>
      </trkpt>
      <trkpt lat="45.89465" lon="4.60296">
        <ele>280</ele>
        <time>2017-05-05T10:23:05Z</time>
      </trkpt>
      <trkpt lat="45.89455" lon="4.60295">
        <ele>280</ele>
        <time>2017-05-05T10:23:06Z</time>
      </trkpt>
      <trkpt lat="45.89445" lon="4.60294">
        <ele>280</ele>
        <time>2017-05-05T10:23:07Z</time>
      </trkpt>
      <trkpt lat="45.89436" lon="4.60294">
        <ele>279</ele>
        <time>2017-05-05T10:23:08Z</time>
      </trkpt>
      <trkpt lat="45.89426" lon="4.60293">
        <ele>279</ele>
        <time>2017-05-05T10:23:09Z</time>
      </trkpt>
      <trkpt lat="45.89418" lon="4.60292">
        <ele>279</ele>
        <time>2017-05-05T10:23:10Z</time>
      </trkpt>
      <trkpt lat="45.89409" lon="4.6029">
        <ele>276</ele>
        <time>2017-05-05T10:23:11Z</time>
      </trkpt>
      <trkpt lat="45.894" lon="4.60289">
        <ele>276</ele>
        <time>2017-05-05T10:23:12Z</time>
      </trkpt>
      <trkpt lat="45.89392" lon="4.60287">
        <ele>276</ele>
        <time>2017-05-05T10:23:13Z</time>
      </trkpt>
      <trkpt lat="45.89384" lon="4.60286">
        <ele>275</ele>
        <time>2017-05-05T10:23:14Z</time>
      </trkpt>
      <trkpt lat="45.89376" lon="4.60285">
        <ele>275</ele>
        <time>2017-05-05T10:23:15Z</time>
      </trkpt>
      <trkpt lat="45.89368" lon="4.60284">
        <ele>275</ele>
        <time>2017-05-05T10:23:16Z</time>
      </trkpt>
      <trkpt lat="45.89361" lon="4.60283">
        <ele>275</ele>
        <time>2017-05-05T10:23:17Z</time>
      </trkpt>
      <trkpt lat="45.89353" lon="4.60282">
        <ele>274</ele>
        <time>2017-05-05T10:23:18Z</time>
      </trkpt>
      <trkpt lat="45.89345" lon="4.60281">
        <ele>274</ele>
        <time>2017-05-05T10:23:19Z</time>
      </trkpt>
      <trkpt lat="45.89337" lon="4.6028">
        <ele>274</ele>
        <time>2017-05-05T10:23:20Z</time>
      </trkpt>
      <trkpt lat="45.89329" lon="4.6028">
        <ele>269</ele>
        <time>2017-05-05T10:23:21Z</time>
      </trkpt>
      <trkpt lat="45.89321" lon="4.6028">
        <ele>268</ele>
        <time>2017-05-05T10:23:22Z</time>
      </trkpt>
      <trkpt lat="45.89312" lon="4.60281">
        <ele>268</ele>
        <time>2017-05-05T10:23:23Z</time>
      </trkpt>
      <trkpt lat="45.89303" lon="4.60282">
        <ele>267</ele>
        <time>2017-05-05T10:23:24Z</time>
      </trkpt>
      <trkpt lat="45.89294" lon="4.60284">
        <ele>266</ele>
        <time>2017-05-05T10:23:25Z</time>
      </trkpt>
      <trkpt lat="45.89285" lon="4.60287">
        <ele>266</ele>
        <time>2017-05-05T10:23:26Z</time>
      </trkpt>
      <trkpt lat="45.89276" lon="4.6029">
        <ele>265</ele>
        <time>2017-05-05T10:23:27Z</time>
      </trkpt>
      <trkpt lat="45.89267" lon="4.60294">
        <ele>265</ele>
        <time>2017-05-05T10:23:28Z</time>
      </trkpt>
      <trkpt lat="45.89258" lon="4.60299">
        <ele>264</ele>
        <time>2017-05-05T10:23:29Z</time>
      </trkpt>
      <trkpt lat="45.89249" lon="4.60305">
        <ele>257</ele>
        <time>2017-05-05T10:23:30Z</time>
      </trkpt>
      <trkpt lat="45.89239" lon="4.6031">
        <ele>257</ele>
        <time>2017-05-05T10:23:31Z</time>
      </trkpt>
      <trkpt lat="45.8923" lon="4.60316">
        <ele>257</ele>
        <time>2017-05-05T10:23:32Z</time>
      </trkpt>
      <trkpt lat="45.8922" lon="4.60321">
        <ele>256</ele>
        <time>2017-05-05T10:23:33Z</time>
      </trkpt>
      <trkpt lat="45.89211" lon="4.60326">
        <ele>256</ele>
        <time>2017-05-05T10:23:34Z</time>
      </trkpt>
      <trkpt lat="45.89201" lon="4.60331">
        <ele>255</ele>
        <time>2017-05-05T10:23:35Z</time>
      </trkpt>
      <trkpt lat="45.89192" lon="4.60335">
        <ele>254</ele>
        <time>2017-05-05T10:23:36Z</time>
      </trkpt>
      <trkpt lat="45.89184" lon="4.60339">
        <ele>253</ele>
        <time>2017-05-05T10:23:37Z</time>
      </trkpt>
      <trkpt lat="45.89175" lon="4.60342">
        <ele>253</ele>
        <time>2017-05-05T10:23:38Z</time>
      </trkpt>
      <trkpt lat="45.89167" lon="4.60346">
        <ele>253</ele>
        <time>2017-05-05T10:23:39Z</time>
      </trkpt>
      <trkpt lat="45.8916" lon="4.60349">
        <ele>249</ele>
        <time>2017-05-05T10:23:40Z</time>
      </trkpt>
      <trkpt lat="45.89152" lon="4.60352">
        <ele>249</ele>
        <time>2017-05-05T10:23:41Z</time>
      </trkpt>
      <trkpt lat="45.89145" lon="4.60354">
        <ele>249</ele>
        <time>2017-05-05T10:23:42Z</time>
      </trkpt>
      <trkpt lat="45.89139" lon="4.60356">
        <ele>248</ele>
        <time>2017-05-05T10:23:43Z</time>
      </trkpt>
      <trkpt lat="45.89133" lon="4.60357">
        <ele>248</ele>
        <time>2017-05-05T10:23:44Z</time>
      </trkpt>
      <trkpt lat="45.89127" lon="4.60357">
        <ele>248</ele>
        <time>2017-05-05T10:23:45Z</time>
      </trkpt>
      <trkpt lat="45.89122" lon="4.60357">
        <ele>247</ele>
        <time>2017-05-05T10:23:46Z</time>
      </trkpt>
      <trkpt lat="45.89116" lon="4.60357">
        <ele>247</ele>
        <time>2017-05-05T10:23:47Z</time>
      </trkpt>
      <trkpt lat="45.8911" lon="4.60357">
        <ele>247</ele>
        <time>2017-05-05T10:23:48Z</time>
      </trkpt>
      <trkpt lat="45.89104" lon="4.60356">
        <ele>246</ele>
        <time>2017-05-05T10:23:49Z</time>
      </trkpt>
      <trkpt lat="45.89098" lon="4.60355">
        <ele>246</ele>
        <time>2017-05-05T10:23:50Z</time>
      </trkpt>
      <trkpt lat="45.89093" lon="4.60354">
        <ele>246</ele>
        <time>2017-05-05T10:23:51Z</time>
      </trkpt>
      <trkpt lat="45.89085" lon="4.60352">
        <ele>245</ele>
        <time>2017-05-05T10:23:53Z</time>
      </trkpt>
      <trkpt lat="45.89082" lon="4.6035">
        <ele>243</ele>
        <time>2017-05-05T10:23:54Z</time>
      </trkpt>
      <trkpt lat="45.89078" lon="4.60348">
        <ele>243</ele>
        <time>2017-05-05T10:23:59Z</time>
      </trkpt>
      <trkpt lat="45.89076" lon="4.60347">
        <ele>243</ele>
        <time>2017-05-05T10:24:00Z</time>
      </trkpt>
      <trkpt lat="45.89075" lon="4.60347">
        <ele>243</ele>
        <time>2017-05-05T10:24:01Z</time>
      </trkpt>
      <trkpt lat="45.89073" lon="4.60347">
        <ele>243</ele>
        <time>2017-05-05T10:24:02Z</time>
      </trkpt>
      <trkpt lat="45.89068" lon="4.60354">
        <ele>243</ele>
        <time>2017-05-05T10:24:05Z</time>
      </trkpt>
      <trkpt lat="45.89067" lon="4.60359">
        <ele>243</ele>
        <time>2017-05-05T10:24:06Z</time>
      </trkpt>
      <trkpt lat="45.89066" lon="4.60368">
        <ele>243</ele>
        <time>2017-05-05T10:24:08Z</time>
      </trkpt>
      <trkpt lat="45.89065" lon="4.60373">
        <ele>243</ele>
        <time>2017-05-05T10:24:09Z</time>
      </trkpt>
      <trkpt lat="45.89063" lon="4.60381">
        <ele>243</ele>
        <time>2017-05-05T10:24:11Z</time>
      </trkpt>
      <trkpt lat="45.89062" lon="4.60386">
        <ele>243</ele>
        <time>2017-05-05T10:24:12Z</time>
      </trkpt>
      <trkpt lat="45.89059" lon="4.60398">
        <ele>244</ele>
        <time>2017-05-05T10:24:14Z</time>
      </trkpt>
      <trkpt lat="45.89058" lon="4.60405">
        <ele>244</ele>
        <time>2017-05-05T10:24:15Z</time>
      </trkpt>
      <trkpt lat="45.89057" lon="4.60414">
        <ele>244</ele>
        <time>2017-05-05T10:24:16Z</time>
      </trkpt>
      <trkpt lat="45.89055" lon="4.60422">
        <ele>244</ele>
        <time>2017-05-05T10:24:17Z</time>
      </trkpt>
      <trkpt lat="45.89054" lon="4.60431">
        <ele>244</ele>
        <time>2017-05-05T10:24:18Z</time>
      </trkpt>
      <trkpt lat="45.89053" lon="4.60439">
        <ele>244</ele>
        <time>2017-05-05T10:24:19Z</time>
      </trkpt>
      <trkpt lat="45.89051" lon="4.60448">
        <ele>243</ele>
        <time>2017-05-05T10:24:20Z</time>
      </trkpt>
      <trkpt lat="45.89049" lon="4.60456">
        <ele>243</ele>
        <time>2017-05-05T10:24:21Z</time>
      </trkpt>
      <trkpt lat="45.89047" lon="4.60465">
        <ele>243</ele>
        <time>2017-05-05T10:24:22Z</time>
      </trkpt>
      <trkpt lat="45.89045" lon="4.60474">
        <ele>243</ele>
        <time>2017-05-05T10:24:23Z</time>
      </trkpt>
      <trkpt lat="45.89043" lon="4.60483">
        <ele>243</ele>
        <time>2017-05-05T10:24:24Z</time>
      </trkpt>
      <trkpt lat="45.8904" lon="4.60493">
        <ele>243</ele>
        <time>2017-05-05T10:24:25Z</time>
      </trkpt>
      <trkpt lat="45.89038" lon="4.60502">
        <ele>241</ele>
        <time>2017-05-05T10:24:26Z</time>
      </trkpt>
      <trkpt lat="45.89036" lon="4.60512">
        <ele>241</ele>
        <time>2017-05-05T10:24:27Z</time>
      </trkpt>
      <trkpt lat="45.89033" lon="4.60523">
        <ele>241</ele>
        <time>2017-05-05T10:24:28Z</time>
      </trkpt>
      <trkpt lat="45.89031" lon="4.60533">
        <ele>241</ele>
        <time>2017-05-05T10:24:29Z</time>
      </trkpt>
      <trkpt lat="45.89028" lon="4.60543">
        <ele>241</ele>
        <time>2017-05-05T10:24:30Z</time>
      </trkpt>
      <trkpt lat="45.89024" lon="4.60553">
        <ele>240</ele>
        <time>2017-05-05T10:24:31Z</time>
      </trkpt>
      <trkpt lat="45.89021" lon="4.60564">
        <ele>240</ele>
        <time>2017-05-05T10:24:32Z</time>
      </trkpt>
      <trkpt lat="45.89018" lon="4.60574">
        <ele>240</ele>
        <time>2017-05-05T10:24:33Z</time>
      </trkpt>
      <trkpt lat="45.89015" lon="4.60584">
        <ele>239</ele>
        <time>2017-05-05T10:24:34Z</time>
      </trkpt>
      <trkpt lat="45.89013" lon="4.60595">
        <ele>239</ele>
        <time>2017-05-05T10:24:35Z</time>
      </trkpt>
      <trkpt lat="45.89009" lon="4.60605">
        <ele>239</ele>
        <time>2017-05-05T10:24:36Z</time>
      </trkpt>
      <trkpt lat="45.89006" lon="4.60615">
        <ele>239</ele>
        <time>2017-05-05T10:24:37Z</time>
      </trkpt>
      <trkpt lat="45.89003" lon="4.60625">
        <ele>239</ele>
        <time>2017-05-05T10:24:38Z</time>
      </trkpt>
      <trkpt lat="45.89" lon="4.60635">
        <ele>236</ele>
        <time>2017-05-05T10:24:39Z</time>
      </trkpt>
      <trkpt lat="45.88996" lon="4.60644">
        <ele>237</ele>
        <time>2017-05-05T10:24:40Z</time>
      </trkpt>
      <trkpt lat="45.88993" lon="4.60654">
        <ele>237</ele>
        <time>2017-05-05T10:24:41Z</time>
      </trkpt>
      <trkpt lat="45.88989" lon="4.60664">
        <ele>237</ele>
        <time>2017-05-05T10:24:42Z</time>
      </trkpt>
      <trkpt lat="45.88985" lon="4.60674">
        <ele>237</ele>
        <time>2017-05-05T10:24:43Z</time>
      </trkpt>
      <trkpt lat="45.88981" lon="4.60684">
        <ele>236</ele>
        <time>2017-05-05T10:24:44Z</time>
      </trkpt>
      <trkpt lat="45.88978" lon="4.60695">
        <ele>236</ele>
        <time>2017-05-05T10:24:45Z</time>
      </trkpt>
      <trkpt lat="45.88974" lon="4.60705">
        <ele>235</ele>
        <time>2017-05-05T10:24:46Z</time>
      </trkpt>
      <trkpt lat="45.8897" lon="4.60715">
        <ele>235</ele>
        <time>2017-05-05T10:24:47Z</time>
      </trkpt>
      <trkpt lat="45.88967" lon="4.60725">
        <ele>235</ele>
        <time>2017-05-05T10:24:48Z</time>
      </trkpt>
      <trkpt lat="45.88963" lon="4.60736">
        <ele>235</ele>
        <time>2017-05-05T10:24:49Z</time>
      </trkpt>
      <trkpt lat="45.88959" lon="4.60746">
        <ele>235</ele>
        <time>2017-05-05T10:24:50Z</time>
      </trkpt>
      <trkpt lat="45.88956" lon="4.60757">
        <ele>234</ele>
        <time>2017-05-05T10:24:51Z</time>
      </trkpt>
      <trkpt lat="45.88952" lon="4.60767">
        <ele>234</ele>
        <time>2017-05-05T10:24:52Z</time>
      </trkpt>
      <trkpt lat="45.88948" lon="4.60778">
        <ele>234</ele>
        <time>2017-05-05T10:24:53Z</time>
      </trkpt>
      <trkpt lat="45.88944" lon="4.60788">
        <ele>233</ele>
        <time>2017-05-05T10:24:54Z</time>
      </trkpt>
      <trkpt lat="45.8894" lon="4.60799">
        <ele>233</ele>
        <time>2017-05-05T10:24:55Z</time>
      </trkpt>
      <trkpt lat="45.88936" lon="4.60809">
        <ele>233</ele>
        <time>2017-05-05T10:24:56Z</time>
      </trkpt>
      <trkpt lat="45.88932" lon="4.60819">
        <ele>232</ele>
        <time>2017-05-05T10:24:57Z</time>
      </trkpt>
      <trkpt lat="45.88929" lon="4.60829">
        <ele>231</ele>
        <time>2017-05-05T10:24:58Z</time>
      </trkpt>
      <trkpt lat="45.88924" lon="4.60839">
        <ele>230</ele>
        <time>2017-05-05T10:24:59Z</time>
      </trkpt>
      <trkpt lat="45.8892" lon="4.60849">
        <ele>231</ele>
        <time>2017-05-05T10:25:00Z</time>
      </trkpt>
      <trkpt lat="45.88917" lon="4.60859">
        <ele>229</ele>
        <time>2017-05-05T10:25:01Z</time>
      </trkpt>
      <trkpt lat="45.88913" lon="4.60869">
        <ele>229</ele>
        <time>2017-05-05T10:25:02Z</time>
      </trkpt>
      <trkpt lat="45.88909" lon="4.60879">
        <ele>229</ele>
        <time>2017-05-05T10:25:03Z</time>
      </trkpt>
      <trkpt lat="45.88906" lon="4.60889">
        <ele>229</ele>
        <time>2017-05-05T10:25:04Z</time>
      </trkpt>
      <trkpt lat="45.88902" lon="4.60899">
        <ele>229</ele>
        <time>2017-05-05T10:25:05Z</time>
      </trkpt>
      <trkpt lat="45.88899" lon="4.6091">
        <ele>229</ele>
        <time>2017-05-05T10:25:06Z</time>
      </trkpt>
      <trkpt lat="45.88897" lon="4.60921">
        <ele>229</ele>
        <time>2017-05-05T10:25:07Z</time>
      </trkpt>
      <trkpt lat="45.88894" lon="4.60931">
        <ele>229</ele>
        <time>2017-05-05T10:25:08Z</time>
      </trkpt>
      <trkpt lat="45.88891" lon="4.60942">
        <ele>229</ele>
        <time>2017-05-05T10:25:09Z</time>
      </trkpt>
      <trkpt lat="45.88889" lon="4.60953">
        <ele>229</ele>
        <time>2017-05-05T10:25:10Z</time>
      </trkpt>
      <trkpt lat="45.88887" lon="4.60963">
        <ele>229</ele>
        <time>2017-05-05T10:25:11Z</time>
      </trkpt>
      <trkpt lat="45.88885" lon="4.60974">
        <ele>229</ele>
        <time>2017-05-05T10:25:12Z</time>
      </trkpt>
      <trkpt lat="45.88883" lon="4.60985">
        <ele>229</ele>
        <time>2017-05-05T10:25:13Z</time>
      </trkpt>
      <trkpt lat="45.88882" lon="4.60995">
        <ele>229</ele>
        <time>2017-05-05T10:25:14Z</time>
      </trkpt>
      <trkpt lat="45.88881" lon="4.61005">
        <ele>229</ele>
        <time>2017-05-05T10:25:15Z</time>
      </trkpt>
      <trkpt lat="45.8888" lon="4.61015">
        <ele>229</ele>
        <time>2017-05-05T10:25:16Z</time>
      </trkpt>
      <trkpt lat="45.88878" lon="4.61025">
        <ele>229</ele>
        <time>2017-05-05T10:25:17Z</time>
      </trkpt>
      <trkpt lat="45.88878" lon="4.61035">
        <ele>229</ele>
        <time>2017-05-05T10:25:18Z</time>
      </trkpt>
      <trkpt lat="45.88877" lon="4.61044">
        <ele>229</ele>
        <time>2017-05-05T10:25:19Z</time>
      </trkpt>
      <trkpt lat="45.88877" lon="4.61054">
        <ele>229</ele>
        <time>2017-05-05T10:25:20Z</time>
      </trkpt>
      <trkpt lat="45.88877" lon="4.61063">
        <ele>229</ele>
        <time>2017-05-05T10:25:21Z</time>
      </trkpt>
      <trkpt lat="45.88877" lon="4.61073">
        <ele>229</ele>
        <time>2017-05-05T10:25:22Z</time>
      </trkpt>
      <trkpt lat="45.88877" lon="4.61081">
        <ele>229</ele>
        <time>2017-05-05T10:25:23Z</time>
      </trkpt>
      <trkpt lat="45.88877" lon="4.6109">
        <ele>228</ele>
        <time>2017-05-05T10:25:24Z</time>
      </trkpt>
      <trkpt lat="45.88877" lon="4.61099">
        <ele>228</ele>
        <time>2017-05-05T10:25:25Z</time>
      </trkpt>
      <trkpt lat="45.88877" lon="4.61107">
        <ele>228</ele>
        <time>2017-05-05T10:25:26Z</time>
      </trkpt>
      <trkpt lat="45.88877" lon="4.61116">
        <ele>228</ele>
        <time>2017-05-05T10:25:27Z</time>
      </trkpt>
      <trkpt lat="45.88877" lon="4.61124">
        <ele>228</ele>
        <time>2017-05-05T10:25:28Z</time>
      </trkpt>
      <trkpt lat="45.88877" lon="4.61132">
        <ele>228</ele>
        <time>2017-05-05T10:25:29Z</time>
      </trkpt>
      <trkpt lat="45.88877" lon="4.61142">
        <ele>228</ele>
        <time>2017-05-05T10:25:30Z</time>
      </trkpt>
      <trkpt lat="45.88877" lon="4.61151">
        <ele>228</ele>
        <time>2017-05-05T10:25:31Z</time>
      </trkpt>
      <trkpt lat="45.88877" lon="4.6116">
        <ele>228</ele>
        <time>2017-05-05T10:25:32Z</time>
      </trkpt>
      <trkpt lat="45.88877" lon="4.61169">
        <ele>227</ele>
        <time>2017-05-05T10:25:33Z</time>
      </trkpt>
      <trkpt lat="45.88877" lon="4.61179">
        <ele>226</ele>
        <time>2017-05-05T10:25:34Z</time>
      </trkpt>
      <trkpt lat="45.88876" lon="4.61188">
        <ele>226</ele>
        <time>2017-05-05T10:25:35Z</time>
      </trkpt>
      <trkpt lat="45.88876" lon="4.61198">
        <ele>226</ele>
        <time>2017-05-05T10:25:36Z</time>
      </trkpt>
      <trkpt lat="45.88875" lon="4.61208">
        <ele>226</ele>
        <time>2017-05-05T10:25:37Z</time>
      </trkpt>
      <trkpt lat="45.88875" lon="4.61217">
        <ele>226</ele>
        <time>2017-05-05T10:25:38Z</time>
      </trkpt>
      <trkpt lat="45.88874" lon="4.61227">
        <ele>226</ele>
        <time>2017-05-05T10:25:39Z</time>
      </trkpt>
      <trkpt lat="45.88874" lon="4.61236">
        <ele>226</ele>
        <time>2017-05-05T10:25:40Z</time>
      </trkpt>
      <trkpt lat="45.88874" lon="4.61246">
        <ele>226</ele>
        <time>2017-05-05T10:25:41Z</time>
      </trkpt>
      <trkpt lat="45.88873" lon="4.61254">
        <ele>226</ele>
        <time>2017-05-05T10:25:42Z</time>
      </trkpt>
      <trkpt lat="45.88872" lon="4.61263">
        <ele>226</ele>
        <time>2017-05-05T10:25:43Z</time>
      </trkpt>
      <trkpt lat="45.88871" lon="4.61271">
        <ele>226</ele>
        <time>2017-05-05T10:25:44Z</time>
      </trkpt>
      <trkpt lat="45.8887" lon="4.61279">
        <ele>226</ele>
        <time>2017-05-05T10:25:45Z</time>
      </trkpt>
      <trkpt lat="45.88869" lon="4.61287">
        <ele>226</ele>
        <time>2017-05-05T10:25:46Z</time>
      </trkpt>
      <trkpt lat="45.88869" lon="4.61295">
        <ele>226</ele>
        <time>2017-05-05T10:25:47Z</time>
      </trkpt>
      <trkpt lat="45.88868" lon="4.61303">
        <ele>226</ele>
        <time>2017-05-05T10:25:48Z</time>
      </trkpt>
      <trkpt lat="45.88867" lon="4.61311">
        <ele>226</ele>
        <time>2017-05-05T10:25:49Z</time>
      </trkpt>
      <trkpt lat="45.88866" lon="4.61319">
        <ele>226</ele>
        <time>2017-05-05T10:25:50Z</time>
      </trkpt>
      <trkpt lat="45.88865" lon="4.61327">
        <ele>226</ele>
        <time>2017-05-05T10:25:51Z</time>
      </trkpt>
      <trkpt lat="45.88863" lon="4.61335">
        <ele>226</ele>
        <time>2017-05-05T10:25:52Z</time>
      </trkpt>
      <trkpt lat="45.88862" lon="4.61344">
        <ele>226</ele>
        <time>2017-05-05T10:25:53Z</time>
      </trkpt>
      <trkpt lat="45.8886" lon="4.61352">
        <ele>226</ele>
        <time>2017-05-05T10:25:54Z</time>
      </trkpt>
      <trkpt lat="45.88859" lon="4.61361">
        <ele>226</ele>
        <time>2017-05-05T10:25:55Z</time>
      </trkpt>
      <trkpt lat="45.88857" lon="4.6137">
        <ele>226</ele>
        <time>2017-05-05T10:25:56Z</time>
      </trkpt>
      <trkpt lat="45.88855" lon="4.61379">
        <ele>226</ele>
        <time>2017-05-05T10:25:57Z</time>
      </trkpt>
      <trkpt lat="45.88853" lon="4.61388">
        <ele>226</ele>
        <time>2017-05-05T10:25:58Z</time>
      </trkpt>
      <trkpt lat="45.8885" lon="4.61398">
        <ele>226</ele>
        <time>2017-05-05T10:25:59Z</time>
      </trkpt>
      <trkpt lat="45.88848" lon="4.61407">
        <ele>225</ele>
        <time>2017-05-05T10:26:00Z</time>
      </trkpt>
      <trkpt lat="45.88846" lon="4.61416">
        <ele>225</ele>
        <time>2017-05-05T10:26:01Z</time>
      </trkpt>
      <trkpt lat="45.88843" lon="4.61425">
        <ele>225</ele>
        <time>2017-05-05T10:26:02Z</time>
      </trkpt>
      <trkpt lat="45.88841" lon="4.61434">
        <ele>226</ele>
        <time>2017-05-05T10:26:03Z</time>
      </trkpt>
      <trkpt lat="45.88839" lon="4.61442">
        <ele>226</ele>
        <time>2017-05-05T10:26:04Z</time>
      </trkpt>
      <trkpt lat="45.88837" lon="4.6145">
        <ele>226</ele>
        <time>2017-05-05T10:26:05Z</time>
      </trkpt>
      <trkpt lat="45.88835" lon="4.61458">
        <ele>226</ele>
        <time>2017-05-05T10:26:06Z</time>
      </trkpt>
      <trkpt lat="45.88833" lon="4.61466">
        <ele>223</ele>
        <time>2017-05-05T10:26:07Z</time>
      </trkpt>
      <trkpt lat="45.8883" lon="4.61474">
        <ele>223</ele>
        <time>2017-05-05T10:26:08Z</time>
      </trkpt>
      <trkpt lat="45.88827" lon="4.61483">
        <ele>223</ele>
        <time>2017-05-05T10:26:09Z</time>
      </trkpt>
      <trkpt lat="45.88824" lon="4.61491">
        <ele>223</ele>
        <time>2017-05-05T10:26:10Z</time>
      </trkpt>
      <trkpt lat="45.88821" lon="4.61499">
        <ele>223</ele>
        <time>2017-05-05T10:26:11Z</time>
      </trkpt>
      <trkpt lat="45.88819" lon="4.61507">
        <ele>223</ele>
        <time>2017-05-05T10:26:12Z</time>
      </trkpt>
      <trkpt lat="45.88816" lon="4.61516">
        <ele>223</ele>
        <time>2017-05-05T10:26:13Z</time>
      </trkpt>
      <trkpt lat="45.88813" lon="4.61524">
        <ele>223</ele>
        <time>2017-05-05T10:26:14Z</time>
      </trkpt>
      <trkpt lat="45.88811" lon="4.61532">
        <ele>223</ele>
        <time>2017-05-05T10:26:15Z</time>
      </trkpt>
      <trkpt lat="45.88808" lon="4.6154">
        <ele>223</ele>
        <time>2017-05-05T10:26:16Z</time>
      </trkpt>
      <trkpt lat="45.88805" lon="4.61547">
        <ele>223</ele>
        <time>2017-05-05T10:26:17Z</time>
      </trkpt>
      <trkpt lat="45.88802" lon="4.61555">
        <ele>223</ele>
        <time>2017-05-05T10:26:18Z</time>
      </trkpt>
      <trkpt lat="45.88799" lon="4.61562">
        <ele>223</ele>
        <time>2017-05-05T10:26:19Z</time>
      </trkpt>
      <trkpt lat="45.88797" lon="4.6157">
        <ele>223</ele>
        <time>2017-05-05T10:26:20Z</time>
      </trkpt>
      <trkpt lat="45.88794" lon="4.61577">
        <ele>223</ele>
        <time>2017-05-05T10:26:21Z</time>
      </trkpt>
      <trkpt lat="45.88792" lon="4.61584">
        <ele>223</ele>
        <time>2017-05-05T10:26:22Z</time>
      </trkpt>
      <trkpt lat="45.8879" lon="4.61591">
        <ele>223</ele>
        <time>2017-05-05T10:26:23Z</time>
      </trkpt>
      <trkpt lat="45.88787" lon="4.61598">
        <ele>223</ele>
        <time>2017-05-05T10:26:24Z</time>
      </trkpt>
      <trkpt lat="45.88785" lon="4.61605">
        <ele>223</ele>
        <time>2017-05-05T10:26:25Z</time>
      </trkpt>
      <trkpt lat="45.88783" lon="4.61612">
        <ele>223</ele>
        <time>2017-05-05T10:26:26Z</time>
      </trkpt>
      <trkpt lat="45.8878" lon="4.61619">
        <ele>223</ele>
        <time>2017-05-05T10:26:27Z</time>
      </trkpt>
      <trkpt lat="45.88778" lon="4.61626">
        <ele>223</ele>
        <time>2017-05-05T10:26:28Z</time>
      </trkpt>
      <trkpt lat="45.88776" lon="4.61633">
        <ele>224</ele>
        <time>2017-05-05T10:26:29Z</time>
      </trkpt>
      <trkpt lat="45.88773" lon="4.6164">
        <ele>224</ele>
        <time>2017-05-05T10:26:30Z</time>
      </trkpt>
      <trkpt lat="45.88771" lon="4.61647">
        <ele>224</ele>
        <time>2017-05-05T10:26:31Z</time>
      </trkpt>
      <trkpt lat="45.88768" lon="4.61654">
        <ele>223</ele>
        <time>2017-05-05T10:26:32Z</time>
      </trkpt>
      <trkpt lat="45.88766" lon="4.61661">
        <ele>223</ele>
        <time>2017-05-05T10:26:33Z</time>
      </trkpt>
      <trkpt lat="45.88763" lon="4.61668">
        <ele>223</ele>
        <time>2017-05-05T10:26:34Z</time>
      </trkpt>
      <trkpt lat="45.8876" lon="4.61676">
        <ele>223</ele>
        <time>2017-05-05T10:26:35Z</time>
      </trkpt>
      <trkpt lat="45.88758" lon="4.61683">
        <ele>223</ele>
        <time>2017-05-05T10:26:36Z</time>
      </trkpt>
      <trkpt lat="45.88755" lon="4.61691">
        <ele>224</ele>
        <time>2017-05-05T10:26:37Z</time>
      </trkpt>
      <trkpt lat="45.88752" lon="4.61698">
        <ele>223</ele>
        <time>2017-05-05T10:26:38Z</time>
      </trkpt>
      <trkpt lat="45.88749" lon="4.61706">
        <ele>222</ele>
        <time>2017-05-05T10:26:39Z</time>
      </trkpt>
      <trkpt lat="45.88746" lon="4.61714">
        <ele>222</ele>
        <time>2017-05-05T10:26:40Z</time>
      </trkpt>
      <trkpt lat="45.88743" lon="4.61723">
        <ele>222</ele>
        <time>2017-05-05T10:26:41Z</time>
      </trkpt>
      <trkpt lat="45.8874" lon="4.61731">
        <ele>222</ele>
        <time>2017-05-05T10:26:42Z</time>
      </trkpt>
      <trkpt lat="45.88737" lon="4.61739">
        <ele>222</ele>
        <time>2017-05-05T10:26:43Z</time>
      </trkpt>
      <trkpt lat="45.88735" lon="4.61747">
        <ele>222</ele>
        <time>2017-05-05T10:26:44Z</time>
      </trkpt>
      <trkpt lat="45.88732" lon="4.61755">
        <ele>222</ele>
        <time>2017-05-05T10:26:45Z</time>
      </trkpt>
      <trkpt lat="45.88729" lon="4.61763">
        <ele>222</ele>
        <time>2017-05-05T10:26:46Z</time>
      </trkpt>
      <trkpt lat="45.88726" lon="4.6177">
        <ele>222</ele>
        <time>2017-05-05T10:26:47Z</time>
      </trkpt>
      <trkpt lat="45.88724" lon="4.61777">
        <ele>222</ele>
        <time>2017-05-05T10:26:48Z</time>
      </trkpt>
      <trkpt lat="45.88721" lon="4.61785">
        <ele>222</ele>
        <time>2017-05-05T10:26:49Z</time>
      </trkpt>
      <trkpt lat="45.88719" lon="4.61792">
        <ele>222</ele>
        <time>2017-05-05T10:26:50Z</time>
      </trkpt>
      <trkpt lat="45.88716" lon="4.618">
        <ele>222</ele>
        <time>2017-05-05T10:26:51Z</time>
      </trkpt>
      <trkpt lat="45.88714" lon="4.61807">
        <ele>222</ele>
        <time>2017-05-05T10:26:52Z</time>
      </trkpt>
      <trkpt lat="45.88711" lon="4.61814">
        <ele>222</ele>
        <time>2017-05-05T10:26:53Z</time>
      </trkpt>
      <trkpt lat="45.88709" lon="4.61821">
        <ele>222</ele>
        <time>2017-05-05T10:26:54Z</time>
      </trkpt>
      <trkpt lat="45.88706" lon="4.61829">
        <ele>222</ele>
        <time>2017-05-05T10:26:55Z</time>
      </trkpt>
      <trkpt lat="45.88704" lon="4.61837">
        <ele>222</ele>
        <time>2017-05-05T10:26:56Z</time>
      </trkpt>
      <trkpt lat="45.88701" lon="4.61845">
        <ele>222</ele>
        <time>2017-05-05T10:26:57Z</time>
      </trkpt>
      <trkpt lat="45.88698" lon="4.61853">
        <ele>222</ele>
        <time>2017-05-05T10:26:58Z</time>
      </trkpt>
      <trkpt lat="45.88696" lon="4.61862">
        <ele>222</ele>
        <time>2017-05-05T10:26:59Z</time>
      </trkpt>
      <trkpt lat="45.88693" lon="4.61871">
        <ele>222</ele>
        <time>2017-05-05T10:27:00Z</time>
      </trkpt>
      <trkpt lat="45.88691" lon="4.6188">
        <ele>222</ele>
        <time>2017-05-05T10:27:01Z</time>
      </trkpt>
      <trkpt lat="45.88688" lon="4.61888">
        <ele>222</ele>
        <time>2017-05-05T10:27:02Z</time>
      </trkpt>
      <trkpt lat="45.88686" lon="4.61897">
        <ele>222</ele>
        <time>2017-05-05T10:27:03Z</time>
      </trkpt>
      <trkpt lat="45.88684" lon="4.61906">
        <ele>222</ele>
        <time>2017-05-05T10:27:04Z</time>
      </trkpt>
      <trkpt lat="45.88681" lon="4.61914">
        <ele>222</ele>
        <time>2017-05-05T10:27:05Z</time>
      </trkpt>
      <trkpt lat="45.88679" lon="4.61923">
        <ele>222</ele>
        <time>2017-05-05T10:27:06Z</time>
      </trkpt>
      <trkpt lat="45.88677" lon="4.61931">
        <ele>222</ele>
        <time>2017-05-05T10:27:07Z</time>
      </trkpt>
      <trkpt lat="45.88675" lon="4.61939">
        <ele>222</ele>
        <time>2017-05-05T10:27:08Z</time>
      </trkpt>
      <trkpt lat="45.88672" lon="4.61947">
        <ele>223</ele>
        <time>2017-05-05T10:27:09Z</time>
      </trkpt>
      <trkpt lat="45.8867" lon="4.61955">
        <ele>223</ele>
        <time>2017-05-05T10:27:10Z</time>
      </trkpt>
      <trkpt lat="45.88668" lon="4.61963">
        <ele>223</ele>
        <time>2017-05-05T10:27:11Z</time>
      </trkpt>
      <trkpt lat="45.88665" lon="4.61971">
        <ele>222</ele>
        <time>2017-05-05T10:27:12Z</time>
      </trkpt>
      <trkpt lat="45.88663" lon="4.61979">
        <ele>222</ele>
        <time>2017-05-05T10:27:13Z</time>
      </trkpt>
      <trkpt lat="45.8866" lon="4.61987">
        <ele>222</ele>
        <time>2017-05-05T10:27:14Z</time>
      </trkpt>
      <trkpt lat="45.88657" lon="4.61995">
        <ele>222</ele>
        <time>2017-05-05T10:27:15Z</time>
      </trkpt>
      <trkpt lat="45.88655" lon="4.62002">
        <ele>222</ele>
        <time>2017-05-05T10:27:16Z</time>
      </trkpt>
      <trkpt lat="45.88652" lon="4.6201">
        <ele>222</ele>
        <time>2017-05-05T10:27:17Z</time>
      </trkpt>
      <trkpt lat="45.8865" lon="4.62018">
        <ele>222</ele>
        <time>2017-05-05T10:27:18Z</time>
      </trkpt>
      <trkpt lat="45.88647" lon="4.62025">
        <ele>223</ele>
        <time>2017-05-05T10:27:19Z</time>
      </trkpt>
      <trkpt lat="45.88645" lon="4.62033">
        <ele>223</ele>
        <time>2017-05-05T10:27:20Z</time>
      </trkpt>
      <trkpt lat="45.88642" lon="4.6204">
        <ele>223</ele>
        <time>2017-05-05T10:27:21Z</time>
      </trkpt>
      <trkpt lat="45.88639" lon="4.62047">
        <ele>223</ele>
        <time>2017-05-05T10:27:22Z</time>
      </trkpt>
      <trkpt lat="45.88637" lon="4.62054">
        <ele>223</ele>
        <time>2017-05-05T10:27:23Z</time>
      </trkpt>
      <trkpt lat="45.88635" lon="4.62061">
        <ele>223</ele>
        <time>2017-05-05T10:27:24Z</time>
      </trkpt>
      <trkpt lat="45.88633" lon="4.62068">
        <ele>223</ele>
        <time>2017-05-05T10:27:25Z</time>
      </trkpt>
      <trkpt lat="45.8863" lon="4.62074">
        <ele>223</ele>
        <time>2017-05-05T10:27:26Z</time>
      </trkpt>
      <trkpt lat="45.88629" lon="4.6208">
        <ele>223</ele>
        <time>2017-05-05T10:27:27Z</time>
      </trkpt>
      <trkpt lat="45.88625" lon="4.62092">
        <ele>223</ele>
        <time>2017-05-05T10:27:29Z</time>
      </trkpt>
      <trkpt lat="45.88623" lon="4.62097">
        <ele>223</ele>
        <time>2017-05-05T10:27:30Z</time>
      </trkpt>
      <trkpt lat="45.8862" lon="4.62107">
        <ele>223</ele>
        <time>2017-05-05T10:27:32Z</time>
      </trkpt>
      <trkpt lat="45.88618" lon="4.62112">
        <ele>223</ele>
        <time>2017-05-05T10:27:33Z</time>
      </trkpt>
      <trkpt lat="45.88614" lon="4.62122">
        <ele>223</ele>
        <time>2017-05-05T10:27:35Z</time>
      </trkpt>
      <trkpt lat="45.88612" lon="4.62128">
        <ele>223</ele>
        <time>2017-05-05T10:27:36Z</time>
      </trkpt>
      <trkpt lat="45.88609" lon="4.62134">
        <ele>223</ele>
        <time>2017-05-05T10:27:37Z</time>
      </trkpt>
      <trkpt lat="45.88607" lon="4.62141">
        <ele>223</ele>
        <time>2017-05-05T10:27:38Z</time>
      </trkpt>
      <trkpt lat="45.88605" lon="4.62147">
        <ele>222</ele>
        <time>2017-05-05T10:27:39Z</time>
      </trkpt>
      <trkpt lat="45.88602" lon="4.62154">
        <ele>222</ele>
        <time>2017-05-05T10:27:40Z</time>
      </trkpt>
      <trkpt lat="45.886" lon="4.62161">
        <ele>222</ele>
        <time>2017-05-05T10:27:41Z</time>
      </trkpt>
      <trkpt lat="45.88598" lon="4.62167">
        <ele>222</ele>
        <time>2017-05-05T10:27:42Z</time>
      </trkpt>
      <trkpt lat="45.88595" lon="4.62174">
        <ele>222</ele>
        <time>2017-05-05T10:27:43Z</time>
      </trkpt>
      <trkpt lat="45.88593" lon="4.6218">
        <ele>222</ele>
        <time>2017-05-05T10:27:44Z</time>
      </trkpt>
      <trkpt lat="45.88591" lon="4.62187">
        <ele>222</ele>
        <time>2017-05-05T10:27:45Z</time>
      </trkpt>
      <trkpt lat="45.88589" lon="4.62193">
        <ele>222</ele>
        <time>2017-05-05T10:27:46Z</time>
      </trkpt>
      <trkpt lat="45.88586" lon="4.622">
        <ele>222</ele>
        <time>2017-05-05T10:27:47Z</time>
      </trkpt>
      <trkpt lat="45.88584" lon="4.62206">
        <ele>222</ele>
        <time>2017-05-05T10:27:48Z</time>
      </trkpt>
      <trkpt lat="45.88581" lon="4.62211">
        <ele>221</ele>
        <time>2017-05-05T10:27:49Z</time>
      </trkpt>
      <trkpt lat="45.88579" lon="4.62218">
        <ele>221</ele>
        <time>2017-05-05T10:27:50Z</time>
      </trkpt>
      <trkpt lat="45.88577" lon="4.62223">
        <ele>221</ele>
        <time>2017-05-05T10:27:51Z</time>
      </trkpt>
      <trkpt lat="45.88574" lon="4.6223">
        <ele>221</ele>
        <time>2017-05-05T10:27:52Z</time>
      </trkpt>
      <trkpt lat="45.88572" lon="4.62236">
        <ele>221</ele>
        <time>2017-05-05T10:27:53Z</time>
      </trkpt>
      <trkpt lat="45.88569" lon="4.62242">
        <ele>221</ele>
        <time>2017-05-05T10:27:54Z</time>
      </trkpt>
      <trkpt lat="45.88566" lon="4.62248">
        <ele>221</ele>
        <time>2017-05-05T10:27:55Z</time>
      </trkpt>
      <trkpt lat="45.88564" lon="4.62254">
        <ele>221</ele>
        <time>2017-05-05T10:27:56Z</time>
      </trkpt>
      <trkpt lat="45.88561" lon="4.6226">
        <ele>221</ele>
        <time>2017-05-05T10:27:57Z</time>
      </trkpt>
      <trkpt lat="45.88559" lon="4.62266">
        <ele>221</ele>
        <time>2017-05-05T10:27:58Z</time>
      </trkpt>
      <trkpt lat="45.88556" lon="4.62273">
        <ele>221</ele>
        <time>2017-05-05T10:27:59Z</time>
      </trkpt>
      <trkpt lat="45.88553" lon="4.62279">
        <ele>221</ele>
        <time>2017-05-05T10:28:00Z</time>
      </trkpt>
      <trkpt lat="45.88551" lon="4.62286">
        <ele>221</ele>
        <time>2017-05-05T10:28:01Z</time>
      </trkpt>
      <trkpt lat="45.88548" lon="4.62292">
        <ele>221</ele>
        <time>2017-05-05T10:28:02Z</time>
      </trkpt>
      <trkpt lat="45.88545" lon="4.62298">
        <ele>221</ele>
        <time>2017-05-05T10:28:03Z</time>
      </trkpt>
      <trkpt lat="45.88543" lon="4.62304">
        <ele>221</ele>
        <time>2017-05-05T10:28:04Z</time>
      </trkpt>
      <trkpt lat="45.8854" lon="4.62311">
        <ele>221</ele>
        <time>2017-05-05T10:28:05Z</time>
      </trkpt>
      <trkpt lat="45.88538" lon="4.62317">
        <ele>221</ele>
        <time>2017-05-05T10:28:06Z</time>
      </trkpt>
      <trkpt lat="45.88536" lon="4.62324">
        <ele>221</ele>
        <time>2017-05-05T10:28:07Z</time>
      </trkpt>
      <trkpt lat="45.88533" lon="4.62331">
        <ele>221</ele>
        <time>2017-05-05T10:28:08Z</time>
      </trkpt>
      <trkpt lat="45.8853" lon="4.62338">
        <ele>220</ele>
        <time>2017-05-05T10:28:09Z</time>
      </trkpt>
      <trkpt lat="45.88527" lon="4.62344">
        <ele>220</ele>
        <time>2017-05-05T10:28:10Z</time>
      </trkpt>
      <trkpt lat="45.88525" lon="4.62351">
        <ele>220</ele>
        <time>2017-05-05T10:28:11Z</time>
      </trkpt>
      <trkpt lat="45.88522" lon="4.62359">
        <ele>220</ele>
        <time>2017-05-05T10:28:12Z</time>
      </trkpt>
      <trkpt lat="45.8852" lon="4.62366">
        <ele>220</ele>
        <time>2017-05-05T10:28:13Z</time>
      </trkpt>
      <trkpt lat="45.88517" lon="4.62373">
        <ele>220</ele>
        <time>2017-05-05T10:28:14Z</time>
      </trkpt>
      <trkpt lat="45.88515" lon="4.6238">
        <ele>220</ele>
        <time>2017-05-05T10:28:15Z</time>
      </trkpt>
      <trkpt lat="45.88512" lon="4.62385">
        <ele>220</ele>
        <time>2017-05-05T10:28:16Z</time>
      </trkpt>
      <trkpt lat="45.88509" lon="4.62392">
        <ele>220</ele>
        <time>2017-05-05T10:28:17Z</time>
      </trkpt>
      <trkpt lat="45.88507" lon="4.62398">
        <ele>220</ele>
        <time>2017-05-05T10:28:18Z</time>
      </trkpt>
      <trkpt lat="45.88505" lon="4.62404">
        <ele>220</ele>
        <time>2017-05-05T10:28:19Z</time>
      </trkpt>
      <trkpt lat="45.88502" lon="4.6241">
        <ele>220</ele>
        <time>2017-05-05T10:28:20Z</time>
      </trkpt>
      <trkpt lat="45.885" lon="4.62417">
        <ele>220</ele>
        <time>2017-05-05T10:28:21Z</time>
      </trkpt>
      <trkpt lat="45.88497" lon="4.62424">
        <ele>220</ele>
        <time>2017-05-05T10:28:22Z</time>
      </trkpt>
      <trkpt lat="45.88495" lon="4.62431">
        <ele>219</ele>
        <time>2017-05-05T10:28:23Z</time>
      </trkpt>
      <trkpt lat="45.88492" lon="4.62439">
        <ele>219</ele>
        <time>2017-05-05T10:28:24Z</time>
      </trkpt>
      <trkpt lat="45.8849" lon="4.62446">
        <ele>219</ele>
        <time>2017-05-05T10:28:25Z</time>
      </trkpt>
      <trkpt lat="45.88488" lon="4.62453">
        <ele>219</ele>
        <time>2017-05-05T10:28:26Z</time>
      </trkpt>
      <trkpt lat="45.88486" lon="4.6246">
        <ele>219</ele>
        <time>2017-05-05T10:28:27Z</time>
      </trkpt>
      <trkpt lat="45.88483" lon="4.62466">
        <ele>219</ele>
        <time>2017-05-05T10:28:28Z</time>
      </trkpt>
      <trkpt lat="45.88481" lon="4.62472">
        <ele>219</ele>
        <time>2017-05-05T10:28:29Z</time>
      </trkpt>
      <trkpt lat="45.88479" lon="4.62479">
        <ele>219</ele>
        <time>2017-05-05T10:28:30Z</time>
      </trkpt>
      <trkpt lat="45.88477" lon="4.62485">
        <ele>219</ele>
        <time>2017-05-05T10:28:31Z</time>
      </trkpt>
      <trkpt lat="45.88474" lon="4.62491">
        <ele>219</ele>
        <time>2017-05-05T10:28:32Z</time>
      </trkpt>
      <trkpt lat="45.88472" lon="4.62498">
        <ele>219</ele>
        <time>2017-05-05T10:28:33Z</time>
      </trkpt>
      <trkpt lat="45.8847" lon="4.62505">
        <ele>219</ele>
        <time>2017-05-05T10:28:34Z</time>
      </trkpt>
      <trkpt lat="45.88467" lon="4.62512">
        <ele>219</ele>
        <time>2017-05-05T10:28:35Z</time>
      </trkpt>
      <trkpt lat="45.88465" lon="4.62518">
        <ele>219</ele>
        <time>2017-05-05T10:28:36Z</time>
      </trkpt>
      <trkpt lat="45.88462" lon="4.62525">
        <ele>219</ele>
        <time>2017-05-05T10:28:37Z</time>
      </trkpt>
      <trkpt lat="45.8846" lon="4.62533">
        <ele>219</ele>
        <time>2017-05-05T10:28:38Z</time>
      </trkpt>
      <trkpt lat="45.88458" lon="4.6254">
        <ele>219</ele>
        <time>2017-05-05T10:28:39Z</time>
      </trkpt>
      <trkpt lat="45.88456" lon="4.62547">
        <ele>218</ele>
        <time>2017-05-05T10:28:40Z</time>
      </trkpt>
      <trkpt lat="45.88453" lon="4.62554">
        <ele>218</ele>
        <time>2017-05-05T10:28:41Z</time>
      </trkpt>
      <trkpt lat="45.88451" lon="4.62561">
        <ele>218</ele>
        <time>2017-05-05T10:28:42Z</time>
      </trkpt>
      <trkpt lat="45.88448" lon="4.62568">
        <ele>218</ele>
        <time>2017-05-05T10:28:43Z</time>
      </trkpt>
      <trkpt lat="45.88446" lon="4.62575">
        <ele>218</ele>
        <time>2017-05-05T10:28:44Z</time>
      </trkpt>
      <trkpt lat="45.88443" lon="4.62581">
        <ele>218</ele>
        <time>2017-05-05T10:28:45Z</time>
      </trkpt>
      <trkpt lat="45.88441" lon="4.62587">
        <ele>218</ele>
        <time>2017-05-05T10:28:46Z</time>
      </trkpt>
      <trkpt lat="45.88439" lon="4.62594">
        <ele>218</ele>
        <time>2017-05-05T10:28:47Z</time>
      </trkpt>
      <trkpt lat="45.88437" lon="4.626">
        <ele>218</ele>
        <time>2017-05-05T10:28:48Z</time>
      </trkpt>
      <trkpt lat="45.88435" lon="4.62606">
        <ele>218</ele>
        <time>2017-05-05T10:28:49Z</time>
      </trkpt>
      <trkpt lat="45.88432" lon="4.62613">
        <ele>218</ele>
        <time>2017-05-05T10:28:50Z</time>
      </trkpt>
      <trkpt lat="45.8843" lon="4.62619">
        <ele>218</ele>
        <time>2017-05-05T10:28:51Z</time>
      </trkpt>
      <trkpt lat="45.88428" lon="4.62626">
        <ele>219</ele>
        <time>2017-05-05T10:28:52Z</time>
      </trkpt>
      <trkpt lat="45.88426" lon="4.62633">
        <ele>219</ele>
        <time>2017-05-05T10:28:53Z</time>
      </trkpt>
      <trkpt lat="45.88423" lon="4.6264">
        <ele>219</ele>
        <time>2017-05-05T10:28:54Z</time>
      </trkpt>
      <trkpt lat="45.88421" lon="4.62647">
        <ele>219</ele>
        <time>2017-05-05T10:28:55Z</time>
      </trkpt>
      <trkpt lat="45.88418" lon="4.62654">
        <ele>219</ele>
        <time>2017-05-05T10:28:56Z</time>
      </trkpt>
      <trkpt lat="45.88415" lon="4.62661">
        <ele>219</ele>
        <time>2017-05-05T10:28:57Z</time>
      </trkpt>
      <trkpt lat="45.88412" lon="4.62668">
        <ele>219</ele>
        <time>2017-05-05T10:28:58Z</time>
      </trkpt>
      <trkpt lat="45.8841" lon="4.62675">
        <ele>219</ele>
        <time>2017-05-05T10:28:59Z</time>
      </trkpt>
      <trkpt lat="45.88407" lon="4.62682">
        <ele>218</ele>
        <time>2017-05-05T10:29:00Z</time>
      </trkpt>
      <trkpt lat="45.88404" lon="4.62689">
        <ele>218</ele>
        <time>2017-05-05T10:29:01Z</time>
      </trkpt>
      <trkpt lat="45.88401" lon="4.62695">
        <ele>218</ele>
        <time>2017-05-05T10:29:02Z</time>
      </trkpt>
      <trkpt lat="45.88398" lon="4.62701">
        <ele>218</ele>
        <time>2017-05-05T10:29:03Z</time>
      </trkpt>
      <trkpt lat="45.88396" lon="4.62708">
        <ele>218</ele>
        <time>2017-05-05T10:29:04Z</time>
      </trkpt>
      <trkpt lat="45.88393" lon="4.62714">
        <ele>218</ele>
        <time>2017-05-05T10:29:05Z</time>
      </trkpt>
      <trkpt lat="45.8839" lon="4.6272">
        <ele>218</ele>
        <time>2017-05-05T10:29:06Z</time>
      </trkpt>
      <trkpt lat="45.88387" lon="4.62726">
        <ele>218</ele>
        <time>2017-05-05T10:29:07Z</time>
      </trkpt>
      <trkpt lat="45.88384" lon="4.62731">
        <ele>218</ele>
        <time>2017-05-05T10:29:08Z</time>
      </trkpt>
      <trkpt lat="45.88381" lon="4.62736">
        <ele>218</ele>
        <time>2017-05-05T10:29:09Z</time>
      </trkpt>
      <trkpt lat="45.88379" lon="4.62742">
        <ele>218</ele>
        <time>2017-05-05T10:29:10Z</time>
      </trkpt>
      <trkpt lat="45.88376" lon="4.62747">
        <ele>218</ele>
        <time>2017-05-05T10:29:11Z</time>
      </trkpt>
      <trkpt lat="45.88373" lon="4.62752">
        <ele>218</ele>
        <time>2017-05-05T10:29:12Z</time>
      </trkpt>
      <trkpt lat="45.8837" lon="4.62757">
        <ele>218</ele>
        <time>2017-05-05T10:29:13Z</time>
      </trkpt>
      <trkpt lat="45.88367" lon="4.62763">
        <ele>218</ele>
        <time>2017-05-05T10:29:14Z</time>
      </trkpt>
      <trkpt lat="45.88364" lon="4.62769">
        <ele>218</ele>
        <time>2017-05-05T10:29:15Z</time>
      </trkpt>
      <trkpt lat="45.8836" lon="4.62775">
        <ele>218</ele>
        <time>2017-05-05T10:29:16Z</time>
      </trkpt>
      <trkpt lat="45.88357" lon="4.62781">
        <ele>218</ele>
        <time>2017-05-05T10:29:17Z</time>
      </trkpt>
      <trkpt lat="45.88353" lon="4.62787">
        <ele>218</ele>
        <time>2017-05-05T10:29:18Z</time>
      </trkpt>
      <trkpt lat="45.8835" lon="4.62793">
        <ele>218</ele>
        <time>2017-05-05T10:29:19Z</time>
      </trkpt>
      <trkpt lat="45.88346" lon="4.628">
        <ele>218</ele>
        <time>2017-05-05T10:29:20Z</time>
      </trkpt>
      <trkpt lat="45.88343" lon="4.62806">
        <ele>218</ele>
        <time>2017-05-05T10:29:21Z</time>
      </trkpt>
      <trkpt lat="45.88339" lon="4.62813">
        <ele>218</ele>
        <time>2017-05-05T10:29:22Z</time>
      </trkpt>
      <trkpt lat="45.88335" lon="4.62819">
        <ele>219</ele>
        <time>2017-05-05T10:29:23Z</time>
      </trkpt>
      <trkpt lat="45.88331" lon="4.62826">
        <ele>219</ele>
        <time>2017-05-05T10:29:24Z</time>
      </trkpt>
      <trkpt lat="45.88327" lon="4.62832">
        <ele>219</ele>
        <time>2017-05-05T10:29:25Z</time>
      </trkpt>
      <trkpt lat="45.88323" lon="4.62839">
        <ele>219</ele>
        <time>2017-05-05T10:29:26Z</time>
      </trkpt>
      <trkpt lat="45.88319" lon="4.62846">
        <ele>218</ele>
        <time>2017-05-05T10:29:27Z</time>
      </trkpt>
      <trkpt lat="45.88314" lon="4.62853">
        <ele>218</ele>
        <time>2017-05-05T10:29:28Z</time>
      </trkpt>
      <trkpt lat="45.8831" lon="4.6286">
        <ele>218</ele>
        <time>2017-05-05T10:29:29Z</time>
      </trkpt>
      <trkpt lat="45.88306" lon="4.62867">
        <ele>218</ele>
        <time>2017-05-05T10:29:30Z</time>
      </trkpt>
      <trkpt lat="45.88302" lon="4.62874">
        <ele>218</ele>
        <time>2017-05-05T10:29:31Z</time>
      </trkpt>
      <trkpt lat="45.88297" lon="4.62881">
        <ele>218</ele>
        <time>2017-05-05T10:29:32Z</time>
      </trkpt>
      <trkpt lat="45.88293" lon="4.62887">
        <ele>218</ele>
        <time>2017-05-05T10:29:33Z</time>
      </trkpt>
      <trkpt lat="45.8829" lon="4.62893">
        <ele>218</ele>
        <time>2017-05-05T10:29:34Z</time>
      </trkpt>
      <trkpt lat="45.88286" lon="4.629">
        <ele>218</ele>
        <time>2017-05-05T10:29:35Z</time>
      </trkpt>
      <trkpt lat="45.88282" lon="4.62906">
        <ele>218</ele>
        <time>2017-05-05T10:29:36Z</time>
      </trkpt>
      <trkpt lat="45.88278" lon="4.62912">
        <ele>218</ele>
        <time>2017-05-05T10:29:37Z</time>
      </trkpt>
      <trkpt lat="45.88275" lon="4.62918">
        <ele>217</ele>
        <time>2017-05-05T10:29:38Z</time>
      </trkpt>
      <trkpt lat="45.88271" lon="4.62924">
        <ele>217</ele>
        <time>2017-05-05T10:29:39Z</time>
      </trkpt>
      <trkpt lat="45.88267" lon="4.62931">
        <ele>217</ele>
        <time>2017-05-05T10:29:40Z</time>
      </trkpt>
      <trkpt lat="45.88263" lon="4.62938">
        <ele>217</ele>
        <time>2017-05-05T10:29:41Z</time>
      </trkpt>
      <trkpt lat="45.88259" lon="4.62946">
        <ele>217</ele>
        <time>2017-05-05T10:29:42Z</time>
      </trkpt>
      <trkpt lat="45.88255" lon="4.62953">
        <ele>217</ele>
        <time>2017-05-05T10:29:43Z</time>
      </trkpt>
      <trkpt lat="45.88251" lon="4.6296">
        <ele>217</ele>
        <time>2017-05-05T10:29:44Z</time>
      </trkpt>
      <trkpt lat="45.88247" lon="4.62968">
        <ele>217</ele>
        <time>2017-05-05T10:29:45Z</time>
      </trkpt>
      <trkpt lat="45.88243" lon="4.62976">
        <ele>217</ele>
        <time>2017-05-05T10:29:46Z</time>
      </trkpt>
      <trkpt lat="45.88239" lon="4.62983">
        <ele>217</ele>
        <time>2017-05-05T10:29:47Z</time>
      </trkpt>
      <trkpt lat="45.88235" lon="4.6299">
        <ele>217</ele>
        <time>2017-05-05T10:29:48Z</time>
      </trkpt>
      <trkpt lat="45.88232" lon="4.62997">
        <ele>217</ele>
        <time>2017-05-05T10:29:49Z</time>
      </trkpt>
      <trkpt lat="45.88229" lon="4.63004">
        <ele>217</ele>
        <time>2017-05-05T10:29:50Z</time>
      </trkpt>
      <trkpt lat="45.88226" lon="4.63012">
        <ele>217</ele>
        <time>2017-05-05T10:29:51Z</time>
      </trkpt>
      <trkpt lat="45.88223" lon="4.63019">
        <ele>217</ele>
        <time>2017-05-05T10:29:52Z</time>
      </trkpt>
      <trkpt lat="45.88221" lon="4.63026">
        <ele>217</ele>
        <time>2017-05-05T10:29:53Z</time>
      </trkpt>
      <trkpt lat="45.88218" lon="4.63033">
        <ele>217</ele>
        <time>2017-05-05T10:29:54Z</time>
      </trkpt>
      <trkpt lat="45.88215" lon="4.6304">
        <ele>217</ele>
        <time>2017-05-05T10:29:55Z</time>
      </trkpt>
      <trkpt lat="45.88213" lon="4.63046">
        <ele>217</ele>
        <time>2017-05-05T10:29:56Z</time>
      </trkpt>
      <trkpt lat="45.88211" lon="4.63053">
        <ele>217</ele>
        <time>2017-05-05T10:29:57Z</time>
      </trkpt>
      <trkpt lat="45.88208" lon="4.6306">
        <ele>217</ele>
        <time>2017-05-05T10:29:58Z</time>
      </trkpt>
      <trkpt lat="45.88206" lon="4.63067">
        <ele>217</ele>
        <time>2017-05-05T10:29:59Z</time>
      </trkpt>
      <trkpt lat="45.88204" lon="4.63073">
        <ele>217</ele>
        <time>2017-05-05T10:30:00Z</time>
      </trkpt>
      <trkpt lat="45.88202" lon="4.6308">
        <ele>217</ele>
        <time>2017-05-05T10:30:01Z</time>
      </trkpt>
      <trkpt lat="45.882" lon="4.63087">
        <ele>217</ele>
        <time>2017-05-05T10:30:02Z</time>
      </trkpt>
      <trkpt lat="45.88197" lon="4.63094">
        <ele>217</ele>
        <time>2017-05-05T10:30:03Z</time>
      </trkpt>
      <trkpt lat="45.88195" lon="4.63101">
        <ele>217</ele>
        <time>2017-05-05T10:30:04Z</time>
      </trkpt>
      <trkpt lat="45.88193" lon="4.63108">
        <ele>217</ele>
        <time>2017-05-05T10:30:05Z</time>
      </trkpt>
      <trkpt lat="45.88191" lon="4.63115">
        <ele>217</ele>
        <time>2017-05-05T10:30:06Z</time>
      </trkpt>
      <trkpt lat="45.88189" lon="4.63122">
        <ele>217</ele>
        <time>2017-05-05T10:30:07Z</time>
      </trkpt>
      <trkpt lat="45.88188" lon="4.6313">
        <ele>217</ele>
        <time>2017-05-05T10:30:08Z</time>
      </trkpt>
      <trkpt lat="45.88186" lon="4.63139">
        <ele>217</ele>
        <time>2017-05-05T10:30:09Z</time>
      </trkpt>
      <trkpt lat="45.88184" lon="4.63147">
        <ele>217</ele>
        <time>2017-05-05T10:30:10Z</time>
      </trkpt>
      <trkpt lat="45.88183" lon="4.63154">
        <ele>217</ele>
        <time>2017-05-05T10:30:11Z</time>
      </trkpt>
      <trkpt lat="45.88181" lon="4.63161">
        <ele>217</ele>
        <time>2017-05-05T10:30:12Z</time>
      </trkpt>
      <trkpt lat="45.88179" lon="4.63168">
        <ele>217</ele>
        <time>2017-05-05T10:30:13Z</time>
      </trkpt>
      <trkpt lat="45.88178" lon="4.63175">
        <ele>217</ele>
        <time>2017-05-05T10:30:14Z</time>
      </trkpt>
      <trkpt lat="45.88176" lon="4.63182">
        <ele>217</ele>
        <time>2017-05-05T10:30:15Z</time>
      </trkpt>
      <trkpt lat="45.88175" lon="4.6319">
        <ele>217</ele>
        <time>2017-05-05T10:30:16Z</time>
      </trkpt>
      <trkpt lat="45.88173" lon="4.63198">
        <ele>217</ele>
        <time>2017-05-05T10:30:17Z</time>
      </trkpt>
      <trkpt lat="45.88172" lon="4.63206">
        <ele>217</ele>
        <time>2017-05-05T10:30:18Z</time>
      </trkpt>
      <trkpt lat="45.8817" lon="4.63214">
        <ele>217</ele>
        <time>2017-05-05T10:30:19Z</time>
      </trkpt>
      <trkpt lat="45.88168" lon="4.63223">
        <ele>217</ele>
        <time>2017-05-05T10:30:20Z</time>
      </trkpt>
      <trkpt lat="45.88166" lon="4.63231">
        <ele>217</ele>
        <time>2017-05-05T10:30:21Z</time>
      </trkpt>
      <trkpt lat="45.88165" lon="4.6324">
        <ele>217</ele>
        <time>2017-05-05T10:30:22Z</time>
      </trkpt>
      <trkpt lat="45.88163" lon="4.63249">
        <ele>216</ele>
        <time>2017-05-05T10:30:23Z</time>
      </trkpt>
      <trkpt lat="45.88162" lon="4.63257">
        <ele>216</ele>
        <time>2017-05-05T10:30:24Z</time>
      </trkpt>
      <trkpt lat="45.88161" lon="4.63266">
        <ele>216</ele>
        <time>2017-05-05T10:30:25Z</time>
      </trkpt>
      <trkpt lat="45.88159" lon="4.63274">
        <ele>216</ele>
        <time>2017-05-05T10:30:26Z</time>
      </trkpt>
      <trkpt lat="45.88158" lon="4.63281">
        <ele>217</ele>
        <time>2017-05-05T10:30:27Z</time>
      </trkpt>
      <trkpt lat="45.88156" lon="4.63289">
        <ele>217</ele>
        <time>2017-05-05T10:30:28Z</time>
      </trkpt>
      <trkpt lat="45.88155" lon="4.63296">
        <ele>217</ele>
        <time>2017-05-05T10:30:29Z</time>
      </trkpt>
      <trkpt lat="45.88153" lon="4.63304">
        <ele>216</ele>
        <time>2017-05-05T10:30:30Z</time>
      </trkpt>
      <trkpt lat="45.88152" lon="4.63311">
        <ele>216</ele>
        <time>2017-05-05T10:30:31Z</time>
      </trkpt>
      <trkpt lat="45.88151" lon="4.63318">
        <ele>216</ele>
        <time>2017-05-05T10:30:32Z</time>
      </trkpt>
      <trkpt lat="45.88149" lon="4.63325">
        <ele>216</ele>
        <time>2017-05-05T10:30:33Z</time>
      </trkpt>
      <trkpt lat="45.88148" lon="4.63332">
        <ele>216</ele>
        <time>2017-05-05T10:30:34Z</time>
      </trkpt>
      <trkpt lat="45.88147" lon="4.63339">
        <ele>216</ele>
        <time>2017-05-05T10:30:35Z</time>
      </trkpt>
      <trkpt lat="45.88146" lon="4.63346">
        <ele>216</ele>
        <time>2017-05-05T10:30:36Z</time>
      </trkpt>
      <trkpt lat="45.88145" lon="4.63353">
        <ele>216</ele>
        <time>2017-05-05T10:30:37Z</time>
      </trkpt>
      <trkpt lat="45.88143" lon="4.6336">
        <ele>216</ele>
        <time>2017-05-05T10:30:38Z</time>
      </trkpt>
      <trkpt lat="45.88142" lon="4.63367">
        <ele>216</ele>
        <time>2017-05-05T10:30:39Z</time>
      </trkpt>
      <trkpt lat="45.8814" lon="4.63374">
        <ele>216</ele>
        <time>2017-05-05T10:30:40Z</time>
      </trkpt>
      <trkpt lat="45.88139" lon="4.63382">
        <ele>216</ele>
        <time>2017-05-05T10:30:41Z</time>
      </trkpt>
      <trkpt lat="45.88138" lon="4.6339">
        <ele>216</ele>
        <time>2017-05-05T10:30:42Z</time>
      </trkpt>
      <trkpt lat="45.88136" lon="4.63397">
        <ele>216</ele>
        <time>2017-05-05T10:30:43Z</time>
      </trkpt>
      <trkpt lat="45.88134" lon="4.63405">
        <ele>216</ele>
        <time>2017-05-05T10:30:44Z</time>
      </trkpt>
      <trkpt lat="45.88132" lon="4.63413">
        <ele>216</ele>
        <time>2017-05-05T10:30:45Z</time>
      </trkpt>
      <trkpt lat="45.8813" lon="4.6342">
        <ele>216</ele>
        <time>2017-05-05T10:30:46Z</time>
      </trkpt>
      <trkpt lat="45.88128" lon="4.63428">
        <ele>216</ele>
        <time>2017-05-05T10:30:47Z</time>
      </trkpt>
      <trkpt lat="45.88126" lon="4.63436">
        <ele>216</ele>
        <time>2017-05-05T10:30:48Z</time>
      </trkpt>
      <trkpt lat="45.88124" lon="4.63444">
        <ele>216</ele>
        <time>2017-05-05T10:30:49Z</time>
      </trkpt>
      <trkpt lat="45.88123" lon="4.63452">
        <ele>216</ele>
        <time>2017-05-05T10:30:50Z</time>
      </trkpt>
      <trkpt lat="45.88121" lon="4.6346">
        <ele>217</ele>
        <time>2017-05-05T10:30:51Z</time>
      </trkpt>
      <trkpt lat="45.88119" lon="4.63468">
        <ele>217</ele>
        <time>2017-05-05T10:30:52Z</time>
      </trkpt>
      <trkpt lat="45.88117" lon="4.63476">
        <ele>217</ele>
        <time>2017-05-05T10:30:53Z</time>
      </trkpt>
      <trkpt lat="45.88115" lon="4.63484">
        <ele>217</ele>
        <time>2017-05-05T10:30:54Z</time>
      </trkpt>
      <trkpt lat="45.88113" lon="4.63492">
        <ele>217</ele>
        <time>2017-05-05T10:30:55Z</time>
      </trkpt>
      <trkpt lat="45.88111" lon="4.63499">
        <ele>217</ele>
        <time>2017-05-05T10:30:56Z</time>
      </trkpt>
      <trkpt lat="45.88109" lon="4.63507">
        <ele>217</ele>
        <time>2017-05-05T10:30:57Z</time>
      </trkpt>
      <trkpt lat="45.88107" lon="4.63514">
        <ele>217</ele>
        <time>2017-05-05T10:30:58Z</time>
      </trkpt>
      <trkpt lat="45.88105" lon="4.63521">
        <ele>217</ele>
        <time>2017-05-05T10:30:59Z</time>
      </trkpt>
      <trkpt lat="45.88103" lon="4.63528">
        <ele>216</ele>
        <time>2017-05-05T10:31:00Z</time>
      </trkpt>
      <trkpt lat="45.88101" lon="4.63535">
        <ele>216</ele>
        <time>2017-05-05T10:31:01Z</time>
      </trkpt>
      <trkpt lat="45.88099" lon="4.63542">
        <ele>216</ele>
        <time>2017-05-05T10:31:02Z</time>
      </trkpt>
      <trkpt lat="45.88097" lon="4.63549">
        <ele>216</ele>
        <time>2017-05-05T10:31:03Z</time>
      </trkpt>
      <trkpt lat="45.88094" lon="4.63556">
        <ele>216</ele>
        <time>2017-05-05T10:31:04Z</time>
      </trkpt>
      <trkpt lat="45.88092" lon="4.63563">
        <ele>216</ele>
        <time>2017-05-05T10:31:05Z</time>
      </trkpt>
      <trkpt lat="45.8809" lon="4.6357">
        <ele>216</ele>
        <time>2017-05-05T10:31:06Z</time>
      </trkpt>
      <trkpt lat="45.88087" lon="4.63578">
        <ele>216</ele>
        <time>2017-05-05T10:31:07Z</time>
      </trkpt>
      <trkpt lat="45.88084" lon="4.63585">
        <ele>216</ele>
        <time>2017-05-05T10:31:08Z</time>
      </trkpt>
      <trkpt lat="45.88082" lon="4.63592">
        <ele>216</ele>
        <time>2017-05-05T10:31:09Z</time>
      </trkpt>
      <trkpt lat="45.88079" lon="4.636">
        <ele>216</ele>
        <time>2017-05-05T10:31:10Z</time>
      </trkpt>
      <trkpt lat="45.88075" lon="4.63607">
        <ele>216</ele>
        <time>2017-05-05T10:31:11Z</time>
      </trkpt>
      <trkpt lat="45.88072" lon="4.63615">
        <ele>216</ele>
        <time>2017-05-05T10:31:12Z</time>
      </trkpt>
      <trkpt lat="45.88069" lon="4.63622">
        <ele>216</ele>
        <time>2017-05-05T10:31:13Z</time>
      </trkpt>
      <trkpt lat="45.88066" lon="4.63629">
        <ele>215</ele>
        <time>2017-05-05T10:31:14Z</time>
      </trkpt>
      <trkpt lat="45.88063" lon="4.63636">
        <ele>215</ele>
        <time>2017-05-05T10:31:15Z</time>
      </trkpt>
      <trkpt lat="45.8806" lon="4.63643">
        <ele>215</ele>
        <time>2017-05-05T10:31:16Z</time>
      </trkpt>
      <trkpt lat="45.88057" lon="4.6365">
        <ele>215</ele>
        <time>2017-05-05T10:31:17Z</time>
      </trkpt>
      <trkpt lat="45.88054" lon="4.63658">
        <ele>215</ele>
        <time>2017-05-05T10:31:18Z</time>
      </trkpt>
      <trkpt lat="45.8805" lon="4.63665">
        <ele>215</ele>
        <time>2017-05-05T10:31:19Z</time>
      </trkpt>
      <trkpt lat="45.88047" lon="4.63673">
        <ele>214</ele>
        <time>2017-05-05T10:31:20Z</time>
      </trkpt>
      <trkpt lat="45.88043" lon="4.6368">
        <ele>214</ele>
        <time>2017-05-05T10:31:21Z</time>
      </trkpt>
      <trkpt lat="45.88039" lon="4.63688">
        <ele>214</ele>
        <time>2017-05-05T10:31:22Z</time>
      </trkpt>
      <trkpt lat="45.88035" lon="4.63695">
        <ele>214</ele>
        <time>2017-05-05T10:31:23Z</time>
      </trkpt>
      <trkpt lat="45.88031" lon="4.63702">
        <ele>214</ele>
        <time>2017-05-05T10:31:24Z</time>
      </trkpt>
      <trkpt lat="45.88027" lon="4.6371">
        <ele>214</ele>
        <time>2017-05-05T10:31:25Z</time>
      </trkpt>
      <trkpt lat="45.88023" lon="4.63717">
        <ele>214</ele>
        <time>2017-05-05T10:31:26Z</time>
      </trkpt>
      <trkpt lat="45.88019" lon="4.63724">
        <ele>214</ele>
        <time>2017-05-05T10:31:27Z</time>
      </trkpt>
      <trkpt lat="45.88015" lon="4.6373">
        <ele>214</ele>
        <time>2017-05-05T10:31:28Z</time>
      </trkpt>
      <trkpt lat="45.88011" lon="4.63737">
        <ele>214</ele>
        <time>2017-05-05T10:31:29Z</time>
      </trkpt>
      <trkpt lat="45.88007" lon="4.63743">
        <ele>213</ele>
        <time>2017-05-05T10:31:30Z</time>
      </trkpt>
      <trkpt lat="45.88003" lon="4.63749">
        <ele>213</ele>
        <time>2017-05-05T10:31:31Z</time>
      </trkpt>
      <trkpt lat="45.87999" lon="4.63756">
        <ele>213</ele>
        <time>2017-05-05T10:31:32Z</time>
      </trkpt>
      <trkpt lat="45.87995" lon="4.63762">
        <ele>213</ele>
        <time>2017-05-05T10:31:33Z</time>
      </trkpt>
      <trkpt lat="45.87991" lon="4.63768">
        <ele>213</ele>
        <time>2017-05-05T10:31:34Z</time>
      </trkpt>
      <trkpt lat="45.87987" lon="4.63775">
        <ele>213</ele>
        <time>2017-05-05T10:31:35Z</time>
      </trkpt>
      <trkpt lat="45.87983" lon="4.63781">
        <ele>213</ele>
        <time>2017-05-05T10:31:36Z</time>
      </trkpt>
      <trkpt lat="45.87979" lon="4.63787">
        <ele>213</ele>
        <time>2017-05-05T10:31:37Z</time>
      </trkpt>
      <trkpt lat="45.87975" lon="4.63794">
        <ele>213</ele>
        <time>2017-05-05T10:31:38Z</time>
      </trkpt>
      <trkpt lat="45.87971" lon="4.638">
        <ele>213</ele>
        <time>2017-05-05T10:31:39Z</time>
      </trkpt>
      <trkpt lat="45.87968" lon="4.63807">
        <ele>213</ele>
        <time>2017-05-05T10:31:40Z</time>
      </trkpt>
      <trkpt lat="45.87963" lon="4.63814">
        <ele>213</ele>
        <time>2017-05-05T10:31:41Z</time>
      </trkpt>
      <trkpt lat="45.87959" lon="4.6382">
        <ele>213</ele>
        <time>2017-05-05T10:31:42Z</time>
      </trkpt>
      <trkpt lat="45.87955" lon="4.63827">
        <ele>213</ele>
        <time>2017-05-05T10:31:43Z</time>
      </trkpt>
      <trkpt lat="45.87951" lon="4.63834">
        <ele>213</ele>
        <time>2017-05-05T10:31:44Z</time>
      </trkpt>
      <trkpt lat="45.87946" lon="4.63841">
        <ele>213</ele>
        <time>2017-05-05T10:31:45Z</time>
      </trkpt>
      <trkpt lat="45.87942" lon="4.63849">
        <ele>213</ele>
        <time>2017-05-05T10:31:46Z</time>
      </trkpt>
      <trkpt lat="45.87937" lon="4.63856">
        <ele>213</ele>
        <time>2017-05-05T10:31:47Z</time>
      </trkpt>
      <trkpt lat="45.87933" lon="4.63863">
        <ele>213</ele>
        <time>2017-05-05T10:31:48Z</time>
      </trkpt>
      <trkpt lat="45.87928" lon="4.6387">
        <ele>213</ele>
        <time>2017-05-05T10:31:49Z</time>
      </trkpt>
      <trkpt lat="45.87924" lon="4.63877">
        <ele>213</ele>
        <time>2017-05-05T10:31:50Z</time>
      </trkpt>
      <trkpt lat="45.8792" lon="4.63884">
        <ele>213</ele>
        <time>2017-05-05T10:31:51Z</time>
      </trkpt>
      <trkpt lat="45.87916" lon="4.63891">
        <ele>213</ele>
        <time>2017-05-05T10:31:52Z</time>
      </trkpt>
      <trkpt lat="45.87912" lon="4.63898">
        <ele>213</ele>
        <time>2017-05-05T10:31:53Z</time>
      </trkpt>
      <trkpt lat="45.87908" lon="4.63904">
        <ele>213</ele>
        <time>2017-05-05T10:31:54Z</time>
      </trkpt>
      <trkpt lat="45.87904" lon="4.63911">
        <ele>213</ele>
        <time>2017-05-05T10:31:55Z</time>
      </trkpt>
      <trkpt lat="45.879" lon="4.63917">
        <ele>213</ele>
        <time>2017-05-05T10:31:56Z</time>
      </trkpt>
      <trkpt lat="45.87896" lon="4.63924">
        <ele>213</ele>
        <time>2017-05-05T10:31:57Z</time>
      </trkpt>
      <trkpt lat="45.87891" lon="4.6393">
        <ele>212</ele>
        <time>2017-05-05T10:31:58Z</time>
      </trkpt>
      <trkpt lat="45.87887" lon="4.63937">
        <ele>212</ele>
        <time>2017-05-05T10:31:59Z</time>
      </trkpt>
      <trkpt lat="45.87883" lon="4.63945">
        <ele>212</ele>
        <time>2017-05-05T10:32:00Z</time>
      </trkpt>
      <trkpt lat="45.87878" lon="4.63952">
        <ele>212</ele>
        <time>2017-05-05T10:32:01Z</time>
      </trkpt>
      <trkpt lat="45.87874" lon="4.63959">
        <ele>212</ele>
        <time>2017-05-05T10:32:02Z</time>
      </trkpt>
      <trkpt lat="45.87869" lon="4.63967">
        <ele>212</ele>
        <time>2017-05-05T10:32:03Z</time>
      </trkpt>
      <trkpt lat="45.87865" lon="4.63974">
        <ele>212</ele>
        <time>2017-05-05T10:32:04Z</time>
      </trkpt>
      <trkpt lat="45.8786" lon="4.63981">
        <ele>212</ele>
        <time>2017-05-05T10:32:05Z</time>
      </trkpt>
      <trkpt lat="45.87856" lon="4.63988">
        <ele>212</ele>
        <time>2017-05-05T10:32:06Z</time>
      </trkpt>
      <trkpt lat="45.87852" lon="4.63996">
        <ele>212</ele>
        <time>2017-05-05T10:32:07Z</time>
      </trkpt>
      <trkpt lat="45.87848" lon="4.64003">
        <ele>212</ele>
        <time>2017-05-05T10:32:08Z</time>
      </trkpt>
      <trkpt lat="45.87844" lon="4.64009">
        <ele>212</ele>
        <time>2017-05-05T10:32:09Z</time>
      </trkpt>
      <trkpt lat="45.8784" lon="4.64016">
        <ele>213</ele>
        <time>2017-05-05T10:32:10Z</time>
      </trkpt>
      <trkpt lat="45.87836" lon="4.64022">
        <ele>213</ele>
        <time>2017-05-05T10:32:11Z</time>
      </trkpt>
      <trkpt lat="45.87832" lon="4.64029">
        <ele>213</ele>
        <time>2017-05-05T10:32:12Z</time>
      </trkpt>
      <trkpt lat="45.87828" lon="4.64035">
        <ele>213</ele>
        <time>2017-05-05T10:32:13Z</time>
      </trkpt>
      <trkpt lat="45.87825" lon="4.64041">
        <ele>213</ele>
        <time>2017-05-05T10:32:14Z</time>
      </trkpt>
      <trkpt lat="45.87821" lon="4.64047">
        <ele>214</ele>
        <time>2017-05-05T10:32:15Z</time>
      </trkpt>
      <trkpt lat="45.87817" lon="4.64052">
        <ele>214</ele>
        <time>2017-05-05T10:32:16Z</time>
      </trkpt>
      <trkpt lat="45.87814" lon="4.64058">
        <ele>214</ele>
        <time>2017-05-05T10:32:17Z</time>
      </trkpt>
      <trkpt lat="45.8781" lon="4.64063">
        <ele>214</ele>
        <time>2017-05-05T10:32:18Z</time>
      </trkpt>
      <trkpt lat="45.87807" lon="4.64069">
        <ele>214</ele>
        <time>2017-05-05T10:32:19Z</time>
      </trkpt>
      <trkpt lat="45.87804" lon="4.64074">
        <ele>214</ele>
        <time>2017-05-05T10:32:20Z</time>
      </trkpt>
      <trkpt lat="45.878" lon="4.6408">
        <ele>214</ele>
        <time>2017-05-05T10:32:21Z</time>
      </trkpt>
      <trkpt lat="45.87796" lon="4.64086">
        <ele>215</ele>
        <time>2017-05-05T10:32:22Z</time>
      </trkpt>
      <trkpt lat="45.87793" lon="4.64092">
        <ele>215</ele>
        <time>2017-05-05T10:32:23Z</time>
      </trkpt>
      <trkpt lat="45.87789" lon="4.64098">
        <ele>215</ele>
        <time>2017-05-05T10:32:24Z</time>
      </trkpt>
      <trkpt lat="45.87785" lon="4.64104">
        <ele>215</ele>
        <time>2017-05-05T10:32:25Z</time>
      </trkpt>
      <trkpt lat="45.87781" lon="4.6411">
        <ele>215</ele>
        <time>2017-05-05T10:32:26Z</time>
      </trkpt>
      <trkpt lat="45.87777" lon="4.64116">
        <ele>215</ele>
        <time>2017-05-05T10:32:27Z</time>
      </trkpt>
      <trkpt lat="45.87773" lon="4.64122">
        <ele>215</ele>
        <time>2017-05-05T10:32:28Z</time>
      </trkpt>
      <trkpt lat="45.87769" lon="4.64128">
        <ele>215</ele>
        <time>2017-05-05T10:32:29Z</time>
      </trkpt>
      <trkpt lat="45.87765" lon="4.64134">
        <ele>215</ele>
        <time>2017-05-05T10:32:30Z</time>
      </trkpt>
      <trkpt lat="45.87761" lon="4.64141">
        <ele>215</ele>
        <time>2017-05-05T10:32:31Z</time>
      </trkpt>
      <trkpt lat="45.87757" lon="4.64147">
        <ele>215</ele>
        <time>2017-05-05T10:32:32Z</time>
      </trkpt>
      <trkpt lat="45.87753" lon="4.64153">
        <ele>214</ele>
        <time>2017-05-05T10:32:33Z</time>
      </trkpt>
      <trkpt lat="45.87749" lon="4.6416">
        <ele>214</ele>
        <time>2017-05-05T10:32:34Z</time>
      </trkpt>
      <trkpt lat="45.87745" lon="4.64166">
        <ele>214</ele>
        <time>2017-05-05T10:32:35Z</time>
      </trkpt>
      <trkpt lat="45.87741" lon="4.64173">
        <ele>213</ele>
        <time>2017-05-05T10:32:36Z</time>
      </trkpt>
      <trkpt lat="45.87737" lon="4.6418">
        <ele>213</ele>
        <time>2017-05-05T10:32:37Z</time>
      </trkpt>
      <trkpt lat="45.87733" lon="4.64187">
        <ele>212</ele>
        <time>2017-05-05T10:32:38Z</time>
      </trkpt>
      <trkpt lat="45.87729" lon="4.64193">
        <ele>212</ele>
        <time>2017-05-05T10:32:39Z</time>
      </trkpt>
      <trkpt lat="45.87726" lon="4.642">
        <ele>212</ele>
        <time>2017-05-05T10:32:40Z</time>
      </trkpt>
      <trkpt lat="45.87722" lon="4.64205">
        <ele>212</ele>
        <time>2017-05-05T10:32:41Z</time>
      </trkpt>
      <trkpt lat="45.87718" lon="4.64211">
        <ele>212</ele>
        <time>2017-05-05T10:32:42Z</time>
      </trkpt>
      <trkpt lat="45.87714" lon="4.64217">
        <ele>212</ele>
        <time>2017-05-05T10:32:43Z</time>
      </trkpt>
      <trkpt lat="45.87711" lon="4.64223">
        <ele>211</ele>
        <time>2017-05-05T10:32:44Z</time>
      </trkpt>
      <trkpt lat="45.87707" lon="4.6423">
        <ele>211</ele>
        <time>2017-05-05T10:32:45Z</time>
      </trkpt>
      <trkpt lat="45.87703" lon="4.64237">
        <ele>211</ele>
        <time>2017-05-05T10:32:46Z</time>
      </trkpt>
      <trkpt lat="45.87699" lon="4.64243">
        <ele>211</ele>
        <time>2017-05-05T10:32:47Z</time>
      </trkpt>
      <trkpt lat="45.87695" lon="4.6425">
        <ele>210</ele>
        <time>2017-05-05T10:32:48Z</time>
      </trkpt>
      <trkpt lat="45.87691" lon="4.64257">
        <ele>210</ele>
        <time>2017-05-05T10:32:49Z</time>
      </trkpt>
      <trkpt lat="45.87687" lon="4.64263">
        <ele>210</ele>
        <time>2017-05-05T10:32:50Z</time>
      </trkpt>
      <trkpt lat="45.87683" lon="4.6427">
        <ele>210</ele>
        <time>2017-05-05T10:32:51Z</time>
      </trkpt>
      <trkpt lat="45.87679" lon="4.64276">
        <ele>210</ele>
        <time>2017-05-05T10:32:52Z</time>
      </trkpt>
      <trkpt lat="45.87675" lon="4.64282">
        <ele>210</ele>
        <time>2017-05-05T10:32:53Z</time>
      </trkpt>
      <trkpt lat="45.87672" lon="4.64288">
        <ele>210</ele>
        <time>2017-05-05T10:32:54Z</time>
      </trkpt>
      <trkpt lat="45.87668" lon="4.64294">
        <ele>210</ele>
        <time>2017-05-05T10:32:55Z</time>
      </trkpt>
      <trkpt lat="45.87665" lon="4.643">
        <ele>210</ele>
        <time>2017-05-05T10:32:56Z</time>
      </trkpt>
      <trkpt lat="45.87661" lon="4.64307">
        <ele>210</ele>
        <time>2017-05-05T10:32:57Z</time>
      </trkpt>
      <trkpt lat="45.87658" lon="4.64312">
        <ele>210</ele>
        <time>2017-05-05T10:32:58Z</time>
      </trkpt>
      <trkpt lat="45.87654" lon="4.64318">
        <ele>210</ele>
        <time>2017-05-05T10:32:59Z</time>
      </trkpt>
      <trkpt lat="45.8765" lon="4.64324">
        <ele>210</ele>
        <time>2017-05-05T10:33:00Z</time>
      </trkpt>
      <trkpt lat="45.87647" lon="4.64331">
        <ele>210</ele>
        <time>2017-05-05T10:33:01Z</time>
      </trkpt>
      <trkpt lat="45.87643" lon="4.64337">
        <ele>211</ele>
        <time>2017-05-05T10:33:02Z</time>
      </trkpt>
      <trkpt lat="45.87639" lon="4.64343">
        <ele>211</ele>
        <time>2017-05-05T10:33:03Z</time>
      </trkpt>
      <trkpt lat="45.87636" lon="4.6435">
        <ele>211</ele>
        <time>2017-05-05T10:33:04Z</time>
      </trkpt>
      <trkpt lat="45.87632" lon="4.64356">
        <ele>211</ele>
        <time>2017-05-05T10:33:05Z</time>
      </trkpt>
      <trkpt lat="45.87629" lon="4.64362">
        <ele>211</ele>
        <time>2017-05-05T10:33:06Z</time>
      </trkpt>
      <trkpt lat="45.87625" lon="4.64368">
        <ele>211</ele>
        <time>2017-05-05T10:33:07Z</time>
      </trkpt>
      <trkpt lat="45.87622" lon="4.64374">
        <ele>212</ele>
        <time>2017-05-05T10:33:08Z</time>
      </trkpt>
      <trkpt lat="45.87619" lon="4.6438">
        <ele>212</ele>
        <time>2017-05-05T10:33:09Z</time>
      </trkpt>
      <trkpt lat="45.87616" lon="4.64384">
        <ele>212</ele>
        <time>2017-05-05T10:33:10Z</time>
      </trkpt>
      <trkpt lat="45.8761" lon="4.64393">
        <ele>212</ele>
        <time>2017-05-05T10:33:13Z</time>
      </trkpt>
      <trkpt lat="45.87609" lon="4.64395">
        <ele>212</ele>
        <time>2017-05-05T10:33:14Z</time>
      </trkpt>
      <trkpt lat="45.87604" lon="4.64403">
        <ele>212</ele>
        <time>2017-05-05T10:33:35Z</time>
      </trkpt>
      <trkpt lat="45.87602" lon="4.64406">
        <ele>212</ele>
        <time>2017-05-05T10:33:36Z</time>
      </trkpt>
      <trkpt lat="45.87598" lon="4.64414">
        <ele>212</ele>
        <time>2017-05-05T10:33:39Z</time>
      </trkpt>
      <trkpt lat="45.87596" lon="4.64417">
        <ele>213</ele>
        <time>2017-05-05T10:33:40Z</time>
      </trkpt>
      <trkpt lat="45.87591" lon="4.64427">
        <ele>213</ele>
        <time>2017-05-05T10:33:43Z</time>
      </trkpt>
      <trkpt lat="45.87589" lon="4.64431">
        <ele>213</ele>
        <time>2017-05-05T10:33:44Z</time>
      </trkpt>
      <trkpt lat="45.87586" lon="4.64438">
        <ele>213</ele>
        <time>2017-05-05T10:33:46Z</time>
      </trkpt>
      <trkpt lat="45.87584" lon="4.64443">
        <ele>213</ele>
        <time>2017-05-05T10:33:47Z</time>
      </trkpt>
      <trkpt lat="45.87579" lon="4.64452">
        <ele>212</ele>
        <time>2017-05-05T10:33:49Z</time>
      </trkpt>
      <trkpt lat="45.87577" lon="4.64457">
        <ele>212</ele>
        <time>2017-05-05T10:33:50Z</time>
      </trkpt>
      <trkpt lat="45.87574" lon="4.64463">
        <ele>212</ele>
        <time>2017-05-05T10:33:51Z</time>
      </trkpt>
      <trkpt lat="45.87571" lon="4.64468">
        <ele>212</ele>
        <time>2017-05-05T10:33:52Z</time>
      </trkpt>
      <trkpt lat="45.87568" lon="4.64474">
        <ele>212</ele>
        <time>2017-05-05T10:33:53Z</time>
      </trkpt>
      <trkpt lat="45.87565" lon="4.6448">
        <ele>212</ele>
        <time>2017-05-05T10:33:54Z</time>
      </trkpt>
      <trkpt lat="45.87561" lon="4.64486">
        <ele>212</ele>
        <time>2017-05-05T10:33:55Z</time>
      </trkpt>
      <trkpt lat="45.87558" lon="4.64492">
        <ele>212</ele>
        <time>2017-05-05T10:33:56Z</time>
      </trkpt>
      <trkpt lat="45.87554" lon="4.64497">
        <ele>212</ele>
        <time>2017-05-05T10:33:57Z</time>
      </trkpt>
      <trkpt lat="45.87551" lon="4.64504">
        <ele>212</ele>
        <time>2017-05-05T10:33:58Z</time>
      </trkpt>
      <trkpt lat="45.87547" lon="4.6451">
        <ele>212</ele>
        <time>2017-05-05T10:33:59Z</time>
      </trkpt>
      <trkpt lat="45.87544" lon="4.64515">
        <ele>212</ele>
        <time>2017-05-05T10:34:00Z</time>
      </trkpt>
      <trkpt lat="45.8754" lon="4.64521">
        <ele>212</ele>
        <time>2017-05-05T10:34:01Z</time>
      </trkpt>
      <trkpt lat="45.87537" lon="4.64527">
        <ele>212</ele>
        <time>2017-05-05T10:34:02Z</time>
      </trkpt>
      <trkpt lat="45.87533" lon="4.64532">
        <ele>212</ele>
        <time>2017-05-05T10:34:03Z</time>
      </trkpt>
      <trkpt lat="45.8753" lon="4.64538">
        <ele>212</ele>
        <time>2017-05-05T10:34:04Z</time>
      </trkpt>
      <trkpt lat="45.87527" lon="4.64543">
        <ele>212</ele>
        <time>2017-05-05T10:34:05Z</time>
      </trkpt>
      <trkpt lat="45.87524" lon="4.64549">
        <ele>212</ele>
        <time>2017-05-05T10:34:06Z</time>
      </trkpt>
      <trkpt lat="45.87521" lon="4.64555">
        <ele>212</ele>
        <time>2017-05-05T10:34:07Z</time>
      </trkpt>
      <trkpt lat="45.87518" lon="4.64561">
        <ele>212</ele>
        <time>2017-05-05T10:34:08Z</time>
      </trkpt>
      <trkpt lat="45.87514" lon="4.64567">
        <ele>212</ele>
        <time>2017-05-05T10:34:09Z</time>
      </trkpt>
      <trkpt lat="45.87511" lon="4.64573">
        <ele>212</ele>
        <time>2017-05-05T10:34:10Z</time>
      </trkpt>
      <trkpt lat="45.87507" lon="4.64579">
        <ele>213</ele>
        <time>2017-05-05T10:34:11Z</time>
      </trkpt>
      <trkpt lat="45.87503" lon="4.64585">
        <ele>213</ele>
        <time>2017-05-05T10:34:12Z</time>
      </trkpt>
      <trkpt lat="45.875" lon="4.64591">
        <ele>213</ele>
        <time>2017-05-05T10:34:13Z</time>
      </trkpt>
      <trkpt lat="45.87495" lon="4.64597">
        <ele>213</ele>
        <time>2017-05-05T10:34:14Z</time>
      </trkpt>
      <trkpt lat="45.87491" lon="4.64604">
        <ele>213</ele>
        <time>2017-05-05T10:34:15Z</time>
      </trkpt>
      <trkpt lat="45.87487" lon="4.6461">
        <ele>213</ele>
        <time>2017-05-05T10:34:16Z</time>
      </trkpt>
      <trkpt lat="45.87483" lon="4.64616">
        <ele>212</ele>
        <time>2017-05-05T10:34:17Z</time>
      </trkpt>
      <trkpt lat="45.87479" lon="4.64622">
        <ele>212</ele>
        <time>2017-05-05T10:34:18Z</time>
      </trkpt>
      <trkpt lat="45.87475" lon="4.64628">
        <ele>212</ele>
        <time>2017-05-05T10:34:19Z</time>
      </trkpt>
      <trkpt lat="45.87471" lon="4.64634">
        <ele>212</ele>
        <time>2017-05-05T10:34:20Z</time>
      </trkpt>
      <trkpt lat="45.87467" lon="4.6464">
        <ele>212</ele>
        <time>2017-05-05T10:34:21Z</time>
      </trkpt>
      <trkpt lat="45.87463" lon="4.64646">
        <ele>212</ele>
        <time>2017-05-05T10:34:22Z</time>
      </trkpt>
      <trkpt lat="45.8746" lon="4.64651">
        <ele>212</ele>
        <time>2017-05-05T10:34:23Z</time>
      </trkpt>
      <trkpt lat="45.87457" lon="4.64657">
        <ele>212</ele>
        <time>2017-05-05T10:34:24Z</time>
      </trkpt>
      <trkpt lat="45.87453" lon="4.64663">
        <ele>212</ele>
        <time>2017-05-05T10:34:25Z</time>
      </trkpt>
      <trkpt lat="45.87449" lon="4.64669">
        <ele>212</ele>
        <time>2017-05-05T10:34:26Z</time>
      </trkpt>
      <trkpt lat="45.87445" lon="4.64675">
        <ele>212</ele>
        <time>2017-05-05T10:34:27Z</time>
      </trkpt>
      <trkpt lat="45.87441" lon="4.64681">
        <ele>212</ele>
        <time>2017-05-05T10:34:28Z</time>
      </trkpt>
      <trkpt lat="45.87437" lon="4.64688">
        <ele>212</ele>
        <time>2017-05-05T10:34:29Z</time>
      </trkpt>
      <trkpt lat="45.87432" lon="4.64694">
        <ele>212</ele>
        <time>2017-05-05T10:34:30Z</time>
      </trkpt>
      <trkpt lat="45.87428" lon="4.64701">
        <ele>212</ele>
        <time>2017-05-05T10:34:31Z</time>
      </trkpt>
      <trkpt lat="45.87423" lon="4.64708">
        <ele>212</ele>
        <time>2017-05-05T10:34:32Z</time>
      </trkpt>
      <trkpt lat="45.87419" lon="4.64715">
        <ele>212</ele>
        <time>2017-05-05T10:34:33Z</time>
      </trkpt>
      <trkpt lat="45.87414" lon="4.64722">
        <ele>211</ele>
        <time>2017-05-05T10:34:34Z</time>
      </trkpt>
      <trkpt lat="45.8741" lon="4.64729">
        <ele>211</ele>
        <time>2017-05-05T10:34:35Z</time>
      </trkpt>
      <trkpt lat="45.87406" lon="4.64735">
        <ele>211</ele>
        <time>2017-05-05T10:34:36Z</time>
      </trkpt>
      <trkpt lat="45.87402" lon="4.64741">
        <ele>211</ele>
        <time>2017-05-05T10:34:37Z</time>
      </trkpt>
      <trkpt lat="45.87398" lon="4.64747">
        <ele>211</ele>
        <time>2017-05-05T10:34:38Z</time>
      </trkpt>
      <trkpt lat="45.87394" lon="4.64753">
        <ele>211</ele>
        <time>2017-05-05T10:34:39Z</time>
      </trkpt>
      <trkpt lat="45.8739" lon="4.64759">
        <ele>211</ele>
        <time>2017-05-05T10:34:40Z</time>
      </trkpt>
      <trkpt lat="45.87386" lon="4.64765">
        <ele>211</ele>
        <time>2017-05-05T10:34:41Z</time>
      </trkpt>
      <trkpt lat="45.87382" lon="4.6477">
        <ele>212</ele>
        <time>2017-05-05T10:34:42Z</time>
      </trkpt>
      <trkpt lat="45.87378" lon="4.64776">
        <ele>212</ele>
        <time>2017-05-05T10:34:43Z</time>
      </trkpt>
      <trkpt lat="45.87374" lon="4.64782">
        <ele>212</ele>
        <time>2017-05-05T10:34:44Z</time>
      </trkpt>
      <trkpt lat="45.87371" lon="4.64788">
        <ele>212</ele>
        <time>2017-05-05T10:34:45Z</time>
      </trkpt>
      <trkpt lat="45.87367" lon="4.64794">
        <ele>212</ele>
        <time>2017-05-05T10:34:46Z</time>
      </trkpt>
      <trkpt lat="45.87363" lon="4.648">
        <ele>212</ele>
        <time>2017-05-05T10:34:47Z</time>
      </trkpt>
      <trkpt lat="45.87358" lon="4.64807">
        <ele>212</ele>
        <time>2017-05-05T10:34:48Z</time>
      </trkpt>
      <trkpt lat="45.87355" lon="4.64814">
        <ele>212</ele>
        <time>2017-05-05T10:34:49Z</time>
      </trkpt>
      <trkpt lat="45.87351" lon="4.64821">
        <ele>212</ele>
        <time>2017-05-05T10:34:50Z</time>
      </trkpt>
      <trkpt lat="45.87347" lon="4.64827">
        <ele>211</ele>
        <time>2017-05-05T10:34:51Z</time>
      </trkpt>
      <trkpt lat="45.87342" lon="4.64834">
        <ele>212</ele>
        <time>2017-05-05T10:34:52Z</time>
      </trkpt>
      <trkpt lat="45.87337" lon="4.6484">
        <ele>212</ele>
        <time>2017-05-05T10:34:53Z</time>
      </trkpt>
      <trkpt lat="45.87333" lon="4.64846">
        <ele>211</ele>
        <time>2017-05-05T10:34:54Z</time>
      </trkpt>
      <trkpt lat="45.87329" lon="4.64852">
        <ele>211</ele>
        <time>2017-05-05T10:34:55Z</time>
      </trkpt>
      <trkpt lat="45.87324" lon="4.64859">
        <ele>211</ele>
        <time>2017-05-05T10:34:56Z</time>
      </trkpt>
      <trkpt lat="45.8732" lon="4.64866">
        <ele>211</ele>
        <time>2017-05-05T10:34:57Z</time>
      </trkpt>
      <trkpt lat="45.87317" lon="4.64872">
        <ele>211</ele>
        <time>2017-05-05T10:34:58Z</time>
      </trkpt>
      <trkpt lat="45.87313" lon="4.64878">
        <ele>211</ele>
        <time>2017-05-05T10:34:59Z</time>
      </trkpt>
      <trkpt lat="45.87309" lon="4.64885">
        <ele>211</ele>
        <time>2017-05-05T10:35:00Z</time>
      </trkpt>
      <trkpt lat="45.87304" lon="4.64891">
        <ele>211</ele>
        <time>2017-05-05T10:35:01Z</time>
      </trkpt>
      <trkpt lat="45.873" lon="4.64898">
        <ele>211</ele>
        <time>2017-05-05T10:35:02Z</time>
      </trkpt>
      <trkpt lat="45.87295" lon="4.64905">
        <ele>211</ele>
        <time>2017-05-05T10:35:03Z</time>
      </trkpt>
      <trkpt lat="45.8729" lon="4.64912">
        <ele>211</ele>
        <time>2017-05-05T10:35:04Z</time>
      </trkpt>
      <trkpt lat="45.87286" lon="4.64919">
        <ele>212</ele>
        <time>2017-05-05T10:35:05Z</time>
      </trkpt>
      <trkpt lat="45.87281" lon="4.64926">
        <ele>212</ele>
        <time>2017-05-05T10:35:06Z</time>
      </trkpt>
      <trkpt lat="45.87277" lon="4.64933">
        <ele>213</ele>
        <time>2017-05-05T10:35:07Z</time>
      </trkpt>
      <trkpt lat="45.87273" lon="4.6494">
        <ele>213</ele>
        <time>2017-05-05T10:35:08Z</time>
      </trkpt>
      <trkpt lat="45.87269" lon="4.64946">
        <ele>213</ele>
        <time>2017-05-05T10:35:09Z</time>
      </trkpt>
      <trkpt lat="45.87265" lon="4.64952">
        <ele>213</ele>
        <time>2017-05-05T10:35:10Z</time>
      </trkpt>
      <trkpt lat="45.87261" lon="4.64958">
        <ele>213</ele>
        <time>2017-05-05T10:35:11Z</time>
      </trkpt>
      <trkpt lat="45.87258" lon="4.64964">
        <ele>212</ele>
        <time>2017-05-05T10:35:12Z</time>
      </trkpt>
      <trkpt lat="45.87254" lon="4.6497">
        <ele>212</ele>
        <time>2017-05-05T10:35:13Z</time>
      </trkpt>
      <trkpt lat="45.8725" lon="4.64975">
        <ele>212</ele>
        <time>2017-05-05T10:35:14Z</time>
      </trkpt>
      <trkpt lat="45.87247" lon="4.6498">
        <ele>211</ele>
        <time>2017-05-05T10:35:15Z</time>
      </trkpt>
      <trkpt lat="45.87243" lon="4.64985">
        <ele>211</ele>
        <time>2017-05-05T10:35:16Z</time>
      </trkpt>
      <trkpt lat="45.8724" lon="4.6499">
        <ele>211</ele>
        <time>2017-05-05T10:35:17Z</time>
      </trkpt>
      <trkpt lat="45.87236" lon="4.64996">
        <ele>211</ele>
        <time>2017-05-05T10:35:18Z</time>
      </trkpt>
      <trkpt lat="45.87233" lon="4.65002">
        <ele>212</ele>
        <time>2017-05-05T10:35:19Z</time>
      </trkpt>
      <trkpt lat="45.87229" lon="4.65008">
        <ele>212</ele>
        <time>2017-05-05T10:35:20Z</time>
      </trkpt>
      <trkpt lat="45.87225" lon="4.65014">
        <ele>212</ele>
        <time>2017-05-05T10:35:21Z</time>
      </trkpt>
      <trkpt lat="45.87221" lon="4.6502">
        <ele>212</ele>
        <time>2017-05-05T10:35:22Z</time>
      </trkpt>
      <trkpt lat="45.87217" lon="4.65026">
        <ele>212</ele>
        <time>2017-05-05T10:35:23Z</time>
      </trkpt>
      <trkpt lat="45.87213" lon="4.65033">
        <ele>212</ele>
        <time>2017-05-05T10:35:24Z</time>
      </trkpt>
      <trkpt lat="45.8721" lon="4.65039">
        <ele>212</ele>
        <time>2017-05-05T10:35:25Z</time>
      </trkpt>
      <trkpt lat="45.87205" lon="4.65046">
        <ele>212</ele>
        <time>2017-05-05T10:35:26Z</time>
      </trkpt>
      <trkpt lat="45.87201" lon="4.65052">
        <ele>212</ele>
        <time>2017-05-05T10:35:27Z</time>
      </trkpt>
      <trkpt lat="45.87196" lon="4.65059">
        <ele>212</ele>
        <time>2017-05-05T10:35:28Z</time>
      </trkpt>
      <trkpt lat="45.87192" lon="4.65066">
        <ele>212</ele>
        <time>2017-05-05T10:35:29Z</time>
      </trkpt>
      <trkpt lat="45.87187" lon="4.65073">
        <ele>212</ele>
        <time>2017-05-05T10:35:30Z</time>
      </trkpt>
      <trkpt lat="45.87183" lon="4.6508">
        <ele>211</ele>
        <time>2017-05-05T10:35:31Z</time>
      </trkpt>
      <trkpt lat="45.87178" lon="4.65087">
        <ele>214</ele>
        <time>2017-05-05T10:35:32Z</time>
      </trkpt>
      <trkpt lat="45.87174" lon="4.65094">
        <ele>215</ele>
        <time>2017-05-05T10:35:33Z</time>
      </trkpt>
      <trkpt lat="45.8717" lon="4.651">
        <ele>216</ele>
        <time>2017-05-05T10:35:34Z</time>
      </trkpt>
      <trkpt lat="45.87166" lon="4.65106">
        <ele>212</ele>
        <time>2017-05-05T10:35:35Z</time>
      </trkpt>
      <trkpt lat="45.87163" lon="4.65112">
        <ele>213</ele>
        <time>2017-05-05T10:35:36Z</time>
      </trkpt>
      <trkpt lat="45.87159" lon="4.65118">
        <ele>213</ele>
        <time>2017-05-05T10:35:37Z</time>
      </trkpt>
      <trkpt lat="45.87155" lon="4.65123">
        <ele>213</ele>
        <time>2017-05-05T10:35:38Z</time>
      </trkpt>
      <trkpt lat="45.87152" lon="4.65128">
        <ele>214</ele>
        <time>2017-05-05T10:35:39Z</time>
      </trkpt>
      <trkpt lat="45.87148" lon="4.65134">
        <ele>214</ele>
        <time>2017-05-05T10:35:40Z</time>
      </trkpt>
      <trkpt lat="45.87144" lon="4.65139">
        <ele>214</ele>
        <time>2017-05-05T10:35:41Z</time>
      </trkpt>
      <trkpt lat="45.8714" lon="4.65146">
        <ele>214</ele>
        <time>2017-05-05T10:35:42Z</time>
      </trkpt>
      <trkpt lat="45.87137" lon="4.65153">
        <ele>215</ele>
        <time>2017-05-05T10:35:43Z</time>
      </trkpt>
      <trkpt lat="45.87133" lon="4.6516">
        <ele>214</ele>
        <time>2017-05-05T10:35:44Z</time>
      </trkpt>
      <trkpt lat="45.87129" lon="4.65168">
        <ele>219</ele>
        <time>2017-05-05T10:35:45Z</time>
      </trkpt>
      <trkpt lat="45.87124" lon="4.65175">
        <ele>219</ele>
        <time>2017-05-05T10:35:46Z</time>
      </trkpt>
      <trkpt lat="45.8712" lon="4.65183">
        <ele>218</ele>
        <time>2017-05-05T10:35:47Z</time>
      </trkpt>
      <trkpt lat="45.87116" lon="4.6519">
        <ele>218</ele>
        <time>2017-05-05T10:35:48Z</time>
      </trkpt>
      <trkpt lat="45.87112" lon="4.65198">
        <ele>219</ele>
        <time>2017-05-05T10:35:49Z</time>
      </trkpt>
      <trkpt lat="45.87108" lon="4.65206">
        <ele>219</ele>
        <time>2017-05-05T10:35:50Z</time>
      </trkpt>
      <trkpt lat="45.87105" lon="4.65214">
        <ele>219</ele>
        <time>2017-05-05T10:35:51Z</time>
      </trkpt>
      <trkpt lat="45.871" lon="4.65222">
        <ele>218</ele>
        <time>2017-05-05T10:35:52Z</time>
      </trkpt>
      <trkpt lat="45.87096" lon="4.6523">
        <ele>217</ele>
        <time>2017-05-05T10:35:53Z</time>
      </trkpt>
      <trkpt lat="45.87092" lon="4.65237">
        <ele>217</ele>
        <time>2017-05-05T10:35:54Z</time>
      </trkpt>
      <trkpt lat="45.87088" lon="4.65244">
        <ele>215</ele>
        <time>2017-05-05T10:35:55Z</time>
      </trkpt>
      <trkpt lat="45.87085" lon="4.65251">
        <ele>214</ele>
        <time>2017-05-05T10:35:56Z</time>
      </trkpt>
      <trkpt lat="45.87081" lon="4.65258">
        <ele>214</ele>
        <time>2017-05-05T10:35:57Z</time>
      </trkpt>
      <trkpt lat="45.87077" lon="4.65266">
        <ele>214</ele>
        <time>2017-05-05T10:35:58Z</time>
      </trkpt>
      <trkpt lat="45.87074" lon="4.65272">
        <ele>215</ele>
        <time>2017-05-05T10:35:59Z</time>
      </trkpt>
      <trkpt lat="45.87071" lon="4.65279">
        <ele>215</ele>
        <time>2017-05-05T10:36:00Z</time>
      </trkpt>
      <trkpt lat="45.87068" lon="4.65286">
        <ele>216</ele>
        <time>2017-05-05T10:36:01Z</time>
      </trkpt>
      <trkpt lat="45.87065" lon="4.65293">
        <ele>216</ele>
        <time>2017-05-05T10:36:02Z</time>
      </trkpt>
      <trkpt lat="45.87062" lon="4.653">
        <ele>217</ele>
        <time>2017-05-05T10:36:03Z</time>
      </trkpt>
      <trkpt lat="45.87059" lon="4.65307">
        <ele>217</ele>
        <time>2017-05-05T10:36:04Z</time>
      </trkpt>
      <trkpt lat="45.87056" lon="4.65315">
        <ele>217</ele>
        <time>2017-05-05T10:36:05Z</time>
      </trkpt>
      <trkpt lat="45.87052" lon="4.65322">
        <ele>217</ele>
        <time>2017-05-05T10:36:06Z</time>
      </trkpt>
      <trkpt lat="45.87048" lon="4.6533">
        <ele>217</ele>
        <time>2017-05-05T10:36:07Z</time>
      </trkpt>
      <trkpt lat="45.87044" lon="4.65337">
        <ele>223</ele>
        <time>2017-05-05T10:36:08Z</time>
      </trkpt>
      <trkpt lat="45.8704" lon="4.65344">
        <ele>222</ele>
        <time>2017-05-05T10:36:09Z</time>
      </trkpt>
      <trkpt lat="45.87035" lon="4.65351">
        <ele>222</ele>
        <time>2017-05-05T10:36:10Z</time>
      </trkpt>
      <trkpt lat="45.8703" lon="4.65358">
        <ele>222</ele>
        <time>2017-05-05T10:36:11Z</time>
      </trkpt>
      <trkpt lat="45.87026" lon="4.65364">
        <ele>222</ele>
        <time>2017-05-05T10:36:12Z</time>
      </trkpt>
      <trkpt lat="45.87021" lon="4.6537">
        <ele>222</ele>
        <time>2017-05-05T10:36:13Z</time>
      </trkpt>
      <trkpt lat="45.87017" lon="4.65375">
        <ele>222</ele>
        <time>2017-05-05T10:36:14Z</time>
      </trkpt>
      <trkpt lat="45.87013" lon="4.6538">
        <ele>223</ele>
        <time>2017-05-05T10:36:15Z</time>
      </trkpt>
      <trkpt lat="45.87009" lon="4.65384">
        <ele>223</ele>
        <time>2017-05-05T10:36:16Z</time>
      </trkpt>
      <trkpt lat="45.87005" lon="4.65389">
        <ele>223</ele>
        <time>2017-05-05T10:36:17Z</time>
      </trkpt>
      <trkpt lat="45.87" lon="4.65394">
        <ele>222</ele>
        <time>2017-05-05T10:36:18Z</time>
      </trkpt>
      <trkpt lat="45.86996" lon="4.65399">
        <ele>217</ele>
        <time>2017-05-05T10:36:19Z</time>
      </trkpt>
      <trkpt lat="45.86991" lon="4.65404">
        <ele>218</ele>
        <time>2017-05-05T10:36:20Z</time>
      </trkpt>
      <trkpt lat="45.86986" lon="4.6541">
        <ele>218</ele>
        <time>2017-05-05T10:36:21Z</time>
      </trkpt>
      <trkpt lat="45.86981" lon="4.65415">
        <ele>217</ele>
        <time>2017-05-05T10:36:22Z</time>
      </trkpt>
      <trkpt lat="45.86977" lon="4.6542">
        <ele>221</ele>
        <time>2017-05-05T10:36:23Z</time>
      </trkpt>
      <trkpt lat="45.86972" lon="4.65425">
        <ele>221</ele>
        <time>2017-05-05T10:36:24Z</time>
      </trkpt>
      <trkpt lat="45.86967" lon="4.6543">
        <ele>221</ele>
        <time>2017-05-05T10:36:25Z</time>
      </trkpt>
      <trkpt lat="45.86963" lon="4.65435">
        <ele>221</ele>
        <time>2017-05-05T10:36:26Z</time>
      </trkpt>
      <trkpt lat="45.86958" lon="4.65441">
        <ele>221</ele>
        <time>2017-05-05T10:36:27Z</time>
      </trkpt>
      <trkpt lat="45.86955" lon="4.65446">
        <ele>221</ele>
        <time>2017-05-05T10:36:28Z</time>
      </trkpt>
      <trkpt lat="45.86951" lon="4.65451">
        <ele>221</ele>
        <time>2017-05-05T10:36:29Z</time>
      </trkpt>
      <trkpt lat="45.86947" lon="4.65456">
        <ele>221</ele>
        <time>2017-05-05T10:36:30Z</time>
      </trkpt>
      <trkpt lat="45.86945" lon="4.65461">
        <ele>221</ele>
        <time>2017-05-05T10:36:31Z</time>
      </trkpt>
      <trkpt lat="45.86941" lon="4.65466">
        <ele>221</ele>
        <time>2017-05-05T10:36:32Z</time>
      </trkpt>
      <trkpt lat="45.86938" lon="4.6547">
        <ele>221</ele>
        <time>2017-05-05T10:36:33Z</time>
      </trkpt>
      <trkpt lat="45.86935" lon="4.65475">
        <ele>221</ele>
        <time>2017-05-05T10:36:34Z</time>
      </trkpt>
      <trkpt lat="45.86932" lon="4.65481">
        <ele>221</ele>
        <time>2017-05-05T10:36:35Z</time>
      </trkpt>
      <trkpt lat="45.86929" lon="4.65486">
        <ele>220</ele>
        <time>2017-05-05T10:36:36Z</time>
      </trkpt>
      <trkpt lat="45.86926" lon="4.65491">
        <ele>220</ele>
        <time>2017-05-05T10:36:37Z</time>
      </trkpt>
      <trkpt lat="45.86923" lon="4.65496">
        <ele>219</ele>
        <time>2017-05-05T10:36:38Z</time>
      </trkpt>
      <trkpt lat="45.86918" lon="4.65507">
        <ele>222</ele>
        <time>2017-05-05T10:36:40Z</time>
      </trkpt>
      <trkpt lat="45.86916" lon="4.65513">
        <ele>218</ele>
        <time>2017-05-05T10:36:41Z</time>
      </trkpt>
      <trkpt lat="45.86914" lon="4.65518">
        <ele>218</ele>
        <time>2017-05-05T10:36:42Z</time>
      </trkpt>
      <trkpt lat="45.86911" lon="4.65524">
        <ele>218</ele>
        <time>2017-05-05T10:36:43Z</time>
      </trkpt>
      <trkpt lat="45.86909" lon="4.6553">
        <ele>218</ele>
        <time>2017-05-05T10:36:44Z</time>
      </trkpt>
      <trkpt lat="45.86907" lon="4.65536">
        <ele>218</ele>
        <time>2017-05-05T10:36:45Z</time>
      </trkpt>
      <trkpt lat="45.86904" lon="4.65542">
        <ele>218</ele>
        <time>2017-05-05T10:36:46Z</time>
      </trkpt>
      <trkpt lat="45.86902" lon="4.65548">
        <ele>219</ele>
        <time>2017-05-05T10:36:47Z</time>
      </trkpt>
      <trkpt lat="45.869" lon="4.65555">
        <ele>219</ele>
        <time>2017-05-05T10:36:48Z</time>
      </trkpt>
      <trkpt lat="45.86898" lon="4.65561">
        <ele>220</ele>
        <time>2017-05-05T10:36:49Z</time>
      </trkpt>
      <trkpt lat="45.86897" lon="4.65567">
        <ele>220</ele>
        <time>2017-05-05T10:36:50Z</time>
      </trkpt>
      <trkpt lat="45.86895" lon="4.65573">
        <ele>220</ele>
        <time>2017-05-05T10:36:51Z</time>
      </trkpt>
      <trkpt lat="45.86894" lon="4.6558">
        <ele>220</ele>
        <time>2017-05-05T10:36:52Z</time>
      </trkpt>
      <trkpt lat="45.86892" lon="4.65586">
        <ele>222</ele>
        <time>2017-05-05T10:36:53Z</time>
      </trkpt>
      <trkpt lat="45.86891" lon="4.65593">
        <ele>222</ele>
        <time>2017-05-05T10:36:54Z</time>
      </trkpt>
      <trkpt lat="45.8689" lon="4.65599">
        <ele>222</ele>
        <time>2017-05-05T10:36:55Z</time>
      </trkpt>
      <trkpt lat="45.86888" lon="4.65606">
        <ele>222</ele>
        <time>2017-05-05T10:36:56Z</time>
      </trkpt>
      <trkpt lat="45.86887" lon="4.65612">
        <ele>222</ele>
        <time>2017-05-05T10:36:57Z</time>
      </trkpt>
      <trkpt lat="45.86886" lon="4.65618">
        <ele>222</ele>
        <time>2017-05-05T10:36:58Z</time>
      </trkpt>
      <trkpt lat="45.86885" lon="4.65625">
        <ele>222</ele>
        <time>2017-05-05T10:36:59Z</time>
      </trkpt>
      <trkpt lat="45.86884" lon="4.65631">
        <ele>222</ele>
        <time>2017-05-05T10:37:00Z</time>
      </trkpt>
      <trkpt lat="45.86883" lon="4.65638">
        <ele>222</ele>
        <time>2017-05-05T10:37:01Z</time>
      </trkpt>
      <trkpt lat="45.86883" lon="4.65645">
        <ele>222</ele>
        <time>2017-05-05T10:37:02Z</time>
      </trkpt>
      <trkpt lat="45.86882" lon="4.65652">
        <ele>222</ele>
        <time>2017-05-05T10:37:03Z</time>
      </trkpt>
      <trkpt lat="45.86881" lon="4.65659">
        <ele>222</ele>
        <time>2017-05-05T10:37:04Z</time>
      </trkpt>
      <trkpt lat="45.86881" lon="4.65667">
        <ele>222</ele>
        <time>2017-05-05T10:37:05Z</time>
      </trkpt>
      <trkpt lat="45.86881" lon="4.65675">
        <ele>222</ele>
        <time>2017-05-05T10:37:06Z</time>
      </trkpt>
      <trkpt lat="45.86881" lon="4.65682">
        <ele>222</ele>
        <time>2017-05-05T10:37:07Z</time>
      </trkpt>
      <trkpt lat="45.8688" lon="4.65689">
        <ele>222</ele>
        <time>2017-05-05T10:37:08Z</time>
      </trkpt>
      <trkpt lat="45.8688" lon="4.65696">
        <ele>222</ele>
        <time>2017-05-05T10:37:09Z</time>
      </trkpt>
      <trkpt lat="45.86879" lon="4.65703">
        <ele>221</ele>
        <time>2017-05-05T10:37:10Z</time>
      </trkpt>
      <trkpt lat="45.86879" lon="4.6571">
        <ele>221</ele>
        <time>2017-05-05T10:37:11Z</time>
      </trkpt>
      <trkpt lat="45.86878" lon="4.65717">
        <ele>221</ele>
        <time>2017-05-05T10:37:12Z</time>
      </trkpt>
      <trkpt lat="45.86878" lon="4.65724">
        <ele>221</ele>
        <time>2017-05-05T10:37:13Z</time>
      </trkpt>
      <trkpt lat="45.86877" lon="4.65731">
        <ele>221</ele>
        <time>2017-05-05T10:37:14Z</time>
      </trkpt>
      <trkpt lat="45.86876" lon="4.65738">
        <ele>221</ele>
        <time>2017-05-05T10:37:15Z</time>
      </trkpt>
      <trkpt lat="45.86876" lon="4.65746">
        <ele>221</ele>
        <time>2017-05-05T10:37:16Z</time>
      </trkpt>
      <trkpt lat="45.86875" lon="4.65753">
        <ele>221</ele>
        <time>2017-05-05T10:37:17Z</time>
      </trkpt>
      <trkpt lat="45.86873" lon="4.6576">
        <ele>221</ele>
        <time>2017-05-05T10:37:18Z</time>
      </trkpt>
      <trkpt lat="45.86872" lon="4.65767">
        <ele>221</ele>
        <time>2017-05-05T10:37:19Z</time>
      </trkpt>
      <trkpt lat="45.86871" lon="4.65774">
        <ele>221</ele>
        <time>2017-05-05T10:37:20Z</time>
      </trkpt>
      <trkpt lat="45.8687" lon="4.65782">
        <ele>221</ele>
        <time>2017-05-05T10:37:21Z</time>
      </trkpt>
      <trkpt lat="45.86868" lon="4.6579">
        <ele>221</ele>
        <time>2017-05-05T10:37:22Z</time>
      </trkpt>
      <trkpt lat="45.86867" lon="4.65797">
        <ele>221</ele>
        <time>2017-05-05T10:37:23Z</time>
      </trkpt>
      <trkpt lat="45.86865" lon="4.65805">
        <ele>221</ele>
        <time>2017-05-05T10:37:24Z</time>
      </trkpt>
      <trkpt lat="45.86863" lon="4.65812">
        <ele>220</ele>
        <time>2017-05-05T10:37:25Z</time>
      </trkpt>
      <trkpt lat="45.86861" lon="4.65819">
        <ele>220</ele>
        <time>2017-05-05T10:37:26Z</time>
      </trkpt>
      <trkpt lat="45.86859" lon="4.65826">
        <ele>219</ele>
        <time>2017-05-05T10:37:27Z</time>
      </trkpt>
      <trkpt lat="45.86856" lon="4.65831">
        <ele>219</ele>
        <time>2017-05-05T10:37:28Z</time>
      </trkpt>
      <trkpt lat="45.86854" lon="4.65837">
        <ele>222</ele>
        <time>2017-05-05T10:37:29Z</time>
      </trkpt>
      <trkpt lat="45.86852" lon="4.65843">
        <ele>222</ele>
        <time>2017-05-05T10:37:30Z</time>
      </trkpt>
      <trkpt lat="45.8685" lon="4.6585">
        <ele>222</ele>
        <time>2017-05-05T10:37:31Z</time>
      </trkpt>
      <trkpt lat="45.86848" lon="4.65856">
        <ele>223</ele>
        <time>2017-05-05T10:37:32Z</time>
      </trkpt>
      <trkpt lat="45.86846" lon="4.65862">
        <ele>224</ele>
        <time>2017-05-05T10:37:33Z</time>
      </trkpt>
      <trkpt lat="45.86843" lon="4.65868">
        <ele>224</ele>
        <time>2017-05-05T10:37:34Z</time>
      </trkpt>
      <trkpt lat="45.8684" lon="4.65874">
        <ele>225</ele>
        <time>2017-05-05T10:37:35Z</time>
      </trkpt>
      <trkpt lat="45.86837" lon="4.65881">
        <ele>225</ele>
        <time>2017-05-05T10:37:36Z</time>
      </trkpt>
      <trkpt lat="45.86834" lon="4.65887">
        <ele>225</ele>
        <time>2017-05-05T10:37:37Z</time>
      </trkpt>
      <trkpt lat="45.86831" lon="4.65894">
        <ele>217</ele>
        <time>2017-05-05T10:37:38Z</time>
      </trkpt>
      <trkpt lat="45.86828" lon="4.659">
        <ele>217</ele>
        <time>2017-05-05T10:37:39Z</time>
      </trkpt>
      <trkpt lat="45.86825" lon="4.65907">
        <ele>218</ele>
        <time>2017-05-05T10:37:40Z</time>
      </trkpt>
      <trkpt lat="45.86821" lon="4.65914">
        <ele>218</ele>
        <time>2017-05-05T10:37:41Z</time>
      </trkpt>
      <trkpt lat="45.86818" lon="4.6592">
        <ele>221</ele>
        <time>2017-05-05T10:37:42Z</time>
      </trkpt>
      <trkpt lat="45.86814" lon="4.65927">
        <ele>221</ele>
        <time>2017-05-05T10:37:43Z</time>
      </trkpt>
      <trkpt lat="45.86811" lon="4.65933">
        <ele>221</ele>
        <time>2017-05-05T10:37:44Z</time>
      </trkpt>
      <trkpt lat="45.86807" lon="4.65939">
        <ele>221</ele>
        <time>2017-05-05T10:37:45Z</time>
      </trkpt>
      <trkpt lat="45.86803" lon="4.65945">
        <ele>221</ele>
        <time>2017-05-05T10:37:46Z</time>
      </trkpt>
      <trkpt lat="45.868" lon="4.65951">
        <ele>221</ele>
        <time>2017-05-05T10:37:47Z</time>
      </trkpt>
      <trkpt lat="45.86796" lon="4.65957">
        <ele>222</ele>
        <time>2017-05-05T10:37:48Z</time>
      </trkpt>
      <trkpt lat="45.86793" lon="4.65963">
        <ele>222</ele>
        <time>2017-05-05T10:37:49Z</time>
      </trkpt>
      <trkpt lat="45.86789" lon="4.65968">
        <ele>221</ele>
        <time>2017-05-05T10:37:50Z</time>
      </trkpt>
      <trkpt lat="45.86785" lon="4.65974">
        <ele>221</ele>
        <time>2017-05-05T10:37:51Z</time>
      </trkpt>
      <trkpt lat="45.86781" lon="4.6598">
        <ele>221</ele>
        <time>2017-05-05T10:37:52Z</time>
      </trkpt>
      <trkpt lat="45.86777" lon="4.65985">
        <ele>221</ele>
        <time>2017-05-05T10:37:53Z</time>
      </trkpt>
      <trkpt lat="45.86773" lon="4.65991">
        <ele>220</ele>
        <time>2017-05-05T10:37:54Z</time>
      </trkpt>
      <trkpt lat="45.86768" lon="4.65997">
        <ele>219</ele>
        <time>2017-05-05T10:37:55Z</time>
      </trkpt>
      <trkpt lat="45.86763" lon="4.66002">
        <ele>225</ele>
        <time>2017-05-05T10:37:56Z</time>
      </trkpt>
      <trkpt lat="45.86759" lon="4.66008">
        <ele>224</ele>
        <time>2017-05-05T10:37:57Z</time>
      </trkpt>
      <trkpt lat="45.86754" lon="4.66012">
        <ele>224</ele>
        <time>2017-05-05T10:37:58Z</time>
      </trkpt>
      <trkpt lat="45.8675" lon="4.66017">
        <ele>219</ele>
        <time>2017-05-05T10:37:59Z</time>
      </trkpt>
      <trkpt lat="45.86745" lon="4.66021">
        <ele>220</ele>
        <time>2017-05-05T10:38:00Z</time>
      </trkpt>
      <trkpt lat="45.8674" lon="4.66026">
        <ele>221</ele>
        <time>2017-05-05T10:38:01Z</time>
      </trkpt>
      <trkpt lat="45.86735" lon="4.6603">
        <ele>221</ele>
        <time>2017-05-05T10:38:02Z</time>
      </trkpt>
      <trkpt lat="45.8673" lon="4.66034">
        <ele>222</ele>
        <time>2017-05-05T10:38:03Z</time>
      </trkpt>
      <trkpt lat="45.86725" lon="4.66037">
        <ele>222</ele>
        <time>2017-05-05T10:38:04Z</time>
      </trkpt>
      <trkpt lat="45.8672" lon="4.66041">
        <ele>222</ele>
        <time>2017-05-05T10:38:05Z</time>
      </trkpt>
      <trkpt lat="45.86715" lon="4.66044">
        <ele>222</ele>
        <time>2017-05-05T10:38:06Z</time>
      </trkpt>
      <trkpt lat="45.86709" lon="4.66047">
        <ele>222</ele>
        <time>2017-05-05T10:38:07Z</time>
      </trkpt>
      <trkpt lat="45.86704" lon="4.6605">
        <ele>222</ele>
        <time>2017-05-05T10:38:08Z</time>
      </trkpt>
      <trkpt lat="45.86699" lon="4.66053">
        <ele>221</ele>
        <time>2017-05-05T10:38:09Z</time>
      </trkpt>
      <trkpt lat="45.86693" lon="4.66055">
        <ele>221</ele>
        <time>2017-05-05T10:38:10Z</time>
      </trkpt>
      <trkpt lat="45.86688" lon="4.66058">
        <ele>221</ele>
        <time>2017-05-05T10:38:11Z</time>
      </trkpt>
      <trkpt lat="45.86682" lon="4.66061">
        <ele>220</ele>
        <time>2017-05-05T10:38:12Z</time>
      </trkpt>
      <trkpt lat="45.86676" lon="4.66063">
        <ele>220</ele>
        <time>2017-05-05T10:38:13Z</time>
      </trkpt>
      <trkpt lat="45.86669" lon="4.66065">
        <ele>220</ele>
        <time>2017-05-05T10:38:14Z</time>
      </trkpt>
      <trkpt lat="45.86663" lon="4.66068">
        <ele>215</ele>
        <time>2017-05-05T10:38:15Z</time>
      </trkpt>
      <trkpt lat="45.86656" lon="4.6607">
        <ele>215</ele>
        <time>2017-05-05T10:38:16Z</time>
      </trkpt>
      <trkpt lat="45.86649" lon="4.66072">
        <ele>215</ele>
        <time>2017-05-05T10:38:17Z</time>
      </trkpt>
      <trkpt lat="45.86643" lon="4.66075">
        <ele>214</ele>
        <time>2017-05-05T10:38:18Z</time>
      </trkpt>
      <trkpt lat="45.86637" lon="4.66077">
        <ele>214</ele>
        <time>2017-05-05T10:38:19Z</time>
      </trkpt>
      <trkpt lat="45.8663" lon="4.6608">
        <ele>213</ele>
        <time>2017-05-05T10:38:20Z</time>
      </trkpt>
      <trkpt lat="45.86624" lon="4.66083">
        <ele>213</ele>
        <time>2017-05-05T10:38:21Z</time>
      </trkpt>
      <trkpt lat="45.86619" lon="4.66086">
        <ele>221</ele>
        <time>2017-05-05T10:38:22Z</time>
      </trkpt>
      <trkpt lat="45.86613" lon="4.66089">
        <ele>220</ele>
        <time>2017-05-05T10:38:23Z</time>
      </trkpt>
      <trkpt lat="45.86608" lon="4.66092">
        <ele>220</ele>
        <time>2017-05-05T10:38:24Z</time>
      </trkpt>
      <trkpt lat="45.86602" lon="4.66095">
        <ele>219</ele>
        <time>2017-05-05T10:38:25Z</time>
      </trkpt>
      <trkpt lat="45.86598" lon="4.66097">
        <ele>219</ele>
        <time>2017-05-05T10:38:26Z</time>
      </trkpt>
      <trkpt lat="45.86593" lon="4.66101">
        <ele>219</ele>
        <time>2017-05-05T10:38:27Z</time>
      </trkpt>
      <trkpt lat="45.86588" lon="4.66105">
        <ele>219</ele>
        <time>2017-05-05T10:38:28Z</time>
      </trkpt>
      <trkpt lat="45.86583" lon="4.66109">
        <ele>214</ele>
        <time>2017-05-05T10:38:29Z</time>
      </trkpt>
      <trkpt lat="45.86579" lon="4.66113">
        <ele>215</ele>
        <time>2017-05-05T10:38:30Z</time>
      </trkpt>
      <trkpt lat="45.86574" lon="4.66117">
        <ele>215</ele>
        <time>2017-05-05T10:38:31Z</time>
      </trkpt>
      <trkpt lat="45.8657" lon="4.66121">
        <ele>215</ele>
        <time>2017-05-05T10:38:32Z</time>
      </trkpt>
      <trkpt lat="45.86566" lon="4.66126">
        <ele>216</ele>
        <time>2017-05-05T10:38:33Z</time>
      </trkpt>
      <trkpt lat="45.86561" lon="4.66131">
        <ele>216</ele>
        <time>2017-05-05T10:38:34Z</time>
      </trkpt>
      <trkpt lat="45.86556" lon="4.66136">
        <ele>217</ele>
        <time>2017-05-05T10:38:35Z</time>
      </trkpt>
      <trkpt lat="45.86551" lon="4.66141">
        <ele>217</ele>
        <time>2017-05-05T10:38:36Z</time>
      </trkpt>
      <trkpt lat="45.86546" lon="4.66146">
        <ele>217</ele>
        <time>2017-05-05T10:38:37Z</time>
      </trkpt>
      <trkpt lat="45.86541" lon="4.6615">
        <ele>217</ele>
        <time>2017-05-05T10:38:38Z</time>
      </trkpt>
      <trkpt lat="45.86535" lon="4.66155">
        <ele>216</ele>
        <time>2017-05-05T10:38:39Z</time>
      </trkpt>
      <trkpt lat="45.86529" lon="4.6616">
        <ele>216</ele>
        <time>2017-05-05T10:38:40Z</time>
      </trkpt>
      <trkpt lat="45.86523" lon="4.66164">
        <ele>216</ele>
        <time>2017-05-05T10:38:41Z</time>
      </trkpt>
      <trkpt lat="45.86517" lon="4.66168">
        <ele>221</ele>
        <time>2017-05-05T10:38:42Z</time>
      </trkpt>
      <trkpt lat="45.86512" lon="4.66172">
        <ele>220</ele>
        <time>2017-05-05T10:38:43Z</time>
      </trkpt>
      <trkpt lat="45.86506" lon="4.66176">
        <ele>219</ele>
        <time>2017-05-05T10:38:44Z</time>
      </trkpt>
      <trkpt lat="45.865" lon="4.66179">
        <ele>216</ele>
        <time>2017-05-05T10:38:45Z</time>
      </trkpt>
      <trkpt lat="45.86494" lon="4.66181">
        <ele>216</ele>
        <time>2017-05-05T10:38:46Z</time>
      </trkpt>
      <trkpt lat="45.86488" lon="4.66184">
        <ele>217</ele>
        <time>2017-05-05T10:38:47Z</time>
      </trkpt>
      <trkpt lat="45.86483" lon="4.66187">
        <ele>217</ele>
        <time>2017-05-05T10:38:48Z</time>
      </trkpt>
      <trkpt lat="45.86477" lon="4.66189">
        <ele>217</ele>
        <time>2017-05-05T10:38:49Z</time>
      </trkpt>
      <trkpt lat="45.86471" lon="4.66191">
        <ele>217</ele>
        <time>2017-05-05T10:38:50Z</time>
      </trkpt>
      <trkpt lat="45.86465" lon="4.66194">
        <ele>217</ele>
        <time>2017-05-05T10:38:51Z</time>
      </trkpt>
      <trkpt lat="45.86458" lon="4.66195">
        <ele>217</ele>
        <time>2017-05-05T10:38:52Z</time>
      </trkpt>
      <trkpt lat="45.86451" lon="4.66197">
        <ele>216</ele>
        <time>2017-05-05T10:38:53Z</time>
      </trkpt>
      <trkpt lat="45.86445" lon="4.66199">
        <ele>216</ele>
        <time>2017-05-05T10:38:54Z</time>
      </trkpt>
      <trkpt lat="45.86438" lon="4.66201">
        <ele>216</ele>
        <time>2017-05-05T10:38:55Z</time>
      </trkpt>
      <trkpt lat="45.8643" lon="4.66203">
        <ele>216</ele>
        <time>2017-05-05T10:38:56Z</time>
      </trkpt>
      <trkpt lat="45.86424" lon="4.66204">
        <ele>216</ele>
        <time>2017-05-05T10:38:57Z</time>
      </trkpt>
      <trkpt lat="45.86417" lon="4.66206">
        <ele>216</ele>
        <time>2017-05-05T10:38:58Z</time>
      </trkpt>
      <trkpt lat="45.8641" lon="4.66208">
        <ele>213</ele>
        <time>2017-05-05T10:38:59Z</time>
      </trkpt>
      <trkpt lat="45.86404" lon="4.6621">
        <ele>213</ele>
        <time>2017-05-05T10:39:00Z</time>
      </trkpt>
      <trkpt lat="45.86398" lon="4.66211">
        <ele>213</ele>
        <time>2017-05-05T10:39:01Z</time>
      </trkpt>
      <trkpt lat="45.86391" lon="4.66213">
        <ele>213</ele>
        <time>2017-05-05T10:39:02Z</time>
      </trkpt>
      <trkpt lat="45.86385" lon="4.66216">
        <ele>213</ele>
        <time>2017-05-05T10:39:03Z</time>
      </trkpt>
      <trkpt lat="45.86379" lon="4.66219">
        <ele>213</ele>
        <time>2017-05-05T10:39:04Z</time>
      </trkpt>
      <trkpt lat="45.86373" lon="4.66222">
        <ele>213</ele>
        <time>2017-05-05T10:39:05Z</time>
      </trkpt>
      <trkpt lat="45.86367" lon="4.66225">
        <ele>213</ele>
        <time>2017-05-05T10:39:06Z</time>
      </trkpt>
      <trkpt lat="45.86361" lon="4.66229">
        <ele>213</ele>
        <time>2017-05-05T10:39:07Z</time>
      </trkpt>
      <trkpt lat="45.86354" lon="4.66233">
        <ele>213</ele>
        <time>2017-05-05T10:39:08Z</time>
      </trkpt>
      <trkpt lat="45.86348" lon="4.66238">
        <ele>213</ele>
        <time>2017-05-05T10:39:09Z</time>
      </trkpt>
      <trkpt lat="45.86342" lon="4.66243">
        <ele>213</ele>
        <time>2017-05-05T10:39:10Z</time>
      </trkpt>
      <trkpt lat="45.86336" lon="4.66249">
        <ele>213</ele>
        <time>2017-05-05T10:39:11Z</time>
      </trkpt>
      <trkpt lat="45.8633" lon="4.66254">
        <ele>213</ele>
        <time>2017-05-05T10:39:12Z</time>
      </trkpt>
      <trkpt lat="45.86324" lon="4.6626">
        <ele>213</ele>
        <time>2017-05-05T10:39:13Z</time>
      </trkpt>
      <trkpt lat="45.86318" lon="4.66266">
        <ele>213</ele>
        <time>2017-05-05T10:39:14Z</time>
      </trkpt>
      <trkpt lat="45.86312" lon="4.66272">
        <ele>214</ele>
        <time>2017-05-05T10:39:15Z</time>
      </trkpt>
      <trkpt lat="45.86307" lon="4.66279">
        <ele>214</ele>
        <time>2017-05-05T10:39:16Z</time>
      </trkpt>
      <trkpt lat="45.86301" lon="4.66285">
        <ele>214</ele>
        <time>2017-05-05T10:39:17Z</time>
      </trkpt>
      <trkpt lat="45.86296" lon="4.66291">
        <ele>214</ele>
        <time>2017-05-05T10:39:18Z</time>
      </trkpt>
      <trkpt lat="45.86291" lon="4.66297">
        <ele>214</ele>
        <time>2017-05-05T10:39:19Z</time>
      </trkpt>
      <trkpt lat="45.86286" lon="4.66303">
        <ele>214</ele>
        <time>2017-05-05T10:39:20Z</time>
      </trkpt>
      <trkpt lat="45.86282" lon="4.6631">
        <ele>213</ele>
        <time>2017-05-05T10:39:21Z</time>
      </trkpt>
      <trkpt lat="45.86277" lon="4.66316">
        <ele>213</ele>
        <time>2017-05-05T10:39:22Z</time>
      </trkpt>
      <trkpt lat="45.86273" lon="4.66324">
        <ele>213</ele>
        <time>2017-05-05T10:39:23Z</time>
      </trkpt>
      <trkpt lat="45.86268" lon="4.66331">
        <ele>213</ele>
        <time>2017-05-05T10:39:24Z</time>
      </trkpt>
      <trkpt lat="45.86264" lon="4.66339">
        <ele>214</ele>
        <time>2017-05-05T10:39:25Z</time>
      </trkpt>
      <trkpt lat="45.86259" lon="4.66347">
        <ele>214</ele>
        <time>2017-05-05T10:39:26Z</time>
      </trkpt>
      <trkpt lat="45.86255" lon="4.66355">
        <ele>215</ele>
        <time>2017-05-05T10:39:27Z</time>
      </trkpt>
      <trkpt lat="45.8625" lon="4.66364">
        <ele>212</ele>
        <time>2017-05-05T10:39:28Z</time>
      </trkpt>
      <trkpt lat="45.86245" lon="4.66373">
        <ele>212</ele>
        <time>2017-05-05T10:39:29Z</time>
      </trkpt>
      <trkpt lat="45.86241" lon="4.66381">
        <ele>212</ele>
        <time>2017-05-05T10:39:30Z</time>
      </trkpt>
      <trkpt lat="45.86237" lon="4.6639">
        <ele>212</ele>
        <time>2017-05-05T10:39:31Z</time>
      </trkpt>
      <trkpt lat="45.86232" lon="4.66398">
        <ele>212</ele>
        <time>2017-05-05T10:39:32Z</time>
      </trkpt>
      <trkpt lat="45.86228" lon="4.66405">
        <ele>212</ele>
        <time>2017-05-05T10:39:33Z</time>
      </trkpt>
      <trkpt lat="45.86224" lon="4.66413">
        <ele>212</ele>
        <time>2017-05-05T10:39:34Z</time>
      </trkpt>
      <trkpt lat="45.8622" lon="4.66421">
        <ele>213</ele>
        <time>2017-05-05T10:39:35Z</time>
      </trkpt>
      <trkpt lat="45.86216" lon="4.66428">
        <ele>213</ele>
        <time>2017-05-05T10:39:36Z</time>
      </trkpt>
      <trkpt lat="45.86213" lon="4.66435">
        <ele>213</ele>
        <time>2017-05-05T10:39:37Z</time>
      </trkpt>
      <trkpt lat="45.86209" lon="4.66442">
        <ele>213</ele>
        <time>2017-05-05T10:39:38Z</time>
      </trkpt>
      <trkpt lat="45.86205" lon="4.6645">
        <ele>213</ele>
        <time>2017-05-05T10:39:39Z</time>
      </trkpt>
      <trkpt lat="45.86202" lon="4.66456">
        <ele>213</ele>
        <time>2017-05-05T10:39:40Z</time>
      </trkpt>
      <trkpt lat="45.86199" lon="4.66463">
        <ele>213</ele>
        <time>2017-05-05T10:39:41Z</time>
      </trkpt>
      <trkpt lat="45.86195" lon="4.66469">
        <ele>213</ele>
        <time>2017-05-05T10:39:42Z</time>
      </trkpt>
      <trkpt lat="45.86192" lon="4.66475">
        <ele>213</ele>
        <time>2017-05-05T10:39:43Z</time>
      </trkpt>
      <trkpt lat="45.8619" lon="4.6648">
        <ele>212</ele>
        <time>2017-05-05T10:39:44Z</time>
      </trkpt>
      <trkpt lat="45.86187" lon="4.66486">
        <ele>212</ele>
        <time>2017-05-05T10:39:45Z</time>
      </trkpt>
      <trkpt lat="45.86183" lon="4.66492">
        <ele>212</ele>
        <time>2017-05-05T10:39:46Z</time>
      </trkpt>
      <trkpt lat="45.8618" lon="4.66498">
        <ele>212</ele>
        <time>2017-05-05T10:39:47Z</time>
      </trkpt>
      <trkpt lat="45.86177" lon="4.66504">
        <ele>214</ele>
        <time>2017-05-05T10:39:48Z</time>
      </trkpt>
      <trkpt lat="45.86174" lon="4.6651">
        <ele>214</ele>
        <time>2017-05-05T10:39:49Z</time>
      </trkpt>
      <trkpt lat="45.8617" lon="4.66516">
        <ele>215</ele>
        <time>2017-05-05T10:39:50Z</time>
      </trkpt>
      <trkpt lat="45.86166" lon="4.66522">
        <ele>212</ele>
        <time>2017-05-05T10:39:51Z</time>
      </trkpt>
      <trkpt lat="45.86162" lon="4.66528">
        <ele>213</ele>
        <time>2017-05-05T10:39:52Z</time>
      </trkpt>
      <trkpt lat="45.86158" lon="4.66535">
        <ele>213</ele>
        <time>2017-05-05T10:39:53Z</time>
      </trkpt>
      <trkpt lat="45.86154" lon="4.66541">
        <ele>214</ele>
        <time>2017-05-05T10:39:54Z</time>
      </trkpt>
      <trkpt lat="45.8615" lon="4.66546">
        <ele>214</ele>
        <time>2017-05-05T10:39:55Z</time>
      </trkpt>
      <trkpt lat="45.86146" lon="4.66552">
        <ele>214</ele>
        <time>2017-05-05T10:39:56Z</time>
      </trkpt>
      <trkpt lat="45.86141" lon="4.66557">
        <ele>214</ele>
        <time>2017-05-05T10:39:57Z</time>
      </trkpt>
      <trkpt lat="45.86136" lon="4.66563">
        <ele>214</ele>
        <time>2017-05-05T10:39:58Z</time>
      </trkpt>
      <trkpt lat="45.8613" lon="4.66568">
        <ele>214</ele>
        <time>2017-05-05T10:39:59Z</time>
      </trkpt>
      <trkpt lat="45.86125" lon="4.66572">
        <ele>214</ele>
        <time>2017-05-05T10:40:00Z</time>
      </trkpt>
      <trkpt lat="45.8612" lon="4.66577">
        <ele>213</ele>
        <time>2017-05-05T10:40:01Z</time>
      </trkpt>
      <trkpt lat="45.86115" lon="4.66581">
        <ele>213</ele>
        <time>2017-05-05T10:40:02Z</time>
      </trkpt>
      <trkpt lat="45.8611" lon="4.66585">
        <ele>219</ele>
        <time>2017-05-05T10:40:03Z</time>
      </trkpt>
      <trkpt lat="45.86104" lon="4.66588">
        <ele>218</ele>
        <time>2017-05-05T10:40:04Z</time>
      </trkpt>
      <trkpt lat="45.86099" lon="4.66591">
        <ele>217</ele>
        <time>2017-05-05T10:40:05Z</time>
      </trkpt>
      <trkpt lat="45.86094" lon="4.66594">
        <ele>216</ele>
        <time>2017-05-05T10:40:06Z</time>
      </trkpt>
      <trkpt lat="45.86089" lon="4.66596">
        <ele>216</ele>
        <time>2017-05-05T10:40:07Z</time>
      </trkpt>
      <trkpt lat="45.86084" lon="4.66598">
        <ele>216</ele>
        <time>2017-05-05T10:40:08Z</time>
      </trkpt>
      <trkpt lat="45.8608" lon="4.66601">
        <ele>212</ele>
        <time>2017-05-05T10:40:09Z</time>
      </trkpt>
      <trkpt lat="45.86075" lon="4.66604">
        <ele>212</ele>
        <time>2017-05-05T10:40:10Z</time>
      </trkpt>
      <trkpt lat="45.86071" lon="4.66608">
        <ele>213</ele>
        <time>2017-05-05T10:40:11Z</time>
      </trkpt>
      <trkpt lat="45.86066" lon="4.66611">
        <ele>213</ele>
        <time>2017-05-05T10:40:12Z</time>
      </trkpt>
      <trkpt lat="45.86061" lon="4.66616">
        <ele>213</ele>
        <time>2017-05-05T10:40:13Z</time>
      </trkpt>
      <trkpt lat="45.86056" lon="4.6662">
        <ele>213</ele>
        <time>2017-05-05T10:40:14Z</time>
      </trkpt>
      <trkpt lat="45.8605" lon="4.66624">
        <ele>214</ele>
        <time>2017-05-05T10:40:15Z</time>
      </trkpt>
      <trkpt lat="45.86045" lon="4.66629">
        <ele>214</ele>
        <time>2017-05-05T10:40:16Z</time>
      </trkpt>
      <trkpt lat="45.8604" lon="4.66635">
        <ele>214</ele>
        <time>2017-05-05T10:40:17Z</time>
      </trkpt>
      <trkpt lat="45.86035" lon="4.6664">
        <ele>214</ele>
        <time>2017-05-05T10:40:18Z</time>
      </trkpt>
      <trkpt lat="45.8603" lon="4.66645">
        <ele>213</ele>
        <time>2017-05-05T10:40:19Z</time>
      </trkpt>
      <trkpt lat="45.86024" lon="4.66651">
        <ele>213</ele>
        <time>2017-05-05T10:40:20Z</time>
      </trkpt>
      <trkpt lat="45.86019" lon="4.66656">
        <ele>213</ele>
        <time>2017-05-05T10:40:21Z</time>
      </trkpt>
      <trkpt lat="45.86014" lon="4.66661">
        <ele>212</ele>
        <time>2017-05-05T10:40:22Z</time>
      </trkpt>
      <trkpt lat="45.8601" lon="4.66667">
        <ele>212</ele>
        <time>2017-05-05T10:40:23Z</time>
      </trkpt>
      <trkpt lat="45.86005" lon="4.66672">
        <ele>214</ele>
        <time>2017-05-05T10:40:24Z</time>
      </trkpt>
      <trkpt lat="45.86001" lon="4.66678">
        <ele>215</ele>
        <time>2017-05-05T10:40:25Z</time>
      </trkpt>
      <trkpt lat="45.85997" lon="4.66684">
        <ele>213</ele>
        <time>2017-05-05T10:40:26Z</time>
      </trkpt>
      <trkpt lat="45.85993" lon="4.6669">
        <ele>214</ele>
        <time>2017-05-05T10:40:27Z</time>
      </trkpt>
      <trkpt lat="45.8599" lon="4.66696">
        <ele>214</ele>
        <time>2017-05-05T10:40:28Z</time>
      </trkpt>
      <trkpt lat="45.85986" lon="4.66702">
        <ele>215</ele>
        <time>2017-05-05T10:40:29Z</time>
      </trkpt>
      <trkpt lat="45.85983" lon="4.66708">
        <ele>215</ele>
        <time>2017-05-05T10:40:30Z</time>
      </trkpt>
      <trkpt lat="45.85979" lon="4.66715">
        <ele>215</ele>
        <time>2017-05-05T10:40:31Z</time>
      </trkpt>
      <trkpt lat="45.85976" lon="4.66723">
        <ele>215</ele>
        <time>2017-05-05T10:40:32Z</time>
      </trkpt>
      <trkpt lat="45.85973" lon="4.66731">
        <ele>216</ele>
        <time>2017-05-05T10:40:33Z</time>
      </trkpt>
      <trkpt lat="45.8597" lon="4.66739">
        <ele>216</ele>
        <time>2017-05-05T10:40:34Z</time>
      </trkpt>
      <trkpt lat="45.85967" lon="4.66747">
        <ele>216</ele>
        <time>2017-05-05T10:40:35Z</time>
      </trkpt>
      <trkpt lat="45.85964" lon="4.66754">
        <ele>214</ele>
        <time>2017-05-05T10:40:36Z</time>
      </trkpt>
      <trkpt lat="45.85961" lon="4.66762">
        <ele>214</ele>
        <time>2017-05-05T10:40:37Z</time>
      </trkpt>
      <trkpt lat="45.85958" lon="4.66771">
        <ele>214</ele>
        <time>2017-05-05T10:40:38Z</time>
      </trkpt>
      <trkpt lat="45.85956" lon="4.66779">
        <ele>213</ele>
        <time>2017-05-05T10:40:39Z</time>
      </trkpt>
      <trkpt lat="45.85953" lon="4.66787">
        <ele>213</ele>
        <time>2017-05-05T10:40:40Z</time>
      </trkpt>
      <trkpt lat="45.85951" lon="4.66794">
        <ele>213</ele>
        <time>2017-05-05T10:40:41Z</time>
      </trkpt>
      <trkpt lat="45.85948" lon="4.66802">
        <ele>213</ele>
        <time>2017-05-05T10:40:42Z</time>
      </trkpt>
      <trkpt lat="45.85946" lon="4.66809">
        <ele>212</ele>
        <time>2017-05-05T10:40:43Z</time>
      </trkpt>
      <trkpt lat="45.85944" lon="4.66816">
        <ele>212</ele>
        <time>2017-05-05T10:40:44Z</time>
      </trkpt>
      <trkpt lat="45.85942" lon="4.66823">
        <ele>212</ele>
        <time>2017-05-05T10:40:45Z</time>
      </trkpt>
      <trkpt lat="45.8594" lon="4.66831">
        <ele>212</ele>
        <time>2017-05-05T10:40:46Z</time>
      </trkpt>
      <trkpt lat="45.85937" lon="4.66839">
        <ele>210</ele>
        <time>2017-05-05T10:40:47Z</time>
      </trkpt>
      <trkpt lat="45.85935" lon="4.66847">
        <ele>210</ele>
        <time>2017-05-05T10:40:48Z</time>
      </trkpt>
      <trkpt lat="45.85933" lon="4.66855">
        <ele>210</ele>
        <time>2017-05-05T10:40:49Z</time>
      </trkpt>
      <trkpt lat="45.85931" lon="4.66863">
        <ele>210</ele>
        <time>2017-05-05T10:40:50Z</time>
      </trkpt>
      <trkpt lat="45.85928" lon="4.66872">
        <ele>210</ele>
        <time>2017-05-05T10:40:51Z</time>
      </trkpt>
      <trkpt lat="45.85925" lon="4.66881">
        <ele>210</ele>
        <time>2017-05-05T10:40:52Z</time>
      </trkpt>
      <trkpt lat="45.85923" lon="4.66889">
        <ele>209</ele>
        <time>2017-05-05T10:40:53Z</time>
      </trkpt>
      <trkpt lat="45.85921" lon="4.66897">
        <ele>209</ele>
        <time>2017-05-05T10:40:54Z</time>
      </trkpt>
      <trkpt lat="45.85919" lon="4.66905">
        <ele>208</ele>
        <time>2017-05-05T10:40:55Z</time>
      </trkpt>
      <trkpt lat="45.85918" lon="4.66913">
        <ele>207</ele>
        <time>2017-05-05T10:40:56Z</time>
      </trkpt>
      <trkpt lat="45.85916" lon="4.66921">
        <ele>207</ele>
        <time>2017-05-05T10:40:57Z</time>
      </trkpt>
      <trkpt lat="45.85914" lon="4.66929">
        <ele>207</ele>
        <time>2017-05-05T10:40:58Z</time>
      </trkpt>
      <trkpt lat="45.85912" lon="4.66936">
        <ele>207</ele>
        <time>2017-05-05T10:40:59Z</time>
      </trkpt>
      <trkpt lat="45.85911" lon="4.66943">
        <ele>207</ele>
        <time>2017-05-05T10:41:00Z</time>
      </trkpt>
      <trkpt lat="45.85908" lon="4.66949">
        <ele>207</ele>
        <time>2017-05-05T10:41:01Z</time>
      </trkpt>
      <trkpt lat="45.85905" lon="4.66955">
        <ele>207</ele>
        <time>2017-05-05T10:41:02Z</time>
      </trkpt>
      <trkpt lat="45.85902" lon="4.66962">
        <ele>207</ele>
        <time>2017-05-05T10:41:03Z</time>
      </trkpt>
      <trkpt lat="45.859" lon="4.66969">
        <ele>207</ele>
        <time>2017-05-05T10:41:04Z</time>
      </trkpt>
      <trkpt lat="45.85898" lon="4.66976">
        <ele>207</ele>
        <time>2017-05-05T10:41:05Z</time>
      </trkpt>
      <trkpt lat="45.85899" lon="4.66983">
        <ele>207</ele>
        <time>2017-05-05T10:41:06Z</time>
      </trkpt>
      <trkpt lat="45.85899" lon="4.6699">
        <ele>207</ele>
        <time>2017-05-05T10:41:07Z</time>
      </trkpt>
      <trkpt lat="45.85901" lon="4.66997">
        <ele>207</ele>
        <time>2017-05-05T10:41:08Z</time>
      </trkpt>
      <trkpt lat="45.85901" lon="4.67004">
        <ele>206</ele>
        <time>2017-05-05T10:41:09Z</time>
      </trkpt>
      <trkpt lat="45.85901" lon="4.67011">
        <ele>205</ele>
        <time>2017-05-05T10:41:10Z</time>
      </trkpt>
      <trkpt lat="45.85901" lon="4.67019">
        <ele>205</ele>
        <time>2017-05-05T10:41:11Z</time>
      </trkpt>
      <trkpt lat="45.859" lon="4.67027">
        <ele>205</ele>
        <time>2017-05-05T10:41:12Z</time>
      </trkpt>
      <trkpt lat="45.85899" lon="4.67036">
        <ele>205</ele>
        <time>2017-05-05T10:41:13Z</time>
      </trkpt>
      <trkpt lat="45.85898" lon="4.67045">
        <ele>205</ele>
        <time>2017-05-05T10:41:14Z</time>
      </trkpt>
      <trkpt lat="45.85896" lon="4.67055">
        <ele>205</ele>
        <time>2017-05-05T10:41:15Z</time>
      </trkpt>
      <trkpt lat="45.85895" lon="4.67064">
        <ele>205</ele>
        <time>2017-05-05T10:41:16Z</time>
      </trkpt>
      <trkpt lat="45.85894" lon="4.67074">
        <ele>205</ele>
        <time>2017-05-05T10:41:17Z</time>
      </trkpt>
      <trkpt lat="45.85893" lon="4.67083">
        <ele>205</ele>
        <time>2017-05-05T10:41:18Z</time>
      </trkpt>
      <trkpt lat="45.85892" lon="4.67092">
        <ele>204</ele>
        <time>2017-05-05T10:41:19Z</time>
      </trkpt>
      <trkpt lat="45.85891" lon="4.67101">
        <ele>204</ele>
        <time>2017-05-05T10:41:20Z</time>
      </trkpt>
      <trkpt lat="45.8589" lon="4.67109">
        <ele>204</ele>
        <time>2017-05-05T10:41:21Z</time>
      </trkpt>
      <trkpt lat="45.85889" lon="4.67117">
        <ele>204</ele>
        <time>2017-05-05T10:41:22Z</time>
      </trkpt>
      <trkpt lat="45.85888" lon="4.67126">
        <ele>204</ele>
        <time>2017-05-05T10:41:23Z</time>
      </trkpt>
      <trkpt lat="45.85887" lon="4.67134">
        <ele>204</ele>
        <time>2017-05-05T10:41:24Z</time>
      </trkpt>
      <trkpt lat="45.85886" lon="4.67142">
        <ele>204</ele>
        <time>2017-05-05T10:41:25Z</time>
      </trkpt>
      <trkpt lat="45.85886" lon="4.6715">
        <ele>204</ele>
        <time>2017-05-05T10:41:26Z</time>
      </trkpt>
      <trkpt lat="45.85884" lon="4.67158">
        <ele>204</ele>
        <time>2017-05-05T10:41:27Z</time>
      </trkpt>
      <trkpt lat="45.85883" lon="4.67166">
        <ele>204</ele>
        <time>2017-05-05T10:41:28Z</time>
      </trkpt>
      <trkpt lat="45.85882" lon="4.67174">
        <ele>204</ele>
        <time>2017-05-05T10:41:29Z</time>
      </trkpt>
      <trkpt lat="45.85882" lon="4.67181">
        <ele>204</ele>
        <time>2017-05-05T10:41:30Z</time>
      </trkpt>
      <trkpt lat="45.85881" lon="4.67189">
        <ele>204</ele>
        <time>2017-05-05T10:41:31Z</time>
      </trkpt>
      <trkpt lat="45.8588" lon="4.67197">
        <ele>204</ele>
        <time>2017-05-05T10:41:32Z</time>
      </trkpt>
      <trkpt lat="45.85879" lon="4.67204">
        <ele>204</ele>
        <time>2017-05-05T10:41:33Z</time>
      </trkpt>
      <trkpt lat="45.85878" lon="4.67211">
        <ele>204</ele>
        <time>2017-05-05T10:41:34Z</time>
      </trkpt>
      <trkpt lat="45.85878" lon="4.67218">
        <ele>204</ele>
        <time>2017-05-05T10:41:35Z</time>
      </trkpt>
      <trkpt lat="45.85878" lon="4.67225">
        <ele>204</ele>
        <time>2017-05-05T10:41:36Z</time>
      </trkpt>
      <trkpt lat="45.85877" lon="4.67233">
        <ele>204</ele>
        <time>2017-05-05T10:41:37Z</time>
      </trkpt>
      <trkpt lat="45.85877" lon="4.6724">
        <ele>204</ele>
        <time>2017-05-05T10:41:38Z</time>
      </trkpt>
      <trkpt lat="45.85876" lon="4.67247">
        <ele>204</ele>
        <time>2017-05-05T10:41:39Z</time>
      </trkpt>
      <trkpt lat="45.85875" lon="4.67255">
        <ele>205</ele>
        <time>2017-05-05T10:41:40Z</time>
      </trkpt>
      <trkpt lat="45.85874" lon="4.67263">
        <ele>205</ele>
        <time>2017-05-05T10:41:41Z</time>
      </trkpt>
      <trkpt lat="45.85874" lon="4.67271">
        <ele>205</ele>
        <time>2017-05-05T10:41:42Z</time>
      </trkpt>
      <trkpt lat="45.85873" lon="4.67279">
        <ele>205</ele>
        <time>2017-05-05T10:41:43Z</time>
      </trkpt>
      <trkpt lat="45.85873" lon="4.67288">
        <ele>205</ele>
        <time>2017-05-05T10:41:44Z</time>
      </trkpt>
      <trkpt lat="45.85872" lon="4.67296">
        <ele>205</ele>
        <time>2017-05-05T10:41:45Z</time>
      </trkpt>
      <trkpt lat="45.85871" lon="4.67303">
        <ele>205</ele>
        <time>2017-05-05T10:41:46Z</time>
      </trkpt>
      <trkpt lat="45.85871" lon="4.67311">
        <ele>205</ele>
        <time>2017-05-05T10:41:47Z</time>
      </trkpt>
      <trkpt lat="45.8587" lon="4.67318">
        <ele>205</ele>
        <time>2017-05-05T10:41:48Z</time>
      </trkpt>
      <trkpt lat="45.85869" lon="4.67326">
        <ele>205</ele>
        <time>2017-05-05T10:41:49Z</time>
      </trkpt>
      <trkpt lat="45.85868" lon="4.67333">
        <ele>205</ele>
        <time>2017-05-05T10:41:50Z</time>
      </trkpt>
      <trkpt lat="45.85867" lon="4.67341">
        <ele>208</ele>
        <time>2017-05-05T10:41:51Z</time>
      </trkpt>
      <trkpt lat="45.85866" lon="4.67349">
        <ele>208</ele>
        <time>2017-05-05T10:41:52Z</time>
      </trkpt>
      <trkpt lat="45.85865" lon="4.67358">
        <ele>208</ele>
        <time>2017-05-05T10:41:53Z</time>
      </trkpt>
      <trkpt lat="45.85864" lon="4.67367">
        <ele>208</ele>
        <time>2017-05-05T10:41:54Z</time>
      </trkpt>
      <trkpt lat="45.85863" lon="4.67375">
        <ele>208</ele>
        <time>2017-05-05T10:41:55Z</time>
      </trkpt>
      <trkpt lat="45.85862" lon="4.67385">
        <ele>208</ele>
        <time>2017-05-05T10:41:56Z</time>
      </trkpt>
      <trkpt lat="45.85861" lon="4.67394">
        <ele>208</ele>
        <time>2017-05-05T10:41:57Z</time>
      </trkpt>
      <trkpt lat="45.8586" lon="4.67403">
        <ele>208</ele>
        <time>2017-05-05T10:41:58Z</time>
      </trkpt>
      <trkpt lat="45.85859" lon="4.67412">
        <ele>208</ele>
        <time>2017-05-05T10:41:59Z</time>
      </trkpt>
      <trkpt lat="45.85858" lon="4.67421">
        <ele>211</ele>
        <time>2017-05-05T10:42:00Z</time>
      </trkpt>
      <trkpt lat="45.85857" lon="4.67429">
        <ele>211</ele>
        <time>2017-05-05T10:42:01Z</time>
      </trkpt>
      <trkpt lat="45.85855" lon="4.67437">
        <ele>211</ele>
        <time>2017-05-05T10:42:02Z</time>
      </trkpt>
      <trkpt lat="45.85853" lon="4.67445">
        <ele>212</ele>
        <time>2017-05-05T10:42:03Z</time>
      </trkpt>
      <trkpt lat="45.85851" lon="4.67452">
        <ele>212</ele>
        <time>2017-05-05T10:42:04Z</time>
      </trkpt>
      <trkpt lat="45.8585" lon="4.6746">
        <ele>212</ele>
        <time>2017-05-05T10:42:05Z</time>
      </trkpt>
      <trkpt lat="45.85848" lon="4.67468">
        <ele>212</ele>
        <time>2017-05-05T10:42:06Z</time>
      </trkpt>
      <trkpt lat="45.85846" lon="4.67475">
        <ele>212</ele>
        <time>2017-05-05T10:42:07Z</time>
      </trkpt>
      <trkpt lat="45.85843" lon="4.67482">
        <ele>211</ele>
        <time>2017-05-05T10:42:08Z</time>
      </trkpt>
      <trkpt lat="45.85841" lon="4.67488">
        <ele>210</ele>
        <time>2017-05-05T10:42:09Z</time>
      </trkpt>
      <trkpt lat="45.85838" lon="4.67495">
        <ele>208</ele>
        <time>2017-05-05T10:42:10Z</time>
      </trkpt>
      <trkpt lat="45.85835" lon="4.67502">
        <ele>208</ele>
        <time>2017-05-05T10:42:11Z</time>
      </trkpt>
      <trkpt lat="45.85831" lon="4.67509">
        <ele>207</ele>
        <time>2017-05-05T10:42:12Z</time>
      </trkpt>
      <trkpt lat="45.85828" lon="4.67515">
        <ele>208</ele>
        <time>2017-05-05T10:42:13Z</time>
      </trkpt>
      <trkpt lat="45.85824" lon="4.67521">
        <ele>209</ele>
        <time>2017-05-05T10:42:14Z</time>
      </trkpt>
      <trkpt lat="45.8582" lon="4.67527">
        <ele>209</ele>
        <time>2017-05-05T10:42:15Z</time>
      </trkpt>
      <trkpt lat="45.85816" lon="4.67533">
        <ele>210</ele>
        <time>2017-05-05T10:42:16Z</time>
      </trkpt>
      <trkpt lat="45.85812" lon="4.6754">
        <ele>210</ele>
        <time>2017-05-05T10:42:17Z</time>
      </trkpt>
      <trkpt lat="45.85808" lon="4.67545">
        <ele>210</ele>
        <time>2017-05-05T10:42:18Z</time>
      </trkpt>
      <trkpt lat="45.85803" lon="4.67551">
        <ele>211</ele>
        <time>2017-05-05T10:42:19Z</time>
      </trkpt>
      <trkpt lat="45.85799" lon="4.67556">
        <ele>211</ele>
        <time>2017-05-05T10:42:20Z</time>
      </trkpt>
      <trkpt lat="45.85795" lon="4.67561">
        <ele>211</ele>
        <time>2017-05-05T10:42:21Z</time>
      </trkpt>
      <trkpt lat="45.8579" lon="4.67566">
        <ele>210</ele>
        <time>2017-05-05T10:42:22Z</time>
      </trkpt>
      <trkpt lat="45.85785" lon="4.67571">
        <ele>210</ele>
        <time>2017-05-05T10:42:23Z</time>
      </trkpt>
      <trkpt lat="45.8578" lon="4.67576">
        <ele>210</ele>
        <time>2017-05-05T10:42:24Z</time>
      </trkpt>
      <trkpt lat="45.85776" lon="4.6758">
        <ele>209</ele>
        <time>2017-05-05T10:42:25Z</time>
      </trkpt>
      <trkpt lat="45.85771" lon="4.67585">
        <ele>215</ele>
        <time>2017-05-05T10:42:26Z</time>
      </trkpt>
      <trkpt lat="45.85766" lon="4.67589">
        <ele>214</ele>
        <time>2017-05-05T10:42:27Z</time>
      </trkpt>
      <trkpt lat="45.85762" lon="4.67594">
        <ele>214</ele>
        <time>2017-05-05T10:42:28Z</time>
      </trkpt>
      <trkpt lat="45.85756" lon="4.67598">
        <ele>214</ele>
        <time>2017-05-05T10:42:29Z</time>
      </trkpt>
      <trkpt lat="45.85751" lon="4.67602">
        <ele>214</ele>
        <time>2017-05-05T10:42:30Z</time>
      </trkpt>
      <trkpt lat="45.85745" lon="4.67606">
        <ele>209</ele>
        <time>2017-05-05T10:42:31Z</time>
      </trkpt>
      <trkpt lat="45.8574" lon="4.6761">
        <ele>210</ele>
        <time>2017-05-05T10:42:32Z</time>
      </trkpt>
      <trkpt lat="45.85735" lon="4.67614">
        <ele>210</ele>
        <time>2017-05-05T10:42:33Z</time>
      </trkpt>
      <trkpt lat="45.8573" lon="4.67618">
        <ele>211</ele>
        <time>2017-05-05T10:42:34Z</time>
      </trkpt>
      <trkpt lat="45.85724" lon="4.67621">
        <ele>211</ele>
        <time>2017-05-05T10:42:35Z</time>
      </trkpt>
      <trkpt lat="45.85719" lon="4.67625">
        <ele>211</ele>
        <time>2017-05-05T10:42:36Z</time>
      </trkpt>
      <trkpt lat="45.85714" lon="4.67628">
        <ele>211</ele>
        <time>2017-05-05T10:42:37Z</time>
      </trkpt>
      <trkpt lat="45.85709" lon="4.67631">
        <ele>211</ele>
        <time>2017-05-05T10:42:38Z</time>
      </trkpt>
      <trkpt lat="45.85704" lon="4.67634">
        <ele>211</ele>
        <time>2017-05-05T10:42:39Z</time>
      </trkpt>
      <trkpt lat="45.857" lon="4.67637">
        <ele>210</ele>
        <time>2017-05-05T10:42:40Z</time>
      </trkpt>
      <trkpt lat="45.85695" lon="4.6764">
        <ele>210</ele>
        <time>2017-05-05T10:42:41Z</time>
      </trkpt>
      <trkpt lat="45.8569" lon="4.67644">
        <ele>210</ele>
        <time>2017-05-05T10:42:42Z</time>
      </trkpt>
      <trkpt lat="45.85685" lon="4.67648">
        <ele>210</ele>
        <time>2017-05-05T10:42:43Z</time>
      </trkpt>
      <trkpt lat="45.8568" lon="4.67652">
        <ele>210</ele>
        <time>2017-05-05T10:42:44Z</time>
      </trkpt>
      <trkpt lat="45.85675" lon="4.67655">
        <ele>210</ele>
        <time>2017-05-05T10:42:45Z</time>
      </trkpt>
      <trkpt lat="45.85669" lon="4.67658">
        <ele>209</ele>
        <time>2017-05-05T10:42:46Z</time>
      </trkpt>
      <trkpt lat="45.85664" lon="4.67663">
        <ele>208</ele>
        <time>2017-05-05T10:42:47Z</time>
      </trkpt>
      <trkpt lat="45.85659" lon="4.67668">
        <ele>209</ele>
        <time>2017-05-05T10:42:48Z</time>
      </trkpt>
      <trkpt lat="45.85654" lon="4.67672">
        <ele>209</ele>
        <time>2017-05-05T10:42:49Z</time>
      </trkpt>
      <trkpt lat="45.85649" lon="4.67677">
        <ele>209</ele>
        <time>2017-05-05T10:42:50Z</time>
      </trkpt>
      <trkpt lat="45.85643" lon="4.67682">
        <ele>209</ele>
        <time>2017-05-05T10:42:51Z</time>
      </trkpt>
      <trkpt lat="45.85638" lon="4.67687">
        <ele>209</ele>
        <time>2017-05-05T10:42:52Z</time>
      </trkpt>
      <trkpt lat="45.85632" lon="4.67692">
        <ele>209</ele>
        <time>2017-05-05T10:42:53Z</time>
      </trkpt>
      <trkpt lat="45.85627" lon="4.67698">
        <ele>209</ele>
        <time>2017-05-05T10:42:54Z</time>
      </trkpt>
      <trkpt lat="45.85622" lon="4.67704">
        <ele>209</ele>
        <time>2017-05-05T10:42:55Z</time>
      </trkpt>
      <trkpt lat="45.85618" lon="4.6771">
        <ele>209</ele>
        <time>2017-05-05T10:42:56Z</time>
      </trkpt>
      <trkpt lat="45.85614" lon="4.67716">
        <ele>208</ele>
        <time>2017-05-05T10:42:57Z</time>
      </trkpt>
      <trkpt lat="45.8561" lon="4.67722">
        <ele>208</ele>
        <time>2017-05-05T10:42:58Z</time>
      </trkpt>
      <trkpt lat="45.85606" lon="4.67729">
        <ele>208</ele>
        <time>2017-05-05T10:42:59Z</time>
      </trkpt>
      <trkpt lat="45.85602" lon="4.67735">
        <ele>207</ele>
        <time>2017-05-05T10:43:00Z</time>
      </trkpt>
      <trkpt lat="45.85599" lon="4.67742">
        <ele>206</ele>
        <time>2017-05-05T10:43:01Z</time>
      </trkpt>
      <trkpt lat="45.85596" lon="4.67748">
        <ele>206</ele>
        <time>2017-05-05T10:43:02Z</time>
      </trkpt>
      <trkpt lat="45.85593" lon="4.67754">
        <ele>206</ele>
        <time>2017-05-05T10:43:03Z</time>
      </trkpt>
      <trkpt lat="45.8559" lon="4.6776">
        <ele>207</ele>
        <time>2017-05-05T10:43:04Z</time>
      </trkpt>
      <trkpt lat="45.85588" lon="4.67766">
        <ele>207</ele>
        <time>2017-05-05T10:43:05Z</time>
      </trkpt>
      <trkpt lat="45.85585" lon="4.67772">
        <ele>208</ele>
        <time>2017-05-05T10:43:06Z</time>
      </trkpt>
      <trkpt lat="45.85583" lon="4.67778">
        <ele>205</ele>
        <time>2017-05-05T10:43:07Z</time>
      </trkpt>
      <trkpt lat="45.85581" lon="4.67785">
        <ele>206</ele>
        <time>2017-05-05T10:43:08Z</time>
      </trkpt>
      <trkpt lat="45.85579" lon="4.67792">
        <ele>206</ele>
        <time>2017-05-05T10:43:09Z</time>
      </trkpt>
      <trkpt lat="45.85577" lon="4.67799">
        <ele>206</ele>
        <time>2017-05-05T10:43:10Z</time>
      </trkpt>
      <trkpt lat="45.85576" lon="4.67806">
        <ele>206</ele>
        <time>2017-05-05T10:43:11Z</time>
      </trkpt>
      <trkpt lat="45.85574" lon="4.67814">
        <ele>206</ele>
        <time>2017-05-05T10:43:12Z</time>
      </trkpt>
      <trkpt lat="45.85572" lon="4.67822">
        <ele>206</ele>
        <time>2017-05-05T10:43:13Z</time>
      </trkpt>
      <trkpt lat="45.85571" lon="4.6783">
        <ele>206</ele>
        <time>2017-05-05T10:43:14Z</time>
      </trkpt>
      <trkpt lat="45.85569" lon="4.67838">
        <ele>206</ele>
        <time>2017-05-05T10:43:15Z</time>
      </trkpt>
      <trkpt lat="45.85568" lon="4.67845">
        <ele>206</ele>
        <time>2017-05-05T10:43:16Z</time>
      </trkpt>
      <trkpt lat="45.85568" lon="4.67853">
        <ele>207</ele>
        <time>2017-05-05T10:43:17Z</time>
      </trkpt>
      <trkpt lat="45.85567" lon="4.67861">
        <ele>207</ele>
        <time>2017-05-05T10:43:18Z</time>
      </trkpt>
      <trkpt lat="45.85566" lon="4.67868">
        <ele>207</ele>
        <time>2017-05-05T10:43:19Z</time>
      </trkpt>
      <trkpt lat="45.85566" lon="4.67875">
        <ele>207</ele>
        <time>2017-05-05T10:43:20Z</time>
      </trkpt>
      <trkpt lat="45.85566" lon="4.67882">
        <ele>207</ele>
        <time>2017-05-05T10:43:21Z</time>
      </trkpt>
      <trkpt lat="45.85566" lon="4.67889">
        <ele>206</ele>
        <time>2017-05-05T10:43:22Z</time>
      </trkpt>
      <trkpt lat="45.85567" lon="4.67895">
        <ele>206</ele>
        <time>2017-05-05T10:43:23Z</time>
      </trkpt>
      <trkpt lat="45.85568" lon="4.67907">
        <ele>206</ele>
        <time>2017-05-05T10:43:25Z</time>
      </trkpt>
      <trkpt lat="45.85567" lon="4.67912">
        <ele>206</ele>
        <time>2017-05-05T10:43:26Z</time>
      </trkpt>
      <trkpt lat="45.85566" lon="4.67919">
        <ele>205</ele>
        <time>2017-05-05T10:43:27Z</time>
      </trkpt>
      <trkpt lat="45.85563" lon="4.67925">
        <ele>205</ele>
        <time>2017-05-05T10:43:28Z</time>
      </trkpt>
      <trkpt lat="45.8556" lon="4.67931">
        <ele>205</ele>
        <time>2017-05-05T10:43:29Z</time>
      </trkpt>
      <trkpt lat="45.85555" lon="4.67936">
        <ele>205</ele>
        <time>2017-05-05T10:43:30Z</time>
      </trkpt>
      <trkpt lat="45.85551" lon="4.6794">
        <ele>205</ele>
        <time>2017-05-05T10:43:31Z</time>
      </trkpt>
      <trkpt lat="45.85547" lon="4.67945">
        <ele>205</ele>
        <time>2017-05-05T10:43:32Z</time>
      </trkpt>
      <trkpt lat="45.85542" lon="4.67949">
        <ele>205</ele>
        <time>2017-05-05T10:43:33Z</time>
      </trkpt>
      <trkpt lat="45.85538" lon="4.67953">
        <ele>205</ele>
        <time>2017-05-05T10:43:34Z</time>
      </trkpt>
      <trkpt lat="45.85533" lon="4.67957">
        <ele>206</ele>
        <time>2017-05-05T10:43:35Z</time>
      </trkpt>
      <trkpt lat="45.85528" lon="4.67962">
        <ele>206</ele>
        <time>2017-05-05T10:43:36Z</time>
      </trkpt>
      <trkpt lat="45.85524" lon="4.67966">
        <ele>206</ele>
        <time>2017-05-05T10:43:37Z</time>
      </trkpt>
      <trkpt lat="45.8552" lon="4.67969">
        <ele>206</ele>
        <time>2017-05-05T10:43:38Z</time>
      </trkpt>
      <trkpt lat="45.85513" lon="4.67976">
        <ele>206</ele>
        <time>2017-05-05T10:43:40Z</time>
      </trkpt>
      <trkpt lat="45.8551" lon="4.67979">
        <ele>206</ele>
        <time>2017-05-05T10:43:41Z</time>
      </trkpt>
      <trkpt lat="45.85505" lon="4.67984">
        <ele>206</ele>
        <time>2017-05-05T10:43:43Z</time>
      </trkpt>
      <trkpt lat="45.85502" lon="4.67986">
        <ele>206</ele>
        <time>2017-05-05T10:43:44Z</time>
      </trkpt>
      <trkpt lat="45.85495" lon="4.67994">
        <ele>207</ele>
        <time>2017-05-05T10:43:48Z</time>
      </trkpt>
      <trkpt lat="45.85495" lon="4.67995">
        <ele>207</ele>
        <time>2017-05-05T10:43:49Z</time>
      </trkpt>
      <trkpt lat="45.8549" lon="4.68006">
        <ele>207</ele>
        <time>2017-05-05T10:43:53Z</time>
      </trkpt>
      <trkpt lat="45.85489" lon="4.68009">
        <ele>207</ele>
        <time>2017-05-05T10:43:54Z</time>
      </trkpt>
      <trkpt lat="45.85486" lon="4.6802">
        <ele>207</ele>
        <time>2017-05-05T10:43:58Z</time>
      </trkpt>
      <trkpt lat="45.85486" lon="4.68022">
        <ele>207</ele>
        <time>2017-05-05T10:43:59Z</time>
      </trkpt>
      <trkpt lat="45.85489" lon="4.68032">
        <ele>207</ele>
        <time>2017-05-05T10:44:03Z</time>
      </trkpt>
      <trkpt lat="45.8549" lon="4.68037">
        <ele>207</ele>
        <time>2017-05-05T10:44:04Z</time>
      </trkpt>
      <trkpt lat="45.85492" lon="4.68047">
        <ele>206</ele>
        <time>2017-05-05T10:44:06Z</time>
      </trkpt>
      <trkpt lat="45.85493" lon="4.68053">
        <ele>206</ele>
        <time>2017-05-05T10:44:07Z</time>
      </trkpt>
      <trkpt lat="45.85494" lon="4.68064">
        <ele>206</ele>
        <time>2017-05-05T10:44:09Z</time>
      </trkpt>
      <trkpt lat="45.85494" lon="4.68069">
        <ele>205</ele>
        <time>2017-05-05T10:44:10Z</time>
      </trkpt>
      <trkpt lat="45.85495" lon="4.68081">
        <ele>205</ele>
        <time>2017-05-05T10:44:12Z</time>
      </trkpt>
      <trkpt lat="45.85496" lon="4.68087">
        <ele>204</ele>
        <time>2017-05-05T10:44:13Z</time>
      </trkpt>
      <trkpt lat="45.85496" lon="4.68095">
        <ele>204</ele>
        <time>2017-05-05T10:44:14Z</time>
      </trkpt>
      <trkpt lat="45.85497" lon="4.68103">
        <ele>204</ele>
        <time>2017-05-05T10:44:15Z</time>
      </trkpt>
      <trkpt lat="45.85499" lon="4.6811">
        <ele>204</ele>
        <time>2017-05-05T10:44:16Z</time>
      </trkpt>
      <trkpt lat="45.855" lon="4.68118">
        <ele>204</ele>
        <time>2017-05-05T10:44:17Z</time>
      </trkpt>
      <trkpt lat="45.855" lon="4.6813">
        <ele>203</ele>
        <time>2017-05-05T10:44:19Z</time>
      </trkpt>
      <trkpt lat="45.855" lon="4.68136">
        <ele>203</ele>
        <time>2017-05-05T10:44:20Z</time>
      </trkpt>
      <trkpt lat="45.85501" lon="4.68143">
        <ele>203</ele>
        <time>2017-05-05T10:44:21Z</time>
      </trkpt>
      <trkpt lat="45.85502" lon="4.68149">
        <ele>203</ele>
        <time>2017-05-05T10:44:22Z</time>
      </trkpt>
      <trkpt lat="45.85502" lon="4.68156">
        <ele>204</ele>
        <time>2017-05-05T10:44:23Z</time>
      </trkpt>
      <trkpt lat="45.85504" lon="4.68163">
        <ele>204</ele>
        <time>2017-05-05T10:44:24Z</time>
      </trkpt>
      <trkpt lat="45.85504" lon="4.68171">
        <ele>204</ele>
        <time>2017-05-05T10:44:25Z</time>
      </trkpt>
      <trkpt lat="45.85506" lon="4.68178">
        <ele>204</ele>
        <time>2017-05-05T10:44:26Z</time>
      </trkpt>
      <trkpt lat="45.85507" lon="4.68187">
        <ele>203</ele>
        <time>2017-05-05T10:44:27Z</time>
      </trkpt>
      <trkpt lat="45.85508" lon="4.68195">
        <ele>203</ele>
        <time>2017-05-05T10:44:28Z</time>
      </trkpt>
      <trkpt lat="45.85508" lon="4.68205">
        <ele>203</ele>
        <time>2017-05-05T10:44:29Z</time>
      </trkpt>
      <trkpt lat="45.85509" lon="4.68214">
        <ele>203</ele>
        <time>2017-05-05T10:44:30Z</time>
      </trkpt>
      <trkpt lat="45.85509" lon="4.68224">
        <ele>203</ele>
        <time>2017-05-05T10:44:31Z</time>
      </trkpt>
      <trkpt lat="45.8551" lon="4.68234">
        <ele>203</ele>
        <time>2017-05-05T10:44:32Z</time>
      </trkpt>
      <trkpt lat="45.8551" lon="4.68243">
        <ele>203</ele>
        <time>2017-05-05T10:44:33Z</time>
      </trkpt>
      <trkpt lat="45.85511" lon="4.68253">
        <ele>203</ele>
        <time>2017-05-05T10:44:34Z</time>
      </trkpt>
      <trkpt lat="45.85512" lon="4.68262">
        <ele>203</ele>
        <time>2017-05-05T10:44:35Z</time>
      </trkpt>
      <trkpt lat="45.85513" lon="4.68272">
        <ele>202</ele>
        <time>2017-05-05T10:44:36Z</time>
      </trkpt>
      <trkpt lat="45.85515" lon="4.68281">
        <ele>202</ele>
        <time>2017-05-05T10:44:37Z</time>
      </trkpt>
      <trkpt lat="45.85516" lon="4.6829">
        <ele>202</ele>
        <time>2017-05-05T10:44:38Z</time>
      </trkpt>
      <trkpt lat="45.85517" lon="4.683">
        <ele>202</ele>
        <time>2017-05-05T10:44:39Z</time>
      </trkpt>
      <trkpt lat="45.85518" lon="4.68309">
        <ele>202</ele>
        <time>2017-05-05T10:44:40Z</time>
      </trkpt>
      <trkpt lat="45.85518" lon="4.68318">
        <ele>202</ele>
        <time>2017-05-05T10:44:41Z</time>
      </trkpt>
      <trkpt lat="45.8552" lon="4.68327">
        <ele>202</ele>
        <time>2017-05-05T10:44:42Z</time>
      </trkpt>
      <trkpt lat="45.85521" lon="4.68336">
        <ele>201</ele>
        <time>2017-05-05T10:44:43Z</time>
      </trkpt>
      <trkpt lat="45.85523" lon="4.68344">
        <ele>201</ele>
        <time>2017-05-05T10:44:44Z</time>
      </trkpt>
      <trkpt lat="45.85525" lon="4.68353">
        <ele>201</ele>
        <time>2017-05-05T10:44:45Z</time>
      </trkpt>
      <trkpt lat="45.85525" lon="4.68362">
        <ele>201</ele>
        <time>2017-05-05T10:44:46Z</time>
      </trkpt>
      <trkpt lat="45.85526" lon="4.6837">
        <ele>201</ele>
        <time>2017-05-05T10:44:47Z</time>
      </trkpt>
      <trkpt lat="45.85526" lon="4.68379">
        <ele>201</ele>
        <time>2017-05-05T10:44:48Z</time>
      </trkpt>
      <trkpt lat="45.85526" lon="4.68388">
        <ele>200</ele>
        <time>2017-05-05T10:44:49Z</time>
      </trkpt>
      <trkpt lat="45.85526" lon="4.68397">
        <ele>200</ele>
        <time>2017-05-05T10:44:50Z</time>
      </trkpt>
      <trkpt lat="45.85526" lon="4.68405">
        <ele>200</ele>
        <time>2017-05-05T10:44:51Z</time>
      </trkpt>
      <trkpt lat="45.85527" lon="4.68414">
        <ele>200</ele>
        <time>2017-05-05T10:44:52Z</time>
      </trkpt>
      <trkpt lat="45.85527" lon="4.68423">
        <ele>200</ele>
        <time>2017-05-05T10:44:53Z</time>
      </trkpt>
      <trkpt lat="45.85527" lon="4.68432">
        <ele>200</ele>
        <time>2017-05-05T10:44:54Z</time>
      </trkpt>
      <trkpt lat="45.85528" lon="4.6844">
        <ele>200</ele>
        <time>2017-05-05T10:44:55Z</time>
      </trkpt>
      <trkpt lat="45.85529" lon="4.68448">
        <ele>200</ele>
        <time>2017-05-05T10:44:56Z</time>
      </trkpt>
      <trkpt lat="45.85529" lon="4.68457">
        <ele>200</ele>
        <time>2017-05-05T10:44:57Z</time>
      </trkpt>
      <trkpt lat="45.8553" lon="4.68466">
        <ele>200</ele>
        <time>2017-05-05T10:44:58Z</time>
      </trkpt>
      <trkpt lat="45.8553" lon="4.68475">
        <ele>200</ele>
        <time>2017-05-05T10:44:59Z</time>
      </trkpt>
      <trkpt lat="45.85531" lon="4.68484">
        <ele>200</ele>
        <time>2017-05-05T10:45:00Z</time>
      </trkpt>
      <trkpt lat="45.85531" lon="4.68493">
        <ele>200</ele>
        <time>2017-05-05T10:45:01Z</time>
      </trkpt>
      <trkpt lat="45.85532" lon="4.68503">
        <ele>201</ele>
        <time>2017-05-05T10:45:02Z</time>
      </trkpt>
      <trkpt lat="45.85533" lon="4.68512">
        <ele>201</ele>
        <time>2017-05-05T10:45:03Z</time>
      </trkpt>
      <trkpt lat="45.85534" lon="4.68521">
        <ele>201</ele>
        <time>2017-05-05T10:45:04Z</time>
      </trkpt>
      <trkpt lat="45.85535" lon="4.6853">
        <ele>201</ele>
        <time>2017-05-05T10:45:05Z</time>
      </trkpt>
      <trkpt lat="45.85535" lon="4.6854">
        <ele>201</ele>
        <time>2017-05-05T10:45:06Z</time>
      </trkpt>
      <trkpt lat="45.85536" lon="4.68549">
        <ele>201</ele>
        <time>2017-05-05T10:45:07Z</time>
      </trkpt>
      <trkpt lat="45.85537" lon="4.68559">
        <ele>201</ele>
        <time>2017-05-05T10:45:08Z</time>
      </trkpt>
      <trkpt lat="45.85538" lon="4.68568">
        <ele>201</ele>
        <time>2017-05-05T10:45:09Z</time>
      </trkpt>
      <trkpt lat="45.85539" lon="4.68577">
        <ele>201</ele>
        <time>2017-05-05T10:45:10Z</time>
      </trkpt>
      <trkpt lat="45.85539" lon="4.68586">
        <ele>201</ele>
        <time>2017-05-05T10:45:11Z</time>
      </trkpt>
      <trkpt lat="45.8554" lon="4.68595">
        <ele>201</ele>
        <time>2017-05-05T10:45:12Z</time>
      </trkpt>
      <trkpt lat="45.8554" lon="4.68603">
        <ele>201</ele>
        <time>2017-05-05T10:45:13Z</time>
      </trkpt>
      <trkpt lat="45.85541" lon="4.68612">
        <ele>201</ele>
        <time>2017-05-05T10:45:14Z</time>
      </trkpt>
      <trkpt lat="45.85542" lon="4.6862">
        <ele>201</ele>
        <time>2017-05-05T10:45:15Z</time>
      </trkpt>
      <trkpt lat="45.85542" lon="4.68629">
        <ele>201</ele>
        <time>2017-05-05T10:45:16Z</time>
      </trkpt>
      <trkpt lat="45.85543" lon="4.68638">
        <ele>201</ele>
        <time>2017-05-05T10:45:17Z</time>
      </trkpt>
      <trkpt lat="45.85544" lon="4.68647">
        <ele>201</ele>
        <time>2017-05-05T10:45:18Z</time>
      </trkpt>
      <trkpt lat="45.85545" lon="4.68656">
        <ele>201</ele>
        <time>2017-05-05T10:45:19Z</time>
      </trkpt>
      <trkpt lat="45.85545" lon="4.68665">
        <ele>200</ele>
        <time>2017-05-05T10:45:20Z</time>
      </trkpt>
      <trkpt lat="45.85546" lon="4.68674">
        <ele>200</ele>
        <time>2017-05-05T10:45:21Z</time>
      </trkpt>
      <trkpt lat="45.85547" lon="4.68684">
        <ele>200</ele>
        <time>2017-05-05T10:45:22Z</time>
      </trkpt>
      <trkpt lat="45.85548" lon="4.68693">
        <ele>200</ele>
        <time>2017-05-05T10:45:23Z</time>
      </trkpt>
      <trkpt lat="45.85549" lon="4.68704">
        <ele>200</ele>
        <time>2017-05-05T10:45:24Z</time>
      </trkpt>
      <trkpt lat="45.8555" lon="4.68714">
        <ele>200</ele>
        <time>2017-05-05T10:45:25Z</time>
      </trkpt>
      <trkpt lat="45.85551" lon="4.68724">
        <ele>200</ele>
        <time>2017-05-05T10:45:26Z</time>
      </trkpt>
      <trkpt lat="45.85552" lon="4.68735">
        <ele>200</ele>
        <time>2017-05-05T10:45:27Z</time>
      </trkpt>
      <trkpt lat="45.85552" lon="4.68745">
        <ele>200</ele>
        <time>2017-05-05T10:45:28Z</time>
      </trkpt>
      <trkpt lat="45.85554" lon="4.68755">
        <ele>200</ele>
        <time>2017-05-05T10:45:29Z</time>
      </trkpt>
      <trkpt lat="45.85555" lon="4.68765">
        <ele>200</ele>
        <time>2017-05-05T10:45:30Z</time>
      </trkpt>
      <trkpt lat="45.85556" lon="4.68775">
        <ele>200</ele>
        <time>2017-05-05T10:45:31Z</time>
      </trkpt>
      <trkpt lat="45.85556" lon="4.68784">
        <ele>200</ele>
        <time>2017-05-05T10:45:32Z</time>
      </trkpt>
      <trkpt lat="45.85557" lon="4.68793">
        <ele>200</ele>
        <time>2017-05-05T10:45:33Z</time>
      </trkpt>
      <trkpt lat="45.85558" lon="4.68802">
        <ele>200</ele>
        <time>2017-05-05T10:45:34Z</time>
      </trkpt>
      <trkpt lat="45.85559" lon="4.68811">
        <ele>200</ele>
        <time>2017-05-05T10:45:35Z</time>
      </trkpt>
      <trkpt lat="45.8556" lon="4.68819">
        <ele>200</ele>
        <time>2017-05-05T10:45:36Z</time>
      </trkpt>
      <trkpt lat="45.8556" lon="4.68828">
        <ele>200</ele>
        <time>2017-05-05T10:45:37Z</time>
      </trkpt>
      <trkpt lat="45.85561" lon="4.68836">
        <ele>200</ele>
        <time>2017-05-05T10:45:38Z</time>
      </trkpt>
      <trkpt lat="45.85562" lon="4.68845">
        <ele>200</ele>
        <time>2017-05-05T10:45:39Z</time>
      </trkpt>
      <trkpt lat="45.85563" lon="4.68853">
        <ele>200</ele>
        <time>2017-05-05T10:45:40Z</time>
      </trkpt>
      <trkpt lat="45.85564" lon="4.68862">
        <ele>200</ele>
        <time>2017-05-05T10:45:41Z</time>
      </trkpt>
      <trkpt lat="45.85565" lon="4.68872">
        <ele>200</ele>
        <time>2017-05-05T10:45:42Z</time>
      </trkpt>
      <trkpt lat="45.85566" lon="4.68881">
        <ele>200</ele>
        <time>2017-05-05T10:45:43Z</time>
      </trkpt>
      <trkpt lat="45.85566" lon="4.68891">
        <ele>200</ele>
        <time>2017-05-05T10:45:44Z</time>
      </trkpt>
      <trkpt lat="45.85567" lon="4.68901">
        <ele>200</ele>
        <time>2017-05-05T10:45:45Z</time>
      </trkpt>
      <trkpt lat="45.85568" lon="4.68911">
        <ele>200</ele>
        <time>2017-05-05T10:45:46Z</time>
      </trkpt>
      <trkpt lat="45.8557" lon="4.6892">
        <ele>200</ele>
        <time>2017-05-05T10:45:47Z</time>
      </trkpt>
      <trkpt lat="45.85571" lon="4.68929">
        <ele>200</ele>
        <time>2017-05-05T10:45:48Z</time>
      </trkpt>
      <trkpt lat="45.85571" lon="4.68937">
        <ele>200</ele>
        <time>2017-05-05T10:45:49Z</time>
      </trkpt>
      <trkpt lat="45.85572" lon="4.68945">
        <ele>200</ele>
        <time>2017-05-05T10:45:50Z</time>
      </trkpt>
      <trkpt lat="45.85573" lon="4.68954">
        <ele>200</ele>
        <time>2017-05-05T10:45:51Z</time>
      </trkpt>
      <trkpt lat="45.85573" lon="4.68962">
        <ele>200</ele>
        <time>2017-05-05T10:45:52Z</time>
      </trkpt>
      <trkpt lat="45.85574" lon="4.6897">
        <ele>200</ele>
        <time>2017-05-05T10:45:53Z</time>
      </trkpt>
      <trkpt lat="45.85575" lon="4.68979">
        <ele>200</ele>
        <time>2017-05-05T10:45:54Z</time>
      </trkpt>
      <trkpt lat="45.85575" lon="4.68987">
        <ele>200</ele>
        <time>2017-05-05T10:45:55Z</time>
      </trkpt>
      <trkpt lat="45.85576" lon="4.68996">
        <ele>200</ele>
        <time>2017-05-05T10:45:56Z</time>
      </trkpt>
      <trkpt lat="45.85577" lon="4.69005">
        <ele>200</ele>
        <time>2017-05-05T10:45:57Z</time>
      </trkpt>
      <trkpt lat="45.85578" lon="4.69014">
        <ele>200</ele>
        <time>2017-05-05T10:45:58Z</time>
      </trkpt>
      <trkpt lat="45.85579" lon="4.69022">
        <ele>200</ele>
        <time>2017-05-05T10:45:59Z</time>
      </trkpt>
      <trkpt lat="45.8558" lon="4.6903">
        <ele>200</ele>
        <time>2017-05-05T10:46:00Z</time>
      </trkpt>
      <trkpt lat="45.8558" lon="4.69038">
        <ele>200</ele>
        <time>2017-05-05T10:46:01Z</time>
      </trkpt>
      <trkpt lat="45.85581" lon="4.69046">
        <ele>199</ele>
        <time>2017-05-05T10:46:02Z</time>
      </trkpt>
      <trkpt lat="45.85581" lon="4.69054">
        <ele>199</ele>
        <time>2017-05-05T10:46:03Z</time>
      </trkpt>
      <trkpt lat="45.85582" lon="4.69061">
        <ele>199</ele>
        <time>2017-05-05T10:46:04Z</time>
      </trkpt>
      <trkpt lat="45.85583" lon="4.69069">
        <ele>199</ele>
        <time>2017-05-05T10:46:05Z</time>
      </trkpt>
      <trkpt lat="45.85583" lon="4.69076">
        <ele>199</ele>
        <time>2017-05-05T10:46:06Z</time>
      </trkpt>
      <trkpt lat="45.85584" lon="4.69083">
        <ele>199</ele>
        <time>2017-05-05T10:46:07Z</time>
      </trkpt>
      <trkpt lat="45.85585" lon="4.69089">
        <ele>199</ele>
        <time>2017-05-05T10:46:08Z</time>
      </trkpt>
      <trkpt lat="45.85585" lon="4.69096">
        <ele>199</ele>
        <time>2017-05-05T10:46:09Z</time>
      </trkpt>
      <trkpt lat="45.85585" lon="4.69103">
        <ele>199</ele>
        <time>2017-05-05T10:46:10Z</time>
      </trkpt>
      <trkpt lat="45.85585" lon="4.6911">
        <ele>199</ele>
        <time>2017-05-05T10:46:11Z</time>
      </trkpt>
      <trkpt lat="45.85585" lon="4.69117">
        <ele>199</ele>
        <time>2017-05-05T10:46:12Z</time>
      </trkpt>
      <trkpt lat="45.85585" lon="4.69124">
        <ele>199</ele>
        <time>2017-05-05T10:46:13Z</time>
      </trkpt>
      <trkpt lat="45.85585" lon="4.69131">
        <ele>199</ele>
        <time>2017-05-05T10:46:14Z</time>
      </trkpt>
      <trkpt lat="45.85586" lon="4.69138">
        <ele>199</ele>
        <time>2017-05-05T10:46:15Z</time>
      </trkpt>
      <trkpt lat="45.85587" lon="4.69145">
        <ele>199</ele>
        <time>2017-05-05T10:46:16Z</time>
      </trkpt>
      <trkpt lat="45.85587" lon="4.69152">
        <ele>199</ele>
        <time>2017-05-05T10:46:17Z</time>
      </trkpt>
      <trkpt lat="45.85588" lon="4.6916">
        <ele>199</ele>
        <time>2017-05-05T10:46:18Z</time>
      </trkpt>
      <trkpt lat="45.85589" lon="4.69167">
        <ele>199</ele>
        <time>2017-05-05T10:46:19Z</time>
      </trkpt>
      <trkpt lat="45.8559" lon="4.69174">
        <ele>199</ele>
        <time>2017-05-05T10:46:20Z</time>
      </trkpt>
      <trkpt lat="45.85591" lon="4.69182">
        <ele>199</ele>
        <time>2017-05-05T10:46:21Z</time>
      </trkpt>
      <trkpt lat="45.85591" lon="4.6919">
        <ele>199</ele>
        <time>2017-05-05T10:46:22Z</time>
      </trkpt>
      <trkpt lat="45.85592" lon="4.69198">
        <ele>199</ele>
        <time>2017-05-05T10:46:23Z</time>
      </trkpt>
      <trkpt lat="45.85593" lon="4.69206">
        <ele>199</ele>
        <time>2017-05-05T10:46:24Z</time>
      </trkpt>
      <trkpt lat="45.85594" lon="4.69214">
        <ele>199</ele>
        <time>2017-05-05T10:46:25Z</time>
      </trkpt>
      <trkpt lat="45.85594" lon="4.69222">
        <ele>199</ele>
        <time>2017-05-05T10:46:26Z</time>
      </trkpt>
      <trkpt lat="45.85595" lon="4.6923">
        <ele>199</ele>
        <time>2017-05-05T10:46:27Z</time>
      </trkpt>
      <trkpt lat="45.85595" lon="4.69238">
        <ele>199</ele>
        <time>2017-05-05T10:46:28Z</time>
      </trkpt>
      <trkpt lat="45.85594" lon="4.69246">
        <ele>199</ele>
        <time>2017-05-05T10:46:29Z</time>
      </trkpt>
      <trkpt lat="45.85593" lon="4.69254">
        <ele>199</ele>
        <time>2017-05-05T10:46:30Z</time>
      </trkpt>
      <trkpt lat="45.85592" lon="4.69262">
        <ele>199</ele>
        <time>2017-05-05T10:46:31Z</time>
      </trkpt>
      <trkpt lat="45.85593" lon="4.6927">
        <ele>198</ele>
        <time>2017-05-05T10:46:32Z</time>
      </trkpt>
      <trkpt lat="45.85594" lon="4.69277">
        <ele>198</ele>
        <time>2017-05-05T10:46:33Z</time>
      </trkpt>
      <trkpt lat="45.85596" lon="4.69284">
        <ele>198</ele>
        <time>2017-05-05T10:46:34Z</time>
      </trkpt>
      <trkpt lat="45.85598" lon="4.69291">
        <ele>198</ele>
        <time>2017-05-05T10:46:35Z</time>
      </trkpt>
      <trkpt lat="45.856" lon="4.69297">
        <ele>198</ele>
        <time>2017-05-05T10:46:36Z</time>
      </trkpt>
      <trkpt lat="45.85602" lon="4.69305">
        <ele>198</ele>
        <time>2017-05-05T10:46:37Z</time>
      </trkpt>
      <trkpt lat="45.85603" lon="4.69312">
        <ele>198</ele>
        <time>2017-05-05T10:46:38Z</time>
      </trkpt>
      <trkpt lat="45.85603" lon="4.69319">
        <ele>198</ele>
        <time>2017-05-05T10:46:39Z</time>
      </trkpt>
      <trkpt lat="45.85604" lon="4.69325">
        <ele>198</ele>
        <time>2017-05-05T10:46:40Z</time>
      </trkpt>
      <trkpt lat="45.85605" lon="4.69337">
        <ele>198</ele>
        <time>2017-05-05T10:46:43Z</time>
      </trkpt>
      <trkpt lat="45.85606" lon="4.69339">
        <ele>198</ele>
        <time>2017-05-05T10:46:44Z</time>
      </trkpt>
      <trkpt lat="45.85609" lon="4.6935">
        <ele>198</ele>
        <time>2017-05-05T10:47:26Z</time>
      </trkpt>
      <trkpt lat="45.85609" lon="4.69353">
        <ele>198</ele>
        <time>2017-05-05T10:47:27Z</time>
      </trkpt>
      <trkpt lat="45.85611" lon="4.69366">
        <ele>198</ele>
        <time>2017-05-05T10:47:30Z</time>
      </trkpt>
      <trkpt lat="45.85612" lon="4.69371">
        <ele>198</ele>
        <time>2017-05-05T10:47:31Z</time>
      </trkpt>
      <trkpt lat="45.85613" lon="4.69377">
        <ele>198</ele>
        <time>2017-05-05T10:47:32Z</time>
      </trkpt>
      <trkpt lat="45.85613" lon="4.69384">
        <ele>198</ele>
        <time>2017-05-05T10:47:33Z</time>
      </trkpt>
      <trkpt lat="45.85614" lon="4.69391">
        <ele>198</ele>
        <time>2017-05-05T10:47:34Z</time>
      </trkpt>
      <trkpt lat="45.85615" lon="4.69398">
        <ele>198</ele>
        <time>2017-05-05T10:47:35Z</time>
      </trkpt>
      <trkpt lat="45.85616" lon="4.69406">
        <ele>198</ele>
        <time>2017-05-05T10:47:36Z</time>
      </trkpt>
      <trkpt lat="45.85616" lon="4.69414">
        <ele>198</ele>
        <time>2017-05-05T10:47:37Z</time>
      </trkpt>
      <trkpt lat="45.85617" lon="4.69422">
        <ele>198</ele>
        <time>2017-05-05T10:47:38Z</time>
      </trkpt>
      <trkpt lat="45.85618" lon="4.69431">
        <ele>198</ele>
        <time>2017-05-05T10:47:39Z</time>
      </trkpt>
      <trkpt lat="45.85619" lon="4.6944">
        <ele>198</ele>
        <time>2017-05-05T10:47:40Z</time>
      </trkpt>
      <trkpt lat="45.8562" lon="4.69449">
        <ele>198</ele>
        <time>2017-05-05T10:47:41Z</time>
      </trkpt>
      <trkpt lat="45.8562" lon="4.69458">
        <ele>198</ele>
        <time>2017-05-05T10:47:42Z</time>
      </trkpt>
      <trkpt lat="45.85621" lon="4.69466">
        <ele>198</ele>
        <time>2017-05-05T10:47:43Z</time>
      </trkpt>
      <trkpt lat="45.85622" lon="4.69474">
        <ele>198</ele>
        <time>2017-05-05T10:47:44Z</time>
      </trkpt>
      <trkpt lat="45.85623" lon="4.69483">
        <ele>198</ele>
        <time>2017-05-05T10:47:45Z</time>
      </trkpt>
      <trkpt lat="45.85623" lon="4.69491">
        <ele>198</ele>
        <time>2017-05-05T10:47:46Z</time>
      </trkpt>
      <trkpt lat="45.85624" lon="4.69499">
        <ele>198</ele>
        <time>2017-05-05T10:47:47Z</time>
      </trkpt>
      <trkpt lat="45.85625" lon="4.69507">
        <ele>198</ele>
        <time>2017-05-05T10:47:48Z</time>
      </trkpt>
      <trkpt lat="45.85625" lon="4.69515">
        <ele>198</ele>
        <time>2017-05-05T10:47:49Z</time>
      </trkpt>
      <trkpt lat="45.85626" lon="4.69522">
        <ele>198</ele>
        <time>2017-05-05T10:47:50Z</time>
      </trkpt>
      <trkpt lat="45.85627" lon="4.6953">
        <ele>198</ele>
        <time>2017-05-05T10:47:51Z</time>
      </trkpt>
      <trkpt lat="45.85628" lon="4.69538">
        <ele>198</ele>
        <time>2017-05-05T10:47:52Z</time>
      </trkpt>
      <trkpt lat="45.85628" lon="4.69546">
        <ele>198</ele>
        <time>2017-05-05T10:47:53Z</time>
      </trkpt>
      <trkpt lat="45.85629" lon="4.69555">
        <ele>198</ele>
        <time>2017-05-05T10:47:54Z</time>
      </trkpt>
      <trkpt lat="45.8563" lon="4.69563">
        <ele>198</ele>
        <time>2017-05-05T10:47:55Z</time>
      </trkpt>
      <trkpt lat="45.85631" lon="4.69572">
        <ele>198</ele>
        <time>2017-05-05T10:47:56Z</time>
      </trkpt>
      <trkpt lat="45.85632" lon="4.6958">
        <ele>198</ele>
        <time>2017-05-05T10:47:57Z</time>
      </trkpt>
      <trkpt lat="45.85633" lon="4.69588">
        <ele>197</ele>
        <time>2017-05-05T10:47:58Z</time>
      </trkpt>
      <trkpt lat="45.85634" lon="4.69596">
        <ele>197</ele>
        <time>2017-05-05T10:47:59Z</time>
      </trkpt>
      <trkpt lat="45.85634" lon="4.69604">
        <ele>197</ele>
        <time>2017-05-05T10:48:00Z</time>
      </trkpt>
      <trkpt lat="45.85635" lon="4.69612">
        <ele>197</ele>
        <time>2017-05-05T10:48:01Z</time>
      </trkpt>
      <trkpt lat="45.85635" lon="4.6962">
        <ele>197</ele>
        <time>2017-05-05T10:48:02Z</time>
      </trkpt>
      <trkpt lat="45.85636" lon="4.69628">
        <ele>197</ele>
        <time>2017-05-05T10:48:03Z</time>
      </trkpt>
      <trkpt lat="45.85637" lon="4.69636">
        <ele>197</ele>
        <time>2017-05-05T10:48:04Z</time>
      </trkpt>
      <trkpt lat="45.85637" lon="4.69643">
        <ele>197</ele>
        <time>2017-05-05T10:48:05Z</time>
      </trkpt>
      <trkpt lat="45.85638" lon="4.69651">
        <ele>197</ele>
        <time>2017-05-05T10:48:06Z</time>
      </trkpt>
      <trkpt lat="45.85638" lon="4.69659">
        <ele>197</ele>
        <time>2017-05-05T10:48:07Z</time>
      </trkpt>
      <trkpt lat="45.85639" lon="4.69666">
        <ele>197</ele>
        <time>2017-05-05T10:48:08Z</time>
      </trkpt>
      <trkpt lat="45.8564" lon="4.69674">
        <ele>196</ele>
        <time>2017-05-05T10:48:09Z</time>
      </trkpt>
      <trkpt lat="45.85641" lon="4.69682">
        <ele>196</ele>
        <time>2017-05-05T10:48:10Z</time>
      </trkpt>
      <trkpt lat="45.85641" lon="4.69691">
        <ele>196</ele>
        <time>2017-05-05T10:48:11Z</time>
      </trkpt>
      <trkpt lat="45.85642" lon="4.697">
        <ele>196</ele>
        <time>2017-05-05T10:48:12Z</time>
      </trkpt>
      <trkpt lat="45.85643" lon="4.69709">
        <ele>196</ele>
        <time>2017-05-05T10:48:13Z</time>
      </trkpt>
      <trkpt lat="45.85644" lon="4.69718">
        <ele>196</ele>
        <time>2017-05-05T10:48:14Z</time>
      </trkpt>
      <trkpt lat="45.85644" lon="4.69727">
        <ele>196</ele>
        <time>2017-05-05T10:48:15Z</time>
      </trkpt>
      <trkpt lat="45.85645" lon="4.69737">
        <ele>195</ele>
        <time>2017-05-05T10:48:16Z</time>
      </trkpt>
      <trkpt lat="45.85646" lon="4.69746">
        <ele>195</ele>
        <time>2017-05-05T10:48:17Z</time>
      </trkpt>
      <trkpt lat="45.85648" lon="4.69755">
        <ele>195</ele>
        <time>2017-05-05T10:48:18Z</time>
      </trkpt>
      <trkpt lat="45.85648" lon="4.69765">
        <ele>195</ele>
        <time>2017-05-05T10:48:19Z</time>
      </trkpt>
      <trkpt lat="45.85649" lon="4.69774">
        <ele>195</ele>
        <time>2017-05-05T10:48:20Z</time>
      </trkpt>
      <trkpt lat="45.8565" lon="4.69784">
        <ele>195</ele>
        <time>2017-05-05T10:48:21Z</time>
      </trkpt>
      <trkpt lat="45.85651" lon="4.69793">
        <ele>195</ele>
        <time>2017-05-05T10:48:22Z</time>
      </trkpt>
      <trkpt lat="45.85652" lon="4.69802">
        <ele>195</ele>
        <time>2017-05-05T10:48:23Z</time>
      </trkpt>
      <trkpt lat="45.85653" lon="4.69811">
        <ele>195</ele>
        <time>2017-05-05T10:48:24Z</time>
      </trkpt>
      <trkpt lat="45.85654" lon="4.69819">
        <ele>195</ele>
        <time>2017-05-05T10:48:25Z</time>
      </trkpt>
      <trkpt lat="45.85655" lon="4.69828">
        <ele>195</ele>
        <time>2017-05-05T10:48:26Z</time>
      </trkpt>
      <trkpt lat="45.85656" lon="4.69836">
        <ele>195</ele>
        <time>2017-05-05T10:48:27Z</time>
      </trkpt>
      <trkpt lat="45.85657" lon="4.69845">
        <ele>195</ele>
        <time>2017-05-05T10:48:28Z</time>
      </trkpt>
      <trkpt lat="45.85658" lon="4.69853">
        <ele>195</ele>
        <time>2017-05-05T10:48:29Z</time>
      </trkpt>
      <trkpt lat="45.85658" lon="4.69861">
        <ele>195</ele>
        <time>2017-05-05T10:48:30Z</time>
      </trkpt>
      <trkpt lat="45.85659" lon="4.69869">
        <ele>195</ele>
        <time>2017-05-05T10:48:31Z</time>
      </trkpt>
      <trkpt lat="45.8566" lon="4.69878">
        <ele>195</ele>
        <time>2017-05-05T10:48:32Z</time>
      </trkpt>
      <trkpt lat="45.8566" lon="4.69886">
        <ele>195</ele>
        <time>2017-05-05T10:48:33Z</time>
      </trkpt>
      <trkpt lat="45.85661" lon="4.69894">
        <ele>195</ele>
        <time>2017-05-05T10:48:34Z</time>
      </trkpt>
      <trkpt lat="45.85663" lon="4.69902">
        <ele>195</ele>
        <time>2017-05-05T10:48:35Z</time>
      </trkpt>
      <trkpt lat="45.85664" lon="4.6991">
        <ele>195</ele>
        <time>2017-05-05T10:48:36Z</time>
      </trkpt>
      <trkpt lat="45.85665" lon="4.69918">
        <ele>195</ele>
        <time>2017-05-05T10:48:37Z</time>
      </trkpt>
      <trkpt lat="45.85667" lon="4.69925">
        <ele>195</ele>
        <time>2017-05-05T10:48:38Z</time>
      </trkpt>
      <trkpt lat="45.85669" lon="4.69933">
        <ele>195</ele>
        <time>2017-05-05T10:48:39Z</time>
      </trkpt>
      <trkpt lat="45.85671" lon="4.69941">
        <ele>195</ele>
        <time>2017-05-05T10:48:40Z</time>
      </trkpt>
      <trkpt lat="45.85673" lon="4.69949">
        <ele>195</ele>
        <time>2017-05-05T10:48:41Z</time>
      </trkpt>
      <trkpt lat="45.85675" lon="4.69956">
        <ele>195</ele>
        <time>2017-05-05T10:48:42Z</time>
      </trkpt>
      <trkpt lat="45.85678" lon="4.69965">
        <ele>195</ele>
        <time>2017-05-05T10:48:43Z</time>
      </trkpt>
      <trkpt lat="45.8568" lon="4.69973">
        <ele>195</ele>
        <time>2017-05-05T10:48:44Z</time>
      </trkpt>
      <trkpt lat="45.85682" lon="4.69981">
        <ele>195</ele>
        <time>2017-05-05T10:48:45Z</time>
      </trkpt>
      <trkpt lat="45.85683" lon="4.6999">
        <ele>195</ele>
        <time>2017-05-05T10:48:46Z</time>
      </trkpt>
      <trkpt lat="45.85684" lon="4.69998">
        <ele>195</ele>
        <time>2017-05-05T10:48:47Z</time>
      </trkpt>
      <trkpt lat="45.85685" lon="4.70007">
        <ele>195</ele>
        <time>2017-05-05T10:48:48Z</time>
      </trkpt>
      <trkpt lat="45.85685" lon="4.70016">
        <ele>195</ele>
        <time>2017-05-05T10:48:49Z</time>
      </trkpt>
      <trkpt lat="45.85684" lon="4.70025">
        <ele>195</ele>
        <time>2017-05-05T10:48:50Z</time>
      </trkpt>
      <trkpt lat="45.85683" lon="4.70034">
        <ele>195</ele>
        <time>2017-05-05T10:48:51Z</time>
      </trkpt>
      <trkpt lat="45.85681" lon="4.70042">
        <ele>195</ele>
        <time>2017-05-05T10:48:52Z</time>
      </trkpt>
      <trkpt lat="45.8568" lon="4.7005">
        <ele>195</ele>
        <time>2017-05-05T10:48:53Z</time>
      </trkpt>
      <trkpt lat="45.85678" lon="4.70058">
        <ele>195</ele>
        <time>2017-05-05T10:48:54Z</time>
      </trkpt>
      <trkpt lat="45.85677" lon="4.70066">
        <ele>196</ele>
        <time>2017-05-05T10:48:55Z</time>
      </trkpt>
      <trkpt lat="45.85675" lon="4.70073">
        <ele>196</ele>
        <time>2017-05-05T10:48:56Z</time>
      </trkpt>
      <trkpt lat="45.85674" lon="4.70079">
        <ele>196</ele>
        <time>2017-05-05T10:48:57Z</time>
      </trkpt>
      <trkpt lat="45.85672" lon="4.70086">
        <ele>196</ele>
        <time>2017-05-05T10:48:58Z</time>
      </trkpt>
      <trkpt lat="45.85671" lon="4.70094">
        <ele>196</ele>
        <time>2017-05-05T10:48:59Z</time>
      </trkpt>
      <trkpt lat="45.85671" lon="4.70101">
        <ele>196</ele>
        <time>2017-05-05T10:49:00Z</time>
      </trkpt>
      <trkpt lat="45.8567" lon="4.70109">
        <ele>196</ele>
        <time>2017-05-05T10:49:01Z</time>
      </trkpt>
      <trkpt lat="45.8567" lon="4.70118">
        <ele>197</ele>
        <time>2017-05-05T10:49:02Z</time>
      </trkpt>
      <trkpt lat="45.85671" lon="4.70127">
        <ele>197</ele>
        <time>2017-05-05T10:49:03Z</time>
      </trkpt>
      <trkpt lat="45.85671" lon="4.70136">
        <ele>197</ele>
        <time>2017-05-05T10:49:04Z</time>
      </trkpt>
      <trkpt lat="45.85672" lon="4.70145">
        <ele>197</ele>
        <time>2017-05-05T10:49:05Z</time>
      </trkpt>
      <trkpt lat="45.85673" lon="4.70153">
        <ele>197</ele>
        <time>2017-05-05T10:49:06Z</time>
      </trkpt>
      <trkpt lat="45.85675" lon="4.70163">
        <ele>197</ele>
        <time>2017-05-05T10:49:07Z</time>
      </trkpt>
      <trkpt lat="45.85677" lon="4.70172">
        <ele>197</ele>
        <time>2017-05-05T10:49:08Z</time>
      </trkpt>
      <trkpt lat="45.85679" lon="4.70181">
        <ele>197</ele>
        <time>2017-05-05T10:49:09Z</time>
      </trkpt>
      <trkpt lat="45.85681" lon="4.7019">
        <ele>197</ele>
        <time>2017-05-05T10:49:10Z</time>
      </trkpt>
      <trkpt lat="45.85684" lon="4.70199">
        <ele>197</ele>
        <time>2017-05-05T10:49:11Z</time>
      </trkpt>
      <trkpt lat="45.85686" lon="4.70208">
        <ele>197</ele>
        <time>2017-05-05T10:49:12Z</time>
      </trkpt>
      <trkpt lat="45.85687" lon="4.70217">
        <ele>197</ele>
        <time>2017-05-05T10:49:13Z</time>
      </trkpt>
      <trkpt lat="45.85689" lon="4.70225">
        <ele>197</ele>
        <time>2017-05-05T10:49:14Z</time>
      </trkpt>
      <trkpt lat="45.8569" lon="4.70233">
        <ele>197</ele>
        <time>2017-05-05T10:49:15Z</time>
      </trkpt>
      <trkpt lat="45.85691" lon="4.70241">
        <ele>197</ele>
        <time>2017-05-05T10:49:16Z</time>
      </trkpt>
      <trkpt lat="45.85692" lon="4.70249">
        <ele>197</ele>
        <time>2017-05-05T10:49:17Z</time>
      </trkpt>
      <trkpt lat="45.85693" lon="4.70257">
        <ele>197</ele>
        <time>2017-05-05T10:49:18Z</time>
      </trkpt>
      <trkpt lat="45.85694" lon="4.70264">
        <ele>197</ele>
        <time>2017-05-05T10:49:19Z</time>
      </trkpt>
      <trkpt lat="45.85695" lon="4.70272">
        <ele>197</ele>
        <time>2017-05-05T10:49:20Z</time>
      </trkpt>
      <trkpt lat="45.85696" lon="4.7028">
        <ele>197</ele>
        <time>2017-05-05T10:49:21Z</time>
      </trkpt>
      <trkpt lat="45.85697" lon="4.70288">
        <ele>197</ele>
        <time>2017-05-05T10:49:22Z</time>
      </trkpt>
      <trkpt lat="45.85697" lon="4.70297">
        <ele>197</ele>
        <time>2017-05-05T10:49:23Z</time>
      </trkpt>
      <trkpt lat="45.85698" lon="4.70305">
        <ele>197</ele>
        <time>2017-05-05T10:49:24Z</time>
      </trkpt>
      <trkpt lat="45.85699" lon="4.70313">
        <ele>197</ele>
        <time>2017-05-05T10:49:25Z</time>
      </trkpt>
      <trkpt lat="45.857" lon="4.70322">
        <ele>197</ele>
        <time>2017-05-05T10:49:26Z</time>
      </trkpt>
      <trkpt lat="45.85701" lon="4.7033">
        <ele>197</ele>
        <time>2017-05-05T10:49:27Z</time>
      </trkpt>
      <trkpt lat="45.85702" lon="4.70339">
        <ele>196</ele>
        <time>2017-05-05T10:49:28Z</time>
      </trkpt>
      <trkpt lat="45.85703" lon="4.70347">
        <ele>196</ele>
        <time>2017-05-05T10:49:29Z</time>
      </trkpt>
      <trkpt lat="45.85704" lon="4.70356">
        <ele>196</ele>
        <time>2017-05-05T10:49:30Z</time>
      </trkpt>
      <trkpt lat="45.85705" lon="4.70365">
        <ele>196</ele>
        <time>2017-05-05T10:49:31Z</time>
      </trkpt>
      <trkpt lat="45.85706" lon="4.70373">
        <ele>196</ele>
        <time>2017-05-05T10:49:32Z</time>
      </trkpt>
      <trkpt lat="45.85707" lon="4.70382">
        <ele>196</ele>
        <time>2017-05-05T10:49:33Z</time>
      </trkpt>
      <trkpt lat="45.85708" lon="4.70391">
        <ele>196</ele>
        <time>2017-05-05T10:49:34Z</time>
      </trkpt>
      <trkpt lat="45.85709" lon="4.70401">
        <ele>196</ele>
        <time>2017-05-05T10:49:35Z</time>
      </trkpt>
      <trkpt lat="45.8571" lon="4.70411">
        <ele>196</ele>
        <time>2017-05-05T10:49:36Z</time>
      </trkpt>
      <trkpt lat="45.85711" lon="4.7042">
        <ele>196</ele>
        <time>2017-05-05T10:49:37Z</time>
      </trkpt>
      <trkpt lat="45.85713" lon="4.7043">
        <ele>196</ele>
        <time>2017-05-05T10:49:38Z</time>
      </trkpt>
      <trkpt lat="45.85715" lon="4.70439">
        <ele>196</ele>
        <time>2017-05-05T10:49:39Z</time>
      </trkpt>
      <trkpt lat="45.85717" lon="4.70449">
        <ele>196</ele>
        <time>2017-05-05T10:49:40Z</time>
      </trkpt>
      <trkpt lat="45.85718" lon="4.70458">
        <ele>196</ele>
        <time>2017-05-05T10:49:41Z</time>
      </trkpt>
      <trkpt lat="45.8572" lon="4.70466">
        <ele>196</ele>
        <time>2017-05-05T10:49:42Z</time>
      </trkpt>
      <trkpt lat="45.85721" lon="4.70474">
        <ele>196</ele>
        <time>2017-05-05T10:49:43Z</time>
      </trkpt>
      <trkpt lat="45.8572" lon="4.70482">
        <ele>196</ele>
        <time>2017-05-05T10:49:44Z</time>
      </trkpt>
      <trkpt lat="45.85718" lon="4.70488">
        <ele>196</ele>
        <time>2017-05-05T10:49:45Z</time>
      </trkpt>
      <trkpt lat="45.85715" lon="4.70494">
        <ele>196</ele>
        <time>2017-05-05T10:49:46Z</time>
      </trkpt>
      <trkpt lat="45.85712" lon="4.705">
        <ele>196</ele>
        <time>2017-05-05T10:49:47Z</time>
      </trkpt>
      <trkpt lat="45.8571" lon="4.70507">
        <ele>196</ele>
        <time>2017-05-05T10:49:48Z</time>
      </trkpt>
      <trkpt lat="45.8571" lon="4.70514">
        <ele>196</ele>
        <time>2017-05-05T10:49:49Z</time>
      </trkpt>
      <trkpt lat="45.85711" lon="4.70521">
        <ele>196</ele>
        <time>2017-05-05T10:49:50Z</time>
      </trkpt>
      <trkpt lat="45.85714" lon="4.70526">
        <ele>196</ele>
        <time>2017-05-05T10:49:51Z</time>
      </trkpt>
      <trkpt lat="45.85718" lon="4.70529">
        <ele>196</ele>
        <time>2017-05-05T10:49:52Z</time>
      </trkpt>
      <trkpt lat="45.85724" lon="4.70529">
        <ele>196</ele>
        <time>2017-05-05T10:49:53Z</time>
      </trkpt>
      <trkpt lat="45.8573" lon="4.70528">
        <ele>196</ele>
        <time>2017-05-05T10:49:54Z</time>
      </trkpt>
      <trkpt lat="45.85736" lon="4.70526">
        <ele>196</ele>
        <time>2017-05-05T10:49:55Z</time>
      </trkpt>
      <trkpt lat="45.85742" lon="4.70524">
        <ele>196</ele>
        <time>2017-05-05T10:49:56Z</time>
      </trkpt>
      <trkpt lat="45.85748" lon="4.70524">
        <ele>196</ele>
        <time>2017-05-05T10:49:57Z</time>
      </trkpt>
      <trkpt lat="45.85754" lon="4.70526">
        <ele>196</ele>
        <time>2017-05-05T10:49:58Z</time>
      </trkpt>
      <trkpt lat="45.85759" lon="4.70528">
        <ele>196</ele>
        <time>2017-05-05T10:49:59Z</time>
      </trkpt>
      <trkpt lat="45.85765" lon="4.70531">
        <ele>196</ele>
        <time>2017-05-05T10:50:00Z</time>
      </trkpt>
      <trkpt lat="45.8577" lon="4.70534">
        <ele>196</ele>
        <time>2017-05-05T10:50:01Z</time>
      </trkpt>
      <trkpt lat="45.85775" lon="4.70538">
        <ele>196</ele>
        <time>2017-05-05T10:50:02Z</time>
      </trkpt>
      <trkpt lat="45.85779" lon="4.70541">
        <ele>196</ele>
        <time>2017-05-05T10:50:03Z</time>
      </trkpt>
      <trkpt lat="45.85784" lon="4.70545">
        <ele>196</ele>
        <time>2017-05-05T10:50:04Z</time>
      </trkpt>
      <trkpt lat="45.85788" lon="4.70548">
        <ele>196</ele>
        <time>2017-05-05T10:50:05Z</time>
      </trkpt>
      <trkpt lat="45.85793" lon="4.70551">
        <ele>195</ele>
        <time>2017-05-05T10:50:06Z</time>
      </trkpt>
      <trkpt lat="45.85798" lon="4.70553">
        <ele>195</ele>
        <time>2017-05-05T10:50:07Z</time>
      </trkpt>
      <trkpt lat="45.85803" lon="4.70556">
        <ele>195</ele>
        <time>2017-05-05T10:50:08Z</time>
      </trkpt>
      <trkpt lat="45.85809" lon="4.70558">
        <ele>195</ele>
        <time>2017-05-05T10:50:09Z</time>
      </trkpt>
      <trkpt lat="45.85814" lon="4.7056">
        <ele>195</ele>
        <time>2017-05-05T10:50:10Z</time>
      </trkpt>
      <trkpt lat="45.8582" lon="4.70563">
        <ele>195</ele>
        <time>2017-05-05T10:50:11Z</time>
      </trkpt>
      <trkpt lat="45.85825" lon="4.70566">
        <ele>195</ele>
        <time>2017-05-05T10:50:12Z</time>
      </trkpt>
      <trkpt lat="45.8583" lon="4.70568">
        <ele>195</ele>
        <time>2017-05-05T10:50:13Z</time>
      </trkpt>
      <trkpt lat="45.85835" lon="4.7057">
        <ele>195</ele>
        <time>2017-05-05T10:50:14Z</time>
      </trkpt>
      <trkpt lat="45.8584" lon="4.70572">
        <ele>195</ele>
        <time>2017-05-05T10:50:15Z</time>
      </trkpt>
      <trkpt lat="45.85845" lon="4.70574">
        <ele>195</ele>
        <time>2017-05-05T10:50:16Z</time>
      </trkpt>
      <trkpt lat="45.8585" lon="4.70575">
        <ele>195</ele>
        <time>2017-05-05T10:50:17Z</time>
      </trkpt>
      <trkpt lat="45.85855" lon="4.70577">
        <ele>195</ele>
        <time>2017-05-05T10:50:18Z</time>
      </trkpt>
      <trkpt lat="45.8586" lon="4.70578">
        <ele>195</ele>
        <time>2017-05-05T10:50:19Z</time>
      </trkpt>
      <trkpt lat="45.85864" lon="4.7058">
        <ele>195</ele>
        <time>2017-05-05T10:50:20Z</time>
      </trkpt>
      <trkpt lat="45.85869" lon="4.70581">
        <ele>195</ele>
        <time>2017-05-05T10:50:21Z</time>
      </trkpt>
      <trkpt lat="45.85874" lon="4.70583">
        <ele>195</ele>
        <time>2017-05-05T10:50:22Z</time>
      </trkpt>
      <trkpt lat="45.8588" lon="4.70584">
        <ele>195</ele>
        <time>2017-05-05T10:50:23Z</time>
      </trkpt>
      <trkpt lat="45.85885" lon="4.70586">
        <ele>195</ele>
        <time>2017-05-05T10:50:24Z</time>
      </trkpt>
      <trkpt lat="45.8589" lon="4.70588">
        <ele>195</ele>
        <time>2017-05-05T10:50:25Z</time>
      </trkpt>
      <trkpt lat="45.85895" lon="4.7059">
        <ele>195</ele>
        <time>2017-05-05T10:50:26Z</time>
      </trkpt>
      <trkpt lat="45.85901" lon="4.70592">
        <ele>195</ele>
        <time>2017-05-05T10:50:27Z</time>
      </trkpt>
      <trkpt lat="45.85905" lon="4.70596">
        <ele>195</ele>
        <time>2017-05-05T10:50:28Z</time>
      </trkpt>
      <trkpt lat="45.85909" lon="4.70601">
        <ele>195</ele>
        <time>2017-05-05T10:50:29Z</time>
      </trkpt>
      <trkpt lat="45.85913" lon="4.70606">
        <ele>195</ele>
        <time>2017-05-05T10:50:30Z</time>
      </trkpt>
      <trkpt lat="45.85916" lon="4.70612">
        <ele>195</ele>
        <time>2017-05-05T10:50:31Z</time>
      </trkpt>
      <trkpt lat="45.85919" lon="4.70617">
        <ele>194</ele>
        <time>2017-05-05T10:50:32Z</time>
      </trkpt>
      <trkpt lat="45.85923" lon="4.70623">
        <ele>194</ele>
        <time>2017-05-05T10:50:33Z</time>
      </trkpt>
      <trkpt lat="45.85927" lon="4.70629">
        <ele>194</ele>
        <time>2017-05-05T10:50:34Z</time>
      </trkpt>
      <trkpt lat="45.85931" lon="4.70635">
        <ele>194</ele>
        <time>2017-05-05T10:50:35Z</time>
      </trkpt>
      <trkpt lat="45.85935" lon="4.70641">
        <ele>194</ele>
        <time>2017-05-05T10:50:36Z</time>
      </trkpt>
      <trkpt lat="45.85938" lon="4.70647">
        <ele>194</ele>
        <time>2017-05-05T10:50:37Z</time>
      </trkpt>
      <trkpt lat="45.85942" lon="4.70653">
        <ele>194</ele>
        <time>2017-05-05T10:50:38Z</time>
      </trkpt>
      <trkpt lat="45.85946" lon="4.70658">
        <ele>194</ele>
        <time>2017-05-05T10:50:39Z</time>
      </trkpt>
      <trkpt lat="45.8595" lon="4.70664">
        <ele>194</ele>
        <time>2017-05-05T10:50:40Z</time>
      </trkpt>
      <trkpt lat="45.85953" lon="4.7067">
        <ele>194</ele>
        <time>2017-05-05T10:50:41Z</time>
      </trkpt>
      <trkpt lat="45.85956" lon="4.70675">
        <ele>194</ele>
        <time>2017-05-05T10:50:42Z</time>
      </trkpt>
      <trkpt lat="45.85958" lon="4.7068">
        <ele>194</ele>
        <time>2017-05-05T10:50:43Z</time>
      </trkpt>
      <trkpt lat="45.85961" lon="4.70692">
        <ele>194</ele>
        <time>2017-05-05T10:50:45Z</time>
      </trkpt>
      <trkpt lat="45.85961" lon="4.70698">
        <ele>194</ele>
        <time>2017-05-05T10:50:46Z</time>
      </trkpt>
      <trkpt lat="45.85961" lon="4.70704">
        <ele>194</ele>
        <time>2017-05-05T10:50:47Z</time>
      </trkpt>
      <trkpt lat="45.8596" lon="4.70711">
        <ele>194</ele>
        <time>2017-05-05T10:50:48Z</time>
      </trkpt>
      <trkpt lat="45.85959" lon="4.70718">
        <ele>194</ele>
        <time>2017-05-05T10:50:49Z</time>
      </trkpt>
      <trkpt lat="45.85958" lon="4.70725">
        <ele>194</ele>
        <time>2017-05-05T10:50:50Z</time>
      </trkpt>
      <trkpt lat="45.85957" lon="4.70733">
        <ele>194</ele>
        <time>2017-05-05T10:50:51Z</time>
      </trkpt>
      <trkpt lat="45.85956" lon="4.70741">
        <ele>194</ele>
        <time>2017-05-05T10:50:52Z</time>
      </trkpt>
      <trkpt lat="45.85956" lon="4.70749">
        <ele>194</ele>
        <time>2017-05-05T10:50:53Z</time>
      </trkpt>
      <trkpt lat="45.85955" lon="4.70758">
        <ele>195</ele>
        <time>2017-05-05T10:50:54Z</time>
      </trkpt>
      <trkpt lat="45.85954" lon="4.70766">
        <ele>195</ele>
        <time>2017-05-05T10:50:55Z</time>
      </trkpt>
      <trkpt lat="45.85953" lon="4.70773">
        <ele>195</ele>
        <time>2017-05-05T10:50:56Z</time>
      </trkpt>
      <trkpt lat="45.85953" lon="4.70781">
        <ele>195</ele>
        <time>2017-05-05T10:50:57Z</time>
      </trkpt>
      <trkpt lat="45.85953" lon="4.70788">
        <ele>195</ele>
        <time>2017-05-05T10:50:58Z</time>
      </trkpt>
      <trkpt lat="45.85953" lon="4.70795">
        <ele>195</ele>
        <time>2017-05-05T10:50:59Z</time>
      </trkpt>
      <trkpt lat="45.85953" lon="4.70802">
        <ele>195</ele>
        <time>2017-05-05T10:51:00Z</time>
      </trkpt>
      <trkpt lat="45.85955" lon="4.70809">
        <ele>195</ele>
        <time>2017-05-05T10:51:01Z</time>
      </trkpt>
      <trkpt lat="45.85956" lon="4.70816">
        <ele>195</ele>
        <time>2017-05-05T10:51:02Z</time>
      </trkpt>
      <trkpt lat="45.85957" lon="4.70823">
        <ele>195</ele>
        <time>2017-05-05T10:51:03Z</time>
      </trkpt>
      <trkpt lat="45.85958" lon="4.70829">
        <ele>196</ele>
        <time>2017-05-05T10:51:04Z</time>
      </trkpt>
      <trkpt lat="45.85959" lon="4.70842">
        <ele>196</ele>
        <time>2017-05-05T10:51:06Z</time>
      </trkpt>
      <trkpt lat="45.85959" lon="4.70847">
        <ele>196</ele>
        <time>2017-05-05T10:51:07Z</time>
      </trkpt>
      <trkpt lat="45.85957" lon="4.70858">
        <ele>196</ele>
        <time>2017-05-05T10:51:09Z</time>
      </trkpt>
      <trkpt lat="45.85956" lon="4.70863">
        <ele>196</ele>
        <time>2017-05-05T10:51:10Z</time>
      </trkpt>
      <trkpt lat="45.85956" lon="4.70874">
        <ele>196</ele>
        <time>2017-05-05T10:51:12Z</time>
      </trkpt>
      <trkpt lat="45.85955" lon="4.70879">
        <ele>197</ele>
        <time>2017-05-05T10:51:13Z</time>
      </trkpt>
      <trkpt lat="45.85953" lon="4.70891">
        <ele>197</ele>
        <time>2017-05-05T10:51:15Z</time>
      </trkpt>
      <trkpt lat="45.85951" lon="4.70898">
        <ele>197</ele>
        <time>2017-05-05T10:51:16Z</time>
      </trkpt>
      <trkpt lat="45.85949" lon="4.70904">
        <ele>197</ele>
        <time>2017-05-05T10:51:17Z</time>
      </trkpt>
      <trkpt lat="45.85947" lon="4.70911">
        <ele>197</ele>
        <time>2017-05-05T10:51:18Z</time>
      </trkpt>
      <trkpt lat="45.85945" lon="4.70918">
        <ele>197</ele>
        <time>2017-05-05T10:51:19Z</time>
      </trkpt>
      <trkpt lat="45.85944" lon="4.70925">
        <ele>197</ele>
        <time>2017-05-05T10:51:20Z</time>
      </trkpt>
      <trkpt lat="45.85942" lon="4.70931">
        <ele>197</ele>
        <time>2017-05-05T10:51:21Z</time>
      </trkpt>
      <trkpt lat="45.85941" lon="4.70937">
        <ele>197</ele>
        <time>2017-05-05T10:51:22Z</time>
      </trkpt>
      <trkpt lat="45.8594" lon="4.70944">
        <ele>197</ele>
        <time>2017-05-05T10:51:23Z</time>
      </trkpt>
      <trkpt lat="45.85938" lon="4.7095">
        <ele>197</ele>
        <time>2017-05-05T10:51:24Z</time>
      </trkpt>
      <trkpt lat="45.85936" lon="4.70963">
        <ele>197</ele>
        <time>2017-05-05T10:51:26Z</time>
      </trkpt>
      <trkpt lat="45.85937" lon="4.70969">
        <ele>197</ele>
        <time>2017-05-05T10:51:27Z</time>
      </trkpt>
      <trkpt lat="45.85942" lon="4.70973">
        <ele>197</ele>
        <time>2017-05-05T10:51:28Z</time>
      </trkpt>
      <trkpt lat="45.85946" lon="4.70975">
        <ele>197</ele>
        <time>2017-05-05T10:51:29Z</time>
      </trkpt>
      <trkpt lat="45.85952" lon="4.70975">
        <ele>197</ele>
        <time>2017-05-05T10:51:30Z</time>
      </trkpt>
      <trkpt lat="45.85958" lon="4.70974">
        <ele>197</ele>
        <time>2017-05-05T10:51:31Z</time>
      </trkpt>
      <trkpt lat="45.85964" lon="4.70975">
        <ele>197</ele>
        <time>2017-05-05T10:51:32Z</time>
      </trkpt>
      <trkpt lat="45.85969" lon="4.70976">
        <ele>197</ele>
        <time>2017-05-05T10:51:33Z</time>
      </trkpt>
      <trkpt lat="45.85974" lon="4.70977">
        <ele>197</ele>
        <time>2017-05-05T10:51:34Z</time>
      </trkpt>
      <trkpt lat="45.85979" lon="4.70979">
        <ele>197</ele>
        <time>2017-05-05T10:51:35Z</time>
      </trkpt>
      <trkpt lat="45.85984" lon="4.70981">
        <ele>197</ele>
        <time>2017-05-05T10:51:36Z</time>
      </trkpt>
      <trkpt lat="45.85988" lon="4.70984">
        <ele>197</ele>
        <time>2017-05-05T10:51:37Z</time>
      </trkpt>
      <trkpt lat="45.85992" lon="4.70987">
        <ele>197</ele>
        <time>2017-05-05T10:51:38Z</time>
      </trkpt>
      <trkpt lat="45.85996" lon="4.70991">
        <ele>197</ele>
        <time>2017-05-05T10:51:39Z</time>
      </trkpt>
      <trkpt lat="45.86" lon="4.70996">
        <ele>197</ele>
        <time>2017-05-05T10:51:40Z</time>
      </trkpt>
      <trkpt lat="45.86003" lon="4.71">
        <ele>197</ele>
        <time>2017-05-05T10:51:41Z</time>
      </trkpt>
      <trkpt lat="45.86006" lon="4.71005">
        <ele>197</ele>
        <time>2017-05-05T10:51:42Z</time>
      </trkpt>
      <trkpt lat="45.86009" lon="4.7101">
        <ele>197</ele>
        <time>2017-05-05T10:51:43Z</time>
      </trkpt>
      <trkpt lat="45.86016" lon="4.71018">
        <ele>197</ele>
        <time>2017-05-05T10:51:45Z</time>
      </trkpt>
      <trkpt lat="45.86019" lon="4.71022">
        <ele>197</ele>
        <time>2017-05-05T10:51:46Z</time>
      </trkpt>
      <trkpt lat="45.86025" lon="4.7103">
        <ele>197</ele>
        <time>2017-05-05T10:51:48Z</time>
      </trkpt>
      <trkpt lat="45.86027" lon="4.71035">
        <ele>197</ele>
        <time>2017-05-05T10:51:49Z</time>
      </trkpt>
      <trkpt lat="45.86031" lon="4.71047">
        <ele>197</ele>
        <time>2017-05-05T10:51:51Z</time>
      </trkpt>
      <trkpt lat="45.86032" lon="4.71053">
        <ele>197</ele>
        <time>2017-05-05T10:51:52Z</time>
      </trkpt>
      <trkpt lat="45.86033" lon="4.71059">
        <ele>197</ele>
        <time>2017-05-05T10:51:53Z</time>
      </trkpt>
      <trkpt lat="45.86033" lon="4.71066">
        <ele>197</ele>
        <time>2017-05-05T10:51:54Z</time>
      </trkpt>
      <trkpt lat="45.86035" lon="4.71073">
        <ele>197</ele>
        <time>2017-05-05T10:51:55Z</time>
      </trkpt>
      <trkpt lat="45.86036" lon="4.7108">
        <ele>197</ele>
        <time>2017-05-05T10:51:56Z</time>
      </trkpt>
      <trkpt lat="45.86037" lon="4.71087">
        <ele>197</ele>
        <time>2017-05-05T10:51:57Z</time>
      </trkpt>
      <trkpt lat="45.8604" lon="4.71093">
        <ele>197</ele>
        <time>2017-05-05T10:51:58Z</time>
      </trkpt>
      <trkpt lat="45.86043" lon="4.71099">
        <ele>197</ele>
        <time>2017-05-05T10:51:59Z</time>
      </trkpt>
      <trkpt lat="45.86046" lon="4.71105">
        <ele>197</ele>
        <time>2017-05-05T10:52:00Z</time>
      </trkpt>
      <trkpt lat="45.8605" lon="4.71111">
        <ele>197</ele>
        <time>2017-05-05T10:52:01Z</time>
      </trkpt>
      <trkpt lat="45.86055" lon="4.71117">
        <ele>197</ele>
        <time>2017-05-05T10:52:02Z</time>
      </trkpt>
      <trkpt lat="45.8606" lon="4.71123">
        <ele>197</ele>
        <time>2017-05-05T10:52:03Z</time>
      </trkpt>
      <trkpt lat="45.86065" lon="4.71128">
        <ele>197</ele>
        <time>2017-05-05T10:52:04Z</time>
      </trkpt>
      <trkpt lat="45.8607" lon="4.71133">
        <ele>197</ele>
        <time>2017-05-05T10:52:05Z</time>
      </trkpt>
      <trkpt lat="45.86074" lon="4.71137">
        <ele>197</ele>
        <time>2017-05-05T10:52:06Z</time>
      </trkpt>
      <trkpt lat="45.86078" lon="4.71141">
        <ele>197</ele>
        <time>2017-05-05T10:52:07Z</time>
      </trkpt>
      <trkpt lat="45.86082" lon="4.71144">
        <ele>197</ele>
        <time>2017-05-05T10:52:08Z</time>
      </trkpt>
      <trkpt lat="45.86086" lon="4.71149">
        <ele>197</ele>
        <time>2017-05-05T10:52:09Z</time>
      </trkpt>
      <trkpt lat="45.86089" lon="4.71154">
        <ele>197</ele>
        <time>2017-05-05T10:52:10Z</time>
      </trkpt>
      <trkpt lat="45.86091" lon="4.71164">
        <ele>197</ele>
        <time>2017-05-05T10:52:12Z</time>
      </trkpt>
      <trkpt lat="45.8609" lon="4.7117">
        <ele>198</ele>
        <time>2017-05-05T10:52:13Z</time>
      </trkpt>
      <trkpt lat="45.86089" lon="4.71176">
        <ele>197</ele>
        <time>2017-05-05T10:52:14Z</time>
      </trkpt>
      <trkpt lat="45.86087" lon="4.71183">
        <ele>197</ele>
        <time>2017-05-05T10:52:15Z</time>
      </trkpt>
      <trkpt lat="45.86086" lon="4.71189">
        <ele>197</ele>
        <time>2017-05-05T10:52:16Z</time>
      </trkpt>
      <trkpt lat="45.86084" lon="4.71195">
        <ele>197</ele>
        <time>2017-05-05T10:52:17Z</time>
      </trkpt>
      <trkpt lat="45.86083" lon="4.71202">
        <ele>198</ele>
        <time>2017-05-05T10:52:18Z</time>
      </trkpt>
      <trkpt lat="45.86082" lon="4.7121">
        <ele>198</ele>
        <time>2017-05-05T10:52:19Z</time>
      </trkpt>
      <trkpt lat="45.86081" lon="4.71217">
        <ele>198</ele>
        <time>2017-05-05T10:52:20Z</time>
      </trkpt>
      <trkpt lat="45.8608" lon="4.71224">
        <ele>198</ele>
        <time>2017-05-05T10:52:21Z</time>
      </trkpt>
      <trkpt lat="45.86079" lon="4.71231">
        <ele>198</ele>
        <time>2017-05-05T10:52:22Z</time>
      </trkpt>
      <trkpt lat="45.86079" lon="4.71238">
        <ele>198</ele>
        <time>2017-05-05T10:52:23Z</time>
      </trkpt>
      <trkpt lat="45.8608" lon="4.71245">
        <ele>198</ele>
        <time>2017-05-05T10:52:24Z</time>
      </trkpt>
      <trkpt lat="45.86081" lon="4.71251">
        <ele>198</ele>
        <time>2017-05-05T10:52:25Z</time>
      </trkpt>
      <trkpt lat="45.86084" lon="4.71259">
        <ele>197</ele>
        <time>2017-05-05T10:52:27Z</time>
      </trkpt>
      <trkpt lat="45.86086" lon="4.71263">
        <ele>197</ele>
        <time>2017-05-05T10:52:28Z</time>
      </trkpt>
      <trkpt lat="45.86092" lon="4.71272">
        <ele>197</ele>
        <time>2017-05-05T10:52:30Z</time>
      </trkpt>
      <trkpt lat="45.86095" lon="4.71278">
        <ele>197</ele>
        <time>2017-05-05T10:52:31Z</time>
      </trkpt>
      <trkpt lat="45.86097" lon="4.71285">
        <ele>197</ele>
        <time>2017-05-05T10:52:32Z</time>
      </trkpt>
      <trkpt lat="45.86099" lon="4.71293">
        <ele>197</ele>
        <time>2017-05-05T10:52:33Z</time>
      </trkpt>
      <trkpt lat="45.861" lon="4.71301">
        <ele>197</ele>
        <time>2017-05-05T10:52:34Z</time>
      </trkpt>
      <trkpt lat="45.86101" lon="4.71309">
        <ele>197</ele>
        <time>2017-05-05T10:52:35Z</time>
      </trkpt>
      <trkpt lat="45.86103" lon="4.71317">
        <ele>197</ele>
        <time>2017-05-05T10:52:36Z</time>
      </trkpt>
      <trkpt lat="45.86104" lon="4.71324">
        <ele>197</ele>
        <time>2017-05-05T10:52:37Z</time>
      </trkpt>
      <trkpt lat="45.86105" lon="4.71331">
        <ele>197</ele>
        <time>2017-05-05T10:52:38Z</time>
      </trkpt>
      <trkpt lat="45.86106" lon="4.71338">
        <ele>196</ele>
        <time>2017-05-05T10:52:39Z</time>
      </trkpt>
      <trkpt lat="45.86107" lon="4.71344">
        <ele>196</ele>
        <time>2017-05-05T10:52:40Z</time>
      </trkpt>
      <trkpt lat="45.86108" lon="4.71351">
        <ele>196</ele>
        <time>2017-05-05T10:52:41Z</time>
      </trkpt>
      <trkpt lat="45.86109" lon="4.71357">
        <ele>196</ele>
        <time>2017-05-05T10:52:42Z</time>
      </trkpt>
      <trkpt lat="45.8611" lon="4.71363">
        <ele>196</ele>
        <time>2017-05-05T10:52:43Z</time>
      </trkpt>
      <trkpt lat="45.86111" lon="4.7137">
        <ele>196</ele>
        <time>2017-05-05T10:52:44Z</time>
      </trkpt>
      <trkpt lat="45.86112" lon="4.71378">
        <ele>196</ele>
        <time>2017-05-05T10:52:45Z</time>
      </trkpt>
      <trkpt lat="45.86113" lon="4.71385">
        <ele>196</ele>
        <time>2017-05-05T10:52:46Z</time>
      </trkpt>
      <trkpt lat="45.86113" lon="4.71393">
        <ele>196</ele>
        <time>2017-05-05T10:52:47Z</time>
      </trkpt>
      <trkpt lat="45.86114" lon="4.71402">
        <ele>196</ele>
        <time>2017-05-05T10:52:48Z</time>
      </trkpt>
      <trkpt lat="45.86115" lon="4.7141">
        <ele>196</ele>
        <time>2017-05-05T10:52:49Z</time>
      </trkpt>
      <trkpt lat="45.86117" lon="4.71418">
        <ele>195</ele>
        <time>2017-05-05T10:52:50Z</time>
      </trkpt>
      <trkpt lat="45.86118" lon="4.71426">
        <ele>195</ele>
        <time>2017-05-05T10:52:51Z</time>
      </trkpt>
      <trkpt lat="45.86119" lon="4.71434">
        <ele>195</ele>
        <time>2017-05-05T10:52:52Z</time>
      </trkpt>
      <trkpt lat="45.8612" lon="4.71441">
        <ele>195</ele>
        <time>2017-05-05T10:52:53Z</time>
      </trkpt>
      <trkpt lat="45.86122" lon="4.71449">
        <ele>195</ele>
        <time>2017-05-05T10:52:54Z</time>
      </trkpt>
      <trkpt lat="45.86123" lon="4.71456">
        <ele>195</ele>
        <time>2017-05-05T10:52:55Z</time>
      </trkpt>
      <trkpt lat="45.86125" lon="4.71463">
        <ele>195</ele>
        <time>2017-05-05T10:52:56Z</time>
      </trkpt>
      <trkpt lat="45.86127" lon="4.7147">
        <ele>195</ele>
        <time>2017-05-05T10:52:57Z</time>
      </trkpt>
      <trkpt lat="45.86129" lon="4.71477">
        <ele>195</ele>
        <time>2017-05-05T10:52:58Z</time>
      </trkpt>
      <trkpt lat="45.86132" lon="4.71483">
        <ele>195</ele>
        <time>2017-05-05T10:52:59Z</time>
      </trkpt>
      <trkpt lat="45.86134" lon="4.7149">
        <ele>195</ele>
        <time>2017-05-05T10:53:00Z</time>
      </trkpt>
      <trkpt lat="45.86137" lon="4.71496">
        <ele>195</ele>
        <time>2017-05-05T10:53:01Z</time>
      </trkpt>
      <trkpt lat="45.8614" lon="4.71502">
        <ele>195</ele>
        <time>2017-05-05T10:53:02Z</time>
      </trkpt>
      <trkpt lat="45.86142" lon="4.71508">
        <ele>195</ele>
        <time>2017-05-05T10:53:03Z</time>
      </trkpt>
      <trkpt lat="45.86144" lon="4.71515">
        <ele>195</ele>
        <time>2017-05-05T10:53:04Z</time>
      </trkpt>
      <trkpt lat="45.86147" lon="4.71522">
        <ele>195</ele>
        <time>2017-05-05T10:53:05Z</time>
      </trkpt>
      <trkpt lat="45.8615" lon="4.71528">
        <ele>195</ele>
        <time>2017-05-05T10:53:06Z</time>
      </trkpt>
      <trkpt lat="45.86153" lon="4.71534">
        <ele>195</ele>
        <time>2017-05-05T10:53:07Z</time>
      </trkpt>
      <trkpt lat="45.86156" lon="4.7154">
        <ele>195</ele>
        <time>2017-05-05T10:53:08Z</time>
      </trkpt>
      <trkpt lat="45.86159" lon="4.71546">
        <ele>196</ele>
        <time>2017-05-05T10:53:09Z</time>
      </trkpt>
      <trkpt lat="45.86163" lon="4.71552">
        <ele>196</ele>
        <time>2017-05-05T10:53:10Z</time>
      </trkpt>
      <trkpt lat="45.86166" lon="4.71557">
        <ele>196</ele>
        <time>2017-05-05T10:53:11Z</time>
      </trkpt>
      <trkpt lat="45.86169" lon="4.71563">
        <ele>195</ele>
        <time>2017-05-05T10:53:12Z</time>
      </trkpt>
      <trkpt lat="45.86173" lon="4.71569">
        <ele>196</ele>
        <time>2017-05-05T10:53:13Z</time>
      </trkpt>
      <trkpt lat="45.86176" lon="4.71574">
        <ele>196</ele>
        <time>2017-05-05T10:53:14Z</time>
      </trkpt>
      <trkpt lat="45.8618" lon="4.71579">
        <ele>196</ele>
        <time>2017-05-05T10:53:15Z</time>
      </trkpt>
      <trkpt lat="45.86182" lon="4.71585">
        <ele>196</ele>
        <time>2017-05-05T10:53:16Z</time>
      </trkpt>
      <trkpt lat="45.86184" lon="4.7159">
        <ele>196</ele>
        <time>2017-05-05T10:53:17Z</time>
      </trkpt>
      <trkpt lat="45.86184" lon="4.71602">
        <ele>195</ele>
        <time>2017-05-05T10:53:19Z</time>
      </trkpt>
      <trkpt lat="45.86183" lon="4.71608">
        <ele>195</ele>
        <time>2017-05-05T10:53:20Z</time>
      </trkpt>
      <trkpt lat="45.86183" lon="4.71615">
        <ele>195</ele>
        <time>2017-05-05T10:53:21Z</time>
      </trkpt>
      <trkpt lat="45.86183" lon="4.71622">
        <ele>195</ele>
        <time>2017-05-05T10:53:22Z</time>
      </trkpt>
      <trkpt lat="45.86184" lon="4.71629">
        <ele>195</ele>
        <time>2017-05-05T10:53:23Z</time>
      </trkpt>
      <trkpt lat="45.86187" lon="4.71636">
        <ele>195</ele>
        <time>2017-05-05T10:53:24Z</time>
      </trkpt>
      <trkpt lat="45.86191" lon="4.71641">
        <ele>195</ele>
        <time>2017-05-05T10:53:25Z</time>
      </trkpt>
      <trkpt lat="45.86196" lon="4.71643">
        <ele>195</ele>
        <time>2017-05-05T10:53:26Z</time>
      </trkpt>
      <trkpt lat="45.86201" lon="4.71645">
        <ele>195</ele>
        <time>2017-05-05T10:53:27Z</time>
      </trkpt>
      <trkpt lat="45.86207" lon="4.71647">
        <ele>195</ele>
        <time>2017-05-05T10:53:28Z</time>
      </trkpt>
      <trkpt lat="45.86213" lon="4.7165">
        <ele>195</ele>
        <time>2017-05-05T10:53:29Z</time>
      </trkpt>
      <trkpt lat="45.86218" lon="4.71654">
        <ele>195</ele>
        <time>2017-05-05T10:53:30Z</time>
      </trkpt>
      <trkpt lat="45.86224" lon="4.71658">
        <ele>195</ele>
        <time>2017-05-05T10:53:31Z</time>
      </trkpt>
      <trkpt lat="45.86229" lon="4.71661">
        <ele>195</ele>
        <time>2017-05-05T10:53:32Z</time>
      </trkpt>
      <trkpt lat="45.86234" lon="4.71664">
        <ele>195</ele>
        <time>2017-05-05T10:53:33Z</time>
      </trkpt>
      <trkpt lat="45.86238" lon="4.71667">
        <ele>196</ele>
        <time>2017-05-05T10:53:34Z</time>
      </trkpt>
      <trkpt lat="45.86243" lon="4.71671">
        <ele>195</ele>
        <time>2017-05-05T10:53:35Z</time>
      </trkpt>
      <trkpt lat="45.86248" lon="4.71676">
        <ele>196</ele>
        <time>2017-05-05T10:53:36Z</time>
      </trkpt>
      <trkpt lat="45.86253" lon="4.71681">
        <ele>195</ele>
        <time>2017-05-05T10:53:37Z</time>
      </trkpt>
      <trkpt lat="45.86258" lon="4.71686">
        <ele>195</ele>
        <time>2017-05-05T10:53:38Z</time>
      </trkpt>
      <trkpt lat="45.86263" lon="4.7169">
        <ele>195</ele>
        <time>2017-05-05T10:53:39Z</time>
      </trkpt>
      <trkpt lat="45.86268" lon="4.71695">
        <ele>195</ele>
        <time>2017-05-05T10:53:40Z</time>
      </trkpt>
      <trkpt lat="45.86274" lon="4.717">
        <ele>195</ele>
        <time>2017-05-05T10:53:41Z</time>
      </trkpt>
      <trkpt lat="45.8628" lon="4.71704">
        <ele>196</ele>
        <time>2017-05-05T10:53:42Z</time>
      </trkpt>
      <trkpt lat="45.86285" lon="4.71709">
        <ele>196</ele>
        <time>2017-05-05T10:53:43Z</time>
      </trkpt>
      <trkpt lat="45.86291" lon="4.71714">
        <ele>196</ele>
        <time>2017-05-05T10:53:44Z</time>
      </trkpt>
      <trkpt lat="45.86297" lon="4.71718">
        <ele>196</ele>
        <time>2017-05-05T10:53:45Z</time>
      </trkpt>
      <trkpt lat="45.86302" lon="4.71722">
        <ele>196</ele>
        <time>2017-05-05T10:53:46Z</time>
      </trkpt>
      <trkpt lat="45.86308" lon="4.71727">
        <ele>196</ele>
        <time>2017-05-05T10:53:47Z</time>
      </trkpt>
      <trkpt lat="45.86313" lon="4.71731">
        <ele>196</ele>
        <time>2017-05-05T10:53:48Z</time>
      </trkpt>
      <trkpt lat="45.86319" lon="4.71735">
        <ele>196</ele>
        <time>2017-05-05T10:53:49Z</time>
      </trkpt>
      <trkpt lat="45.86324" lon="4.7174">
        <ele>196</ele>
        <time>2017-05-05T10:53:50Z</time>
      </trkpt>
      <trkpt lat="45.8633" lon="4.71744">
        <ele>196</ele>
        <time>2017-05-05T10:53:51Z</time>
      </trkpt>
      <trkpt lat="45.86335" lon="4.71748">
        <ele>196</ele>
        <time>2017-05-05T10:53:52Z</time>
      </trkpt>
      <trkpt lat="45.86341" lon="4.71752">
        <ele>197</ele>
        <time>2017-05-05T10:53:53Z</time>
      </trkpt>
      <trkpt lat="45.86346" lon="4.71757">
        <ele>197</ele>
        <time>2017-05-05T10:53:54Z</time>
      </trkpt>
      <trkpt lat="45.86352" lon="4.71761">
        <ele>198</ele>
        <time>2017-05-05T10:53:55Z</time>
      </trkpt>
      <trkpt lat="45.86358" lon="4.71765">
        <ele>198</ele>
        <time>2017-05-05T10:53:56Z</time>
      </trkpt>
      <trkpt lat="45.86364" lon="4.71769">
        <ele>198</ele>
        <time>2017-05-05T10:53:57Z</time>
      </trkpt>
      <trkpt lat="45.86369" lon="4.71774">
        <ele>198</ele>
        <time>2017-05-05T10:53:58Z</time>
      </trkpt>
      <trkpt lat="45.86375" lon="4.71778">
        <ele>198</ele>
        <time>2017-05-05T10:53:59Z</time>
      </trkpt>
      <trkpt lat="45.8638" lon="4.71782">
        <ele>198</ele>
        <time>2017-05-05T10:54:00Z</time>
      </trkpt>
      <trkpt lat="45.86385" lon="4.71786">
        <ele>199</ele>
        <time>2017-05-05T10:54:01Z</time>
      </trkpt>
      <trkpt lat="45.8639" lon="4.7179">
        <ele>199</ele>
        <time>2017-05-05T10:54:02Z</time>
      </trkpt>
      <trkpt lat="45.86396" lon="4.71795">
        <ele>199</ele>
        <time>2017-05-05T10:54:03Z</time>
      </trkpt>
      <trkpt lat="45.86401" lon="4.71799">
        <ele>199</ele>
        <time>2017-05-05T10:54:04Z</time>
      </trkpt>
      <trkpt lat="45.86406" lon="4.71804">
        <ele>199</ele>
        <time>2017-05-05T10:54:05Z</time>
      </trkpt>
      <trkpt lat="45.86412" lon="4.71809">
        <ele>200</ele>
        <time>2017-05-05T10:54:06Z</time>
      </trkpt>
      <trkpt lat="45.86417" lon="4.71815">
        <ele>198</ele>
        <time>2017-05-05T10:54:07Z</time>
      </trkpt>
      <trkpt lat="45.86423" lon="4.7182">
        <ele>199</ele>
        <time>2017-05-05T10:54:08Z</time>
      </trkpt>
      <trkpt lat="45.86429" lon="4.71825">
        <ele>199</ele>
        <time>2017-05-05T10:54:09Z</time>
      </trkpt>
      <trkpt lat="45.86435" lon="4.71829">
        <ele>198</ele>
        <time>2017-05-05T10:54:10Z</time>
      </trkpt>
      <trkpt lat="45.86441" lon="4.71834">
        <ele>201</ele>
        <time>2017-05-05T10:54:11Z</time>
      </trkpt>
      <trkpt lat="45.86448" lon="4.71838">
        <ele>200</ele>
        <time>2017-05-05T10:54:12Z</time>
      </trkpt>
      <trkpt lat="45.86453" lon="4.71844">
        <ele>200</ele>
        <time>2017-05-05T10:54:13Z</time>
      </trkpt>
      <trkpt lat="45.86459" lon="4.71849">
        <ele>200</ele>
        <time>2017-05-05T10:54:14Z</time>
      </trkpt>
      <trkpt lat="45.86465" lon="4.71854">
        <ele>199</ele>
        <time>2017-05-05T10:54:15Z</time>
      </trkpt>
      <trkpt lat="45.8647" lon="4.71859">
        <ele>199</ele>
        <time>2017-05-05T10:54:16Z</time>
      </trkpt>
      <trkpt lat="45.86476" lon="4.71863">
        <ele>199</ele>
        <time>2017-05-05T10:54:17Z</time>
      </trkpt>
      <trkpt lat="45.86482" lon="4.71867">
        <ele>199</ele>
        <time>2017-05-05T10:54:18Z</time>
      </trkpt>
      <trkpt lat="45.86487" lon="4.71872">
        <ele>199</ele>
        <time>2017-05-05T10:54:19Z</time>
      </trkpt>
      <trkpt lat="45.86493" lon="4.71876">
        <ele>199</ele>
        <time>2017-05-05T10:54:20Z</time>
      </trkpt>
      <trkpt lat="45.86498" lon="4.71881">
        <ele>199</ele>
        <time>2017-05-05T10:54:21Z</time>
      </trkpt>
      <trkpt lat="45.86503" lon="4.71886">
        <ele>195</ele>
        <time>2017-05-05T10:54:22Z</time>
      </trkpt>
      <trkpt lat="45.86508" lon="4.71891">
        <ele>195</ele>
        <time>2017-05-05T10:54:23Z</time>
      </trkpt>
      <trkpt lat="45.86514" lon="4.71896">
        <ele>195</ele>
        <time>2017-05-05T10:54:24Z</time>
      </trkpt>
      <trkpt lat="45.8652" lon="4.71901">
        <ele>195</ele>
        <time>2017-05-05T10:54:25Z</time>
      </trkpt>
      <trkpt lat="45.86525" lon="4.71905">
        <ele>195</ele>
        <time>2017-05-05T10:54:26Z</time>
      </trkpt>
      <trkpt lat="45.8653" lon="4.71909">
        <ele>195</ele>
        <time>2017-05-05T10:54:27Z</time>
      </trkpt>
      <trkpt lat="45.86536" lon="4.71914">
        <ele>195</ele>
        <time>2017-05-05T10:54:28Z</time>
      </trkpt>
      <trkpt lat="45.86542" lon="4.71918">
        <ele>196</ele>
        <time>2017-05-05T10:54:29Z</time>
      </trkpt>
      <trkpt lat="45.86548" lon="4.71921">
        <ele>196</ele>
        <time>2017-05-05T10:54:30Z</time>
      </trkpt>
      <trkpt lat="45.86553" lon="4.71926">
        <ele>196</ele>
        <time>2017-05-05T10:54:31Z</time>
      </trkpt>
      <trkpt lat="45.86559" lon="4.7193">
        <ele>196</ele>
        <time>2017-05-05T10:54:32Z</time>
      </trkpt>
      <trkpt lat="45.86565" lon="4.71934">
        <ele>196</ele>
        <time>2017-05-05T10:54:33Z</time>
      </trkpt>
      <trkpt lat="45.8657" lon="4.71939">
        <ele>196</ele>
        <time>2017-05-05T10:54:34Z</time>
      </trkpt>
      <trkpt lat="45.86576" lon="4.71943">
        <ele>196</ele>
        <time>2017-05-05T10:54:35Z</time>
      </trkpt>
      <trkpt lat="45.86582" lon="4.71948">
        <ele>196</ele>
        <time>2017-05-05T10:54:36Z</time>
      </trkpt>
      <trkpt lat="45.86588" lon="4.71954">
        <ele>194</ele>
        <time>2017-05-05T10:54:37Z</time>
      </trkpt>
      <trkpt lat="45.86594" lon="4.71958">
        <ele>194</ele>
        <time>2017-05-05T10:54:38Z</time>
      </trkpt>
      <trkpt lat="45.866" lon="4.71963">
        <ele>195</ele>
        <time>2017-05-05T10:54:39Z</time>
      </trkpt>
      <trkpt lat="45.86606" lon="4.71968">
        <ele>195</ele>
        <time>2017-05-05T10:54:40Z</time>
      </trkpt>
      <trkpt lat="45.86612" lon="4.71972">
        <ele>195</ele>
        <time>2017-05-05T10:54:41Z</time>
      </trkpt>
      <trkpt lat="45.86618" lon="4.71977">
        <ele>195</ele>
        <time>2017-05-05T10:54:42Z</time>
      </trkpt>
      <trkpt lat="45.86623" lon="4.71981">
        <ele>195</ele>
        <time>2017-05-05T10:54:43Z</time>
      </trkpt>
      <trkpt lat="45.86629" lon="4.71985">
        <ele>195</ele>
        <time>2017-05-05T10:54:44Z</time>
      </trkpt>
      <trkpt lat="45.86634" lon="4.71989">
        <ele>195</ele>
        <time>2017-05-05T10:54:45Z</time>
      </trkpt>
      <trkpt lat="45.8664" lon="4.71993">
        <ele>195</ele>
        <time>2017-05-05T10:54:46Z</time>
      </trkpt>
      <trkpt lat="45.86645" lon="4.71997">
        <ele>195</ele>
        <time>2017-05-05T10:54:47Z</time>
      </trkpt>
      <trkpt lat="45.8665" lon="4.72002">
        <ele>197</ele>
        <time>2017-05-05T10:54:48Z</time>
      </trkpt>
      <trkpt lat="45.86655" lon="4.72006">
        <ele>196</ele>
        <time>2017-05-05T10:54:49Z</time>
      </trkpt>
      <trkpt lat="45.8666" lon="4.72009">
        <ele>196</ele>
        <time>2017-05-05T10:54:50Z</time>
      </trkpt>
      <trkpt lat="45.86664" lon="4.72013">
        <ele>197</ele>
        <time>2017-05-05T10:54:51Z</time>
      </trkpt>
      <trkpt lat="45.86669" lon="4.72016">
        <ele>196</ele>
        <time>2017-05-05T10:54:52Z</time>
      </trkpt>
      <trkpt lat="45.86674" lon="4.7202">
        <ele>196</ele>
        <time>2017-05-05T10:54:53Z</time>
      </trkpt>
      <trkpt lat="45.86679" lon="4.72023">
        <ele>197</ele>
        <time>2017-05-05T10:54:54Z</time>
      </trkpt>
      <trkpt lat="45.86684" lon="4.72027">
        <ele>197</ele>
        <time>2017-05-05T10:54:55Z</time>
      </trkpt>
      <trkpt lat="45.86688" lon="4.7203">
        <ele>197</ele>
        <time>2017-05-05T10:54:56Z</time>
      </trkpt>
      <trkpt lat="45.86693" lon="4.72034">
        <ele>197</ele>
        <time>2017-05-05T10:54:57Z</time>
      </trkpt>
      <trkpt lat="45.86698" lon="4.72038">
        <ele>197</ele>
        <time>2017-05-05T10:54:58Z</time>
      </trkpt>
      <trkpt lat="45.86703" lon="4.72043">
        <ele>197</ele>
        <time>2017-05-05T10:54:59Z</time>
      </trkpt>
      <trkpt lat="45.86709" lon="4.72047">
        <ele>197</ele>
        <time>2017-05-05T10:55:00Z</time>
      </trkpt>
      <trkpt lat="45.86714" lon="4.7205">
        <ele>197</ele>
        <time>2017-05-05T10:55:01Z</time>
      </trkpt>
      <trkpt lat="45.86719" lon="4.72054">
        <ele>197</ele>
        <time>2017-05-05T10:55:02Z</time>
      </trkpt>
      <trkpt lat="45.86725" lon="4.72058">
        <ele>197</ele>
        <time>2017-05-05T10:55:03Z</time>
      </trkpt>
      <trkpt lat="45.86731" lon="4.72061">
        <ele>197</ele>
        <time>2017-05-05T10:55:04Z</time>
      </trkpt>
      <trkpt lat="45.86737" lon="4.72065">
        <ele>197</ele>
        <time>2017-05-05T10:55:05Z</time>
      </trkpt>
      <trkpt lat="45.86743" lon="4.72068">
        <ele>197</ele>
        <time>2017-05-05T10:55:06Z</time>
      </trkpt>
      <trkpt lat="45.86749" lon="4.72071">
        <ele>196</ele>
        <time>2017-05-05T10:55:07Z</time>
      </trkpt>
      <trkpt lat="45.86755" lon="4.72074">
        <ele>195</ele>
        <time>2017-05-05T10:55:08Z</time>
      </trkpt>
      <trkpt lat="45.86762" lon="4.72077">
        <ele>195</ele>
        <time>2017-05-05T10:55:09Z</time>
      </trkpt>
      <trkpt lat="45.86768" lon="4.7208">
        <ele>195</ele>
        <time>2017-05-05T10:55:10Z</time>
      </trkpt>
      <trkpt lat="45.86774" lon="4.72082">
        <ele>195</ele>
        <time>2017-05-05T10:55:11Z</time>
      </trkpt>
      <trkpt lat="45.8678" lon="4.72085">
        <ele>201</ele>
        <time>2017-05-05T10:55:12Z</time>
      </trkpt>
      <trkpt lat="45.86786" lon="4.72087">
        <ele>201</ele>
        <time>2017-05-05T10:55:13Z</time>
      </trkpt>
      <trkpt lat="45.86791" lon="4.72089">
        <ele>201</ele>
        <time>2017-05-05T10:55:14Z</time>
      </trkpt>
      <trkpt lat="45.86797" lon="4.72091">
        <ele>201</ele>
        <time>2017-05-05T10:55:15Z</time>
      </trkpt>
      <trkpt lat="45.86802" lon="4.72093">
        <ele>201</ele>
        <time>2017-05-05T10:55:16Z</time>
      </trkpt>
      <trkpt lat="45.86807" lon="4.72094">
        <ele>201</ele>
        <time>2017-05-05T10:55:17Z</time>
      </trkpt>
      <trkpt lat="45.86812" lon="4.72096">
        <ele>201</ele>
        <time>2017-05-05T10:55:18Z</time>
      </trkpt>
      <trkpt lat="45.86817" lon="4.72098">
        <ele>200</ele>
        <time>2017-05-05T10:55:19Z</time>
      </trkpt>
      <trkpt lat="45.86823" lon="4.721">
        <ele>200</ele>
        <time>2017-05-05T10:55:20Z</time>
      </trkpt>
      <trkpt lat="45.86828" lon="4.72102">
        <ele>200</ele>
        <time>2017-05-05T10:55:21Z</time>
      </trkpt>
      <trkpt lat="45.86834" lon="4.72104">
        <ele>199</ele>
        <time>2017-05-05T10:55:22Z</time>
      </trkpt>
      <trkpt lat="45.8684" lon="4.72106">
        <ele>199</ele>
        <time>2017-05-05T10:55:23Z</time>
      </trkpt>
      <trkpt lat="45.86846" lon="4.72108">
        <ele>200</ele>
        <time>2017-05-05T10:55:24Z</time>
      </trkpt>
      <trkpt lat="45.86851" lon="4.7211">
        <ele>201</ele>
        <time>2017-05-05T10:55:25Z</time>
      </trkpt>
      <trkpt lat="45.86856" lon="4.72113">
        <ele>201</ele>
        <time>2017-05-05T10:55:26Z</time>
      </trkpt>
      <trkpt lat="45.86861" lon="4.72115">
        <ele>201</ele>
        <time>2017-05-05T10:55:27Z</time>
      </trkpt>
      <trkpt lat="45.86866" lon="4.72117">
        <ele>202</ele>
        <time>2017-05-05T10:55:28Z</time>
      </trkpt>
      <trkpt lat="45.86871" lon="4.72118">
        <ele>202</ele>
        <time>2017-05-05T10:55:29Z</time>
      </trkpt>
      <trkpt lat="45.86876" lon="4.72121">
        <ele>202</ele>
        <time>2017-05-05T10:55:30Z</time>
      </trkpt>
      <trkpt lat="45.8688" lon="4.72123">
        <ele>202</ele>
        <time>2017-05-05T10:55:31Z</time>
      </trkpt>
      <trkpt lat="45.86885" lon="4.72125">
        <ele>203</ele>
        <time>2017-05-05T10:55:32Z</time>
      </trkpt>
      <trkpt lat="45.8689" lon="4.72127">
        <ele>203</ele>
        <time>2017-05-05T10:55:33Z</time>
      </trkpt>
      <trkpt lat="45.86895" lon="4.72129">
        <ele>203</ele>
        <time>2017-05-05T10:55:34Z</time>
      </trkpt>
      <trkpt lat="45.86899" lon="4.7213">
        <ele>203</ele>
        <time>2017-05-05T10:55:35Z</time>
      </trkpt>
      <trkpt lat="45.86904" lon="4.72132">
        <ele>204</ele>
        <time>2017-05-05T10:55:36Z</time>
      </trkpt>
      <trkpt lat="45.86909" lon="4.72134">
        <ele>204</ele>
        <time>2017-05-05T10:55:37Z</time>
      </trkpt>
      <trkpt lat="45.86914" lon="4.72136">
        <ele>204</ele>
        <time>2017-05-05T10:55:38Z</time>
      </trkpt>
      <trkpt lat="45.86918" lon="4.72139">
        <ele>203</ele>
        <time>2017-05-05T10:55:39Z</time>
      </trkpt>
      <trkpt lat="45.86923" lon="4.72142">
        <ele>203</ele>
        <time>2017-05-05T10:55:40Z</time>
      </trkpt>
      <trkpt lat="45.86927" lon="4.72144">
        <ele>203</ele>
        <time>2017-05-05T10:55:41Z</time>
      </trkpt>
      <trkpt lat="45.86932" lon="4.72147">
        <ele>203</ele>
        <time>2017-05-05T10:55:42Z</time>
      </trkpt>
      <trkpt lat="45.86938" lon="4.7215">
        <ele>203</ele>
        <time>2017-05-05T10:55:43Z</time>
      </trkpt>
      <trkpt lat="45.86943" lon="4.72153">
        <ele>203</ele>
        <time>2017-05-05T10:55:44Z</time>
      </trkpt>
      <trkpt lat="45.86948" lon="4.72156">
        <ele>202</ele>
        <time>2017-05-05T10:55:45Z</time>
      </trkpt>
      <trkpt lat="45.86953" lon="4.72158">
        <ele>202</ele>
        <time>2017-05-05T10:55:46Z</time>
      </trkpt>
      <trkpt lat="45.86958" lon="4.7216">
        <ele>202</ele>
        <time>2017-05-05T10:55:47Z</time>
      </trkpt>
      <trkpt lat="45.86962" lon="4.72163">
        <ele>201</ele>
        <time>2017-05-05T10:55:48Z</time>
      </trkpt>
      <trkpt lat="45.86966" lon="4.72165">
        <ele>201</ele>
        <time>2017-05-05T10:55:49Z</time>
      </trkpt>
      <trkpt lat="45.86971" lon="4.72168">
        <ele>209</ele>
        <time>2017-05-05T10:55:50Z</time>
      </trkpt>
      <trkpt lat="45.86975" lon="4.7217">
        <ele>208</ele>
        <time>2017-05-05T10:55:51Z</time>
      </trkpt>
      <trkpt lat="45.8698" lon="4.72173">
        <ele>208</ele>
        <time>2017-05-05T10:55:52Z</time>
      </trkpt>
      <trkpt lat="45.86984" lon="4.72176">
        <ele>207</ele>
        <time>2017-05-05T10:55:53Z</time>
      </trkpt>
      <trkpt lat="45.86989" lon="4.7218">
        <ele>207</ele>
        <time>2017-05-05T10:55:54Z</time>
      </trkpt>
      <trkpt lat="45.86993" lon="4.72183">
        <ele>207</ele>
        <time>2017-05-05T10:55:55Z</time>
      </trkpt>
      <trkpt lat="45.86998" lon="4.72186">
        <ele>207</ele>
        <time>2017-05-05T10:55:56Z</time>
      </trkpt>
      <trkpt lat="45.87002" lon="4.72189">
        <ele>202</ele>
        <time>2017-05-05T10:55:57Z</time>
      </trkpt>
      <trkpt lat="45.87007" lon="4.72193">
        <ele>202</ele>
        <time>2017-05-05T10:55:58Z</time>
      </trkpt>
      <trkpt lat="45.87011" lon="4.72196">
        <ele>202</ele>
        <time>2017-05-05T10:55:59Z</time>
      </trkpt>
      <trkpt lat="45.87016" lon="4.722">
        <ele>202</ele>
        <time>2017-05-05T10:56:00Z</time>
      </trkpt>
      <trkpt lat="45.8702" lon="4.72204">
        <ele>202</ele>
        <time>2017-05-05T10:56:01Z</time>
      </trkpt>
      <trkpt lat="45.87025" lon="4.72207">
        <ele>202</ele>
        <time>2017-05-05T10:56:02Z</time>
      </trkpt>
      <trkpt lat="45.87029" lon="4.72209">
        <ele>202</ele>
        <time>2017-05-05T10:56:03Z</time>
      </trkpt>
      <trkpt lat="45.87033" lon="4.72212">
        <ele>202</ele>
        <time>2017-05-05T10:56:04Z</time>
      </trkpt>
      <trkpt lat="45.87038" lon="4.72215">
        <ele>202</ele>
        <time>2017-05-05T10:56:05Z</time>
      </trkpt>
      <trkpt lat="45.87042" lon="4.72218">
        <ele>201</ele>
        <time>2017-05-05T10:56:06Z</time>
      </trkpt>
      <trkpt lat="45.87047" lon="4.72222">
        <ele>201</ele>
        <time>2017-05-05T10:56:07Z</time>
      </trkpt>
      <trkpt lat="45.87051" lon="4.72226">
        <ele>201</ele>
        <time>2017-05-05T10:56:08Z</time>
      </trkpt>
      <trkpt lat="45.87055" lon="4.7223">
        <ele>201</ele>
        <time>2017-05-05T10:56:09Z</time>
      </trkpt>
      <trkpt lat="45.87059" lon="4.72234">
        <ele>201</ele>
        <time>2017-05-05T10:56:10Z</time>
      </trkpt>
      <trkpt lat="45.87062" lon="4.72238">
        <ele>201</ele>
        <time>2017-05-05T10:56:11Z</time>
      </trkpt>
      <trkpt lat="45.87067" lon="4.72242">
        <ele>200</ele>
        <time>2017-05-05T10:56:12Z</time>
      </trkpt>
      <trkpt lat="45.87071" lon="4.72247">
        <ele>200</ele>
        <time>2017-05-05T10:56:13Z</time>
      </trkpt>
      <trkpt lat="45.87075" lon="4.72252">
        <ele>202</ele>
        <time>2017-05-05T10:56:14Z</time>
      </trkpt>
      <trkpt lat="45.87079" lon="4.72256">
        <ele>202</ele>
        <time>2017-05-05T10:56:15Z</time>
      </trkpt>
      <trkpt lat="45.87083" lon="4.72262">
        <ele>203</ele>
        <time>2017-05-05T10:56:16Z</time>
      </trkpt>
      <trkpt lat="45.87087" lon="4.72267">
        <ele>198</ele>
        <time>2017-05-05T10:56:17Z</time>
      </trkpt>
      <trkpt lat="45.87092" lon="4.72272">
        <ele>198</ele>
        <time>2017-05-05T10:56:18Z</time>
      </trkpt>
      <trkpt lat="45.87097" lon="4.72278">
        <ele>198</ele>
        <time>2017-05-05T10:56:19Z</time>
      </trkpt>
      <trkpt lat="45.87101" lon="4.72284">
        <ele>198</ele>
        <time>2017-05-05T10:56:20Z</time>
      </trkpt>
      <trkpt lat="45.87106" lon="4.7229">
        <ele>197</ele>
        <time>2017-05-05T10:56:21Z</time>
      </trkpt>
      <trkpt lat="45.8711" lon="4.72297">
        <ele>197</ele>
        <time>2017-05-05T10:56:22Z</time>
      </trkpt>
      <trkpt lat="45.87114" lon="4.72303">
        <ele>197</ele>
        <time>2017-05-05T10:56:23Z</time>
      </trkpt>
      <trkpt lat="45.87118" lon="4.7231">
        <ele>197</ele>
        <time>2017-05-05T10:56:24Z</time>
      </trkpt>
      <trkpt lat="45.87121" lon="4.72317">
        <ele>197</ele>
        <time>2017-05-05T10:56:25Z</time>
      </trkpt>
      <trkpt lat="45.87124" lon="4.72323">
        <ele>197</ele>
        <time>2017-05-05T10:56:26Z</time>
      </trkpt>
      <trkpt lat="45.87127" lon="4.7233">
        <ele>196</ele>
        <time>2017-05-05T10:56:27Z</time>
      </trkpt>
      <trkpt lat="45.8713" lon="4.72336">
        <ele>198</ele>
        <time>2017-05-05T10:56:28Z</time>
      </trkpt>
      <trkpt lat="45.87133" lon="4.72342">
        <ele>198</ele>
        <time>2017-05-05T10:56:29Z</time>
      </trkpt>
      <trkpt lat="45.87135" lon="4.72348">
        <ele>198</ele>
        <time>2017-05-05T10:56:30Z</time>
      </trkpt>
      <trkpt lat="45.87138" lon="4.72354">
        <ele>198</ele>
        <time>2017-05-05T10:56:31Z</time>
      </trkpt>
      <trkpt lat="45.8714" lon="4.7236">
        <ele>198</ele>
        <time>2017-05-05T10:56:32Z</time>
      </trkpt>
      <trkpt lat="45.87142" lon="4.72366">
        <ele>198</ele>
        <time>2017-05-05T10:56:33Z</time>
      </trkpt>
      <trkpt lat="45.87145" lon="4.72371">
        <ele>198</ele>
        <time>2017-05-05T10:56:34Z</time>
      </trkpt>
      <trkpt lat="45.87148" lon="4.72377">
        <ele>198</ele>
        <time>2017-05-05T10:56:35Z</time>
      </trkpt>
      <trkpt lat="45.8715" lon="4.72383">
        <ele>197</ele>
        <time>2017-05-05T10:56:36Z</time>
      </trkpt>
      <trkpt lat="45.87153" lon="4.72389">
        <ele>197</ele>
        <time>2017-05-05T10:56:37Z</time>
      </trkpt>
      <trkpt lat="45.87155" lon="4.72395">
        <ele>197</ele>
        <time>2017-05-05T10:56:38Z</time>
      </trkpt>
      <trkpt lat="45.87157" lon="4.724">
        <ele>197</ele>
        <time>2017-05-05T10:56:39Z</time>
      </trkpt>
      <trkpt lat="45.8716" lon="4.72406">
        <ele>196</ele>
        <time>2017-05-05T10:56:40Z</time>
      </trkpt>
      <trkpt lat="45.87164" lon="4.72416">
        <ele>195</ele>
        <time>2017-05-05T10:56:42Z</time>
      </trkpt>
      <trkpt lat="45.87167" lon="4.72421">
        <ele>194</ele>
        <time>2017-05-05T10:56:43Z</time>
      </trkpt>
      <trkpt lat="45.8717" lon="4.72425">
        <ele>194</ele>
        <time>2017-05-05T10:56:44Z</time>
      </trkpt>
      <trkpt lat="45.87174" lon="4.72429">
        <ele>194</ele>
        <time>2017-05-05T10:56:45Z</time>
      </trkpt>
      <trkpt lat="45.87178" lon="4.72432">
        <ele>194</ele>
        <time>2017-05-05T10:56:46Z</time>
      </trkpt>
      <trkpt lat="45.87182" lon="4.72436">
        <ele>194</ele>
        <time>2017-05-05T10:56:47Z</time>
      </trkpt>
      <trkpt lat="45.87187" lon="4.72441">
        <ele>194</ele>
        <time>2017-05-05T10:56:48Z</time>
      </trkpt>
      <trkpt lat="45.87191" lon="4.72447">
        <ele>194</ele>
        <time>2017-05-05T10:56:49Z</time>
      </trkpt>
      <trkpt lat="45.87195" lon="4.72454">
        <ele>194</ele>
        <time>2017-05-05T10:56:50Z</time>
      </trkpt>
      <trkpt lat="45.87199" lon="4.7246">
        <ele>194</ele>
        <time>2017-05-05T10:56:51Z</time>
      </trkpt>
      <trkpt lat="45.87203" lon="4.72467">
        <ele>195</ele>
        <time>2017-05-05T10:56:52Z</time>
      </trkpt>
      <trkpt lat="45.87208" lon="4.72474">
        <ele>195</ele>
        <time>2017-05-05T10:56:53Z</time>
      </trkpt>
      <trkpt lat="45.87213" lon="4.72481">
        <ele>195</ele>
        <time>2017-05-05T10:56:54Z</time>
      </trkpt>
      <trkpt lat="45.87217" lon="4.72487">
        <ele>194</ele>
        <time>2017-05-05T10:56:55Z</time>
      </trkpt>
      <trkpt lat="45.87221" lon="4.72494">
        <ele>194</ele>
        <time>2017-05-05T10:56:56Z</time>
      </trkpt>
      <trkpt lat="45.87225" lon="4.725">
        <ele>197</ele>
        <time>2017-05-05T10:56:57Z</time>
      </trkpt>
      <trkpt lat="45.87228" lon="4.72507">
        <ele>196</ele>
        <time>2017-05-05T10:56:58Z</time>
      </trkpt>
      <trkpt lat="45.87232" lon="4.72514">
        <ele>196</ele>
        <time>2017-05-05T10:56:59Z</time>
      </trkpt>
      <trkpt lat="45.87236" lon="4.7252">
        <ele>196</ele>
        <time>2017-05-05T10:57:00Z</time>
      </trkpt>
      <trkpt lat="45.87239" lon="4.72525">
        <ele>196</ele>
        <time>2017-05-05T10:57:01Z</time>
      </trkpt>
      <trkpt lat="45.87244" lon="4.72535">
        <ele>197</ele>
        <time>2017-05-05T10:57:03Z</time>
      </trkpt>
      <trkpt lat="45.87246" lon="4.72541">
        <ele>197</ele>
        <time>2017-05-05T10:57:04Z</time>
      </trkpt>
      <trkpt lat="45.87248" lon="4.72546">
        <ele>197</ele>
        <time>2017-05-05T10:57:05Z</time>
      </trkpt>
      <trkpt lat="45.87251" lon="4.72553">
        <ele>194</ele>
        <time>2017-05-05T10:57:06Z</time>
      </trkpt>
      <trkpt lat="45.87255" lon="4.72559">
        <ele>194</ele>
        <time>2017-05-05T10:57:07Z</time>
      </trkpt>
      <trkpt lat="45.87259" lon="4.72565">
        <ele>195</ele>
        <time>2017-05-05T10:57:08Z</time>
      </trkpt>
      <trkpt lat="45.87263" lon="4.72572">
        <ele>195</ele>
        <time>2017-05-05T10:57:09Z</time>
      </trkpt>
      <trkpt lat="45.87267" lon="4.72578">
        <ele>195</ele>
        <time>2017-05-05T10:57:10Z</time>
      </trkpt>
      <trkpt lat="45.87271" lon="4.72585">
        <ele>195</ele>
        <time>2017-05-05T10:57:11Z</time>
      </trkpt>
      <trkpt lat="45.87277" lon="4.72591">
        <ele>195</ele>
        <time>2017-05-05T10:57:12Z</time>
      </trkpt>
      <trkpt lat="45.87282" lon="4.72597">
        <ele>194</ele>
        <time>2017-05-05T10:57:13Z</time>
      </trkpt>
      <trkpt lat="45.87286" lon="4.72603">
        <ele>194</ele>
        <time>2017-05-05T10:57:14Z</time>
      </trkpt>
      <trkpt lat="45.87291" lon="4.7261">
        <ele>194</ele>
        <time>2017-05-05T10:57:15Z</time>
      </trkpt>
      <trkpt lat="45.87296" lon="4.72616">
        <ele>194</ele>
        <time>2017-05-05T10:57:16Z</time>
      </trkpt>
      <trkpt lat="45.873" lon="4.72622">
        <ele>193</ele>
        <time>2017-05-05T10:57:17Z</time>
      </trkpt>
      <trkpt lat="45.87305" lon="4.72627">
        <ele>193</ele>
        <time>2017-05-05T10:57:18Z</time>
      </trkpt>
      <trkpt lat="45.87309" lon="4.72633">
        <ele>193</ele>
        <time>2017-05-05T10:57:19Z</time>
      </trkpt>
      <trkpt lat="45.87314" lon="4.72639">
        <ele>193</ele>
        <time>2017-05-05T10:57:20Z</time>
      </trkpt>
      <trkpt lat="45.87318" lon="4.72644">
        <ele>192</ele>
        <time>2017-05-05T10:57:21Z</time>
      </trkpt>
      <trkpt lat="45.87322" lon="4.7265">
        <ele>192</ele>
        <time>2017-05-05T10:57:22Z</time>
      </trkpt>
      <trkpt lat="45.87326" lon="4.72655">
        <ele>192</ele>
        <time>2017-05-05T10:57:23Z</time>
      </trkpt>
      <trkpt lat="45.8733" lon="4.72659">
        <ele>191</ele>
        <time>2017-05-05T10:57:24Z</time>
      </trkpt>
      <trkpt lat="45.87334" lon="4.72663">
        <ele>190</ele>
        <time>2017-05-05T10:57:25Z</time>
      </trkpt>
      <trkpt lat="45.87338" lon="4.72668">
        <ele>190</ele>
        <time>2017-05-05T10:57:26Z</time>
      </trkpt>
      <trkpt lat="45.87342" lon="4.72671">
        <ele>190</ele>
        <time>2017-05-05T10:57:27Z</time>
      </trkpt>
      <trkpt lat="45.87346" lon="4.72675">
        <ele>190</ele>
        <time>2017-05-05T10:57:28Z</time>
      </trkpt>
      <trkpt lat="45.8735" lon="4.72678">
        <ele>190</ele>
        <time>2017-05-05T10:57:29Z</time>
      </trkpt>
      <trkpt lat="45.87354" lon="4.72681">
        <ele>190</ele>
        <time>2017-05-05T10:57:30Z</time>
      </trkpt>
      <trkpt lat="45.87358" lon="4.72686">
        <ele>190</ele>
        <time>2017-05-05T10:57:31Z</time>
      </trkpt>
      <trkpt lat="45.87362" lon="4.7269">
        <ele>190</ele>
        <time>2017-05-05T10:57:32Z</time>
      </trkpt>
      <trkpt lat="45.87365" lon="4.72695">
        <ele>190</ele>
        <time>2017-05-05T10:57:33Z</time>
      </trkpt>
      <trkpt lat="45.87369" lon="4.727">
        <ele>190</ele>
        <time>2017-05-05T10:57:34Z</time>
      </trkpt>
      <trkpt lat="45.87372" lon="4.72705">
        <ele>190</ele>
        <time>2017-05-05T10:57:35Z</time>
      </trkpt>
      <trkpt lat="45.87376" lon="4.72711">
        <ele>190</ele>
        <time>2017-05-05T10:57:36Z</time>
      </trkpt>
      <trkpt lat="45.87379" lon="4.72717">
        <ele>190</ele>
        <time>2017-05-05T10:57:37Z</time>
      </trkpt>
      <trkpt lat="45.87382" lon="4.72723">
        <ele>190</ele>
        <time>2017-05-05T10:57:38Z</time>
      </trkpt>
      <trkpt lat="45.87385" lon="4.7273">
        <ele>190</ele>
        <time>2017-05-05T10:57:39Z</time>
      </trkpt>
      <trkpt lat="45.87388" lon="4.72737">
        <ele>190</ele>
        <time>2017-05-05T10:57:40Z</time>
      </trkpt>
      <trkpt lat="45.87392" lon="4.72743">
        <ele>190</ele>
        <time>2017-05-05T10:57:41Z</time>
      </trkpt>
      <trkpt lat="45.87397" lon="4.72749">
        <ele>189</ele>
        <time>2017-05-05T10:57:42Z</time>
      </trkpt>
      <trkpt lat="45.87401" lon="4.72756">
        <ele>189</ele>
        <time>2017-05-05T10:57:43Z</time>
      </trkpt>
      <trkpt lat="45.87405" lon="4.72762">
        <ele>189</ele>
        <time>2017-05-05T10:57:44Z</time>
      </trkpt>
      <trkpt lat="45.87409" lon="4.72769">
        <ele>189</ele>
        <time>2017-05-05T10:57:45Z</time>
      </trkpt>
      <trkpt lat="45.87412" lon="4.72775">
        <ele>189</ele>
        <time>2017-05-05T10:57:46Z</time>
      </trkpt>
      <trkpt lat="45.87415" lon="4.72782">
        <ele>189</ele>
        <time>2017-05-05T10:57:47Z</time>
      </trkpt>
      <trkpt lat="45.87418" lon="4.72788">
        <ele>189</ele>
        <time>2017-05-05T10:57:48Z</time>
      </trkpt>
      <trkpt lat="45.8742" lon="4.72794">
        <ele>189</ele>
        <time>2017-05-05T10:57:49Z</time>
      </trkpt>
      <trkpt lat="45.87423" lon="4.72801">
        <ele>189</ele>
        <time>2017-05-05T10:57:50Z</time>
      </trkpt>
      <trkpt lat="45.87426" lon="4.72807">
        <ele>189</ele>
        <time>2017-05-05T10:57:51Z</time>
      </trkpt>
      <trkpt lat="45.87428" lon="4.72813">
        <ele>189</ele>
        <time>2017-05-05T10:57:52Z</time>
      </trkpt>
      <trkpt lat="45.87431" lon="4.7282">
        <ele>189</ele>
        <time>2017-05-05T10:57:53Z</time>
      </trkpt>
      <trkpt lat="45.87434" lon="4.72825">
        <ele>189</ele>
        <time>2017-05-05T10:57:54Z</time>
      </trkpt>
      <trkpt lat="45.87436" lon="4.72831">
        <ele>189</ele>
        <time>2017-05-05T10:57:55Z</time>
      </trkpt>
      <trkpt lat="45.87439" lon="4.72837">
        <ele>188</ele>
        <time>2017-05-05T10:57:56Z</time>
      </trkpt>
      <trkpt lat="45.87442" lon="4.72843">
        <ele>188</ele>
        <time>2017-05-05T10:57:57Z</time>
      </trkpt>
      <trkpt lat="45.87444" lon="4.7285">
        <ele>188</ele>
        <time>2017-05-05T10:57:58Z</time>
      </trkpt>
      <trkpt lat="45.87447" lon="4.72857">
        <ele>188</ele>
        <time>2017-05-05T10:57:59Z</time>
      </trkpt>
      <trkpt lat="45.87449" lon="4.72864">
        <ele>188</ele>
        <time>2017-05-05T10:58:00Z</time>
      </trkpt>
      <trkpt lat="45.87452" lon="4.72871">
        <ele>188</ele>
        <time>2017-05-05T10:58:01Z</time>
      </trkpt>
      <trkpt lat="45.87455" lon="4.72878">
        <ele>188</ele>
        <time>2017-05-05T10:58:02Z</time>
      </trkpt>
      <trkpt lat="45.87457" lon="4.72885">
        <ele>188</ele>
        <time>2017-05-05T10:58:03Z</time>
      </trkpt>
      <trkpt lat="45.87459" lon="4.72892">
        <ele>188</ele>
        <time>2017-05-05T10:58:04Z</time>
      </trkpt>
      <trkpt lat="45.87461" lon="4.72898">
        <ele>188</ele>
        <time>2017-05-05T10:58:05Z</time>
      </trkpt>
      <trkpt lat="45.87463" lon="4.72905">
        <ele>188</ele>
        <time>2017-05-05T10:58:06Z</time>
      </trkpt>
      <trkpt lat="45.87465" lon="4.72912">
        <ele>188</ele>
        <time>2017-05-05T10:58:07Z</time>
      </trkpt>
      <trkpt lat="45.87468" lon="4.7292">
        <ele>188</ele>
        <time>2017-05-05T10:58:08Z</time>
      </trkpt>
      <trkpt lat="45.87471" lon="4.72926">
        <ele>188</ele>
        <time>2017-05-05T10:58:09Z</time>
      </trkpt>
      <trkpt lat="45.87475" lon="4.72933">
        <ele>188</ele>
        <time>2017-05-05T10:58:10Z</time>
      </trkpt>
      <trkpt lat="45.8748" lon="4.72938">
        <ele>188</ele>
        <time>2017-05-05T10:58:11Z</time>
      </trkpt>
      <trkpt lat="45.87486" lon="4.72942">
        <ele>188</ele>
        <time>2017-05-05T10:58:12Z</time>
      </trkpt>
      <trkpt lat="45.87492" lon="4.72946">
        <ele>188</ele>
        <time>2017-05-05T10:58:13Z</time>
      </trkpt>
      <trkpt lat="45.87497" lon="4.72951">
        <ele>188</ele>
        <time>2017-05-05T10:58:14Z</time>
      </trkpt>
      <trkpt lat="45.87503" lon="4.72956">
        <ele>187</ele>
        <time>2017-05-05T10:58:15Z</time>
      </trkpt>
      <trkpt lat="45.87508" lon="4.72961">
        <ele>187</ele>
        <time>2017-05-05T10:58:16Z</time>
      </trkpt>
      <trkpt lat="45.87513" lon="4.72967">
        <ele>187</ele>
        <time>2017-05-05T10:58:17Z</time>
      </trkpt>
      <trkpt lat="45.87516" lon="4.72974">
        <ele>187</ele>
        <time>2017-05-05T10:58:18Z</time>
      </trkpt>
      <trkpt lat="45.87519" lon="4.72982">
        <ele>187</ele>
        <time>2017-05-05T10:58:19Z</time>
      </trkpt>
      <trkpt lat="45.87522" lon="4.72989">
        <ele>187</ele>
        <time>2017-05-05T10:58:20Z</time>
      </trkpt>
      <trkpt lat="45.87526" lon="4.72996">
        <ele>187</ele>
        <time>2017-05-05T10:58:21Z</time>
      </trkpt>
      <trkpt lat="45.87529" lon="4.73003">
        <ele>187</ele>
        <time>2017-05-05T10:58:22Z</time>
      </trkpt>
      <trkpt lat="45.87532" lon="4.7301">
        <ele>187</ele>
        <time>2017-05-05T10:58:23Z</time>
      </trkpt>
      <trkpt lat="45.87535" lon="4.73016">
        <ele>187</ele>
        <time>2017-05-05T10:58:24Z</time>
      </trkpt>
      <trkpt lat="45.87537" lon="4.73023">
        <ele>187</ele>
        <time>2017-05-05T10:58:25Z</time>
      </trkpt>
      <trkpt lat="45.8754" lon="4.73029">
        <ele>187</ele>
        <time>2017-05-05T10:58:26Z</time>
      </trkpt>
      <trkpt lat="45.87543" lon="4.73036">
        <ele>188</ele>
        <time>2017-05-05T10:58:27Z</time>
      </trkpt>
      <trkpt lat="45.87547" lon="4.73042">
        <ele>188</ele>
        <time>2017-05-05T10:58:28Z</time>
      </trkpt>
      <trkpt lat="45.8755" lon="4.73049">
        <ele>188</ele>
        <time>2017-05-05T10:58:29Z</time>
      </trkpt>
      <trkpt lat="45.87553" lon="4.73055">
        <ele>188</ele>
        <time>2017-05-05T10:58:30Z</time>
      </trkpt>
      <trkpt lat="45.87556" lon="4.73062">
        <ele>188</ele>
        <time>2017-05-05T10:58:31Z</time>
      </trkpt>
      <trkpt lat="45.8756" lon="4.73069">
        <ele>188</ele>
        <time>2017-05-05T10:58:32Z</time>
      </trkpt>
      <trkpt lat="45.87563" lon="4.73076">
        <ele>188</ele>
        <time>2017-05-05T10:58:33Z</time>
      </trkpt>
      <trkpt lat="45.87567" lon="4.73082">
        <ele>188</ele>
        <time>2017-05-05T10:58:34Z</time>
      </trkpt>
      <trkpt lat="45.87571" lon="4.73089">
        <ele>188</ele>
        <time>2017-05-05T10:58:35Z</time>
      </trkpt>
      <trkpt lat="45.87574" lon="4.73097">
        <ele>188</ele>
        <time>2017-05-05T10:58:36Z</time>
      </trkpt>
      <trkpt lat="45.87578" lon="4.73103">
        <ele>188</ele>
        <time>2017-05-05T10:58:37Z</time>
      </trkpt>
      <trkpt lat="45.87581" lon="4.7311">
        <ele>187</ele>
        <time>2017-05-05T10:58:38Z</time>
      </trkpt>
      <trkpt lat="45.87584" lon="4.73117">
        <ele>188</ele>
        <time>2017-05-05T10:58:39Z</time>
      </trkpt>
      <trkpt lat="45.87587" lon="4.73124">
        <ele>188</ele>
        <time>2017-05-05T10:58:40Z</time>
      </trkpt>
      <trkpt lat="45.8759" lon="4.73129">
        <ele>187</ele>
        <time>2017-05-05T10:58:41Z</time>
      </trkpt>
      <trkpt lat="45.87593" lon="4.73135">
        <ele>187</ele>
        <time>2017-05-05T10:58:42Z</time>
      </trkpt>
      <trkpt lat="45.87596" lon="4.7314">
        <ele>187</ele>
        <time>2017-05-05T10:58:43Z</time>
      </trkpt>
      <trkpt lat="45.87599" lon="4.73145">
        <ele>187</ele>
        <time>2017-05-05T10:58:44Z</time>
      </trkpt>
      <trkpt lat="45.87602" lon="4.7315">
        <ele>187</ele>
        <time>2017-05-05T10:58:45Z</time>
      </trkpt>
      <trkpt lat="45.87605" lon="4.73156">
        <ele>187</ele>
        <time>2017-05-05T10:58:46Z</time>
      </trkpt>
      <trkpt lat="45.87607" lon="4.73161">
        <ele>187</ele>
        <time>2017-05-05T10:58:47Z</time>
      </trkpt>
      <trkpt lat="45.8761" lon="4.73167">
        <ele>187</ele>
        <time>2017-05-05T10:58:48Z</time>
      </trkpt>
      <trkpt lat="45.87613" lon="4.73172">
        <ele>187</ele>
        <time>2017-05-05T10:58:49Z</time>
      </trkpt>
      <trkpt lat="45.87616" lon="4.73178">
        <ele>187</ele>
        <time>2017-05-05T10:58:50Z</time>
      </trkpt>
      <trkpt lat="45.87619" lon="4.73183">
        <ele>188</ele>
        <time>2017-05-05T10:58:51Z</time>
      </trkpt>
      <trkpt lat="45.87622" lon="4.73189">
        <ele>188</ele>
        <time>2017-05-05T10:58:52Z</time>
      </trkpt>
      <trkpt lat="45.87624" lon="4.73194">
        <ele>188</ele>
        <time>2017-05-05T10:58:53Z</time>
      </trkpt>
      <trkpt lat="45.87627" lon="4.732">
        <ele>188</ele>
        <time>2017-05-05T10:58:54Z</time>
      </trkpt>
      <trkpt lat="45.8763" lon="4.73206">
        <ele>188</ele>
        <time>2017-05-05T10:58:55Z</time>
      </trkpt>
      <trkpt lat="45.87633" lon="4.73212">
        <ele>188</ele>
        <time>2017-05-05T10:58:56Z</time>
      </trkpt>
      <trkpt lat="45.87636" lon="4.73218">
        <ele>188</ele>
        <time>2017-05-05T10:58:57Z</time>
      </trkpt>
      <trkpt lat="45.87639" lon="4.73223">
        <ele>188</ele>
        <time>2017-05-05T10:58:58Z</time>
      </trkpt>
      <trkpt lat="45.87641" lon="4.73229">
        <ele>188</ele>
        <time>2017-05-05T10:58:59Z</time>
      </trkpt>
      <trkpt lat="45.87644" lon="4.73235">
        <ele>188</ele>
        <time>2017-05-05T10:59:00Z</time>
      </trkpt>
      <trkpt lat="45.87647" lon="4.7324">
        <ele>188</ele>
        <time>2017-05-05T10:59:01Z</time>
      </trkpt>
      <trkpt lat="45.8765" lon="4.73246">
        <ele>188</ele>
        <time>2017-05-05T10:59:02Z</time>
      </trkpt>
      <trkpt lat="45.87655" lon="4.73256">
        <ele>189</ele>
        <time>2017-05-05T10:59:04Z</time>
      </trkpt>
      <trkpt lat="45.87657" lon="4.73261">
        <ele>189</ele>
        <time>2017-05-05T10:59:05Z</time>
      </trkpt>
      <trkpt lat="45.8766" lon="4.73267">
        <ele>189</ele>
        <time>2017-05-05T10:59:06Z</time>
      </trkpt>
      <trkpt lat="45.87662" lon="4.73272">
        <ele>189</ele>
        <time>2017-05-05T10:59:07Z</time>
      </trkpt>
      <trkpt lat="45.87665" lon="4.73277">
        <ele>189</ele>
        <time>2017-05-05T10:59:08Z</time>
      </trkpt>
      <trkpt lat="45.87668" lon="4.73283">
        <ele>188</ele>
        <time>2017-05-05T10:59:09Z</time>
      </trkpt>
      <trkpt lat="45.87671" lon="4.73289">
        <ele>188</ele>
        <time>2017-05-05T10:59:10Z</time>
      </trkpt>
      <trkpt lat="45.87674" lon="4.73295">
        <ele>188</ele>
        <time>2017-05-05T10:59:11Z</time>
      </trkpt>
      <trkpt lat="45.87677" lon="4.73301">
        <ele>188</ele>
        <time>2017-05-05T10:59:12Z</time>
      </trkpt>
      <trkpt lat="45.8768" lon="4.73307">
        <ele>188</ele>
        <time>2017-05-05T10:59:13Z</time>
      </trkpt>
      <trkpt lat="45.87683" lon="4.73313">
        <ele>188</ele>
        <time>2017-05-05T10:59:14Z</time>
      </trkpt>
      <trkpt lat="45.87686" lon="4.7332">
        <ele>188</ele>
        <time>2017-05-05T10:59:15Z</time>
      </trkpt>
      <trkpt lat="45.87689" lon="4.73327">
        <ele>188</ele>
        <time>2017-05-05T10:59:16Z</time>
      </trkpt>
      <trkpt lat="45.87691" lon="4.73333">
        <ele>188</ele>
        <time>2017-05-05T10:59:17Z</time>
      </trkpt>
      <trkpt lat="45.87694" lon="4.7334">
        <ele>188</ele>
        <time>2017-05-05T10:59:18Z</time>
      </trkpt>
      <trkpt lat="45.87697" lon="4.73346">
        <ele>188</ele>
        <time>2017-05-05T10:59:19Z</time>
      </trkpt>
      <trkpt lat="45.877" lon="4.73352">
        <ele>187</ele>
        <time>2017-05-05T10:59:20Z</time>
      </trkpt>
      <trkpt lat="45.87703" lon="4.73358">
        <ele>187</ele>
        <time>2017-05-05T10:59:21Z</time>
      </trkpt>
      <trkpt lat="45.87706" lon="4.73364">
        <ele>187</ele>
        <time>2017-05-05T10:59:22Z</time>
      </trkpt>
      <trkpt lat="45.87709" lon="4.7337">
        <ele>187</ele>
        <time>2017-05-05T10:59:23Z</time>
      </trkpt>
      <trkpt lat="45.87711" lon="4.73375">
        <ele>187</ele>
        <time>2017-05-05T10:59:24Z</time>
      </trkpt>
      <trkpt lat="45.87714" lon="4.73381">
        <ele>188</ele>
        <time>2017-05-05T10:59:25Z</time>
      </trkpt>
      <trkpt lat="45.87719" lon="4.73391">
        <ele>188</ele>
        <time>2017-05-05T10:59:27Z</time>
      </trkpt>
      <trkpt lat="45.87721" lon="4.73396">
        <ele>188</ele>
        <time>2017-05-05T10:59:28Z</time>
      </trkpt>
      <trkpt lat="45.87724" lon="4.73401">
        <ele>188</ele>
        <time>2017-05-05T10:59:29Z</time>
      </trkpt>
      <trkpt lat="45.87726" lon="4.73407">
        <ele>188</ele>
        <time>2017-05-05T10:59:30Z</time>
      </trkpt>
      <trkpt lat="45.87731" lon="4.73418">
        <ele>188</ele>
        <time>2017-05-05T10:59:32Z</time>
      </trkpt>
      <trkpt lat="45.87734" lon="4.73423">
        <ele>188</ele>
        <time>2017-05-05T10:59:33Z</time>
      </trkpt>
      <trkpt lat="45.87736" lon="4.73428">
        <ele>188</ele>
        <time>2017-05-05T10:59:34Z</time>
      </trkpt>
      <trkpt lat="45.87739" lon="4.73434">
        <ele>188</ele>
        <time>2017-05-05T10:59:35Z</time>
      </trkpt>
      <trkpt lat="45.87742" lon="4.7344">
        <ele>189</ele>
        <time>2017-05-05T10:59:36Z</time>
      </trkpt>
      <trkpt lat="45.87745" lon="4.73446">
        <ele>189</ele>
        <time>2017-05-05T10:59:37Z</time>
      </trkpt>
      <trkpt lat="45.87748" lon="4.73452">
        <ele>189</ele>
        <time>2017-05-05T10:59:38Z</time>
      </trkpt>
      <trkpt lat="45.87751" lon="4.73458">
        <ele>188</ele>
        <time>2017-05-05T10:59:39Z</time>
      </trkpt>
      <trkpt lat="45.87753" lon="4.73464">
        <ele>188</ele>
        <time>2017-05-05T10:59:40Z</time>
      </trkpt>
      <trkpt lat="45.87757" lon="4.7347">
        <ele>188</ele>
        <time>2017-05-05T10:59:41Z</time>
      </trkpt>
      <trkpt lat="45.8776" lon="4.73477">
        <ele>188</ele>
        <time>2017-05-05T10:59:42Z</time>
      </trkpt>
      <trkpt lat="45.87763" lon="4.73483">
        <ele>189</ele>
        <time>2017-05-05T10:59:43Z</time>
      </trkpt>
      <trkpt lat="45.87766" lon="4.73489">
        <ele>189</ele>
        <time>2017-05-05T10:59:44Z</time>
      </trkpt>
      <trkpt lat="45.87768" lon="4.73496">
        <ele>189</ele>
        <time>2017-05-05T10:59:45Z</time>
      </trkpt>
      <trkpt lat="45.87771" lon="4.73502">
        <ele>189</ele>
        <time>2017-05-05T10:59:46Z</time>
      </trkpt>
      <trkpt lat="45.87774" lon="4.73507">
        <ele>189</ele>
        <time>2017-05-05T10:59:47Z</time>
      </trkpt>
      <trkpt lat="45.87776" lon="4.73513">
        <ele>189</ele>
        <time>2017-05-05T10:59:48Z</time>
      </trkpt>
      <trkpt lat="45.87779" lon="4.73518">
        <ele>189</ele>
        <time>2017-05-05T10:59:49Z</time>
      </trkpt>
      <trkpt lat="45.87781" lon="4.73523">
        <ele>189</ele>
        <time>2017-05-05T10:59:50Z</time>
      </trkpt>
      <trkpt lat="45.87784" lon="4.73528">
        <ele>189</ele>
        <time>2017-05-05T10:59:51Z</time>
      </trkpt>
      <trkpt lat="45.87787" lon="4.73534">
        <ele>189</ele>
        <time>2017-05-05T10:59:52Z</time>
      </trkpt>
      <trkpt lat="45.87789" lon="4.73539">
        <ele>189</ele>
        <time>2017-05-05T10:59:53Z</time>
      </trkpt>
      <trkpt lat="45.87792" lon="4.73545">
        <ele>189</ele>
        <time>2017-05-05T10:59:54Z</time>
      </trkpt>
      <trkpt lat="45.87795" lon="4.73551">
        <ele>189</ele>
        <time>2017-05-05T10:59:55Z</time>
      </trkpt>
      <trkpt lat="45.87798" lon="4.73557">
        <ele>189</ele>
        <time>2017-05-05T10:59:56Z</time>
      </trkpt>
      <trkpt lat="45.87801" lon="4.73563">
        <ele>189</ele>
        <time>2017-05-05T10:59:57Z</time>
      </trkpt>
      <trkpt lat="45.87804" lon="4.73568">
        <ele>189</ele>
        <time>2017-05-05T10:59:58Z</time>
      </trkpt>
      <trkpt lat="45.87806" lon="4.73574">
        <ele>189</ele>
        <time>2017-05-05T10:59:59Z</time>
      </trkpt>
      <trkpt lat="45.87809" lon="4.7358">
        <ele>189</ele>
        <time>2017-05-05T11:00:00Z</time>
      </trkpt>
      <trkpt lat="45.87812" lon="4.73587">
        <ele>190</ele>
        <time>2017-05-05T11:00:01Z</time>
      </trkpt>
      <trkpt lat="45.87814" lon="4.73593">
        <ele>190</ele>
        <time>2017-05-05T11:00:02Z</time>
      </trkpt>
      <trkpt lat="45.87817" lon="4.73599">
        <ele>190</ele>
        <time>2017-05-05T11:00:03Z</time>
      </trkpt>
      <trkpt lat="45.8782" lon="4.73605">
        <ele>190</ele>
        <time>2017-05-05T11:00:04Z</time>
      </trkpt>
      <trkpt lat="45.87822" lon="4.73611">
        <ele>190</ele>
        <time>2017-05-05T11:00:05Z</time>
      </trkpt>
      <trkpt lat="45.87825" lon="4.73617">
        <ele>190</ele>
        <time>2017-05-05T11:00:06Z</time>
      </trkpt>
      <trkpt lat="45.87827" lon="4.73622">
        <ele>190</ele>
        <time>2017-05-05T11:00:07Z</time>
      </trkpt>
      <trkpt lat="45.87832" lon="4.73632">
        <ele>191</ele>
        <time>2017-05-05T11:00:09Z</time>
      </trkpt>
      <trkpt lat="45.87834" lon="4.73637">
        <ele>191</ele>
        <time>2017-05-05T11:00:10Z</time>
      </trkpt>
      <trkpt lat="45.8784" lon="4.73643">
        <ele>191</ele>
        <time>2017-05-05T11:00:12Z</time>
      </trkpt>
      <trkpt lat="45.87844" lon="4.73643">
        <ele>191</ele>
        <time>2017-05-05T11:00:13Z</time>
      </trkpt>
      <trkpt lat="45.87852" lon="4.73638">
        <ele>191</ele>
        <time>2017-05-05T11:00:15Z</time>
      </trkpt>
      <trkpt lat="45.87855" lon="4.73634">
        <ele>191</ele>
        <time>2017-05-05T11:00:16Z</time>
      </trkpt>
      <trkpt lat="45.87859" lon="4.7363">
        <ele>190</ele>
        <time>2017-05-05T11:00:17Z</time>
      </trkpt>
      <trkpt lat="45.87864" lon="4.73627">
        <ele>190</ele>
        <time>2017-05-05T11:00:18Z</time>
      </trkpt>
      <trkpt lat="45.87869" lon="4.73623">
        <ele>190</ele>
        <time>2017-05-05T11:00:19Z</time>
      </trkpt>
      <trkpt lat="45.87874" lon="4.73621">
        <ele>190</ele>
        <time>2017-05-05T11:00:20Z</time>
      </trkpt>
      <trkpt lat="45.8788" lon="4.73622">
        <ele>190</ele>
        <time>2017-05-05T11:00:21Z</time>
      </trkpt>
      <trkpt lat="45.87885" lon="4.73623">
        <ele>190</ele>
        <time>2017-05-05T11:00:22Z</time>
      </trkpt>
      <trkpt lat="45.8789" lon="4.73624">
        <ele>190</ele>
        <time>2017-05-05T11:00:23Z</time>
      </trkpt>
      <trkpt lat="45.87895" lon="4.73626">
        <ele>190</ele>
        <time>2017-05-05T11:00:24Z</time>
      </trkpt>
      <trkpt lat="45.879" lon="4.73627">
        <ele>190</ele>
        <time>2017-05-05T11:00:25Z</time>
      </trkpt>
      <trkpt lat="45.87905" lon="4.73628">
        <ele>190</ele>
        <time>2017-05-05T11:00:26Z</time>
      </trkpt>
      <trkpt lat="45.87909" lon="4.7363">
        <ele>190</ele>
        <time>2017-05-05T11:00:27Z</time>
      </trkpt>
      <trkpt lat="45.87913" lon="4.73631">
        <ele>190</ele>
        <time>2017-05-05T11:00:28Z</time>
      </trkpt>
      <trkpt lat="45.87922" lon="4.73634">
        <ele>190</ele>
        <time>2017-05-05T11:00:30Z</time>
      </trkpt>
      <trkpt lat="45.87926" lon="4.73635">
        <ele>190</ele>
        <time>2017-05-05T11:00:31Z</time>
      </trkpt>
      <trkpt lat="45.87931" lon="4.73636">
        <ele>190</ele>
        <time>2017-05-05T11:00:32Z</time>
      </trkpt>
      <trkpt lat="45.87935" lon="4.73637">
        <ele>190</ele>
        <time>2017-05-05T11:00:33Z</time>
      </trkpt>
      <trkpt lat="45.8794" lon="4.73639">
        <ele>190</ele>
        <time>2017-05-05T11:00:34Z</time>
      </trkpt>
      <trkpt lat="45.87944" lon="4.7364">
        <ele>190</ele>
        <time>2017-05-05T11:00:35Z</time>
      </trkpt>
      <trkpt lat="45.87949" lon="4.73641">
        <ele>190</ele>
        <time>2017-05-05T11:00:36Z</time>
      </trkpt>
      <trkpt lat="45.87954" lon="4.73642">
        <ele>190</ele>
        <time>2017-05-05T11:00:37Z</time>
      </trkpt>
      <trkpt lat="45.87958" lon="4.73644">
        <ele>190</ele>
        <time>2017-05-05T11:00:38Z</time>
      </trkpt>
      <trkpt lat="45.87963" lon="4.73646">
        <ele>190</ele>
        <time>2017-05-05T11:00:39Z</time>
      </trkpt>
      <trkpt lat="45.87968" lon="4.73648">
        <ele>190</ele>
        <time>2017-05-05T11:00:40Z</time>
      </trkpt>
      <trkpt lat="45.87973" lon="4.73649">
        <ele>190</ele>
        <time>2017-05-05T11:00:41Z</time>
      </trkpt>
      <trkpt lat="45.87978" lon="4.73651">
        <ele>190</ele>
        <time>2017-05-05T11:00:42Z</time>
      </trkpt>
      <trkpt lat="45.87983" lon="4.73652">
        <ele>190</ele>
        <time>2017-05-05T11:00:43Z</time>
      </trkpt>
      <trkpt lat="45.87988" lon="4.73654">
        <ele>190</ele>
        <time>2017-05-05T11:00:44Z</time>
      </trkpt>
      <trkpt lat="45.87993" lon="4.73655">
        <ele>190</ele>
        <time>2017-05-05T11:00:45Z</time>
      </trkpt>
      <trkpt lat="45.87998" lon="4.73657">
        <ele>190</ele>
        <time>2017-05-05T11:00:46Z</time>
      </trkpt>
      <trkpt lat="45.88003" lon="4.73658">
        <ele>190</ele>
        <time>2017-05-05T11:00:47Z</time>
      </trkpt>
      <trkpt lat="45.88008" lon="4.7366">
        <ele>190</ele>
        <time>2017-05-05T11:00:48Z</time>
      </trkpt>
      <trkpt lat="45.88013" lon="4.7366">
        <ele>189</ele>
        <time>2017-05-05T11:00:49Z</time>
      </trkpt>
      <trkpt lat="45.88018" lon="4.7366">
        <ele>189</ele>
        <time>2017-05-05T11:00:50Z</time>
      </trkpt>
      <trkpt lat="45.88024" lon="4.73659">
        <ele>189</ele>
        <time>2017-05-05T11:00:51Z</time>
      </trkpt>
      <trkpt lat="45.88029" lon="4.73658">
        <ele>189</ele>
        <time>2017-05-05T11:00:52Z</time>
      </trkpt>
      <trkpt lat="45.88034" lon="4.73656">
        <ele>189</ele>
        <time>2017-05-05T11:00:53Z</time>
      </trkpt>
      <trkpt lat="45.88039" lon="4.73654">
        <ele>189</ele>
        <time>2017-05-05T11:00:54Z</time>
      </trkpt>
      <trkpt lat="45.88045" lon="4.73651">
        <ele>189</ele>
        <time>2017-05-05T11:00:55Z</time>
      </trkpt>
      <trkpt lat="45.8805" lon="4.73648">
        <ele>189</ele>
        <time>2017-05-05T11:00:56Z</time>
      </trkpt>
      <trkpt lat="45.88055" lon="4.73645">
        <ele>189</ele>
        <time>2017-05-05T11:00:57Z</time>
      </trkpt>
      <trkpt lat="45.8806" lon="4.73642">
        <ele>189</ele>
        <time>2017-05-05T11:00:58Z</time>
      </trkpt>
      <trkpt lat="45.88065" lon="4.73639">
        <ele>189</ele>
        <time>2017-05-05T11:00:59Z</time>
      </trkpt>
      <trkpt lat="45.88069" lon="4.73636">
        <ele>189</ele>
        <time>2017-05-05T11:01:00Z</time>
      </trkpt>
      <trkpt lat="45.88074" lon="4.73633">
        <ele>189</ele>
        <time>2017-05-05T11:01:01Z</time>
      </trkpt>
      <trkpt lat="45.88079" lon="4.7363">
        <ele>189</ele>
        <time>2017-05-05T11:01:02Z</time>
      </trkpt>
      <trkpt lat="45.88083" lon="4.73627">
        <ele>189</ele>
        <time>2017-05-05T11:01:03Z</time>
      </trkpt>
      <trkpt lat="45.88088" lon="4.73623">
        <ele>188</ele>
        <time>2017-05-05T11:01:04Z</time>
      </trkpt>
      <trkpt lat="45.88093" lon="4.7362">
        <ele>188</ele>
        <time>2017-05-05T11:01:05Z</time>
      </trkpt>
      <trkpt lat="45.88097" lon="4.73617">
        <ele>188</ele>
        <time>2017-05-05T11:01:06Z</time>
      </trkpt>
      <trkpt lat="45.88102" lon="4.73615">
        <ele>188</ele>
        <time>2017-05-05T11:01:07Z</time>
      </trkpt>
      <trkpt lat="45.88106" lon="4.73612">
        <ele>188</ele>
        <time>2017-05-05T11:01:08Z</time>
      </trkpt>
      <trkpt lat="45.88112" lon="4.73609">
        <ele>188</ele>
        <time>2017-05-05T11:01:09Z</time>
      </trkpt>
      <trkpt lat="45.88117" lon="4.73605">
        <ele>188</ele>
        <time>2017-05-05T11:01:10Z</time>
      </trkpt>
      <trkpt lat="45.88122" lon="4.73602">
        <ele>187</ele>
        <time>2017-05-05T11:01:11Z</time>
      </trkpt>
      <trkpt lat="45.88128" lon="4.73598">
        <ele>187</ele>
        <time>2017-05-05T11:01:12Z</time>
      </trkpt>
      <trkpt lat="45.88134" lon="4.73595">
        <ele>187</ele>
        <time>2017-05-05T11:01:13Z</time>
      </trkpt>
      <trkpt lat="45.88139" lon="4.73591">
        <ele>187</ele>
        <time>2017-05-05T11:01:14Z</time>
      </trkpt>
      <trkpt lat="45.88145" lon="4.73586">
        <ele>187</ele>
        <time>2017-05-05T11:01:15Z</time>
      </trkpt>
      <trkpt lat="45.88151" lon="4.73583">
        <ele>186</ele>
        <time>2017-05-05T11:01:16Z</time>
      </trkpt>
      <trkpt lat="45.88157" lon="4.73579">
        <ele>186</ele>
        <time>2017-05-05T11:01:17Z</time>
      </trkpt>
      <trkpt lat="45.88162" lon="4.73575">
        <ele>186</ele>
        <time>2017-05-05T11:01:18Z</time>
      </trkpt>
      <trkpt lat="45.88168" lon="4.73571">
        <ele>186</ele>
        <time>2017-05-05T11:01:19Z</time>
      </trkpt>
      <trkpt lat="45.88173" lon="4.73567">
        <ele>186</ele>
        <time>2017-05-05T11:01:20Z</time>
      </trkpt>
      <trkpt lat="45.88178" lon="4.73563">
        <ele>186</ele>
        <time>2017-05-05T11:01:21Z</time>
      </trkpt>
      <trkpt lat="45.88184" lon="4.7356">
        <ele>186</ele>
        <time>2017-05-05T11:01:22Z</time>
      </trkpt>
      <trkpt lat="45.88189" lon="4.73556">
        <ele>186</ele>
        <time>2017-05-05T11:01:23Z</time>
      </trkpt>
      <trkpt lat="45.88194" lon="4.73553">
        <ele>186</ele>
        <time>2017-05-05T11:01:24Z</time>
      </trkpt>
      <trkpt lat="45.88199" lon="4.7355">
        <ele>186</ele>
        <time>2017-05-05T11:01:25Z</time>
      </trkpt>
      <trkpt lat="45.88204" lon="4.73548">
        <ele>186</ele>
        <time>2017-05-05T11:01:26Z</time>
      </trkpt>
      <trkpt lat="45.88209" lon="4.73545">
        <ele>185</ele>
        <time>2017-05-05T11:01:27Z</time>
      </trkpt>
      <trkpt lat="45.88213" lon="4.73541">
        <ele>185</ele>
        <time>2017-05-05T11:01:28Z</time>
      </trkpt>
      <trkpt lat="45.88218" lon="4.73538">
        <ele>185</ele>
        <time>2017-05-05T11:01:29Z</time>
      </trkpt>
      <trkpt lat="45.88222" lon="4.73535">
        <ele>185</ele>
        <time>2017-05-05T11:01:30Z</time>
      </trkpt>
      <trkpt lat="45.88227" lon="4.73532">
        <ele>185</ele>
        <time>2017-05-05T11:01:31Z</time>
      </trkpt>
      <trkpt lat="45.88232" lon="4.73529">
        <ele>185</ele>
        <time>2017-05-05T11:01:32Z</time>
      </trkpt>
      <trkpt lat="45.88237" lon="4.73526">
        <ele>185</ele>
        <time>2017-05-05T11:01:33Z</time>
      </trkpt>
      <trkpt lat="45.88241" lon="4.73523">
        <ele>185</ele>
        <time>2017-05-05T11:01:34Z</time>
      </trkpt>
      <trkpt lat="45.88246" lon="4.73519">
        <ele>185</ele>
        <time>2017-05-05T11:01:35Z</time>
      </trkpt>
      <trkpt lat="45.88251" lon="4.73516">
        <ele>185</ele>
        <time>2017-05-05T11:01:36Z</time>
      </trkpt>
      <trkpt lat="45.88255" lon="4.73513">
        <ele>185</ele>
        <time>2017-05-05T11:01:37Z</time>
      </trkpt>
      <trkpt lat="45.8826" lon="4.7351">
        <ele>185</ele>
        <time>2017-05-05T11:01:38Z</time>
      </trkpt>
      <trkpt lat="45.88265" lon="4.73507">
        <ele>185</ele>
        <time>2017-05-05T11:01:39Z</time>
      </trkpt>
      <trkpt lat="45.88269" lon="4.73504">
        <ele>185</ele>
        <time>2017-05-05T11:01:40Z</time>
      </trkpt>
      <trkpt lat="45.88274" lon="4.73501">
        <ele>185</ele>
        <time>2017-05-05T11:01:41Z</time>
      </trkpt>
      <trkpt lat="45.88279" lon="4.73497">
        <ele>184</ele>
        <time>2017-05-05T11:01:42Z</time>
      </trkpt>
      <trkpt lat="45.88284" lon="4.73494">
        <ele>184</ele>
        <time>2017-05-05T11:01:43Z</time>
      </trkpt>
      <trkpt lat="45.88289" lon="4.73491">
        <ele>184</ele>
        <time>2017-05-05T11:01:44Z</time>
      </trkpt>
      <trkpt lat="45.88294" lon="4.73487">
        <ele>184</ele>
        <time>2017-05-05T11:01:45Z</time>
      </trkpt>
      <trkpt lat="45.883" lon="4.73484">
        <ele>184</ele>
        <time>2017-05-05T11:01:46Z</time>
      </trkpt>
      <trkpt lat="45.88306" lon="4.73481">
        <ele>184</ele>
        <time>2017-05-05T11:01:47Z</time>
      </trkpt>
      <trkpt lat="45.88312" lon="4.73479">
        <ele>184</ele>
        <time>2017-05-05T11:01:48Z</time>
      </trkpt>
      <trkpt lat="45.88318" lon="4.73477">
        <ele>184</ele>
        <time>2017-05-05T11:01:49Z</time>
      </trkpt>
      <trkpt lat="45.88325" lon="4.73475">
        <ele>184</ele>
        <time>2017-05-05T11:01:50Z</time>
      </trkpt>
      <trkpt lat="45.88331" lon="4.73473">
        <ele>184</ele>
        <time>2017-05-05T11:01:51Z</time>
      </trkpt>
      <trkpt lat="45.88338" lon="4.73471">
        <ele>184</ele>
        <time>2017-05-05T11:01:52Z</time>
      </trkpt>
      <trkpt lat="45.88345" lon="4.73469">
        <ele>184</ele>
        <time>2017-05-05T11:01:53Z</time>
      </trkpt>
      <trkpt lat="45.88351" lon="4.73467">
        <ele>184</ele>
        <time>2017-05-05T11:01:54Z</time>
      </trkpt>
      <trkpt lat="45.88357" lon="4.73465">
        <ele>184</ele>
        <time>2017-05-05T11:01:55Z</time>
      </trkpt>
      <trkpt lat="45.88363" lon="4.73463">
        <ele>184</ele>
        <time>2017-05-05T11:01:56Z</time>
      </trkpt>
      <trkpt lat="45.88369" lon="4.73462">
        <ele>184</ele>
        <time>2017-05-05T11:01:57Z</time>
      </trkpt>
      <trkpt lat="45.88375" lon="4.7346">
        <ele>184</ele>
        <time>2017-05-05T11:01:58Z</time>
      </trkpt>
      <trkpt lat="45.88381" lon="4.73459">
        <ele>184</ele>
        <time>2017-05-05T11:01:59Z</time>
      </trkpt>
      <trkpt lat="45.88386" lon="4.73457">
        <ele>184</ele>
        <time>2017-05-05T11:02:00Z</time>
      </trkpt>
      <trkpt lat="45.88392" lon="4.73455">
        <ele>184</ele>
        <time>2017-05-05T11:02:01Z</time>
      </trkpt>
      <trkpt lat="45.88397" lon="4.73454">
        <ele>184</ele>
        <time>2017-05-05T11:02:02Z</time>
      </trkpt>
      <trkpt lat="45.88402" lon="4.73452">
        <ele>184</ele>
        <time>2017-05-05T11:02:03Z</time>
      </trkpt>
      <trkpt lat="45.88407" lon="4.7345">
        <ele>184</ele>
        <time>2017-05-05T11:02:04Z</time>
      </trkpt>
      <trkpt lat="45.88413" lon="4.73449">
        <ele>184</ele>
        <time>2017-05-05T11:02:05Z</time>
      </trkpt>
      <trkpt lat="45.88419" lon="4.73448">
        <ele>184</ele>
        <time>2017-05-05T11:02:06Z</time>
      </trkpt>
      <trkpt lat="45.88425" lon="4.73446">
        <ele>184</ele>
        <time>2017-05-05T11:02:07Z</time>
      </trkpt>
      <trkpt lat="45.88431" lon="4.73444">
        <ele>184</ele>
        <time>2017-05-05T11:02:08Z</time>
      </trkpt>
      <trkpt lat="45.88437" lon="4.73442">
        <ele>184</ele>
        <time>2017-05-05T11:02:09Z</time>
      </trkpt>
      <trkpt lat="45.88444" lon="4.7344">
        <ele>184</ele>
        <time>2017-05-05T11:02:10Z</time>
      </trkpt>
      <trkpt lat="45.8845" lon="4.73438">
        <ele>184</ele>
        <time>2017-05-05T11:02:11Z</time>
      </trkpt>
      <trkpt lat="45.88456" lon="4.73436">
        <ele>184</ele>
        <time>2017-05-05T11:02:12Z</time>
      </trkpt>
      <trkpt lat="45.88463" lon="4.73435">
        <ele>184</ele>
        <time>2017-05-05T11:02:13Z</time>
      </trkpt>
      <trkpt lat="45.88469" lon="4.73433">
        <ele>184</ele>
        <time>2017-05-05T11:02:14Z</time>
      </trkpt>
      <trkpt lat="45.88475" lon="4.73431">
        <ele>184</ele>
        <time>2017-05-05T11:02:15Z</time>
      </trkpt>
      <trkpt lat="45.88481" lon="4.73429">
        <ele>184</ele>
        <time>2017-05-05T11:02:16Z</time>
      </trkpt>
      <trkpt lat="45.88486" lon="4.73428">
        <ele>184</ele>
        <time>2017-05-05T11:02:17Z</time>
      </trkpt>
      <trkpt lat="45.88492" lon="4.73426">
        <ele>184</ele>
        <time>2017-05-05T11:02:18Z</time>
      </trkpt>
      <trkpt lat="45.88498" lon="4.73424">
        <ele>184</ele>
        <time>2017-05-05T11:02:19Z</time>
      </trkpt>
      <trkpt lat="45.88503" lon="4.73422">
        <ele>184</ele>
        <time>2017-05-05T11:02:20Z</time>
      </trkpt>
      <trkpt lat="45.88509" lon="4.7342">
        <ele>184</ele>
        <time>2017-05-05T11:02:21Z</time>
      </trkpt>
      <trkpt lat="45.88514" lon="4.73419">
        <ele>184</ele>
        <time>2017-05-05T11:02:22Z</time>
      </trkpt>
      <trkpt lat="45.8852" lon="4.73417">
        <ele>184</ele>
        <time>2017-05-05T11:02:23Z</time>
      </trkpt>
      <trkpt lat="45.88526" lon="4.73416">
        <ele>183</ele>
        <time>2017-05-05T11:02:24Z</time>
      </trkpt>
      <trkpt lat="45.88532" lon="4.73414">
        <ele>183</ele>
        <time>2017-05-05T11:02:25Z</time>
      </trkpt>
      <trkpt lat="45.88537" lon="4.73412">
        <ele>183</ele>
        <time>2017-05-05T11:02:26Z</time>
      </trkpt>
      <trkpt lat="45.88543" lon="4.73411">
        <ele>183</ele>
        <time>2017-05-05T11:02:27Z</time>
      </trkpt>
      <trkpt lat="45.88549" lon="4.73409">
        <ele>183</ele>
        <time>2017-05-05T11:02:28Z</time>
      </trkpt>
      <trkpt lat="45.88555" lon="4.73407">
        <ele>183</ele>
        <time>2017-05-05T11:02:29Z</time>
      </trkpt>
      <trkpt lat="45.88561" lon="4.73405">
        <ele>183</ele>
        <time>2017-05-05T11:02:30Z</time>
      </trkpt>
      <trkpt lat="45.88568" lon="4.73404">
        <ele>183</ele>
        <time>2017-05-05T11:02:31Z</time>
      </trkpt>
      <trkpt lat="45.88574" lon="4.73402">
        <ele>183</ele>
        <time>2017-05-05T11:02:32Z</time>
      </trkpt>
      <trkpt lat="45.8858" lon="4.734">
        <ele>183</ele>
        <time>2017-05-05T11:02:33Z</time>
      </trkpt>
      <trkpt lat="45.88586" lon="4.73398">
        <ele>183</ele>
        <time>2017-05-05T11:02:34Z</time>
      </trkpt>
      <trkpt lat="45.88592" lon="4.73396">
        <ele>183</ele>
        <time>2017-05-05T11:02:35Z</time>
      </trkpt>
      <trkpt lat="45.88598" lon="4.73394">
        <ele>183</ele>
        <time>2017-05-05T11:02:36Z</time>
      </trkpt>
      <trkpt lat="45.88604" lon="4.73393">
        <ele>183</ele>
        <time>2017-05-05T11:02:37Z</time>
      </trkpt>
      <trkpt lat="45.88609" lon="4.73391">
        <ele>183</ele>
        <time>2017-05-05T11:02:38Z</time>
      </trkpt>
      <trkpt lat="45.88614" lon="4.73389">
        <ele>183</ele>
        <time>2017-05-05T11:02:39Z</time>
      </trkpt>
      <trkpt lat="45.8862" lon="4.73388">
        <ele>183</ele>
        <time>2017-05-05T11:02:40Z</time>
      </trkpt>
      <trkpt lat="45.88625" lon="4.73387">
        <ele>183</ele>
        <time>2017-05-05T11:02:41Z</time>
      </trkpt>
      <trkpt lat="45.88629" lon="4.73386">
        <ele>183</ele>
        <time>2017-05-05T11:02:42Z</time>
      </trkpt>
      <trkpt lat="45.88634" lon="4.73387">
        <ele>184</ele>
        <time>2017-05-05T11:02:43Z</time>
      </trkpt>
      <trkpt lat="45.88639" lon="4.73389">
        <ele>184</ele>
        <time>2017-05-05T11:02:44Z</time>
      </trkpt>
      <trkpt lat="45.88643" lon="4.73393">
        <ele>184</ele>
        <time>2017-05-05T11:02:45Z</time>
      </trkpt>
      <trkpt lat="45.88647" lon="4.73398">
        <ele>184</ele>
        <time>2017-05-05T11:02:46Z</time>
      </trkpt>
      <trkpt lat="45.8865" lon="4.73405">
        <ele>184</ele>
        <time>2017-05-05T11:02:47Z</time>
      </trkpt>
      <trkpt lat="45.88652" lon="4.73413">
        <ele>184</ele>
        <time>2017-05-05T11:02:48Z</time>
      </trkpt>
      <trkpt lat="45.88653" lon="4.73422">
        <ele>184</ele>
        <time>2017-05-05T11:02:49Z</time>
      </trkpt>
      <trkpt lat="45.88654" lon="4.7343">
        <ele>184</ele>
        <time>2017-05-05T11:02:50Z</time>
      </trkpt>
      <trkpt lat="45.88656" lon="4.73438">
        <ele>184</ele>
        <time>2017-05-05T11:02:51Z</time>
      </trkpt>
      <trkpt lat="45.88657" lon="4.73446">
        <ele>184</ele>
        <time>2017-05-05T11:02:52Z</time>
      </trkpt>
      <trkpt lat="45.88658" lon="4.73454">
        <ele>184</ele>
        <time>2017-05-05T11:02:53Z</time>
      </trkpt>
      <trkpt lat="45.88659" lon="4.73462">
        <ele>184</ele>
        <time>2017-05-05T11:02:54Z</time>
      </trkpt>
      <trkpt lat="45.88659" lon="4.73469">
        <ele>184</ele>
        <time>2017-05-05T11:02:55Z</time>
      </trkpt>
      <trkpt lat="45.88659" lon="4.73476">
        <ele>184</ele>
        <time>2017-05-05T11:02:56Z</time>
      </trkpt>
      <trkpt lat="45.88658" lon="4.73483">
        <ele>184</ele>
        <time>2017-05-05T11:02:57Z</time>
      </trkpt>
      <trkpt lat="45.88656" lon="4.73489">
        <ele>184</ele>
        <time>2017-05-05T11:02:58Z</time>
      </trkpt>
      <trkpt lat="45.88654" lon="4.73496">
        <ele>184</ele>
        <time>2017-05-05T11:02:59Z</time>
      </trkpt>
      <trkpt lat="45.88652" lon="4.73502">
        <ele>184</ele>
        <time>2017-05-05T11:03:00Z</time>
      </trkpt>
      <trkpt lat="45.88651" lon="4.73509">
        <ele>185</ele>
        <time>2017-05-05T11:03:01Z</time>
      </trkpt>
      <trkpt lat="45.88649" lon="4.73516">
        <ele>185</ele>
        <time>2017-05-05T11:03:02Z</time>
      </trkpt>
      <trkpt lat="45.88648" lon="4.73523">
        <ele>185</ele>
        <time>2017-05-05T11:03:03Z</time>
      </trkpt>
      <trkpt lat="45.88647" lon="4.7353">
        <ele>185</ele>
        <time>2017-05-05T11:03:04Z</time>
      </trkpt>
      <trkpt lat="45.88646" lon="4.73537">
        <ele>185</ele>
        <time>2017-05-05T11:03:05Z</time>
      </trkpt>
      <trkpt lat="45.88645" lon="4.73544">
        <ele>185</ele>
        <time>2017-05-05T11:03:06Z</time>
      </trkpt>
      <trkpt lat="45.88644" lon="4.73551">
        <ele>185</ele>
        <time>2017-05-05T11:03:07Z</time>
      </trkpt>
      <trkpt lat="45.88644" lon="4.73558">
        <ele>185</ele>
        <time>2017-05-05T11:03:08Z</time>
      </trkpt>
      <trkpt lat="45.88644" lon="4.73565">
        <ele>185</ele>
        <time>2017-05-05T11:03:09Z</time>
      </trkpt>
      <trkpt lat="45.88643" lon="4.73573">
        <ele>185</ele>
        <time>2017-05-05T11:03:10Z</time>
      </trkpt>
      <trkpt lat="45.88643" lon="4.7358">
        <ele>185</ele>
        <time>2017-05-05T11:03:11Z</time>
      </trkpt>
      <trkpt lat="45.88643" lon="4.73587">
        <ele>185</ele>
        <time>2017-05-05T11:03:12Z</time>
      </trkpt>
      <trkpt lat="45.88643" lon="4.73594">
        <ele>186</ele>
        <time>2017-05-05T11:03:13Z</time>
      </trkpt>
      <trkpt lat="45.88642" lon="4.73601">
        <ele>186</ele>
        <time>2017-05-05T11:03:14Z</time>
      </trkpt>
      <trkpt lat="45.88642" lon="4.73608">
        <ele>186</ele>
        <time>2017-05-05T11:03:15Z</time>
      </trkpt>
      <trkpt lat="45.88642" lon="4.73615">
        <ele>186</ele>
        <time>2017-05-05T11:03:16Z</time>
      </trkpt>
      <trkpt lat="45.88642" lon="4.73622">
        <ele>186</ele>
        <time>2017-05-05T11:03:17Z</time>
      </trkpt>
      <trkpt lat="45.88642" lon="4.73629">
        <ele>186</ele>
        <time>2017-05-05T11:03:18Z</time>
      </trkpt>
      <trkpt lat="45.88642" lon="4.73636">
        <ele>186</ele>
        <time>2017-05-05T11:03:19Z</time>
      </trkpt>
      <trkpt lat="45.88642" lon="4.73643">
        <ele>186</ele>
        <time>2017-05-05T11:03:20Z</time>
      </trkpt>
      <trkpt lat="45.88642" lon="4.7365">
        <ele>186</ele>
        <time>2017-05-05T11:03:21Z</time>
      </trkpt>
      <trkpt lat="45.88642" lon="4.73657">
        <ele>186</ele>
        <time>2017-05-05T11:03:22Z</time>
      </trkpt>
      <trkpt lat="45.88642" lon="4.73664">
        <ele>186</ele>
        <time>2017-05-05T11:03:23Z</time>
      </trkpt>
      <trkpt lat="45.88642" lon="4.73671">
        <ele>186</ele>
        <time>2017-05-05T11:03:24Z</time>
      </trkpt>
      <trkpt lat="45.88642" lon="4.73678">
        <ele>186</ele>
        <time>2017-05-05T11:03:25Z</time>
      </trkpt>
      <trkpt lat="45.88643" lon="4.73684">
        <ele>186</ele>
        <time>2017-05-05T11:03:26Z</time>
      </trkpt>
      <trkpt lat="45.88643" lon="4.73691">
        <ele>186</ele>
        <time>2017-05-05T11:03:27Z</time>
      </trkpt>
      <trkpt lat="45.88642" lon="4.73698">
        <ele>186</ele>
        <time>2017-05-05T11:03:28Z</time>
      </trkpt>
      <trkpt lat="45.88642" lon="4.73705">
        <ele>186</ele>
        <time>2017-05-05T11:03:29Z</time>
      </trkpt>
      <trkpt lat="45.88642" lon="4.73712">
        <ele>186</ele>
        <time>2017-05-05T11:03:30Z</time>
      </trkpt>
      <trkpt lat="45.88641" lon="4.73719">
        <ele>186</ele>
        <time>2017-05-05T11:03:31Z</time>
      </trkpt>
      <trkpt lat="45.88641" lon="4.73727">
        <ele>186</ele>
        <time>2017-05-05T11:03:32Z</time>
      </trkpt>
      <trkpt lat="45.88641" lon="4.73735">
        <ele>186</ele>
        <time>2017-05-05T11:03:33Z</time>
      </trkpt>
      <trkpt lat="45.8864" lon="4.73743">
        <ele>186</ele>
        <time>2017-05-05T11:03:34Z</time>
      </trkpt>
      <trkpt lat="45.8864" lon="4.73752">
        <ele>187</ele>
        <time>2017-05-05T11:03:35Z</time>
      </trkpt>
      <trkpt lat="45.8864" lon="4.73762">
        <ele>187</ele>
        <time>2017-05-05T11:03:36Z</time>
      </trkpt>
      <trkpt lat="45.8864" lon="4.73772">
        <ele>187</ele>
        <time>2017-05-05T11:03:37Z</time>
      </trkpt>
      <trkpt lat="45.8864" lon="4.73782">
        <ele>187</ele>
        <time>2017-05-05T11:03:38Z</time>
      </trkpt>
      <trkpt lat="45.8864" lon="4.73793">
        <ele>187</ele>
        <time>2017-05-05T11:03:39Z</time>
      </trkpt>
      <trkpt lat="45.8864" lon="4.73803">
        <ele>187</ele>
        <time>2017-05-05T11:03:40Z</time>
      </trkpt>
      <trkpt lat="45.8864" lon="4.73815">
        <ele>187</ele>
        <time>2017-05-05T11:03:41Z</time>
      </trkpt>
      <trkpt lat="45.88639" lon="4.73825">
        <ele>187</ele>
        <time>2017-05-05T11:03:42Z</time>
      </trkpt>
      <trkpt lat="45.88639" lon="4.73836">
        <ele>187</ele>
        <time>2017-05-05T11:03:43Z</time>
      </trkpt>
      <trkpt lat="45.88639" lon="4.73847">
        <ele>187</ele>
        <time>2017-05-05T11:03:44Z</time>
      </trkpt>
      <trkpt lat="45.88638" lon="4.73858">
        <ele>187</ele>
        <time>2017-05-05T11:03:45Z</time>
      </trkpt>
      <trkpt lat="45.88638" lon="4.73868">
        <ele>187</ele>
        <time>2017-05-05T11:03:46Z</time>
      </trkpt>
      <trkpt lat="45.88638" lon="4.73878">
        <ele>187</ele>
        <time>2017-05-05T11:03:47Z</time>
      </trkpt>
      <trkpt lat="45.88638" lon="4.73889">
        <ele>187</ele>
        <time>2017-05-05T11:03:48Z</time>
      </trkpt>
      <trkpt lat="45.88638" lon="4.73899">
        <ele>187</ele>
        <time>2017-05-05T11:03:49Z</time>
      </trkpt>
      <trkpt lat="45.88638" lon="4.73909">
        <ele>187</ele>
        <time>2017-05-05T11:03:50Z</time>
      </trkpt>
      <trkpt lat="45.88638" lon="4.73918">
        <ele>187</ele>
        <time>2017-05-05T11:03:51Z</time>
      </trkpt>
      <trkpt lat="45.88639" lon="4.73928">
        <ele>187</ele>
        <time>2017-05-05T11:03:52Z</time>
      </trkpt>
      <trkpt lat="45.88639" lon="4.73937">
        <ele>187</ele>
        <time>2017-05-05T11:03:53Z</time>
      </trkpt>
      <trkpt lat="45.8864" lon="4.73946">
        <ele>187</ele>
        <time>2017-05-05T11:03:54Z</time>
      </trkpt>
      <trkpt lat="45.8864" lon="4.73955">
        <ele>187</ele>
        <time>2017-05-05T11:03:55Z</time>
      </trkpt>
      <trkpt lat="45.88641" lon="4.73964">
        <ele>187</ele>
        <time>2017-05-05T11:03:56Z</time>
      </trkpt>
      <trkpt lat="45.88642" lon="4.73971">
        <ele>187</ele>
        <time>2017-05-05T11:03:57Z</time>
      </trkpt>
      <trkpt lat="45.88643" lon="4.73979">
        <ele>187</ele>
        <time>2017-05-05T11:03:58Z</time>
      </trkpt>
      <trkpt lat="45.88644" lon="4.73987">
        <ele>187</ele>
        <time>2017-05-05T11:03:59Z</time>
      </trkpt>
      <trkpt lat="45.88645" lon="4.73995">
        <ele>186</ele>
        <time>2017-05-05T11:04:00Z</time>
      </trkpt>
      <trkpt lat="45.88646" lon="4.74003">
        <ele>187</ele>
        <time>2017-05-05T11:04:01Z</time>
      </trkpt>
      <trkpt lat="45.88647" lon="4.7401">
        <ele>187</ele>
        <time>2017-05-05T11:04:02Z</time>
      </trkpt>
      <trkpt lat="45.88648" lon="4.74017">
        <ele>187</ele>
        <time>2017-05-05T11:04:03Z</time>
      </trkpt>
      <trkpt lat="45.88649" lon="4.74023">
        <ele>187</ele>
        <time>2017-05-05T11:04:04Z</time>
      </trkpt>
      <trkpt lat="45.8865" lon="4.7403">
        <ele>187</ele>
        <time>2017-05-05T11:04:05Z</time>
      </trkpt>
      <trkpt lat="45.88652" lon="4.74036">
        <ele>187</ele>
        <time>2017-05-05T11:04:06Z</time>
      </trkpt>
      <trkpt lat="45.88653" lon="4.74043">
        <ele>187</ele>
        <time>2017-05-05T11:04:07Z</time>
      </trkpt>
      <trkpt lat="45.88655" lon="4.74051">
        <ele>187</ele>
        <time>2017-05-05T11:04:08Z</time>
      </trkpt>
      <trkpt lat="45.88657" lon="4.74058">
        <ele>187</ele>
        <time>2017-05-05T11:04:09Z</time>
      </trkpt>
      <trkpt lat="45.88659" lon="4.74066">
        <ele>188</ele>
        <time>2017-05-05T11:04:10Z</time>
      </trkpt>
      <trkpt lat="45.88662" lon="4.74073">
        <ele>188</ele>
        <time>2017-05-05T11:04:11Z</time>
      </trkpt>
      <trkpt lat="45.88664" lon="4.7408">
        <ele>188</ele>
        <time>2017-05-05T11:04:12Z</time>
      </trkpt>
      <trkpt lat="45.88666" lon="4.74088">
        <ele>188</ele>
        <time>2017-05-05T11:04:13Z</time>
      </trkpt>
      <trkpt lat="45.88668" lon="4.74095">
        <ele>188</ele>
        <time>2017-05-05T11:04:14Z</time>
      </trkpt>
      <trkpt lat="45.8867" lon="4.74102">
        <ele>188</ele>
        <time>2017-05-05T11:04:15Z</time>
      </trkpt>
      <trkpt lat="45.88673" lon="4.74113">
        <ele>188</ele>
        <time>2017-05-05T11:04:17Z</time>
      </trkpt>
      <trkpt lat="45.88675" lon="4.74118">
        <ele>188</ele>
        <time>2017-05-05T11:04:18Z</time>
      </trkpt>
      <trkpt lat="45.88681" lon="4.74124">
        <ele>188</ele>
        <time>2017-05-05T11:04:20Z</time>
      </trkpt>
      <trkpt lat="45.88685" lon="4.74124">
        <ele>188</ele>
        <time>2017-05-05T11:04:21Z</time>
      </trkpt>
      <trkpt lat="45.88694" lon="4.7412">
        <ele>188</ele>
        <time>2017-05-05T11:04:23Z</time>
      </trkpt>
      <trkpt lat="45.88698" lon="4.74118">
        <ele>188</ele>
        <time>2017-05-05T11:04:24Z</time>
      </trkpt>
      <trkpt lat="45.88705" lon="4.7412">
        <ele>188</ele>
        <time>2017-05-05T11:04:26Z</time>
      </trkpt>
      <trkpt lat="45.88709" lon="4.74123">
        <ele>188</ele>
        <time>2017-05-05T11:04:27Z</time>
      </trkpt>
      <trkpt lat="45.88713" lon="4.74127">
        <ele>188</ele>
        <time>2017-05-05T11:04:28Z</time>
      </trkpt>
      <trkpt lat="45.88717" lon="4.74131">
        <ele>188</ele>
        <time>2017-05-05T11:04:29Z</time>
      </trkpt>
      <trkpt lat="45.88721" lon="4.74135">
        <ele>188</ele>
        <time>2017-05-05T11:04:30Z</time>
      </trkpt>
      <trkpt lat="45.88725" lon="4.74138">
        <ele>188</ele>
        <time>2017-05-05T11:04:31Z</time>
      </trkpt>
      <trkpt lat="45.8873" lon="4.74142">
        <ele>188</ele>
        <time>2017-05-05T11:04:32Z</time>
      </trkpt>
      <trkpt lat="45.88734" lon="4.74146">
        <ele>188</ele>
        <time>2017-05-05T11:04:33Z</time>
      </trkpt>
      <trkpt lat="45.88739" lon="4.74149">
        <ele>188</ele>
        <time>2017-05-05T11:04:34Z</time>
      </trkpt>
      <trkpt lat="45.88744" lon="4.74153">
        <ele>188</ele>
        <time>2017-05-05T11:04:35Z</time>
      </trkpt>
      <trkpt lat="45.88749" lon="4.74157">
        <ele>188</ele>
        <time>2017-05-05T11:04:36Z</time>
      </trkpt>
      <trkpt lat="45.88754" lon="4.74161">
        <ele>188</ele>
        <time>2017-05-05T11:04:37Z</time>
      </trkpt>
      <trkpt lat="45.88759" lon="4.74164">
        <ele>188</ele>
        <time>2017-05-05T11:04:38Z</time>
      </trkpt>
      <trkpt lat="45.88763" lon="4.74168">
        <ele>188</ele>
        <time>2017-05-05T11:04:39Z</time>
      </trkpt>
      <trkpt lat="45.88767" lon="4.74171">
        <ele>188</ele>
        <time>2017-05-05T11:04:40Z</time>
      </trkpt>
      <trkpt lat="45.88772" lon="4.74174">
        <ele>188</ele>
        <time>2017-05-05T11:04:41Z</time>
      </trkpt>
      <trkpt lat="45.88776" lon="4.74177">
        <ele>188</ele>
        <time>2017-05-05T11:04:42Z</time>
      </trkpt>
      <trkpt lat="45.88781" lon="4.74179">
        <ele>188</ele>
        <time>2017-05-05T11:04:43Z</time>
      </trkpt>
      <trkpt lat="45.88785" lon="4.74182">
        <ele>188</ele>
        <time>2017-05-05T11:04:44Z</time>
      </trkpt>
      <trkpt lat="45.8879" lon="4.74185">
        <ele>188</ele>
        <time>2017-05-05T11:04:45Z</time>
      </trkpt>
      <trkpt lat="45.88795" lon="4.74187">
        <ele>188</ele>
        <time>2017-05-05T11:04:46Z</time>
      </trkpt>
      <trkpt lat="45.888" lon="4.7419">
        <ele>187</ele>
        <time>2017-05-05T11:04:47Z</time>
      </trkpt>
      <trkpt lat="45.88804" lon="4.74192">
        <ele>187</ele>
        <time>2017-05-05T11:04:48Z</time>
      </trkpt>
      <trkpt lat="45.88809" lon="4.74195">
        <ele>187</ele>
        <time>2017-05-05T11:04:49Z</time>
      </trkpt>
      <trkpt lat="45.88814" lon="4.74197">
        <ele>187</ele>
        <time>2017-05-05T11:04:50Z</time>
      </trkpt>
      <trkpt lat="45.88818" lon="4.742">
        <ele>187</ele>
        <time>2017-05-05T11:04:51Z</time>
      </trkpt>
      <trkpt lat="45.88823" lon="4.74202">
        <ele>187</ele>
        <time>2017-05-05T11:04:52Z</time>
      </trkpt>
      <trkpt lat="45.88827" lon="4.74205">
        <ele>187</ele>
        <time>2017-05-05T11:04:53Z</time>
      </trkpt>
      <trkpt lat="45.88835" lon="4.7421">
        <ele>187</ele>
        <time>2017-05-05T11:04:55Z</time>
      </trkpt>
      <trkpt lat="45.88838" lon="4.74212">
        <ele>187</ele>
        <time>2017-05-05T11:04:56Z</time>
      </trkpt>
      <trkpt lat="45.88847" lon="4.74216">
        <ele>187</ele>
        <time>2017-05-05T11:04:58Z</time>
      </trkpt>
      <trkpt lat="45.88851" lon="4.74219">
        <ele>187</ele>
        <time>2017-05-05T11:04:59Z</time>
      </trkpt>
      <trkpt lat="45.88855" lon="4.74221">
        <ele>187</ele>
        <time>2017-05-05T11:05:00Z</time>
      </trkpt>
      <trkpt lat="45.8886" lon="4.74224">
        <ele>187</ele>
        <time>2017-05-05T11:05:01Z</time>
      </trkpt>
      <trkpt lat="45.88864" lon="4.74226">
        <ele>187</ele>
        <time>2017-05-05T11:05:02Z</time>
      </trkpt>
      <trkpt lat="45.88868" lon="4.74229">
        <ele>187</ele>
        <time>2017-05-05T11:05:03Z</time>
      </trkpt>
      <trkpt lat="45.88872" lon="4.74233">
        <ele>187</ele>
        <time>2017-05-05T11:05:04Z</time>
      </trkpt>
      <trkpt lat="45.88877" lon="4.74236">
        <ele>187</ele>
        <time>2017-05-05T11:05:05Z</time>
      </trkpt>
      <trkpt lat="45.88881" lon="4.7424">
        <ele>187</ele>
        <time>2017-05-05T11:05:06Z</time>
      </trkpt>
      <trkpt lat="45.88885" lon="4.74243">
        <ele>187</ele>
        <time>2017-05-05T11:05:07Z</time>
      </trkpt>
      <trkpt lat="45.88889" lon="4.74247">
        <ele>187</ele>
        <time>2017-05-05T11:05:08Z</time>
      </trkpt>
      <trkpt lat="45.88894" lon="4.7425">
        <ele>187</ele>
        <time>2017-05-05T11:05:09Z</time>
      </trkpt>
      <trkpt lat="45.88899" lon="4.74254">
        <ele>187</ele>
        <time>2017-05-05T11:05:10Z</time>
      </trkpt>
      <trkpt lat="45.88903" lon="4.74257">
        <ele>187</ele>
        <time>2017-05-05T11:05:11Z</time>
      </trkpt>
      <trkpt lat="45.88908" lon="4.7426">
        <ele>187</ele>
        <time>2017-05-05T11:05:12Z</time>
      </trkpt>
      <trkpt lat="45.88912" lon="4.74263">
        <ele>187</ele>
        <time>2017-05-05T11:05:13Z</time>
      </trkpt>
      <trkpt lat="45.88916" lon="4.74267">
        <ele>187</ele>
        <time>2017-05-05T11:05:14Z</time>
      </trkpt>
      <trkpt lat="45.8892" lon="4.7427">
        <ele>187</ele>
        <time>2017-05-05T11:05:15Z</time>
      </trkpt>
      <trkpt lat="45.88925" lon="4.74272">
        <ele>187</ele>
        <time>2017-05-05T11:05:16Z</time>
      </trkpt>
      <trkpt lat="45.8893" lon="4.74275">
        <ele>187</ele>
        <time>2017-05-05T11:05:17Z</time>
      </trkpt>
      <trkpt lat="45.88934" lon="4.74278">
        <ele>187</ele>
        <time>2017-05-05T11:05:18Z</time>
      </trkpt>
      <trkpt lat="45.88939" lon="4.7428">
        <ele>187</ele>
        <time>2017-05-05T11:05:19Z</time>
      </trkpt>
      <trkpt lat="45.88944" lon="4.74282">
        <ele>187</ele>
        <time>2017-05-05T11:05:20Z</time>
      </trkpt>
      <trkpt lat="45.88949" lon="4.74283">
        <ele>187</ele>
        <time>2017-05-05T11:05:21Z</time>
      </trkpt>
      <trkpt lat="45.88957" lon="4.74286">
        <ele>187</ele>
        <time>2017-05-05T11:05:23Z</time>
      </trkpt>
      <trkpt lat="45.88959" lon="4.74288">
        <ele>187</ele>
        <time>2017-05-05T11:05:24Z</time>
      </trkpt>
      <trkpt lat="45.88965" lon="4.74294">
        <ele>187</ele>
        <time>2017-05-05T11:05:27Z</time>
      </trkpt>
      <trkpt lat="45.88967" lon="4.74296">
        <ele>187</ele>
        <time>2017-05-05T11:05:28Z</time>
      </trkpt>
      <trkpt lat="45.88974" lon="4.74298">
        <ele>187</ele>
        <time>2017-05-05T11:05:30Z</time>
      </trkpt>
      <trkpt lat="45.88978" lon="4.74297">
        <ele>187</ele>
        <time>2017-05-05T11:05:31Z</time>
      </trkpt>
      <trkpt lat="45.88985" lon="4.74297">
        <ele>187</ele>
        <time>2017-05-05T11:05:33Z</time>
      </trkpt>
      <trkpt lat="45.8899" lon="4.74297">
        <ele>187</ele>
        <time>2017-05-05T11:05:34Z</time>
      </trkpt>
      <trkpt lat="45.88995" lon="4.74297">
        <ele>187</ele>
        <time>2017-05-05T11:05:35Z</time>
      </trkpt>
      <trkpt lat="45.89" lon="4.74296">
        <ele>187</ele>
        <time>2017-05-05T11:05:36Z</time>
      </trkpt>
      <trkpt lat="45.89006" lon="4.74295">
        <ele>187</ele>
        <time>2017-05-05T11:05:37Z</time>
      </trkpt>
      <trkpt lat="45.89011" lon="4.74295">
        <ele>187</ele>
        <time>2017-05-05T11:05:38Z</time>
      </trkpt>
      <trkpt lat="45.89016" lon="4.74293">
        <ele>187</ele>
        <time>2017-05-05T11:05:39Z</time>
      </trkpt>
      <trkpt lat="45.89021" lon="4.74291">
        <ele>187</ele>
        <time>2017-05-05T11:05:40Z</time>
      </trkpt>
      <trkpt lat="45.89027" lon="4.74291">
        <ele>187</ele>
        <time>2017-05-05T11:05:41Z</time>
      </trkpt>
      <trkpt lat="45.89032" lon="4.74289">
        <ele>187</ele>
        <time>2017-05-05T11:05:42Z</time>
      </trkpt>
      <trkpt lat="45.89038" lon="4.74288">
        <ele>187</ele>
        <time>2017-05-05T11:05:43Z</time>
      </trkpt>
      <trkpt lat="45.89043" lon="4.74285">
        <ele>187</ele>
        <time>2017-05-05T11:05:44Z</time>
      </trkpt>
      <trkpt lat="45.89049" lon="4.74283">
        <ele>187</ele>
        <time>2017-05-05T11:05:45Z</time>
      </trkpt>
      <trkpt lat="45.89054" lon="4.7428">
        <ele>187</ele>
        <time>2017-05-05T11:05:46Z</time>
      </trkpt>
      <trkpt lat="45.8906" lon="4.74277">
        <ele>187</ele>
        <time>2017-05-05T11:05:47Z</time>
      </trkpt>
      <trkpt lat="45.89066" lon="4.74274">
        <ele>187</ele>
        <time>2017-05-05T11:05:48Z</time>
      </trkpt>
      <trkpt lat="45.89072" lon="4.74271">
        <ele>186</ele>
        <time>2017-05-05T11:05:49Z</time>
      </trkpt>
      <trkpt lat="45.89079" lon="4.74268">
        <ele>186</ele>
        <time>2017-05-05T11:05:50Z</time>
      </trkpt>
      <trkpt lat="45.89085" lon="4.74266">
        <ele>186</ele>
        <time>2017-05-05T11:05:51Z</time>
      </trkpt>
      <trkpt lat="45.8909" lon="4.74264">
        <ele>186</ele>
        <time>2017-05-05T11:05:52Z</time>
      </trkpt>
      <trkpt lat="45.89096" lon="4.74262">
        <ele>186</ele>
        <time>2017-05-05T11:05:53Z</time>
      </trkpt>
      <trkpt lat="45.89102" lon="4.7426">
        <ele>187</ele>
        <time>2017-05-05T11:05:54Z</time>
      </trkpt>
      <trkpt lat="45.89108" lon="4.74258">
        <ele>187</ele>
        <time>2017-05-05T11:05:55Z</time>
      </trkpt>
      <trkpt lat="45.89114" lon="4.74256">
        <ele>187</ele>
        <time>2017-05-05T11:05:56Z</time>
      </trkpt>
      <trkpt lat="45.8912" lon="4.74253">
        <ele>187</ele>
        <time>2017-05-05T11:05:57Z</time>
      </trkpt>
      <trkpt lat="45.89126" lon="4.7425">
        <ele>187</ele>
        <time>2017-05-05T11:05:58Z</time>
      </trkpt>
      <trkpt lat="45.89129" lon="4.74242">
        <ele>186</ele>
        <time>2017-05-05T11:05:59Z</time>
      </trkpt>
      <trkpt lat="45.89135" lon="4.74242">
        <ele>186</ele>
        <time>2017-05-05T11:06:00Z</time>
      </trkpt>
      <trkpt lat="45.89142" lon="4.74241">
        <ele>186</ele>
        <time>2017-05-05T11:06:01Z</time>
      </trkpt>
      <trkpt lat="45.89148" lon="4.7424">
        <ele>186</ele>
        <time>2017-05-05T11:06:02Z</time>
      </trkpt>
      <trkpt lat="45.89154" lon="4.74238">
        <ele>186</ele>
        <time>2017-05-05T11:06:03Z</time>
      </trkpt>
      <trkpt lat="45.8916" lon="4.74235">
        <ele>186</ele>
        <time>2017-05-05T11:06:04Z</time>
      </trkpt>
      <trkpt lat="45.89166" lon="4.74233">
        <ele>186</ele>
        <time>2017-05-05T11:06:05Z</time>
      </trkpt>
      <trkpt lat="45.89172" lon="4.74231">
        <ele>186</ele>
        <time>2017-05-05T11:06:06Z</time>
      </trkpt>
      <trkpt lat="45.89177" lon="4.74229">
        <ele>186</ele>
        <time>2017-05-05T11:06:07Z</time>
      </trkpt>
      <trkpt lat="45.89183" lon="4.74227">
        <ele>186</ele>
        <time>2017-05-05T11:06:08Z</time>
      </trkpt>
      <trkpt lat="45.89188" lon="4.74225">
        <ele>186</ele>
        <time>2017-05-05T11:06:09Z</time>
      </trkpt>
      <trkpt lat="45.89194" lon="4.74222">
        <ele>186</ele>
        <time>2017-05-05T11:06:10Z</time>
      </trkpt>
      <trkpt lat="45.892" lon="4.7422">
        <ele>186</ele>
        <time>2017-05-05T11:06:11Z</time>
      </trkpt>
      <trkpt lat="45.89205" lon="4.74217">
        <ele>186</ele>
        <time>2017-05-05T11:06:12Z</time>
      </trkpt>
      <trkpt lat="45.89211" lon="4.74215">
        <ele>186</ele>
        <time>2017-05-05T11:06:13Z</time>
      </trkpt>
      <trkpt lat="45.89216" lon="4.74213">
        <ele>186</ele>
        <time>2017-05-05T11:06:14Z</time>
      </trkpt>
      <trkpt lat="45.89221" lon="4.7421">
        <ele>186</ele>
        <time>2017-05-05T11:06:15Z</time>
      </trkpt>
      <trkpt lat="45.89227" lon="4.74208">
        <ele>186</ele>
        <time>2017-05-05T11:06:16Z</time>
      </trkpt>
      <trkpt lat="45.89232" lon="4.74206">
        <ele>186</ele>
        <time>2017-05-05T11:06:17Z</time>
      </trkpt>
      <trkpt lat="45.89237" lon="4.74205">
        <ele>186</ele>
        <time>2017-05-05T11:06:18Z</time>
      </trkpt>
      <trkpt lat="45.89243" lon="4.74202">
        <ele>186</ele>
        <time>2017-05-05T11:06:19Z</time>
      </trkpt>
      <trkpt lat="45.89248" lon="4.742">
        <ele>186</ele>
        <time>2017-05-05T11:06:20Z</time>
      </trkpt>
      <trkpt lat="45.89254" lon="4.74198">
        <ele>186</ele>
        <time>2017-05-05T11:06:21Z</time>
      </trkpt>
      <trkpt lat="45.8926" lon="4.74194">
        <ele>186</ele>
        <time>2017-05-05T11:06:22Z</time>
      </trkpt>
      <trkpt lat="45.89266" lon="4.74191">
        <ele>186</ele>
        <time>2017-05-05T11:06:23Z</time>
      </trkpt>
      <trkpt lat="45.89271" lon="4.74189">
        <ele>186</ele>
        <time>2017-05-05T11:06:24Z</time>
      </trkpt>
      <trkpt lat="45.89277" lon="4.74186">
        <ele>186</ele>
        <time>2017-05-05T11:06:25Z</time>
      </trkpt>
      <trkpt lat="45.89283" lon="4.74184">
        <ele>186</ele>
        <time>2017-05-05T11:06:26Z</time>
      </trkpt>
      <trkpt lat="45.89288" lon="4.74182">
        <ele>186</ele>
        <time>2017-05-05T11:06:27Z</time>
      </trkpt>
      <trkpt lat="45.89295" lon="4.74178">
        <ele>186</ele>
        <time>2017-05-05T11:06:28Z</time>
      </trkpt>
      <trkpt lat="45.89301" lon="4.74176">
        <ele>186</ele>
        <time>2017-05-05T11:06:29Z</time>
      </trkpt>
      <trkpt lat="45.89307" lon="4.74174">
        <ele>186</ele>
        <time>2017-05-05T11:06:30Z</time>
      </trkpt>
      <trkpt lat="45.89313" lon="4.74172">
        <ele>186</ele>
        <time>2017-05-05T11:06:31Z</time>
      </trkpt>
      <trkpt lat="45.89319" lon="4.74169">
        <ele>186</ele>
        <time>2017-05-05T11:06:32Z</time>
      </trkpt>
      <trkpt lat="45.89325" lon="4.74166">
        <ele>186</ele>
        <time>2017-05-05T11:06:33Z</time>
      </trkpt>
      <trkpt lat="45.89331" lon="4.74163">
        <ele>186</ele>
        <time>2017-05-05T11:06:34Z</time>
      </trkpt>
      <trkpt lat="45.89337" lon="4.74161">
        <ele>185</ele>
        <time>2017-05-05T11:06:35Z</time>
      </trkpt>
      <trkpt lat="45.89343" lon="4.74158">
        <ele>185</ele>
        <time>2017-05-05T11:06:36Z</time>
      </trkpt>
      <trkpt lat="45.89349" lon="4.74156">
        <ele>185</ele>
        <time>2017-05-05T11:06:37Z</time>
      </trkpt>
      <trkpt lat="45.89355" lon="4.74153">
        <ele>185</ele>
        <time>2017-05-05T11:06:38Z</time>
      </trkpt>
      <trkpt lat="45.8936" lon="4.74151">
        <ele>185</ele>
        <time>2017-05-05T11:06:39Z</time>
      </trkpt>
      <trkpt lat="45.89366" lon="4.74148">
        <ele>184</ele>
        <time>2017-05-05T11:06:40Z</time>
      </trkpt>
      <trkpt lat="45.89372" lon="4.74145">
        <ele>184</ele>
        <time>2017-05-05T11:06:41Z</time>
      </trkpt>
      <trkpt lat="45.89378" lon="4.74143">
        <ele>184</ele>
        <time>2017-05-05T11:06:42Z</time>
      </trkpt>
      <trkpt lat="45.89384" lon="4.7414">
        <ele>184</ele>
        <time>2017-05-05T11:06:43Z</time>
      </trkpt>
      <trkpt lat="45.89389" lon="4.74138">
        <ele>184</ele>
        <time>2017-05-05T11:06:44Z</time>
      </trkpt>
      <trkpt lat="45.89395" lon="4.74136">
        <ele>184</ele>
        <time>2017-05-05T11:06:45Z</time>
      </trkpt>
      <trkpt lat="45.89401" lon="4.74134">
        <ele>184</ele>
        <time>2017-05-05T11:06:46Z</time>
      </trkpt>
      <trkpt lat="45.89406" lon="4.74132">
        <ele>184</ele>
        <time>2017-05-05T11:06:47Z</time>
      </trkpt>
      <trkpt lat="45.89412" lon="4.74129">
        <ele>184</ele>
        <time>2017-05-05T11:06:48Z</time>
      </trkpt>
      <trkpt lat="45.89418" lon="4.74127">
        <ele>183</ele>
        <time>2017-05-05T11:06:49Z</time>
      </trkpt>
      <trkpt lat="45.89423" lon="4.74125">
        <ele>183</ele>
        <time>2017-05-05T11:06:50Z</time>
      </trkpt>
      <trkpt lat="45.89429" lon="4.74122">
        <ele>183</ele>
        <time>2017-05-05T11:06:51Z</time>
      </trkpt>
      <trkpt lat="45.89434" lon="4.7412">
        <ele>183</ele>
        <time>2017-05-05T11:06:52Z</time>
      </trkpt>
      <trkpt lat="45.8944" lon="4.74118">
        <ele>183</ele>
        <time>2017-05-05T11:06:53Z</time>
      </trkpt>
      <trkpt lat="45.89446" lon="4.74115">
        <ele>183</ele>
        <time>2017-05-05T11:06:54Z</time>
      </trkpt>
      <trkpt lat="45.89452" lon="4.74112">
        <ele>183</ele>
        <time>2017-05-05T11:06:55Z</time>
      </trkpt>
      <trkpt lat="45.89458" lon="4.7411">
        <ele>183</ele>
        <time>2017-05-05T11:06:56Z</time>
      </trkpt>
      <trkpt lat="45.89464" lon="4.74107">
        <ele>182</ele>
        <time>2017-05-05T11:06:57Z</time>
      </trkpt>
      <trkpt lat="45.8947" lon="4.74104">
        <ele>182</ele>
        <time>2017-05-05T11:06:58Z</time>
      </trkpt>
      <trkpt lat="45.89476" lon="4.74102">
        <ele>182</ele>
        <time>2017-05-05T11:06:59Z</time>
      </trkpt>
      <trkpt lat="45.89482" lon="4.74099">
        <ele>182</ele>
        <time>2017-05-05T11:07:00Z</time>
      </trkpt>
      <trkpt lat="45.89488" lon="4.74096">
        <ele>182</ele>
        <time>2017-05-05T11:07:01Z</time>
      </trkpt>
      <trkpt lat="45.89494" lon="4.74093">
        <ele>182</ele>
        <time>2017-05-05T11:07:02Z</time>
      </trkpt>
      <trkpt lat="45.895" lon="4.7409">
        <ele>181</ele>
        <time>2017-05-05T11:07:03Z</time>
      </trkpt>
      <trkpt lat="45.89505" lon="4.74088">
        <ele>181</ele>
        <time>2017-05-05T11:07:04Z</time>
      </trkpt>
      <trkpt lat="45.89511" lon="4.74085">
        <ele>181</ele>
        <time>2017-05-05T11:07:05Z</time>
      </trkpt>
      <trkpt lat="45.89516" lon="4.74083">
        <ele>181</ele>
        <time>2017-05-05T11:07:06Z</time>
      </trkpt>
      <trkpt lat="45.89522" lon="4.7408">
        <ele>181</ele>
        <time>2017-05-05T11:07:07Z</time>
      </trkpt>
      <trkpt lat="45.89527" lon="4.74078">
        <ele>181</ele>
        <time>2017-05-05T11:07:08Z</time>
      </trkpt>
      <trkpt lat="45.89533" lon="4.74076">
        <ele>181</ele>
        <time>2017-05-05T11:07:09Z</time>
      </trkpt>
      <trkpt lat="45.89538" lon="4.74074">
        <ele>181</ele>
        <time>2017-05-05T11:07:10Z</time>
      </trkpt>
      <trkpt lat="45.89543" lon="4.74072">
        <ele>181</ele>
        <time>2017-05-05T11:07:11Z</time>
      </trkpt>
      <trkpt lat="45.89548" lon="4.74069">
        <ele>181</ele>
        <time>2017-05-05T11:07:12Z</time>
      </trkpt>
      <trkpt lat="45.89554" lon="4.74067">
        <ele>181</ele>
        <time>2017-05-05T11:07:13Z</time>
      </trkpt>
      <trkpt lat="45.89559" lon="4.74065">
        <ele>181</ele>
        <time>2017-05-05T11:07:14Z</time>
      </trkpt>
      <trkpt lat="45.89565" lon="4.74062">
        <ele>181</ele>
        <time>2017-05-05T11:07:15Z</time>
      </trkpt>
      <trkpt lat="45.89571" lon="4.7406">
        <ele>181</ele>
        <time>2017-05-05T11:07:16Z</time>
      </trkpt>
      <trkpt lat="45.89577" lon="4.74058">
        <ele>181</ele>
        <time>2017-05-05T11:07:17Z</time>
      </trkpt>
      <trkpt lat="45.89583" lon="4.74055">
        <ele>181</ele>
        <time>2017-05-05T11:07:18Z</time>
      </trkpt>
      <trkpt lat="45.89589" lon="4.74053">
        <ele>180</ele>
        <time>2017-05-05T11:07:19Z</time>
      </trkpt>
      <trkpt lat="45.89595" lon="4.7405">
        <ele>180</ele>
        <time>2017-05-05T11:07:20Z</time>
      </trkpt>
      <trkpt lat="45.896" lon="4.74048">
        <ele>180</ele>
        <time>2017-05-05T11:07:21Z</time>
      </trkpt>
      <trkpt lat="45.89607" lon="4.74046">
        <ele>180</ele>
        <time>2017-05-05T11:07:22Z</time>
      </trkpt>
      <trkpt lat="45.89613" lon="4.74043">
        <ele>180</ele>
        <time>2017-05-05T11:07:23Z</time>
      </trkpt>
      <trkpt lat="45.89619" lon="4.74041">
        <ele>180</ele>
        <time>2017-05-05T11:07:24Z</time>
      </trkpt>
      <trkpt lat="45.89626" lon="4.74038">
        <ele>180</ele>
        <time>2017-05-05T11:07:25Z</time>
      </trkpt>
      <trkpt lat="45.89633" lon="4.74035">
        <ele>180</ele>
        <time>2017-05-05T11:07:26Z</time>
      </trkpt>
      <trkpt lat="45.8964" lon="4.74033">
        <ele>180</ele>
        <time>2017-05-05T11:07:27Z</time>
      </trkpt>
      <trkpt lat="45.89647" lon="4.7403">
        <ele>180</ele>
        <time>2017-05-05T11:07:28Z</time>
      </trkpt>
      <trkpt lat="45.89654" lon="4.74027">
        <ele>180</ele>
        <time>2017-05-05T11:07:29Z</time>
      </trkpt>
      <trkpt lat="45.89661" lon="4.74024">
        <ele>180</ele>
        <time>2017-05-05T11:07:30Z</time>
      </trkpt>
      <trkpt lat="45.89668" lon="4.74021">
        <ele>179</ele>
        <time>2017-05-05T11:07:31Z</time>
      </trkpt>
      <trkpt lat="45.89675" lon="4.74018">
        <ele>179</ele>
        <time>2017-05-05T11:07:32Z</time>
      </trkpt>
      <trkpt lat="45.89681" lon="4.74016">
        <ele>179</ele>
        <time>2017-05-05T11:07:33Z</time>
      </trkpt>
      <trkpt lat="45.89687" lon="4.74014">
        <ele>179</ele>
        <time>2017-05-05T11:07:34Z</time>
      </trkpt>
      <trkpt lat="45.89693" lon="4.74011">
        <ele>179</ele>
        <time>2017-05-05T11:07:35Z</time>
      </trkpt>
      <trkpt lat="45.89699" lon="4.74009">
        <ele>179</ele>
        <time>2017-05-05T11:07:36Z</time>
      </trkpt>
      <trkpt lat="45.89705" lon="4.74007">
        <ele>179</ele>
        <time>2017-05-05T11:07:37Z</time>
      </trkpt>
      <trkpt lat="45.8971" lon="4.74004">
        <ele>179</ele>
        <time>2017-05-05T11:07:38Z</time>
      </trkpt>
      <trkpt lat="45.89716" lon="4.74001">
        <ele>179</ele>
        <time>2017-05-05T11:07:39Z</time>
      </trkpt>
      <trkpt lat="45.89722" lon="4.73999">
        <ele>178</ele>
        <time>2017-05-05T11:07:40Z</time>
      </trkpt>
      <trkpt lat="45.89729" lon="4.73996">
        <ele>178</ele>
        <time>2017-05-05T11:07:41Z</time>
      </trkpt>
      <trkpt lat="45.89735" lon="4.73993">
        <ele>178</ele>
        <time>2017-05-05T11:07:42Z</time>
      </trkpt>
      <trkpt lat="45.89742" lon="4.7399">
        <ele>178</ele>
        <time>2017-05-05T11:07:43Z</time>
      </trkpt>
      <trkpt lat="45.89749" lon="4.73987">
        <ele>178</ele>
        <time>2017-05-05T11:07:44Z</time>
      </trkpt>
      <trkpt lat="45.89756" lon="4.73984">
        <ele>178</ele>
        <time>2017-05-05T11:07:45Z</time>
      </trkpt>
      <trkpt lat="45.89762" lon="4.73981">
        <ele>178</ele>
        <time>2017-05-05T11:07:46Z</time>
      </trkpt>
      <trkpt lat="45.89769" lon="4.73978">
        <ele>178</ele>
        <time>2017-05-05T11:07:47Z</time>
      </trkpt>
      <trkpt lat="45.89775" lon="4.73975">
        <ele>179</ele>
        <time>2017-05-05T11:07:48Z</time>
      </trkpt>
      <trkpt lat="45.89781" lon="4.73973">
        <ele>179</ele>
        <time>2017-05-05T11:07:49Z</time>
      </trkpt>
      <trkpt lat="45.89787" lon="4.7397">
        <ele>179</ele>
        <time>2017-05-05T11:07:50Z</time>
      </trkpt>
      <trkpt lat="45.89793" lon="4.73967">
        <ele>179</ele>
        <time>2017-05-05T11:07:51Z</time>
      </trkpt>
      <trkpt lat="45.89799" lon="4.73965">
        <ele>179</ele>
        <time>2017-05-05T11:07:52Z</time>
      </trkpt>
      <trkpt lat="45.89805" lon="4.73963">
        <ele>179</ele>
        <time>2017-05-05T11:07:53Z</time>
      </trkpt>
      <trkpt lat="45.8981" lon="4.73961">
        <ele>179</ele>
        <time>2017-05-05T11:07:54Z</time>
      </trkpt>
      <trkpt lat="45.89816" lon="4.73958">
        <ele>179</ele>
        <time>2017-05-05T11:07:55Z</time>
      </trkpt>
      <trkpt lat="45.89822" lon="4.73956">
        <ele>179</ele>
        <time>2017-05-05T11:07:56Z</time>
      </trkpt>
      <trkpt lat="45.89827" lon="4.73953">
        <ele>179</ele>
        <time>2017-05-05T11:07:57Z</time>
      </trkpt>
      <trkpt lat="45.89833" lon="4.73951">
        <ele>179</ele>
        <time>2017-05-05T11:07:58Z</time>
      </trkpt>
      <trkpt lat="45.89838" lon="4.73948">
        <ele>179</ele>
        <time>2017-05-05T11:07:59Z</time>
      </trkpt>
      <trkpt lat="45.89843" lon="4.73946">
        <ele>179</ele>
        <time>2017-05-05T11:08:00Z</time>
      </trkpt>
      <trkpt lat="45.89849" lon="4.73944">
        <ele>179</ele>
        <time>2017-05-05T11:08:01Z</time>
      </trkpt>
      <trkpt lat="45.89854" lon="4.73942">
        <ele>179</ele>
        <time>2017-05-05T11:08:02Z</time>
      </trkpt>
      <trkpt lat="45.89859" lon="4.7394">
        <ele>179</ele>
        <time>2017-05-05T11:08:03Z</time>
      </trkpt>
      <trkpt lat="45.89865" lon="4.73938">
        <ele>179</ele>
        <time>2017-05-05T11:08:04Z</time>
      </trkpt>
      <trkpt lat="45.8987" lon="4.73935">
        <ele>179</ele>
        <time>2017-05-05T11:08:05Z</time>
      </trkpt>
      <trkpt lat="45.89875" lon="4.73933">
        <ele>179</ele>
        <time>2017-05-05T11:08:06Z</time>
      </trkpt>
      <trkpt lat="45.8988" lon="4.73931">
        <ele>179</ele>
        <time>2017-05-05T11:08:07Z</time>
      </trkpt>
      <trkpt lat="45.89885" lon="4.73929">
        <ele>178</ele>
        <time>2017-05-05T11:08:08Z</time>
      </trkpt>
      <trkpt lat="45.89891" lon="4.73927">
        <ele>178</ele>
        <time>2017-05-05T11:08:09Z</time>
      </trkpt>
      <trkpt lat="45.89896" lon="4.73925">
        <ele>178</ele>
        <time>2017-05-05T11:08:10Z</time>
      </trkpt>
      <trkpt lat="45.89902" lon="4.73922">
        <ele>178</ele>
        <time>2017-05-05T11:08:11Z</time>
      </trkpt>
      <trkpt lat="45.89908" lon="4.7392">
        <ele>178</ele>
        <time>2017-05-05T11:08:12Z</time>
      </trkpt>
      <trkpt lat="45.89913" lon="4.73918">
        <ele>178</ele>
        <time>2017-05-05T11:08:13Z</time>
      </trkpt>
      <trkpt lat="45.89919" lon="4.73915">
        <ele>178</ele>
        <time>2017-05-05T11:08:14Z</time>
      </trkpt>
      <trkpt lat="45.89924" lon="4.73913">
        <ele>178</ele>
        <time>2017-05-05T11:08:15Z</time>
      </trkpt>
      <trkpt lat="45.8993" lon="4.73911">
        <ele>178</ele>
        <time>2017-05-05T11:08:16Z</time>
      </trkpt>
      <trkpt lat="45.89936" lon="4.73908">
        <ele>178</ele>
        <time>2017-05-05T11:08:17Z</time>
      </trkpt>
      <trkpt lat="45.89942" lon="4.73905">
        <ele>178</ele>
        <time>2017-05-05T11:08:18Z</time>
      </trkpt>
      <trkpt lat="45.89948" lon="4.73903">
        <ele>178</ele>
        <time>2017-05-05T11:08:19Z</time>
      </trkpt>
      <trkpt lat="45.89954" lon="4.739">
        <ele>178</ele>
        <time>2017-05-05T11:08:20Z</time>
      </trkpt>
      <trkpt lat="45.8996" lon="4.73897">
        <ele>178</ele>
        <time>2017-05-05T11:08:21Z</time>
      </trkpt>
      <trkpt lat="45.89966" lon="4.73895">
        <ele>178</ele>
        <time>2017-05-05T11:08:22Z</time>
      </trkpt>
      <trkpt lat="45.89972" lon="4.73892">
        <ele>178</ele>
        <time>2017-05-05T11:08:23Z</time>
      </trkpt>
      <trkpt lat="45.89978" lon="4.7389">
        <ele>178</ele>
        <time>2017-05-05T11:08:24Z</time>
      </trkpt>
      <trkpt lat="45.89983" lon="4.73888">
        <ele>178</ele>
        <time>2017-05-05T11:08:25Z</time>
      </trkpt>
      <trkpt lat="45.89989" lon="4.73885">
        <ele>178</ele>
        <time>2017-05-05T11:08:26Z</time>
      </trkpt>
      <trkpt lat="45.89995" lon="4.73883">
        <ele>178</ele>
        <time>2017-05-05T11:08:27Z</time>
      </trkpt>
      <trkpt lat="45.9" lon="4.7388">
        <ele>178</ele>
        <time>2017-05-05T11:08:28Z</time>
      </trkpt>
      <trkpt lat="45.90005" lon="4.73878">
        <ele>178</ele>
        <time>2017-05-05T11:08:29Z</time>
      </trkpt>
      <trkpt lat="45.9001" lon="4.73875">
        <ele>178</ele>
        <time>2017-05-05T11:08:30Z</time>
      </trkpt>
      <trkpt lat="45.90015" lon="4.73873">
        <ele>178</ele>
        <time>2017-05-05T11:08:31Z</time>
      </trkpt>
      <trkpt lat="45.9002" lon="4.73871">
        <ele>178</ele>
        <time>2017-05-05T11:08:32Z</time>
      </trkpt>
      <trkpt lat="45.90025" lon="4.73868">
        <ele>178</ele>
        <time>2017-05-05T11:08:33Z</time>
      </trkpt>
      <trkpt lat="45.9003" lon="4.73866">
        <ele>178</ele>
        <time>2017-05-05T11:08:34Z</time>
      </trkpt>
      <trkpt lat="45.90034" lon="4.73863">
        <ele>178</ele>
        <time>2017-05-05T11:08:35Z</time>
      </trkpt>
      <trkpt lat="45.90039" lon="4.73861">
        <ele>178</ele>
        <time>2017-05-05T11:08:36Z</time>
      </trkpt>
      <trkpt lat="45.90044" lon="4.73859">
        <ele>178</ele>
        <time>2017-05-05T11:08:37Z</time>
      </trkpt>
      <trkpt lat="45.90049" lon="4.73857">
        <ele>178</ele>
        <time>2017-05-05T11:08:38Z</time>
      </trkpt>
      <trkpt lat="45.90054" lon="4.73855">
        <ele>178</ele>
        <time>2017-05-05T11:08:39Z</time>
      </trkpt>
      <trkpt lat="45.9006" lon="4.73852">
        <ele>178</ele>
        <time>2017-05-05T11:08:40Z</time>
      </trkpt>
      <trkpt lat="45.90065" lon="4.73849">
        <ele>178</ele>
        <time>2017-05-05T11:08:41Z</time>
      </trkpt>
      <trkpt lat="45.90071" lon="4.73846">
        <ele>178</ele>
        <time>2017-05-05T11:08:42Z</time>
      </trkpt>
      <trkpt lat="45.90077" lon="4.73844">
        <ele>178</ele>
        <time>2017-05-05T11:08:43Z</time>
      </trkpt>
      <trkpt lat="45.90083" lon="4.73841">
        <ele>178</ele>
        <time>2017-05-05T11:08:44Z</time>
      </trkpt>
      <trkpt lat="45.9009" lon="4.73839">
        <ele>178</ele>
        <time>2017-05-05T11:08:45Z</time>
      </trkpt>
      <trkpt lat="45.90096" lon="4.73837">
        <ele>178</ele>
        <time>2017-05-05T11:08:46Z</time>
      </trkpt>
      <trkpt lat="45.90103" lon="4.73834">
        <ele>177</ele>
        <time>2017-05-05T11:08:47Z</time>
      </trkpt>
      <trkpt lat="45.9011" lon="4.73832">
        <ele>177</ele>
        <time>2017-05-05T11:08:48Z</time>
      </trkpt>
      <trkpt lat="45.90116" lon="4.73829">
        <ele>177</ele>
        <time>2017-05-05T11:08:49Z</time>
      </trkpt>
      <trkpt lat="45.90122" lon="4.73826">
        <ele>177</ele>
        <time>2017-05-05T11:08:50Z</time>
      </trkpt>
      <trkpt lat="45.90128" lon="4.73823">
        <ele>177</ele>
        <time>2017-05-05T11:08:51Z</time>
      </trkpt>
      <trkpt lat="45.90134" lon="4.73821">
        <ele>177</ele>
        <time>2017-05-05T11:08:52Z</time>
      </trkpt>
      <trkpt lat="45.9014" lon="4.73818">
        <ele>177</ele>
        <time>2017-05-05T11:08:53Z</time>
      </trkpt>
      <trkpt lat="45.90145" lon="4.73816">
        <ele>177</ele>
        <time>2017-05-05T11:08:54Z</time>
      </trkpt>
      <trkpt lat="45.90151" lon="4.73814">
        <ele>176</ele>
        <time>2017-05-05T11:08:55Z</time>
      </trkpt>
      <trkpt lat="45.90156" lon="4.73812">
        <ele>176</ele>
        <time>2017-05-05T11:08:56Z</time>
      </trkpt>
      <trkpt lat="45.90161" lon="4.7381">
        <ele>176</ele>
        <time>2017-05-05T11:08:57Z</time>
      </trkpt>
      <trkpt lat="45.90167" lon="4.73808">
        <ele>176</ele>
        <time>2017-05-05T11:08:58Z</time>
      </trkpt>
      <trkpt lat="45.90172" lon="4.73806">
        <ele>177</ele>
        <time>2017-05-05T11:08:59Z</time>
      </trkpt>
      <trkpt lat="45.90177" lon="4.73803">
        <ele>177</ele>
        <time>2017-05-05T11:09:00Z</time>
      </trkpt>
      <trkpt lat="45.90182" lon="4.73801">
        <ele>177</ele>
        <time>2017-05-05T11:09:01Z</time>
      </trkpt>
      <trkpt lat="45.90188" lon="4.73798">
        <ele>177</ele>
        <time>2017-05-05T11:09:02Z</time>
      </trkpt>
      <trkpt lat="45.90193" lon="4.73796">
        <ele>177</ele>
        <time>2017-05-05T11:09:03Z</time>
      </trkpt>
      <trkpt lat="45.90198" lon="4.73793">
        <ele>177</ele>
        <time>2017-05-05T11:09:04Z</time>
      </trkpt>
      <trkpt lat="45.90204" lon="4.73791">
        <ele>177</ele>
        <time>2017-05-05T11:09:05Z</time>
      </trkpt>
      <trkpt lat="45.90209" lon="4.73789">
        <ele>177</ele>
        <time>2017-05-05T11:09:06Z</time>
      </trkpt>
      <trkpt lat="45.90215" lon="4.73786">
        <ele>177</ele>
        <time>2017-05-05T11:09:07Z</time>
      </trkpt>
      <trkpt lat="45.90221" lon="4.73784">
        <ele>177</ele>
        <time>2017-05-05T11:09:08Z</time>
      </trkpt>
      <trkpt lat="45.90226" lon="4.73781">
        <ele>177</ele>
        <time>2017-05-05T11:09:09Z</time>
      </trkpt>
      <trkpt lat="45.90232" lon="4.73778">
        <ele>177</ele>
        <time>2017-05-05T11:09:10Z</time>
      </trkpt>
      <trkpt lat="45.90237" lon="4.73776">
        <ele>177</ele>
        <time>2017-05-05T11:09:11Z</time>
      </trkpt>
      <trkpt lat="45.90243" lon="4.73773">
        <ele>177</ele>
        <time>2017-05-05T11:09:12Z</time>
      </trkpt>
      <trkpt lat="45.90249" lon="4.7377">
        <ele>178</ele>
        <time>2017-05-05T11:09:13Z</time>
      </trkpt>
      <trkpt lat="45.90255" lon="4.73768">
        <ele>177</ele>
        <time>2017-05-05T11:09:14Z</time>
      </trkpt>
      <trkpt lat="45.9026" lon="4.73765">
        <ele>177</ele>
        <time>2017-05-05T11:09:15Z</time>
      </trkpt>
      <trkpt lat="45.90266" lon="4.73763">
        <ele>177</ele>
        <time>2017-05-05T11:09:16Z</time>
      </trkpt>
      <trkpt lat="45.90272" lon="4.7376">
        <ele>177</ele>
        <time>2017-05-05T11:09:17Z</time>
      </trkpt>
      <trkpt lat="45.90278" lon="4.73758">
        <ele>177</ele>
        <time>2017-05-05T11:09:18Z</time>
      </trkpt>
      <trkpt lat="45.90284" lon="4.73755">
        <ele>177</ele>
        <time>2017-05-05T11:09:19Z</time>
      </trkpt>
      <trkpt lat="45.9029" lon="4.73752">
        <ele>177</ele>
        <time>2017-05-05T11:09:20Z</time>
      </trkpt>
      <trkpt lat="45.90297" lon="4.7375">
        <ele>177</ele>
        <time>2017-05-05T11:09:21Z</time>
      </trkpt>
      <trkpt lat="45.90303" lon="4.73747">
        <ele>177</ele>
        <time>2017-05-05T11:09:22Z</time>
      </trkpt>
      <trkpt lat="45.90309" lon="4.73745">
        <ele>177</ele>
        <time>2017-05-05T11:09:23Z</time>
      </trkpt>
      <trkpt lat="45.90315" lon="4.73742">
        <ele>177</ele>
        <time>2017-05-05T11:09:24Z</time>
      </trkpt>
      <trkpt lat="45.90321" lon="4.73739">
        <ele>177</ele>
        <time>2017-05-05T11:09:25Z</time>
      </trkpt>
      <trkpt lat="45.90327" lon="4.73736">
        <ele>177</ele>
        <time>2017-05-05T11:09:26Z</time>
      </trkpt>
      <trkpt lat="45.90332" lon="4.73734">
        <ele>177</ele>
        <time>2017-05-05T11:09:27Z</time>
      </trkpt>
      <trkpt lat="45.90338" lon="4.73731">
        <ele>176</ele>
        <time>2017-05-05T11:09:28Z</time>
      </trkpt>
      <trkpt lat="45.90344" lon="4.73729">
        <ele>177</ele>
        <time>2017-05-05T11:09:29Z</time>
      </trkpt>
      <trkpt lat="45.90349" lon="4.73727">
        <ele>177</ele>
        <time>2017-05-05T11:09:30Z</time>
      </trkpt>
      <trkpt lat="45.90354" lon="4.73724">
        <ele>177</ele>
        <time>2017-05-05T11:09:31Z</time>
      </trkpt>
      <trkpt lat="45.9036" lon="4.73722">
        <ele>177</ele>
        <time>2017-05-05T11:09:32Z</time>
      </trkpt>
      <trkpt lat="45.90365" lon="4.7372">
        <ele>177</ele>
        <time>2017-05-05T11:09:33Z</time>
      </trkpt>
      <trkpt lat="45.9037" lon="4.73718">
        <ele>177</ele>
        <time>2017-05-05T11:09:34Z</time>
      </trkpt>
      <trkpt lat="45.90376" lon="4.73716">
        <ele>177</ele>
        <time>2017-05-05T11:09:35Z</time>
      </trkpt>
      <trkpt lat="45.90381" lon="4.73713">
        <ele>177</ele>
        <time>2017-05-05T11:09:36Z</time>
      </trkpt>
      <trkpt lat="45.90386" lon="4.7371">
        <ele>177</ele>
        <time>2017-05-05T11:09:37Z</time>
      </trkpt>
      <trkpt lat="45.90391" lon="4.73708">
        <ele>177</ele>
        <time>2017-05-05T11:09:38Z</time>
      </trkpt>
      <trkpt lat="45.90396" lon="4.73706">
        <ele>177</ele>
        <time>2017-05-05T11:09:39Z</time>
      </trkpt>
      <trkpt lat="45.90402" lon="4.73704">
        <ele>177</ele>
        <time>2017-05-05T11:09:40Z</time>
      </trkpt>
      <trkpt lat="45.90407" lon="4.73702">
        <ele>177</ele>
        <time>2017-05-05T11:09:41Z</time>
      </trkpt>
      <trkpt lat="45.90412" lon="4.737">
        <ele>177</ele>
        <time>2017-05-05T11:09:42Z</time>
      </trkpt>
      <trkpt lat="45.90417" lon="4.73698">
        <ele>177</ele>
        <time>2017-05-05T11:09:43Z</time>
      </trkpt>
      <trkpt lat="45.90422" lon="4.73695">
        <ele>176</ele>
        <time>2017-05-05T11:09:44Z</time>
      </trkpt>
      <trkpt lat="45.90427" lon="4.73693">
        <ele>176</ele>
        <time>2017-05-05T11:09:45Z</time>
      </trkpt>
      <trkpt lat="45.90432" lon="4.73691">
        <ele>176</ele>
        <time>2017-05-05T11:09:46Z</time>
      </trkpt>
      <trkpt lat="45.90436" lon="4.73688">
        <ele>176</ele>
        <time>2017-05-05T11:09:47Z</time>
      </trkpt>
      <trkpt lat="45.90441" lon="4.73686">
        <ele>176</ele>
        <time>2017-05-05T11:09:48Z</time>
      </trkpt>
      <trkpt lat="45.90446" lon="4.73684">
        <ele>176</ele>
        <time>2017-05-05T11:09:49Z</time>
      </trkpt>
      <trkpt lat="45.90451" lon="4.73682">
        <ele>176</ele>
        <time>2017-05-05T11:09:50Z</time>
      </trkpt>
      <trkpt lat="45.90456" lon="4.7368">
        <ele>176</ele>
        <time>2017-05-05T11:09:51Z</time>
      </trkpt>
      <trkpt lat="45.90461" lon="4.73678">
        <ele>176</ele>
        <time>2017-05-05T11:09:52Z</time>
      </trkpt>
      <trkpt lat="45.90467" lon="4.73676">
        <ele>176</ele>
        <time>2017-05-05T11:09:53Z</time>
      </trkpt>
      <trkpt lat="45.90472" lon="4.73674">
        <ele>176</ele>
        <time>2017-05-05T11:09:54Z</time>
      </trkpt>
      <trkpt lat="45.90477" lon="4.73672">
        <ele>176</ele>
        <time>2017-05-05T11:09:55Z</time>
      </trkpt>
      <trkpt lat="45.90482" lon="4.7367">
        <ele>176</ele>
        <time>2017-05-05T11:09:56Z</time>
      </trkpt>
      <trkpt lat="45.90487" lon="4.73668">
        <ele>177</ele>
        <time>2017-05-05T11:09:57Z</time>
      </trkpt>
      <trkpt lat="45.90492" lon="4.73665">
        <ele>177</ele>
        <time>2017-05-05T11:09:58Z</time>
      </trkpt>
      <trkpt lat="45.90497" lon="4.73663">
        <ele>177</ele>
        <time>2017-05-05T11:09:59Z</time>
      </trkpt>
      <trkpt lat="45.90502" lon="4.73661">
        <ele>177</ele>
        <time>2017-05-05T11:10:00Z</time>
      </trkpt>
      <trkpt lat="45.90507" lon="4.73659">
        <ele>177</ele>
        <time>2017-05-05T11:10:01Z</time>
      </trkpt>
      <trkpt lat="45.90512" lon="4.73657">
        <ele>178</ele>
        <time>2017-05-05T11:10:02Z</time>
      </trkpt>
      <trkpt lat="45.90517" lon="4.73654">
        <ele>178</ele>
        <time>2017-05-05T11:10:03Z</time>
      </trkpt>
      <trkpt lat="45.90522" lon="4.73652">
        <ele>178</ele>
        <time>2017-05-05T11:10:04Z</time>
      </trkpt>
      <trkpt lat="45.90527" lon="4.7365">
        <ele>178</ele>
        <time>2017-05-05T11:10:05Z</time>
      </trkpt>
      <trkpt lat="45.90532" lon="4.73647">
        <ele>178</ele>
        <time>2017-05-05T11:10:06Z</time>
      </trkpt>
      <trkpt lat="45.90537" lon="4.73645">
        <ele>178</ele>
        <time>2017-05-05T11:10:07Z</time>
      </trkpt>
      <trkpt lat="45.90542" lon="4.73644">
        <ele>178</ele>
        <time>2017-05-05T11:10:08Z</time>
      </trkpt>
      <trkpt lat="45.90547" lon="4.73642">
        <ele>179</ele>
        <time>2017-05-05T11:10:09Z</time>
      </trkpt>
      <trkpt lat="45.90552" lon="4.7364">
        <ele>179</ele>
        <time>2017-05-05T11:10:10Z</time>
      </trkpt>
      <trkpt lat="45.90557" lon="4.73638">
        <ele>179</ele>
        <time>2017-05-05T11:10:11Z</time>
      </trkpt>
      <trkpt lat="45.90561" lon="4.73636">
        <ele>179</ele>
        <time>2017-05-05T11:10:12Z</time>
      </trkpt>
      <trkpt lat="45.90566" lon="4.73634">
        <ele>179</ele>
        <time>2017-05-05T11:10:13Z</time>
      </trkpt>
      <trkpt lat="45.9057" lon="4.73632">
        <ele>179</ele>
        <time>2017-05-05T11:10:14Z</time>
      </trkpt>
      <trkpt lat="45.90575" lon="4.73629">
        <ele>179</ele>
        <time>2017-05-05T11:10:15Z</time>
      </trkpt>
      <trkpt lat="45.9058" lon="4.73627">
        <ele>179</ele>
        <time>2017-05-05T11:10:16Z</time>
      </trkpt>
      <trkpt lat="45.90585" lon="4.73625">
        <ele>181</ele>
        <time>2017-05-05T11:10:17Z</time>
      </trkpt>
      <trkpt lat="45.90589" lon="4.73624">
        <ele>181</ele>
        <time>2017-05-05T11:10:18Z</time>
      </trkpt>
      <trkpt lat="45.90594" lon="4.73622">
        <ele>181</ele>
        <time>2017-05-05T11:10:19Z</time>
      </trkpt>
      <trkpt lat="45.90599" lon="4.7362">
        <ele>181</ele>
        <time>2017-05-05T11:10:20Z</time>
      </trkpt>
      <trkpt lat="45.90604" lon="4.73618">
        <ele>181</ele>
        <time>2017-05-05T11:10:21Z</time>
      </trkpt>
      <trkpt lat="45.90609" lon="4.73616">
        <ele>181</ele>
        <time>2017-05-05T11:10:22Z</time>
      </trkpt>
      <trkpt lat="45.90614" lon="4.73614">
        <ele>181</ele>
        <time>2017-05-05T11:10:23Z</time>
      </trkpt>
      <trkpt lat="45.90619" lon="4.73612">
        <ele>181</ele>
        <time>2017-05-05T11:10:24Z</time>
      </trkpt>
      <trkpt lat="45.90624" lon="4.7361">
        <ele>181</ele>
        <time>2017-05-05T11:10:25Z</time>
      </trkpt>
      <trkpt lat="45.90629" lon="4.73607">
        <ele>181</ele>
        <time>2017-05-05T11:10:26Z</time>
      </trkpt>
      <trkpt lat="45.90634" lon="4.73605">
        <ele>181</ele>
        <time>2017-05-05T11:10:27Z</time>
      </trkpt>
      <trkpt lat="45.9064" lon="4.73603">
        <ele>181</ele>
        <time>2017-05-05T11:10:28Z</time>
      </trkpt>
      <trkpt lat="45.90645" lon="4.73601">
        <ele>181</ele>
        <time>2017-05-05T11:10:29Z</time>
      </trkpt>
      <trkpt lat="45.90651" lon="4.73599">
        <ele>181</ele>
        <time>2017-05-05T11:10:30Z</time>
      </trkpt>
      <trkpt lat="45.90656" lon="4.73596">
        <ele>181</ele>
        <time>2017-05-05T11:10:31Z</time>
      </trkpt>
      <trkpt lat="45.90662" lon="4.73594">
        <ele>181</ele>
        <time>2017-05-05T11:10:32Z</time>
      </trkpt>
      <trkpt lat="45.90668" lon="4.73591">
        <ele>180</ele>
        <time>2017-05-05T11:10:33Z</time>
      </trkpt>
      <trkpt lat="45.90674" lon="4.73589">
        <ele>181</ele>
        <time>2017-05-05T11:10:34Z</time>
      </trkpt>
      <trkpt lat="45.90681" lon="4.73586">
        <ele>181</ele>
        <time>2017-05-05T11:10:35Z</time>
      </trkpt>
      <trkpt lat="45.90687" lon="4.73583">
        <ele>179</ele>
        <time>2017-05-05T11:10:36Z</time>
      </trkpt>
      <trkpt lat="45.90694" lon="4.7358">
        <ele>178</ele>
        <time>2017-05-05T11:10:37Z</time>
      </trkpt>
      <trkpt lat="45.90701" lon="4.73577">
        <ele>178</ele>
        <time>2017-05-05T11:10:38Z</time>
      </trkpt>
      <trkpt lat="45.90708" lon="4.73574">
        <ele>178</ele>
        <time>2017-05-05T11:10:39Z</time>
      </trkpt>
      <trkpt lat="45.90715" lon="4.73571">
        <ele>178</ele>
        <time>2017-05-05T11:10:40Z</time>
      </trkpt>
      <trkpt lat="45.90722" lon="4.73568">
        <ele>178</ele>
        <time>2017-05-05T11:10:41Z</time>
      </trkpt>
      <trkpt lat="45.90729" lon="4.73565">
        <ele>178</ele>
        <time>2017-05-05T11:10:42Z</time>
      </trkpt>
      <trkpt lat="45.90736" lon="4.73562">
        <ele>178</ele>
        <time>2017-05-05T11:10:43Z</time>
      </trkpt>
      <trkpt lat="45.90744" lon="4.73558">
        <ele>178</ele>
        <time>2017-05-05T11:10:44Z</time>
      </trkpt>
      <trkpt lat="45.90752" lon="4.73555">
        <ele>177</ele>
        <time>2017-05-05T11:10:45Z</time>
      </trkpt>
      <trkpt lat="45.90759" lon="4.73552">
        <ele>177</ele>
        <time>2017-05-05T11:10:46Z</time>
      </trkpt>
      <trkpt lat="45.90767" lon="4.73549">
        <ele>176</ele>
        <time>2017-05-05T11:10:47Z</time>
      </trkpt>
      <trkpt lat="45.90775" lon="4.73546">
        <ele>176</ele>
        <time>2017-05-05T11:10:48Z</time>
      </trkpt>
      <trkpt lat="45.90783" lon="4.73543">
        <ele>176</ele>
        <time>2017-05-05T11:10:49Z</time>
      </trkpt>
      <trkpt lat="45.9079" lon="4.7354">
        <ele>176</ele>
        <time>2017-05-05T11:10:50Z</time>
      </trkpt>
      <trkpt lat="45.90797" lon="4.73537">
        <ele>176</ele>
        <time>2017-05-05T11:10:51Z</time>
      </trkpt>
      <trkpt lat="45.90804" lon="4.73534">
        <ele>175</ele>
        <time>2017-05-05T11:10:52Z</time>
      </trkpt>
      <trkpt lat="45.90811" lon="4.73531">
        <ele>175</ele>
        <time>2017-05-05T11:10:53Z</time>
      </trkpt>
      <trkpt lat="45.90818" lon="4.73528">
        <ele>175</ele>
        <time>2017-05-05T11:10:54Z</time>
      </trkpt>
      <trkpt lat="45.90825" lon="4.73525">
        <ele>175</ele>
        <time>2017-05-05T11:10:55Z</time>
      </trkpt>
      <trkpt lat="45.90832" lon="4.73522">
        <ele>175</ele>
        <time>2017-05-05T11:10:56Z</time>
      </trkpt>
      <trkpt lat="45.90838" lon="4.7352">
        <ele>174</ele>
        <time>2017-05-05T11:10:57Z</time>
      </trkpt>
      <trkpt lat="45.90845" lon="4.73517">
        <ele>174</ele>
        <time>2017-05-05T11:10:58Z</time>
      </trkpt>
      <trkpt lat="45.90851" lon="4.73515">
        <ele>174</ele>
        <time>2017-05-05T11:10:59Z</time>
      </trkpt>
      <trkpt lat="45.90857" lon="4.73512">
        <ele>174</ele>
        <time>2017-05-05T11:11:00Z</time>
      </trkpt>
      <trkpt lat="45.90863" lon="4.7351">
        <ele>174</ele>
        <time>2017-05-05T11:11:01Z</time>
      </trkpt>
      <trkpt lat="45.90869" lon="4.73508">
        <ele>174</ele>
        <time>2017-05-05T11:11:02Z</time>
      </trkpt>
      <trkpt lat="45.90875" lon="4.73505">
        <ele>174</ele>
        <time>2017-05-05T11:11:03Z</time>
      </trkpt>
      <trkpt lat="45.90881" lon="4.73503">
        <ele>175</ele>
        <time>2017-05-05T11:11:04Z</time>
      </trkpt>
      <trkpt lat="45.90886" lon="4.735">
        <ele>175</ele>
        <time>2017-05-05T11:11:05Z</time>
      </trkpt>
      <trkpt lat="45.90891" lon="4.73498">
        <ele>175</ele>
        <time>2017-05-05T11:11:06Z</time>
      </trkpt>
      <trkpt lat="45.90896" lon="4.73496">
        <ele>175</ele>
        <time>2017-05-05T11:11:07Z</time>
      </trkpt>
      <trkpt lat="45.90902" lon="4.73494">
        <ele>175</ele>
        <time>2017-05-05T11:11:08Z</time>
      </trkpt>
      <trkpt lat="45.90907" lon="4.73491">
        <ele>175</ele>
        <time>2017-05-05T11:11:09Z</time>
      </trkpt>
      <trkpt lat="45.90912" lon="4.73489">
        <ele>175</ele>
        <time>2017-05-05T11:11:10Z</time>
      </trkpt>
      <trkpt lat="45.90917" lon="4.73487">
        <ele>175</ele>
        <time>2017-05-05T11:11:11Z</time>
      </trkpt>
      <trkpt lat="45.90922" lon="4.73484">
        <ele>175</ele>
        <time>2017-05-05T11:11:12Z</time>
      </trkpt>
      <trkpt lat="45.90928" lon="4.73482">
        <ele>175</ele>
        <time>2017-05-05T11:11:13Z</time>
      </trkpt>
      <trkpt lat="45.90933" lon="4.7348">
        <ele>175</ele>
        <time>2017-05-05T11:11:14Z</time>
      </trkpt>
      <trkpt lat="45.90939" lon="4.73477">
        <ele>175</ele>
        <time>2017-05-05T11:11:15Z</time>
      </trkpt>
      <trkpt lat="45.90944" lon="4.73475">
        <ele>175</ele>
        <time>2017-05-05T11:11:16Z</time>
      </trkpt>
      <trkpt lat="45.9095" lon="4.73472">
        <ele>175</ele>
        <time>2017-05-05T11:11:17Z</time>
      </trkpt>
      <trkpt lat="45.90956" lon="4.73469">
        <ele>175</ele>
        <time>2017-05-05T11:11:18Z</time>
      </trkpt>
      <trkpt lat="45.90962" lon="4.73467">
        <ele>175</ele>
        <time>2017-05-05T11:11:19Z</time>
      </trkpt>
      <trkpt lat="45.90969" lon="4.73464">
        <ele>175</ele>
        <time>2017-05-05T11:11:20Z</time>
      </trkpt>
      <trkpt lat="45.90975" lon="4.73461">
        <ele>175</ele>
        <time>2017-05-05T11:11:21Z</time>
      </trkpt>
      <trkpt lat="45.90981" lon="4.73458">
        <ele>175</ele>
        <time>2017-05-05T11:11:22Z</time>
      </trkpt>
      <trkpt lat="45.90987" lon="4.73456">
        <ele>175</ele>
        <time>2017-05-05T11:11:23Z</time>
      </trkpt>
      <trkpt lat="45.90994" lon="4.73454">
        <ele>175</ele>
        <time>2017-05-05T11:11:24Z</time>
      </trkpt>
      <trkpt lat="45.91" lon="4.73453">
        <ele>175</ele>
        <time>2017-05-05T11:11:25Z</time>
      </trkpt>
      <trkpt lat="45.91005" lon="4.73454">
        <ele>175</ele>
        <time>2017-05-05T11:11:26Z</time>
      </trkpt>
      <trkpt lat="45.91012" lon="4.73455">
        <ele>175</ele>
        <time>2017-05-05T11:11:28Z</time>
      </trkpt>
      <trkpt lat="45.91015" lon="4.73457">
        <ele>175</ele>
        <time>2017-05-05T11:11:29Z</time>
      </trkpt>
      <trkpt lat="45.91022" lon="4.73461">
        <ele>175</ele>
        <time>2017-05-05T11:11:31Z</time>
      </trkpt>
      <trkpt lat="45.91026" lon="4.73465">
        <ele>175</ele>
        <time>2017-05-05T11:11:32Z</time>
      </trkpt>
      <trkpt lat="45.91029" lon="4.73469">
        <ele>175</ele>
        <time>2017-05-05T11:11:33Z</time>
      </trkpt>
      <trkpt lat="45.91033" lon="4.73475">
        <ele>175</ele>
        <time>2017-05-05T11:11:34Z</time>
      </trkpt>
      <trkpt lat="45.91036" lon="4.73481">
        <ele>175</ele>
        <time>2017-05-05T11:11:35Z</time>
      </trkpt>
      <trkpt lat="45.91039" lon="4.73489">
        <ele>175</ele>
        <time>2017-05-05T11:11:36Z</time>
      </trkpt>
      <trkpt lat="45.91042" lon="4.73496">
        <ele>175</ele>
        <time>2017-05-05T11:11:37Z</time>
      </trkpt>
      <trkpt lat="45.91045" lon="4.73503">
        <ele>175</ele>
        <time>2017-05-05T11:11:38Z</time>
      </trkpt>
      <trkpt lat="45.91048" lon="4.7351">
        <ele>175</ele>
        <time>2017-05-05T11:11:39Z</time>
      </trkpt>
      <trkpt lat="45.91051" lon="4.73517">
        <ele>175</ele>
        <time>2017-05-05T11:11:40Z</time>
      </trkpt>
      <trkpt lat="45.91054" lon="4.73524">
        <ele>175</ele>
        <time>2017-05-05T11:11:41Z</time>
      </trkpt>
      <trkpt lat="45.91057" lon="4.73531">
        <ele>175</ele>
        <time>2017-05-05T11:11:42Z</time>
      </trkpt>
      <trkpt lat="45.9106" lon="4.73538">
        <ele>175</ele>
        <time>2017-05-05T11:11:43Z</time>
      </trkpt>
      <trkpt lat="45.91063" lon="4.73544">
        <ele>174</ele>
        <time>2017-05-05T11:11:44Z</time>
      </trkpt>
      <trkpt lat="45.91066" lon="4.73551">
        <ele>174</ele>
        <time>2017-05-05T11:11:45Z</time>
      </trkpt>
      <trkpt lat="45.91069" lon="4.73558">
        <ele>174</ele>
        <time>2017-05-05T11:11:46Z</time>
      </trkpt>
      <trkpt lat="45.91072" lon="4.73564">
        <ele>174</ele>
        <time>2017-05-05T11:11:47Z</time>
      </trkpt>
      <trkpt lat="45.91075" lon="4.73571">
        <ele>174</ele>
        <time>2017-05-05T11:11:48Z</time>
      </trkpt>
      <trkpt lat="45.91078" lon="4.73578">
        <ele>174</ele>
        <time>2017-05-05T11:11:49Z</time>
      </trkpt>
      <trkpt lat="45.91081" lon="4.73585">
        <ele>174</ele>
        <time>2017-05-05T11:11:50Z</time>
      </trkpt>
      <trkpt lat="45.91084" lon="4.73592">
        <ele>174</ele>
        <time>2017-05-05T11:11:51Z</time>
      </trkpt>
      <trkpt lat="45.91087" lon="4.73599">
        <ele>174</ele>
        <time>2017-05-05T11:11:52Z</time>
      </trkpt>
      <trkpt lat="45.91091" lon="4.73606">
        <ele>174</ele>
        <time>2017-05-05T11:11:53Z</time>
      </trkpt>
      <trkpt lat="45.91094" lon="4.73614">
        <ele>174</ele>
        <time>2017-05-05T11:11:54Z</time>
      </trkpt>
      <trkpt lat="45.91098" lon="4.73622">
        <ele>174</ele>
        <time>2017-05-05T11:11:55Z</time>
      </trkpt>
      <trkpt lat="45.91102" lon="4.7363">
        <ele>174</ele>
        <time>2017-05-05T11:11:56Z</time>
      </trkpt>
      <trkpt lat="45.91105" lon="4.73637">
        <ele>174</ele>
        <time>2017-05-05T11:11:57Z</time>
      </trkpt>
      <trkpt lat="45.91109" lon="4.73645">
        <ele>174</ele>
        <time>2017-05-05T11:11:58Z</time>
      </trkpt>
      <trkpt lat="45.91113" lon="4.73653">
        <ele>174</ele>
        <time>2017-05-05T11:11:59Z</time>
      </trkpt>
      <trkpt lat="45.91117" lon="4.7366">
        <ele>174</ele>
        <time>2017-05-05T11:12:00Z</time>
      </trkpt>
      <trkpt lat="45.91121" lon="4.73668">
        <ele>174</ele>
        <time>2017-05-05T11:12:01Z</time>
      </trkpt>
      <trkpt lat="45.91125" lon="4.73677">
        <ele>174</ele>
        <time>2017-05-05T11:12:02Z</time>
      </trkpt>
      <trkpt lat="45.91128" lon="4.73685">
        <ele>174</ele>
        <time>2017-05-05T11:12:03Z</time>
      </trkpt>
      <trkpt lat="45.91132" lon="4.73693">
        <ele>174</ele>
        <time>2017-05-05T11:12:04Z</time>
      </trkpt>
      <trkpt lat="45.91136" lon="4.73701">
        <ele>174</ele>
        <time>2017-05-05T11:12:05Z</time>
      </trkpt>
      <trkpt lat="45.91139" lon="4.7371">
        <ele>174</ele>
        <time>2017-05-05T11:12:06Z</time>
      </trkpt>
      <trkpt lat="45.91143" lon="4.73718">
        <ele>174</ele>
        <time>2017-05-05T11:12:07Z</time>
      </trkpt>
      <trkpt lat="45.91147" lon="4.73725">
        <ele>174</ele>
        <time>2017-05-05T11:12:08Z</time>
      </trkpt>
      <trkpt lat="45.91152" lon="4.73731">
        <ele>175</ele>
        <time>2017-05-05T11:12:09Z</time>
      </trkpt>
      <trkpt lat="45.91158" lon="4.73736">
        <ele>175</ele>
        <time>2017-05-05T11:12:10Z</time>
      </trkpt>
      <trkpt lat="45.91164" lon="4.73738">
        <ele>175</ele>
        <time>2017-05-05T11:12:11Z</time>
      </trkpt>
      <trkpt lat="45.9117" lon="4.73739">
        <ele>175</ele>
        <time>2017-05-05T11:12:12Z</time>
      </trkpt>
      <trkpt lat="45.91177" lon="4.7374">
        <ele>175</ele>
        <time>2017-05-05T11:12:13Z</time>
      </trkpt>
      <trkpt lat="45.91183" lon="4.73741">
        <ele>175</ele>
        <time>2017-05-05T11:12:14Z</time>
      </trkpt>
      <trkpt lat="45.91188" lon="4.73743">
        <ele>175</ele>
        <time>2017-05-05T11:12:15Z</time>
      </trkpt>
      <trkpt lat="45.91194" lon="4.73744">
        <ele>175</ele>
        <time>2017-05-05T11:12:16Z</time>
      </trkpt>
      <trkpt lat="45.91199" lon="4.73745">
        <ele>175</ele>
        <time>2017-05-05T11:12:17Z</time>
      </trkpt>
      <trkpt lat="45.91205" lon="4.73745">
        <ele>175</ele>
        <time>2017-05-05T11:12:18Z</time>
      </trkpt>
      <trkpt lat="45.9121" lon="4.73745">
        <ele>175</ele>
        <time>2017-05-05T11:12:19Z</time>
      </trkpt>
      <trkpt lat="45.91216" lon="4.73745">
        <ele>175</ele>
        <time>2017-05-05T11:12:20Z</time>
      </trkpt>
      <trkpt lat="45.91222" lon="4.73745">
        <ele>175</ele>
        <time>2017-05-05T11:12:21Z</time>
      </trkpt>
      <trkpt lat="45.91228" lon="4.73744">
        <ele>175</ele>
        <time>2017-05-05T11:12:22Z</time>
      </trkpt>
      <trkpt lat="45.91234" lon="4.73743">
        <ele>175</ele>
        <time>2017-05-05T11:12:23Z</time>
      </trkpt>
      <trkpt lat="45.91241" lon="4.73743">
        <ele>175</ele>
        <time>2017-05-05T11:12:24Z</time>
      </trkpt>
      <trkpt lat="45.91247" lon="4.73743">
        <ele>175</ele>
        <time>2017-05-05T11:12:25Z</time>
      </trkpt>
      <trkpt lat="45.91254" lon="4.73743">
        <ele>175</ele>
        <time>2017-05-05T11:12:26Z</time>
      </trkpt>
      <trkpt lat="45.9126" lon="4.73742">
        <ele>175</ele>
        <time>2017-05-05T11:12:27Z</time>
      </trkpt>
      <trkpt lat="45.91266" lon="4.73742">
        <ele>174</ele>
        <time>2017-05-05T11:12:28Z</time>
      </trkpt>
      <trkpt lat="45.91272" lon="4.73742">
        <ele>174</ele>
        <time>2017-05-05T11:12:29Z</time>
      </trkpt>
      <trkpt lat="45.91278" lon="4.73741">
        <ele>174</ele>
        <time>2017-05-05T11:12:30Z</time>
      </trkpt>
      <trkpt lat="45.91284" lon="4.73741">
        <ele>174</ele>
        <time>2017-05-05T11:12:31Z</time>
      </trkpt>
      <trkpt lat="45.91289" lon="4.73741">
        <ele>174</ele>
        <time>2017-05-05T11:12:32Z</time>
      </trkpt>
      <trkpt lat="45.91295" lon="4.73741">
        <ele>174</ele>
        <time>2017-05-05T11:12:33Z</time>
      </trkpt>
      <trkpt lat="45.913" lon="4.73741">
        <ele>174</ele>
        <time>2017-05-05T11:12:34Z</time>
      </trkpt>
      <trkpt lat="45.91305" lon="4.73741">
        <ele>174</ele>
        <time>2017-05-05T11:12:35Z</time>
      </trkpt>
      <trkpt lat="45.91311" lon="4.73741">
        <ele>174</ele>
        <time>2017-05-05T11:12:36Z</time>
      </trkpt>
      <trkpt lat="45.91316" lon="4.73741">
        <ele>174</ele>
        <time>2017-05-05T11:12:37Z</time>
      </trkpt>
      <trkpt lat="45.91321" lon="4.73741">
        <ele>173</ele>
        <time>2017-05-05T11:12:38Z</time>
      </trkpt>
      <trkpt lat="45.91327" lon="4.73741">
        <ele>173</ele>
        <time>2017-05-05T11:12:39Z</time>
      </trkpt>
      <trkpt lat="45.91332" lon="4.73741">
        <ele>173</ele>
        <time>2017-05-05T11:12:40Z</time>
      </trkpt>
      <trkpt lat="45.91338" lon="4.73741">
        <ele>173</ele>
        <time>2017-05-05T11:12:41Z</time>
      </trkpt>
      <trkpt lat="45.91344" lon="4.73741">
        <ele>173</ele>
        <time>2017-05-05T11:12:42Z</time>
      </trkpt>
      <trkpt lat="45.91349" lon="4.73741">
        <ele>173</ele>
        <time>2017-05-05T11:12:43Z</time>
      </trkpt>
      <trkpt lat="45.91355" lon="4.73741">
        <ele>173</ele>
        <time>2017-05-05T11:12:44Z</time>
      </trkpt>
      <trkpt lat="45.91361" lon="4.7374">
        <ele>173</ele>
        <time>2017-05-05T11:12:45Z</time>
      </trkpt>
      <trkpt lat="45.91366" lon="4.7374">
        <ele>173</ele>
        <time>2017-05-05T11:12:46Z</time>
      </trkpt>
      <trkpt lat="45.91371" lon="4.7374">
        <ele>173</ele>
        <time>2017-05-05T11:12:47Z</time>
      </trkpt>
      <trkpt lat="45.91377" lon="4.7374">
        <ele>173</ele>
        <time>2017-05-05T11:12:48Z</time>
      </trkpt>
      <trkpt lat="45.91382" lon="4.73739">
        <ele>173</ele>
        <time>2017-05-05T11:12:49Z</time>
      </trkpt>
      <trkpt lat="45.91387" lon="4.73739">
        <ele>173</ele>
        <time>2017-05-05T11:12:50Z</time>
      </trkpt>
      <trkpt lat="45.91393" lon="4.7374">
        <ele>173</ele>
        <time>2017-05-05T11:12:51Z</time>
      </trkpt>
      <trkpt lat="45.91399" lon="4.73739">
        <ele>173</ele>
        <time>2017-05-05T11:12:52Z</time>
      </trkpt>
      <trkpt lat="45.91405" lon="4.73739">
        <ele>173</ele>
        <time>2017-05-05T11:12:53Z</time>
      </trkpt>
      <trkpt lat="45.91411" lon="4.73739">
        <ele>173</ele>
        <time>2017-05-05T11:12:54Z</time>
      </trkpt>
      <trkpt lat="45.91417" lon="4.73739">
        <ele>173</ele>
        <time>2017-05-05T11:12:55Z</time>
      </trkpt>
      <trkpt lat="45.91423" lon="4.73739">
        <ele>173</ele>
        <time>2017-05-05T11:12:56Z</time>
      </trkpt>
      <trkpt lat="45.9143" lon="4.73739">
        <ele>173</ele>
        <time>2017-05-05T11:12:57Z</time>
      </trkpt>
      <trkpt lat="45.91436" lon="4.73739">
        <ele>173</ele>
        <time>2017-05-05T11:12:58Z</time>
      </trkpt>
      <trkpt lat="45.91442" lon="4.73739">
        <ele>173</ele>
        <time>2017-05-05T11:12:59Z</time>
      </trkpt>
      <trkpt lat="45.91449" lon="4.73739">
        <ele>173</ele>
        <time>2017-05-05T11:13:00Z</time>
      </trkpt>
      <trkpt lat="45.91455" lon="4.73739">
        <ele>173</ele>
        <time>2017-05-05T11:13:01Z</time>
      </trkpt>
      <trkpt lat="45.91462" lon="4.73739">
        <ele>174</ele>
        <time>2017-05-05T11:13:02Z</time>
      </trkpt>
      <trkpt lat="45.91468" lon="4.73739">
        <ele>174</ele>
        <time>2017-05-05T11:13:03Z</time>
      </trkpt>
      <trkpt lat="45.91473" lon="4.73739">
        <ele>174</ele>
        <time>2017-05-05T11:13:04Z</time>
      </trkpt>
      <trkpt lat="45.91479" lon="4.73739">
        <ele>174</ele>
        <time>2017-05-05T11:13:05Z</time>
      </trkpt>
      <trkpt lat="45.91485" lon="4.73739">
        <ele>174</ele>
        <time>2017-05-05T11:13:06Z</time>
      </trkpt>
      <trkpt lat="45.9149" lon="4.73738">
        <ele>174</ele>
        <time>2017-05-05T11:13:07Z</time>
      </trkpt>
      <trkpt lat="45.91496" lon="4.73738">
        <ele>174</ele>
        <time>2017-05-05T11:13:08Z</time>
      </trkpt>
      <trkpt lat="45.91501" lon="4.73738">
        <ele>174</ele>
        <time>2017-05-05T11:13:09Z</time>
      </trkpt>
      <trkpt lat="45.91507" lon="4.73738">
        <ele>174</ele>
        <time>2017-05-05T11:13:10Z</time>
      </trkpt>
      <trkpt lat="45.91513" lon="4.73738">
        <ele>174</ele>
        <time>2017-05-05T11:13:11Z</time>
      </trkpt>
      <trkpt lat="45.91518" lon="4.73738">
        <ele>174</ele>
        <time>2017-05-05T11:13:12Z</time>
      </trkpt>
      <trkpt lat="45.91524" lon="4.73738">
        <ele>174</ele>
        <time>2017-05-05T11:13:13Z</time>
      </trkpt>
      <trkpt lat="45.9153" lon="4.73738">
        <ele>174</ele>
        <time>2017-05-05T11:13:14Z</time>
      </trkpt>
      <trkpt lat="45.91535" lon="4.73739">
        <ele>174</ele>
        <time>2017-05-05T11:13:15Z</time>
      </trkpt>
      <trkpt lat="45.91541" lon="4.73739">
        <ele>174</ele>
        <time>2017-05-05T11:13:16Z</time>
      </trkpt>
      <trkpt lat="45.91546" lon="4.73739">
        <ele>174</ele>
        <time>2017-05-05T11:13:17Z</time>
      </trkpt>
      <trkpt lat="45.91551" lon="4.73739">
        <ele>174</ele>
        <time>2017-05-05T11:13:18Z</time>
      </trkpt>
      <trkpt lat="45.91556" lon="4.73739">
        <ele>174</ele>
        <time>2017-05-05T11:13:19Z</time>
      </trkpt>
      <trkpt lat="45.91562" lon="4.73739">
        <ele>173</ele>
        <time>2017-05-05T11:13:20Z</time>
      </trkpt>
      <trkpt lat="45.91568" lon="4.73739">
        <ele>173</ele>
        <time>2017-05-05T11:13:21Z</time>
      </trkpt>
      <trkpt lat="45.91573" lon="4.73739">
        <ele>173</ele>
        <time>2017-05-05T11:13:22Z</time>
      </trkpt>
      <trkpt lat="45.91579" lon="4.73738">
        <ele>173</ele>
        <time>2017-05-05T11:13:23Z</time>
      </trkpt>
      <trkpt lat="45.91586" lon="4.73738">
        <ele>173</ele>
        <time>2017-05-05T11:13:24Z</time>
      </trkpt>
      <trkpt lat="45.91592" lon="4.73738">
        <ele>173</ele>
        <time>2017-05-05T11:13:25Z</time>
      </trkpt>
      <trkpt lat="45.91598" lon="4.73738">
        <ele>173</ele>
        <time>2017-05-05T11:13:26Z</time>
      </trkpt>
      <trkpt lat="45.91605" lon="4.73737">
        <ele>173</ele>
        <time>2017-05-05T11:13:27Z</time>
      </trkpt>
      <trkpt lat="45.91612" lon="4.73737">
        <ele>173</ele>
        <time>2017-05-05T11:13:28Z</time>
      </trkpt>
      <trkpt lat="45.91618" lon="4.73737">
        <ele>173</ele>
        <time>2017-05-05T11:13:29Z</time>
      </trkpt>
      <trkpt lat="45.91625" lon="4.73737">
        <ele>172</ele>
        <time>2017-05-05T11:13:30Z</time>
      </trkpt>
      <trkpt lat="45.91632" lon="4.73737">
        <ele>172</ele>
        <time>2017-05-05T11:13:31Z</time>
      </trkpt>
      <trkpt lat="45.91638" lon="4.73737">
        <ele>172</ele>
        <time>2017-05-05T11:13:32Z</time>
      </trkpt>
      <trkpt lat="45.91645" lon="4.73737">
        <ele>172</ele>
        <time>2017-05-05T11:13:33Z</time>
      </trkpt>
      <trkpt lat="45.91651" lon="4.73737">
        <ele>172</ele>
        <time>2017-05-05T11:13:34Z</time>
      </trkpt>
      <trkpt lat="45.91657" lon="4.73737">
        <ele>172</ele>
        <time>2017-05-05T11:13:35Z</time>
      </trkpt>
      <trkpt lat="45.91663" lon="4.73737">
        <ele>172</ele>
        <time>2017-05-05T11:13:36Z</time>
      </trkpt>
      <trkpt lat="45.91669" lon="4.73737">
        <ele>172</ele>
        <time>2017-05-05T11:13:37Z</time>
      </trkpt>
      <trkpt lat="45.91675" lon="4.73737">
        <ele>172</ele>
        <time>2017-05-05T11:13:38Z</time>
      </trkpt>
      <trkpt lat="45.9168" lon="4.73737">
        <ele>172</ele>
        <time>2017-05-05T11:13:39Z</time>
      </trkpt>
      <trkpt lat="45.91686" lon="4.73737">
        <ele>172</ele>
        <time>2017-05-05T11:13:40Z</time>
      </trkpt>
      <trkpt lat="45.91692" lon="4.73736">
        <ele>172</ele>
        <time>2017-05-05T11:13:41Z</time>
      </trkpt>
      <trkpt lat="45.91697" lon="4.73736">
        <ele>172</ele>
        <time>2017-05-05T11:13:42Z</time>
      </trkpt>
      <trkpt lat="45.91703" lon="4.73736">
        <ele>172</ele>
        <time>2017-05-05T11:13:43Z</time>
      </trkpt>
      <trkpt lat="45.91708" lon="4.73736">
        <ele>172</ele>
        <time>2017-05-05T11:13:44Z</time>
      </trkpt>
      <trkpt lat="45.91714" lon="4.73735">
        <ele>173</ele>
        <time>2017-05-05T11:13:45Z</time>
      </trkpt>
      <trkpt lat="45.9172" lon="4.73735">
        <ele>173</ele>
        <time>2017-05-05T11:13:46Z</time>
      </trkpt>
      <trkpt lat="45.91726" lon="4.73735">
        <ele>173</ele>
        <time>2017-05-05T11:13:47Z</time>
      </trkpt>
      <trkpt lat="45.91732" lon="4.73735">
        <ele>173</ele>
        <time>2017-05-05T11:13:48Z</time>
      </trkpt>
      <trkpt lat="45.91738" lon="4.73735">
        <ele>173</ele>
        <time>2017-05-05T11:13:49Z</time>
      </trkpt>
      <trkpt lat="45.91744" lon="4.73735">
        <ele>173</ele>
        <time>2017-05-05T11:13:50Z</time>
      </trkpt>
      <trkpt lat="45.9175" lon="4.73735">
        <ele>173</ele>
        <time>2017-05-05T11:13:51Z</time>
      </trkpt>
      <trkpt lat="45.91757" lon="4.73735">
        <ele>173</ele>
        <time>2017-05-05T11:13:52Z</time>
      </trkpt>
      <trkpt lat="45.91764" lon="4.73735">
        <ele>173</ele>
        <time>2017-05-05T11:13:53Z</time>
      </trkpt>
      <trkpt lat="45.9177" lon="4.73735">
        <ele>173</ele>
        <time>2017-05-05T11:13:54Z</time>
      </trkpt>
      <trkpt lat="45.91777" lon="4.73735">
        <ele>173</ele>
        <time>2017-05-05T11:13:55Z</time>
      </trkpt>
      <trkpt lat="45.91783" lon="4.73735">
        <ele>173</ele>
        <time>2017-05-05T11:13:56Z</time>
      </trkpt>
      <trkpt lat="45.91789" lon="4.73735">
        <ele>173</ele>
        <time>2017-05-05T11:13:57Z</time>
      </trkpt>
      <trkpt lat="45.91794" lon="4.73735">
        <ele>172</ele>
        <time>2017-05-05T11:13:58Z</time>
      </trkpt>
      <trkpt lat="45.91801" lon="4.73735">
        <ele>172</ele>
        <time>2017-05-05T11:13:59Z</time>
      </trkpt>
      <trkpt lat="45.91807" lon="4.73735">
        <ele>172</ele>
        <time>2017-05-05T11:14:00Z</time>
      </trkpt>
      <trkpt lat="45.91813" lon="4.73735">
        <ele>172</ele>
        <time>2017-05-05T11:14:01Z</time>
      </trkpt>
      <trkpt lat="45.91819" lon="4.73735">
        <ele>172</ele>
        <time>2017-05-05T11:14:02Z</time>
      </trkpt>
      <trkpt lat="45.91825" lon="4.73735">
        <ele>172</ele>
        <time>2017-05-05T11:14:03Z</time>
      </trkpt>
      <trkpt lat="45.9183" lon="4.73735">
        <ele>172</ele>
        <time>2017-05-05T11:14:04Z</time>
      </trkpt>
      <trkpt lat="45.91836" lon="4.73735">
        <ele>172</ele>
        <time>2017-05-05T11:14:05Z</time>
      </trkpt>
      <trkpt lat="45.91841" lon="4.73735">
        <ele>172</ele>
        <time>2017-05-05T11:14:06Z</time>
      </trkpt>
      <trkpt lat="45.91847" lon="4.73735">
        <ele>172</ele>
        <time>2017-05-05T11:14:07Z</time>
      </trkpt>
      <trkpt lat="45.91853" lon="4.73735">
        <ele>171</ele>
        <time>2017-05-05T11:14:08Z</time>
      </trkpt>
      <trkpt lat="45.91858" lon="4.73734">
        <ele>171</ele>
        <time>2017-05-05T11:14:09Z</time>
      </trkpt>
      <trkpt lat="45.91864" lon="4.73734">
        <ele>171</ele>
        <time>2017-05-05T11:14:10Z</time>
      </trkpt>
      <trkpt lat="45.91871" lon="4.73734">
        <ele>171</ele>
        <time>2017-05-05T11:14:11Z</time>
      </trkpt>
      <trkpt lat="45.91877" lon="4.73734">
        <ele>171</ele>
        <time>2017-05-05T11:14:12Z</time>
      </trkpt>
      <trkpt lat="45.91883" lon="4.73734">
        <ele>171</ele>
        <time>2017-05-05T11:14:13Z</time>
      </trkpt>
      <trkpt lat="45.9189" lon="4.73734">
        <ele>171</ele>
        <time>2017-05-05T11:14:14Z</time>
      </trkpt>
      <trkpt lat="45.91896" lon="4.73734">
        <ele>171</ele>
        <time>2017-05-05T11:14:15Z</time>
      </trkpt>
      <trkpt lat="45.91902" lon="4.73734">
        <ele>171</ele>
        <time>2017-05-05T11:14:16Z</time>
      </trkpt>
      <trkpt lat="45.91909" lon="4.73733">
        <ele>171</ele>
        <time>2017-05-05T11:14:17Z</time>
      </trkpt>
      <trkpt lat="45.91914" lon="4.73733">
        <ele>171</ele>
        <time>2017-05-05T11:14:18Z</time>
      </trkpt>
      <trkpt lat="45.9192" lon="4.73733">
        <ele>170</ele>
        <time>2017-05-05T11:14:19Z</time>
      </trkpt>
      <trkpt lat="45.91925" lon="4.73732">
        <ele>170</ele>
        <time>2017-05-05T11:14:20Z</time>
      </trkpt>
      <trkpt lat="45.9193" lon="4.73732">
        <ele>170</ele>
        <time>2017-05-05T11:14:21Z</time>
      </trkpt>
      <trkpt lat="45.91936" lon="4.73731">
        <ele>170</ele>
        <time>2017-05-05T11:14:22Z</time>
      </trkpt>
      <trkpt lat="45.91941" lon="4.73731">
        <ele>170</ele>
        <time>2017-05-05T11:14:23Z</time>
      </trkpt>
      <trkpt lat="45.91947" lon="4.73731">
        <ele>170</ele>
        <time>2017-05-05T11:14:24Z</time>
      </trkpt>
      <trkpt lat="45.91952" lon="4.73731">
        <ele>170</ele>
        <time>2017-05-05T11:14:25Z</time>
      </trkpt>
      <trkpt lat="45.91958" lon="4.73731">
        <ele>170</ele>
        <time>2017-05-05T11:14:26Z</time>
      </trkpt>
      <trkpt lat="45.91963" lon="4.73731">
        <ele>171</ele>
        <time>2017-05-05T11:14:27Z</time>
      </trkpt>
      <trkpt lat="45.91968" lon="4.7373">
        <ele>171</ele>
        <time>2017-05-05T11:14:28Z</time>
      </trkpt>
      <trkpt lat="45.91974" lon="4.7373">
        <ele>171</ele>
        <time>2017-05-05T11:14:29Z</time>
      </trkpt>
      <trkpt lat="45.9198" lon="4.7373">
        <ele>171</ele>
        <time>2017-05-05T11:14:30Z</time>
      </trkpt>
      <trkpt lat="45.91986" lon="4.7373">
        <ele>171</ele>
        <time>2017-05-05T11:14:31Z</time>
      </trkpt>
      <trkpt lat="45.91992" lon="4.7373">
        <ele>171</ele>
        <time>2017-05-05T11:14:32Z</time>
      </trkpt>
      <trkpt lat="45.91998" lon="4.7373">
        <ele>171</ele>
        <time>2017-05-05T11:14:33Z</time>
      </trkpt>
      <trkpt lat="45.92004" lon="4.7373">
        <ele>171</ele>
        <time>2017-05-05T11:14:34Z</time>
      </trkpt>
      <trkpt lat="45.92011" lon="4.7373">
        <ele>171</ele>
        <time>2017-05-05T11:14:35Z</time>
      </trkpt>
      <trkpt lat="45.92018" lon="4.7373">
        <ele>171</ele>
        <time>2017-05-05T11:14:36Z</time>
      </trkpt>
      <trkpt lat="45.92025" lon="4.7373">
        <ele>171</ele>
        <time>2017-05-05T11:14:37Z</time>
      </trkpt>
      <trkpt lat="45.92031" lon="4.7373">
        <ele>171</ele>
        <time>2017-05-05T11:14:38Z</time>
      </trkpt>
      <trkpt lat="45.92038" lon="4.73729">
        <ele>171</ele>
        <time>2017-05-05T11:14:39Z</time>
      </trkpt>
      <trkpt lat="45.92044" lon="4.73729">
        <ele>171</ele>
        <time>2017-05-05T11:14:40Z</time>
      </trkpt>
      <trkpt lat="45.92051" lon="4.73728">
        <ele>171</ele>
        <time>2017-05-05T11:14:41Z</time>
      </trkpt>
      <trkpt lat="45.92057" lon="4.73728">
        <ele>171</ele>
        <time>2017-05-05T11:14:42Z</time>
      </trkpt>
      <trkpt lat="45.92063" lon="4.73728">
        <ele>171</ele>
        <time>2017-05-05T11:14:43Z</time>
      </trkpt>
      <trkpt lat="45.92069" lon="4.73728">
        <ele>171</ele>
        <time>2017-05-05T11:14:44Z</time>
      </trkpt>
      <trkpt lat="45.92074" lon="4.73728">
        <ele>171</ele>
        <time>2017-05-05T11:14:45Z</time>
      </trkpt>
      <trkpt lat="45.9208" lon="4.73727">
        <ele>171</ele>
        <time>2017-05-05T11:14:46Z</time>
      </trkpt>
      <trkpt lat="45.92085" lon="4.73726">
        <ele>171</ele>
        <time>2017-05-05T11:14:47Z</time>
      </trkpt>
      <trkpt lat="45.92091" lon="4.73726">
        <ele>171</ele>
        <time>2017-05-05T11:14:48Z</time>
      </trkpt>
      <trkpt lat="45.92097" lon="4.73725">
        <ele>171</ele>
        <time>2017-05-05T11:14:49Z</time>
      </trkpt>
      <trkpt lat="45.92103" lon="4.73725">
        <ele>171</ele>
        <time>2017-05-05T11:14:50Z</time>
      </trkpt>
      <trkpt lat="45.92109" lon="4.73723">
        <ele>171</ele>
        <time>2017-05-05T11:14:51Z</time>
      </trkpt>
      <trkpt lat="45.92115" lon="4.73722">
        <ele>171</ele>
        <time>2017-05-05T11:14:52Z</time>
      </trkpt>
      <trkpt lat="45.92121" lon="4.7372">
        <ele>171</ele>
        <time>2017-05-05T11:14:53Z</time>
      </trkpt>
      <trkpt lat="45.92127" lon="4.73718">
        <ele>171</ele>
        <time>2017-05-05T11:14:54Z</time>
      </trkpt>
      <trkpt lat="45.92133" lon="4.73716">
        <ele>171</ele>
        <time>2017-05-05T11:14:55Z</time>
      </trkpt>
      <trkpt lat="45.9214" lon="4.73713">
        <ele>171</ele>
        <time>2017-05-05T11:14:56Z</time>
      </trkpt>
      <trkpt lat="45.92146" lon="4.73711">
        <ele>171</ele>
        <time>2017-05-05T11:14:57Z</time>
      </trkpt>
      <trkpt lat="45.92152" lon="4.73708">
        <ele>171</ele>
        <time>2017-05-05T11:14:58Z</time>
      </trkpt>
      <trkpt lat="45.92158" lon="4.73705">
        <ele>171</ele>
        <time>2017-05-05T11:14:59Z</time>
      </trkpt>
      <trkpt lat="45.92165" lon="4.73703">
        <ele>171</ele>
        <time>2017-05-05T11:15:00Z</time>
      </trkpt>
      <trkpt lat="45.92171" lon="4.737">
        <ele>171</ele>
        <time>2017-05-05T11:15:01Z</time>
      </trkpt>
      <trkpt lat="45.92177" lon="4.73697">
        <ele>171</ele>
        <time>2017-05-05T11:15:02Z</time>
      </trkpt>
      <trkpt lat="45.92183" lon="4.73694">
        <ele>171</ele>
        <time>2017-05-05T11:15:03Z</time>
      </trkpt>
      <trkpt lat="45.92188" lon="4.73691">
        <ele>171</ele>
        <time>2017-05-05T11:15:04Z</time>
      </trkpt>
      <trkpt lat="45.92194" lon="4.73688">
        <ele>171</ele>
        <time>2017-05-05T11:15:05Z</time>
      </trkpt>
      <trkpt lat="45.92199" lon="4.73686">
        <ele>171</ele>
        <time>2017-05-05T11:15:06Z</time>
      </trkpt>
      <trkpt lat="45.92205" lon="4.73683">
        <ele>171</ele>
        <time>2017-05-05T11:15:07Z</time>
      </trkpt>
      <trkpt lat="45.9221" lon="4.7368">
        <ele>171</ele>
        <time>2017-05-05T11:15:08Z</time>
      </trkpt>
      <trkpt lat="45.92215" lon="4.73678">
        <ele>171</ele>
        <time>2017-05-05T11:15:09Z</time>
      </trkpt>
      <trkpt lat="45.9222" lon="4.73675">
        <ele>171</ele>
        <time>2017-05-05T11:15:10Z</time>
      </trkpt>
      <trkpt lat="45.92225" lon="4.73673">
        <ele>171</ele>
        <time>2017-05-05T11:15:11Z</time>
      </trkpt>
      <trkpt lat="45.92229" lon="4.73671">
        <ele>171</ele>
        <time>2017-05-05T11:15:12Z</time>
      </trkpt>
      <trkpt lat="45.92234" lon="4.73668">
        <ele>171</ele>
        <time>2017-05-05T11:15:13Z</time>
      </trkpt>
      <trkpt lat="45.92239" lon="4.73665">
        <ele>171</ele>
        <time>2017-05-05T11:15:14Z</time>
      </trkpt>
      <trkpt lat="45.92244" lon="4.73662">
        <ele>171</ele>
        <time>2017-05-05T11:15:15Z</time>
      </trkpt>
      <trkpt lat="45.92249" lon="4.73659">
        <ele>171</ele>
        <time>2017-05-05T11:15:16Z</time>
      </trkpt>
      <trkpt lat="45.92255" lon="4.73656">
        <ele>171</ele>
        <time>2017-05-05T11:15:17Z</time>
      </trkpt>
      <trkpt lat="45.9226" lon="4.73653">
        <ele>171</ele>
        <time>2017-05-05T11:15:18Z</time>
      </trkpt>
      <trkpt lat="45.92266" lon="4.7365">
        <ele>171</ele>
        <time>2017-05-05T11:15:19Z</time>
      </trkpt>
      <trkpt lat="45.92271" lon="4.73647">
        <ele>172</ele>
        <time>2017-05-05T11:15:20Z</time>
      </trkpt>
      <trkpt lat="45.92276" lon="4.73643">
        <ele>172</ele>
        <time>2017-05-05T11:15:21Z</time>
      </trkpt>
      <trkpt lat="45.92281" lon="4.7364">
        <ele>172</ele>
        <time>2017-05-05T11:15:22Z</time>
      </trkpt>
      <trkpt lat="45.92286" lon="4.73637">
        <ele>172</ele>
        <time>2017-05-05T11:15:23Z</time>
      </trkpt>
      <trkpt lat="45.9229" lon="4.73635">
        <ele>172</ele>
        <time>2017-05-05T11:15:24Z</time>
      </trkpt>
      <trkpt lat="45.92295" lon="4.73632">
        <ele>172</ele>
        <time>2017-05-05T11:15:25Z</time>
      </trkpt>
      <trkpt lat="45.923" lon="4.73629">
        <ele>172</ele>
        <time>2017-05-05T11:15:26Z</time>
      </trkpt>
      <trkpt lat="45.92304" lon="4.73627">
        <ele>172</ele>
        <time>2017-05-05T11:15:27Z</time>
      </trkpt>
      <trkpt lat="45.92309" lon="4.73625">
        <ele>172</ele>
        <time>2017-05-05T11:15:28Z</time>
      </trkpt>
      <trkpt lat="45.92314" lon="4.73622">
        <ele>172</ele>
        <time>2017-05-05T11:15:29Z</time>
      </trkpt>
      <trkpt lat="45.92319" lon="4.73619">
        <ele>172</ele>
        <time>2017-05-05T11:15:30Z</time>
      </trkpt>
      <trkpt lat="45.92324" lon="4.73616">
        <ele>172</ele>
        <time>2017-05-05T11:15:31Z</time>
      </trkpt>
      <trkpt lat="45.92328" lon="4.73612">
        <ele>172</ele>
        <time>2017-05-05T11:15:32Z</time>
      </trkpt>
      <trkpt lat="45.92333" lon="4.73609">
        <ele>172</ele>
        <time>2017-05-05T11:15:33Z</time>
      </trkpt>
      <trkpt lat="45.92338" lon="4.73607">
        <ele>173</ele>
        <time>2017-05-05T11:15:34Z</time>
      </trkpt>
      <trkpt lat="45.92343" lon="4.73604">
        <ele>173</ele>
        <time>2017-05-05T11:15:35Z</time>
      </trkpt>
      <trkpt lat="45.92347" lon="4.73602">
        <ele>173</ele>
        <time>2017-05-05T11:15:36Z</time>
      </trkpt>
      <trkpt lat="45.92352" lon="4.73599">
        <ele>173</ele>
        <time>2017-05-05T11:15:37Z</time>
      </trkpt>
      <trkpt lat="45.92357" lon="4.73597">
        <ele>173</ele>
        <time>2017-05-05T11:15:38Z</time>
      </trkpt>
      <trkpt lat="45.92362" lon="4.73595">
        <ele>173</ele>
        <time>2017-05-05T11:15:39Z</time>
      </trkpt>
      <trkpt lat="45.92368" lon="4.73593">
        <ele>173</ele>
        <time>2017-05-05T11:15:40Z</time>
      </trkpt>
      <trkpt lat="45.92374" lon="4.73591">
        <ele>173</ele>
        <time>2017-05-05T11:15:41Z</time>
      </trkpt>
      <trkpt lat="45.92379" lon="4.73588">
        <ele>173</ele>
        <time>2017-05-05T11:15:42Z</time>
      </trkpt>
      <trkpt lat="45.92385" lon="4.73585">
        <ele>173</ele>
        <time>2017-05-05T11:15:43Z</time>
      </trkpt>
      <trkpt lat="45.92391" lon="4.73581">
        <ele>173</ele>
        <time>2017-05-05T11:15:44Z</time>
      </trkpt>
      <trkpt lat="45.92396" lon="4.73578">
        <ele>173</ele>
        <time>2017-05-05T11:15:45Z</time>
      </trkpt>
      <trkpt lat="45.92401" lon="4.73575">
        <ele>173</ele>
        <time>2017-05-05T11:15:46Z</time>
      </trkpt>
      <trkpt lat="45.92407" lon="4.73572">
        <ele>173</ele>
        <time>2017-05-05T11:15:47Z</time>
      </trkpt>
      <trkpt lat="45.92411" lon="4.7357">
        <ele>173</ele>
        <time>2017-05-05T11:15:48Z</time>
      </trkpt>
      <trkpt lat="45.92416" lon="4.73567">
        <ele>173</ele>
        <time>2017-05-05T11:15:49Z</time>
      </trkpt>
      <trkpt lat="45.92421" lon="4.73565">
        <ele>174</ele>
        <time>2017-05-05T11:15:50Z</time>
      </trkpt>
      <trkpt lat="45.92426" lon="4.73563">
        <ele>174</ele>
        <time>2017-05-05T11:15:51Z</time>
      </trkpt>
      <trkpt lat="45.92431" lon="4.7356">
        <ele>174</ele>
        <time>2017-05-05T11:15:52Z</time>
      </trkpt>
      <trkpt lat="45.92435" lon="4.73558">
        <ele>174</ele>
        <time>2017-05-05T11:15:53Z</time>
      </trkpt>
      <trkpt lat="45.9244" lon="4.73556">
        <ele>174</ele>
        <time>2017-05-05T11:15:54Z</time>
      </trkpt>
      <trkpt lat="45.92444" lon="4.73554">
        <ele>174</ele>
        <time>2017-05-05T11:15:55Z</time>
      </trkpt>
      <trkpt lat="45.92448" lon="4.73551">
        <ele>174</ele>
        <time>2017-05-05T11:15:56Z</time>
      </trkpt>
      <trkpt lat="45.92453" lon="4.73548">
        <ele>174</ele>
        <time>2017-05-05T11:15:57Z</time>
      </trkpt>
      <trkpt lat="45.92457" lon="4.73548">
        <ele>174</ele>
        <time>2017-05-05T11:15:58Z</time>
      </trkpt>
      <trkpt lat="45.92464" lon="4.73554">
        <ele>173</ele>
        <time>2017-05-05T11:16:00Z</time>
      </trkpt>
      <trkpt lat="45.92466" lon="4.7356">
        <ele>173</ele>
        <time>2017-05-05T11:16:01Z</time>
      </trkpt>
      <trkpt lat="45.92467" lon="4.73567">
        <ele>173</ele>
        <time>2017-05-05T11:16:02Z</time>
      </trkpt>
      <trkpt lat="45.92467" lon="4.73574">
        <ele>173</ele>
        <time>2017-05-05T11:16:03Z</time>
      </trkpt>
      <trkpt lat="45.92466" lon="4.73581">
        <ele>173</ele>
        <time>2017-05-05T11:16:04Z</time>
      </trkpt>
      <trkpt lat="45.92466" lon="4.73589">
        <ele>174</ele>
        <time>2017-05-05T11:16:05Z</time>
      </trkpt>
      <trkpt lat="45.92466" lon="4.73597">
        <ele>174</ele>
        <time>2017-05-05T11:16:06Z</time>
      </trkpt>
      <trkpt lat="45.92466" lon="4.73604">
        <ele>174</ele>
        <time>2017-05-05T11:16:07Z</time>
      </trkpt>
      <trkpt lat="45.92467" lon="4.73612">
        <ele>174</ele>
        <time>2017-05-05T11:16:08Z</time>
      </trkpt>
      <trkpt lat="45.92467" lon="4.73621">
        <ele>174</ele>
        <time>2017-05-05T11:16:09Z</time>
      </trkpt>
      <trkpt lat="45.92467" lon="4.73628">
        <ele>174</ele>
        <time>2017-05-05T11:16:10Z</time>
      </trkpt>
      <trkpt lat="45.92468" lon="4.73636">
        <ele>174</ele>
        <time>2017-05-05T11:16:11Z</time>
      </trkpt>
      <trkpt lat="45.92467" lon="4.73643">
        <ele>174</ele>
        <time>2017-05-05T11:16:12Z</time>
      </trkpt>
      <trkpt lat="45.92467" lon="4.7365">
        <ele>174</ele>
        <time>2017-05-05T11:16:13Z</time>
      </trkpt>
      <trkpt lat="45.92466" lon="4.73662">
        <ele>174</ele>
        <time>2017-05-05T11:16:15Z</time>
      </trkpt>
      <trkpt lat="45.92466" lon="4.73668">
        <ele>174</ele>
        <time>2017-05-05T11:16:16Z</time>
      </trkpt>
      <trkpt lat="45.92465" lon="4.73679">
        <ele>174</ele>
        <time>2017-05-05T11:16:18Z</time>
      </trkpt>
      <trkpt lat="45.92464" lon="4.73684">
        <ele>174</ele>
        <time>2017-05-05T11:16:19Z</time>
      </trkpt>
      <trkpt lat="45.92463" lon="4.73694">
        <ele>174</ele>
        <time>2017-05-05T11:16:21Z</time>
      </trkpt>
      <trkpt lat="45.92463" lon="4.73699">
        <ele>174</ele>
        <time>2017-05-05T11:16:22Z</time>
      </trkpt>
      <trkpt lat="45.92462" lon="4.73711">
        <ele>174</ele>
        <time>2017-05-05T11:16:33Z</time>
      </trkpt>
      <trkpt lat="45.92461" lon="4.73712">
        <ele>174</ele>
        <time>2017-05-05T11:16:34Z</time>
      </trkpt>
      <trkpt lat="45.92461" lon="4.73712">
        <ele>174</ele>
        <time>2017-05-05T11:16:35Z</time>
      </trkpt>
      <trkpt lat="45.9246" lon="4.73712">
        <ele>174</ele>
        <time>2017-05-05T11:16:36Z</time>
      </trkpt>
      <trkpt lat="45.9246" lon="4.73712">
        <ele>174</ele>
        <time>2017-05-05T11:16:37Z</time>
      </trkpt>
      <trkpt lat="45.92458" lon="4.73712">
        <ele>174</ele>
        <time>2017-05-05T11:16:50.9Z</time>
      </trkpt>
    </trkseg>
  </trk>
</gpx>